<?xml version='1.0' encoding='UTF-8'?><gpx version="1.1" creator="JPX - https://github.com/jenetics/jpx" xmlns="http://www.topografix.com/GPX/1/1"><trk><trkseg><trkpt lat="40.424942226610604" lon="15.006103093241055"><ele>16.999999999999996</ele><time>2026-03-29T07:19:14.999Z</time></trkpt><trkpt lat="40.42500612973725" lon="15.006074004610031"><ele>17.0</ele><time>2026-03-29T07:19:20.999Z</time></trkpt><trkpt lat="40.42507104166186" lon="15.006062825598613"><ele>17.0</ele><time>2026-03-29T07:19:30.999Z</time></trkpt><trkpt lat="40.425086848528444" lon="15.006152581848488"><ele>17.0</ele><time>2026-03-29T07:19:40.999Z</time></trkpt><trkpt lat="40.42516500847854" lon="15.00613620955883"><ele>17.0</ele><time>2026-03-29T07:19:46Z</time></trkpt><trkpt lat="40.425170156179384" lon="15.006041763189971"><ele>16.999999999999996</ele><time>2026-03-29T07:19:57Z</time></trkpt><trkpt lat="40.4251907262531" lon="15.005942438302538"><ele>17.0</ele><time>2026-03-29T07:20:31.999Z</time></trkpt><trkpt lat="40.42512097627754" lon="15.005953681983684"><ele>17.0</ele><time>2026-03-29T07:20:34.999Z</time></trkpt><trkpt lat="40.425045700178714" lon="15.005995448109417"><ele>17.0</ele><time>2026-03-29T07:20:37.999Z</time></trkpt><trkpt lat="40.42496419942249" lon="15.006059724249132"><ele>17.0</ele><time>2026-03-29T07:20:40.999Z</time></trkpt><trkpt lat="40.424903779508824" lon="15.006115868785361"><ele>17.0</ele><time>2026-03-29T07:20:42.999Z</time></trkpt><trkpt lat="40.42479706828632" lon="15.006161491841953"><ele>17.0</ele><time>2026-03-29T07:20:44.999Z</time></trkpt><trkpt lat="40.424734850636156" lon="15.006184915612925"><ele>17.0</ele><time>2026-03-29T07:20:45.999Z</time></trkpt><trkpt lat="40.42466421350964" lon="15.006211338206334"><ele>17.0</ele><time>2026-03-29T07:20:46.999Z</time></trkpt><trkpt lat="40.42457513937026" lon="15.006228441733064"><ele>17.0</ele><time>2026-03-29T07:20:48.999Z</time></trkpt><trkpt lat="40.42451052110254" lon="15.006254926539647"><ele>17.0</ele><time>2026-03-29T07:20:50.999Z</time></trkpt><trkpt lat="40.424573754093764" lon="15.006245522823429"><ele>17.0</ele><time>2026-03-29T07:20:54.999Z</time></trkpt><trkpt lat="40.424482739962876" lon="15.006329882063385"><ele>17.0</ele><time>2026-03-29T07:20:55.999Z</time></trkpt><trkpt lat="40.42466245786917" lon="15.006254224820445"><ele>17.0</ele><time>2026-03-29T07:20:56.999Z</time></trkpt><trkpt lat="40.42474429102981" lon="15.006220101538169"><ele>17.0</ele><time>2026-03-29T07:20:58.999Z</time></trkpt><trkpt lat="40.42481217848803" lon="15.006180254516918"><ele>17.0</ele><time>2026-03-29T07:21:00.999Z</time></trkpt><trkpt lat="40.42488296970094" lon="15.006128737615521"><ele>17.0</ele><time>2026-03-29T07:21:03.999Z</time></trkpt><trkpt lat="40.424964396274746" lon="15.006097199686966"><ele>17.0</ele><time>2026-03-29T07:21:06.999Z</time></trkpt><trkpt lat="40.42503098095366" lon="15.0060490691258"><ele>17.0</ele><time>2026-03-29T07:21:09.999Z</time></trkpt><trkpt lat="40.42508977073878" lon="15.006016582678816"><ele>17.0</ele><time>2026-03-29T07:21:13.999Z</time></trkpt><trkpt lat="40.425165713347816" lon="15.005990743297195"><ele>17.0</ele><time>2026-03-29T07:22:23Z</time></trkpt><trkpt lat="40.425246307071895" lon="15.005930512278745"><ele>17.0</ele><time>2026-03-29T07:22:34.999Z</time></trkpt><trkpt lat="40.425310142786444" lon="15.00590559216081"><ele>17.0</ele><time>2026-03-29T07:22:36.999Z</time></trkpt><trkpt lat="40.42537927698547" lon="15.005886435838185"><ele>17.0</ele><time>2026-03-29T07:22:39.999Z</time></trkpt><trkpt lat="40.42552676764487" lon="15.005791717599664"><ele>17.0</ele><time>2026-03-29T07:22:41.999Z</time></trkpt><trkpt lat="40.42561433758487" lon="15.005742694485528"><ele>17.0</ele><time>2026-03-29T07:22:43.999Z</time></trkpt><trkpt lat="40.42568076687735" lon="15.005690834261287"><ele>17.0</ele><time>2026-03-29T07:22:45.999Z</time></trkpt><trkpt lat="40.42579412226405" lon="15.005628989723165"><ele>17.0</ele><time>2026-03-29T07:22:47.999Z</time></trkpt><trkpt lat="40.42587191716801" lon="15.00559066629975"><ele>17.0</ele><time>2026-03-29T07:22:48.999Z</time></trkpt><trkpt lat="40.425945454310934" lon="15.00554506206814"><ele>17.0</ele><time>2026-03-29T07:22:49.999Z</time></trkpt><trkpt lat="40.426030814844985" lon="15.005498760827876"><ele>17.0</ele><time>2026-03-29T07:22:50.999Z</time></trkpt><trkpt lat="40.426107429072445" lon="15.005458143741373"><ele>17.0</ele><time>2026-03-29T07:22:51.999Z</time></trkpt><trkpt lat="40.42618061024329" lon="15.005421207742993"><ele>17.0</ele><time>2026-03-29T07:22:52.999Z</time></trkpt><trkpt lat="40.42625336000926" lon="15.005383964119494"><ele>17.0</ele><time>2026-03-29T07:22:53.999Z</time></trkpt><trkpt lat="40.42632462076277" lon="15.00534522153705"><ele>17.0</ele><time>2026-03-29T07:22:54.999Z</time></trkpt><trkpt lat="40.42638482641115" lon="15.005309316042348"><ele>16.999999999999996</ele><time>2026-03-29T07:22:55.999Z</time></trkpt><trkpt lat="40.42644459597119" lon="15.005275452591011"><ele>17.0</ele><time>2026-03-29T07:22:56.999Z</time></trkpt><trkpt lat="40.426504614010256" lon="15.00524240291818"><ele>17.0</ele><time>2026-03-29T07:22:57.999Z</time></trkpt><trkpt lat="40.42657038471715" lon="15.005208323130647"><ele>17.0</ele><time>2026-03-29T07:22:58.999Z</time></trkpt><trkpt lat="40.4266406051651" lon="15.00517714760665"><ele>17.0</ele><time>2026-03-29T07:22:59.999Z</time></trkpt><trkpt lat="40.42670296352533" lon="15.005151443224271"><ele>16.999999999999996</ele><time>2026-03-29T07:23:00.999Z</time></trkpt><trkpt lat="40.42676687045148" lon="15.005141388362278"><ele>17.0</ele><time>2026-03-29T07:23:01.999Z</time></trkpt><trkpt lat="40.42686679371664" lon="15.005174720934793"><ele>17.0</ele><time>2026-03-29T07:23:03.999Z</time></trkpt><trkpt lat="40.4268754525525" lon="15.005267141229782"><ele>17.0</ele><time>2026-03-29T07:23:05.999Z</time></trkpt><trkpt lat="40.42687514977938" lon="15.005398872544779"><ele>17.0</ele><time>2026-03-29T07:23:06.999Z</time></trkpt><trkpt lat="40.42687902585768" lon="15.005497089728417"><ele>17.0</ele><time>2026-03-29T07:23:07.999Z</time></trkpt><trkpt lat="40.42687653569828" lon="15.00560404684685"><ele>17.0</ele><time>2026-03-29T07:23:08.999Z</time></trkpt><trkpt lat="40.4268833053874" lon="15.00572666602996"><ele>17.0</ele><time>2026-03-29T07:23:09.999Z</time></trkpt><trkpt lat="40.4268910421413" lon="15.005854180409157"><ele>16.6</ele><time>2026-03-29T07:23:10.999Z</time></trkpt><trkpt lat="40.426897215145964" lon="15.005990083626134"><ele>16.2</ele><time>2026-03-29T07:23:11.999Z</time></trkpt><trkpt lat="40.426905372762945" lon="15.006127679276542"><ele>15.8</ele><time>2026-03-29T07:23:12.999Z</time></trkpt><trkpt lat="40.42690586962075" lon="15.006269230467588"><ele>15.4</ele><time>2026-03-29T07:23:13.999Z</time></trkpt><trkpt lat="40.42691213217851" lon="15.006420512206331"><ele>15.0</ele><time>2026-03-29T07:23:14.999Z</time></trkpt><trkpt lat="40.4269169398172" lon="15.006587834399678"><ele>15.0</ele><time>2026-03-29T07:23:15.999Z</time></trkpt><trkpt lat="40.4269268800897" lon="15.006755108226074"><ele>15.0</ele><time>2026-03-29T07:23:16.999Z</time></trkpt><trkpt lat="40.426939616894956" lon="15.006914803247415"><ele>15.0</ele><time>2026-03-29T07:23:17.999Z</time></trkpt><trkpt lat="40.42694697108427" lon="15.007078702957843"><ele>15.0</ele><time>2026-03-29T07:23:18.999Z</time></trkpt><trkpt lat="40.42695280991545" lon="15.007246819058235"><ele>15.0</ele><time>2026-03-29T07:23:19.999Z</time></trkpt><trkpt lat="40.42695480601443" lon="15.007416405152542"><ele>15.0</ele><time>2026-03-29T07:23:20.999Z</time></trkpt><trkpt lat="40.42696220612783" lon="15.007567177835798"><ele>15.0</ele><time>2026-03-29T07:23:21.999Z</time></trkpt><trkpt lat="40.42696788555208" lon="15.007700033137068"><ele>15.0</ele><time>2026-03-29T07:23:22.999Z</time></trkpt><trkpt lat="40.42697164554018" lon="15.007822074058401"><ele>15.0</ele><time>2026-03-29T07:23:23.999Z</time></trkpt><trkpt lat="40.42697085955569" lon="15.007968329208698"><ele>15.25</ele><time>2026-03-29T07:23:24.999Z</time></trkpt><trkpt lat="40.42697066803923" lon="15.008134013699475"><ele>15.5</ele><time>2026-03-29T07:23:25.999Z</time></trkpt><trkpt lat="40.42697826796123" lon="15.00831523877629"><ele>15.75</ele><time>2026-03-29T07:23:26.999Z</time></trkpt><trkpt lat="40.426990451558346" lon="15.008505512688663"><ele>16.0</ele><time>2026-03-29T07:23:27.999Z</time></trkpt><trkpt lat="40.4269985070976" lon="15.008690679959557"><ele>16.0</ele><time>2026-03-29T07:23:28.999Z</time></trkpt><trkpt lat="40.42700246822402" lon="15.008887280839412"><ele>16.0</ele><time>2026-03-29T07:23:29.999Z</time></trkpt><trkpt lat="40.42701020969035" lon="15.009086560865155"><ele>16.0</ele><time>2026-03-29T07:23:30.999Z</time></trkpt><trkpt lat="40.4270160984699" lon="15.009276868125506"><ele>16.0</ele><time>2026-03-29T07:23:31.999Z</time></trkpt><trkpt lat="40.42702297260223" lon="15.009452345402174"><ele>16.25</ele><time>2026-03-29T07:23:32.999Z</time></trkpt><trkpt lat="40.42702988517548" lon="15.009629700725142"><ele>16.5</ele><time>2026-03-29T07:23:33.999Z</time></trkpt><trkpt lat="40.427040139212956" lon="15.009814129697398"><ele>16.75</ele><time>2026-03-29T07:23:34.999Z</time></trkpt><trkpt lat="40.42704695696373" lon="15.010001299109017"><ele>17.0</ele><time>2026-03-29T07:23:35.999Z</time></trkpt><trkpt lat="40.42705517776843" lon="15.010189321567355"><ele>17.0</ele><time>2026-03-29T07:23:36.999Z</time></trkpt><trkpt lat="40.42706233323744" lon="15.010378446369954"><ele>17.0</ele><time>2026-03-29T07:23:37.999Z</time></trkpt><trkpt lat="40.42706964414531" lon="15.010563007775433"><ele>17.0</ele><time>2026-03-29T07:23:38.999Z</time></trkpt><trkpt lat="40.42707711569586" lon="15.010735000401434"><ele>17.0</ele><time>2026-03-29T07:23:39.999Z</time></trkpt><trkpt lat="40.427081625459735" lon="15.010893195536582"><ele>16.75</ele><time>2026-03-29T07:23:40.999Z</time></trkpt><trkpt lat="40.427079266944716" lon="15.011049373554581"><ele>16.5</ele><time>2026-03-29T07:23:41.999Z</time></trkpt><trkpt lat="40.427090011844236" lon="15.011204742553073"><ele>16.25</ele><time>2026-03-29T07:23:42.999Z</time></trkpt><trkpt lat="40.427097796312836" lon="15.011354328500714"><ele>16.0</ele><time>2026-03-29T07:23:44Z</time></trkpt><trkpt lat="40.427102111447496" lon="15.011488471436175"><ele>16.0</ele><time>2026-03-29T07:23:45Z</time></trkpt><trkpt lat="40.42710719409336" lon="15.01162081590438"><ele>16.0</ele><time>2026-03-29T07:23:46Z</time></trkpt><trkpt lat="40.427087303912444" lon="15.011746819874578"><ele>16.0</ele><time>2026-03-29T07:23:47Z</time></trkpt><trkpt lat="40.427083816523556" lon="15.011860001526705"><ele>16.0</ele><time>2026-03-29T07:23:48Z</time></trkpt><trkpt lat="40.427043945247135" lon="15.01196939099173"><ele>16.0</ele><time>2026-03-29T07:23:49Z</time></trkpt><trkpt lat="40.427002156831776" lon="15.012058198020842"><ele>16.142857142857142</ele><time>2026-03-29T07:23:50Z</time></trkpt><trkpt lat="40.426945730152475" lon="15.012117624993607"><ele>16.285714285714285</ele><time>2026-03-29T07:23:52Z</time></trkpt><trkpt lat="40.42699085085961" lon="15.01205385209495"><ele>16.428571428571427</ele><time>2026-03-29T07:24:57.999Z</time></trkpt><trkpt lat="40.427024619550586" lon="15.011982546145111"><ele>16.57142857142857</ele><time>2026-03-29T07:24:59.999Z</time></trkpt><trkpt lat="40.42705712210101" lon="15.011900933891486"><ele>16.714285714285715</ele><time>2026-03-29T07:25:01.999Z</time></trkpt><trkpt lat="40.42707572543093" lon="15.011821181144319"><ele>16.857142857142854</ele><time>2026-03-29T07:25:04.999Z</time></trkpt><trkpt lat="40.427091156008125" lon="15.011729791832884"><ele>17.0</ele><time>2026-03-29T07:25:09.999Z</time></trkpt><trkpt lat="40.42715697267478" lon="15.011716559313962"><ele>16.8</ele><time>2026-03-29T07:25:11.999Z</time></trkpt><trkpt lat="40.427121750712615" lon="15.011594652258944"><ele>16.6</ele><time>2026-03-29T07:25:13.999Z</time></trkpt><trkpt lat="40.42713542084473" lon="15.011410018974802"><ele>16.400000000000002</ele><time>2026-03-29T07:25:15.999Z</time></trkpt><trkpt lat="40.427133023945274" lon="15.011294888378346"><ele>16.2</ele><time>2026-03-29T07:25:16.999Z</time></trkpt><trkpt lat="40.42712974337897" lon="15.011179534559496"><ele>16.0</ele><time>2026-03-29T07:25:17.999Z</time></trkpt><trkpt lat="40.427122900228234" lon="15.011061054206621"><ele>16.0</ele><time>2026-03-29T07:25:18.999Z</time></trkpt><trkpt lat="40.42712172809581" lon="15.01094264540387"><ele>16.0</ele><time>2026-03-29T07:25:19.999Z</time></trkpt><trkpt lat="40.4271191237959" lon="15.010814971012795"><ele>16.0</ele><time>2026-03-29T07:25:20.999Z</time></trkpt><trkpt lat="40.427108418768874" lon="15.010660354490426"><ele>16.0</ele><time>2026-03-29T07:25:21.999Z</time></trkpt><trkpt lat="40.42709917352356" lon="15.010508705906625"><ele>16.0</ele><time>2026-03-29T07:25:22.999Z</time></trkpt><trkpt lat="40.42709487838956" lon="15.010352961332382"><ele>16.25</ele><time>2026-03-29T07:25:23.999Z</time></trkpt><trkpt lat="40.42708488520962" lon="15.010195106312224"><ele>16.5</ele><time>2026-03-29T07:25:24.999Z</time></trkpt><trkpt lat="40.42708104743879" lon="15.010028385668855"><ele>16.75</ele><time>2026-03-29T07:25:25.999Z</time></trkpt><trkpt lat="40.42708153610757" lon="15.009873748047813"><ele>17.0</ele><time>2026-03-29T07:25:26.999Z</time></trkpt><trkpt lat="40.427071506015395" lon="15.009716020532892"><ele>17.0</ele><time>2026-03-29T07:25:27.999Z</time></trkpt><trkpt lat="40.427061917547114" lon="15.009557681641565"><ele>17.0</ele><time>2026-03-29T07:25:28.999Z</time></trkpt><trkpt lat="40.42704870914752" lon="15.009388092529052"><ele>17.0</ele><time>2026-03-29T07:25:29.999Z</time></trkpt><trkpt lat="40.42703922139012" lon="15.009209609046973"><ele>17.0</ele><time>2026-03-29T07:25:30.999Z</time></trkpt><trkpt lat="40.427019202523645" lon="15.009022545993954"><ele>16.75</ele><time>2026-03-29T07:25:31.999Z</time></trkpt><trkpt lat="40.42703717847353" lon="15.008857279344761"><ele>16.5</ele><time>2026-03-29T07:25:32.999Z</time></trkpt><trkpt lat="40.42703263860571" lon="15.008673186794471"><ele>16.25</ele><time>2026-03-29T07:25:33.999Z</time></trkpt><trkpt lat="40.42702508652728" lon="15.008485913266124"><ele>16.0</ele><time>2026-03-29T07:25:34.999Z</time></trkpt><trkpt lat="40.427012248182386" lon="15.00829872660324"><ele>16.0</ele><time>2026-03-29T07:25:35.999Z</time></trkpt><trkpt lat="40.427007660346675" lon="15.008107455725806"><ele>16.0</ele><time>2026-03-29T07:25:36.999Z</time></trkpt><trkpt lat="40.42700643652243" lon="15.007915365037016"><ele>16.0</ele><time>2026-03-29T07:25:37.999Z</time></trkpt><trkpt lat="40.42700144496091" lon="15.007723840945257"><ele>16.0</ele><time>2026-03-29T07:25:38.999Z</time></trkpt><trkpt lat="40.42699664610549" lon="15.00752774115773"><ele>15.75</ele><time>2026-03-29T07:25:39.999Z</time></trkpt><trkpt lat="40.42699022945137" lon="15.007338340578452"><ele>15.5</ele><time>2026-03-29T07:25:40.999Z</time></trkpt><trkpt lat="40.426984590349754" lon="15.007139518084438"><ele>15.25</ele><time>2026-03-29T07:25:41.999Z</time></trkpt><trkpt lat="40.42697858084495" lon="15.006966248628647"><ele>15.0</ele><time>2026-03-29T07:25:42.999Z</time></trkpt><trkpt lat="40.426973324951426" lon="15.006802939252452"><ele>15.0</ele><time>2026-03-29T07:25:43.999Z</time></trkpt><trkpt lat="40.426962927348995" lon="15.006636637664041"><ele>15.0</ele><time>2026-03-29T07:25:44.999Z</time></trkpt><trkpt lat="40.42695464431326" lon="15.006481349236878"><ele>15.0</ele><time>2026-03-29T07:25:45.999Z</time></trkpt><trkpt lat="40.42694459943136" lon="15.006334090758731"><ele>15.0</ele><time>2026-03-29T07:25:46.999Z</time></trkpt><trkpt lat="40.426938328823056" lon="15.006189087008455"><ele>15.0</ele><time>2026-03-29T07:25:47.999Z</time></trkpt><trkpt lat="40.426934233064536" lon="15.006047050661786"><ele>15.0</ele><time>2026-03-29T07:25:48.999Z</time></trkpt><trkpt lat="40.42693279684894" lon="15.005910516848083"><ele>15.0</ele><time>2026-03-29T07:25:50Z</time></trkpt><trkpt lat="40.426927109305055" lon="15.005788642165117"><ele>15.0</ele><time>2026-03-29T07:25:51Z</time></trkpt><trkpt lat="40.42692217407637" lon="15.005667529363878"><ele>15.0</ele><time>2026-03-29T07:25:52Z</time></trkpt><trkpt lat="40.426922647982636" lon="15.00555348297331"><ele>15.333333333333334</ele><time>2026-03-29T07:25:53Z</time></trkpt><trkpt lat="40.426919329502056" lon="15.005452224988021"><ele>15.666666666666668</ele><time>2026-03-29T07:25:54Z</time></trkpt><trkpt lat="40.42693406322714" lon="15.005363891582629"><ele>16.0</ele><time>2026-03-29T07:25:55Z</time></trkpt><trkpt lat="40.42693289588417" lon="15.005272768535365"><ele>16.333333333333336</ele><time>2026-03-29T07:25:57Z</time></trkpt><trkpt lat="40.426929088739286" lon="15.005189607249195"><ele>16.666666666666668</ele><time>2026-03-29T07:26:02Z</time></trkpt><trkpt lat="40.42692035657295" lon="15.00539023869403"><ele>17.0</ele><time>2026-03-29T07:26:14Z</time></trkpt><trkpt lat="40.42691328802876" lon="15.005549311927433"><ele>17.0</ele><time>2026-03-29T07:26:16Z</time></trkpt><trkpt lat="40.42691156328006" lon="15.005643897620306"><ele>17.0</ele><time>2026-03-29T07:26:17Z</time></trkpt><trkpt lat="40.42690951323715" lon="15.00574854045172"><ele>17.0</ele><time>2026-03-29T07:26:18Z</time></trkpt><trkpt lat="40.426917056425765" lon="15.005852886536914"><ele>17.0</ele><time>2026-03-29T07:26:19Z</time></trkpt><trkpt lat="40.42692182637516" lon="15.005952519164326"><ele>17.0</ele><time>2026-03-29T07:26:20Z</time></trkpt><trkpt lat="40.42692588436353" lon="15.006050564700734"><ele>17.0</ele><time>2026-03-29T07:26:21Z</time></trkpt><trkpt lat="40.42693507828984" lon="15.00616205658132"><ele>16.6</ele><time>2026-03-29T07:26:22Z</time></trkpt><trkpt lat="40.42693486209412" lon="15.00627762444611"><ele>16.2</ele><time>2026-03-29T07:26:23Z</time></trkpt><trkpt lat="40.426937905325595" lon="15.006398627456754"><ele>15.8</ele><time>2026-03-29T07:26:24Z</time></trkpt><trkpt lat="40.42694755721544" lon="15.006521895412353"><ele>15.4</ele><time>2026-03-29T07:26:25Z</time></trkpt><trkpt lat="40.42694348945806" lon="15.006628623586222"><ele>15.0</ele><time>2026-03-29T07:26:26Z</time></trkpt><trkpt lat="40.42694541434313" lon="15.006754351759392"><ele>15.0</ele><time>2026-03-29T07:26:27Z</time></trkpt><trkpt lat="40.42695138968249" lon="15.006892487797247"><ele>15.0</ele><time>2026-03-29T07:26:28Z</time></trkpt><trkpt lat="40.42695714746728" lon="15.007031728453091"><ele>15.0</ele><time>2026-03-29T07:26:29Z</time></trkpt><trkpt lat="40.42696297352605" lon="15.00716482609445"><ele>15.0</ele><time>2026-03-29T07:26:30Z</time></trkpt><trkpt lat="40.426968685187326" lon="15.007290989974154"><ele>15.0</ele><time>2026-03-29T07:26:31Z</time></trkpt><trkpt lat="40.426946705819766" lon="15.007438730824948"><ele>15.25</ele><time>2026-03-29T07:26:32Z</time></trkpt><trkpt lat="40.42695200642535" lon="15.007595098667592"><ele>15.5</ele><time>2026-03-29T07:26:33Z</time></trkpt><trkpt lat="40.426957528817034" lon="15.007758009238152"><ele>15.75</ele><time>2026-03-29T07:26:34Z</time></trkpt><trkpt lat="40.42696355833687" lon="15.00793588004907"><ele>16.0</ele><time>2026-03-29T07:26:35Z</time></trkpt><trkpt lat="40.426985786674784" lon="15.008117745515525"><ele>16.0</ele><time>2026-03-29T07:26:36Z</time></trkpt><trkpt lat="40.426983936200735" lon="15.00829067194483"><ele>16.0</ele><time>2026-03-29T07:26:37Z</time></trkpt><trkpt lat="40.42698317277858" lon="15.008472656923777"><ele>16.0</ele><time>2026-03-29T07:26:38Z</time></trkpt><trkpt lat="40.427006324400544" lon="15.008659566662372"><ele>16.0</ele><time>2026-03-29T07:26:39Z</time></trkpt><trkpt lat="40.42701169227713" lon="15.008853336625602"><ele>16.0</ele><time>2026-03-29T07:26:40Z</time></trkpt><trkpt lat="40.42701355221385" lon="15.009030472370506"><ele>16.0</ele><time>2026-03-29T07:26:41Z</time></trkpt><trkpt lat="40.42701915655185" lon="15.009173007283726"><ele>16.0</ele><time>2026-03-29T07:26:42Z</time></trkpt><trkpt lat="40.427023631548785" lon="15.009324735929141"><ele>16.0</ele><time>2026-03-29T07:26:43Z</time></trkpt><trkpt lat="40.42703481407096" lon="15.009453964117961"><ele>16.2</ele><time>2026-03-29T07:26:44Z</time></trkpt><trkpt lat="40.427032316081075" lon="15.009584646154511"><ele>16.400000000000002</ele><time>2026-03-29T07:26:45Z</time></trkpt><trkpt lat="40.42703810362416" lon="15.009724401000847"><ele>16.6</ele><time>2026-03-29T07:26:46Z</time></trkpt><trkpt lat="40.42703214437131" lon="15.009870585160247"><ele>16.8</ele><time>2026-03-29T07:26:47Z</time></trkpt><trkpt lat="40.42703734215518" lon="15.010029510059423"><ele>17.0</ele><time>2026-03-29T07:26:48Z</time></trkpt><trkpt lat="40.42704256871329" lon="15.010189314682579"><ele>17.0</ele><time>2026-03-29T07:26:49Z</time></trkpt><trkpt lat="40.427061878413255" lon="15.010354415711271"><ele>17.0</ele><time>2026-03-29T07:26:50Z</time></trkpt><trkpt lat="40.42706839869509" lon="15.010524818654613"><ele>17.0</ele><time>2026-03-29T07:26:51Z</time></trkpt><trkpt lat="40.42705960570075" lon="15.010704528566428"><ele>17.0</ele><time>2026-03-29T07:26:52Z</time></trkpt><trkpt lat="40.42708168487952" lon="15.01086976892506"><ele>16.8</ele><time>2026-03-29T07:26:53Z</time></trkpt><trkpt lat="40.42708513838004" lon="15.011028218327969"><ele>16.6</ele><time>2026-03-29T07:26:54Z</time></trkpt><trkpt lat="40.42709078409117" lon="15.01117365996679"><ele>16.400000000000002</ele><time>2026-03-29T07:26:55Z</time></trkpt><trkpt lat="40.42709398282301" lon="15.011311192581525"><ele>16.2</ele><time>2026-03-29T07:26:56Z</time></trkpt><trkpt lat="40.4271014448881" lon="15.01143644978639"><ele>16.0</ele><time>2026-03-29T07:26:57Z</time></trkpt><trkpt lat="40.427103362949296" lon="15.011554605151733"><ele>16.0</ele><time>2026-03-29T07:26:57.999Z</time></trkpt><trkpt lat="40.42710519089896" lon="15.011655634256131"><ele>16.0</ele><time>2026-03-29T07:26:58.999Z</time></trkpt><trkpt lat="40.42710307330063" lon="15.011739272692882"><ele>16.0</ele><time>2026-03-29T07:26:59.999Z</time></trkpt><trkpt lat="40.42707623645949" lon="15.011831823058282"><ele>16.0</ele><time>2026-03-29T07:27:01.999Z</time></trkpt><trkpt lat="40.42723305990138" lon="15.011893089958411"><ele>16.0</ele><time>2026-03-29T07:27:07.999Z</time></trkpt><trkpt lat="40.427252358918466" lon="15.01179858439788"><ele>16.0</ele><time>2026-03-29T07:27:10.999Z</time></trkpt><trkpt lat="40.42716276070681" lon="15.011742730104524"><ele>16.0</ele><time>2026-03-29T07:27:12.999Z</time></trkpt><trkpt lat="40.42711730200397" lon="15.011677722646642"><ele>16.0</ele><time>2026-03-29T07:27:14.999Z</time></trkpt><trkpt lat="40.427127127356265" lon="15.011564077866696"><ele>16.0</ele><time>2026-03-29T07:27:16.999Z</time></trkpt><trkpt lat="40.42711564483167" lon="15.011392061454858"><ele>16.0</ele><time>2026-03-29T07:27:18.999Z</time></trkpt><trkpt lat="40.4271178070654" lon="15.011294136355948"><ele>16.0</ele><time>2026-03-29T07:27:19.999Z</time></trkpt><trkpt lat="40.427117629890105" lon="15.011191961899348"><ele>16.0</ele><time>2026-03-29T07:27:20.999Z</time></trkpt><trkpt lat="40.42711165093335" lon="15.011076479250407"><ele>16.0</ele><time>2026-03-29T07:27:21.999Z</time></trkpt><trkpt lat="40.427107867690424" lon="15.010946933113145"><ele>16.0</ele><time>2026-03-29T07:27:22.999Z</time></trkpt><trkpt lat="40.427106376773175" lon="15.010803084005582"><ele>16.0</ele><time>2026-03-29T07:27:23.999Z</time></trkpt><trkpt lat="40.42710280399682" lon="15.01065234855987"><ele>16.25</ele><time>2026-03-29T07:27:24.999Z</time></trkpt><trkpt lat="40.427092654750545" lon="15.01050757437577"><ele>16.5</ele><time>2026-03-29T07:27:25.999Z</time></trkpt><trkpt lat="40.427084888458126" lon="15.010352313980173"><ele>16.75</ele><time>2026-03-29T07:27:26.999Z</time></trkpt><trkpt lat="40.427079859130075" lon="15.010186906366249"><ele>17.0</ele><time>2026-03-29T07:27:27.999Z</time></trkpt><trkpt lat="40.4270765717758" lon="15.010011661434227"><ele>17.0</ele><time>2026-03-29T07:27:28.999Z</time></trkpt><trkpt lat="40.42707321023693" lon="15.009833967013131"><ele>17.0</ele><time>2026-03-29T07:27:29.999Z</time></trkpt><trkpt lat="40.427065617949424" lon="15.00965988054331"><ele>17.0</ele><time>2026-03-29T07:27:30.999Z</time></trkpt><trkpt lat="40.42705615528655" lon="15.009473685720282"><ele>17.0</ele><time>2026-03-29T07:27:31.999Z</time></trkpt><trkpt lat="40.42704838753512" lon="15.009280743689828"><ele>16.75</ele><time>2026-03-29T07:27:32.999Z</time></trkpt><trkpt lat="40.427042701711336" lon="15.009085856213975"><ele>16.5</ele><time>2026-03-29T07:27:33.999Z</time></trkpt><trkpt lat="40.427033932759784" lon="15.00889382261"><ele>16.25</ele><time>2026-03-29T07:27:34.999Z</time></trkpt><trkpt lat="40.427029441277895" lon="15.008708175176544"><ele>16.0</ele><time>2026-03-29T07:27:35.999Z</time></trkpt><trkpt lat="40.42702498068163" lon="15.008530252845675"><ele>16.0</ele><time>2026-03-29T07:27:36.999Z</time></trkpt><trkpt lat="40.42701876095045" lon="15.008345411592495"><ele>16.0</ele><time>2026-03-29T07:27:37.999Z</time></trkpt><trkpt lat="40.427013491386724" lon="15.008155615178458"><ele>16.0</ele><time>2026-03-29T07:27:38.999Z</time></trkpt><trkpt lat="40.427011276374174" lon="15.007964776979604"><ele>16.0</ele><time>2026-03-29T07:27:39.999Z</time></trkpt><trkpt lat="40.42700692206074" lon="15.007775362532197"><ele>16.0</ele><time>2026-03-29T07:27:40.999Z</time></trkpt><trkpt lat="40.42700115744401" lon="15.007589006918629"><ele>16.0</ele><time>2026-03-29T07:27:41.999Z</time></trkpt><trkpt lat="40.426990059117365" lon="15.007403413369516"><ele>16.0</ele><time>2026-03-29T07:27:42.999Z</time></trkpt><trkpt lat="40.42697952171452" lon="15.007211538145457"><ele>16.0</ele><time>2026-03-29T07:27:43.999Z</time></trkpt><trkpt lat="40.42697259240979" lon="15.007015983470428"><ele>15.75</ele><time>2026-03-29T07:27:44.999Z</time></trkpt><trkpt lat="40.426968659588795" lon="15.006821178611348"><ele>15.5</ele><time>2026-03-29T07:27:45.999Z</time></trkpt><trkpt lat="40.426964341982895" lon="15.006646818941292"><ele>15.25</ele><time>2026-03-29T07:27:46.999Z</time></trkpt><trkpt lat="40.42695255978305" lon="15.006473469559541"><ele>15.0</ele><time>2026-03-29T07:27:47.999Z</time></trkpt><trkpt lat="40.42694875565152" lon="15.00631111572087"><ele>15.0</ele><time>2026-03-29T07:27:48.999Z</time></trkpt><trkpt lat="40.42694888346893" lon="15.00615366762104"><ele>15.0</ele><time>2026-03-29T07:27:49.999Z</time></trkpt><trkpt lat="40.42694222223132" lon="15.006015034772595"><ele>15.0</ele><time>2026-03-29T07:27:50.999Z</time></trkpt><trkpt lat="40.426935474114345" lon="15.00588368555615"><ele>15.0</ele><time>2026-03-29T07:27:51.999Z</time></trkpt><trkpt lat="40.42693238201797" lon="15.005756760763498"><ele>15.0</ele><time>2026-03-29T07:27:52.999Z</time></trkpt><trkpt lat="40.42692983776145" lon="15.005640566379219"><ele>15.4</ele><time>2026-03-29T07:27:53.999Z</time></trkpt><trkpt lat="40.426931140576556" lon="15.0055301409625"><ele>15.8</ele><time>2026-03-29T07:27:54.999Z</time></trkpt><trkpt lat="40.4269381102939" lon="15.005436861907649"><ele>16.2</ele><time>2026-03-29T07:27:56Z</time></trkpt><trkpt lat="40.42693247199985" lon="15.005293675415507"><ele>16.6</ele><time>2026-03-29T07:27:58Z</time></trkpt><trkpt lat="40.42705758377215" lon="15.00529718957794"><ele>17.0</ele><time>2026-03-29T07:28:01Z</time></trkpt><trkpt lat="40.42690968596716" lon="15.005128245582483"><ele>17.0</ele><time>2026-03-29T07:28:06Z</time></trkpt><trkpt lat="40.42691244917773" lon="15.005244650663249"><ele>17.0</ele><time>2026-03-29T07:29:32.999Z</time></trkpt><trkpt lat="40.42689885912083" lon="15.005640187456525"><ele>17.0</ele><time>2026-03-29T07:29:36.999Z</time></trkpt><trkpt lat="40.4269010295703" lon="15.005755030796589"><ele>16.5</ele><time>2026-03-29T07:29:37.999Z</time></trkpt><trkpt lat="40.426910400639095" lon="15.005889324980906"><ele>16.0</ele><time>2026-03-29T07:29:38.999Z</time></trkpt><trkpt lat="40.426921072668414" lon="15.006053892957326"><ele>15.5</ele><time>2026-03-29T07:29:39.999Z</time></trkpt><trkpt lat="40.4269288339158" lon="15.006210739608427"><ele>15.0</ele><time>2026-03-29T07:29:40.999Z</time></trkpt><trkpt lat="40.42693491291486" lon="15.006367986753318"><ele>15.0</ele><time>2026-03-29T07:29:41.999Z</time></trkpt><trkpt lat="40.426938826912064" lon="15.006541677199566"><ele>15.0</ele><time>2026-03-29T07:29:42.999Z</time></trkpt><trkpt lat="40.42694413362619" lon="15.006725349201364"><ele>15.0</ele><time>2026-03-29T07:29:43.999Z</time></trkpt><trkpt lat="40.42695079478481" lon="15.006907868437239"><ele>15.0</ele><time>2026-03-29T07:29:44.999Z</time></trkpt><trkpt lat="40.4269586873275" lon="15.007096137407872"><ele>15.0</ele><time>2026-03-29T07:29:45.999Z</time></trkpt><trkpt lat="40.42696587494766" lon="15.007281263577902"><ele>15.0</ele><time>2026-03-29T07:29:46.999Z</time></trkpt><trkpt lat="40.426975507562496" lon="15.007470839476513"><ele>15.0</ele><time>2026-03-29T07:29:47.999Z</time></trkpt><trkpt lat="40.4269782337724" lon="15.007666173086278"><ele>15.0</ele><time>2026-03-29T07:29:48.999Z</time></trkpt><trkpt lat="40.42696141509091" lon="15.007872654221085"><ele>15.333333333333332</ele><time>2026-03-29T07:29:49.999Z</time></trkpt><trkpt lat="40.426968377677966" lon="15.008078050567269"><ele>15.666666666666666</ele><time>2026-03-29T07:29:50.999Z</time></trkpt><trkpt lat="40.42697638480916" lon="15.00829312462181"><ele>16.0</ele><time>2026-03-29T07:29:51.999Z</time></trkpt><trkpt lat="40.426984612783414" lon="15.008510743025196"><ele>16.0</ele><time>2026-03-29T07:29:52.999Z</time></trkpt><trkpt lat="40.42700923847406" lon="15.008724925548178"><ele>16.0</ele><time>2026-03-29T07:29:53.999Z</time></trkpt><trkpt lat="40.42701387394373" lon="15.008938246705743"><ele>16.0</ele><time>2026-03-29T07:29:54.999Z</time></trkpt><trkpt lat="40.42701952088948" lon="15.009162513656769"><ele>16.333333333333332</ele><time>2026-03-29T07:29:55.999Z</time></trkpt><trkpt lat="40.42702592790511" lon="15.009393898893075"><ele>16.666666666666668</ele><time>2026-03-29T07:29:56.999Z</time></trkpt><trkpt lat="40.42703633360748" lon="15.009629128604647"><ele>17.0</ele><time>2026-03-29T07:29:57.999Z</time></trkpt><trkpt lat="40.42703214924275" lon="15.009870734152368"><ele>17.0</ele><time>2026-03-29T07:29:58.999Z</time></trkpt><trkpt lat="40.4270397222594" lon="15.010102283020375"><ele>17.0</ele><time>2026-03-29T07:29:59.999Z</time></trkpt><trkpt lat="40.42704655850204" lon="15.01031130462106"><ele>17.0</ele><time>2026-03-29T07:30:00.999Z</time></trkpt><trkpt lat="40.427053414499525" lon="15.010520930190442"><ele>17.0</ele><time>2026-03-29T07:30:02Z</time></trkpt><trkpt lat="40.42706013634979" lon="15.01071850974262"><ele>17.0</ele><time>2026-03-29T07:30:03Z</time></trkpt><trkpt lat="40.42706718981571" lon="15.010904348681859"><ele>17.0</ele><time>2026-03-29T07:30:04Z</time></trkpt><trkpt lat="40.42707390145653" lon="15.01108118149148"><ele>17.0</ele><time>2026-03-29T07:30:05Z</time></trkpt><trkpt lat="40.42708091497705" lon="15.01126596798189"><ele>17.0</ele><time>2026-03-29T07:30:06Z</time></trkpt><trkpt lat="40.427087644481695" lon="15.011443271484932"><ele>17.0</ele><time>2026-03-29T07:30:07Z</time></trkpt><trkpt lat="40.42709193980031" lon="15.011605425702857"><ele>17.0</ele><time>2026-03-29T07:30:08Z</time></trkpt><trkpt lat="40.42708719815955" lon="15.011749381742447"><ele>17.0</ele><time>2026-03-29T07:30:09Z</time></trkpt><trkpt lat="40.42706682304" lon="15.011862796301454"><ele>17.0</ele><time>2026-03-29T07:30:10Z</time></trkpt><trkpt lat="40.42703480115934" lon="15.01196403928365"><ele>17.0</ele><time>2026-03-29T07:30:11Z</time></trkpt><trkpt lat="40.42701104267373" lon="15.012045423268505"><ele>17.0</ele><time>2026-03-29T07:30:12Z</time></trkpt><trkpt lat="40.42694808906784" lon="15.012114732280606"><ele>17.0</ele><time>2026-03-29T07:30:14Z</time></trkpt><trkpt lat="40.42684665010829" lon="15.011941215587486"><ele>17.0</ele><time>2026-03-29T07:30:19Z</time></trkpt><trkpt lat="40.42682137652121" lon="15.011851192566361"><ele>17.0</ele><time>2026-03-29T07:30:21Z</time></trkpt><trkpt lat="40.42678619920691" lon="15.011779564883165"><ele>17.0</ele><time>2026-03-29T07:30:23Z</time></trkpt><trkpt lat="40.42678026999362" lon="15.011680004183292"><ele>17.0</ele><time>2026-03-29T07:30:25Z</time></trkpt><trkpt lat="40.42677815776981" lon="15.01153966428683"><ele>17.0</ele><time>2026-03-29T07:30:27Z</time></trkpt><trkpt lat="40.42676567461411" lon="15.011390428460777"><ele>17.0</ele><time>2026-03-29T07:30:29Z</time></trkpt><trkpt lat="40.426770782010735" lon="15.011232638694612"><ele>17.0</ele><time>2026-03-29T07:30:31Z</time></trkpt><trkpt lat="40.42677647911789" lon="15.011085616514446"><ele>17.0</ele><time>2026-03-29T07:30:33Z</time></trkpt><trkpt lat="40.42676873953596" lon="15.010968405493031"><ele>17.0</ele><time>2026-03-29T07:30:35Z</time></trkpt><trkpt lat="40.426775594333" lon="15.010836612669717"><ele>17.0</ele><time>2026-03-29T07:30:37Z</time></trkpt><trkpt lat="40.42675838087458" lon="15.010704987999375"><ele>17.0</ele><time>2026-03-29T07:30:39Z</time></trkpt><trkpt lat="40.42673206786342" lon="15.01062699492713"><ele>17.0</ele><time>2026-03-29T07:30:41Z</time></trkpt><trkpt lat="40.42663718446151" lon="15.010584795829393"><ele>17.0</ele><time>2026-03-29T07:30:44Z</time></trkpt><trkpt lat="40.426569612887945" lon="15.010604087884554"><ele>17.0</ele><time>2026-03-29T07:30:46Z</time></trkpt><trkpt lat="40.42650047871996" lon="15.01061768292982"><ele>17.0</ele><time>2026-03-29T07:30:48Z</time></trkpt><trkpt lat="40.4264252018128" lon="15.010643696237343"><ele>17.0</ele><time>2026-03-29T07:30:50Z</time></trkpt><trkpt lat="40.42636062832224" lon="15.01064790218797"><ele>17.0</ele><time>2026-03-29T07:30:52Z</time></trkpt><trkpt lat="40.42627036826593" lon="15.010660227186996"><ele>16.5</ele><time>2026-03-29T07:30:54Z</time></trkpt><trkpt lat="40.42618932030646" lon="15.01066480165125"><ele>16.0</ele><time>2026-03-29T07:30:56Z</time></trkpt><trkpt lat="40.42610203156253" lon="15.010676846788073"><ele>15.5</ele><time>2026-03-29T07:30:58Z</time></trkpt><trkpt lat="40.426006736284236" lon="15.010684418433007"><ele>15.0</ele><time>2026-03-29T07:31:01Z</time></trkpt><trkpt lat="40.42591198467299" lon="15.010693531269268"><ele>14.500000000000002</ele><time>2026-03-29T07:31:04Z</time></trkpt><trkpt lat="40.425828744891426" lon="15.010696981303102"><ele>14.0</ele><time>2026-03-29T07:31:07Z</time></trkpt><trkpt lat="40.425737283587246" lon="15.010706677135515"><ele>14.000000000000002</ele><time>2026-03-29T07:31:10Z</time></trkpt><trkpt lat="40.42565777271982" lon="15.010709991159283"><ele>14.0</ele><time>2026-03-29T07:31:12Z</time></trkpt><trkpt lat="40.42557308549099" lon="15.010721445402943"><ele>14.0</ele><time>2026-03-29T07:31:14Z</time></trkpt><trkpt lat="40.42548831526158" lon="15.01073349193455"><ele>14.0</ele><time>2026-03-29T07:31:16Z</time></trkpt><trkpt lat="40.42541074598368" lon="15.010740837131946"><ele>14.000000000000002</ele><time>2026-03-29T07:31:18Z</time></trkpt><trkpt lat="40.4253167767589" lon="15.01075304329772"><ele>14.0</ele><time>2026-03-29T07:31:20Z</time></trkpt><trkpt lat="40.4252373427327" lon="15.010760839444341"><ele>14.399999999999999</ele><time>2026-03-29T07:31:22Z</time></trkpt><trkpt lat="40.42514749384893" lon="15.010767499399211"><ele>14.799999999999999</ele><time>2026-03-29T07:31:24Z</time></trkpt><trkpt lat="40.42506028262933" lon="15.010772918654185"><ele>15.200000000000001</ele><time>2026-03-29T07:31:26Z</time></trkpt><trkpt lat="40.42496811948577" lon="15.010779139525974"><ele>15.600000000000001</ele><time>2026-03-29T07:31:28Z</time></trkpt><trkpt lat="40.42487219118579" lon="15.010784942024058"><ele>16.0</ele><time>2026-03-29T07:31:29.999Z</time></trkpt><trkpt lat="40.42477233931719" lon="15.010787403707742"><ele>15.999999999999998</ele><time>2026-03-29T07:31:31.999Z</time></trkpt><trkpt lat="40.424681967949454" lon="15.010793283153605"><ele>16.0</ele><time>2026-03-29T07:31:33.999Z</time></trkpt><trkpt lat="40.42460404763705" lon="15.01080479827014"><ele>16.0</ele><time>2026-03-29T07:31:35.999Z</time></trkpt><trkpt lat="40.42452193826848" lon="15.010807123556313"><ele>16.0</ele><time>2026-03-29T07:31:37.999Z</time></trkpt><trkpt lat="40.42443748162529" lon="15.010815062106936"><ele>15.999999999999998</ele><time>2026-03-29T07:31:39.999Z</time></trkpt><trkpt lat="40.42434421298773" lon="15.010825090342543"><ele>16.0</ele><time>2026-03-29T07:31:41.999Z</time></trkpt><trkpt lat="40.42424509180239" lon="15.010833927731762"><ele>16.0</ele><time>2026-03-29T07:31:43.999Z</time></trkpt><trkpt lat="40.42414790350265" lon="15.010843163430545"><ele>16.0</ele><time>2026-03-29T07:31:45.999Z</time></trkpt><trkpt lat="40.424060891860876" lon="15.010850134905994"><ele>16.0</ele><time>2026-03-29T07:31:47.999Z</time></trkpt><trkpt lat="40.423952735640924" lon="15.010861629960194"><ele>16.0</ele><time>2026-03-29T07:31:49.999Z</time></trkpt><trkpt lat="40.423859131403475" lon="15.01086512436883"><ele>16.0</ele><time>2026-03-29T07:31:51.999Z</time></trkpt><trkpt lat="40.42378124233985" lon="15.010877209173987"><ele>15.999999999999998</ele><time>2026-03-29T07:31:53.999Z</time></trkpt><trkpt lat="40.42370237914001" lon="15.010884815800807"><ele>16.0</ele><time>2026-03-29T07:31:55.999Z</time></trkpt><trkpt lat="40.423623087624286" lon="15.010882712631329"><ele>16.0</ele><time>2026-03-29T07:31:57.999Z</time></trkpt><trkpt lat="40.423552305192594" lon="15.010878061773653"><ele>16.0</ele><time>2026-03-29T07:31:59.999Z</time></trkpt><trkpt lat="40.42345568855692" lon="15.01088403783363"><ele>15.999999999999998</ele><time>2026-03-29T07:32:01.999Z</time></trkpt><trkpt lat="40.423357339786534" lon="15.010892101118852"><ele>16.0</ele><time>2026-03-29T07:32:03.999Z</time></trkpt><trkpt lat="40.4232714684417" lon="15.010912123270826"><ele>16.0</ele><time>2026-03-29T07:32:05.999Z</time></trkpt><trkpt lat="40.42317571212708" lon="15.010921195011873"><ele>16.0</ele><time>2026-03-29T07:32:08Z</time></trkpt><trkpt lat="40.423077358400015" lon="15.010933659697727"><ele>16.0</ele><time>2026-03-29T07:32:10Z</time></trkpt><trkpt lat="40.4230022236224" lon="15.010932240150826"><ele>16.0</ele><time>2026-03-29T07:32:12Z</time></trkpt><trkpt lat="40.422903945837135" lon="15.01094043542526"><ele>16.0</ele><time>2026-03-29T07:32:14Z</time></trkpt><trkpt lat="40.422808693750795" lon="15.0109469745851"><ele>16.166666666666664</ele><time>2026-03-29T07:32:16Z</time></trkpt><trkpt lat="40.42273994606577" lon="15.010956071233782"><ele>16.333333333333332</ele><time>2026-03-29T07:32:18Z</time></trkpt><trkpt lat="40.422664544614385" lon="15.01095295443972"><ele>16.5</ele><time>2026-03-29T07:32:21Z</time></trkpt><trkpt lat="40.42257404394094" lon="15.010965373609094"><ele>16.666666666666668</ele><time>2026-03-29T07:32:23Z</time></trkpt><trkpt lat="40.422475090318706" lon="15.010971767694958"><ele>16.833333333333336</ele><time>2026-03-29T07:32:25Z</time></trkpt><trkpt lat="40.42237140230713" lon="15.010976181538153"><ele>17.0</ele><time>2026-03-29T07:32:27Z</time></trkpt><trkpt lat="40.42226407347409" lon="15.01098311306387"><ele>17.0</ele><time>2026-03-29T07:32:29Z</time></trkpt><trkpt lat="40.4221525925443" lon="15.01099995193851"><ele>17.0</ele><time>2026-03-29T07:32:31Z</time></trkpt><trkpt lat="40.42202616958141" lon="15.01100815106945"><ele>17.0</ele><time>2026-03-29T07:32:33Z</time></trkpt><trkpt lat="40.42191953203988" lon="15.011022099006771"><ele>17.0</ele><time>2026-03-29T07:32:35Z</time></trkpt><trkpt lat="40.42182190618766" lon="15.011042643651525"><ele>17.0</ele><time>2026-03-29T07:32:37Z</time></trkpt><trkpt lat="40.42173246065372" lon="15.01105182473032"><ele>17.0</ele><time>2026-03-29T07:32:39Z</time></trkpt><trkpt lat="40.42167444495877" lon="15.01108409342687"><ele>17.0</ele><time>2026-03-29T07:32:41Z</time></trkpt><trkpt lat="40.421609529962716" lon="15.0111163929699"><ele>17.0</ele><time>2026-03-29T07:32:43Z</time></trkpt><trkpt lat="40.421568500546755" lon="15.011180402673302"><ele>17.0</ele><time>2026-03-29T07:33:11Z</time></trkpt><trkpt lat="40.421558192715096" lon="15.011290420247816"><ele>17.0</ele><time>2026-03-29T07:34:38Z</time></trkpt><trkpt lat="40.42154833252012" lon="15.011398850958859"><ele>17.0</ele><time>2026-03-29T07:34:41Z</time></trkpt><trkpt lat="40.421551770560875" lon="15.011516509700531"><ele>17.0</ele><time>2026-03-29T07:34:44Z</time></trkpt><trkpt lat="40.42155457110538" lon="15.011612351639878"><ele>17.0</ele><time>2026-03-29T07:34:46Z</time></trkpt><trkpt lat="40.42155767735646" lon="15.011718655615018"><ele>17.0</ele><time>2026-03-29T07:34:48Z</time></trkpt><trkpt lat="40.42157543678668" lon="15.01185308539645"><ele>17.0</ele><time>2026-03-29T07:34:50Z</time></trkpt><trkpt lat="40.42156579101748" lon="15.011996326239597"><ele>17.0</ele><time>2026-03-29T07:34:52Z</time></trkpt><trkpt lat="40.42156878941544" lon="15.012098939247725"><ele>17.0</ele><time>2026-03-29T07:34:53Z</time></trkpt><trkpt lat="40.42157192708568" lon="15.012206318473112"><ele>17.0</ele><time>2026-03-29T07:34:54Z</time></trkpt><trkpt lat="40.421575209043866" lon="15.012318635636156"><ele>17.0</ele><time>2026-03-29T07:34:55Z</time></trkpt><trkpt lat="40.421578583732256" lon="15.012434126194606"><ele>17.0</ele><time>2026-03-29T07:34:56Z</time></trkpt><trkpt lat="40.421581900313626" lon="15.012547628256954"><ele>17.0</ele><time>2026-03-29T07:34:57Z</time></trkpt><trkpt lat="40.421585219160306" lon="15.012661207867668"><ele>17.0</ele><time>2026-03-29T07:34:58Z</time></trkpt><trkpt lat="40.42158869108103" lon="15.012780026016783"><ele>17.0</ele><time>2026-03-29T07:34:59Z</time></trkpt><trkpt lat="40.42160731872712" lon="15.012891728116625"><ele>17.166666666666668</ele><time>2026-03-29T07:35:00Z</time></trkpt><trkpt lat="40.42160630946653" lon="15.013006999157687"><ele>17.333333333333336</ele><time>2026-03-29T07:35:01Z</time></trkpt><trkpt lat="40.42160463267988" lon="15.013109643785437"><ele>17.5</ele><time>2026-03-29T07:35:02Z</time></trkpt><trkpt lat="40.421607717148774" lon="15.01321259636077"><ele>17.666666666666668</ele><time>2026-03-29T07:35:03Z</time></trkpt><trkpt lat="40.42161831018376" lon="15.013307619400377"><ele>17.833333333333332</ele><time>2026-03-29T07:35:04Z</time></trkpt><trkpt lat="40.42161011378105" lon="15.01339965742058"><ele>18.0</ele><time>2026-03-29T07:35:05Z</time></trkpt><trkpt lat="40.42161713371693" lon="15.01349749821935"><ele>18.0</ele><time>2026-03-29T07:35:06Z</time></trkpt><trkpt lat="40.42161816835379" lon="15.013622210888988"><ele>18.0</ele><time>2026-03-29T07:35:08Z</time></trkpt><trkpt lat="40.42161821007948" lon="15.013706800903744"><ele>18.0</ele><time>2026-03-29T07:35:10Z</time></trkpt><trkpt lat="40.42184616832437" lon="15.013723320771177"><ele>18.0</ele><time>2026-03-29T07:35:13Z</time></trkpt><trkpt lat="40.421939967137355" lon="15.013713689702138"><ele>18.0</ele><time>2026-03-29T07:35:14Z</time></trkpt><trkpt lat="40.4220288658791" lon="15.013702939253047"><ele>18.0</ele><time>2026-03-29T07:35:15Z</time></trkpt><trkpt lat="40.4221340336112" lon="15.01368864661305"><ele>18.0</ele><time>2026-03-29T07:35:16Z</time></trkpt><trkpt lat="40.42224428404296" lon="15.013676920134026"><ele>18.0</ele><time>2026-03-29T07:35:17Z</time></trkpt><trkpt lat="40.422366155288266" lon="15.013679393650202"><ele>18.0</ele><time>2026-03-29T07:35:18Z</time></trkpt><trkpt lat="40.422473437017345" lon="15.01366349591006"><ele>17.75</ele><time>2026-03-29T07:35:19Z</time></trkpt><trkpt lat="40.422597780258876" lon="15.013646292056674"><ele>17.5</ele><time>2026-03-29T07:35:20Z</time></trkpt><trkpt lat="40.42272804513458" lon="15.013636672231067"><ele>17.25</ele><time>2026-03-29T07:35:21Z</time></trkpt><trkpt lat="40.42285584997268" lon="15.013626013693008"><ele>17.0</ele><time>2026-03-29T07:35:22Z</time></trkpt><trkpt lat="40.42298455361208" lon="15.013620521587708"><ele>17.0</ele><time>2026-03-29T07:35:23Z</time></trkpt><trkpt lat="40.42309907184379" lon="15.013618227512175"><ele>17.0</ele><time>2026-03-29T07:35:24Z</time></trkpt><trkpt lat="40.423205852894895" lon="15.013612235452014"><ele>17.0</ele><time>2026-03-29T07:35:25Z</time></trkpt><trkpt lat="40.423303623747124" lon="15.013601786244154"><ele>17.0</ele><time>2026-03-29T07:35:26Z</time></trkpt><trkpt lat="40.42337908372632" lon="15.013591885143393"><ele>17.0</ele><time>2026-03-29T07:35:27Z</time></trkpt><trkpt lat="40.42348038959877" lon="15.013597102573462"><ele>17.0</ele><time>2026-03-29T07:35:29Z</time></trkpt><trkpt lat="40.42350192153787" lon="15.013736981770117"><ele>17.0</ele><time>2026-03-29T07:35:32Z</time></trkpt><trkpt lat="40.42343641526465" lon="15.013827531467937"><ele>17.0</ele><time>2026-03-29T07:35:33Z</time></trkpt><trkpt lat="40.42336015544122" lon="15.01391281721877"><ele>17.0</ele><time>2026-03-29T07:35:34Z</time></trkpt><trkpt lat="40.423297695548534" lon="15.014009053702793"><ele>17.0</ele><time>2026-03-29T07:35:35Z</time></trkpt><trkpt lat="40.42322912484506" lon="15.01411343735444"><ele>17.0</ele><time>2026-03-29T07:35:36Z</time></trkpt><trkpt lat="40.423156006815745" lon="15.014224744591742"><ele>17.0</ele><time>2026-03-29T07:35:37Z</time></trkpt><trkpt lat="40.42308326789927" lon="15.014339380678393"><ele>17.0</ele><time>2026-03-29T07:35:38Z</time></trkpt><trkpt lat="40.42302073868497" lon="15.014441898973617"><ele>17.0</ele><time>2026-03-29T07:35:39Z</time></trkpt><trkpt lat="40.422949445768765" lon="15.014526823750575"><ele>17.0</ele><time>2026-03-29T07:35:40Z</time></trkpt><trkpt lat="40.422867309351595" lon="15.014559791904937"><ele>17.0</ele><time>2026-03-29T07:35:41Z</time></trkpt><trkpt lat="40.42277017202091" lon="15.014558490614277"><ele>17.0</ele><time>2026-03-29T07:35:42Z</time></trkpt><trkpt lat="40.42266844086744" lon="15.014546410016022"><ele>17.0</ele><time>2026-03-29T07:35:43Z</time></trkpt><trkpt lat="40.42255284129747" lon="15.01454511908544"><ele>17.0</ele><time>2026-03-29T07:35:44Z</time></trkpt><trkpt lat="40.422438439091" lon="15.014558021725726"><ele>17.0</ele><time>2026-03-29T07:35:45Z</time></trkpt><trkpt lat="40.4223262282223" lon="15.014569369988346"><ele>17.0</ele><time>2026-03-29T07:35:46Z</time></trkpt><trkpt lat="40.42221099037436" lon="15.014569921104918"><ele>17.0</ele><time>2026-03-29T07:35:47Z</time></trkpt><trkpt lat="40.42208825166385" lon="15.014564802695615"><ele>17.0</ele><time>2026-03-29T07:35:48Z</time></trkpt><trkpt lat="40.42197855964722" lon="15.014556462239462"><ele>17.0</ele><time>2026-03-29T07:35:49Z</time></trkpt><trkpt lat="40.421875292313615" lon="15.014544507922308"><ele>17.0</ele><time>2026-03-29T07:35:50Z</time></trkpt><trkpt lat="40.421781856932284" lon="15.014513480272898"><ele>17.0</ele><time>2026-03-29T07:35:51Z</time></trkpt><trkpt lat="40.42168390051699" lon="15.014481798057943"><ele>17.0</ele><time>2026-03-29T07:35:52Z</time></trkpt><trkpt lat="40.42158051131332" lon="15.01447071384561"><ele>17.0</ele><time>2026-03-29T07:35:53Z</time></trkpt><trkpt lat="40.42147028699903" lon="15.01449426099092"><ele>17.0</ele><time>2026-03-29T07:35:54Z</time></trkpt><trkpt lat="40.4213441156669" lon="15.014528673810887"><ele>17.0</ele><time>2026-03-29T07:35:55Z</time></trkpt><trkpt lat="40.42121730656745" lon="15.01455314738516"><ele>17.0</ele><time>2026-03-29T07:35:56Z</time></trkpt><trkpt lat="40.42108965056974" lon="15.014576111738497"><ele>17.0</ele><time>2026-03-29T07:35:57Z</time></trkpt><trkpt lat="40.4209635594874" lon="15.014599446100446"><ele>17.0</ele><time>2026-03-29T07:35:58Z</time></trkpt><trkpt lat="40.420824900157655" lon="15.014608201098447"><ele>17.0</ele><time>2026-03-29T07:35:59Z</time></trkpt><trkpt lat="40.420683395295974" lon="15.014615009349322"><ele>17.0</ele><time>2026-03-29T07:36:00Z</time></trkpt><trkpt lat="40.420542195036674" lon="15.014627627888698"><ele>17.0</ele><time>2026-03-29T07:36:01Z</time></trkpt><trkpt lat="40.420414728972474" lon="15.014635882608614"><ele>17.0</ele><time>2026-03-29T07:36:02Z</time></trkpt><trkpt lat="40.42029260954397" lon="15.014641356395073"><ele>16.5</ele><time>2026-03-29T07:36:03Z</time></trkpt><trkpt lat="40.42016109635044" lon="15.014643793797921"><ele>16.0</ele><time>2026-03-29T07:36:04Z</time></trkpt><trkpt lat="40.42002911237655" lon="15.014649096314002"><ele>15.5</ele><time>2026-03-29T07:36:05Z</time></trkpt><trkpt lat="40.419890970269975" lon="15.014656067790638"><ele>15.0</ele><time>2026-03-29T07:36:06Z</time></trkpt><trkpt lat="40.419758094189696" lon="15.014660715528356"><ele>15.0</ele><time>2026-03-29T07:36:07Z</time></trkpt><trkpt lat="40.419634863742495" lon="15.014668718280438"><ele>15.0</ele><time>2026-03-29T07:36:08Z</time></trkpt><trkpt lat="40.419519748426495" lon="15.014675037941007"><ele>15.0</ele><time>2026-03-29T07:36:09Z</time></trkpt><trkpt lat="40.419407416465106" lon="15.014678361771798"><ele>15.0</ele><time>2026-03-29T07:36:10Z</time></trkpt><trkpt lat="40.41929839114052" lon="15.014662772247055"><ele>15.0</ele><time>2026-03-29T07:36:11Z</time></trkpt><trkpt lat="40.41920699756482" lon="15.014611971622392"><ele>15.0</ele><time>2026-03-29T07:36:11.999Z</time></trkpt><trkpt lat="40.41912174439628" lon="15.01453664740337"><ele>15.0</ele><time>2026-03-29T07:36:12.999Z</time></trkpt><trkpt lat="40.41904150447378" lon="15.014416886604423"><ele>15.0</ele><time>2026-03-29T07:36:13.999Z</time></trkpt><trkpt lat="40.41900470216679" lon="15.014265849621498"><ele>15.0</ele><time>2026-03-29T07:36:14.999Z</time></trkpt><trkpt lat="40.41898274267285" lon="15.01412770197008"><ele>15.25</ele><time>2026-03-29T07:36:15.999Z</time></trkpt><trkpt lat="40.418970449294335" lon="15.013997484926405"><ele>15.5</ele><time>2026-03-29T07:36:16.999Z</time></trkpt><trkpt lat="40.418959228785624" lon="15.013843278046552"><ele>15.75</ele><time>2026-03-29T07:36:17.999Z</time></trkpt><trkpt lat="40.418949269844035" lon="15.013673162483618"><ele>16.0</ele><time>2026-03-29T07:36:18.999Z</time></trkpt><trkpt lat="40.41893122912035" lon="15.013512467256177"><ele>16.0</ele><time>2026-03-29T07:36:20Z</time></trkpt><trkpt lat="40.41891643868456" lon="15.013342757043164"><ele>16.0</ele><time>2026-03-29T07:36:21Z</time></trkpt><trkpt lat="40.41889882717074" lon="15.013160369727888"><ele>16.0</ele><time>2026-03-29T07:36:22Z</time></trkpt><trkpt lat="40.41888650412639" lon="15.012981243030854"><ele>16.0</ele><time>2026-03-29T07:36:23Z</time></trkpt><trkpt lat="40.4188718196313" lon="15.012806661486705"><ele>16.25</ele><time>2026-03-29T07:36:24Z</time></trkpt><trkpt lat="40.41886047567044" lon="15.01262661864131"><ele>16.5</ele><time>2026-03-29T07:36:25Z</time></trkpt><trkpt lat="40.4188553401653" lon="15.012438203232357"><ele>16.75</ele><time>2026-03-29T07:36:26Z</time></trkpt><trkpt lat="40.41884960317731" lon="15.012256540473444"><ele>17.0</ele><time>2026-03-29T07:36:27Z</time></trkpt><trkpt lat="40.41883904495385" lon="15.012065100585597"><ele>17.0</ele><time>2026-03-29T07:36:28Z</time></trkpt><trkpt lat="40.41882685830095" lon="15.011871743412666"><ele>17.0</ele><time>2026-03-29T07:36:29Z</time></trkpt><trkpt lat="40.41881672696908" lon="15.011668223665152"><ele>17.0</ele><time>2026-03-29T07:36:30Z</time></trkpt><trkpt lat="40.41880943349862" lon="15.011486172878906"><ele>17.0</ele><time>2026-03-29T07:36:31Z</time></trkpt><trkpt lat="40.41879992105002" lon="15.011288087213073"><ele>17.333333333333336</ele><time>2026-03-29T07:36:32Z</time></trkpt><trkpt lat="40.41879307795008" lon="15.011086366749037"><ele>17.666666666666668</ele><time>2026-03-29T07:36:33Z</time></trkpt><trkpt lat="40.41878472944016" lon="15.01088545585521"><ele>18.0</ele><time>2026-03-29T07:36:34Z</time></trkpt><trkpt lat="40.4187759690252" lon="15.010669517335476"><ele>18.0</ele><time>2026-03-29T07:36:35Z</time></trkpt><trkpt lat="40.41876623621913" lon="15.010462593824084"><ele>18.0</ele><time>2026-03-29T07:36:36Z</time></trkpt><trkpt lat="40.41876165626356" lon="15.01025725353404"><ele>18.0</ele><time>2026-03-29T07:36:37Z</time></trkpt><trkpt lat="40.41875197765503" lon="15.01005280579468"><ele>18.0</ele><time>2026-03-29T07:36:38Z</time></trkpt><trkpt lat="40.41874009679639" lon="15.009848739585438"><ele>18.0</ele><time>2026-03-29T07:36:39Z</time></trkpt><trkpt lat="40.41873174027322" lon="15.009638360844626"><ele>18.0</ele><time>2026-03-29T07:36:40Z</time></trkpt><trkpt lat="40.41872349105994" lon="15.009431194347606"><ele>18.0</ele><time>2026-03-29T07:36:41Z</time></trkpt><trkpt lat="40.41871326496598" lon="15.009222192130961"><ele>18.0</ele><time>2026-03-29T07:36:42Z</time></trkpt><trkpt lat="40.41870493841574" lon="15.00902380733117"><ele>18.0</ele><time>2026-03-29T07:36:43Z</time></trkpt><trkpt lat="40.41869827895649" lon="15.008841224758873"><ele>18.0</ele><time>2026-03-29T07:36:44Z</time></trkpt><trkpt lat="40.41869493061876" lon="15.008673338542202"><ele>18.0</ele><time>2026-03-29T07:36:45Z</time></trkpt><trkpt lat="40.41868846336558" lon="15.008515632248786"><ele>18.0</ele><time>2026-03-29T07:36:46Z</time></trkpt><trkpt lat="40.41868295943939" lon="15.008366522767671"><ele>18.0</ele><time>2026-03-29T07:36:47Z</time></trkpt><trkpt lat="40.418678974501006" lon="15.00822770876159"><ele>18.333333333333332</ele><time>2026-03-29T07:36:48Z</time></trkpt><trkpt lat="40.418671524132144" lon="15.008096813278907"><ele>18.666666666666668</ele><time>2026-03-29T07:36:49Z</time></trkpt><trkpt lat="40.41866590018628" lon="15.007971926753545"><ele>19.0</ele><time>2026-03-29T07:36:50Z</time></trkpt><trkpt lat="40.41865731490901" lon="15.007854264071343"><ele>19.333333333333336</ele><time>2026-03-29T07:36:51Z</time></trkpt><trkpt lat="40.418649195592785" lon="15.007743398938166"><ele>19.666666666666668</ele><time>2026-03-29T07:36:52Z</time></trkpt><trkpt lat="40.4186386498282" lon="15.007645046104637"><ele>20.0</ele><time>2026-03-29T07:36:53Z</time></trkpt><trkpt lat="40.41863008835989" lon="15.007560076040233"><ele>20.2</ele><time>2026-03-29T07:36:54Z</time></trkpt><trkpt lat="40.41861268801737" lon="15.007417159868833"><ele>20.4</ele><time>2026-03-29T07:36:56Z</time></trkpt><trkpt lat="40.418597032166424" lon="15.00728129703478"><ele>20.6</ele><time>2026-03-29T07:36:58Z</time></trkpt><trkpt lat="40.41858569318043" lon="15.007180081745608"><ele>20.8</ele><time>2026-03-29T07:37:00Z</time></trkpt><trkpt lat="40.41857332929976" lon="15.00708843924423"><ele>21.0</ele><time>2026-03-29T07:37:02Z</time></trkpt><trkpt lat="40.41855458163823" lon="15.006965562741382"><ele>21.0</ele><time>2026-03-29T07:37:04Z</time></trkpt><trkpt lat="40.41841574477726" lon="15.006918085475082"><ele>21.0</ele><time>2026-03-29T07:37:06Z</time></trkpt><trkpt lat="40.41833498719161" lon="15.006918974718818"><ele>21.0</ele><time>2026-03-29T07:37:07Z</time></trkpt><trkpt lat="40.4182545373546" lon="15.00692033489685"><ele>21.0</ele><time>2026-03-29T07:37:08Z</time></trkpt><trkpt lat="40.41816181229255" lon="15.006927614305594"><ele>21.0</ele><time>2026-03-29T07:37:09Z</time></trkpt><trkpt lat="40.41806572588208" lon="15.006939984773865"><ele>20.25</ele><time>2026-03-29T07:37:10Z</time></trkpt><trkpt lat="40.41796072752829" lon="15.006948442942276"><ele>19.5</ele><time>2026-03-29T07:37:11Z</time></trkpt><trkpt lat="40.41784403304216" lon="15.006961967074153"><ele>18.75</ele><time>2026-03-29T07:37:12Z</time></trkpt><trkpt lat="40.41771295942283" lon="15.00699203167003"><ele>18.0</ele><time>2026-03-29T07:37:13Z</time></trkpt><trkpt lat="40.417581342018856" lon="15.007043163557169"><ele>18.0</ele><time>2026-03-29T07:37:14Z</time></trkpt><trkpt lat="40.41743909904294" lon="15.007109594513102"><ele>18.0</ele><time>2026-03-29T07:37:15Z</time></trkpt><trkpt lat="40.41729387177121" lon="15.007187801031364"><ele>18.0</ele><time>2026-03-29T07:37:16Z</time></trkpt><trkpt lat="40.417151584718646" lon="15.007267781901522"><ele>17.8</ele><time>2026-03-29T07:37:17Z</time></trkpt><trkpt lat="40.41702685394367" lon="15.00734701031987"><ele>17.6</ele><time>2026-03-29T07:37:18Z</time></trkpt><trkpt lat="40.416937044188494" lon="15.007436345097046"><ele>17.4</ele><time>2026-03-29T07:37:19Z</time></trkpt><trkpt lat="40.41685756770409" lon="15.007520538555463"><ele>17.2</ele><time>2026-03-29T07:37:20Z</time></trkpt><trkpt lat="40.416785107319704" lon="15.007595052979182"><ele>17.0</ele><time>2026-03-29T07:37:21Z</time></trkpt><trkpt lat="40.416659263809386" lon="15.007695069651673"><ele>17.0</ele><time>2026-03-29T07:37:22Z</time></trkpt><trkpt lat="40.416529727984006" lon="15.00777766784679"><ele>17.0</ele><time>2026-03-29T07:37:23Z</time></trkpt><trkpt lat="40.41641643189802" lon="15.007859262101741"><ele>17.0</ele><time>2026-03-29T07:37:24Z</time></trkpt><trkpt lat="40.416300775769734" lon="15.007937646053053"><ele>17.0</ele><time>2026-03-29T07:37:25Z</time></trkpt><trkpt lat="40.416175822369425" lon="15.00802059433407"><ele>16.75</ele><time>2026-03-29T07:37:26Z</time></trkpt><trkpt lat="40.4160496035758" lon="15.008103623040526"><ele>16.5</ele><time>2026-03-29T07:37:27Z</time></trkpt><trkpt lat="40.41591811349886" lon="15.008190799957301"><ele>16.25</ele><time>2026-03-29T07:37:28Z</time></trkpt><trkpt lat="40.41578617327325" lon="15.00828708890163"><ele>16.0</ele><time>2026-03-29T07:37:29Z</time></trkpt><trkpt lat="40.415652414997595" lon="15.008374813617362"><ele>16.0</ele><time>2026-03-29T07:37:30Z</time></trkpt><trkpt lat="40.41552157569792" lon="15.00846352570511"><ele>16.0</ele><time>2026-03-29T07:37:31Z</time></trkpt><trkpt lat="40.41539653622034" lon="15.00855125107375"><ele>16.0</ele><time>2026-03-29T07:37:32Z</time></trkpt><trkpt lat="40.41529111328289" lon="15.008631159041634"><ele>16.0</ele><time>2026-03-29T07:37:33Z</time></trkpt><trkpt lat="40.41518263107071" lon="15.008709490781973"><ele>16.0</ele><time>2026-03-29T07:37:34Z</time></trkpt><trkpt lat="40.41508409889312" lon="15.00877742317234"><ele>16.0</ele><time>2026-03-29T07:37:35Z</time></trkpt><trkpt lat="40.41498907303376" lon="15.008839251576072"><ele>16.0</ele><time>2026-03-29T07:37:36Z</time></trkpt><trkpt lat="40.414894534806805" lon="15.00890166971703"><ele>16.0</ele><time>2026-03-29T07:37:37Z</time></trkpt><trkpt lat="40.414809741746794" lon="15.008959838560253"><ele>16.0</ele><time>2026-03-29T07:37:38Z</time></trkpt><trkpt lat="40.41472724560563" lon="15.009013927353243"><ele>16.0</ele><time>2026-03-29T07:37:39Z</time></trkpt><trkpt lat="40.414626481703046" lon="15.00907516363398"><ele>16.0</ele><time>2026-03-29T07:37:40Z</time></trkpt><trkpt lat="40.41451220310157" lon="15.009155680326701"><ele>16.0</ele><time>2026-03-29T07:37:41Z</time></trkpt><trkpt lat="40.41438734101772" lon="15.009241703150359"><ele>16.0</ele><time>2026-03-29T07:37:42Z</time></trkpt><trkpt lat="40.41425672445966" lon="15.009332394939303"><ele>16.0</ele><time>2026-03-29T07:37:43Z</time></trkpt><trkpt lat="40.41412670496676" lon="15.009427792221462"><ele>16.0</ele><time>2026-03-29T07:37:44Z</time></trkpt><trkpt lat="40.414003857680186" lon="15.009512833816762"><ele>16.0</ele><time>2026-03-29T07:37:45Z</time></trkpt><trkpt lat="40.41388262529191" lon="15.009599595318496"><ele>16.0</ele><time>2026-03-29T07:37:46Z</time></trkpt><trkpt lat="40.413779535364434" lon="15.009674634765279"><ele>15.75</ele><time>2026-03-29T07:37:47Z</time></trkpt><trkpt lat="40.413674508890296" lon="15.009736443076996"><ele>15.5</ele><time>2026-03-29T07:37:48Z</time></trkpt><trkpt lat="40.4135362032829" lon="15.009830501340979"><ele>15.25</ele><time>2026-03-29T07:37:49Z</time></trkpt><trkpt lat="40.41338342947578" lon="15.00992567822846"><ele>15.0</ele><time>2026-03-29T07:37:50Z</time></trkpt><trkpt lat="40.41323824787147" lon="15.01002148689747"><ele>15.0</ele><time>2026-03-29T07:37:51Z</time></trkpt><trkpt lat="40.413098215161675" lon="15.010120472913735"><ele>15.0</ele><time>2026-03-29T07:37:52Z</time></trkpt><trkpt lat="40.41294205990879" lon="15.010231262446165"><ele>15.0</ele><time>2026-03-29T07:37:53Z</time></trkpt><trkpt lat="40.412819138377145" lon="15.010310609209958"><ele>15.0</ele><time>2026-03-29T07:37:54Z</time></trkpt><trkpt lat="40.41266172083303" lon="15.010433389393347"><ele>15.0</ele><time>2026-03-29T07:37:55Z</time></trkpt><trkpt lat="40.41251329103208" lon="15.010530956304972"><ele>15.0</ele><time>2026-03-29T07:37:56Z</time></trkpt><trkpt lat="40.41236622305461" lon="15.010630787233792"><ele>15.0</ele><time>2026-03-29T07:37:57Z</time></trkpt><trkpt lat="40.41221654759007" lon="15.010736494987583"><ele>15.0</ele><time>2026-03-29T07:37:58Z</time></trkpt><trkpt lat="40.41207207944476" lon="15.010840999128442"><ele>15.0</ele><time>2026-03-29T07:37:59Z</time></trkpt><trkpt lat="40.41191603551622" lon="15.01092824691317"><ele>15.0</ele><time>2026-03-29T07:38:00Z</time></trkpt><trkpt lat="40.41177398700434" lon="15.011025102196959"><ele>15.0</ele><time>2026-03-29T07:38:01Z</time></trkpt><trkpt lat="40.41164936970989" lon="15.011131464097073"><ele>15.0</ele><time>2026-03-29T07:38:02Z</time></trkpt><trkpt lat="40.41152261571866" lon="15.011214259796347"><ele>15.0</ele><time>2026-03-29T07:38:03Z</time></trkpt><trkpt lat="40.411399622771874" lon="15.011296964525183"><ele>15.0</ele><time>2026-03-29T07:38:04Z</time></trkpt><trkpt lat="40.411291268903945" lon="15.011372519365525"><ele>15.0</ele><time>2026-03-29T07:38:05Z</time></trkpt><trkpt lat="40.41117509654245" lon="15.011432733812946"><ele>15.0</ele><time>2026-03-29T07:38:06Z</time></trkpt><trkpt lat="40.41106400930516" lon="15.011508580988776"><ele>14.75</ele><time>2026-03-29T07:38:07Z</time></trkpt><trkpt lat="40.4109574267089" lon="15.011603212500658"><ele>14.5</ele><time>2026-03-29T07:38:08Z</time></trkpt><trkpt lat="40.41085244674579" lon="15.011672727880912"><ele>14.25</ele><time>2026-03-29T07:38:09Z</time></trkpt><trkpt lat="40.41074629187525" lon="15.01174668060529"><ele>14.0</ele><time>2026-03-29T07:38:10Z</time></trkpt><trkpt lat="40.41062284305134" lon="15.011807268120082"><ele>14.5</ele><time>2026-03-29T07:38:11Z</time></trkpt><trkpt lat="40.41050093562087" lon="15.011888838013837"><ele>15.0</ele><time>2026-03-29T07:38:12Z</time></trkpt><trkpt lat="40.41040450106687" lon="15.011997030701579"><ele>15.5</ele><time>2026-03-29T07:38:12.999Z</time></trkpt><trkpt lat="40.41029054502096" lon="15.012061646393008"><ele>16.0</ele><time>2026-03-29T07:38:13.999Z</time></trkpt><trkpt lat="40.41017949647015" lon="15.012120555659349"><ele>16.166666666666664</ele><time>2026-03-29T07:38:14.999Z</time></trkpt><trkpt lat="40.410080516816414" lon="15.0121854284259"><ele>16.333333333333332</ele><time>2026-03-29T07:38:15.999Z</time></trkpt><trkpt lat="40.40999978456344" lon="15.012252945755106"><ele>16.5</ele><time>2026-03-29T07:38:16.999Z</time></trkpt><trkpt lat="40.40991044639538" lon="15.012291177354708"><ele>16.666666666666668</ele><time>2026-03-29T07:38:17.999Z</time></trkpt><trkpt lat="40.409844132952614" lon="15.012336961795354"><ele>16.833333333333336</ele><time>2026-03-29T07:38:18.999Z</time></trkpt><trkpt lat="40.40979542531939" lon="15.01239062102598"><ele>17.0</ele><time>2026-03-29T07:38:19.999Z</time></trkpt><trkpt lat="40.40970626111837" lon="15.012438556005742"><ele>16.75</ele><time>2026-03-29T07:38:20.999Z</time></trkpt><trkpt lat="40.40963957074151" lon="15.012492858353424"><ele>16.5</ele><time>2026-03-29T07:38:21.999Z</time></trkpt><trkpt lat="40.40953536873428" lon="15.012567692830276"><ele>16.25</ele><time>2026-03-29T07:38:22.999Z</time></trkpt><trkpt lat="40.409424142892" lon="15.012637077619694"><ele>16.0</ele><time>2026-03-29T07:38:23.999Z</time></trkpt><trkpt lat="40.40929839386938" lon="15.012719928996807"><ele>16.0</ele><time>2026-03-29T07:38:24.999Z</time></trkpt><trkpt lat="40.409173861931066" lon="15.012800812984436"><ele>16.0</ele><time>2026-03-29T07:38:26Z</time></trkpt><trkpt lat="40.40905866467627" lon="15.012898542459892"><ele>16.0</ele><time>2026-03-29T07:38:27Z</time></trkpt><trkpt lat="40.40893125567881" lon="15.012989810559924"><ele>16.0</ele><time>2026-03-29T07:38:28Z</time></trkpt><trkpt lat="40.40879213275998" lon="15.013061069483554"><ele>16.0</ele><time>2026-03-29T07:38:29Z</time></trkpt><trkpt lat="40.40865677752948" lon="15.01315359523639"><ele>16.0</ele><time>2026-03-29T07:38:30Z</time></trkpt><trkpt lat="40.408524355756235" lon="15.013262496719875"><ele>16.0</ele><time>2026-03-29T07:38:31Z</time></trkpt><trkpt lat="40.408384454014" lon="15.013360508872298"><ele>16.333333333333332</ele><time>2026-03-29T07:38:32Z</time></trkpt><trkpt lat="40.40824554505742" lon="15.013459841362039"><ele>16.666666666666668</ele><time>2026-03-29T07:38:33Z</time></trkpt><trkpt lat="40.40809930137143" lon="15.013536521615581"><ele>17.0</ele><time>2026-03-29T07:38:34Z</time></trkpt><trkpt lat="40.407950939382346" lon="15.013649127913967"><ele>17.0</ele><time>2026-03-29T07:38:35Z</time></trkpt><trkpt lat="40.40779869811495" lon="15.013759942590488"><ele>17.0</ele><time>2026-03-29T07:38:36Z</time></trkpt><trkpt lat="40.40765352597354" lon="15.013858594931946"><ele>17.0</ele><time>2026-03-29T07:38:37Z</time></trkpt><trkpt lat="40.40750082399588" lon="15.013960070603156"><ele>17.0</ele><time>2026-03-29T07:38:38Z</time></trkpt><trkpt lat="40.407341792211" lon="15.014067932350308"><ele>17.0</ele><time>2026-03-29T07:38:39Z</time></trkpt><trkpt lat="40.40718117327806" lon="15.0141741351485"><ele>17.0</ele><time>2026-03-29T07:38:40Z</time></trkpt><trkpt lat="40.40702078550432" lon="15.014272844264326"><ele>16.333333333333336</ele><time>2026-03-29T07:38:41Z</time></trkpt><trkpt lat="40.40684595546402" lon="15.014359198574224"><ele>15.666666666666668</ele><time>2026-03-29T07:38:42Z</time></trkpt><trkpt lat="40.4066662146136" lon="15.014439403582655"><ele>15.0</ele><time>2026-03-29T07:38:43Z</time></trkpt><trkpt lat="40.40648188516696" lon="15.014514016723197"><ele>15.0</ele><time>2026-03-29T07:38:44Z</time></trkpt><trkpt lat="40.4063120465572" lon="15.014578719226762"><ele>15.0</ele><time>2026-03-29T07:38:45Z</time></trkpt><trkpt lat="40.406130054817226" lon="15.014648606702687"><ele>15.0</ele><time>2026-03-29T07:38:46Z</time></trkpt><trkpt lat="40.40596842662472" lon="15.01472105790406"><ele>15.0</ele><time>2026-03-29T07:38:47Z</time></trkpt><trkpt lat="40.40582145938538" lon="15.014813131407024"><ele>15.0</ele><time>2026-03-29T07:38:48Z</time></trkpt><trkpt lat="40.40568909483998" lon="15.01491711606478"><ele>15.0</ele><time>2026-03-29T07:38:49Z</time></trkpt><trkpt lat="40.405556551483905" lon="15.015049007002501"><ele>16.0</ele><time>2026-03-29T07:38:50Z</time></trkpt><trkpt lat="40.405434485912146" lon="15.015193251152192"><ele>17.0</ele><time>2026-03-29T07:38:51Z</time></trkpt><trkpt lat="40.405312623890524" lon="15.015348232987888"><ele>18.0</ele><time>2026-03-29T07:38:52Z</time></trkpt><trkpt lat="40.40520423748471" lon="15.015501605740447"><ele>18.0</ele><time>2026-03-29T07:38:53Z</time></trkpt><trkpt lat="40.40509754853456" lon="15.0156481414576"><ele>18.0</ele><time>2026-03-29T07:38:54Z</time></trkpt><trkpt lat="40.4049838756153" lon="15.015793936193482"><ele>18.0</ele><time>2026-03-29T07:38:55Z</time></trkpt><trkpt lat="40.40486000230608" lon="15.015928774457299"><ele>18.333333333333332</ele><time>2026-03-29T07:38:56Z</time></trkpt><trkpt lat="40.40472699813335" lon="15.01604597249822"><ele>18.666666666666664</ele><time>2026-03-29T07:38:57Z</time></trkpt><trkpt lat="40.404577575343026" lon="15.016151040951318"><ele>19.0</ele><time>2026-03-29T07:38:58Z</time></trkpt><trkpt lat="40.40441574587284" lon="15.01624649954444"><ele>18.333333333333332</ele><time>2026-03-29T07:38:59Z</time></trkpt><trkpt lat="40.40425065103437" lon="15.016322040346369"><ele>17.666666666666668</ele><time>2026-03-29T07:39:00Z</time></trkpt><trkpt lat="40.40407964695548" lon="15.016385931742118"><ele>17.0</ele><time>2026-03-29T07:39:01Z</time></trkpt><trkpt lat="40.40390331941493" lon="15.016458522344479"><ele>16.0</ele><time>2026-03-29T07:39:02Z</time></trkpt><trkpt lat="40.40373400487767" lon="15.016542957424178"><ele>15.0</ele><time>2026-03-29T07:39:03Z</time></trkpt><trkpt lat="40.403562290150035" lon="15.01664154809492"><ele>14.0</ele><time>2026-03-29T07:39:04Z</time></trkpt><trkpt lat="40.40340266444689" lon="15.016746069887798"><ele>14.0</ele><time>2026-03-29T07:39:05Z</time></trkpt><trkpt lat="40.4032395296478" lon="15.01685978706255"><ele>14.0</ele><time>2026-03-29T07:39:06Z</time></trkpt><trkpt lat="40.403079409738886" lon="15.016971160284085"><ele>14.0</ele><time>2026-03-29T07:39:07Z</time></trkpt><trkpt lat="40.4029172868474" lon="15.017083921731773"><ele>14.0</ele><time>2026-03-29T07:39:08Z</time></trkpt><trkpt lat="40.40275485418879" lon="15.017197152279833"><ele>14.0</ele><time>2026-03-29T07:39:09Z</time></trkpt><trkpt lat="40.402592915441794" lon="15.01731042942485"><ele>14.0</ele><time>2026-03-29T07:39:10Z</time></trkpt><trkpt lat="40.402436799762405" lon="15.0174154785345"><ele>14.0</ele><time>2026-03-29T07:39:11Z</time></trkpt><trkpt lat="40.40229514148887" lon="15.017508812880829"><ele>14.0</ele><time>2026-03-29T07:39:12Z</time></trkpt><trkpt lat="40.40215795015274" lon="15.01760035197718"><ele>14.0</ele><time>2026-03-29T07:39:13Z</time></trkpt><trkpt lat="40.40203721803368" lon="15.017683078755097"><ele>14.0</ele><time>2026-03-29T07:39:14Z</time></trkpt><trkpt lat="40.40192735654088" lon="15.01776024219053"><ele>14.166666666666668</ele><time>2026-03-29T07:39:15Z</time></trkpt><trkpt lat="40.401845478229674" lon="15.01781958195594"><ele>14.333333333333334</ele><time>2026-03-29T07:39:16Z</time></trkpt><trkpt lat="40.40178088789969" lon="15.017867084408476"><ele>14.5</ele><time>2026-03-29T07:39:17Z</time></trkpt><trkpt lat="40.40168528826041" lon="15.017946826375116"><ele>14.666666666666668</ele><time>2026-03-29T07:39:19Z</time></trkpt><trkpt lat="40.40163108037223" lon="15.018004321837866"><ele>14.833333333333334</ele><time>2026-03-29T07:39:20Z</time></trkpt><trkpt lat="40.40154852767407" lon="15.018059266832088"><ele>15.0</ele><time>2026-03-29T07:39:21Z</time></trkpt><trkpt lat="40.40144115101142" lon="15.01811045440391"><ele>14.75</ele><time>2026-03-29T07:39:22Z</time></trkpt><trkpt lat="40.40132595616139" lon="15.018178016853922"><ele>14.5</ele><time>2026-03-29T07:39:23Z</time></trkpt><trkpt lat="40.401205136946054" lon="15.018256030914337"><ele>14.25</ele><time>2026-03-29T07:39:24Z</time></trkpt><trkpt lat="40.401079523165045" lon="15.018314329337441"><ele>14.0</ele><time>2026-03-29T07:39:25Z</time></trkpt><trkpt lat="40.400952493393504" lon="15.018333005645195"><ele>14.0</ele><time>2026-03-29T07:39:26Z</time></trkpt><trkpt lat="40.40080533097744" lon="15.018328177691098"><ele>14.0</ele><time>2026-03-29T07:39:27Z</time></trkpt><trkpt lat="40.400657202956246" lon="15.018304514056126"><ele>14.0</ele><time>2026-03-29T07:39:28Z</time></trkpt><trkpt lat="40.4005004263489" lon="15.018271016917739"><ele>12.666666666666668</ele><time>2026-03-29T07:39:29Z</time></trkpt><trkpt lat="40.40034038362328" lon="15.018227757468742"><ele>11.333333333333334</ele><time>2026-03-29T07:39:30Z</time></trkpt><trkpt lat="40.40017229635946" lon="15.018187467049778"><ele>10.0</ele><time>2026-03-29T07:39:31Z</time></trkpt><trkpt lat="40.40000917408616" lon="15.018147213686488"><ele>10.0</ele><time>2026-03-29T07:39:32Z</time></trkpt><trkpt lat="40.3998487213814" lon="15.018108730765816"><ele>10.0</ele><time>2026-03-29T07:39:33Z</time></trkpt><trkpt lat="40.39969295725674" lon="15.01807265696557"><ele>10.0</ele><time>2026-03-29T07:39:34Z</time></trkpt><trkpt lat="40.3995451779167" lon="15.018040574099176"><ele>9.75</ele><time>2026-03-29T07:39:35Z</time></trkpt><trkpt lat="40.39939482794408" lon="15.018006927652552"><ele>9.5</ele><time>2026-03-29T07:39:36Z</time></trkpt><trkpt lat="40.399252408701344" lon="15.017977751449424"><ele>9.25</ele><time>2026-03-29T07:39:37Z</time></trkpt><trkpt lat="40.399109642558706" lon="15.017974757814542"><ele>9.0</ele><time>2026-03-29T07:39:38Z</time></trkpt><trkpt lat="40.39896638215872" lon="15.018004162123125"><ele>8.5</ele><time>2026-03-29T07:39:39Z</time></trkpt><trkpt lat="40.39882169812376" lon="15.018060205923401"><ele>8.0</ele><time>2026-03-29T07:39:40Z</time></trkpt><trkpt lat="40.39868534701832" lon="15.018136234426724"><ele>7.5</ele><time>2026-03-29T07:39:41Z</time></trkpt><trkpt lat="40.398554274188015" lon="15.018228382488934"><ele>7.0</ele><time>2026-03-29T07:39:42Z</time></trkpt><trkpt lat="40.398435275089334" lon="15.018347857670555"><ele>7.0</ele><time>2026-03-29T07:39:43Z</time></trkpt><trkpt lat="40.39832359540872" lon="15.018492756600772"><ele>7.0</ele><time>2026-03-29T07:39:44Z</time></trkpt><trkpt lat="40.39823267172712" lon="15.018649278658579"><ele>7.0</ele><time>2026-03-29T07:39:45Z</time></trkpt><trkpt lat="40.39816557550016" lon="15.018798644934822"><ele>7.0</ele><time>2026-03-29T07:39:46Z</time></trkpt><trkpt lat="40.39810586861914" lon="15.018959123427512"><ele>7.333333333333334</ele><time>2026-03-29T07:39:47Z</time></trkpt><trkpt lat="40.39804399609059" lon="15.019161386085322"><ele>7.666666666666666</ele><time>2026-03-29T07:39:48Z</time></trkpt><trkpt lat="40.397971013423614" lon="15.019341048794418"><ele>8.0</ele><time>2026-03-29T07:39:49Z</time></trkpt><trkpt lat="40.397907423852686" lon="15.019509546304525"><ele>8.0</ele><time>2026-03-29T07:39:50Z</time></trkpt><trkpt lat="40.39784803739838" lon="15.01968073236679"><ele>8.0</ele><time>2026-03-29T07:39:51Z</time></trkpt><trkpt lat="40.397786186110224" lon="15.019837183596662"><ele>8.0</ele><time>2026-03-29T07:39:52Z</time></trkpt><trkpt lat="40.39772959172503" lon="15.019991156882009"><ele>8.0</ele><time>2026-03-29T07:39:53Z</time></trkpt><trkpt lat="40.397670069380624" lon="15.020143202864887"><ele>8.5</ele><time>2026-03-29T07:39:54Z</time></trkpt><trkpt lat="40.39758934241804" lon="15.020290990551375"><ele>9.0</ele><time>2026-03-29T07:39:55Z</time></trkpt><trkpt lat="40.39751078031009" lon="15.020438043858135"><ele>9.5</ele><time>2026-03-29T07:39:56Z</time></trkpt><trkpt lat="40.397427266188124" lon="15.020570961847264"><ele>10.0</ele><time>2026-03-29T07:39:57Z</time></trkpt><trkpt lat="40.39734527267678" lon="15.020713043262992"><ele>9.75</ele><time>2026-03-29T07:39:58Z</time></trkpt><trkpt lat="40.397243584964336" lon="15.020840913234048"><ele>9.5</ele><time>2026-03-29T07:39:59Z</time></trkpt><trkpt lat="40.39713734470436" lon="15.020959102810576"><ele>9.25</ele><time>2026-03-29T07:40:00Z</time></trkpt><trkpt lat="40.397022757776156" lon="15.02107323440882"><ele>9.0</ele><time>2026-03-29T07:40:01Z</time></trkpt><trkpt lat="40.39689105535877" lon="15.021169965000936"><ele>8.666666666666666</ele><time>2026-03-29T07:40:02Z</time></trkpt><trkpt lat="40.396755966918846" lon="15.02127192940992"><ele>8.333333333333332</ele><time>2026-03-29T07:40:03Z</time></trkpt><trkpt lat="40.39661674251572" lon="15.021367738357284"><ele>8.0</ele><time>2026-03-29T07:40:04Z</time></trkpt><trkpt lat="40.396478454623754" lon="15.021482870477765"><ele>8.333333333333332</ele><time>2026-03-29T07:40:05Z</time></trkpt><trkpt lat="40.396318881986694" lon="15.021565533315409"><ele>8.666666666666666</ele><time>2026-03-29T07:40:06Z</time></trkpt><trkpt lat="40.396172687847645" lon="15.021660807308967"><ele>9.0</ele><time>2026-03-29T07:40:07Z</time></trkpt><trkpt lat="40.396026971073596" lon="15.021765754809445"><ele>9.333333333333334</ele><time>2026-03-29T07:40:08Z</time></trkpt><trkpt lat="40.39588099390065" lon="15.021870018899081"><ele>9.666666666666668</ele><time>2026-03-29T07:40:09Z</time></trkpt><trkpt lat="40.39572782570316" lon="15.021969895482226"><ele>10.0</ele><time>2026-03-29T07:40:10Z</time></trkpt><trkpt lat="40.395570618128936" lon="15.022075799399046"><ele>10.333333333333334</ele><time>2026-03-29T07:40:10.999Z</time></trkpt><trkpt lat="40.39541528146752" lon="15.022184731411546"><ele>10.666666666666666</ele><time>2026-03-29T07:40:11.999Z</time></trkpt><trkpt lat="40.39524965862642" lon="15.02229618126875"><ele>11.0</ele><time>2026-03-29T07:40:12.999Z</time></trkpt><trkpt lat="40.39508296779368" lon="15.02241229859281"><ele>11.0</ele><time>2026-03-29T07:40:13.999Z</time></trkpt><trkpt lat="40.394917199199966" lon="15.022529531977723"><ele>11.0</ele><time>2026-03-29T07:40:14.999Z</time></trkpt><trkpt lat="40.39475117891049" lon="15.022645362647962"><ele>11.0</ele><time>2026-03-29T07:40:15.999Z</time></trkpt><trkpt lat="40.39458758883556" lon="15.02275827616684"><ele>11.333333333333332</ele><time>2026-03-29T07:40:16.999Z</time></trkpt><trkpt lat="40.394423725957964" lon="15.022871895254296"><ele>11.666666666666666</ele><time>2026-03-29T07:40:17.999Z</time></trkpt><trkpt lat="40.39426372280653" lon="15.022983751707267"><ele>12.0</ele><time>2026-03-29T07:40:18.999Z</time></trkpt><trkpt lat="40.394096204167106" lon="15.023098252802141"><ele>12.0</ele><time>2026-03-29T07:40:19.999Z</time></trkpt><trkpt lat="40.393932319543886" lon="15.023207133520959"><ele>12.0</ele><time>2026-03-29T07:40:20.999Z</time></trkpt><trkpt lat="40.39376556648116" lon="15.023316693038565"><ele>12.0</ele><time>2026-03-29T07:40:21.999Z</time></trkpt><trkpt lat="40.393597220824304" lon="15.023427560843528"><ele>11.666666666666666</ele><time>2026-03-29T07:40:22.999Z</time></trkpt><trkpt lat="40.3934314927579" lon="15.023539878438825"><ele>11.333333333333332</ele><time>2026-03-29T07:40:23.999Z</time></trkpt><trkpt lat="40.39326594056708" lon="15.023661815621903"><ele>11.0</ele><time>2026-03-29T07:40:24.999Z</time></trkpt><trkpt lat="40.39310279376167" lon="15.023772299969789"><ele>10.333333333333332</ele><time>2026-03-29T07:40:25.999Z</time></trkpt><trkpt lat="40.39293798342492" lon="15.02387961355619"><ele>9.666666666666666</ele><time>2026-03-29T07:40:26.999Z</time></trkpt><trkpt lat="40.39277553303265" lon="15.023988727610549"><ele>9.0</ele><time>2026-03-29T07:40:27.999Z</time></trkpt><trkpt lat="40.39261180178374" lon="15.024102747913721"><ele>9.333333333333334</ele><time>2026-03-29T07:40:28.999Z</time></trkpt><trkpt lat="40.392448537957584" lon="15.024218053572458"><ele>9.666666666666668</ele><time>2026-03-29T07:40:29.999Z</time></trkpt><trkpt lat="40.392281498693585" lon="15.024331732995451"><ele>10.0</ele><time>2026-03-29T07:40:30.999Z</time></trkpt><trkpt lat="40.39211475122417" lon="15.024443360656102"><ele>10.333333333333334</ele><time>2026-03-29T07:40:32Z</time></trkpt><trkpt lat="40.391950014492075" lon="15.024556499832254"><ele>10.666666666666666</ele><time>2026-03-29T07:40:33Z</time></trkpt><trkpt lat="40.39178594786729" lon="15.02466875535666"><ele>11.0</ele><time>2026-03-29T07:40:34Z</time></trkpt><trkpt lat="40.39162635374171" lon="15.024775766881078"><ele>11.0</ele><time>2026-03-29T07:40:35Z</time></trkpt><trkpt lat="40.39147027520415" lon="15.024885265267132"><ele>11.0</ele><time>2026-03-29T07:40:36Z</time></trkpt><trkpt lat="40.39131199545931" lon="15.02500011878251"><ele>11.0</ele><time>2026-03-29T07:40:37Z</time></trkpt><trkpt lat="40.391155643953674" lon="15.025114344825036"><ele>11.333333333333332</ele><time>2026-03-29T07:40:38Z</time></trkpt><trkpt lat="40.390993890712934" lon="15.02521392689185"><ele>11.666666666666666</ele><time>2026-03-29T07:40:39Z</time></trkpt><trkpt lat="40.390833505921705" lon="15.02531841153012"><ele>12.0</ele><time>2026-03-29T07:40:40Z</time></trkpt><trkpt lat="40.39067308037056" lon="15.025427736364644"><ele>12.0</ele><time>2026-03-29T07:40:41Z</time></trkpt><trkpt lat="40.39051461880461" lon="15.025538963701587"><ele>12.0</ele><time>2026-03-29T07:40:42Z</time></trkpt><trkpt lat="40.390352779111176" lon="15.02565191462236"><ele>12.0</ele><time>2026-03-29T07:40:43Z</time></trkpt><trkpt lat="40.39019019816818" lon="15.025761955879084"><ele>12.0</ele><time>2026-03-29T07:40:44Z</time></trkpt><trkpt lat="40.39002966474914" lon="15.02586932271116"><ele>12.0</ele><time>2026-03-29T07:40:45Z</time></trkpt><trkpt lat="40.38986855025749" lon="15.025977998921487"><ele>12.0</ele><time>2026-03-29T07:40:46Z</time></trkpt><trkpt lat="40.38970761417945" lon="15.026088077064903"><ele>12.666666666666668</ele><time>2026-03-29T07:40:47Z</time></trkpt><trkpt lat="40.38954495973251" lon="15.026202739431367"><ele>13.333333333333334</ele><time>2026-03-29T07:40:48Z</time></trkpt><trkpt lat="40.389381798186136" lon="15.026312228836794"><ele>14.0</ele><time>2026-03-29T07:40:49Z</time></trkpt><trkpt lat="40.389221605509796" lon="15.026415794700926"><ele>14.0</ele><time>2026-03-29T07:40:50Z</time></trkpt><trkpt lat="40.38906358041353" lon="15.026526492813577"><ele>14.0</ele><time>2026-03-29T07:40:51Z</time></trkpt><trkpt lat="40.38890835019719" lon="15.026655797439552"><ele>14.0</ele><time>2026-03-29T07:40:52Z</time></trkpt><trkpt lat="40.388741546044834" lon="15.026763469949529"><ele>14.0</ele><time>2026-03-29T07:40:53Z</time></trkpt><trkpt lat="40.38856371766369" lon="15.026858360493991"><ele>14.0</ele><time>2026-03-29T07:40:54Z</time></trkpt><trkpt lat="40.38838805718244" lon="15.026924103442612"><ele>14.0</ele><time>2026-03-29T07:40:55Z</time></trkpt><trkpt lat="40.38820648117869" lon="15.026960462993964"><ele>14.0</ele><time>2026-03-29T07:40:56Z</time></trkpt><trkpt lat="40.388027718537714" lon="15.026978099728723"><ele>14.0</ele><time>2026-03-29T07:40:57Z</time></trkpt><trkpt lat="40.38784340290095" lon="15.02698588598319"><ele>14.0</ele><time>2026-03-29T07:40:58Z</time></trkpt><trkpt lat="40.38765328230984" lon="15.02699642486"><ele>14.0</ele><time>2026-03-29T07:40:59Z</time></trkpt><trkpt lat="40.387462066356875" lon="15.027016732935806"><ele>14.0</ele><time>2026-03-29T07:41:00Z</time></trkpt><trkpt lat="40.38727416415747" lon="15.027039464516042"><ele>14.0</ele><time>2026-03-29T07:41:01Z</time></trkpt><trkpt lat="40.38709378039162" lon="15.027059928936335"><ele>13.666666666666668</ele><time>2026-03-29T07:41:02Z</time></trkpt><trkpt lat="40.38692740728101" lon="15.027080578437296"><ele>13.333333333333332</ele><time>2026-03-29T07:41:03Z</time></trkpt><trkpt lat="40.386756498077915" lon="15.027098607312785"><ele>13.0</ele><time>2026-03-29T07:41:04Z</time></trkpt><trkpt lat="40.38659484070547" lon="15.027114865879195"><ele>13.0</ele><time>2026-03-29T07:41:05Z</time></trkpt><trkpt lat="40.38642274334968" lon="15.027131646653544"><ele>13.0</ele><time>2026-03-29T07:41:06Z</time></trkpt><trkpt lat="40.38624980120541" lon="15.027148843928668"><ele>13.0</ele><time>2026-03-29T07:41:07Z</time></trkpt><trkpt lat="40.386085813835166" lon="15.027162425790232"><ele>13.0</ele><time>2026-03-29T07:41:08Z</time></trkpt><trkpt lat="40.385937193551264" lon="15.027179834043148"><ele>13.0</ele><time>2026-03-29T07:41:09Z</time></trkpt><trkpt lat="40.3857966394075" lon="15.027196877734015"><ele>13.0</ele><time>2026-03-29T07:41:10Z</time></trkpt><trkpt lat="40.38566458564949" lon="15.027219117382149"><ele>13.0</ele><time>2026-03-29T07:41:11Z</time></trkpt><trkpt lat="40.38553005613131" lon="15.027232920871038"><ele>13.4</ele><time>2026-03-29T07:41:12Z</time></trkpt><trkpt lat="40.385406477770005" lon="15.02723551314668"><ele>13.8</ele><time>2026-03-29T07:41:13Z</time></trkpt><trkpt lat="40.38529856448545" lon="15.027219398230372"><ele>14.2</ele><time>2026-03-29T07:41:14Z</time></trkpt><trkpt lat="40.38520886718545" lon="15.027186180206751"><ele>14.6</ele><time>2026-03-29T07:41:15Z</time></trkpt><trkpt lat="40.3851362209336" lon="15.027137431924857"><ele>15.0</ele><time>2026-03-29T07:41:16Z</time></trkpt><trkpt lat="40.385083859973314" lon="15.027075719361436"><ele>15.0</ele><time>2026-03-29T07:41:17Z</time></trkpt><trkpt lat="40.38503443641024" lon="15.027010323854652"><ele>15.0</ele><time>2026-03-29T07:41:18Z</time></trkpt><trkpt lat="40.384934568051406" lon="15.026974094416092"><ele>15.0</ele><time>2026-03-29T07:41:20Z</time></trkpt><trkpt lat="40.384838474656604" lon="15.027077053339706"><ele>15.0</ele><time>2026-03-29T07:41:22Z</time></trkpt><trkpt lat="40.38479545696749" lon="15.027144202942194"><ele>15.0</ele><time>2026-03-29T07:41:23Z</time></trkpt><trkpt lat="40.38471959646096" lon="15.02723099506812"><ele>15.0</ele><time>2026-03-29T07:41:25Z</time></trkpt><trkpt lat="40.38466746960374" lon="15.0272988500798"><ele>15.0</ele><time>2026-03-29T07:43:07Z</time></trkpt><trkpt lat="40.38472032872583" lon="15.027438463433098"><ele>15.0</ele><time>2026-03-29T07:43:09Z</time></trkpt><trkpt lat="40.38472429068314" lon="15.02760868829211"><ele>15.0</ele><time>2026-03-29T07:43:11Z</time></trkpt><trkpt lat="40.38469510838047" lon="15.0277222089743"><ele>15.0</ele><time>2026-03-29T07:43:12Z</time></trkpt><trkpt lat="40.3846664319467" lon="15.027831135400982"><ele>15.4</ele><time>2026-03-29T07:43:13Z</time></trkpt><trkpt lat="40.38463483054367" lon="15.02793040412983"><ele>15.8</ele><time>2026-03-29T07:43:14Z</time></trkpt><trkpt lat="40.384548744565656" lon="15.028014507633753"><ele>16.2</ele><time>2026-03-29T07:43:16Z</time></trkpt><trkpt lat="40.38446276395538" lon="15.027986383229265"><ele>16.6</ele><time>2026-03-29T07:43:17Z</time></trkpt><trkpt lat="40.38436159381089" lon="15.027934054478855"><ele>17.0</ele><time>2026-03-29T07:43:18Z</time></trkpt><trkpt lat="40.38427338188591" lon="15.027899656172883"><ele>17.0</ele><time>2026-03-29T07:43:19Z</time></trkpt><trkpt lat="40.3841939794369" lon="15.02786345353918"><ele>17.0</ele><time>2026-03-29T07:43:20Z</time></trkpt><trkpt lat="40.38413364925496" lon="15.02783901991433"><ele>17.0</ele><time>2026-03-29T07:43:21Z</time></trkpt><trkpt lat="40.38404586517841" lon="15.027819106142294"><ele>17.0</ele><time>2026-03-29T07:43:23Z</time></trkpt><trkpt lat="40.38397825794321" lon="15.027885223666022"><ele>17.0</ele><time>2026-03-29T07:43:25Z</time></trkpt><trkpt lat="40.38394403341011" lon="15.02797249287478"><ele>17.0</ele><time>2026-03-29T07:43:27Z</time></trkpt><trkpt lat="40.38390579152061" lon="15.028131322504077"><ele>17.0</ele><time>2026-03-29T07:43:29Z</time></trkpt><trkpt lat="40.38387906461757" lon="15.028240895016761"><ele>17.0</ele><time>2026-03-29T07:43:30Z</time></trkpt><trkpt lat="40.383858515403624" lon="15.02834712473118"><ele>17.0</ele><time>2026-03-29T07:43:31Z</time></trkpt><trkpt lat="40.38383846448575" lon="15.028468593570214"><ele>17.0</ele><time>2026-03-29T07:43:32Z</time></trkpt><trkpt lat="40.383812819766334" lon="15.028601232231326"><ele>17.0</ele><time>2026-03-29T07:43:33Z</time></trkpt><trkpt lat="40.38378217193007" lon="15.02873932055882"><ele>17.5</ele><time>2026-03-29T07:43:34Z</time></trkpt><trkpt lat="40.38375152608644" lon="15.028881874411256"><ele>18.0</ele><time>2026-03-29T07:43:35Z</time></trkpt><trkpt lat="40.383717972051656" lon="15.02903292875545"><ele>18.5</ele><time>2026-03-29T07:43:36Z</time></trkpt><trkpt lat="40.38367882677042" lon="15.02919166755157"><ele>19.0</ele><time>2026-03-29T07:43:37Z</time></trkpt><trkpt lat="40.38364657501793" lon="15.02934155167107"><ele>19.0</ele><time>2026-03-29T07:43:38Z</time></trkpt><trkpt lat="40.38361740770493" lon="15.029484955982019"><ele>19.0</ele><time>2026-03-29T07:43:39Z</time></trkpt><trkpt lat="40.38358920468187" lon="15.029610411096188"><ele>19.0</ele><time>2026-03-29T07:43:40Z</time></trkpt><trkpt lat="40.38356019869804" lon="15.029744263613194"><ele>19.0</ele><time>2026-03-29T07:43:41Z</time></trkpt><trkpt lat="40.383515349406025" lon="15.029886456711967"><ele>19.0</ele><time>2026-03-29T07:43:42Z</time></trkpt><trkpt lat="40.38346731185289" lon="15.030027825374594"><ele>19.25</ele><time>2026-03-29T07:43:43Z</time></trkpt><trkpt lat="40.38340557555379" lon="15.030182550643001"><ele>19.5</ele><time>2026-03-29T07:43:44Z</time></trkpt><trkpt lat="40.38333072627789" lon="15.03033338260523"><ele>19.75</ele><time>2026-03-29T07:43:45Z</time></trkpt><trkpt lat="40.38326043384663" lon="15.030486009669572"><ele>20.0</ele><time>2026-03-29T07:43:46Z</time></trkpt><trkpt lat="40.38316227248142" lon="15.030608390410215"><ele>20.0</ele><time>2026-03-29T07:43:47Z</time></trkpt><trkpt lat="40.3830876642054" lon="15.030765017289951"><ele>20.0</ele><time>2026-03-29T07:43:48Z</time></trkpt><trkpt lat="40.38300883613593" lon="15.030923747366526"><ele>20.0</ele><time>2026-03-29T07:43:49Z</time></trkpt><trkpt lat="40.38292805880644" lon="15.031079584128582"><ele>20.0</ele><time>2026-03-29T07:43:50Z</time></trkpt><trkpt lat="40.382843420915535" lon="15.031235629435582"><ele>20.0</ele><time>2026-03-29T07:43:51Z</time></trkpt><trkpt lat="40.38275952844148" lon="15.031392457323346"><ele>20.0</ele><time>2026-03-29T07:43:52Z</time></trkpt><trkpt lat="40.38264707404883" lon="15.03151794416113"><ele>20.0</ele><time>2026-03-29T07:43:53Z</time></trkpt><trkpt lat="40.38254939684784" lon="15.031675475313845"><ele>20.0</ele><time>2026-03-29T07:43:54Z</time></trkpt><trkpt lat="40.38243718102312" lon="15.031823792092142"><ele>20.0</ele><time>2026-03-29T07:43:55Z</time></trkpt><trkpt lat="40.38233785410411" lon="15.031967468151965"><ele>20.0</ele><time>2026-03-29T07:43:56Z</time></trkpt><trkpt lat="40.38224310848292" lon="15.032101745083734"><ele>20.0</ele><time>2026-03-29T07:43:57Z</time></trkpt><trkpt lat="40.382168957091295" lon="15.03224950667619"><ele>20.0</ele><time>2026-03-29T07:43:58Z</time></trkpt><trkpt lat="40.382101478332444" lon="15.032418362341893"><ele>20.0</ele><time>2026-03-29T07:43:59Z</time></trkpt><trkpt lat="40.382056678132926" lon="15.032597703516084"><ele>20.0</ele><time>2026-03-29T07:44:00Z</time></trkpt><trkpt lat="40.382021366731465" lon="15.032792353984725"><ele>20.0</ele><time>2026-03-29T07:44:01Z</time></trkpt><trkpt lat="40.38198950735134" lon="15.03298690280721"><ele>20.0</ele><time>2026-03-29T07:44:02Z</time></trkpt><trkpt lat="40.38195698845326" lon="15.03318578877146"><ele>20.666666666666668</ele><time>2026-03-29T07:44:03Z</time></trkpt><trkpt lat="40.38193037758989" lon="15.033383055939824"><ele>21.333333333333332</ele><time>2026-03-29T07:44:04Z</time></trkpt><trkpt lat="40.381908012615725" lon="15.033583655175832"><ele>22.0</ele><time>2026-03-29T07:44:05Z</time></trkpt><trkpt lat="40.381883595409796" lon="15.033788034188944"><ele>22.0</ele><time>2026-03-29T07:44:06Z</time></trkpt><trkpt lat="40.38185115583343" lon="15.033986058926555"><ele>22.0</ele><time>2026-03-29T07:44:07Z</time></trkpt><trkpt lat="40.38182508080961" lon="15.034187751880717"><ele>22.0</ele><time>2026-03-29T07:44:08Z</time></trkpt><trkpt lat="40.38179156041401" lon="15.034365391699435"><ele>21.75</ele><time>2026-03-29T07:44:09Z</time></trkpt><trkpt lat="40.38176385361518" lon="15.034546312475173"><ele>21.5</ele><time>2026-03-29T07:44:10Z</time></trkpt><trkpt lat="40.38172795422186" lon="15.034732578214157"><ele>21.25</ele><time>2026-03-29T07:44:11Z</time></trkpt><trkpt lat="40.3816908594184" lon="15.03492031502005"><ele>21.0</ele><time>2026-03-29T07:44:12Z</time></trkpt><trkpt lat="40.38165453501972" lon="15.035111423556652"><ele>21.0</ele><time>2026-03-29T07:44:13Z</time></trkpt><trkpt lat="40.38161440463681" lon="15.03529904948912"><ele>21.0</ele><time>2026-03-29T07:44:14Z</time></trkpt><trkpt lat="40.381574541157775" lon="15.035472130383397"><ele>21.0</ele><time>2026-03-29T07:44:15Z</time></trkpt><trkpt lat="40.38153193545485" lon="15.035657528381423"><ele>21.0</ele><time>2026-03-29T07:44:16Z</time></trkpt><trkpt lat="40.38148837816815" lon="15.035853494454159"><ele>20.333333333333332</ele><time>2026-03-29T07:44:17Z</time></trkpt><trkpt lat="40.38144498531999" lon="15.036060315755268"><ele>19.666666666666664</ele><time>2026-03-29T07:44:18Z</time></trkpt><trkpt lat="40.38140318452529" lon="15.036257494651688"><ele>19.0</ele><time>2026-03-29T07:44:19Z</time></trkpt><trkpt lat="40.3813600622468" lon="15.036458212854432"><ele>22.333333333333332</ele><time>2026-03-29T07:44:20Z</time></trkpt><trkpt lat="40.38130902238409" lon="15.036659407523763"><ele>25.666666666666664</ele><time>2026-03-29T07:44:21Z</time></trkpt><trkpt lat="40.3812572217729" lon="15.036856612205916"><ele>29.0</ele><time>2026-03-29T07:44:22Z</time></trkpt><trkpt lat="40.381203661308554" lon="15.037050918969129"><ele>29.0</ele><time>2026-03-29T07:44:23Z</time></trkpt><trkpt lat="40.38114074836446" lon="15.037241349354897"><ele>29.0</ele><time>2026-03-29T07:44:24Z</time></trkpt><trkpt lat="40.381071273111914" lon="15.03740716332546"><ele>29.0</ele><time>2026-03-29T07:44:25Z</time></trkpt><trkpt lat="40.38098888706924" lon="15.03756722402396"><ele>29.0</ele><time>2026-03-29T07:44:26Z</time></trkpt><trkpt lat="40.380888427261745" lon="15.03772442637271"><ele>29.0</ele><time>2026-03-29T07:44:27Z</time></trkpt><trkpt lat="40.38078048668262" lon="15.037869542870897"><ele>29.0</ele><time>2026-03-29T07:44:28Z</time></trkpt><trkpt lat="40.38066803473385" lon="15.037999332636884"><ele>29.0</ele><time>2026-03-29T07:44:29Z</time></trkpt><trkpt lat="40.380553544656784" lon="15.03811361672604"><ele>29.0</ele><time>2026-03-29T07:44:30Z</time></trkpt><trkpt lat="40.380435332788814" lon="15.038234732198411"><ele>28.25</ele><time>2026-03-29T07:44:31Z</time></trkpt><trkpt lat="40.380332982870215" lon="15.038338764368769"><ele>27.5</ele><time>2026-03-29T07:44:32Z</time></trkpt><trkpt lat="40.3802892513223" lon="15.038509629376797"><ele>26.75</ele><time>2026-03-29T07:44:33Z</time></trkpt><trkpt lat="40.3802523595794" lon="15.038673956851776"><ele>26.0</ele><time>2026-03-29T07:44:34Z</time></trkpt><trkpt lat="40.380230565631614" lon="15.038852926934533"><ele>26.0</ele><time>2026-03-29T07:44:35Z</time></trkpt><trkpt lat="40.380208184785154" lon="15.039039469530193"><ele>26.0</ele><time>2026-03-29T07:44:36Z</time></trkpt><trkpt lat="40.380176068753215" lon="15.039231795583973"><ele>26.0</ele><time>2026-03-29T07:44:37Z</time></trkpt><trkpt lat="40.380133635408484" lon="15.039429887378414"><ele>25.333333333333332</ele><time>2026-03-29T07:44:38Z</time></trkpt><trkpt lat="40.38008633544267" lon="15.039631457828682"><ele>24.666666666666664</ele><time>2026-03-29T07:44:39Z</time></trkpt><trkpt lat="40.38004082443349" lon="15.039831591191891"><ele>24.0</ele><time>2026-03-29T07:44:40Z</time></trkpt><trkpt lat="40.37998148056074" lon="15.040019051635113"><ele>24.0</ele><time>2026-03-29T07:44:41Z</time></trkpt><trkpt lat="40.37995165651173" lon="15.040207171061475"><ele>24.0</ele><time>2026-03-29T07:44:42Z</time></trkpt><trkpt lat="40.379898357070545" lon="15.04040275476669"><ele>24.0</ele><time>2026-03-29T07:44:43Z</time></trkpt><trkpt lat="40.379848525218094" lon="15.040584739037309"><ele>24.0</ele><time>2026-03-29T07:44:44Z</time></trkpt><trkpt lat="40.37979309435496" lon="15.040764974521183"><ele>24.0</ele><time>2026-03-29T07:44:45Z</time></trkpt><trkpt lat="40.37974006900155" lon="15.04092564741282"><ele>24.0</ele><time>2026-03-29T07:44:46Z</time></trkpt><trkpt lat="40.379670992864995" lon="15.04105982810649"><ele>24.0</ele><time>2026-03-29T07:44:47Z</time></trkpt><trkpt lat="40.37962412607168" lon="15.041204537530486"><ele>25.0</ele><time>2026-03-29T07:44:48Z</time></trkpt><trkpt lat="40.37954756708923" lon="15.041331703065476"><ele>26.0</ele><time>2026-03-29T07:44:49Z</time></trkpt><trkpt lat="40.37945588023891" lon="15.041436935416517"><ele>27.0</ele><time>2026-03-29T07:44:50Z</time></trkpt><trkpt lat="40.379361552516265" lon="15.041511638964346"><ele>28.0</ele><time>2026-03-29T07:44:51Z</time></trkpt><trkpt lat="40.37925256722576" lon="15.041557931757152"><ele>28.0</ele><time>2026-03-29T07:44:52Z</time></trkpt><trkpt lat="40.379126509330156" lon="15.041570714199423"><ele>28.0</ele><time>2026-03-29T07:44:53Z</time></trkpt><trkpt lat="40.37899165331852" lon="15.041589207584023"><ele>28.0</ele><time>2026-03-29T07:44:54Z</time></trkpt><trkpt lat="40.37884476321111" lon="15.041585807285639"><ele>28.0</ele><time>2026-03-29T07:44:55Z</time></trkpt><trkpt lat="40.37870211133284" lon="15.041591708807125"><ele>28.333333333333336</ele><time>2026-03-29T07:44:56Z</time></trkpt><trkpt lat="40.3785522927449" lon="15.041612031500406"><ele>28.666666666666664</ele><time>2026-03-29T07:44:57Z</time></trkpt><trkpt lat="40.378403013775646" lon="15.041644398385369"><ele>29.0</ele><time>2026-03-29T07:44:58Z</time></trkpt><trkpt lat="40.378244785980556" lon="15.041682257228368"><ele>29.666666666666664</ele><time>2026-03-29T07:44:59Z</time></trkpt><trkpt lat="40.37809059349653" lon="15.041716765425141"><ele>30.333333333333336</ele><time>2026-03-29T07:45:00Z</time></trkpt><trkpt lat="40.37793644668917" lon="15.041748865403765"><ele>31.0</ele><time>2026-03-29T07:45:01Z</time></trkpt><trkpt lat="40.37777642475891" lon="15.041779582335131"><ele>31.666666666666668</ele><time>2026-03-29T07:45:02Z</time></trkpt><trkpt lat="40.37761348202848" lon="15.041805675916637"><ele>32.333333333333336</ele><time>2026-03-29T07:45:03Z</time></trkpt><trkpt lat="40.37745561040522" lon="15.041833635269345"><ele>33.0</ele><time>2026-03-29T07:45:04Z</time></trkpt><trkpt lat="40.37729729058523" lon="15.041862678494457"><ele>33.0</ele><time>2026-03-29T07:45:05Z</time></trkpt><trkpt lat="40.377145987314265" lon="15.041889769297914"><ele>33.0</ele><time>2026-03-29T07:45:06Z</time></trkpt><trkpt lat="40.37699950963696" lon="15.041915941504657"><ele>33.0</ele><time>2026-03-29T07:45:07Z</time></trkpt><trkpt lat="40.376843907784064" lon="15.041942099079952"><ele>33.0</ele><time>2026-03-29T07:45:08Z</time></trkpt><trkpt lat="40.376692296619794" lon="15.0419692674444"><ele>33.0</ele><time>2026-03-29T07:45:09Z</time></trkpt><trkpt lat="40.37654265137777" lon="15.041995904294554"><ele>33.0</ele><time>2026-03-29T07:45:10Z</time></trkpt><trkpt lat="40.37640228561697" lon="15.042021574623014"><ele>33.0</ele><time>2026-03-29T07:45:11Z</time></trkpt><trkpt lat="40.376283593001475" lon="15.042048197675335"><ele>33.5</ele><time>2026-03-29T07:45:12Z</time></trkpt><trkpt lat="40.37618799159892" lon="15.042070243568014"><ele>34.0</ele><time>2026-03-29T07:45:13Z</time></trkpt><trkpt lat="40.37612271870336" lon="15.042084709861191"><ele>34.5</ele><time>2026-03-29T07:45:14Z</time></trkpt><trkpt lat="40.37605384116809" lon="15.04209242268764"><ele>35.0</ele><time>2026-03-29T07:45:16Z</time></trkpt><trkpt lat="40.37613936682574" lon="15.042073692599653"><ele>35.5</ele><time>2026-03-29T07:45:30Z</time></trkpt><trkpt lat="40.37618246910178" lon="15.042193854131654"><ele>36.0</ele><time>2026-03-29T07:50:08Z</time></trkpt><trkpt lat="40.376102417294064" lon="15.042106670886424"><ele>36.0</ele><time>2026-03-29T07:50:26Z</time></trkpt><trkpt lat="40.375967035204496" lon="15.042144944798542"><ele>36.0</ele><time>2026-03-29T07:50:28Z</time></trkpt><trkpt lat="40.37587560530233" lon="15.042178662521174"><ele>36.0</ele><time>2026-03-29T07:50:29Z</time></trkpt><trkpt lat="40.37579404647819" lon="15.042211031698217"><ele>36.0</ele><time>2026-03-29T07:50:30Z</time></trkpt><trkpt lat="40.37570000324418" lon="15.04225266385276"><ele>36.0</ele><time>2026-03-29T07:50:31Z</time></trkpt><trkpt lat="40.3755966965143" lon="15.042289036360796"><ele>36.75</ele><time>2026-03-29T07:50:32Z</time></trkpt><trkpt lat="40.37548909176542" lon="15.042328311270204"><ele>37.5</ele><time>2026-03-29T07:50:33Z</time></trkpt><trkpt lat="40.375381364945106" lon="15.04236734101764"><ele>38.25</ele><time>2026-03-29T07:50:34Z</time></trkpt><trkpt lat="40.375268932525714" lon="15.042410682172145"><ele>39.0</ele><time>2026-03-29T07:50:35Z</time></trkpt><trkpt lat="40.37516384459886" lon="15.042452923380047"><ele>39.5</ele><time>2026-03-29T07:50:36Z</time></trkpt><trkpt lat="40.37505504179472" lon="15.042494038463413"><ele>40.0</ele><time>2026-03-29T07:50:37Z</time></trkpt><trkpt lat="40.37494488493366" lon="15.042537065328514"><ele>40.5</ele><time>2026-03-29T07:50:38Z</time></trkpt><trkpt lat="40.37483573306508" lon="15.042584038832315"><ele>41.0</ele><time>2026-03-29T07:50:39Z</time></trkpt><trkpt lat="40.37472052059579" lon="15.042632929435579"><ele>41.25</ele><time>2026-03-29T07:50:40Z</time></trkpt><trkpt lat="40.374600303752274" lon="15.042682880370506"><ele>41.5</ele><time>2026-03-29T07:50:41Z</time></trkpt><trkpt lat="40.37448302143977" lon="15.042736943410393"><ele>41.75</ele><time>2026-03-29T07:50:42Z</time></trkpt><trkpt lat="40.374375547906716" lon="15.04279430300173"><ele>42.0</ele><time>2026-03-29T07:50:43Z</time></trkpt><trkpt lat="40.37426453103263" lon="15.042850178748804"><ele>42.0</ele><time>2026-03-29T07:50:44Z</time></trkpt><trkpt lat="40.37417003357051" lon="15.04291030918178"><ele>42.0</ele><time>2026-03-29T07:50:45Z</time></trkpt><trkpt lat="40.37407854543535" lon="15.042956582248413"><ele>42.0</ele><time>2026-03-29T07:50:46Z</time></trkpt><trkpt lat="40.373982056866325" lon="15.04301388720859"><ele>42.0</ele><time>2026-03-29T07:50:47Z</time></trkpt><trkpt lat="40.373880086570175" lon="15.043070584025886"><ele>42.0</ele><time>2026-03-29T07:50:48Z</time></trkpt><trkpt lat="40.37377642413435" lon="15.043116446301946"><ele>42.8</ele><time>2026-03-29T07:50:49Z</time></trkpt><trkpt lat="40.37370169113318" lon="15.043170915915647"><ele>43.6</ele><time>2026-03-29T07:50:50Z</time></trkpt><trkpt lat="40.37360851846512" lon="15.04323031306807"><ele>44.4</ele><time>2026-03-29T07:50:51Z</time></trkpt><trkpt lat="40.373523761717415" lon="15.043288296735893"><ele>45.199999999999996</ele><time>2026-03-29T07:50:52Z</time></trkpt><trkpt lat="40.37344144871822" lon="15.043342451188241"><ele>46.0</ele><time>2026-03-29T07:50:53Z</time></trkpt><trkpt lat="40.373366422841706" lon="15.04339554987322"><ele>46.0</ele><time>2026-03-29T07:50:53.999Z</time></trkpt><trkpt lat="40.37326823247264" lon="15.043460691986493"><ele>46.0</ele><time>2026-03-29T07:50:54.999Z</time></trkpt><trkpt lat="40.37316915859459" lon="15.043526328959263"><ele>46.0</ele><time>2026-03-29T07:50:55.999Z</time></trkpt><trkpt lat="40.37306150958662" lon="15.043591913925706"><ele>46.0</ele><time>2026-03-29T07:50:56.999Z</time></trkpt><trkpt lat="40.37295839417898" lon="15.043657058375285"><ele>45.75</ele><time>2026-03-29T07:50:57.999Z</time></trkpt><trkpt lat="40.372852882282245" lon="15.043725321280203"><ele>45.5</ele><time>2026-03-29T07:50:58.999Z</time></trkpt><trkpt lat="40.37274651892166" lon="15.043791573240139"><ele>45.25</ele><time>2026-03-29T07:50:59.999Z</time></trkpt><trkpt lat="40.37263615239091" lon="15.04386221972036"><ele>45.0</ele><time>2026-03-29T07:51:00.999Z</time></trkpt><trkpt lat="40.37253015414521" lon="15.04393001058844"><ele>45.0</ele><time>2026-03-29T07:51:02Z</time></trkpt><trkpt lat="40.37242225204113" lon="15.043990701642853"><ele>45.0</ele><time>2026-03-29T07:51:03Z</time></trkpt><trkpt lat="40.37231630665679" lon="15.044047873640027"><ele>45.0</ele><time>2026-03-29T07:51:04Z</time></trkpt><trkpt lat="40.37220504944716" lon="15.044104290408468"><ele>45.0</ele><time>2026-03-29T07:51:05Z</time></trkpt><trkpt lat="40.372097948103004" lon="15.044157577765597"><ele>45.0</ele><time>2026-03-29T07:51:06Z</time></trkpt><trkpt lat="40.372005921455596" lon="15.044210627797892"><ele>45.0</ele><time>2026-03-29T07:51:07Z</time></trkpt><trkpt lat="40.37191827867185" lon="15.044259271962982"><ele>45.0</ele><time>2026-03-29T07:51:08Z</time></trkpt><trkpt lat="40.37184780187804" lon="15.044309798676423"><ele>45.0</ele><time>2026-03-29T07:51:09Z</time></trkpt><trkpt lat="40.37178288908715" lon="15.044367752825378"><ele>45.0</ele><time>2026-03-29T07:51:10Z</time></trkpt><trkpt lat="40.3717136011997" lon="15.04442492550617"><ele>45.0</ele><time>2026-03-29T07:51:11Z</time></trkpt><trkpt lat="40.37164163256302" lon="15.044422667904199"><ele>45.0</ele><time>2026-03-29T07:51:12Z</time></trkpt><trkpt lat="40.371567893678055" lon="15.044434440659447"><ele>45.0</ele><time>2026-03-29T07:51:13Z</time></trkpt><trkpt lat="40.37147575058958" lon="15.044439765510205"><ele>45.0</ele><time>2026-03-29T07:51:14Z</time></trkpt><trkpt lat="40.371383355221155" lon="15.044466045593635"><ele>45.0</ele><time>2026-03-29T07:51:15Z</time></trkpt><trkpt lat="40.37128444038926" lon="15.044480936306075"><ele>45.0</ele><time>2026-03-29T07:51:16Z</time></trkpt><trkpt lat="40.37118365601017" lon="15.044513701878994"><ele>45.75</ele><time>2026-03-29T07:51:17Z</time></trkpt><trkpt lat="40.371075621430776" lon="15.044554107763211"><ele>46.5</ele><time>2026-03-29T07:51:18Z</time></trkpt><trkpt lat="40.37096174569568" lon="15.044559952538743"><ele>47.25</ele><time>2026-03-29T07:51:19Z</time></trkpt><trkpt lat="40.370854302493" lon="15.044599925115177"><ele>48.0</ele><time>2026-03-29T07:51:20Z</time></trkpt><trkpt lat="40.370742152675525" lon="15.044617017816085"><ele>48.0</ele><time>2026-03-29T07:51:21Z</time></trkpt><trkpt lat="40.37062924059193" lon="15.044634602932788"><ele>48.0</ele><time>2026-03-29T07:51:22Z</time></trkpt><trkpt lat="40.37051081963091" lon="15.044654564814937"><ele>48.0</ele><time>2026-03-29T07:51:23Z</time></trkpt><trkpt lat="40.37039742027029" lon="15.044670338559577"><ele>48.0</ele><time>2026-03-29T07:51:24Z</time></trkpt><trkpt lat="40.37028499902492" lon="15.04468952622178"><ele>48.4</ele><time>2026-03-29T07:51:25Z</time></trkpt><trkpt lat="40.370170929752476" lon="15.044699173135191"><ele>48.8</ele><time>2026-03-29T07:51:26Z</time></trkpt><trkpt lat="40.37006242121787" lon="15.044722230224547"><ele>49.2</ele><time>2026-03-29T07:51:27Z</time></trkpt><trkpt lat="40.36995167990801" lon="15.044759088018413"><ele>49.6</ele><time>2026-03-29T07:51:28Z</time></trkpt><trkpt lat="40.36984646457342" lon="15.044789721704989"><ele>50.0</ele><time>2026-03-29T07:51:29Z</time></trkpt><trkpt lat="40.36974952841377" lon="15.04481659429162"><ele>50.4</ele><time>2026-03-29T07:51:30Z</time></trkpt><trkpt lat="40.36964187698088" lon="15.04484798840773"><ele>50.8</ele><time>2026-03-29T07:51:31Z</time></trkpt><trkpt lat="40.369535703259" lon="15.04487069839377"><ele>51.2</ele><time>2026-03-29T07:51:32Z</time></trkpt><trkpt lat="40.36944269862679" lon="15.044895938410423"><ele>51.6</ele><time>2026-03-29T07:51:33Z</time></trkpt><trkpt lat="40.369358875469665" lon="15.044929982641419"><ele>52.0</ele><time>2026-03-29T07:51:34Z</time></trkpt><trkpt lat="40.36927630047757" lon="15.044970404917018"><ele>52.0</ele><time>2026-03-29T07:51:35Z</time></trkpt><trkpt lat="40.36918958697809" lon="15.04500467792032"><ele>52.0</ele><time>2026-03-29T07:51:36Z</time></trkpt><trkpt lat="40.36909935303147" lon="15.045029805503642"><ele>52.0</ele><time>2026-03-29T07:51:37Z</time></trkpt><trkpt lat="40.36899734185895" lon="15.045028550183995"><ele>52.0</ele><time>2026-03-29T07:51:38Z</time></trkpt><trkpt lat="40.36888915097037" lon="15.045023860222123"><ele>52.0</ele><time>2026-03-29T07:51:39Z</time></trkpt><trkpt lat="40.368782979439196" lon="15.04503251627549"><ele>52.8</ele><time>2026-03-29T07:51:40Z</time></trkpt><trkpt lat="40.36869365719431" lon="15.045054184888356"><ele>53.6</ele><time>2026-03-29T07:51:41Z</time></trkpt><trkpt lat="40.36858437591716" lon="15.04508616894552"><ele>54.39999999999999</ele><time>2026-03-29T07:51:42Z</time></trkpt><trkpt lat="40.36847227080501" lon="15.04512337231996"><ele>55.199999999999996</ele><time>2026-03-29T07:51:43Z</time></trkpt><trkpt lat="40.3683601278333" lon="15.045156077245355"><ele>56.0</ele><time>2026-03-29T07:51:44Z</time></trkpt><trkpt lat="40.36825853972414" lon="15.045181426481358"><ele>56.0</ele><time>2026-03-29T07:51:45Z</time></trkpt><trkpt lat="40.368156839694485" lon="15.045198079303091"><ele>55.99999999999999</ele><time>2026-03-29T07:51:46Z</time></trkpt><trkpt lat="40.3680634332969" lon="15.045218094923374"><ele>55.99999999999999</ele><time>2026-03-29T07:51:47Z</time></trkpt><trkpt lat="40.36797019630564" lon="15.04523410655559"><ele>56.0</ele><time>2026-03-29T07:51:48Z</time></trkpt><trkpt lat="40.3678741519736" lon="15.045245555004804"><ele>56.0</ele><time>2026-03-29T07:51:49Z</time></trkpt><trkpt lat="40.36779018986465" lon="15.045267960852616"><ele>56.57142857142857</ele><time>2026-03-29T07:51:50Z</time></trkpt><trkpt lat="40.36772956219291" lon="15.045292125076378"><ele>57.14285714285714</ele><time>2026-03-29T07:51:51Z</time></trkpt><trkpt lat="40.36766501713214" lon="15.045342965875916"><ele>57.714285714285715</ele><time>2026-03-29T07:51:52Z</time></trkpt><trkpt lat="40.367611135518516" lon="15.04539749716088"><ele>58.285714285714285</ele><time>2026-03-29T07:51:53Z</time></trkpt><trkpt lat="40.367545922845245" lon="15.04543734731327"><ele>58.857142857142854</ele><time>2026-03-29T07:51:54Z</time></trkpt><trkpt lat="40.36748967749337" lon="15.045493413588218"><ele>59.42857142857143</ele><time>2026-03-29T07:51:55Z</time></trkpt><trkpt lat="40.367438752682546" lon="15.045556209582193"><ele>60.0</ele><time>2026-03-29T07:51:56Z</time></trkpt><trkpt lat="40.367361998772914" lon="15.045599934680503"><ele>60.0</ele><time>2026-03-29T07:51:57Z</time></trkpt><trkpt lat="40.367283225949144" lon="15.045641605808271"><ele>60.0</ele><time>2026-03-29T07:51:58Z</time></trkpt><trkpt lat="40.36720147027235" lon="15.04570411373459"><ele>60.0</ele><time>2026-03-29T07:51:59Z</time></trkpt><trkpt lat="40.36713752495627" lon="15.045801270869406"><ele>60.0</ele><time>2026-03-29T07:52:00Z</time></trkpt><trkpt lat="40.367080321875704" lon="15.045907778972339"><ele>60.0</ele><time>2026-03-29T07:52:01Z</time></trkpt><trkpt lat="40.36701272175544" lon="15.045997465083214"><ele>61.0</ele><time>2026-03-29T07:52:02Z</time></trkpt><trkpt lat="40.36695170850048" lon="15.046085599311956"><ele>62.0</ele><time>2026-03-29T07:52:03Z</time></trkpt><trkpt lat="40.36688963995941" lon="15.046158822186612"><ele>63.0</ele><time>2026-03-29T07:52:04Z</time></trkpt><trkpt lat="40.366812190411544" lon="15.04622719800209"><ele>64.0</ele><time>2026-03-29T07:52:05Z</time></trkpt><trkpt lat="40.36672580752112" lon="15.046302888975305"><ele>65.0</ele><time>2026-03-29T07:52:06Z</time></trkpt><trkpt lat="40.36665523391063" lon="15.046382742716183"><ele>65.0</ele><time>2026-03-29T07:52:07Z</time></trkpt><trkpt lat="40.36657975042158" lon="15.046435670588851"><ele>65.0</ele><time>2026-03-29T07:52:08Z</time></trkpt><trkpt lat="40.366513742635156" lon="15.046474704936747"><ele>65.0</ele><time>2026-03-29T07:52:08.999Z</time></trkpt><trkpt lat="40.36641342077097" lon="15.046463669235573"><ele>65.0</ele><time>2026-03-29T07:52:10.999Z</time></trkpt><trkpt lat="40.36633250433847" lon="15.046503857789489"><ele>65.0</ele><time>2026-03-29T07:53:29Z</time></trkpt><trkpt lat="40.36629252693248" lon="15.046426888368494"><ele>65.0</ele><time>2026-03-29T07:53:31Z</time></trkpt><trkpt lat="40.36618791597381" lon="15.046391132766562"><ele>66.33333333333334</ele><time>2026-03-29T07:53:33Z</time></trkpt><trkpt lat="40.36607539230765" lon="15.04635306605205"><ele>67.66666666666667</ele><time>2026-03-29T07:53:35Z</time></trkpt><trkpt lat="40.36601316593962" lon="15.046331222877313"><ele>69.0</ele><time>2026-03-29T07:53:36Z</time></trkpt><trkpt lat="40.36594413941375" lon="15.046306992692257"><ele>70.33333333333333</ele><time>2026-03-29T07:53:37Z</time></trkpt><trkpt lat="40.36587562328323" lon="15.046282941658896"><ele>71.66666666666666</ele><time>2026-03-29T07:53:38Z</time></trkpt><trkpt lat="40.3658035492912" lon="15.04625764173347"><ele>73.0</ele><time>2026-03-29T07:53:39Z</time></trkpt><trkpt lat="40.36571877381065" lon="15.046227883200293"><ele>73.0</ele><time>2026-03-29T07:53:40Z</time></trkpt><trkpt lat="40.36563140742256" lon="15.046218544401572"><ele>73.0</ele><time>2026-03-29T07:53:41Z</time></trkpt><trkpt lat="40.36554927818191" lon="15.046171289902688"><ele>73.0</ele><time>2026-03-29T07:53:42Z</time></trkpt><trkpt lat="40.36545235594607" lon="15.046153226658808"><ele>73.0</ele><time>2026-03-29T07:53:43Z</time></trkpt><trkpt lat="40.365366643349596" lon="15.04612493217999"><ele>73.0</ele><time>2026-03-29T07:53:44Z</time></trkpt><trkpt lat="40.36528959480642" lon="15.046102751011176"><ele>73.0</ele><time>2026-03-29T07:53:45Z</time></trkpt><trkpt lat="40.365203531752094" lon="15.046075996856496"><ele>75.2</ele><time>2026-03-29T07:53:46Z</time></trkpt><trkpt lat="40.36511516653909" lon="15.04604885266331"><ele>77.4</ele><time>2026-03-29T07:53:47Z</time></trkpt><trkpt lat="40.365030173978276" lon="15.046006821268666"><ele>79.60000000000001</ele><time>2026-03-29T07:53:48Z</time></trkpt><trkpt lat="40.36493388575241" lon="15.045998875790625"><ele>81.8</ele><time>2026-03-29T07:53:49Z</time></trkpt><trkpt lat="40.364840896281045" lon="15.045974946798099"><ele>84.0</ele><time>2026-03-29T07:53:50Z</time></trkpt><trkpt lat="40.36474207751221" lon="15.04595065142329"><ele>86.5</ele><time>2026-03-29T07:53:51Z</time></trkpt><trkpt lat="40.36466361352206" lon="15.04594462678742"><ele>89.0</ele><time>2026-03-29T07:53:52Z</time></trkpt><trkpt lat="40.36459558670229" lon="15.045929636460668"><ele>91.5</ele><time>2026-03-29T07:53:53Z</time></trkpt><trkpt lat="40.36452846895918" lon="15.045899816636725"><ele>94.0</ele><time>2026-03-29T07:53:54Z</time></trkpt><trkpt lat="40.3644629892875" lon="15.045878499364827"><ele>96.5</ele><time>2026-03-29T07:53:55Z</time></trkpt><trkpt lat="40.36438295860044" lon="15.045848636436837"><ele>99.0</ele><time>2026-03-29T07:53:56Z</time></trkpt><trkpt lat="40.364287905381445" lon="15.045828600221478"><ele>98.0</ele><time>2026-03-29T07:53:57Z</time></trkpt><trkpt lat="40.364189828257445" lon="15.045777699109006"><ele>97.0</ele><time>2026-03-29T07:53:58Z</time></trkpt><trkpt lat="40.3640900672748" lon="15.045735728918766"><ele>96.0</ele><time>2026-03-29T07:53:59Z</time></trkpt><trkpt lat="40.36400046085858" lon="15.045697116170944"><ele>95.0</ele><time>2026-03-29T07:54:00Z</time></trkpt><trkpt lat="40.36392686881963" lon="15.045642512318958"><ele>94.0</ele><time>2026-03-29T07:54:01Z</time></trkpt><trkpt lat="40.36384759270789" lon="15.045603995251861"><ele>97.6</ele><time>2026-03-29T07:54:02Z</time></trkpt><trkpt lat="40.363764360169974" lon="15.045560222071535"><ele>101.2</ele><time>2026-03-29T07:54:03Z</time></trkpt><trkpt lat="40.36366524491215" lon="15.045529568691606"><ele>104.79999999999998</ele><time>2026-03-29T07:54:04Z</time></trkpt><trkpt lat="40.363573543427776" lon="15.045447837427595"><ele>108.39999999999999</ele><time>2026-03-29T07:54:05Z</time></trkpt><trkpt lat="40.36348898428399" lon="15.045388149871053"><ele>112.0</ele><time>2026-03-29T07:54:06Z</time></trkpt><trkpt lat="40.3633987504025" lon="15.045320830763524"><ele>112.0</ele><time>2026-03-29T07:54:07Z</time></trkpt><trkpt lat="40.363314393468585" lon="15.045254417800106"><ele>111.99999999999999</ele><time>2026-03-29T07:54:08Z</time></trkpt><trkpt lat="40.36322888231524" lon="15.045174394183281"><ele>111.99999999999999</ele><time>2026-03-29T07:54:09Z</time></trkpt><trkpt lat="40.36313772789896" lon="15.045112735287008"><ele>112.0</ele><time>2026-03-29T07:54:10Z</time></trkpt><trkpt lat="40.36308357386358" lon="15.045047208857946"><ele>112.0</ele><time>2026-03-29T07:54:11Z</time></trkpt><trkpt lat="40.36301599970132" lon="15.044982487107028"><ele>114.16666666666667</ele><time>2026-03-29T07:54:12Z</time></trkpt><trkpt lat="40.362932132512455" lon="15.044909737661822"><ele>116.33333333333334</ele><time>2026-03-29T07:54:13Z</time></trkpt><trkpt lat="40.362855662584934" lon="15.044837892350655"><ele>118.5</ele><time>2026-03-29T07:54:14Z</time></trkpt><trkpt lat="40.36279921897943" lon="15.044788909294406"><ele>120.66666666666666</ele><time>2026-03-29T07:54:15Z</time></trkpt><trkpt lat="40.36273543712067" lon="15.044735392869917"><ele>122.83333333333333</ele><time>2026-03-29T07:54:16Z</time></trkpt><trkpt lat="40.36266434534013" lon="15.044695468553932"><ele>125.0</ele><time>2026-03-29T07:54:17Z</time></trkpt><trkpt lat="40.36257680092721" lon="15.044640240255415"><ele>124.99999999999999</ele><time>2026-03-29T07:54:18Z</time></trkpt><trkpt lat="40.362512332487064" lon="15.04461602133535"><ele>125.0</ele><time>2026-03-29T07:54:19Z</time></trkpt><trkpt lat="40.36243692613521" lon="15.044626234668478"><ele>125.0</ele><time>2026-03-29T07:54:20Z</time></trkpt><trkpt lat="40.362352488102" lon="15.04463257604693"><ele>125.0</ele><time>2026-03-29T07:54:21Z</time></trkpt><trkpt lat="40.36226426455696" lon="15.044646148979863"><ele>124.99999999999999</ele><time>2026-03-29T07:54:22Z</time></trkpt><trkpt lat="40.36217406941742" lon="15.04468306679611"><ele>125.0</ele><time>2026-03-29T07:54:23Z</time></trkpt><trkpt lat="40.36208196259864" lon="15.044724508184595"><ele>127.83333333333333</ele><time>2026-03-29T07:54:24Z</time></trkpt><trkpt lat="40.362002688334684" lon="15.044769693261593"><ele>130.66666666666666</ele><time>2026-03-29T07:54:25Z</time></trkpt><trkpt lat="40.36193581154738" lon="15.044861519669125"><ele>133.5</ele><time>2026-03-29T07:54:26Z</time></trkpt><trkpt lat="40.36186584520326" lon="15.044912065402348"><ele>136.33333333333334</ele><time>2026-03-29T07:54:27Z</time></trkpt><trkpt lat="40.36180623054194" lon="15.044977262161572"><ele>139.16666666666669</ele><time>2026-03-29T07:54:28Z</time></trkpt><trkpt lat="40.36175370603653" lon="15.04503595263185"><ele>142.0</ele><time>2026-03-29T07:54:29Z</time></trkpt><trkpt lat="40.36170183569949" lon="15.045093912137705"><ele>142.0</ele><time>2026-03-29T07:54:31.999Z</time></trkpt><trkpt lat="40.36160434660723" lon="15.045063013565786"><ele>142.0</ele><time>2026-03-29T07:54:33.999Z</time></trkpt><trkpt lat="40.36154419714801" lon="15.045029697719944"><ele>142.0</ele><time>2026-03-29T07:54:34.999Z</time></trkpt><trkpt lat="40.36148298999257" lon="15.044978462863707"><ele>142.0</ele><time>2026-03-29T07:54:35.999Z</time></trkpt><trkpt lat="40.36141109180287" lon="15.04492492980009"><ele>142.0</ele><time>2026-03-29T07:54:36.999Z</time></trkpt><trkpt lat="40.361326068291326" lon="15.044869910179752"><ele>142.0</ele><time>2026-03-29T07:54:37.999Z</time></trkpt><trkpt lat="40.361243105047166" lon="15.044831726912083"><ele>145.6</ele><time>2026-03-29T07:54:38.999Z</time></trkpt><trkpt lat="40.36115220789196" lon="15.044774948317654"><ele>149.2</ele><time>2026-03-29T07:54:39.999Z</time></trkpt><trkpt lat="40.36106029929861" lon="15.044723717563276"><ele>152.8</ele><time>2026-03-29T07:54:40.999Z</time></trkpt><trkpt lat="40.3609764207573" lon="15.044677638049537"><ele>156.4</ele><time>2026-03-29T07:54:41.999Z</time></trkpt><trkpt lat="40.360897497679694" lon="15.044625552036932"><ele>160.0</ele><time>2026-03-29T07:54:42.999Z</time></trkpt><trkpt lat="40.360808981867244" lon="15.044563244494835"><ele>160.0</ele><time>2026-03-29T07:54:43.999Z</time></trkpt><trkpt lat="40.360741866248446" lon="15.044479812578402"><ele>160.0</ele><time>2026-03-29T07:54:44.999Z</time></trkpt><trkpt lat="40.36067799291487" lon="15.044396384679475"><ele>160.0</ele><time>2026-03-29T07:54:45.999Z</time></trkpt><trkpt lat="40.360624200156366" lon="15.044330928730494"><ele>160.0</ele><time>2026-03-29T07:54:46.999Z</time></trkpt><trkpt lat="40.36054825904676" lon="15.044280075377392"><ele>160.0</ele><time>2026-03-29T07:54:47.999Z</time></trkpt><trkpt lat="40.36045648447913" lon="15.044230893025532"><ele>160.0</ele><time>2026-03-29T07:54:48.999Z</time></trkpt><trkpt lat="40.360330898528375" lon="15.044211107345053"><ele>161.5</ele><time>2026-03-29T07:54:49.999Z</time></trkpt><trkpt lat="40.36023623591754" lon="15.0441668412196"><ele>163.0</ele><time>2026-03-29T07:54:50.999Z</time></trkpt><trkpt lat="40.360143555111016" lon="15.044123270702087"><ele>164.5</ele><time>2026-03-29T07:54:51.999Z</time></trkpt><trkpt lat="40.36005814978546" lon="15.044087951379538"><ele>166.0</ele><time>2026-03-29T07:54:52.999Z</time></trkpt><trkpt lat="40.36000313873012" lon="15.04404460340858"><ele>167.5</ele><time>2026-03-29T07:54:53.999Z</time></trkpt><trkpt lat="40.35992204137667" lon="15.04400021187202"><ele>169.0</ele><time>2026-03-29T07:54:55.999Z</time></trkpt><trkpt lat="40.35980060392539" lon="15.044184016587353"><ele>169.66666666666669</ele><time>2026-03-29T07:55:00.999Z</time></trkpt><trkpt lat="40.359708050704214" lon="15.044275608565334"><ele>170.33333333333334</ele><time>2026-03-29T07:55:02.999Z</time></trkpt><trkpt lat="40.35964387443292" lon="15.044292259920171"><ele>171.0</ele><time>2026-03-29T07:55:03.999Z</time></trkpt><trkpt lat="40.35956239576054" lon="15.044301099235092"><ele>171.66666666666666</ele><time>2026-03-29T07:55:04.999Z</time></trkpt><trkpt lat="40.35947593827817" lon="15.044304124338746"><ele>172.33333333333331</ele><time>2026-03-29T07:55:05.999Z</time></trkpt><trkpt lat="40.35938525298096" lon="15.04431427227478"><ele>173.0</ele><time>2026-03-29T07:55:06.999Z</time></trkpt><trkpt lat="40.35928809003419" lon="15.044331452509988"><ele>174.66666666666666</ele><time>2026-03-29T07:55:07.999Z</time></trkpt><trkpt lat="40.35919688922768" lon="15.044343304633667"><ele>176.33333333333331</ele><time>2026-03-29T07:55:08.999Z</time></trkpt><trkpt lat="40.35911962948135" lon="15.044351786680256"><ele>178.0</ele><time>2026-03-29T07:55:09.999Z</time></trkpt><trkpt lat="40.3590502373614" lon="15.044360411359333"><ele>179.66666666666666</ele><time>2026-03-29T07:55:10.999Z</time></trkpt><trkpt lat="40.358974638920316" lon="15.044375959752148"><ele>181.33333333333334</ele><time>2026-03-29T07:55:11.999Z</time></trkpt><trkpt lat="40.358883112374976" lon="15.044419013581047"><ele>183.0</ele><time>2026-03-29T07:55:12.999Z</time></trkpt><trkpt lat="40.3587860474843" lon="15.044474035834995"><ele>186.0</ele><time>2026-03-29T07:55:14Z</time></trkpt><trkpt lat="40.35869156680654" lon="15.044535694061386"><ele>189.0</ele><time>2026-03-29T07:55:15Z</time></trkpt><trkpt lat="40.358599281713424" lon="15.044612397794618"><ele>192.0</ele><time>2026-03-29T07:55:16Z</time></trkpt><trkpt lat="40.35851639806316" lon="15.044702134773578"><ele>195.0</ele><time>2026-03-29T07:55:17Z</time></trkpt><trkpt lat="40.35844831502738" lon="15.044798495331147"><ele>198.0</ele><time>2026-03-29T07:55:18Z</time></trkpt><trkpt lat="40.358379844256824" lon="15.044913201208193"><ele>196.5</ele><time>2026-03-29T07:55:19Z</time></trkpt><trkpt lat="40.358322211237436" lon="15.04504667413974"><ele>195.0</ele><time>2026-03-29T07:55:20Z</time></trkpt><trkpt lat="40.35827473353687" lon="15.045202117262761"><ele>193.5</ele><time>2026-03-29T07:55:21Z</time></trkpt><trkpt lat="40.35822868351425" lon="15.045374015267011"><ele>192.0</ele><time>2026-03-29T07:55:22Z</time></trkpt><trkpt lat="40.358177060126536" lon="15.045555803680628"><ele>192.0</ele><time>2026-03-29T07:55:23Z</time></trkpt><trkpt lat="40.35813307751292" lon="15.045749783292962"><ele>192.0</ele><time>2026-03-29T07:55:24Z</time></trkpt><trkpt lat="40.35808746550383" lon="15.045944041322572"><ele>192.0</ele><time>2026-03-29T07:55:25Z</time></trkpt><trkpt lat="40.35804265718968" lon="15.046131133376157"><ele>195.0</ele><time>2026-03-29T07:55:26Z</time></trkpt><trkpt lat="40.358000917336675" lon="15.04630674241425"><ele>198.0</ele><time>2026-03-29T07:55:27Z</time></trkpt><trkpt lat="40.35796091008157" lon="15.046475061857429"><ele>201.0</ele><time>2026-03-29T07:55:28Z</time></trkpt><trkpt lat="40.35791990673579" lon="15.046639270658385"><ele>204.0</ele><time>2026-03-29T07:55:29Z</time></trkpt><trkpt lat="40.35788100838194" lon="15.046812761032516"><ele>204.0</ele><time>2026-03-29T07:55:30Z</time></trkpt><trkpt lat="40.35787514651821" lon="15.047002560235123"><ele>204.0</ele><time>2026-03-29T07:55:31Z</time></trkpt><trkpt lat="40.35786650600425" lon="15.047186065302059"><ele>204.0</ele><time>2026-03-29T07:55:32Z</time></trkpt><trkpt lat="40.35786487501431" lon="15.047380061493621"><ele>204.0</ele><time>2026-03-29T07:55:33Z</time></trkpt><trkpt lat="40.357864858811446" lon="15.047559773975648"><ele>205.25</ele><time>2026-03-29T07:55:34Z</time></trkpt><trkpt lat="40.357845707727535" lon="15.047745806212024"><ele>206.5</ele><time>2026-03-29T07:55:35Z</time></trkpt><trkpt lat="40.35784078173522" lon="15.047928688101937"><ele>207.75</ele><time>2026-03-29T07:55:36Z</time></trkpt><trkpt lat="40.35783269923188" lon="15.04812550789486"><ele>209.0</ele><time>2026-03-29T07:55:37Z</time></trkpt><trkpt lat="40.35782234199792" lon="15.048313275315195"><ele>211.0</ele><time>2026-03-29T07:55:38Z</time></trkpt><trkpt lat="40.35780489189273" lon="15.048482027139068"><ele>213.0</ele><time>2026-03-29T07:55:39Z</time></trkpt><trkpt lat="40.35777765815825" lon="15.048646769479731"><ele>215.0</ele><time>2026-03-29T07:55:40Z</time></trkpt><trkpt lat="40.35774643732452" lon="15.048811152420713"><ele>217.0</ele><time>2026-03-29T07:55:41Z</time></trkpt><trkpt lat="40.35771697622718" lon="15.048965330335731"><ele>217.0</ele><time>2026-03-29T07:55:42Z</time></trkpt><trkpt lat="40.35769840082992" lon="15.049085743032531"><ele>217.0</ele><time>2026-03-29T07:55:43Z</time></trkpt><trkpt lat="40.35768573242485" lon="15.049202490811075"><ele>217.0</ele><time>2026-03-29T07:55:44Z</time></trkpt><trkpt lat="40.35769155255286" lon="15.049301508377726"><ele>217.0</ele><time>2026-03-29T07:55:45Z</time></trkpt><trkpt lat="40.357666925670635" lon="15.049440463243409"><ele>217.0</ele><time>2026-03-29T07:55:47Z</time></trkpt><trkpt lat="40.35767089444779" lon="15.049605937177626"><ele>216.85714285714286</ele><time>2026-03-29T07:55:49Z</time></trkpt><trkpt lat="40.357673386756254" lon="15.04969175223408"><ele>216.71428571428572</ele><time>2026-03-29T07:55:50Z</time></trkpt><trkpt lat="40.35769590220143" lon="15.049774730352018"><ele>216.57142857142856</ele><time>2026-03-29T07:55:51Z</time></trkpt><trkpt lat="40.35774727850471" lon="15.04984671575072"><ele>216.42857142857144</ele><time>2026-03-29T07:55:52Z</time></trkpt><trkpt lat="40.357815660633136" lon="15.04990573513095"><ele>216.28571428571428</ele><time>2026-03-29T07:55:53Z</time></trkpt><trkpt lat="40.357870186885705" lon="15.04995751186614"><ele>216.14285714285714</ele><time>2026-03-29T07:55:54Z</time></trkpt><trkpt lat="40.357914778637635" lon="15.05005865509773"><ele>216.0</ele><time>2026-03-29T07:55:56Z</time></trkpt><trkpt lat="40.357798491078775" lon="15.050102212930142"><ele>216.0</ele><time>2026-03-29T07:56:00Z</time></trkpt><trkpt lat="40.357736734184456" lon="15.050067999277404"><ele>216.0</ele><time>2026-03-29T07:56:01Z</time></trkpt><trkpt lat="40.357635358173724" lon="15.050042200740368"><ele>216.0</ele><time>2026-03-29T07:56:03Z</time></trkpt><trkpt lat="40.357563067766435" lon="15.050012294189965"><ele>216.0</ele><time>2026-03-29T07:56:05Z</time></trkpt><trkpt lat="40.3575091060292" lon="15.049934015692273"><ele>216.0</ele><time>2026-03-29T07:56:07Z</time></trkpt><trkpt lat="40.35755802490689" lon="15.050032638919914"><ele>216.0</ele><time>2026-03-29T07:56:15Z</time></trkpt><trkpt lat="40.3576313526846" lon="15.050058100459326"><ele>217.4</ele><time>2026-03-29T07:56:18Z</time></trkpt><trkpt lat="40.35764811722768" lon="15.050265896171691"><ele>218.8</ele><time>2026-03-29T07:56:23Z</time></trkpt><trkpt lat="40.35762748501525" lon="15.050370542097435"><ele>220.20000000000002</ele><time>2026-03-29T07:56:26Z</time></trkpt><trkpt lat="40.357533631603516" lon="15.05033313207903"><ele>221.60000000000002</ele><time>2026-03-29T07:56:29Z</time></trkpt><trkpt lat="40.357438464557816" lon="15.0503592887409"><ele>223.0</ele><time>2026-03-29T07:56:31Z</time></trkpt><trkpt lat="40.35731964442572" lon="15.050358803761068"><ele>223.0</ele><time>2026-03-29T07:56:33Z</time></trkpt><trkpt lat="40.35725044264218" lon="15.050361261108554"><ele>223.0</ele><time>2026-03-29T07:56:34Z</time></trkpt><trkpt lat="40.35713002044771" lon="15.050375562316857"><ele>223.0</ele><time>2026-03-29T07:56:36Z</time></trkpt><trkpt lat="40.35706321800617" lon="15.050395527449517"><ele>223.0</ele><time>2026-03-29T07:56:37Z</time></trkpt><trkpt lat="40.356958850316964" lon="15.050429360642136"><ele>223.0</ele><time>2026-03-29T07:56:38.999Z</time></trkpt><trkpt lat="40.35685088417738" lon="15.050474070040279"><ele>228.5</ele><time>2026-03-29T07:56:40.999Z</time></trkpt><trkpt lat="40.35673433269677" lon="15.050546270283213"><ele>234.0</ele><time>2026-03-29T07:56:42.999Z</time></trkpt><trkpt lat="40.356716849655264" lon="15.050342302691572"><ele>239.5</ele><time>2026-03-29T07:56:51.999Z</time></trkpt><trkpt lat="40.356695330417345" lon="15.050180536176017"><ele>245.0</ele><time>2026-03-29T07:56:53.999Z</time></trkpt><trkpt lat="40.356667860159384" lon="15.050101620789242"><ele>245.0</ele><time>2026-03-29T07:56:54.999Z</time></trkpt><trkpt lat="40.35661876407537" lon="15.050019437731686"><ele>245.0</ele><time>2026-03-29T07:56:56.999Z</time></trkpt><trkpt lat="40.35657914055745" lon="15.049952546668411"><ele>245.0</ele><time>2026-03-29T07:57:00.999Z</time></trkpt><trkpt lat="40.35654493791679" lon="15.049878759569875"><ele>245.0</ele><time>2026-03-29T07:57:02.999Z</time></trkpt><trkpt lat="40.35651921949924" lon="15.049800193420968"><ele>245.0</ele><time>2026-03-29T07:57:14.999Z</time></trkpt><trkpt lat="40.356470705020705" lon="15.049723159439292"><ele>245.0</ele><time>2026-03-29T07:57:17.999Z</time></trkpt><trkpt lat="40.35645635264963" lon="15.04964009325256"><ele>245.0</ele><time>2026-03-29T07:57:20Z</time></trkpt><trkpt lat="40.356513492889405" lon="15.04978314945751"><ele>245.0</ele><time>2026-03-29T07:57:27Z</time></trkpt><trkpt lat="40.356562085465285" lon="15.049896497275919"><ele>245.0</ele><time>2026-03-29T07:57:29Z</time></trkpt><trkpt lat="40.356615598864025" lon="15.050028304587528"><ele>245.0</ele><time>2026-03-29T07:57:31Z</time></trkpt><trkpt lat="40.35665658941955" lon="15.050140150202527"><ele>245.0</ele><time>2026-03-29T07:57:33Z</time></trkpt><trkpt lat="40.35669442264354" lon="15.050253903812115"><ele>245.0</ele><time>2026-03-29T07:57:35Z</time></trkpt><trkpt lat="40.35670922273355" lon="15.050373523336548"><ele>245.00000000000003</ele><time>2026-03-29T07:57:37Z</time></trkpt><trkpt lat="40.35671073517647" lon="15.050489166938007"><ele>245.0</ele><time>2026-03-29T07:57:39Z</time></trkpt><trkpt lat="40.35668717184718" lon="15.050567947956688"><ele>245.0</ele><time>2026-03-29T07:57:44Z</time></trkpt><trkpt lat="40.356645940977536" lon="15.050648772018064"><ele>245.0</ele><time>2026-03-29T07:57:50Z</time></trkpt><trkpt lat="40.35668488664177" lon="15.050508730047296"><ele>245.00000000000003</ele><time>2026-03-29T07:57:56Z</time></trkpt><trkpt lat="40.35671178458048" lon="15.050380234148266"><ele>245.0</ele><time>2026-03-29T07:57:58Z</time></trkpt><trkpt lat="40.35669484874718" lon="15.050293284917599"><ele>245.00000000000003</ele><time>2026-03-29T07:57:59Z</time></trkpt><trkpt lat="40.35668153886367" lon="15.050207965870896"><ele>245.0</ele><time>2026-03-29T07:58:00Z</time></trkpt><trkpt lat="40.35665984038252" lon="15.050123232256725"><ele>245.0</ele><time>2026-03-29T07:58:01Z</time></trkpt><trkpt lat="40.3566117500789" lon="15.050019250300412"><ele>245.0</ele><time>2026-03-29T07:58:03Z</time></trkpt><trkpt lat="40.35655516838614" lon="15.04991504154117"><ele>245.00000000000003</ele><time>2026-03-29T07:58:05Z</time></trkpt><trkpt lat="40.356528453927446" lon="15.049835666088168"><ele>245.0</ele><time>2026-03-29T07:58:06Z</time></trkpt><trkpt lat="40.35648398131656" lon="15.049714350322505"><ele>244.00000000000003</ele><time>2026-03-29T07:58:08Z</time></trkpt><trkpt lat="40.35644699441974" lon="15.049646855689852"><ele>243.0</ele><time>2026-03-29T07:58:11Z</time></trkpt><trkpt lat="40.35633676758077" lon="15.049732782207231"><ele>242.0</ele><time>2026-03-29T07:58:14Z</time></trkpt><trkpt lat="40.356324175355184" lon="15.049823036198616"><ele>241.0</ele><time>2026-03-29T07:58:15Z</time></trkpt><trkpt lat="40.356295509483715" lon="15.049959268824283"><ele>240.00000000000003</ele><time>2026-03-29T07:58:17Z</time></trkpt><trkpt lat="40.35627312703702" lon="15.050044259002098"><ele>239.0</ele><time>2026-03-29T07:58:18Z</time></trkpt><trkpt lat="40.35625185211413" lon="15.05012504426481"><ele>242.8571428571429</ele><time>2026-03-29T07:58:19Z</time></trkpt><trkpt lat="40.356229995036244" lon="15.050207384283587"><ele>246.71428571428572</ele><time>2026-03-29T07:58:20Z</time></trkpt><trkpt lat="40.35620765603242" lon="15.050288444996438"><ele>250.57142857142858</ele><time>2026-03-29T07:58:21Z</time></trkpt><trkpt lat="40.35618547637536" lon="15.050388304046763"><ele>254.42857142857144</ele><time>2026-03-29T07:58:23Z</time></trkpt><trkpt lat="40.35615691840401" lon="15.05046478514749"><ele>258.2857142857143</ele><time>2026-03-29T07:58:25Z</time></trkpt><trkpt lat="40.35608928614481" lon="15.050428599198845"><ele>262.14285714285717</ele><time>2026-03-29T07:58:29Z</time></trkpt><trkpt lat="40.35601387165931" lon="15.050369971043617"><ele>266.0</ele><time>2026-03-29T07:58:32Z</time></trkpt><trkpt lat="40.35592026310598" lon="15.050325152243406"><ele>266.0</ele><time>2026-03-29T07:58:34Z</time></trkpt><trkpt lat="40.355796732908495" lon="15.050322903259156"><ele>266.0</ele><time>2026-03-29T07:58:36Z</time></trkpt><trkpt lat="40.355714155162026" lon="15.050346689022927"><ele>266.0</ele><time>2026-03-29T07:58:37Z</time></trkpt><trkpt lat="40.35562448867433" lon="15.05036454633092"><ele>266.0</ele><time>2026-03-29T07:58:38Z</time></trkpt><trkpt lat="40.35554093622454" lon="15.050374259312123"><ele>266.0</ele><time>2026-03-29T07:58:39Z</time></trkpt><trkpt lat="40.355454985309954" lon="15.05038487066562"><ele>271.8</ele><time>2026-03-29T07:58:40Z</time></trkpt><trkpt lat="40.35535309737455" lon="15.050403804773415"><ele>277.6</ele><time>2026-03-29T07:58:41Z</time></trkpt><trkpt lat="40.35524739280291" lon="15.050420354942538"><ele>283.4</ele><time>2026-03-29T07:58:42Z</time></trkpt><trkpt lat="40.355132556778955" lon="15.050425433149014"><ele>289.2</ele><time>2026-03-29T07:58:43Z</time></trkpt><trkpt lat="40.35501853492054" lon="15.050423320881812"><ele>295.0</ele><time>2026-03-29T07:58:44Z</time></trkpt><trkpt lat="40.3549122563384" lon="15.05042476349924"><ele>295.0</ele><time>2026-03-29T07:58:45Z</time></trkpt><trkpt lat="40.35481943451235" lon="15.050458591558627"><ele>295.0</ele><time>2026-03-29T07:58:46Z</time></trkpt><trkpt lat="40.35472964189288" lon="15.0505151409425"><ele>295.0</ele><time>2026-03-29T07:58:47Z</time></trkpt><trkpt lat="40.35465899808251" lon="15.050558960021364"><ele>295.0</ele><time>2026-03-29T07:58:48Z</time></trkpt><trkpt lat="40.35457557724476" lon="15.05057377534986"><ele>295.0</ele><time>2026-03-29T07:58:49Z</time></trkpt><trkpt lat="40.354485703226096" lon="15.050560344747767"><ele>295.0</ele><time>2026-03-29T07:58:50Z</time></trkpt><trkpt lat="40.35439716253665" lon="15.05050066593634"><ele>299.4</ele><time>2026-03-29T07:58:51Z</time></trkpt><trkpt lat="40.35430158466315" lon="15.050452023711857"><ele>303.8</ele><time>2026-03-29T07:58:52Z</time></trkpt><trkpt lat="40.35420476151406" lon="15.050409581343544"><ele>308.2</ele><time>2026-03-29T07:58:53Z</time></trkpt><trkpt lat="40.35410555849763" lon="15.05035691548252"><ele>312.6</ele><time>2026-03-29T07:58:54Z</time></trkpt><trkpt lat="40.35398784397795" lon="15.050304838159663"><ele>317.0</ele><time>2026-03-29T07:58:55Z</time></trkpt><trkpt lat="40.35388926143273" lon="15.050253101632354"><ele>321.0</ele><time>2026-03-29T07:58:56Z</time></trkpt><trkpt lat="40.35379988141588" lon="15.050247574855167"><ele>325.0</ele><time>2026-03-29T07:58:57Z</time></trkpt><trkpt lat="40.35370610338685" lon="15.050285484850674"><ele>329.0</ele><time>2026-03-29T07:58:58Z</time></trkpt><trkpt lat="40.3536000239221" lon="15.050317385961648"><ele>333.0</ele><time>2026-03-29T07:58:59Z</time></trkpt><trkpt lat="40.35347601629046" lon="15.050352497632376"><ele>337.0</ele><time>2026-03-29T07:59:00Z</time></trkpt><trkpt lat="40.353336818230915" lon="15.050395469043321"><ele>337.0</ele><time>2026-03-29T07:59:01Z</time></trkpt><trkpt lat="40.353197658799935" lon="15.050441041359507"><ele>337.0</ele><time>2026-03-29T07:59:01.999Z</time></trkpt><trkpt lat="40.35304991355808" lon="15.05048747378351"><ele>337.0</ele><time>2026-03-29T07:59:02.999Z</time></trkpt><trkpt lat="40.35290855832415" lon="15.050503443691971"><ele>337.0</ele><time>2026-03-29T07:59:03.999Z</time></trkpt><trkpt lat="40.35276154242825" lon="15.050546197294688"><ele>342.0</ele><time>2026-03-29T07:59:04.999Z</time></trkpt><trkpt lat="40.35261370406775" lon="15.050556237145324"><ele>347.0</ele><time>2026-03-29T07:59:05.999Z</time></trkpt><trkpt lat="40.352462241129764" lon="15.050571154966724"><ele>352.0</ele><time>2026-03-29T07:59:06.999Z</time></trkpt><trkpt lat="40.35230743667267" lon="15.050598995327938"><ele>354.5</ele><time>2026-03-29T07:59:07.999Z</time></trkpt><trkpt lat="40.35216989566227" lon="15.050610500343842"><ele>357.0</ele><time>2026-03-29T07:59:08.999Z</time></trkpt><trkpt lat="40.352037209782644" lon="15.050632775559416"><ele>359.5</ele><time>2026-03-29T07:59:09.999Z</time></trkpt><trkpt lat="40.35192260073227" lon="15.050659375821395"><ele>362.0</ele><time>2026-03-29T07:59:10.999Z</time></trkpt><trkpt lat="40.351830405429524" lon="15.050659241092907"><ele>362.0</ele><time>2026-03-29T07:59:11.999Z</time></trkpt><trkpt lat="40.351769315320425" lon="15.050708379555834"><ele>362.0</ele><time>2026-03-29T07:59:12.999Z</time></trkpt><trkpt lat="40.35170287984664" lon="15.05078135366227"><ele>362.0</ele><time>2026-03-29T07:59:14.999Z</time></trkpt><trkpt lat="40.35160863634721" lon="15.050713465400051"><ele>362.0</ele><time>2026-03-29T07:59:19.999Z</time></trkpt><trkpt lat="40.35170103654063" lon="15.050676177498968"><ele>362.0</ele><time>2026-03-29T07:59:21.999Z</time></trkpt><trkpt lat="40.35178371596309" lon="15.050582707290271"><ele>362.0</ele><time>2026-03-29T07:59:23.999Z</time></trkpt><trkpt lat="40.35186435671235" lon="15.050454071904594"><ele>362.0</ele><time>2026-03-29T07:59:26Z</time></trkpt><trkpt lat="40.351924668348055" lon="15.05037617324934"><ele>362.0</ele><time>2026-03-29T07:59:27Z</time></trkpt><trkpt lat="40.351986851333315" lon="15.05030479633161"><ele>362.0</ele><time>2026-03-29T07:59:28Z</time></trkpt><trkpt lat="40.35204202803706" lon="15.050237018779754"><ele>362.0</ele><time>2026-03-29T07:59:29Z</time></trkpt><trkpt lat="40.35210194914718" lon="15.050109397733694"><ele>362.0</ele><time>2026-03-29T07:59:31Z</time></trkpt><trkpt lat="40.35207660239096" lon="15.05001617102931"><ele>362.0</ele><time>2026-03-29T07:59:32Z</time></trkpt><trkpt lat="40.35200165645254" lon="15.049957980308301"><ele>362.0</ele><time>2026-03-29T07:59:33Z</time></trkpt><trkpt lat="40.351921263628924" lon="15.049996789750889"><ele>362.0</ele><time>2026-03-29T07:59:34Z</time></trkpt><trkpt lat="40.35183409111945" lon="15.050074317179988"><ele>362.0</ele><time>2026-03-29T07:59:36Z</time></trkpt><trkpt lat="40.351768407873244" lon="15.050109871419828"><ele>362.0</ele><time>2026-03-29T07:59:37Z</time></trkpt><trkpt lat="40.351641700781414" lon="15.050162019239544"><ele>362.0</ele><time>2026-03-29T07:59:39Z</time></trkpt><trkpt lat="40.35157843410596" lon="15.050158456808726"><ele>362.0</ele><time>2026-03-29T07:59:40Z</time></trkpt><trkpt lat="40.35149512542593" lon="15.050052943297429"><ele>362.0</ele><time>2026-03-29T07:59:42Z</time></trkpt><trkpt lat="40.35156278362492" lon="15.049916352955043"><ele>362.0</ele><time>2026-03-29T07:59:44Z</time></trkpt><trkpt lat="40.35161152302376" lon="15.049845925468142"><ele>362.0</ele><time>2026-03-29T07:59:45Z</time></trkpt><trkpt lat="40.35167005825218" lon="15.049764619947211"><ele>364.40000000000003</ele><time>2026-03-29T07:59:46Z</time></trkpt><trkpt lat="40.35172792601529" lon="15.04965355804747"><ele>366.8</ele><time>2026-03-29T07:59:47Z</time></trkpt><trkpt lat="40.351746747880796" lon="15.049522988323865"><ele>369.2</ele><time>2026-03-29T07:59:48Z</time></trkpt><trkpt lat="40.35179278566891" lon="15.049402260149336"><ele>371.6</ele><time>2026-03-29T07:59:49Z</time></trkpt><trkpt lat="40.35182872614221" lon="15.04926764564653"><ele>374.0</ele><time>2026-03-29T07:59:50Z</time></trkpt><trkpt lat="40.35185711258176" lon="15.049161296908425"><ele>372.5</ele><time>2026-03-29T07:59:51Z</time></trkpt><trkpt lat="40.35187579789174" lon="15.049055872316785"><ele>371.0</ele><time>2026-03-29T07:59:52Z</time></trkpt><trkpt lat="40.351907579653485" lon="15.048937736666138"><ele>369.5</ele><time>2026-03-29T07:59:53Z</time></trkpt><trkpt lat="40.3519443038564" lon="15.048817403589117"><ele>368.0</ele><time>2026-03-29T07:59:54Z</time></trkpt><trkpt lat="40.35197152062625" lon="15.048717902676296"><ele>366.5</ele><time>2026-03-29T07:59:55Z</time></trkpt><trkpt lat="40.35200235123746" lon="15.0486190239773"><ele>365.0</ele><time>2026-03-29T07:59:56Z</time></trkpt><trkpt lat="40.35203751878144" lon="15.048503285304115"><ele>365.0</ele><time>2026-03-29T07:59:57Z</time></trkpt><trkpt lat="40.35207165022403" lon="15.048399868037745"><ele>365.0</ele><time>2026-03-29T07:59:58Z</time></trkpt><trkpt lat="40.35211056932115" lon="15.048294003349735"><ele>365.0</ele><time>2026-03-29T07:59:59Z</time></trkpt><trkpt lat="40.35214276964503" lon="15.048200899447753"><ele>365.0</ele><time>2026-03-29T08:00:00Z</time></trkpt><trkpt lat="40.35217916898696" lon="15.048102850345806"><ele>365.0</ele><time>2026-03-29T08:00:01Z</time></trkpt><trkpt lat="40.35221660781057" lon="15.04800181046954"><ele>365.0</ele><time>2026-03-29T08:00:02Z</time></trkpt><trkpt lat="40.352249405483875" lon="15.047904995328711"><ele>366.5</ele><time>2026-03-29T08:00:03Z</time></trkpt><trkpt lat="40.35226734034304" lon="15.04780563551315"><ele>368.0</ele><time>2026-03-29T08:00:04Z</time></trkpt><trkpt lat="40.35227819547127" lon="15.04770483423944"><ele>369.5</ele><time>2026-03-29T08:00:05Z</time></trkpt><trkpt lat="40.35228892731404" lon="15.047610830053236"><ele>371.0</ele><time>2026-03-29T08:00:06Z</time></trkpt><trkpt lat="40.35229234509427" lon="15.047519046188246"><ele>372.5</ele><time>2026-03-29T08:00:07Z</time></trkpt><trkpt lat="40.3522993989339" lon="15.047420218821959"><ele>374.0</ele><time>2026-03-29T08:00:08Z</time></trkpt><trkpt lat="40.35231159565949" lon="15.047302883468666"><ele>374.0</ele><time>2026-03-29T08:00:09Z</time></trkpt><trkpt lat="40.35233384303289" lon="15.047194463178661"><ele>374.0</ele><time>2026-03-29T08:00:10Z</time></trkpt><trkpt lat="40.35234418238864" lon="15.047088595589683"><ele>374.0</ele><time>2026-03-29T08:00:11Z</time></trkpt><trkpt lat="40.35235885680912" lon="15.046987707458127"><ele>374.0</ele><time>2026-03-29T08:00:12Z</time></trkpt><trkpt lat="40.352372087369666" lon="15.046888967262586"><ele>374.0</ele><time>2026-03-29T08:00:13Z</time></trkpt><trkpt lat="40.352382015166455" lon="15.04680514444524"><ele>374.0</ele><time>2026-03-29T08:00:14Z</time></trkpt><trkpt lat="40.352394627078624" lon="15.04671321265453"><ele>374.0</ele><time>2026-03-29T08:00:15Z</time></trkpt><trkpt lat="40.352412220800204" lon="15.046610486154801"><ele>374.0</ele><time>2026-03-29T08:00:16Z</time></trkpt><trkpt lat="40.35243829321967" lon="15.04652753926383"><ele>374.0</ele><time>2026-03-29T08:00:17Z</time></trkpt><trkpt lat="40.352450365121165" lon="15.046436275939085"><ele>374.0</ele><time>2026-03-29T08:00:18Z</time></trkpt><trkpt lat="40.35246801594952" lon="15.04635342896564"><ele>374.0</ele><time>2026-03-29T08:00:19Z</time></trkpt><trkpt lat="40.35248979191691" lon="15.04626781910162"><ele>374.0</ele><time>2026-03-29T08:00:20Z</time></trkpt><trkpt lat="40.35251022296646" lon="15.0461809259091"><ele>374.0</ele><time>2026-03-29T08:00:21Z</time></trkpt><trkpt lat="40.35252635498087" lon="15.046097741109127"><ele>374.0</ele><time>2026-03-29T08:00:22Z</time></trkpt><trkpt lat="40.3525440493686" lon="15.04600425216079"><ele>374.0</ele><time>2026-03-29T08:00:23Z</time></trkpt><trkpt lat="40.35254363858266" lon="15.045906418253958"><ele>374.0</ele><time>2026-03-29T08:00:24Z</time></trkpt><trkpt lat="40.352543131521195" lon="15.045807172487358"><ele>374.0</ele><time>2026-03-29T08:00:25Z</time></trkpt><trkpt lat="40.35253804952008" lon="15.045710920485858"><ele>374.0</ele><time>2026-03-29T08:00:26Z</time></trkpt><trkpt lat="40.35253351436059" lon="15.045625906737206"><ele>374.0</ele><time>2026-03-29T08:00:27Z</time></trkpt><trkpt lat="40.352526476628356" lon="15.04553339033903"><ele>374.0</ele><time>2026-03-29T08:00:28Z</time></trkpt><trkpt lat="40.352524648451066" lon="15.045433246299158"><ele>373.6666666666667</ele><time>2026-03-29T08:00:29Z</time></trkpt><trkpt lat="40.35252948780629" lon="15.045342196263515"><ele>373.33333333333337</ele><time>2026-03-29T08:00:30Z</time></trkpt><trkpt lat="40.35252850228517" lon="15.045257591587287"><ele>373.0</ele><time>2026-03-29T08:00:31Z</time></trkpt><trkpt lat="40.35253339870498" lon="15.045174038475565"><ele>372.6666666666667</ele><time>2026-03-29T08:00:32Z</time></trkpt><trkpt lat="40.352531378146374" lon="15.04503085353457"><ele>372.3333333333333</ele><time>2026-03-29T08:00:34Z</time></trkpt><trkpt lat="40.35251875681802" lon="15.044897347352284"><ele>372.0</ele><time>2026-03-29T08:00:36Z</time></trkpt><trkpt lat="40.352492516311365" lon="15.044759282084032"><ele>371.6666666666667</ele><time>2026-03-29T08:00:38Z</time></trkpt><trkpt lat="40.35245706773949" lon="15.044636859319901"><ele>371.3333333333333</ele><time>2026-03-29T08:00:40Z</time></trkpt><trkpt lat="40.35243246082259" lon="15.044548214966436"><ele>371.0</ele><time>2026-03-29T08:00:43Z</time></trkpt><trkpt lat="40.35235650077738" lon="15.044493671455186"><ele>370.66666666666663</ele><time>2026-03-29T08:05:26Z</time></trkpt><trkpt lat="40.35231056886818" lon="15.044405556034885"><ele>370.3333333333333</ele><time>2026-03-29T08:05:29Z</time></trkpt><trkpt lat="40.352282467793124" lon="15.04430790661537"><ele>370.0</ele><time>2026-03-29T08:05:32Z</time></trkpt><trkpt lat="40.352262937781155" lon="15.044197322830312"><ele>369.4</ele><time>2026-03-29T08:05:35Z</time></trkpt><trkpt lat="40.352237193084385" lon="15.04408315648878"><ele>368.8</ele><time>2026-03-29T08:05:37Z</time></trkpt><trkpt lat="40.35220785752574" lon="15.043969062301587"><ele>368.20000000000005</ele><time>2026-03-29T08:05:39Z</time></trkpt><trkpt lat="40.352193389480284" lon="15.043855924383612"><ele>367.6</ele><time>2026-03-29T08:05:41Z</time></trkpt><trkpt lat="40.352211066154716" lon="15.043714856099355"><ele>367.0</ele><time>2026-03-29T08:05:43Z</time></trkpt><trkpt lat="40.35221232537384" lon="15.043621186536003"><ele>367.0</ele><time>2026-03-29T08:05:44Z</time></trkpt><trkpt lat="40.35224058089104" lon="15.043539334791532"><ele>367.0</ele><time>2026-03-29T08:05:45Z</time></trkpt><trkpt lat="40.352253765697256" lon="15.043437018780097"><ele>367.0</ele><time>2026-03-29T08:05:46Z</time></trkpt><trkpt lat="40.35225893941625" lon="15.043353116750149"><ele>367.0</ele><time>2026-03-29T08:05:47Z</time></trkpt><trkpt lat="40.35226226102159" lon="15.043261620955649"><ele>367.0</ele><time>2026-03-29T08:05:48Z</time></trkpt><trkpt lat="40.352257634246044" lon="15.043103538058904"><ele>367.0</ele><time>2026-03-29T08:05:50Z</time></trkpt><trkpt lat="40.35224465935604" lon="15.042962581758198"><ele>364.6</ele><time>2026-03-29T08:05:52Z</time></trkpt><trkpt lat="40.35224204247875" lon="15.042806689676206"><ele>362.20000000000005</ele><time>2026-03-29T08:05:54Z</time></trkpt><trkpt lat="40.35232819726515" lon="15.04267852534921"><ele>359.8</ele><time>2026-03-29T08:05:56Z</time></trkpt><trkpt lat="40.35239123725152" lon="15.042676184384465"><ele>357.4</ele><time>2026-03-29T08:05:57Z</time></trkpt><trkpt lat="40.35246004807429" lon="15.042651809163049"><ele>355.0</ele><time>2026-03-29T08:05:58Z</time></trkpt><trkpt lat="40.352532615409565" lon="15.042622848867481"><ele>355.0</ele><time>2026-03-29T08:05:59Z</time></trkpt><trkpt lat="40.35260353347244" lon="15.042589050257279"><ele>355.0</ele><time>2026-03-29T08:06:00Z</time></trkpt><trkpt lat="40.35267671425323" lon="15.042551526224662"><ele>355.0</ele><time>2026-03-29T08:06:01Z</time></trkpt><trkpt lat="40.352745533976034" lon="15.042516238525831"><ele>355.0</ele><time>2026-03-29T08:06:02Z</time></trkpt><trkpt lat="40.35281199501326" lon="15.042433161868594"><ele>355.0</ele><time>2026-03-29T08:06:03Z</time></trkpt><trkpt lat="40.35287575992174" lon="15.04238868920258"><ele>355.0</ele><time>2026-03-29T08:06:04Z</time></trkpt><trkpt lat="40.35294728460332" lon="15.042348378585784"><ele>352.0</ele><time>2026-03-29T08:06:05Z</time></trkpt><trkpt lat="40.35301322455337" lon="15.0423208761827"><ele>349.0</ele><time>2026-03-29T08:06:06Z</time></trkpt><trkpt lat="40.353079704626126" lon="15.0422936256809"><ele>346.0</ele><time>2026-03-29T08:06:07Z</time></trkpt><trkpt lat="40.35318508143796" lon="15.042207062642982"><ele>343.0</ele><time>2026-03-29T08:06:09Z</time></trkpt><trkpt lat="40.353236861633086" lon="15.042140747136019"><ele>340.0</ele><time>2026-03-29T08:06:10Z</time></trkpt><trkpt lat="40.353283162278636" lon="15.042054965486178"><ele>337.0</ele><time>2026-03-29T08:06:12Z</time></trkpt><trkpt lat="40.353270512075255" lon="15.041971607347346"><ele>337.0</ele><time>2026-03-29T08:06:14Z</time></trkpt><trkpt lat="40.35338055166749" lon="15.041906923443529"><ele>337.0</ele><time>2026-03-29T08:06:16Z</time></trkpt><trkpt lat="40.35343344037842" lon="15.041851037154533"><ele>337.0</ele><time>2026-03-29T08:06:17Z</time></trkpt><trkpt lat="40.35349220256418" lon="15.04178811114454"><ele>337.0</ele><time>2026-03-29T08:06:18Z</time></trkpt><trkpt lat="40.353550038190214" lon="15.041724978845156"><ele>337.0</ele><time>2026-03-29T08:06:19Z</time></trkpt><trkpt lat="40.35360389778652" lon="15.041664201532436"><ele>337.0</ele><time>2026-03-29T08:06:20Z</time></trkpt><trkpt lat="40.35365393753372" lon="15.041607734673388"><ele>335.8333333333333</ele><time>2026-03-29T08:06:21Z</time></trkpt><trkpt lat="40.353695264478" lon="15.041532968957315"><ele>334.66666666666663</ele><time>2026-03-29T08:06:22Z</time></trkpt><trkpt lat="40.353765605572015" lon="15.041474730115475"><ele>333.5</ele><time>2026-03-29T08:06:23Z</time></trkpt><trkpt lat="40.3538301368296" lon="15.041400751489842"><ele>332.3333333333333</ele><time>2026-03-29T08:06:24Z</time></trkpt><trkpt lat="40.35389383612384" lon="15.041312534042827"><ele>331.1666666666667</ele><time>2026-03-29T08:06:25Z</time></trkpt><trkpt lat="40.353964872720994" lon="15.041232711517278"><ele>330.0</ele><time>2026-03-29T08:06:26Z</time></trkpt><trkpt lat="40.35403503518046" lon="15.041132016118892"><ele>330.0</ele><time>2026-03-29T08:06:27Z</time></trkpt><trkpt lat="40.35410400640471" lon="15.041040733500662"><ele>330.0</ele><time>2026-03-29T08:06:28Z</time></trkpt><trkpt lat="40.3541594719828" lon="15.040935827481354"><ele>330.0</ele><time>2026-03-29T08:06:29Z</time></trkpt><trkpt lat="40.35422091674885" lon="15.04081988809915"><ele>330.0</ele><time>2026-03-29T08:06:30Z</time></trkpt><trkpt lat="40.35427512606513" lon="15.040693465839148"><ele>330.0</ele><time>2026-03-29T08:06:31Z</time></trkpt><trkpt lat="40.35432208665814" lon="15.040566866925795"><ele>329.0</ele><time>2026-03-29T08:06:32Z</time></trkpt><trkpt lat="40.35436747117497" lon="15.04042620663318"><ele>328.0</ele><time>2026-03-29T08:06:33Z</time></trkpt><trkpt lat="40.35442116109785" lon="15.040291430312172"><ele>327.0</ele><time>2026-03-29T08:06:34Z</time></trkpt><trkpt lat="40.354469412909886" lon="15.040157811664663"><ele>326.0</ele><time>2026-03-29T08:06:35Z</time></trkpt><trkpt lat="40.354514548934674" lon="15.04002337624699"><ele>325.0</ele><time>2026-03-29T08:06:36Z</time></trkpt><trkpt lat="40.354561420625885" lon="15.039877832087052"><ele>324.0</ele><time>2026-03-29T08:06:37Z</time></trkpt><trkpt lat="40.35460592784565" lon="15.039734559477209"><ele>323.0</ele><time>2026-03-29T08:06:38Z</time></trkpt><trkpt lat="40.35464674830505" lon="15.039589471768874"><ele>322.0</ele><time>2026-03-29T08:06:39Z</time></trkpt><trkpt lat="40.35467701154375" lon="15.03944076485741"><ele>322.0</ele><time>2026-03-29T08:06:40Z</time></trkpt><trkpt lat="40.35469354033427" lon="15.03929055171107"><ele>322.0</ele><time>2026-03-29T08:06:41Z</time></trkpt><trkpt lat="40.35469939810545" lon="15.039128393502818"><ele>322.0</ele><time>2026-03-29T08:06:42Z</time></trkpt><trkpt lat="40.354701090186005" lon="15.038966827139504"><ele>322.0</ele><time>2026-03-29T08:06:43Z</time></trkpt><trkpt lat="40.35471071186511" lon="15.038797950891395"><ele>325.0</ele><time>2026-03-29T08:06:44Z</time></trkpt><trkpt lat="40.35471762900274" lon="15.038624212189166"><ele>328.0</ele><time>2026-03-29T08:06:45Z</time></trkpt><trkpt lat="40.354733796062604" lon="15.038473376945975"><ele>331.0</ele><time>2026-03-29T08:06:46Z</time></trkpt><trkpt lat="40.35474156640289" lon="15.03831848280889"><ele>334.0</ele><time>2026-03-29T08:06:47Z</time></trkpt><trkpt lat="40.354750538261435" lon="15.038160120585777"><ele>333.0</ele><time>2026-03-29T08:06:48Z</time></trkpt><trkpt lat="40.35476563551595" lon="15.037984442737104"><ele>332.0</ele><time>2026-03-29T08:06:49Z</time></trkpt><trkpt lat="40.35475970400192" lon="15.037810725627242"><ele>331.0</ele><time>2026-03-29T08:06:50Z</time></trkpt><trkpt lat="40.354733696958064" lon="15.037636717093347"><ele>330.0</ele><time>2026-03-29T08:06:51Z</time></trkpt><trkpt lat="40.354688933817705" lon="15.037467839367524"><ele>330.0</ele><time>2026-03-29T08:06:52Z</time></trkpt><trkpt lat="40.35462746251873" lon="15.037297004765124"><ele>330.0</ele><time>2026-03-29T08:06:53Z</time></trkpt><trkpt lat="40.35456579127543" lon="15.03713990187647"><ele>330.0</ele><time>2026-03-29T08:06:54Z</time></trkpt><trkpt lat="40.35449762040602" lon="15.036986136559843"><ele>330.0</ele><time>2026-03-29T08:06:55Z</time></trkpt><trkpt lat="40.3544333937079" lon="15.036833314184399"><ele>330.0</ele><time>2026-03-29T08:06:56Z</time></trkpt><trkpt lat="40.35437447006382" lon="15.036690546585723"><ele>330.0</ele><time>2026-03-29T08:06:57Z</time></trkpt><trkpt lat="40.35430307852316" lon="15.036569277521826"><ele>330.0</ele><time>2026-03-29T08:06:58Z</time></trkpt><trkpt lat="40.35420802695626" lon="15.036479208070077"><ele>330.0</ele><time>2026-03-29T08:06:59Z</time></trkpt><trkpt lat="40.35409258736343" lon="15.036413582390848"><ele>328.5</ele><time>2026-03-29T08:07:00Z</time></trkpt><trkpt lat="40.353966381286945" lon="15.036347913353135"><ele>327.0</ele><time>2026-03-29T08:07:01Z</time></trkpt><trkpt lat="40.35383441139073" lon="15.036265587597203"><ele>325.5</ele><time>2026-03-29T08:07:02Z</time></trkpt><trkpt lat="40.3537082836998" lon="15.036154493607246"><ele>324.0</ele><time>2026-03-29T08:07:03Z</time></trkpt><trkpt lat="40.35359097508483" lon="15.03603095167772"><ele>324.0</ele><time>2026-03-29T08:07:04Z</time></trkpt><trkpt lat="40.35348066647472" lon="15.035901115886261"><ele>324.0</ele><time>2026-03-29T08:07:05Z</time></trkpt><trkpt lat="40.35336763870849" lon="15.035768371481941"><ele>324.0</ele><time>2026-03-29T08:07:06Z</time></trkpt><trkpt lat="40.35323998604708" lon="15.035641549472334"><ele>323.6666666666667</ele><time>2026-03-29T08:07:07Z</time></trkpt><trkpt lat="40.35310428197563" lon="15.035535248218379"><ele>323.33333333333337</ele><time>2026-03-29T08:07:08Z</time></trkpt><trkpt lat="40.352980737448576" lon="15.03540931863852"><ele>323.0</ele><time>2026-03-29T08:07:09Z</time></trkpt><trkpt lat="40.35285429776281" lon="15.03529109737001"><ele>323.0</ele><time>2026-03-29T08:07:10Z</time></trkpt><trkpt lat="40.35272810445394" lon="15.035187723407759"><ele>323.0</ele><time>2026-03-29T08:07:11Z</time></trkpt><trkpt lat="40.352601664518026" lon="15.035083554333713"><ele>323.0</ele><time>2026-03-29T08:07:12Z</time></trkpt><trkpt lat="40.3524693745423" lon="15.035005485864898"><ele>323.0</ele><time>2026-03-29T08:07:13Z</time></trkpt><trkpt lat="40.352361532452534" lon="15.03491242284849"><ele>325.75</ele><time>2026-03-29T08:07:14Z</time></trkpt><trkpt lat="40.35225954734584" lon="15.034821641682093"><ele>328.5</ele><time>2026-03-29T08:07:15Z</time></trkpt><trkpt lat="40.35216921170459" lon="15.034709733900183"><ele>331.25</ele><time>2026-03-29T08:07:16Z</time></trkpt><trkpt lat="40.35208999177583" lon="15.034588192814766"><ele>334.0</ele><time>2026-03-29T08:07:17Z</time></trkpt><trkpt lat="40.3520295171055" lon="15.034439430189675"><ele>327.0</ele><time>2026-03-29T08:07:18Z</time></trkpt><trkpt lat="40.35197375029855" lon="15.034282830320336"><ele>320.0</ele><time>2026-03-29T08:07:19Z</time></trkpt><trkpt lat="40.35192510647647" lon="15.034135880836248"><ele>313.0</ele><time>2026-03-29T08:07:19.999Z</time></trkpt><trkpt lat="40.3518762078165" lon="15.034012311247887"><ele>306.0</ele><time>2026-03-29T08:07:20.999Z</time></trkpt><trkpt lat="40.351859499805705" lon="15.033896596932582"><ele>305.40000000000003</ele><time>2026-03-29T08:07:21.999Z</time></trkpt><trkpt lat="40.35187605723337" lon="15.033793607349347"><ele>304.8</ele><time>2026-03-29T08:07:22.999Z</time></trkpt><trkpt lat="40.35192831210476" lon="15.03368762244109"><ele>304.20000000000005</ele><time>2026-03-29T08:07:23.999Z</time></trkpt><trkpt lat="40.35199903732289" lon="15.0335836283973"><ele>303.6</ele><time>2026-03-29T08:07:24.999Z</time></trkpt><trkpt lat="40.352083424041474" lon="15.033465097923012"><ele>303.0</ele><time>2026-03-29T08:07:25.999Z</time></trkpt><trkpt lat="40.35216564989448" lon="15.033326934411091"><ele>305.0</ele><time>2026-03-29T08:07:26.999Z</time></trkpt><trkpt lat="40.35223459051022" lon="15.033187201292119"><ele>307.0</ele><time>2026-03-29T08:07:27.999Z</time></trkpt><trkpt lat="40.35227673070022" lon="15.033029214933771"><ele>309.0</ele><time>2026-03-29T08:07:28.999Z</time></trkpt><trkpt lat="40.35229325567035" lon="15.032862598126018"><ele>311.0</ele><time>2026-03-29T08:07:29.999Z</time></trkpt><trkpt lat="40.3522906059392" lon="15.032697555728758"><ele>311.0</ele><time>2026-03-29T08:07:30.999Z</time></trkpt><trkpt lat="40.352275980392875" lon="15.032538968593466"><ele>311.0</ele><time>2026-03-29T08:07:31.999Z</time></trkpt><trkpt lat="40.3522410615742" lon="15.032395739321922"><ele>311.0</ele><time>2026-03-29T08:07:32.999Z</time></trkpt><trkpt lat="40.35221201158619" lon="15.032250504713222"><ele>311.0</ele><time>2026-03-29T08:07:33.999Z</time></trkpt><trkpt lat="40.35220700901322" lon="15.032117171714377"><ele>309.33333333333337</ele><time>2026-03-29T08:07:34.999Z</time></trkpt><trkpt lat="40.35222370079362" lon="15.031982545867557"><ele>307.6666666666667</ele><time>2026-03-29T08:07:35.999Z</time></trkpt><trkpt lat="40.35226358779769" lon="15.031875418378853"><ele>306.0</ele><time>2026-03-29T08:07:36.999Z</time></trkpt><trkpt lat="40.35231476970414" lon="15.03179423946476"><ele>304.3333333333333</ele><time>2026-03-29T08:07:37.999Z</time></trkpt><trkpt lat="40.35238458816118" lon="15.031772647329975"><ele>302.66666666666663</ele><time>2026-03-29T08:07:38.999Z</time></trkpt><trkpt lat="40.35246750353927" lon="15.031777922939604"><ele>301.0</ele><time>2026-03-29T08:07:39.999Z</time></trkpt><trkpt lat="40.35254147795147" lon="15.0318341104683"><ele>301.0</ele><time>2026-03-29T08:07:40.999Z</time></trkpt><trkpt lat="40.352635040065714" lon="15.031863029951388"><ele>301.0</ele><time>2026-03-29T08:07:41.999Z</time></trkpt><trkpt lat="40.352704106255985" lon="15.03198505026664"><ele>301.0</ele><time>2026-03-29T08:07:42.999Z</time></trkpt><trkpt lat="40.352804375310185" lon="15.032090347152836"><ele>301.0</ele><time>2026-03-29T08:07:43.999Z</time></trkpt><trkpt lat="40.35290982526872" lon="15.032201030116113"><ele>301.0</ele><time>2026-03-29T08:07:44.999Z</time></trkpt><trkpt lat="40.35303178414704" lon="15.032303789515282"><ele>301.0</ele><time>2026-03-29T08:07:45.999Z</time></trkpt><trkpt lat="40.35313519973709" lon="15.032424647743245"><ele>301.0</ele><time>2026-03-29T08:07:46.999Z</time></trkpt><trkpt lat="40.35323962210859" lon="15.03256609582285"><ele>301.0</ele><time>2026-03-29T08:07:47.999Z</time></trkpt><trkpt lat="40.35333296118999" lon="15.032700717751771"><ele>300.75</ele><time>2026-03-29T08:07:48.999Z</time></trkpt><trkpt lat="40.353434145430796" lon="15.032836687570487"><ele>300.5</ele><time>2026-03-29T08:07:49.999Z</time></trkpt><trkpt lat="40.353568397655714" lon="15.032936070141371"><ele>300.25</ele><time>2026-03-29T08:07:50.999Z</time></trkpt><trkpt lat="40.35368666018357" lon="15.03301969173312"><ele>300.0</ele><time>2026-03-29T08:07:51.999Z</time></trkpt><trkpt lat="40.35380611602783" lon="15.033084346076187"><ele>300.2</ele><time>2026-03-29T08:07:52.999Z</time></trkpt><trkpt lat="40.353904398242626" lon="15.033170458967891"><ele>300.4</ele><time>2026-03-29T08:07:53.999Z</time></trkpt><trkpt lat="40.35400210448448" lon="15.033232695876157"><ele>300.6</ele><time>2026-03-29T08:07:54.999Z</time></trkpt><trkpt lat="40.354083707898454" lon="15.033271917497057"><ele>300.8</ele><time>2026-03-29T08:07:55.999Z</time></trkpt><trkpt lat="40.354159169722" lon="15.033319460638625"><ele>301.0</ele><time>2026-03-29T08:07:56.999Z</time></trkpt><trkpt lat="40.354224074338354" lon="15.033359344587918"><ele>301.0</ele><time>2026-03-29T08:07:57.999Z</time></trkpt><trkpt lat="40.354308617983065" lon="15.033417670614389"><ele>301.0</ele><time>2026-03-29T08:07:59.999Z</time></trkpt><trkpt lat="40.354377592522916" lon="15.033452199124502"><ele>301.0</ele><time>2026-03-29T08:08:02.999Z</time></trkpt><trkpt lat="40.354298951931554" lon="15.0334214400405"><ele>301.0</ele><time>2026-03-29T08:08:13.999Z</time></trkpt><trkpt lat="40.35419513465749" lon="15.033355670073686"><ele>301.0</ele><time>2026-03-29T08:08:15.999Z</time></trkpt><trkpt lat="40.35401740064724" lon="15.03324042061761"><ele>300.8</ele><time>2026-03-29T08:08:17.999Z</time></trkpt><trkpt lat="40.353929600464326" lon="15.033135739903361"><ele>300.6</ele><time>2026-03-29T08:08:18.999Z</time></trkpt><trkpt lat="40.35383301372226" lon="15.03307891412251"><ele>300.4</ele><time>2026-03-29T08:08:19.999Z</time></trkpt><trkpt lat="40.353737632230334" lon="15.033011984593719"><ele>300.2</ele><time>2026-03-29T08:08:20.999Z</time></trkpt><trkpt lat="40.35363635976201" lon="15.03295522503673"><ele>300.0</ele><time>2026-03-29T08:08:21.999Z</time></trkpt><trkpt lat="40.35353843995589" lon="15.03289336154384"><ele>300.0</ele><time>2026-03-29T08:08:22.999Z</time></trkpt><trkpt lat="40.353441118970174" lon="15.032810869980064"><ele>300.0</ele><time>2026-03-29T08:08:23.999Z</time></trkpt><trkpt lat="40.3533551061865" lon="15.032697702788209"><ele>300.0</ele><time>2026-03-29T08:08:24.999Z</time></trkpt><trkpt lat="40.35327997664157" lon="15.032581131701539"><ele>300.0</ele><time>2026-03-29T08:08:25.999Z</time></trkpt><trkpt lat="40.353211563359" lon="15.032471241333466"><ele>300.25</ele><time>2026-03-29T08:08:26.999Z</time></trkpt><trkpt lat="40.35312492236347" lon="15.032367885214624"><ele>300.5</ele><time>2026-03-29T08:08:27.999Z</time></trkpt><trkpt lat="40.35302705453213" lon="15.032268412221148"><ele>300.75</ele><time>2026-03-29T08:08:28.999Z</time></trkpt><trkpt lat="40.35292460134882" lon="15.032168180536665"><ele>301.0</ele><time>2026-03-29T08:08:29.999Z</time></trkpt><trkpt lat="40.35282749998609" lon="15.032063694863643"><ele>301.0</ele><time>2026-03-29T08:08:30.999Z</time></trkpt><trkpt lat="40.35272956244176" lon="15.031954413089215"><ele>301.0</ele><time>2026-03-29T08:08:31.999Z</time></trkpt><trkpt lat="40.352645679085875" lon="15.03186368823219"><ele>301.0</ele><time>2026-03-29T08:08:32.999Z</time></trkpt><trkpt lat="40.352559513979244" lon="15.03179240507341"><ele>301.0</ele><time>2026-03-29T08:08:33.999Z</time></trkpt><trkpt lat="40.352474957866185" lon="15.031753233585363"><ele>301.0</ele><time>2026-03-29T08:08:34.999Z</time></trkpt><trkpt lat="40.35239283068974" lon="15.031734871725074"><ele>301.0</ele><time>2026-03-29T08:08:35.999Z</time></trkpt><trkpt lat="40.35229921147952" lon="15.031708985789678"><ele>301.0</ele><time>2026-03-29T08:08:37.999Z</time></trkpt><trkpt lat="40.35223705991934" lon="15.03152664113456"><ele>301.0</ele><time>2026-03-29T08:08:39.999Z</time></trkpt><trkpt lat="40.352208413315296" lon="15.031407451908409"><ele>301.0</ele><time>2026-03-29T08:08:40.999Z</time></trkpt><trkpt lat="40.35219997994341" lon="15.031284488254423"><ele>301.0</ele><time>2026-03-29T08:08:41.999Z</time></trkpt><trkpt lat="40.35218646741323" lon="15.031161897866403"><ele>295.75</ele><time>2026-03-29T08:08:42.999Z</time></trkpt><trkpt lat="40.35217597188069" lon="15.031032967924455"><ele>290.5</ele><time>2026-03-29T08:08:43.999Z</time></trkpt><trkpt lat="40.35218101825046" lon="15.030898175511492"><ele>285.25</ele><time>2026-03-29T08:08:44.999Z</time></trkpt><trkpt lat="40.35219174616323" lon="15.030739356652447"><ele>280.0</ele><time>2026-03-29T08:08:45.999Z</time></trkpt><trkpt lat="40.35220461137751" lon="15.030574276641774"><ele>279.75</ele><time>2026-03-29T08:08:46.999Z</time></trkpt><trkpt lat="40.35220554399943" lon="15.030395176782484"><ele>279.5</ele><time>2026-03-29T08:08:47.999Z</time></trkpt><trkpt lat="40.35224150744285" lon="15.03021997787358"><ele>279.25</ele><time>2026-03-29T08:08:48.999Z</time></trkpt><trkpt lat="40.35226655265896" lon="15.030049258813879"><ele>279.0</ele><time>2026-03-29T08:08:49.999Z</time></trkpt><trkpt lat="40.35229502142102" lon="15.02988107341364"><ele>280.4</ele><time>2026-03-29T08:08:50.999Z</time></trkpt><trkpt lat="40.35232411604759" lon="15.029727995979458"><ele>281.79999999999995</ele><time>2026-03-29T08:08:51.999Z</time></trkpt><trkpt lat="40.35235440459826" lon="15.029584345066471"><ele>283.20000000000005</ele><time>2026-03-29T08:08:52.999Z</time></trkpt><trkpt lat="40.352382723196826" lon="15.02946093127966"><ele>284.6</ele><time>2026-03-29T08:08:53.999Z</time></trkpt><trkpt lat="40.35240443707869" lon="15.029366301323716"><ele>286.0</ele><time>2026-03-29T08:08:54.999Z</time></trkpt><trkpt lat="40.3524242986951" lon="15.029286039556126"><ele>286.0</ele><time>2026-03-29T08:08:55.999Z</time></trkpt><trkpt lat="40.35243387384784" lon="15.029192197929946"><ele>286.0</ele><time>2026-03-29T08:08:57.999Z</time></trkpt><trkpt lat="40.35242079964201" lon="15.02929803213258"><ele>286.0</ele><time>2026-03-29T08:09:06.999Z</time></trkpt><trkpt lat="40.35239790396594" lon="15.029394772281425"><ele>286.0</ele><time>2026-03-29T08:09:08.999Z</time></trkpt><trkpt lat="40.35236533539775" lon="15.029536706958638"><ele>286.0</ele><time>2026-03-29T08:09:10.999Z</time></trkpt><trkpt lat="40.35234701529174" lon="15.029616545972766"><ele>286.0</ele><time>2026-03-29T08:09:11.999Z</time></trkpt><trkpt lat="40.35232691751855" lon="15.029704132630032"><ele>286.0</ele><time>2026-03-29T08:09:12.999Z</time></trkpt><trkpt lat="40.35230836265601" lon="15.029804463259106"><ele>286.0</ele><time>2026-03-29T08:09:13.999Z</time></trkpt><trkpt lat="40.35229046206748" lon="15.029902281795186"><ele>286.0</ele><time>2026-03-29T08:09:14.999Z</time></trkpt><trkpt lat="40.35227118718737" lon="15.030002103163323"><ele>286.0</ele><time>2026-03-29T08:09:15.999Z</time></trkpt><trkpt lat="40.35225971492505" lon="15.030085741455332"><ele>286.0</ele><time>2026-03-29T08:09:16.999Z</time></trkpt><trkpt lat="40.352242666687026" lon="15.03018456862608"><ele>286.0</ele><time>2026-03-29T08:09:17.999Z</time></trkpt><trkpt lat="40.35222970537136" lon="15.03028277035805"><ele>285.8333333333333</ele><time>2026-03-29T08:09:18.999Z</time></trkpt><trkpt lat="40.3522122264795" lon="15.030393539660206"><ele>285.66666666666663</ele><time>2026-03-29T08:09:19.999Z</time></trkpt><trkpt lat="40.35219013881095" lon="15.030475790815945"><ele>285.5</ele><time>2026-03-29T08:09:20.999Z</time></trkpt><trkpt lat="40.35217917464156" lon="15.030564905422251"><ele>285.3333333333333</ele><time>2026-03-29T08:09:21.999Z</time></trkpt><trkpt lat="40.35218666901382" lon="15.03065939012965"><ele>285.1666666666667</ele><time>2026-03-29T08:09:22.999Z</time></trkpt><trkpt lat="40.35218386918088" lon="15.030799838923237"><ele>285.0</ele><time>2026-03-29T08:09:24.999Z</time></trkpt><trkpt lat="40.3521703829796" lon="15.030946045008935"><ele>284.0</ele><time>2026-03-29T08:09:26.999Z</time></trkpt><trkpt lat="40.35216798822257" lon="15.031105926321828"><ele>283.0</ele><time>2026-03-29T08:09:28.999Z</time></trkpt><trkpt lat="40.35217771492695" lon="15.031243312148918"><ele>282.0</ele><time>2026-03-29T08:09:30.999Z</time></trkpt><trkpt lat="40.352184573094334" lon="15.031326922217483"><ele>281.0</ele><time>2026-03-29T08:09:32.999Z</time></trkpt><trkpt lat="40.3522072611767" lon="15.031449228344798"><ele>280.0</ele><time>2026-03-29T08:09:34.999Z</time></trkpt><trkpt lat="40.352239775072746" lon="15.031538035454323"><ele>282.75</ele><time>2026-03-29T08:09:35.999Z</time></trkpt><trkpt lat="40.352262376275455" lon="15.03161711969905"><ele>285.5</ele><time>2026-03-29T08:09:36.999Z</time></trkpt><trkpt lat="40.3522880767414" lon="15.031728923240063"><ele>288.25</ele><time>2026-03-29T08:09:38.999Z</time></trkpt><trkpt lat="40.35249380058265" lon="15.031583164409923"><ele>291.0</ele><time>2026-03-29T08:09:43.999Z</time></trkpt><trkpt lat="40.35254193120228" lon="15.031519599170378"><ele>291.0</ele><time>2026-03-29T08:09:44.999Z</time></trkpt><trkpt lat="40.35259735507777" lon="15.031458484556877"><ele>291.0</ele><time>2026-03-29T08:09:45.999Z</time></trkpt><trkpt lat="40.35265219883561" lon="15.03137697256227"><ele>291.0</ele><time>2026-03-29T08:09:46.999Z</time></trkpt><trkpt lat="40.35270871648363" lon="15.031297053803161"><ele>291.0</ele><time>2026-03-29T08:09:47.999Z</time></trkpt><trkpt lat="40.35277543014839" lon="15.031228358354157"><ele>291.0</ele><time>2026-03-29T08:09:48.999Z</time></trkpt><trkpt lat="40.35285102167892" lon="15.031170166761061"><ele>291.0</ele><time>2026-03-29T08:09:49.999Z</time></trkpt><trkpt lat="40.352937198636305" lon="15.031119500228627"><ele>291.0</ele><time>2026-03-29T08:09:50.999Z</time></trkpt><trkpt lat="40.35302329188844" lon="15.031075952689243"><ele>291.0</ele><time>2026-03-29T08:09:51.999Z</time></trkpt><trkpt lat="40.35311439037961" lon="15.031033247416874"><ele>291.0</ele><time>2026-03-29T08:09:52.999Z</time></trkpt><trkpt lat="40.35319459825372" lon="15.030970832208979"><ele>291.0</ele><time>2026-03-29T08:09:53.999Z</time></trkpt><trkpt lat="40.35327663879188" lon="15.03090140629026"><ele>291.0</ele><time>2026-03-29T08:09:54.999Z</time></trkpt><trkpt lat="40.35336196692354" lon="15.03082992308473"><ele>286.6</ele><time>2026-03-29T08:09:55.999Z</time></trkpt><trkpt lat="40.353447852528134" lon="15.03076755311045"><ele>282.20000000000005</ele><time>2026-03-29T08:09:56.999Z</time></trkpt><trkpt lat="40.353531544889236" lon="15.030694661700199"><ele>277.79999999999995</ele><time>2026-03-29T08:09:57.999Z</time></trkpt><trkpt lat="40.353613928659215" lon="15.03059966979642"><ele>273.4</ele><time>2026-03-29T08:09:58.999Z</time></trkpt><trkpt lat="40.35368119114588" lon="15.030487540384957"><ele>269.0</ele><time>2026-03-29T08:09:59.999Z</time></trkpt><trkpt lat="40.353754996005094" lon="15.03037442636806"><ele>269.0</ele><time>2026-03-29T08:10:00.999Z</time></trkpt><trkpt lat="40.35383302698555" lon="15.030262495869481"><ele>269.0</ele><time>2026-03-29T08:10:01.999Z</time></trkpt><trkpt lat="40.353902733456536" lon="15.030154229471446"><ele>269.0</ele><time>2026-03-29T08:10:02.999Z</time></trkpt><trkpt lat="40.35397395199691" lon="15.03006201466527"><ele>269.0</ele><time>2026-03-29T08:10:03.999Z</time></trkpt><trkpt lat="40.35403442860477" lon="15.029988175615285"><ele>269.0</ele><time>2026-03-29T08:10:04.999Z</time></trkpt><trkpt lat="40.354096336699506" lon="15.02989658404267"><ele>264.83333333333337</ele><time>2026-03-29T08:10:06.999Z</time></trkpt><trkpt lat="40.3540864564728" lon="15.029798584782943"><ele>260.6666666666667</ele><time>2026-03-29T08:10:11.999Z</time></trkpt><trkpt lat="40.35404545406093" lon="15.029660511618795"><ele>256.5</ele><time>2026-03-29T08:10:13.999Z</time></trkpt><trkpt lat="40.35402335529709" lon="15.029578141696607"><ele>252.33333333333331</ele><time>2026-03-29T08:10:14.999Z</time></trkpt><trkpt lat="40.35401944093687" lon="15.029475070292664"><ele>248.16666666666666</ele><time>2026-03-29T08:10:15.999Z</time></trkpt><trkpt lat="40.353983817100385" lon="15.029383937921413"><ele>244.0</ele><time>2026-03-29T08:10:16.999Z</time></trkpt><trkpt lat="40.35396516608197" lon="15.029293719157188"><ele>241.6</ele><time>2026-03-29T08:10:17.999Z</time></trkpt><trkpt lat="40.35393572915761" lon="15.02912518399486"><ele>239.2</ele><time>2026-03-29T08:10:19.999Z</time></trkpt><trkpt lat="40.353940550106685" lon="15.028979159141533"><ele>236.79999999999998</ele><time>2026-03-29T08:10:21.999Z</time></trkpt><trkpt lat="40.35397635982916" lon="15.028903097493512"><ele>234.39999999999998</ele><time>2026-03-29T08:10:22.999Z</time></trkpt><trkpt lat="40.35403296571646" lon="15.028832770612357"><ele>232.0</ele><time>2026-03-29T08:10:24Z</time></trkpt><trkpt lat="40.35409888656189" lon="15.028749307114433"><ele>231.99999999999997</ele><time>2026-03-29T08:10:25Z</time></trkpt><trkpt lat="40.35418035259425" lon="15.028698571612656"><ele>232.0</ele><time>2026-03-29T08:10:26Z</time></trkpt><trkpt lat="40.35424429292491" lon="15.028605449656206"><ele>232.0</ele><time>2026-03-29T08:10:27Z</time></trkpt><trkpt lat="40.35427116520518" lon="15.02849454275693"><ele>232.0</ele><time>2026-03-29T08:10:28Z</time></trkpt><trkpt lat="40.35428009196546" lon="15.028401012412118"><ele>231.99999999999997</ele><time>2026-03-29T08:10:29Z</time></trkpt><trkpt lat="40.354240975377216" lon="15.028315378474163"><ele>232.0</ele><time>2026-03-29T08:10:30Z</time></trkpt><trkpt lat="40.35415200261298" lon="15.028190546973411"><ele>229.49999999999997</ele><time>2026-03-29T08:10:32Z</time></trkpt><trkpt lat="40.35408880910751" lon="15.028142839105225"><ele>227.0</ele><time>2026-03-29T08:10:33Z</time></trkpt><trkpt lat="40.3540436997278" lon="15.02807937170865"><ele>224.5</ele><time>2026-03-29T08:10:34Z</time></trkpt><trkpt lat="40.35399278064465" lon="15.027966957029724"><ele>222.0</ele><time>2026-03-29T08:10:36Z</time></trkpt><trkpt lat="40.35400824738495" lon="15.027836253114184"><ele>219.49999999999997</ele><time>2026-03-29T08:10:38Z</time></trkpt><trkpt lat="40.354014979749614" lon="15.027720331525263"><ele>217.0</ele><time>2026-03-29T08:10:39Z</time></trkpt><trkpt lat="40.354054814866835" lon="15.02760031841015"><ele>217.0</ele><time>2026-03-29T08:10:40Z</time></trkpt><trkpt lat="40.35408444219244" lon="15.027482989258182"><ele>217.0</ele><time>2026-03-29T08:10:41Z</time></trkpt><trkpt lat="40.354106346946566" lon="15.02736862188833"><ele>217.0</ele><time>2026-03-29T08:10:42Z</time></trkpt><trkpt lat="40.3541056577393" lon="15.027241939124655"><ele>217.0</ele><time>2026-03-29T08:10:43Z</time></trkpt><trkpt lat="40.35408944659404" lon="15.027107915519741"><ele>217.0</ele><time>2026-03-29T08:10:44Z</time></trkpt><trkpt lat="40.35406407402015" lon="15.026971950858037"><ele>214.83333333333331</ele><time>2026-03-29T08:10:45Z</time></trkpt><trkpt lat="40.35403419054619" lon="15.026856451444534"><ele>212.66666666666666</ele><time>2026-03-29T08:10:46Z</time></trkpt><trkpt lat="40.35400475090339" lon="15.026769620335731"><ele>210.5</ele><time>2026-03-29T08:10:47Z</time></trkpt><trkpt lat="40.35397206989023" lon="15.026688403736152"><ele>208.33333333333331</ele><time>2026-03-29T08:10:48Z</time></trkpt><trkpt lat="40.353925226757184" lon="15.026610459999304"><ele>206.16666666666666</ele><time>2026-03-29T08:10:49Z</time></trkpt><trkpt lat="40.35385887924386" lon="15.026521914193545"><ele>204.0</ele><time>2026-03-29T08:10:50Z</time></trkpt><trkpt lat="40.353787751639665" lon="15.026443590296555"><ele>203.66666666666666</ele><time>2026-03-29T08:10:51Z</time></trkpt><trkpt lat="40.35372321622898" lon="15.026377447148864"><ele>203.33333333333331</ele><time>2026-03-29T08:10:52Z</time></trkpt><trkpt lat="40.35366979526048" lon="15.02632251829424"><ele>203.0</ele><time>2026-03-29T08:10:53Z</time></trkpt><trkpt lat="40.35361853997291" lon="15.026268697144111"><ele>202.66666666666666</ele><time>2026-03-29T08:10:54Z</time></trkpt><trkpt lat="40.35355536948949" lon="15.026198930761351"><ele>202.33333333333331</ele><time>2026-03-29T08:10:55Z</time></trkpt><trkpt lat="40.35348913819344" lon="15.026125783829388"><ele>202.0</ele><time>2026-03-29T08:10:56Z</time></trkpt><trkpt lat="40.353418867384676" lon="15.026049144647368"><ele>202.0</ele><time>2026-03-29T08:10:57Z</time></trkpt><trkpt lat="40.35334414269181" lon="15.025968160636262"><ele>202.0</ele><time>2026-03-29T08:10:58Z</time></trkpt><trkpt lat="40.353255474359536" lon="15.025900851771954"><ele>202.0</ele><time>2026-03-29T08:10:59Z</time></trkpt><trkpt lat="40.35317977132599" lon="15.025822045752124"><ele>202.0</ele><time>2026-03-29T08:11:00Z</time></trkpt><trkpt lat="40.3530971229332" lon="15.025741653181283"><ele>202.0</ele><time>2026-03-29T08:11:01Z</time></trkpt><trkpt lat="40.353015283802506" lon="15.025659575647254"><ele>200.16666666666666</ele><time>2026-03-29T08:11:02Z</time></trkpt><trkpt lat="40.35293643835786" lon="15.025594879991065"><ele>198.33333333333331</ele><time>2026-03-29T08:11:03Z</time></trkpt><trkpt lat="40.352860364653694" lon="15.025517650811187"><ele>196.5</ele><time>2026-03-29T08:11:04Z</time></trkpt><trkpt lat="40.352789583033804" lon="15.025439592775497"><ele>194.66666666666666</ele><time>2026-03-29T08:11:05Z</time></trkpt><trkpt lat="40.35272873891127" lon="15.025369943932546"><ele>192.83333333333331</ele><time>2026-03-29T08:11:06Z</time></trkpt><trkpt lat="40.3526677167956" lon="15.025303394339472"><ele>191.0</ele><time>2026-03-29T08:11:07Z</time></trkpt><trkpt lat="40.35261156955776" lon="15.025240928853064"><ele>191.0</ele><time>2026-03-29T08:11:08Z</time></trkpt><trkpt lat="40.35253626501317" lon="15.025140030832043"><ele>191.0</ele><time>2026-03-29T08:11:10Z</time></trkpt><trkpt lat="40.352500781981256" lon="15.025031750811692"><ele>191.0</ele><time>2026-03-29T08:11:12Z</time></trkpt><trkpt lat="40.35251108105676" lon="15.024860680366368"><ele>191.0</ele><time>2026-03-29T08:11:14Z</time></trkpt><trkpt lat="40.352522174606065" lon="15.02476019509717"><ele>191.0</ele><time>2026-03-29T08:11:15Z</time></trkpt><trkpt lat="40.352531591794694" lon="15.024646765815008"><ele>188.16666666666666</ele><time>2026-03-29T08:11:16Z</time></trkpt><trkpt lat="40.35253348888059" lon="15.024542966366674"><ele>185.33333333333331</ele><time>2026-03-29T08:11:17Z</time></trkpt><trkpt lat="40.35253621043036" lon="15.0244454101286"><ele>182.5</ele><time>2026-03-29T08:11:18Z</time></trkpt><trkpt lat="40.35251708764434" lon="15.024360542663986"><ele>179.66666666666666</ele><time>2026-03-29T08:11:19Z</time></trkpt><trkpt lat="40.35249988445862" lon="15.024202433420548"><ele>176.83333333333334</ele><time>2026-03-29T08:11:21Z</time></trkpt><trkpt lat="40.35249613196118" lon="15.024103463183545"><ele>174.0</ele><time>2026-03-29T08:11:22Z</time></trkpt><trkpt lat="40.35248641560018" lon="15.024009019075164"><ele>171.5</ele><time>2026-03-29T08:11:23Z</time></trkpt><trkpt lat="40.352484922380874" lon="15.02390189865603"><ele>169.0</ele><time>2026-03-29T08:11:24Z</time></trkpt><trkpt lat="40.35248162079293" lon="15.023791442859515"><ele>166.5</ele><time>2026-03-29T08:11:25Z</time></trkpt><trkpt lat="40.35248880232955" lon="15.023694661726028"><ele>164.0</ele><time>2026-03-29T08:11:26Z</time></trkpt><trkpt lat="40.35250165696087" lon="15.023605552072747"><ele>161.5</ele><time>2026-03-29T08:11:27Z</time></trkpt><trkpt lat="40.35250726436646" lon="15.02345503144793"><ele>159.0</ele><time>2026-03-29T08:11:29Z</time></trkpt><trkpt lat="40.35247217745648" lon="15.023325511626105"><ele>158.2</ele><time>2026-03-29T08:11:31Z</time></trkpt><trkpt lat="40.35240553639643" lon="15.023233204090378"><ele>157.4</ele><time>2026-03-29T08:11:33Z</time></trkpt><trkpt lat="40.352341809816195" lon="15.023162188827671"><ele>156.6</ele><time>2026-03-29T08:11:35Z</time></trkpt><trkpt lat="40.352265256280035" lon="15.023082265864117"><ele>155.8</ele><time>2026-03-29T08:11:37Z</time></trkpt><trkpt lat="40.352196842429585" lon="15.022985182854427"><ele>155.0</ele><time>2026-03-29T08:11:39Z</time></trkpt><trkpt lat="40.352145712321615" lon="15.02289934611476"><ele>155.0</ele><time>2026-03-29T08:11:42Z</time></trkpt><trkpt lat="40.35210629021115" lon="15.02282980491778"><ele>155.0</ele><time>2026-03-29T08:11:46Z</time></trkpt><trkpt lat="40.35207153441839" lon="15.022759312927574"><ele>155.0</ele><time>2026-03-29T08:11:55Z</time></trkpt><trkpt lat="40.35209436536078" lon="15.02267788468511"><ele>155.0</ele><time>2026-03-29T08:12:14Z</time></trkpt><trkpt lat="40.352138520855284" lon="15.022612849697147"><ele>155.0</ele><time>2026-03-29T08:29:22Z</time></trkpt><trkpt lat="40.35217918946014" lon="15.022528057547815"><ele>155.0</ele><time>2026-03-29T08:29:24Z</time></trkpt><trkpt lat="40.35223576870021" lon="15.022453700208537"><ele>155.0</ele><time>2026-03-29T08:29:26Z</time></trkpt><trkpt lat="40.352276984811226" lon="15.02236105304012"><ele>150.33333333333331</ele><time>2026-03-29T08:29:28Z</time></trkpt><trkpt lat="40.352327007127386" lon="15.022287116790137"><ele>145.66666666666666</ele><time>2026-03-29T08:29:30Z</time></trkpt><trkpt lat="40.35237578374258" lon="15.0222049575001"><ele>141.0</ele><time>2026-03-29T08:29:32Z</time></trkpt><trkpt lat="40.35241825528871" lon="15.022122278825176"><ele>136.33333333333334</ele><time>2026-03-29T08:29:34Z</time></trkpt><trkpt lat="40.35245984840309" lon="15.022026852447961"><ele>131.66666666666669</ele><time>2026-03-29T08:29:36Z</time></trkpt><trkpt lat="40.352521096020105" lon="15.021898983932802"><ele>127.0</ele><time>2026-03-29T08:29:38Z</time></trkpt><trkpt lat="40.352589631066024" lon="15.021795903513151"><ele>127.0</ele><time>2026-03-29T08:29:40Z</time></trkpt><trkpt lat="40.3526684200557" lon="15.02168955617475"><ele>126.99999999999999</ele><time>2026-03-29T08:29:42Z</time></trkpt><trkpt lat="40.352720294341026" lon="15.021632612105265"><ele>126.99999999999999</ele><time>2026-03-29T08:29:43Z</time></trkpt><trkpt lat="40.3528101244679" lon="15.021536190869414"><ele>127.0</ele><time>2026-03-29T08:29:45Z</time></trkpt><trkpt lat="40.35290679750207" lon="15.021427083552227"><ele>127.0</ele><time>2026-03-29T08:29:47Z</time></trkpt><trkpt lat="40.35296120161161" lon="15.021381073451254"><ele>125.50000000000001</ele><time>2026-03-29T08:29:48Z</time></trkpt><trkpt lat="40.35301623457039" lon="15.021332114885402"><ele>124.0</ele><time>2026-03-29T08:29:49Z</time></trkpt><trkpt lat="40.35307356354471" lon="15.021288544893052"><ele>122.5</ele><time>2026-03-29T08:29:50Z</time></trkpt><trkpt lat="40.35313245652384" lon="15.021241690786653"><ele>121.0</ele><time>2026-03-29T08:29:51Z</time></trkpt><trkpt lat="40.353194817786346" lon="15.021203698320223"><ele>119.50000000000001</ele><time>2026-03-29T08:29:52Z</time></trkpt><trkpt lat="40.353254454937314" lon="15.021168432079664"><ele>118.0</ele><time>2026-03-29T08:29:52.999Z</time></trkpt><trkpt lat="40.35336448858949" lon="15.02110573995268"><ele>115.83333333333334</ele><time>2026-03-29T08:29:54.999Z</time></trkpt><trkpt lat="40.35341198555604" lon="15.021039137608238"><ele>113.66666666666667</ele><time>2026-03-29T08:29:56.999Z</time></trkpt><trkpt lat="40.35346161867451" lon="15.020980158093623"><ele>111.5</ele><time>2026-03-29T08:29:58.999Z</time></trkpt><trkpt lat="40.3533845042115" lon="15.020817274757347"><ele>109.33333333333334</ele><time>2026-03-29T08:29:59.999Z</time></trkpt><trkpt lat="40.353340243584725" lon="15.020738129911337"><ele>107.16666666666667</ele><time>2026-03-29T08:30:00.999Z</time></trkpt><trkpt lat="40.353293089157795" lon="15.020660789009591"><ele>105.0</ele><time>2026-03-29T08:30:01.999Z</time></trkpt><trkpt lat="40.35324700382411" lon="15.020583628300944"><ele>102.5</ele><time>2026-03-29T08:30:02.999Z</time></trkpt><trkpt lat="40.35320065366863" lon="15.020495703724501"><ele>100.0</ele><time>2026-03-29T08:30:03.999Z</time></trkpt><trkpt lat="40.35316036222595" lon="15.020413788918194"><ele>97.5</ele><time>2026-03-29T08:30:04.999Z</time></trkpt><trkpt lat="40.35311206976863" lon="15.0203044410373"><ele>95.0</ele><time>2026-03-29T08:30:06.999Z</time></trkpt><trkpt lat="40.353128883949466" lon="15.02019566090851"><ele>92.5</ele><time>2026-03-29T08:30:11.999Z</time></trkpt><trkpt lat="40.3531871742958" lon="15.020140318185323"><ele>90.0</ele><time>2026-03-29T08:30:13.999Z</time></trkpt><trkpt lat="40.35327535298271" lon="15.020047685550523"><ele>86.8</ele><time>2026-03-29T08:30:15.999Z</time></trkpt><trkpt lat="40.35335340496902" lon="15.019927625794237"><ele>83.6</ele><time>2026-03-29T08:30:17.999Z</time></trkpt><trkpt lat="40.35341026497678" lon="15.019882279033766"><ele>80.4</ele><time>2026-03-29T08:30:18.999Z</time></trkpt><trkpt lat="40.353492650482075" lon="15.019770804138942"><ele>77.2</ele><time>2026-03-29T08:30:20.999Z</time></trkpt><trkpt lat="40.35358034785076" lon="15.01967413558795"><ele>74.0</ele><time>2026-03-29T08:30:22.999Z</time></trkpt><trkpt lat="40.35365824873035" lon="15.019562171681933"><ele>74.0</ele><time>2026-03-29T08:30:24.999Z</time></trkpt><trkpt lat="40.35370529591126" lon="15.019505163483965"><ele>74.0</ele><time>2026-03-29T08:30:25.999Z</time></trkpt><trkpt lat="40.3537820897637" lon="15.019396277465692"><ele>74.0</ele><time>2026-03-29T08:30:27.999Z</time></trkpt><trkpt lat="40.35382886389453" lon="15.019316296433894"><ele>74.0</ele><time>2026-03-29T08:30:29.999Z</time></trkpt><trkpt lat="40.353893590243686" lon="15.019238405306616"><ele>74.0</ele><time>2026-03-29T08:30:31.999Z</time></trkpt><trkpt lat="40.35395704442805" lon="15.019161061293456"><ele>74.0</ele><time>2026-03-29T08:30:33.999Z</time></trkpt><trkpt lat="40.354015051289586" lon="15.019100977496693"><ele>71.8</ele><time>2026-03-29T08:30:35.999Z</time></trkpt><trkpt lat="40.35408194400131" lon="15.019062760087676"><ele>69.60000000000001</ele><time>2026-03-29T08:30:37.999Z</time></trkpt><trkpt lat="40.35415411862688" lon="15.019101755373606"><ele>67.4</ele><time>2026-03-29T08:30:39.999Z</time></trkpt><trkpt lat="40.3542264566201" lon="15.01920827321412"><ele>65.2</ele><time>2026-03-29T08:30:41.999Z</time></trkpt><trkpt lat="40.35431515539931" lon="15.01932654273051"><ele>63.0</ele><time>2026-03-29T08:30:43.999Z</time></trkpt><trkpt lat="40.35437829815469" lon="15.019391738146451"><ele>63.0</ele><time>2026-03-29T08:30:44.999Z</time></trkpt><trkpt lat="40.354455580596756" lon="15.019491733480335"><ele>63.0</ele><time>2026-03-29T08:30:46.999Z</time></trkpt><trkpt lat="40.354545392902416" lon="15.01957212512911"><ele>63.0</ele><time>2026-03-29T08:30:48.999Z</time></trkpt><trkpt lat="40.35462287644709" lon="15.01962977940628"><ele>63.0</ele><time>2026-03-29T08:30:50.999Z</time></trkpt><trkpt lat="40.35468007157527" lon="15.019673057618752"><ele>63.0</ele><time>2026-03-29T08:30:51.999Z</time></trkpt><trkpt lat="40.35474309072569" lon="15.01971446759399"><ele>63.0</ele><time>2026-03-29T08:30:52.999Z</time></trkpt><trkpt lat="40.35482908979699" lon="15.019761047694406"><ele>62.333333333333336</ele><time>2026-03-29T08:30:54.999Z</time></trkpt><trkpt lat="40.35489665165588" lon="15.019791604454007"><ele>61.66666666666667</ele><time>2026-03-29T08:30:57.998Z</time></trkpt><trkpt lat="40.35494412814233" lon="15.019718695746823"><ele>61.0</ele><time>2026-03-29T08:30:58.998Z</time></trkpt><trkpt lat="40.35504154965324" lon="15.019649784861755"><ele>60.333333333333336</ele><time>2026-03-29T08:31:00.998Z</time></trkpt><trkpt lat="40.35513323336665" lon="15.019553728593381"><ele>59.66666666666667</ele><time>2026-03-29T08:31:02.998Z</time></trkpt><trkpt lat="40.35518407838129" lon="15.019492034048865"><ele>59.0</ele><time>2026-03-29T08:31:03.998Z</time></trkpt><trkpt lat="40.35523054444055" lon="15.01941873224257"><ele>59.00000000000001</ele><time>2026-03-29T08:31:04.998Z</time></trkpt><trkpt lat="40.35527933710202" lon="15.01936002166174"><ele>59.0</ele><time>2026-03-29T08:31:05.998Z</time></trkpt><trkpt lat="40.35534480834738" lon="15.019290319062106"><ele>59.0</ele><time>2026-03-29T08:31:07.998Z</time></trkpt><trkpt lat="40.35539728545311" lon="15.01922832085091"><ele>59.0</ele><time>2026-03-29T08:31:11.998Z</time></trkpt><trkpt lat="40.355335983477474" lon="15.01910513947506"><ele>59.00000000000001</ele><time>2026-03-29T08:31:12.998Z</time></trkpt><trkpt lat="40.35528451795286" lon="15.019023978756525"><ele>59.0</ele><time>2026-03-29T08:31:13.998Z</time></trkpt><trkpt lat="40.35523886613388" lon="15.018931877033523"><ele>59.0</ele><time>2026-03-29T08:31:14.998Z</time></trkpt><trkpt lat="40.35518804718278" lon="15.018823456529494"><ele>59.00000000000001</ele><time>2026-03-29T08:31:15.998Z</time></trkpt><trkpt lat="40.35513560620828" lon="15.018718731811335"><ele>59.00000000000001</ele><time>2026-03-29T08:31:16.998Z</time></trkpt><trkpt lat="40.35507805773949" lon="15.018610726634838"><ele>59.0</ele><time>2026-03-29T08:31:17.998Z</time></trkpt><trkpt lat="40.35502018659731" lon="15.018491281379266"><ele>59.0</ele><time>2026-03-29T08:31:18.998Z</time></trkpt><trkpt lat="40.3549572831994" lon="15.018367280787789"><ele>59.5</ele><time>2026-03-29T08:31:19.998Z</time></trkpt><trkpt lat="40.35489511614863" lon="15.018250226105769"><ele>60.0</ele><time>2026-03-29T08:31:20.999Z</time></trkpt><trkpt lat="40.35483260423262" lon="15.018125438982807"><ele>60.5</ele><time>2026-03-29T08:31:21.999Z</time></trkpt><trkpt lat="40.35476642868705" lon="15.017995434157493"><ele>61.0</ele><time>2026-03-29T08:31:22.999Z</time></trkpt><trkpt lat="40.35469863016819" lon="15.017868217419629"><ele>60.25</ele><time>2026-03-29T08:31:23.999Z</time></trkpt><trkpt lat="40.3546283559808" lon="15.017736935652252"><ele>59.5</ele><time>2026-03-29T08:31:24.999Z</time></trkpt><trkpt lat="40.35456163812984" lon="15.017602040521524"><ele>58.75</ele><time>2026-03-29T08:31:25.999Z</time></trkpt><trkpt lat="40.35449555422298" lon="15.01747076227959"><ele>58.0</ele><time>2026-03-29T08:31:26.999Z</time></trkpt><trkpt lat="40.35441825480057" lon="15.017341200429144"><ele>58.0</ele><time>2026-03-29T08:31:27.999Z</time></trkpt><trkpt lat="40.354337396363356" lon="15.017216823763501"><ele>58.0</ele><time>2026-03-29T08:31:28.999Z</time></trkpt><trkpt lat="40.354246134958025" lon="15.017091637252298"><ele>58.0</ele><time>2026-03-29T08:31:29.999Z</time></trkpt><trkpt lat="40.354146279774774" lon="15.016976383479191"><ele>58.0</ele><time>2026-03-29T08:31:30.999Z</time></trkpt><trkpt lat="40.35403984374855" lon="15.016858605426231"><ele>58.0</ele><time>2026-03-29T08:31:31.999Z</time></trkpt><trkpt lat="40.35393013629962" lon="15.016739854637976"><ele>58.0</ele><time>2026-03-29T08:31:32.999Z</time></trkpt><trkpt lat="40.353817000360024" lon="15.016625603726753"><ele>58.0</ele><time>2026-03-29T08:31:33.999Z</time></trkpt><trkpt lat="40.353706657682814" lon="15.016518883653859"><ele>58.0</ele><time>2026-03-29T08:31:34.999Z</time></trkpt><trkpt lat="40.35360215967126" lon="15.016416817712253"><ele>57.75</ele><time>2026-03-29T08:31:35.999Z</time></trkpt><trkpt lat="40.353499289054916" lon="15.016305819571036"><ele>57.5</ele><time>2026-03-29T08:31:36.999Z</time></trkpt><trkpt lat="40.353393834880144" lon="15.016190702522895"><ele>57.25</ele><time>2026-03-29T08:31:37.999Z</time></trkpt><trkpt lat="40.35330118549195" lon="15.016086335276997"><ele>57.0</ele><time>2026-03-29T08:31:38.999Z</time></trkpt><trkpt lat="40.35320713924662" lon="15.015982563430864"><ele>57.0</ele><time>2026-03-29T08:31:39.999Z</time></trkpt><trkpt lat="40.35311532020853" lon="15.015880059625278"><ele>57.0</ele><time>2026-03-29T08:31:40.999Z</time></trkpt><trkpt lat="40.35301704772775" lon="15.015771266082663"><ele>57.0</ele><time>2026-03-29T08:31:41.999Z</time></trkpt><trkpt lat="40.35291084951911" lon="15.01565501154594"><ele>57.0</ele><time>2026-03-29T08:31:42.999Z</time></trkpt><trkpt lat="40.35280372427888" lon="15.015530102037493"><ele>56.0</ele><time>2026-03-29T08:31:43.999Z</time></trkpt><trkpt lat="40.35270795689734" lon="15.015409304861935"><ele>55.0</ele><time>2026-03-29T08:31:44.999Z</time></trkpt><trkpt lat="40.35261513896787" lon="15.015282040089375"><ele>54.0</ele><time>2026-03-29T08:31:45.999Z</time></trkpt><trkpt lat="40.352521362701" lon="15.015125549253998"><ele>53.0</ele><time>2026-03-29T08:31:46.999Z</time></trkpt><trkpt lat="40.35243478935769" lon="15.014976449140413"><ele>53.0</ele><time>2026-03-29T08:31:47.999Z</time></trkpt><trkpt lat="40.35234907106848" lon="15.014823470525856"><ele>53.0</ele><time>2026-03-29T08:31:48.999Z</time></trkpt><trkpt lat="40.35225775657155" lon="15.014668987717716"><ele>53.0</ele><time>2026-03-29T08:31:49.999Z</time></trkpt><trkpt lat="40.352163862430835" lon="15.014518217260685"><ele>53.0</ele><time>2026-03-29T08:31:50.999Z</time></trkpt><trkpt lat="40.35206986597829" lon="15.014371999022035"><ele>51.0</ele><time>2026-03-29T08:31:51.999Z</time></trkpt><trkpt lat="40.35198882067169" lon="15.01421573419664"><ele>49.0</ele><time>2026-03-29T08:31:52.999Z</time></trkpt><trkpt lat="40.35190015125178" lon="15.014062803793475"><ele>47.0</ele><time>2026-03-29T08:31:53.999Z</time></trkpt><trkpt lat="40.35181389942652" lon="15.013909695755395"><ele>45.0</ele><time>2026-03-29T08:31:54.999Z</time></trkpt><trkpt lat="40.35172796359767" lon="15.013760730712047"><ele>45.0</ele><time>2026-03-29T08:31:55.999Z</time></trkpt><trkpt lat="40.351637312135075" lon="15.013608520337671"><ele>45.0</ele><time>2026-03-29T08:31:56.999Z</time></trkpt><trkpt lat="40.35154189675145" lon="15.013456131117966"><ele>45.0</ele><time>2026-03-29T08:31:57.999Z</time></trkpt><trkpt lat="40.35143562349754" lon="15.013315201992993"><ele>45.0</ele><time>2026-03-29T08:31:58.999Z</time></trkpt><trkpt lat="40.35132777482658" lon="15.013172852822398"><ele>43.25</ele><time>2026-03-29T08:31:59.999Z</time></trkpt><trkpt lat="40.35122664983941" lon="15.01303364283343"><ele>41.5</ele><time>2026-03-29T08:32:00.999Z</time></trkpt><trkpt lat="40.35112386903906" lon="15.012902158066222"><ele>39.75</ele><time>2026-03-29T08:32:01.999Z</time></trkpt><trkpt lat="40.35102844653634" lon="15.012760489164608"><ele>38.0</ele><time>2026-03-29T08:32:02.999Z</time></trkpt><trkpt lat="40.35091792534901" lon="15.012618519897858"><ele>39.33333333333333</ele><time>2026-03-29T08:32:03.999Z</time></trkpt><trkpt lat="40.35080593892238" lon="15.012486980905111"><ele>40.666666666666664</ele><time>2026-03-29T08:32:04.999Z</time></trkpt><trkpt lat="40.35070154427438" lon="15.01234165850399"><ele>42.0</ele><time>2026-03-29T08:32:05.999Z</time></trkpt><trkpt lat="40.35059648670467" lon="15.012195984067178"><ele>40.0</ele><time>2026-03-29T08:32:06.999Z</time></trkpt><trkpt lat="40.35049168932585" lon="15.012048902334003"><ele>38.0</ele><time>2026-03-29T08:32:07.999Z</time></trkpt><trkpt lat="40.35037848260925" lon="15.01189946169699"><ele>36.0</ele><time>2026-03-29T08:32:08.999Z</time></trkpt><trkpt lat="40.350260979065645" lon="15.011746757755489"><ele>38.0</ele><time>2026-03-29T08:32:09.999Z</time></trkpt><trkpt lat="40.35015033126375" lon="15.011584847952461"><ele>40.0</ele><time>2026-03-29T08:32:10.999Z</time></trkpt><trkpt lat="40.350039880895096" lon="15.01142540314724"><ele>42.0</ele><time>2026-03-29T08:32:11.999Z</time></trkpt><trkpt lat="40.3499313722702" lon="15.011267705762103"><ele>42.0</ele><time>2026-03-29T08:32:12.999Z</time></trkpt><trkpt lat="40.349824042423094" lon="15.011113064315882"><ele>42.0</ele><time>2026-03-29T08:32:13.999Z</time></trkpt><trkpt lat="40.349720002894635" lon="15.01095865274819"><ele>42.0</ele><time>2026-03-29T08:32:14.999Z</time></trkpt><trkpt lat="40.34960962556562" lon="15.010805203432957"><ele>40.666666666666664</ele><time>2026-03-29T08:32:15.999Z</time></trkpt><trkpt lat="40.34949502277659" lon="15.01065199494053"><ele>39.33333333333333</ele><time>2026-03-29T08:32:16.999Z</time></trkpt><trkpt lat="40.349386452826955" lon="15.010496370423365"><ele>38.0</ele><time>2026-03-29T08:32:17.999Z</time></trkpt><trkpt lat="40.349278452165116" lon="15.010342177096337"><ele>38.0</ele><time>2026-03-29T08:32:18.999Z</time></trkpt><trkpt lat="40.3491644949344" lon="15.010189768472074"><ele>38.0</ele><time>2026-03-29T08:32:19.999Z</time></trkpt><trkpt lat="40.34905657628517" lon="15.010031782499684"><ele>38.0</ele><time>2026-03-29T08:32:20.999Z</time></trkpt><trkpt lat="40.34895119519416" lon="15.009873757758395"><ele>36.0</ele><time>2026-03-29T08:32:21.999Z</time></trkpt><trkpt lat="40.3488413072559" lon="15.009719146442839"><ele>34.0</ele><time>2026-03-29T08:32:22.999Z</time></trkpt><trkpt lat="40.34874042489294" lon="15.009581428128437"><ele>32.0</ele><time>2026-03-29T08:32:23.999Z</time></trkpt><trkpt lat="40.348638696264366" lon="15.009443286084128"><ele>32.0</ele><time>2026-03-29T08:32:24.999Z</time></trkpt><trkpt lat="40.34854150492093" lon="15.009300824305347"><ele>32.0</ele><time>2026-03-29T08:32:25.999Z</time></trkpt><trkpt lat="40.34843541866215" lon="15.009156063745323"><ele>32.0</ele><time>2026-03-29T08:32:26.999Z</time></trkpt><trkpt lat="40.34832600317404" lon="15.009012455464813"><ele>33.33333333333333</ele><time>2026-03-29T08:32:27.999Z</time></trkpt><trkpt lat="40.34821908928481" lon="15.008875876990214"><ele>34.666666666666664</ele><time>2026-03-29T08:32:28.999Z</time></trkpt><trkpt lat="40.34810367834598" lon="15.00874220695858"><ele>36.0</ele><time>2026-03-29T08:32:29.999Z</time></trkpt><trkpt lat="40.34798200595887" lon="15.008613567008823"><ele>35.0</ele><time>2026-03-29T08:32:30.999Z</time></trkpt><trkpt lat="40.347852039389466" lon="15.008483550125966"><ele>34.0</ele><time>2026-03-29T08:32:31.999Z</time></trkpt><trkpt lat="40.34772521177451" lon="15.008361007909215"><ele>33.0</ele><time>2026-03-29T08:32:32.999Z</time></trkpt><trkpt lat="40.347605321168935" lon="15.00824638119328"><ele>33.0</ele><time>2026-03-29T08:32:33.999Z</time></trkpt><trkpt lat="40.347488684390946" lon="15.008123815391386"><ele>33.0</ele><time>2026-03-29T08:32:34.999Z</time></trkpt><trkpt lat="40.34736746352189" lon="15.00799220503954"><ele>33.0</ele><time>2026-03-29T08:32:35.999Z</time></trkpt><trkpt lat="40.34725389923084" lon="15.007862331014815"><ele>30.666666666666664</ele><time>2026-03-29T08:32:36.999Z</time></trkpt><trkpt lat="40.34713847464105" lon="15.007728055880504"><ele>28.333333333333332</ele><time>2026-03-29T08:32:37.999Z</time></trkpt><trkpt lat="40.347025392051904" lon="15.007593367530953"><ele>26.0</ele><time>2026-03-29T08:32:38.999Z</time></trkpt><trkpt lat="40.346926162737546" lon="15.007457022708051"><ele>26.0</ele><time>2026-03-29T08:32:39.999Z</time></trkpt><trkpt lat="40.34682401561916" lon="15.007309217185897"><ele>26.0</ele><time>2026-03-29T08:32:40.999Z</time></trkpt><trkpt lat="40.346729031873174" lon="15.007163312751771"><ele>26.0</ele><time>2026-03-29T08:32:41.999Z</time></trkpt><trkpt lat="40.34662962581563" lon="15.007016360285915"><ele>26.0</ele><time>2026-03-29T08:32:42.999Z</time></trkpt><trkpt lat="40.34652465967408" lon="15.006864408845507"><ele>26.0</ele><time>2026-03-29T08:32:43.999Z</time></trkpt><trkpt lat="40.346431425565015" lon="15.006721571432617"><ele>26.0</ele><time>2026-03-29T08:32:44.999Z</time></trkpt><trkpt lat="40.34634140841019" lon="15.006577033284536"><ele>26.0</ele><time>2026-03-29T08:32:45.999Z</time></trkpt><trkpt lat="40.34624275695329" lon="15.006434549301996"><ele>26.0</ele><time>2026-03-29T08:32:46.999Z</time></trkpt><trkpt lat="40.34614111799162" lon="15.006293097691367"><ele>24.333333333333332</ele><time>2026-03-29T08:32:47.999Z</time></trkpt><trkpt lat="40.34603972130575" lon="15.00614666959275"><ele>22.666666666666664</ele><time>2026-03-29T08:32:48.999Z</time></trkpt><trkpt lat="40.34593392178695" lon="15.005996385382963"><ele>21.0</ele><time>2026-03-29T08:32:49.999Z</time></trkpt><trkpt lat="40.34583546556975" lon="15.0058458090888"><ele>21.666666666666668</ele><time>2026-03-29T08:32:50.999Z</time></trkpt><trkpt lat="40.34573336125936" lon="15.005688861486151"><ele>22.333333333333336</ele><time>2026-03-29T08:32:51.999Z</time></trkpt><trkpt lat="40.34564303618044" lon="15.005526676859706"><ele>23.0</ele><time>2026-03-29T08:32:52.999Z</time></trkpt><trkpt lat="40.345546127162706" lon="15.005364410628655"><ele>21.75</ele><time>2026-03-29T08:32:53.999Z</time></trkpt><trkpt lat="40.345460070268224" lon="15.005198441072881"><ele>20.5</ele><time>2026-03-29T08:32:54.999Z</time></trkpt><trkpt lat="40.34538275657085" lon="15.005049284121387"><ele>19.25</ele><time>2026-03-29T08:32:55.999Z</time></trkpt><trkpt lat="40.3453120978914" lon="15.004903735655997"><ele>18.0</ele><time>2026-03-29T08:32:56.999Z</time></trkpt><trkpt lat="40.34524646900484" lon="15.004760669765535"><ele>18.0</ele><time>2026-03-29T08:32:57.999Z</time></trkpt><trkpt lat="40.34518279596696" lon="15.004611504487084"><ele>18.0</ele><time>2026-03-29T08:32:58.999Z</time></trkpt><trkpt lat="40.34511435893944" lon="15.004453379523888"><ele>18.0</ele><time>2026-03-29T08:32:59.999Z</time></trkpt><trkpt lat="40.34504214657081" lon="15.004291354405582"><ele>18.0</ele><time>2026-03-29T08:33:00.999Z</time></trkpt><trkpt lat="40.3449783416654" lon="15.004130197066026"><ele>18.0</ele><time>2026-03-29T08:33:01.997Z</time></trkpt><trkpt lat="40.344914640756194" lon="15.003958221798493"><ele>18.0</ele><time>2026-03-29T08:33:02.997Z</time></trkpt><trkpt lat="40.34485516602464" lon="15.003794177891484"><ele>18.0</ele><time>2026-03-29T08:33:03.997Z</time></trkpt><trkpt lat="40.34479505998983" lon="15.003631314389821"><ele>18.0</ele><time>2026-03-29T08:33:04.997Z</time></trkpt><trkpt lat="40.34474135184723" lon="15.003469845927155"><ele>16.5</ele><time>2026-03-29T08:33:05.997Z</time></trkpt><trkpt lat="40.344686195807746" lon="15.003308216572625"><ele>15.0</ele><time>2026-03-29T08:33:06.997Z</time></trkpt><trkpt lat="40.3446254877055" lon="15.003148093143896"><ele>13.5</ele><time>2026-03-29T08:33:07.997Z</time></trkpt><trkpt lat="40.34458271367021" lon="15.002977887581457"><ele>12.0</ele><time>2026-03-29T08:33:08.997Z</time></trkpt><trkpt lat="40.34454050511835" lon="15.00281245565825"><ele>12.0</ele><time>2026-03-29T08:33:09.997Z</time></trkpt><trkpt lat="40.34450487028488" lon="15.002648329482593"><ele>12.0</ele><time>2026-03-29T08:33:10.997Z</time></trkpt><trkpt lat="40.34446765981431" lon="15.002482870906366"><ele>12.0</ele><time>2026-03-29T08:33:11.997Z</time></trkpt><trkpt lat="40.34442108047376" lon="15.002333929300162"><ele>12.0</ele><time>2026-03-29T08:33:12.997Z</time></trkpt><trkpt lat="40.344414732585676" lon="15.002111969445341"><ele>11.833333333333334</ele><time>2026-03-29T08:33:14.998Z</time></trkpt><trkpt lat="40.344433612466474" lon="15.001999138199963"><ele>11.666666666666666</ele><time>2026-03-29T08:33:15.998Z</time></trkpt><trkpt lat="40.344471064926154" lon="15.00189859863715"><ele>11.5</ele><time>2026-03-29T08:33:16.998Z</time></trkpt><trkpt lat="40.34451116440378" lon="15.001815224653528"><ele>11.333333333333332</ele><time>2026-03-29T08:33:17.998Z</time></trkpt><trkpt lat="40.34455839705601" lon="15.001756199305753"><ele>11.166666666666666</ele><time>2026-03-29T08:33:18.998Z</time></trkpt><trkpt lat="40.344603110187556" lon="15.0016171295937"><ele>11.0</ele><time>2026-03-29T08:33:20.998Z</time></trkpt><trkpt lat="40.34459233899478" lon="15.001532175422945"><ele>10.666666666666666</ele><time>2026-03-29T08:33:21.998Z</time></trkpt><trkpt lat="40.34456087057539" lon="15.001452520012716"><ele>10.333333333333332</ele><time>2026-03-29T08:33:22.998Z</time></trkpt><trkpt lat="40.344524499498355" lon="15.001384919110084"><ele>10.0</ele><time>2026-03-29T08:33:23.998Z</time></trkpt><trkpt lat="40.34449718638884" lon="15.001283199753477"><ele>9.666666666666666</ele><time>2026-03-29T08:33:24.998Z</time></trkpt><trkpt lat="40.34448326945255" lon="15.001153928881951"><ele>9.333333333333334</ele><time>2026-03-29T08:33:25.998Z</time></trkpt><trkpt lat="40.34447258517759" lon="15.00101120001206"><ele>9.0</ele><time>2026-03-29T08:33:26.998Z</time></trkpt><trkpt lat="40.344443998724365" lon="15.00085711947851"><ele>8.75</ele><time>2026-03-29T08:33:27.998Z</time></trkpt><trkpt lat="40.34440395711891" lon="15.000700367090872"><ele>8.5</ele><time>2026-03-29T08:33:28.998Z</time></trkpt><trkpt lat="40.34436252632597" lon="15.000538918077835"><ele>8.25</ele><time>2026-03-29T08:33:29.998Z</time></trkpt><trkpt lat="40.344319535723734" lon="15.00037047640494"><ele>8.0</ele><time>2026-03-29T08:33:30.998Z</time></trkpt><trkpt lat="40.34427420093625" lon="15.000211492122999"><ele>8.0</ele><time>2026-03-29T08:33:31.998Z</time></trkpt><trkpt lat="40.34422734591957" lon="15.000048964477898"><ele>8.0</ele><time>2026-03-29T08:33:32.998Z</time></trkpt><trkpt lat="40.344185056287714" lon="14.999884679526456"><ele>8.0</ele><time>2026-03-29T08:33:33.999Z</time></trkpt><trkpt lat="40.34413898730968" lon="14.999714670889551"><ele>8.0</ele><time>2026-03-29T08:33:34.999Z</time></trkpt><trkpt lat="40.3440978716694" lon="14.999545255391531"><ele>8.0</ele><time>2026-03-29T08:33:35.999Z</time></trkpt><trkpt lat="40.344054005452804" lon="14.999383460310906"><ele>8.0</ele><time>2026-03-29T08:33:36.999Z</time></trkpt><trkpt lat="40.34401340913542" lon="14.999219159746612"><ele>8.0</ele><time>2026-03-29T08:33:37.999Z</time></trkpt><trkpt lat="40.34397574352879" lon="14.999062698173315"><ele>8.0</ele><time>2026-03-29T08:33:38.999Z</time></trkpt><trkpt lat="40.34393768875125" lon="14.998923753388192"><ele>8.0</ele><time>2026-03-29T08:33:39.999Z</time></trkpt><trkpt lat="40.343904046382235" lon="14.998792274988318"><ele>8.0</ele><time>2026-03-29T08:33:40.999Z</time></trkpt><trkpt lat="40.34387997953796" lon="14.998677827731703"><ele>8.0</ele><time>2026-03-29T08:33:41.999Z</time></trkpt><trkpt lat="40.3438760531668" lon="14.998593450641199"><ele>8.0</ele><time>2026-03-29T08:33:42.999Z</time></trkpt><trkpt lat="40.343883521715185" lon="14.998443753454152"><ele>8.0</ele><time>2026-03-29T08:33:44.999Z</time></trkpt><trkpt lat="40.34394971670626" lon="14.998396301272749"><ele>8.0</ele><time>2026-03-29T08:33:45.999Z</time></trkpt><trkpt lat="40.34404522343426" lon="14.998428876544512"><ele>8.0</ele><time>2026-03-29T08:33:46.999Z</time></trkpt><trkpt lat="40.34412514167398" lon="14.998490047780514"><ele>8.0</ele><time>2026-03-29T08:33:47.999Z</time></trkpt><trkpt lat="40.34421591758574" lon="14.998532443505491"><ele>8.0</ele><time>2026-03-29T08:33:48.999Z</time></trkpt><trkpt lat="40.344314138564" lon="14.998589474157471"><ele>8.0</ele><time>2026-03-29T08:33:49.999Z</time></trkpt><trkpt lat="40.34441951720583" lon="14.99863446925508"><ele>8.0</ele><time>2026-03-29T08:33:50.999Z</time></trkpt><trkpt lat="40.34452297505396" lon="14.99867536523287"><ele>8.0</ele><time>2026-03-29T08:33:51.999Z</time></trkpt><trkpt lat="40.344628055217285" lon="14.998717222520533"><ele>8.0</ele><time>2026-03-29T08:33:52.999Z</time></trkpt><trkpt lat="40.34473750372088" lon="14.998764087584217"><ele>8.0</ele><time>2026-03-29T08:33:53.999Z</time></trkpt><trkpt lat="40.34485615329943" lon="14.998808463304806"><ele>8.25</ele><time>2026-03-29T08:33:54.999Z</time></trkpt><trkpt lat="40.34497806275764" lon="14.998850880581168"><ele>8.5</ele><time>2026-03-29T08:33:55.999Z</time></trkpt><trkpt lat="40.34509443982273" lon="14.998889617456806"><ele>8.75</ele><time>2026-03-29T08:33:56.999Z</time></trkpt><trkpt lat="40.34522199254303" lon="14.998916757692887"><ele>9.0</ele><time>2026-03-29T08:33:57.999Z</time></trkpt><trkpt lat="40.34534796997188" lon="14.998943042291236"><ele>9.0</ele><time>2026-03-29T08:33:58.999Z</time></trkpt><trkpt lat="40.34547370675497" lon="14.998958463084971"><ele>9.0</ele><time>2026-03-29T08:33:59.999Z</time></trkpt><trkpt lat="40.34559258831255" lon="14.998973318819399"><ele>9.0</ele><time>2026-03-29T08:34:00.999Z</time></trkpt><trkpt lat="40.34570860286268" lon="14.998988842027074"><ele>9.0</ele><time>2026-03-29T08:34:01.999Z</time></trkpt><trkpt lat="40.34581469048146" lon="14.999000875777625"><ele>8.833333333333334</ele><time>2026-03-29T08:34:02.999Z</time></trkpt><trkpt lat="40.345916327749464" lon="14.999012030175809"><ele>8.666666666666666</ele><time>2026-03-29T08:34:03.999Z</time></trkpt><trkpt lat="40.346014302882345" lon="14.999018459853266"><ele>8.5</ele><time>2026-03-29T08:34:04.999Z</time></trkpt><trkpt lat="40.34610258883174" lon="14.999021181586"><ele>8.333333333333332</ele><time>2026-03-29T08:34:05.999Z</time></trkpt><trkpt lat="40.34618715755732" lon="14.999025258385503"><ele>8.166666666666666</ele><time>2026-03-29T08:34:06.999Z</time></trkpt><trkpt lat="40.34625340110951" lon="14.998998209392226"><ele>8.0</ele><time>2026-03-29T08:34:07.999Z</time></trkpt><trkpt lat="40.3463092553098" lon="14.998909439152301"><ele>8.0</ele><time>2026-03-29T08:34:09.999Z</time></trkpt><trkpt lat="40.34635002264352" lon="14.998839157528913"><ele>7.999999999999999</ele><time>2026-03-29T08:34:12.999Z</time></trkpt><trkpt lat="40.34639643771769" lon="14.998771525161677"><ele>8.0</ele><time>2026-03-29T08:36:43Z</time></trkpt><trkpt lat="40.34644478968571" lon="14.998699597309107"><ele>8.0</ele><time>2026-03-29T08:36:46Z</time></trkpt><trkpt lat="40.346489190896094" lon="14.998628743225396"><ele>7.999999999999999</ele><time>2026-03-29T08:36:49Z</time></trkpt><trkpt lat="40.34654057079704" lon="14.998544329844018"><ele>8.0</ele><time>2026-03-29T08:36:52Z</time></trkpt><trkpt lat="40.3465795660704" lon="14.998479038210704"><ele>8.0</ele><time>2026-03-29T08:36:54Z</time></trkpt><trkpt lat="40.34662116944718" lon="14.998408543624047"><ele>8.166666666666666</ele><time>2026-03-29T08:36:56Z</time></trkpt><trkpt lat="40.34666939989018" lon="14.99832496939619"><ele>8.333333333333332</ele><time>2026-03-29T08:36:58Z</time></trkpt><trkpt lat="40.34672522290955" lon="14.998223495540703"><ele>8.5</ele><time>2026-03-29T08:37:00Z</time></trkpt><trkpt lat="40.346777514176864" lon="14.998108581490888"><ele>8.666666666666666</ele><time>2026-03-29T08:37:02Z</time></trkpt><trkpt lat="40.3468126018602" lon="14.998026161160231"><ele>8.833333333333334</ele><time>2026-03-29T08:37:04Z</time></trkpt><trkpt lat="40.34684578138044" lon="14.997934320307747"><ele>9.0</ele><time>2026-03-29T08:37:06Z</time></trkpt><trkpt lat="40.34687462001819" lon="14.997846949126341"><ele>9.0</ele><time>2026-03-29T08:37:15Z</time></trkpt><trkpt lat="40.346752527741465" lon="14.997741673243363"><ele>9.0</ele><time>2026-03-29T08:37:16Z</time></trkpt><trkpt lat="40.34664066405728" lon="14.997694580954107"><ele>9.0</ele><time>2026-03-29T08:37:18Z</time></trkpt><trkpt lat="40.34657132957307" lon="14.997655334323657"><ele>9.0</ele><time>2026-03-29T08:37:19Z</time></trkpt><trkpt lat="40.346497659699196" lon="14.997620028385"><ele>9.0</ele><time>2026-03-29T08:37:20Z</time></trkpt><trkpt lat="40.34641901499897" lon="14.997585372281485"><ele>9.166666666666666</ele><time>2026-03-29T08:37:21Z</time></trkpt><trkpt lat="40.3463503683841" lon="14.997549847302514"><ele>9.333333333333334</ele><time>2026-03-29T08:37:22Z</time></trkpt><trkpt lat="40.346280741579584" lon="14.997516221008324"><ele>9.5</ele><time>2026-03-29T08:37:23Z</time></trkpt><trkpt lat="40.34621286864353" lon="14.997482099658948"><ele>9.666666666666668</ele><time>2026-03-29T08:37:24Z</time></trkpt><trkpt lat="40.34613836433387" lon="14.997447805896186"><ele>9.833333333333334</ele><time>2026-03-29T08:37:25Z</time></trkpt><trkpt lat="40.34606215201513" lon="14.997409786090744"><ele>10.0</ele><time>2026-03-29T08:37:26Z</time></trkpt><trkpt lat="40.345979129359634" lon="14.997365932474862"><ele>10.2</ele><time>2026-03-29T08:37:27Z</time></trkpt><trkpt lat="40.34588892515003" lon="14.997317159952978"><ele>10.4</ele><time>2026-03-29T08:37:28Z</time></trkpt><trkpt lat="40.34579423859188" lon="14.997266746616805"><ele>10.600000000000001</ele><time>2026-03-29T08:37:29Z</time></trkpt><trkpt lat="40.34569556805277" lon="14.997220113376999"><ele>10.8</ele><time>2026-03-29T08:37:30Z</time></trkpt><trkpt lat="40.345601888352995" lon="14.997171492799454"><ele>11.0</ele><time>2026-03-29T08:37:31Z</time></trkpt><trkpt lat="40.34550792872534" lon="14.997121270807904"><ele>11.0</ele><time>2026-03-29T08:37:32Z</time></trkpt><trkpt lat="40.34541244092552" lon="14.997072211605499"><ele>11.0</ele><time>2026-03-29T08:37:33Z</time></trkpt><trkpt lat="40.34532995510449" lon="14.997036214799822"><ele>11.0</ele><time>2026-03-29T08:37:34Z</time></trkpt><trkpt lat="40.34525486908225" lon="14.997000460114755"><ele>11.0</ele><time>2026-03-29T08:37:35Z</time></trkpt><trkpt lat="40.34516972614021" lon="14.996956129625897"><ele>11.0</ele><time>2026-03-29T08:37:36Z</time></trkpt><trkpt lat="40.34508878943915" lon="14.996915536122424"><ele>11.0</ele><time>2026-03-29T08:37:37Z</time></trkpt><trkpt lat="40.34500918590863" lon="14.996881915590869"><ele>11.0</ele><time>2026-03-29T08:37:38Z</time></trkpt><trkpt lat="40.3449178300621" lon="14.996853633886804"><ele>11.0</ele><time>2026-03-29T08:37:39Z</time></trkpt><trkpt lat="40.34483290269174" lon="14.996837093005839"><ele>11.0</ele><time>2026-03-29T08:37:40Z</time></trkpt><trkpt lat="40.34475145350368" lon="14.996822922303881"><ele>11.0</ele><time>2026-03-29T08:37:41Z</time></trkpt><trkpt lat="40.3446781679845" lon="14.996807319506848"><ele>11.0</ele><time>2026-03-29T08:37:42Z</time></trkpt><trkpt lat="40.34460458047026" lon="14.996798656386593"><ele>11.0</ele><time>2026-03-29T08:37:43Z</time></trkpt><trkpt lat="40.34451721786627" lon="14.996781984475108"><ele>11.200000000000001</ele><time>2026-03-29T08:37:44Z</time></trkpt><trkpt lat="40.34442561115177" lon="14.996774783138346"><ele>11.4</ele><time>2026-03-29T08:37:45Z</time></trkpt><trkpt lat="40.34432598726043" lon="14.996763643010187"><ele>11.6</ele><time>2026-03-29T08:37:46Z</time></trkpt><trkpt lat="40.34423092943321" lon="14.99673866433114"><ele>11.8</ele><time>2026-03-29T08:37:47Z</time></trkpt><trkpt lat="40.344144684819284" lon="14.996721614758039"><ele>12.0</ele><time>2026-03-29T08:37:48Z</time></trkpt><trkpt lat="40.34405557755838" lon="14.996696771934534"><ele>11.833333333333334</ele><time>2026-03-29T08:37:49Z</time></trkpt><trkpt lat="40.343972921421624" lon="14.996651095233664"><ele>11.666666666666666</ele><time>2026-03-29T08:37:50Z</time></trkpt><trkpt lat="40.343904868040404" lon="14.996582958172219"><ele>11.5</ele><time>2026-03-29T08:37:51Z</time></trkpt><trkpt lat="40.3438512695592" lon="14.996494645000384"><ele>11.333333333333332</ele><time>2026-03-29T08:37:52Z</time></trkpt><trkpt lat="40.343802348626596" lon="14.996394895029864"><ele>11.166666666666666</ele><time>2026-03-29T08:37:53Z</time></trkpt><trkpt lat="40.34376240396165" lon="14.996311824997761"><ele>11.0</ele><time>2026-03-29T08:37:54Z</time></trkpt><trkpt lat="40.34372796015706" lon="14.996232268848853"><ele>11.0</ele><time>2026-03-29T08:37:55Z</time></trkpt><trkpt lat="40.34370918683127" lon="14.996090601412051"><ele>11.0</ele><time>2026-03-29T08:37:57Z</time></trkpt><trkpt lat="40.34364951798119" lon="14.995978234414414"><ele>11.0</ele><time>2026-03-29T08:37:59Z</time></trkpt><trkpt lat="40.34352415930906" lon="14.995996483365584"><ele>11.0</ele><time>2026-03-29T08:38:01Z</time></trkpt><trkpt lat="40.34345867646147" lon="14.996047404516466"><ele>11.0</ele><time>2026-03-29T08:38:02Z</time></trkpt><trkpt lat="40.343398684350205" lon="14.996107096976509"><ele>11.0</ele><time>2026-03-29T08:38:03Z</time></trkpt><trkpt lat="40.34333583190977" lon="14.99617465019395"><ele>11.0</ele><time>2026-03-29T08:38:04Z</time></trkpt><trkpt lat="40.34326319019457" lon="14.996236577630434"><ele>11.0</ele><time>2026-03-29T08:38:05Z</time></trkpt><trkpt lat="40.34318256098107" lon="14.99630883797226"><ele>11.0</ele><time>2026-03-29T08:38:06Z</time></trkpt><trkpt lat="40.343099913977255" lon="14.99638909215524"><ele>11.0</ele><time>2026-03-29T08:38:07Z</time></trkpt><trkpt lat="40.343023284995695" lon="14.996466502449444"><ele>11.200000000000001</ele><time>2026-03-29T08:38:08Z</time></trkpt><trkpt lat="40.34293936666482" lon="14.996538424817519"><ele>11.4</ele><time>2026-03-29T08:38:09Z</time></trkpt><trkpt lat="40.34285147812161" lon="14.99661895462709"><ele>11.6</ele><time>2026-03-29T08:38:10Z</time></trkpt><trkpt lat="40.34276131979525" lon="14.99669365610384"><ele>11.8</ele><time>2026-03-29T08:38:11Z</time></trkpt><trkpt lat="40.34266452175768" lon="14.996764746296284"><ele>12.0</ele><time>2026-03-29T08:38:12Z</time></trkpt><trkpt lat="40.342565726611774" lon="14.996839154977224"><ele>12.0</ele><time>2026-03-29T08:38:13Z</time></trkpt><trkpt lat="40.34246706069566" lon="14.996905694479656"><ele>12.0</ele><time>2026-03-29T08:38:14.001Z</time></trkpt><trkpt lat="40.342364964939506" lon="14.996981603086958"><ele>12.0</ele><time>2026-03-29T08:38:15.001Z</time></trkpt><trkpt lat="40.342267450237365" lon="14.997051091692573"><ele>12.0</ele><time>2026-03-29T08:38:16.001Z</time></trkpt><trkpt lat="40.34217129492649" lon="14.99712238063414"><ele>12.75</ele><time>2026-03-29T08:38:17.001Z</time></trkpt><trkpt lat="40.34207253367256" lon="14.997194952940127"><ele>13.5</ele><time>2026-03-29T08:38:18.001Z</time></trkpt><trkpt lat="40.34197041875746" lon="14.997266813422886"><ele>14.25</ele><time>2026-03-29T08:38:19.001Z</time></trkpt><trkpt lat="40.3418733945351" lon="14.997338294146823"><ele>15.0</ele><time>2026-03-29T08:38:20.001Z</time></trkpt><trkpt lat="40.34177373387312" lon="14.997420933993238"><ele>15.5</ele><time>2026-03-29T08:38:21.001Z</time></trkpt><trkpt lat="40.34167242193679" lon="14.99750518801787"><ele>16.0</ele><time>2026-03-29T08:38:22.001Z</time></trkpt><trkpt lat="40.34156936638596" lon="14.997591515416662"><ele>16.5</ele><time>2026-03-29T08:38:23.001Z</time></trkpt><trkpt lat="40.34146784077036" lon="14.99767347478644"><ele>17.0</ele><time>2026-03-29T08:38:24.001Z</time></trkpt><trkpt lat="40.34137503348865" lon="14.99774780509059"><ele>17.0</ele><time>2026-03-29T08:38:25.001Z</time></trkpt><trkpt lat="40.34127720333931" lon="14.99782581683796"><ele>17.0</ele><time>2026-03-29T08:38:26.001Z</time></trkpt><trkpt lat="40.34118907579607" lon="14.997897987584507"><ele>17.0</ele><time>2026-03-29T08:38:27.001Z</time></trkpt><trkpt lat="40.341105809831" lon="14.997963892413628"><ele>17.0</ele><time>2026-03-29T08:38:28.001Z</time></trkpt><trkpt lat="40.34103099613944" lon="14.998023417384754"><ele>17.0</ele><time>2026-03-29T08:38:29.001Z</time></trkpt><trkpt lat="40.34096304321579" lon="14.99807902474472"><ele>17.0</ele><time>2026-03-29T08:38:30.001Z</time></trkpt><trkpt lat="40.34090132059804" lon="14.998124496491304"><ele>17.0</ele><time>2026-03-29T08:38:31.001Z</time></trkpt><trkpt lat="40.34080138342271" lon="14.998159084571496"><ele>17.0</ele><time>2026-03-29T08:38:33.001Z</time></trkpt><trkpt lat="40.3406849330608" lon="14.998144879803059"><ele>17.0</ele><time>2026-03-29T08:38:35.001Z</time></trkpt><trkpt lat="40.340613853213505" lon="14.99814235043405"><ele>17.0</ele><time>2026-03-29T08:38:36.001Z</time></trkpt><trkpt lat="40.34052672680394" lon="14.998070772709957"><ele>17.166666666666668</ele><time>2026-03-29T08:38:38.001Z</time></trkpt><trkpt lat="40.340501010064486" lon="14.997979738613433"><ele>17.333333333333336</ele><time>2026-03-29T08:38:39.001Z</time></trkpt><trkpt lat="40.340483407449526" lon="14.997879291627088"><ele>17.5</ele><time>2026-03-29T08:38:40.001Z</time></trkpt><trkpt lat="40.340462170682244" lon="14.997772813575061"><ele>17.666666666666668</ele><time>2026-03-29T08:38:41.001Z</time></trkpt><trkpt lat="40.340434921086555" lon="14.997676135584687"><ele>17.833333333333332</ele><time>2026-03-29T08:38:42.001Z</time></trkpt><trkpt lat="40.34039858822244" lon="14.997569207641986"><ele>18.0</ele><time>2026-03-29T08:38:43.001Z</time></trkpt><trkpt lat="40.34035788335337" lon="14.997462430860237"><ele>18.4</ele><time>2026-03-29T08:38:44.001Z</time></trkpt><trkpt lat="40.34031677090864" lon="14.997360583643415"><ele>18.8</ele><time>2026-03-29T08:38:45.001Z</time></trkpt><trkpt lat="40.34027573999426" lon="14.99725938988729"><ele>19.2</ele><time>2026-03-29T08:38:46.001Z</time></trkpt><trkpt lat="40.34023242393433" lon="14.997151061836455"><ele>19.6</ele><time>2026-03-29T08:38:47.001Z</time></trkpt><trkpt lat="40.34019070232586" lon="14.997044517253782"><ele>20.0</ele><time>2026-03-29T08:38:48.001Z</time></trkpt><trkpt lat="40.34014171615851" lon="14.99693018010305"><ele>20.0</ele><time>2026-03-29T08:38:49.001Z</time></trkpt><trkpt lat="40.340091430118804" lon="14.996821938889486"><ele>20.0</ele><time>2026-03-29T08:38:50.001Z</time></trkpt><trkpt lat="40.34004759321875" lon="14.996719533672534"><ele>20.0</ele><time>2026-03-29T08:38:51.001Z</time></trkpt><trkpt lat="40.34000524979346" lon="14.996613799041478"><ele>20.0</ele><time>2026-03-29T08:38:52.001Z</time></trkpt><trkpt lat="40.33996564875808" lon="14.9965115553259"><ele>20.0</ele><time>2026-03-29T08:38:53.001Z</time></trkpt><trkpt lat="40.33991756708912" lon="14.996399287413727"><ele>19.833333333333336</ele><time>2026-03-29T08:38:54.001Z</time></trkpt><trkpt lat="40.339879949591875" lon="14.99629280977217"><ele>19.666666666666668</ele><time>2026-03-29T08:38:55.001Z</time></trkpt><trkpt lat="40.33984995297116" lon="14.996204279172717"><ele>19.5</ele><time>2026-03-29T08:38:56.001Z</time></trkpt><trkpt lat="40.339811533623745" lon="14.996108489656791"><ele>19.333333333333332</ele><time>2026-03-29T08:38:58.001Z</time></trkpt><trkpt lat="40.33972372468339" lon="14.996181607935103"><ele>19.166666666666664</ele><time>2026-03-29T08:39:00.001Z</time></trkpt><trkpt lat="40.33964117569439" lon="14.996199145952426"><ele>19.0</ele><time>2026-03-29T08:39:03.001Z</time></trkpt><trkpt lat="40.33959768233231" lon="14.996113757756032"><ele>19.0</ele><time>2026-03-29T08:39:04.001Z</time></trkpt><trkpt lat="40.33955770722253" lon="14.996047345432023"><ele>19.0</ele><time>2026-03-29T08:39:05.001Z</time></trkpt><trkpt lat="40.33950196853104" lon="14.995996952936688"><ele>19.0</ele><time>2026-03-29T08:39:06.001Z</time></trkpt><trkpt lat="40.33941184376191" lon="14.995938018982956"><ele>19.0</ele><time>2026-03-29T08:39:08.001Z</time></trkpt><trkpt lat="40.33935369541031" lon="14.995893755295159"><ele>19.0</ele><time>2026-03-29T08:39:09.001Z</time></trkpt><trkpt lat="40.33928801581132" lon="14.995825055682124"><ele>19.0</ele><time>2026-03-29T08:39:10.001Z</time></trkpt><trkpt lat="40.339219736177164" lon="14.995760478311729"><ele>18.8</ele><time>2026-03-29T08:39:11.001Z</time></trkpt><trkpt lat="40.339147125001915" lon="14.995699732574046"><ele>18.599999999999998</ele><time>2026-03-29T08:39:12.001Z</time></trkpt><trkpt lat="40.33906798050665" lon="14.995639742160547"><ele>18.4</ele><time>2026-03-29T08:39:13.001Z</time></trkpt><trkpt lat="40.33899333673264" lon="14.995580200871139"><ele>18.2</ele><time>2026-03-29T08:39:14.001Z</time></trkpt><trkpt lat="40.33892528597931" lon="14.995501137726658"><ele>18.0</ele><time>2026-03-29T08:39:15.001Z</time></trkpt><trkpt lat="40.3388579069413" lon="14.99540404287605"><ele>19.6</ele><time>2026-03-29T08:39:16.001Z</time></trkpt><trkpt lat="40.3387932833602" lon="14.995311989206296"><ele>21.200000000000003</ele><time>2026-03-29T08:39:17.001Z</time></trkpt><trkpt lat="40.33872722193911" lon="14.995218490279568"><ele>22.8</ele><time>2026-03-29T08:39:18.001Z</time></trkpt><trkpt lat="40.33866033681804" lon="14.995132011143784"><ele>24.400000000000002</ele><time>2026-03-29T08:39:19.001Z</time></trkpt><trkpt lat="40.33859388030312" lon="14.995062546556529"><ele>26.0</ele><time>2026-03-29T08:39:20Z</time></trkpt><trkpt lat="40.338526792172964" lon="14.995006475412081"><ele>25.333333333333332</ele><time>2026-03-29T08:39:21Z</time></trkpt><trkpt lat="40.33845522089491" lon="14.994932855240132"><ele>24.666666666666664</ele><time>2026-03-29T08:39:22Z</time></trkpt><trkpt lat="40.33839762726991" lon="14.994843661768142"><ele>24.0</ele><time>2026-03-29T08:39:23Z</time></trkpt><trkpt lat="40.33835172349983" lon="14.99475669763871"><ele>23.333333333333332</ele><time>2026-03-29T08:39:24Z</time></trkpt><trkpt lat="40.338320585496675" lon="14.994672724931002"><ele>22.666666666666664</ele><time>2026-03-29T08:39:25Z</time></trkpt><trkpt lat="40.338280321518724" lon="14.994568223924231"><ele>22.0</ele><time>2026-03-29T08:39:26Z</time></trkpt><trkpt lat="40.33823847596368" lon="14.994448381322247"><ele>22.0</ele><time>2026-03-29T08:39:27Z</time></trkpt><trkpt lat="40.33819871721309" lon="14.994327386823745"><ele>22.0</ele><time>2026-03-29T08:39:28Z</time></trkpt><trkpt lat="40.33816585342532" lon="14.994193572596863"><ele>22.0</ele><time>2026-03-29T08:39:29Z</time></trkpt><trkpt lat="40.33813696885641" lon="14.994058715639365"><ele>22.0</ele><time>2026-03-29T08:39:30Z</time></trkpt><trkpt lat="40.33810859977558" lon="14.993922085336138"><ele>22.0</ele><time>2026-03-29T08:39:31Z</time></trkpt><trkpt lat="40.338078423945475" lon="14.993793440698102"><ele>21.666666666666664</ele><time>2026-03-29T08:39:32Z</time></trkpt><trkpt lat="40.33804792304459" lon="14.993675471842442"><ele>21.333333333333332</ele><time>2026-03-29T08:39:33Z</time></trkpt><trkpt lat="40.338021336726975" lon="14.993566238668745"><ele>21.0</ele><time>2026-03-29T08:39:34Z</time></trkpt><trkpt lat="40.33799870587158" lon="14.993460264965947"><ele>20.666666666666668</ele><time>2026-03-29T08:39:35Z</time></trkpt><trkpt lat="40.337977109366406" lon="14.993375228762613"><ele>20.333333333333336</ele><time>2026-03-29T08:39:36Z</time></trkpt><trkpt lat="40.33796065907706" lon="14.993288223291042"><ele>20.0</ele><time>2026-03-29T08:39:38Z</time></trkpt><trkpt lat="40.33794503099325" lon="14.993199265598276"><ele>20.0</ele><time>2026-03-29T08:39:42Z</time></trkpt><trkpt lat="40.33784231457033" lon="14.993192042417222"><ele>20.0</ele><time>2026-03-29T08:39:44Z</time></trkpt><trkpt lat="40.33778075788869" lon="14.99317305106685"><ele>20.0</ele><time>2026-03-29T08:39:45Z</time></trkpt><trkpt lat="40.33765581976519" lon="14.99314220949862"><ele>20.0</ele><time>2026-03-29T08:39:47Z</time></trkpt><trkpt lat="40.337574819675474" lon="14.993105247041731"><ele>20.0</ele><time>2026-03-29T08:39:48Z</time></trkpt><trkpt lat="40.3374986440763" lon="14.993057489326121"><ele>20.0</ele><time>2026-03-29T08:39:49Z</time></trkpt><trkpt lat="40.3374224983027" lon="14.993013264824752"><ele>20.0</ele><time>2026-03-29T08:39:50Z</time></trkpt><trkpt lat="40.337341871929205" lon="14.992954084473494"><ele>20.0</ele><time>2026-03-29T08:39:51Z</time></trkpt><trkpt lat="40.33726911325848" lon="14.992887370163153"><ele>20.0</ele><time>2026-03-29T08:39:52Z</time></trkpt><trkpt lat="40.337214559284085" lon="14.992809703523788"><ele>20.0</ele><time>2026-03-29T08:39:53Z</time></trkpt><trkpt lat="40.33717803248" lon="14.992710938130063"><ele>20.0</ele><time>2026-03-29T08:39:54Z</time></trkpt><trkpt lat="40.33714748533781" lon="14.992591275956183"><ele>20.4</ele><time>2026-03-29T08:39:55Z</time></trkpt><trkpt lat="40.33712652635679" lon="14.992458129947666"><ele>20.8</ele><time>2026-03-29T08:39:56Z</time></trkpt><trkpt lat="40.33709856660014" lon="14.992326962433383"><ele>21.200000000000003</ele><time>2026-03-29T08:39:57Z</time></trkpt><trkpt lat="40.33706992804218" lon="14.992203484440068"><ele>21.6</ele><time>2026-03-29T08:39:58Z</time></trkpt><trkpt lat="40.33704094115237" lon="14.99207876367492"><ele>22.0</ele><time>2026-03-29T08:39:59Z</time></trkpt><trkpt lat="40.33700219719969" lon="14.99194875697368"><ele>22.0</ele><time>2026-03-29T08:40:00Z</time></trkpt><trkpt lat="40.336953495242625" lon="14.991822128784698"><ele>22.0</ele><time>2026-03-29T08:40:01Z</time></trkpt><trkpt lat="40.3368871352442" lon="14.991708399160192"><ele>22.0</ele><time>2026-03-29T08:40:02Z</time></trkpt><trkpt lat="40.33680464294046" lon="14.991607183536756"><ele>22.0</ele><time>2026-03-29T08:40:03Z</time></trkpt><trkpt lat="40.33670772248581" lon="14.991514925831174"><ele>21.25</ele><time>2026-03-29T08:40:04Z</time></trkpt><trkpt lat="40.336611895509535" lon="14.991413919057065"><ele>20.5</ele><time>2026-03-29T08:40:05Z</time></trkpt><trkpt lat="40.33651585366598" lon="14.99130823782604"><ele>19.75</ele><time>2026-03-29T08:40:06Z</time></trkpt><trkpt lat="40.33641397770617" lon="14.99120783740793"><ele>19.0</ele><time>2026-03-29T08:40:07Z</time></trkpt><trkpt lat="40.33631144815657" lon="14.991108794369156"><ele>18.75</ele><time>2026-03-29T08:40:08Z</time></trkpt><trkpt lat="40.33621089145769" lon="14.990998535639754"><ele>18.5</ele><time>2026-03-29T08:40:09Z</time></trkpt><trkpt lat="40.336106227710026" lon="14.990890883648731"><ele>18.25</ele><time>2026-03-29T08:40:10Z</time></trkpt><trkpt lat="40.33599871225948" lon="14.990789885237097"><ele>18.0</ele><time>2026-03-29T08:40:11Z</time></trkpt><trkpt lat="40.33589252427923" lon="14.99069700498295"><ele>18.0</ele><time>2026-03-29T08:40:12Z</time></trkpt><trkpt lat="40.33578102144949" lon="14.990606517252933"><ele>18.0</ele><time>2026-03-29T08:40:13Z</time></trkpt><trkpt lat="40.33566140108373" lon="14.990525451476193"><ele>18.0</ele><time>2026-03-29T08:40:14Z</time></trkpt><trkpt lat="40.33555703889691" lon="14.990461099712203"><ele>18.0</ele><time>2026-03-29T08:40:15Z</time></trkpt><trkpt lat="40.335460723660475" lon="14.990401389941269"><ele>19.5</ele><time>2026-03-29T08:40:16Z</time></trkpt><trkpt lat="40.33536914467399" lon="14.990341835560727"><ele>21.0</ele><time>2026-03-29T08:40:17Z</time></trkpt><trkpt lat="40.33527368937168" lon="14.990284040856963"><ele>22.5</ele><time>2026-03-29T08:40:18Z</time></trkpt><trkpt lat="40.33516262790962" lon="14.99023069914603"><ele>24.0</ele><time>2026-03-29T08:40:19Z</time></trkpt><trkpt lat="40.33503647757359" lon="14.990189764518341"><ele>24.0</ele><time>2026-03-29T08:40:20Z</time></trkpt><trkpt lat="40.33490313892992" lon="14.99015411696233"><ele>24.0</ele><time>2026-03-29T08:40:21Z</time></trkpt><trkpt lat="40.33476647309698" lon="14.990122361622408"><ele>24.0</ele><time>2026-03-29T08:40:22Z</time></trkpt><trkpt lat="40.33463432590948" lon="14.99010308006076"><ele>24.0</ele><time>2026-03-29T08:40:23Z</time></trkpt><trkpt lat="40.33449693013942" lon="14.9900908765367"><ele>25.0</ele><time>2026-03-29T08:40:24Z</time></trkpt><trkpt lat="40.3343646541419" lon="14.990104918350983"><ele>26.0</ele><time>2026-03-29T08:40:25Z</time></trkpt><trkpt lat="40.33422625604138" lon="14.990112397457937"><ele>27.0</ele><time>2026-03-29T08:40:26Z</time></trkpt><trkpt lat="40.33409412108955" lon="14.990109670769687"><ele>28.0</ele><time>2026-03-29T08:40:27Z</time></trkpt><trkpt lat="40.333961478657486" lon="14.990095927474693"><ele>28.0</ele><time>2026-03-29T08:40:28Z</time></trkpt><trkpt lat="40.33383164821229" lon="14.990077101400942"><ele>28.0</ele><time>2026-03-29T08:40:29Z</time></trkpt><trkpt lat="40.333695458427655" lon="14.99004844718967"><ele>28.0</ele><time>2026-03-29T08:40:30Z</time></trkpt><trkpt lat="40.33355626444476" lon="14.99001206168749"><ele>28.0</ele><time>2026-03-29T08:40:31Z</time></trkpt><trkpt lat="40.333423784014094" lon="14.989977478376836"><ele>28.0</ele><time>2026-03-29T08:40:32Z</time></trkpt><trkpt lat="40.333305223449244" lon="14.989946528024548"><ele>28.0</ele><time>2026-03-29T08:40:33Z</time></trkpt><trkpt lat="40.33317944037171" lon="14.989946225043177"><ele>28.0</ele><time>2026-03-29T08:40:34Z</time></trkpt><trkpt lat="40.33304710308651" lon="14.989958730935493"><ele>28.0</ele><time>2026-03-29T08:40:35Z</time></trkpt><trkpt lat="40.33290859900676" lon="14.989968501564038"><ele>29.5</ele><time>2026-03-29T08:40:36Z</time></trkpt><trkpt lat="40.332777512074" lon="14.989977142769595"><ele>31.0</ele><time>2026-03-29T08:40:37Z</time></trkpt><trkpt lat="40.33264538836856" lon="14.98997392108511"><ele>32.5</ele><time>2026-03-29T08:40:38Z</time></trkpt><trkpt lat="40.33250901777752" lon="14.98996224443657"><ele>34.0</ele><time>2026-03-29T08:40:39Z</time></trkpt><trkpt lat="40.332371071345136" lon="14.989952621712101"><ele>34.0</ele><time>2026-03-29T08:40:40Z</time></trkpt><trkpt lat="40.332239949911724" lon="14.989946184564253"><ele>34.0</ele><time>2026-03-29T08:40:41Z</time></trkpt><trkpt lat="40.332115971101736" lon="14.98993530197362"><ele>34.0</ele><time>2026-03-29T08:40:42.001Z</time></trkpt><trkpt lat="40.331990679457114" lon="14.989923567297893"><ele>34.0</ele><time>2026-03-29T08:40:43.001Z</time></trkpt><trkpt lat="40.331863039061645" lon="14.989906429378442"><ele>34.75</ele><time>2026-03-29T08:40:44.001Z</time></trkpt><trkpt lat="40.33173411690012" lon="14.989880532642744"><ele>35.5</ele><time>2026-03-29T08:40:45.001Z</time></trkpt><trkpt lat="40.33160595828695" lon="14.989848517334078"><ele>36.25</ele><time>2026-03-29T08:40:46.001Z</time></trkpt><trkpt lat="40.331487876082" lon="14.989826999382215"><ele>37.0</ele><time>2026-03-29T08:40:47.001Z</time></trkpt><trkpt lat="40.33137058902824" lon="14.989801811761195"><ele>37.75</ele><time>2026-03-29T08:40:48.001Z</time></trkpt><trkpt lat="40.33126219887993" lon="14.989776003812294"><ele>38.5</ele><time>2026-03-29T08:40:49.001Z</time></trkpt><trkpt lat="40.33114715388259" lon="14.989743815386257"><ele>39.25</ele><time>2026-03-29T08:40:50.001Z</time></trkpt><trkpt lat="40.33104024978312" lon="14.989695486428237"><ele>40.0</ele><time>2026-03-29T08:40:51.001Z</time></trkpt><trkpt lat="40.33093463405084" lon="14.989635614842825"><ele>40.0</ele><time>2026-03-29T08:40:52.001Z</time></trkpt><trkpt lat="40.33084651906253" lon="14.989578040176424"><ele>40.0</ele><time>2026-03-29T08:40:53.001Z</time></trkpt><trkpt lat="40.33075777769792" lon="14.989521495511541"><ele>40.0</ele><time>2026-03-29T08:40:54.001Z</time></trkpt><trkpt lat="40.33068787077838" lon="14.989452633516958"><ele>40.0</ele><time>2026-03-29T08:40:55.001Z</time></trkpt><trkpt lat="40.330628779990825" lon="14.989362531711674"><ele>40.0</ele><time>2026-03-29T08:40:56.001Z</time></trkpt><trkpt lat="40.33055931476535" lon="14.989275155702718"><ele>41.4</ele><time>2026-03-29T08:40:57.001Z</time></trkpt><trkpt lat="40.330469957094785" lon="14.98921101909972"><ele>42.8</ele><time>2026-03-29T08:40:58.001Z</time></trkpt><trkpt lat="40.330374902107394" lon="14.989184237867935"><ele>44.2</ele><time>2026-03-29T08:40:59.001Z</time></trkpt><trkpt lat="40.33026311022509" lon="14.989187268556387"><ele>45.6</ele><time>2026-03-29T08:41:00.001Z</time></trkpt><trkpt lat="40.33014986192231" lon="14.989186336313775"><ele>47.0</ele><time>2026-03-29T08:41:01.001Z</time></trkpt><trkpt lat="40.330033002467445" lon="14.989192581883406"><ele>47.0</ele><time>2026-03-29T08:41:02.001Z</time></trkpt><trkpt lat="40.32991351352822" lon="14.989207087006319"><ele>47.0</ele><time>2026-03-29T08:41:03.001Z</time></trkpt><trkpt lat="40.32980538146329" lon="14.98918872749563"><ele>47.0</ele><time>2026-03-29T08:41:04.001Z</time></trkpt><trkpt lat="40.32970945287566" lon="14.989186344320936"><ele>47.0</ele><time>2026-03-29T08:41:05.001Z</time></trkpt><trkpt lat="40.32959830402964" lon="14.989201235623193"><ele>47.0</ele><time>2026-03-29T08:41:06.001Z</time></trkpt><trkpt lat="40.3294851078088" lon="14.989184954443582"><ele>47.0</ele><time>2026-03-29T08:41:07.001Z</time></trkpt><trkpt lat="40.32936879209832" lon="14.989170331898766"><ele>47.0</ele><time>2026-03-29T08:41:08.001Z</time></trkpt><trkpt lat="40.32925140484155" lon="14.989157019513978"><ele>47.0</ele><time>2026-03-29T08:41:09.001Z</time></trkpt><trkpt lat="40.329134130199115" lon="14.98914444618401"><ele>47.0</ele><time>2026-03-29T08:41:10.001Z</time></trkpt><trkpt lat="40.32902625029807" lon="14.989133927337328"><ele>47.0</ele><time>2026-03-29T08:41:11.001Z</time></trkpt><trkpt lat="40.32892490300581" lon="14.989120078805744"><ele>47.0</ele><time>2026-03-29T08:41:12.001Z</time></trkpt><trkpt lat="40.32882945333309" lon="14.989109347128636"><ele>47.0</ele><time>2026-03-29T08:41:13.001Z</time></trkpt><trkpt lat="40.32872955497409" lon="14.989120374006697"><ele>47.0</ele><time>2026-03-29T08:41:14.001Z</time></trkpt><trkpt lat="40.32863442526034" lon="14.98913592342494"><ele>47.0</ele><time>2026-03-29T08:41:15.001Z</time></trkpt><trkpt lat="40.32854212556846" lon="14.989150406240961"><ele>47.400000000000006</ele><time>2026-03-29T08:41:16.001Z</time></trkpt><trkpt lat="40.328450806313235" lon="14.989127712474179"><ele>47.800000000000004</ele><time>2026-03-29T08:41:17.001Z</time></trkpt><trkpt lat="40.328359782673864" lon="14.989124167868054"><ele>48.2</ele><time>2026-03-29T08:41:18.001Z</time></trkpt><trkpt lat="40.32828103942491" lon="14.98906465670798"><ele>48.6</ele><time>2026-03-29T08:41:19.001Z</time></trkpt><trkpt lat="40.32820902575429" lon="14.988984105445962"><ele>49.0</ele><time>2026-03-29T08:41:20.001Z</time></trkpt><trkpt lat="40.328139949028156" lon="14.988893242883632"><ele>49.0</ele><time>2026-03-29T08:41:21.001Z</time></trkpt><trkpt lat="40.328072389092895" lon="14.988787509397545"><ele>49.0</ele><time>2026-03-29T08:41:22.001Z</time></trkpt><trkpt lat="40.32801427167612" lon="14.988674193269835"><ele>49.0</ele><time>2026-03-29T08:41:23.001Z</time></trkpt><trkpt lat="40.327962607303476" lon="14.988548519312479"><ele>49.0</ele><time>2026-03-29T08:41:24.001Z</time></trkpt><trkpt lat="40.3279156873298" lon="14.988432960055194"><ele>49.0</ele><time>2026-03-29T08:41:25.001Z</time></trkpt><trkpt lat="40.32786469115174" lon="14.988334784584126"><ele>50.2</ele><time>2026-03-29T08:41:26Z</time></trkpt><trkpt lat="40.32780218605649" lon="14.988253546289595"><ele>51.400000000000006</ele><time>2026-03-29T08:41:27Z</time></trkpt><trkpt lat="40.327734791388394" lon="14.988160618290646"><ele>52.6</ele><time>2026-03-29T08:41:28Z</time></trkpt><trkpt lat="40.32765927044813" lon="14.988088709807336"><ele>53.8</ele><time>2026-03-29T08:41:29Z</time></trkpt><trkpt lat="40.32758464683335" lon="14.988039905046557"><ele>55.0</ele><time>2026-03-29T08:41:30Z</time></trkpt><trkpt lat="40.32748687017371" lon="14.988017108518024"><ele>54.99999999999999</ele><time>2026-03-29T08:41:31Z</time></trkpt><trkpt lat="40.32741170676006" lon="14.988024463833499"><ele>55.0</ele><time>2026-03-29T08:41:32Z</time></trkpt><trkpt lat="40.32734802206384" lon="14.988048240620374"><ele>55.0</ele><time>2026-03-29T08:41:33Z</time></trkpt><trkpt lat="40.32728261399474" lon="14.988168600121876"><ele>55.0</ele><time>2026-03-29T08:41:35Z</time></trkpt><trkpt lat="40.327282511734865" lon="14.988270320829495"><ele>54.99999999999999</ele><time>2026-03-29T08:41:36Z</time></trkpt><trkpt lat="40.327297840530086" lon="14.988372500871105"><ele>55.0</ele><time>2026-03-29T08:41:37Z</time></trkpt><trkpt lat="40.327319723171414" lon="14.988466520177157"><ele>55.666666666666664</ele><time>2026-03-29T08:41:38Z</time></trkpt><trkpt lat="40.327333345956006" lon="14.98857030141925"><ele>56.33333333333333</ele><time>2026-03-29T08:41:39Z</time></trkpt><trkpt lat="40.32731793963053" lon="14.988670681376753"><ele>57.0</ele><time>2026-03-29T08:41:40Z</time></trkpt><trkpt lat="40.32731527442757" lon="14.988768318772982"><ele>57.66666666666667</ele><time>2026-03-29T08:41:41Z</time></trkpt><trkpt lat="40.327306843660466" lon="14.98887275590918"><ele>58.333333333333336</ele><time>2026-03-29T08:41:42Z</time></trkpt><trkpt lat="40.327286798556585" lon="14.988975442555704"><ele>59.0</ele><time>2026-03-29T08:41:43Z</time></trkpt><trkpt lat="40.327259197957446" lon="14.989077404224897"><ele>61.16666666666667</ele><time>2026-03-29T08:41:44Z</time></trkpt><trkpt lat="40.32722168705325" lon="14.989170282487109"><ele>63.333333333333336</ele><time>2026-03-29T08:41:45Z</time></trkpt><trkpt lat="40.32719135742065" lon="14.989270844238229"><ele>65.5</ele><time>2026-03-29T08:41:46Z</time></trkpt><trkpt lat="40.32714156841589" lon="14.989366120876658"><ele>67.66666666666667</ele><time>2026-03-29T08:41:47Z</time></trkpt><trkpt lat="40.32710044783296" lon="14.989462959094954"><ele>69.83333333333333</ele><time>2026-03-29T08:41:48Z</time></trkpt><trkpt lat="40.327051882406145" lon="14.989548785477519"><ele>72.0</ele><time>2026-03-29T08:41:49Z</time></trkpt><trkpt lat="40.327004997978584" lon="14.989629757872976"><ele>72.16666666666667</ele><time>2026-03-29T08:41:50Z</time></trkpt><trkpt lat="40.32696245771348" lon="14.989709175644856"><ele>72.33333333333333</ele><time>2026-03-29T08:41:51Z</time></trkpt><trkpt lat="40.32690689604034" lon="14.989784863995075"><ele>72.5</ele><time>2026-03-29T08:41:52Z</time></trkpt><trkpt lat="40.326836032432126" lon="14.989861954223842"><ele>72.66666666666666</ele><time>2026-03-29T08:41:53Z</time></trkpt><trkpt lat="40.32676313341821" lon="14.989933437053487"><ele>72.83333333333333</ele><time>2026-03-29T08:41:54Z</time></trkpt><trkpt lat="40.32668803488744" lon="14.990004464624002"><ele>73.0</ele><time>2026-03-29T08:41:55Z</time></trkpt><trkpt lat="40.32662683960505" lon="14.990078833925063"><ele>73.16666666666666</ele><time>2026-03-29T08:41:56Z</time></trkpt><trkpt lat="40.32658448289935" lon="14.990163114755108"><ele>73.33333333333333</ele><time>2026-03-29T08:41:57Z</time></trkpt><trkpt lat="40.32655562753943" lon="14.990270476275727"><ele>73.5</ele><time>2026-03-29T08:41:58Z</time></trkpt><trkpt lat="40.32654615125851" lon="14.990393625677637"><ele>73.66666666666667</ele><time>2026-03-29T08:41:59Z</time></trkpt><trkpt lat="40.326544967067086" lon="14.990505176549155"><ele>73.83333333333334</ele><time>2026-03-29T08:42:00Z</time></trkpt><trkpt lat="40.326532312420284" lon="14.990611671105068"><ele>74.0</ele><time>2026-03-29T08:42:01Z</time></trkpt><trkpt lat="40.32652508266115" lon="14.990722972114913"><ele>74.0</ele><time>2026-03-29T08:42:02Z</time></trkpt><trkpt lat="40.32652513159151" lon="14.99083436289519"><ele>74.0</ele><time>2026-03-29T08:42:03Z</time></trkpt><trkpt lat="40.32648231999992" lon="14.990939016378668"><ele>74.0</ele><time>2026-03-29T08:42:04Z</time></trkpt><trkpt lat="40.3264395746406" lon="14.991036801162691"><ele>74.0</ele><time>2026-03-29T08:42:05Z</time></trkpt><trkpt lat="40.32639002102044" lon="14.991124492536144"><ele>74.0</ele><time>2026-03-29T08:42:06Z</time></trkpt><trkpt lat="40.326350105705174" lon="14.991192735925415"><ele>74.0</ele><time>2026-03-29T08:42:07Z</time></trkpt><trkpt lat="40.32620862612914" lon="14.991203083178618"><ele>76.0</ele><time>2026-03-29T08:42:09Z</time></trkpt><trkpt lat="40.326157201567945" lon="14.9911201508024"><ele>78.0</ele><time>2026-03-29T08:42:10Z</time></trkpt><trkpt lat="40.326080139790314" lon="14.991072459202751"><ele>80.0</ele><time>2026-03-29T08:42:11Z</time></trkpt><trkpt lat="40.32600542415812" lon="14.990986686739557"><ele>82.0</ele><time>2026-03-29T08:42:12Z</time></trkpt><trkpt lat="40.32592234359624" lon="14.990914746613393"><ele>84.0</ele><time>2026-03-29T08:42:13Z</time></trkpt><trkpt lat="40.32584590742309" lon="14.990832401008085"><ele>84.0</ele><time>2026-03-29T08:42:14Z</time></trkpt><trkpt lat="40.32578217968762" lon="14.990733854482833"><ele>84.0</ele><time>2026-03-29T08:42:15Z</time></trkpt><trkpt lat="40.32572114421309" lon="14.990621839168751"><ele>84.0</ele><time>2026-03-29T08:42:16Z</time></trkpt><trkpt lat="40.325663015000046" lon="14.990501932469101"><ele>84.0</ele><time>2026-03-29T08:42:17Z</time></trkpt><trkpt lat="40.32561163346107" lon="14.99037370209341"><ele>84.0</ele><time>2026-03-29T08:42:18Z</time></trkpt><trkpt lat="40.32556596358398" lon="14.990254373407366"><ele>86.80000000000001</ele><time>2026-03-29T08:42:19Z</time></trkpt><trkpt lat="40.32550071188106" lon="14.99013891844398"><ele>89.60000000000001</ele><time>2026-03-29T08:42:20Z</time></trkpt><trkpt lat="40.32545297840642" lon="14.990022939076935"><ele>92.4</ele><time>2026-03-29T08:42:21Z</time></trkpt><trkpt lat="40.325413243541526" lon="14.989911454676978"><ele>95.2</ele><time>2026-03-29T08:42:22Z</time></trkpt><trkpt lat="40.325358691335225" lon="14.989809503392033"><ele>98.0</ele><time>2026-03-29T08:42:23Z</time></trkpt><trkpt lat="40.32529248121695" lon="14.989716380079534"><ele>98.16666666666666</ele><time>2026-03-29T08:42:24Z</time></trkpt><trkpt lat="40.325223300649675" lon="14.989647528590835"><ele>98.33333333333333</ele><time>2026-03-29T08:42:25Z</time></trkpt><trkpt lat="40.3251487736072" lon="14.989598391419065"><ele>98.5</ele><time>2026-03-29T08:42:26Z</time></trkpt><trkpt lat="40.32506947175167" lon="14.989604973426363"><ele>98.66666666666666</ele><time>2026-03-29T08:42:27Z</time></trkpt><trkpt lat="40.32499389621651" lon="14.989643764485324"><ele>98.83333333333333</ele><time>2026-03-29T08:42:28Z</time></trkpt><trkpt lat="40.324919223418135" lon="14.98970871811637"><ele>99.0</ele><time>2026-03-29T08:42:29Z</time></trkpt><trkpt lat="40.324849235384285" lon="14.989784800699464"><ele>99.0</ele><time>2026-03-29T08:42:30Z</time></trkpt><trkpt lat="40.32478557040018" lon="14.98987954976992"><ele>99.0</ele><time>2026-03-29T08:42:31Z</time></trkpt><trkpt lat="40.3247324420686" lon="14.989979324005821"><ele>99.0</ele><time>2026-03-29T08:42:32Z</time></trkpt><trkpt lat="40.32466960568542" lon="14.990070955791664"><ele>99.0</ele><time>2026-03-29T08:42:33Z</time></trkpt><trkpt lat="40.32460908238267" lon="14.990147776229527"><ele>99.0</ele><time>2026-03-29T08:42:34Z</time></trkpt><trkpt lat="40.32455314450222" lon="14.99021341398674"><ele>99.0</ele><time>2026-03-29T08:42:35Z</time></trkpt><trkpt lat="40.32450648138271" lon="14.990270376417701"><ele>102.80000000000001</ele><time>2026-03-29T08:42:36Z</time></trkpt><trkpt lat="40.324408567244625" lon="14.990310053939206"><ele>106.60000000000001</ele><time>2026-03-29T08:42:38Z</time></trkpt><trkpt lat="40.32427457649506" lon="14.990280075263794"><ele>110.4</ele><time>2026-03-29T08:42:40Z</time></trkpt><trkpt lat="40.32420158565263" lon="14.99024065861287"><ele>114.2</ele><time>2026-03-29T08:42:41Z</time></trkpt><trkpt lat="40.32412455175742" lon="14.99019555437787"><ele>118.0</ele><time>2026-03-29T08:42:42Z</time></trkpt><trkpt lat="40.32404259909626" lon="14.990172138435659"><ele>118.0</ele><time>2026-03-29T08:42:43Z</time></trkpt><trkpt lat="40.323954424555076" lon="14.990160707760893"><ele>118.00000000000001</ele><time>2026-03-29T08:42:44Z</time></trkpt><trkpt lat="40.32385191951889" lon="14.990153549037288"><ele>118.00000000000001</ele><time>2026-03-29T08:42:45Z</time></trkpt><trkpt lat="40.32375016823731" lon="14.990140949914242"><ele>118.0</ele><time>2026-03-29T08:42:46Z</time></trkpt><trkpt lat="40.32364604172756" lon="14.990154242269986"><ele>118.0</ele><time>2026-03-29T08:42:47.001Z</time></trkpt><trkpt lat="40.32354217276981" lon="14.990154439940017"><ele>120.4</ele><time>2026-03-29T08:42:48.001Z</time></trkpt><trkpt lat="40.323442607539405" lon="14.990142827653072"><ele>122.80000000000001</ele><time>2026-03-29T08:42:49.001Z</time></trkpt><trkpt lat="40.323338372538046" lon="14.990137459957083"><ele>125.2</ele><time>2026-03-29T08:42:50.001Z</time></trkpt><trkpt lat="40.323238907547626" lon="14.990146922703124"><ele>127.6</ele><time>2026-03-29T08:42:51.001Z</time></trkpt><trkpt lat="40.32314850680858" lon="14.990163719061552"><ele>130.0</ele><time>2026-03-29T08:42:52.001Z</time></trkpt><trkpt lat="40.323064690963974" lon="14.990139010413516"><ele>131.2</ele><time>2026-03-29T08:42:53.001Z</time></trkpt><trkpt lat="40.32298995826048" lon="14.990085091304582"><ele>132.4</ele><time>2026-03-29T08:42:54.001Z</time></trkpt><trkpt lat="40.32292860423564" lon="14.989991581979007"><ele>133.6</ele><time>2026-03-29T08:42:55.001Z</time></trkpt><trkpt lat="40.322839330063644" lon="14.989920166151233"><ele>134.8</ele><time>2026-03-29T08:42:56.001Z</time></trkpt><trkpt lat="40.3227644178051" lon="14.98982124183716"><ele>136.0</ele><time>2026-03-29T08:42:57.001Z</time></trkpt><trkpt lat="40.3226814887275" lon="14.989719560944472"><ele>136.0</ele><time>2026-03-29T08:42:58.001Z</time></trkpt><trkpt lat="40.322592433748554" lon="14.989619190693992"><ele>136.0</ele><time>2026-03-29T08:42:59.001Z</time></trkpt><trkpt lat="40.322499081315875" lon="14.989527307723996"><ele>136.0</ele><time>2026-03-29T08:43:00.001Z</time></trkpt><trkpt lat="40.32239643065267" lon="14.989448345139"><ele>136.0</ele><time>2026-03-29T08:43:01.001Z</time></trkpt><trkpt lat="40.32229091610987" lon="14.989361711064566"><ele>137.25</ele><time>2026-03-29T08:43:02.001Z</time></trkpt><trkpt lat="40.322185290557854" lon="14.989290222776521"><ele>138.5</ele><time>2026-03-29T08:43:03.001Z</time></trkpt><trkpt lat="40.322071716200206" lon="14.989210331082488"><ele>139.75</ele><time>2026-03-29T08:43:04.001Z</time></trkpt><trkpt lat="40.32196446283185" lon="14.989128608298088"><ele>141.0</ele><time>2026-03-29T08:43:05.001Z</time></trkpt><trkpt lat="40.3218812877112" lon="14.98905139196265"><ele>141.0</ele><time>2026-03-29T08:43:06.001Z</time></trkpt><trkpt lat="40.32181714189114" lon="14.988975416483031"><ele>141.0</ele><time>2026-03-29T08:43:07.001Z</time></trkpt><trkpt lat="40.321758883995024" lon="14.988916677182695"><ele>141.0</ele><time>2026-03-29T08:43:08.001Z</time></trkpt><trkpt lat="40.32167015663629" lon="14.988830210143457"><ele>141.0</ele><time>2026-03-29T08:43:10.001Z</time></trkpt><trkpt lat="40.321626639022874" lon="14.98876638953742"><ele>141.0</ele><time>2026-03-29T08:43:13.001Z</time></trkpt><trkpt lat="40.32152578624278" lon="14.988916227369526"><ele>141.0</ele><time>2026-03-29T08:43:35Z</time></trkpt><trkpt lat="40.321458353838075" lon="14.989017006586973"><ele>141.0</ele><time>2026-03-29T08:43:37Z</time></trkpt><trkpt lat="40.321401269131286" lon="14.989169912973969"><ele>141.0</ele><time>2026-03-29T08:43:39Z</time></trkpt><trkpt lat="40.32138555338106" lon="14.989269042289282"><ele>141.0</ele><time>2026-03-29T08:43:40Z</time></trkpt><trkpt lat="40.32138307564096" lon="14.989371512912887"><ele>141.0</ele><time>2026-03-29T08:43:41Z</time></trkpt><trkpt lat="40.321401260415605" lon="14.98948679914007"><ele>142.83333333333334</ele><time>2026-03-29T08:43:42Z</time></trkpt><trkpt lat="40.321435323684746" lon="14.989561009727701"><ele>144.66666666666666</ele><time>2026-03-29T08:43:43Z</time></trkpt><trkpt lat="40.32149669259258" lon="14.989643147846214"><ele>146.5</ele><time>2026-03-29T08:43:44Z</time></trkpt><trkpt lat="40.32156484783039" lon="14.989707957835472"><ele>148.33333333333331</ele><time>2026-03-29T08:43:45Z</time></trkpt><trkpt lat="40.321651839182394" lon="14.989755768300375"><ele>150.16666666666666</ele><time>2026-03-29T08:43:46Z</time></trkpt><trkpt lat="40.32175105874261" lon="14.989790950744974"><ele>152.0</ele><time>2026-03-29T08:43:47Z</time></trkpt><trkpt lat="40.32184855148889" lon="14.989859949996246"><ele>152.0</ele><time>2026-03-29T08:43:48Z</time></trkpt><trkpt lat="40.32194420910331" lon="14.989917377207417"><ele>152.0</ele><time>2026-03-29T08:43:49Z</time></trkpt><trkpt lat="40.322036296852154" lon="14.989987553204674"><ele>152.0</ele><time>2026-03-29T08:43:50Z</time></trkpt><trkpt lat="40.32211554585469" lon="14.990069230195306"><ele>152.0</ele><time>2026-03-29T08:43:51Z</time></trkpt><trkpt lat="40.32218387015154" lon="14.990161374003016"><ele>152.0</ele><time>2026-03-29T08:43:52Z</time></trkpt><trkpt lat="40.32225135023473" lon="14.990260222509894"><ele>152.25</ele><time>2026-03-29T08:43:53Z</time></trkpt><trkpt lat="40.322262860061365" lon="14.990391946575436"><ele>152.5</ele><time>2026-03-29T08:43:54Z</time></trkpt><trkpt lat="40.32229687211436" lon="14.990541581553039"><ele>152.75</ele><time>2026-03-29T08:43:55Z</time></trkpt><trkpt lat="40.32232952966484" lon="14.990709450588865"><ele>153.0</ele><time>2026-03-29T08:43:56Z</time></trkpt><trkpt lat="40.32237691058985" lon="14.990883984408269"><ele>153.0</ele><time>2026-03-29T08:43:57Z</time></trkpt><trkpt lat="40.322416967286756" lon="14.991062349651799"><ele>153.0</ele><time>2026-03-29T08:43:58Z</time></trkpt><trkpt lat="40.32244869084221" lon="14.991245149017399"><ele>153.0</ele><time>2026-03-29T08:43:59Z</time></trkpt><trkpt lat="40.32249554967109" lon="14.991398616851013"><ele>153.0</ele><time>2026-03-29T08:44:00Z</time></trkpt><trkpt lat="40.3225378934569" lon="14.991527354577311"><ele>153.0</ele><time>2026-03-29T08:44:01Z</time></trkpt><trkpt lat="40.32256971785337" lon="14.99164917187621"><ele>153.0</ele><time>2026-03-29T08:44:02Z</time></trkpt><trkpt lat="40.32259575500629" lon="14.991786465542642"><ele>153.0</ele><time>2026-03-29T08:44:03Z</time></trkpt><trkpt lat="40.322611544903566" lon="14.991937505367117"><ele>153.0</ele><time>2026-03-29T08:44:04Z</time></trkpt><trkpt lat="40.322627863971405" lon="14.992092103370322"><ele>153.0</ele><time>2026-03-29T08:44:05Z</time></trkpt><trkpt lat="40.322650781950585" lon="14.992241882427008"><ele>154.8</ele><time>2026-03-29T08:44:06Z</time></trkpt><trkpt lat="40.32266943895468" lon="14.992385412971355"><ele>156.60000000000002</ele><time>2026-03-29T08:44:07Z</time></trkpt><trkpt lat="40.32267836799286" lon="14.992529517316315"><ele>158.39999999999998</ele><time>2026-03-29T08:44:08Z</time></trkpt><trkpt lat="40.322699004101224" lon="14.992674886511214"><ele>160.2</ele><time>2026-03-29T08:44:09Z</time></trkpt><trkpt lat="40.32272159534415" lon="14.992822356457772"><ele>162.0</ele><time>2026-03-29T08:44:10Z</time></trkpt><trkpt lat="40.32273925549553" lon="14.992953506296908"><ele>163.0</ele><time>2026-03-29T08:44:11Z</time></trkpt><trkpt lat="40.322764841346526" lon="14.993082658135387"><ele>164.0</ele><time>2026-03-29T08:44:12Z</time></trkpt><trkpt lat="40.32279239138408" lon="14.993228005088426"><ele>165.0</ele><time>2026-03-29T08:44:13Z</time></trkpt><trkpt lat="40.32281477351696" lon="14.993367430449348"><ele>166.0</ele><time>2026-03-29T08:44:14Z</time></trkpt><trkpt lat="40.322823699281386" lon="14.993508960527443"><ele>167.0</ele><time>2026-03-29T08:44:15Z</time></trkpt><trkpt lat="40.3228456803867" lon="14.993624595110381"><ele>168.6</ele><time>2026-03-29T08:44:16Z</time></trkpt><trkpt lat="40.32285195508178" lon="14.993750893011766"><ele>170.2</ele><time>2026-03-29T08:44:17Z</time></trkpt><trkpt lat="40.322858112390044" lon="14.993889424205967"><ele>171.8</ele><time>2026-03-29T08:44:18Z</time></trkpt><trkpt lat="40.32287518582426" lon="14.994014063051258"><ele>173.4</ele><time>2026-03-29T08:44:19Z</time></trkpt><trkpt lat="40.32288496861597" lon="14.994145817211159"><ele>175.0</ele><time>2026-03-29T08:44:20Z</time></trkpt><trkpt lat="40.32288157124829" lon="14.994279326353256"><ele>177.0</ele><time>2026-03-29T08:44:21Z</time></trkpt><trkpt lat="40.32288080856815" lon="14.994385325902263"><ele>179.0</ele><time>2026-03-29T08:44:22Z</time></trkpt><trkpt lat="40.32286789668501" lon="14.994472652998356"><ele>181.0</ele><time>2026-03-29T08:44:23Z</time></trkpt><trkpt lat="40.32283957787024" lon="14.994590242005518"><ele>183.0</ele><time>2026-03-29T08:44:25Z</time></trkpt><trkpt lat="40.32278870392934" lon="14.994669655038889"><ele>185.0</ele><time>2026-03-29T08:44:27Z</time></trkpt><trkpt lat="40.322806912236196" lon="14.99475124825084"><ele>187.0</ele><time>2026-03-29T08:44:29Z</time></trkpt><trkpt lat="40.32286414168212" lon="14.9948798881283"><ele>187.0</ele><time>2026-03-29T08:44:31Z</time></trkpt><trkpt lat="40.32289201006145" lon="14.99497537871425"><ele>187.0</ele><time>2026-03-29T08:44:33Z</time></trkpt><trkpt lat="40.32294815988568" lon="14.995110248116593"><ele>187.0</ele><time>2026-03-29T08:44:35Z</time></trkpt><trkpt lat="40.32299643119578" lon="14.995185926762788"><ele>187.0</ele><time>2026-03-29T08:44:36Z</time></trkpt><trkpt lat="40.32302353678489" lon="14.995280452951178"><ele>187.0</ele><time>2026-03-29T08:44:37Z</time></trkpt><trkpt lat="40.32306420088013" lon="14.99537363436786"><ele>187.0</ele><time>2026-03-29T08:44:38Z</time></trkpt><trkpt lat="40.32310996751054" lon="14.995466455022799"><ele>183.83333333333334</ele><time>2026-03-29T08:44:39Z</time></trkpt><trkpt lat="40.32316465042974" lon="14.995539464385267"><ele>180.66666666666669</ele><time>2026-03-29T08:44:40Z</time></trkpt><trkpt lat="40.32321719226019" lon="14.99561843287099"><ele>177.5</ele><time>2026-03-29T08:44:41Z</time></trkpt><trkpt lat="40.32330269050538" lon="14.995677106070394"><ele>174.33333333333334</ele><time>2026-03-29T08:44:42.001Z</time></trkpt><trkpt lat="40.323384572798346" lon="14.995710605963703"><ele>171.16666666666666</ele><time>2026-03-29T08:44:43.001Z</time></trkpt><trkpt lat="40.323458110587744" lon="14.995759747908735"><ele>168.0</ele><time>2026-03-29T08:44:44.001Z</time></trkpt><trkpt lat="40.32351512636862" lon="14.995828395889923"><ele>170.4</ele><time>2026-03-29T08:44:45.001Z</time></trkpt><trkpt lat="40.323561246665626" lon="14.995921444609754"><ele>172.8</ele><time>2026-03-29T08:44:46.001Z</time></trkpt><trkpt lat="40.32359952512435" lon="14.99603274541721"><ele>175.2</ele><time>2026-03-29T08:44:47.001Z</time></trkpt><trkpt lat="40.32361347510485" lon="14.996158265583233"><ele>177.6</ele><time>2026-03-29T08:44:48.001Z</time></trkpt><trkpt lat="40.32364961834404" lon="14.996276963318383"><ele>180.0</ele><time>2026-03-29T08:44:49.001Z</time></trkpt><trkpt lat="40.323671118815994" lon="14.99639855262662"><ele>180.0</ele><time>2026-03-29T08:44:50.001Z</time></trkpt><trkpt lat="40.32368420348122" lon="14.99652958201829"><ele>180.0</ele><time>2026-03-29T08:44:51.001Z</time></trkpt><trkpt lat="40.32372634683943" lon="14.996655525869839"><ele>180.0</ele><time>2026-03-29T08:44:52.001Z</time></trkpt><trkpt lat="40.32379210650847" lon="14.996763217501861"><ele>180.0</ele><time>2026-03-29T08:44:53.001Z</time></trkpt><trkpt lat="40.323861885566984" lon="14.996878656575644"><ele>180.0</ele><time>2026-03-29T08:44:54.001Z</time></trkpt><trkpt lat="40.323919042628454" lon="14.997008788137618"><ele>179.2</ele><time>2026-03-29T08:44:55.001Z</time></trkpt><trkpt lat="40.323997277035595" lon="14.997109351052885"><ele>178.4</ele><time>2026-03-29T08:44:56.001Z</time></trkpt><trkpt lat="40.32406098805016" lon="14.997233099321207"><ele>177.60000000000002</ele><time>2026-03-29T08:44:57.001Z</time></trkpt><trkpt lat="40.32414038144814" lon="14.997340618970204"><ele>176.8</ele><time>2026-03-29T08:44:58.001Z</time></trkpt><trkpt lat="40.32419095767277" lon="14.99745453611294"><ele>176.0</ele><time>2026-03-29T08:44:59.001Z</time></trkpt><trkpt lat="40.32424269810937" lon="14.997546970523633"><ele>177.33333333333331</ele><time>2026-03-29T08:45:00.001Z</time></trkpt><trkpt lat="40.324283714984496" lon="14.997641152446128"><ele>178.66666666666666</ele><time>2026-03-29T08:45:01.001Z</time></trkpt><trkpt lat="40.32430373173934" lon="14.997798196677369"><ele>180.0</ele><time>2026-03-29T08:45:03.001Z</time></trkpt><trkpt lat="40.32428417576807" lon="14.997882571736335"><ele>181.33333333333334</ele><time>2026-03-29T08:45:04.001Z</time></trkpt><trkpt lat="40.32424160004669" lon="14.997970872277548"><ele>182.66666666666669</ele><time>2026-03-29T08:45:05.001Z</time></trkpt><trkpt lat="40.32419743184157" lon="14.998076857223463"><ele>184.0</ele><time>2026-03-29T08:45:06.001Z</time></trkpt><trkpt lat="40.32417451386851" lon="14.998197764382112"><ele>184.0</ele><time>2026-03-29T08:45:07.001Z</time></trkpt><trkpt lat="40.324154432334105" lon="14.998322825450115"><ele>184.0</ele><time>2026-03-29T08:45:08.001Z</time></trkpt><trkpt lat="40.32414349222534" lon="14.99845153877299"><ele>184.0</ele><time>2026-03-29T08:45:09.001Z</time></trkpt><trkpt lat="40.324122458628366" lon="14.998580215713556"><ele>184.0</ele><time>2026-03-29T08:45:10.001Z</time></trkpt><trkpt lat="40.3241205711272" lon="14.998710954852285"><ele>184.0</ele><time>2026-03-29T08:45:11.001Z</time></trkpt><trkpt lat="40.324120913018774" lon="14.998841180838644"><ele>185.33333333333334</ele><time>2026-03-29T08:45:12.001Z</time></trkpt><trkpt lat="40.32411563124797" lon="14.998962639604935"><ele>186.66666666666669</ele><time>2026-03-29T08:45:13.001Z</time></trkpt><trkpt lat="40.32411328370392" lon="14.999080245540851"><ele>188.0</ele><time>2026-03-29T08:45:14.001Z</time></trkpt><trkpt lat="40.32411421450545" lon="14.999178593798012"><ele>189.33333333333334</ele><time>2026-03-29T08:45:15.001Z</time></trkpt><trkpt lat="40.324097839973604" lon="14.999261992966575"><ele>190.66666666666666</ele><time>2026-03-29T08:45:16.001Z</time></trkpt><trkpt lat="40.324083643510846" lon="14.999364232349983"><ele>192.0</ele><time>2026-03-29T08:45:18.001Z</time></trkpt><trkpt lat="40.324090080923845" lon="14.999496083078446"><ele>198.0</ele><time>2026-03-29T08:45:21.001Z</time></trkpt><trkpt lat="40.32384044920284" lon="14.999613574778909"><ele>204.0</ele><time>2026-03-29T08:45:23.001Z</time></trkpt><trkpt lat="40.323758950144416" lon="14.999735533055087"><ele>210.0</ele><time>2026-03-29T08:45:25.001Z</time></trkpt><trkpt lat="40.323694810148226" lon="14.999863704313636"><ele>210.0</ele><time>2026-03-29T08:45:27.001Z</time></trkpt><trkpt lat="40.3236623979938" lon="14.999944964946735"><ele>210.0</ele><time>2026-03-29T08:45:28.001Z</time></trkpt><trkpt lat="40.32360865387667" lon="15.00010124509087"><ele>210.0</ele><time>2026-03-29T08:45:30.001Z</time></trkpt><trkpt lat="40.323576921068984" lon="15.000183674563718"><ele>210.0</ele><time>2026-03-29T08:45:31.001Z</time></trkpt><trkpt lat="40.323550809406136" lon="15.000304570327875"><ele>210.0</ele><time>2026-03-29T08:45:33.001Z</time></trkpt><trkpt lat="40.32355975588198" lon="15.000419013782846"><ele>210.0</ele><time>2026-03-29T08:45:35.001Z</time></trkpt><trkpt lat="40.323506401632095" lon="15.000481239998217"><ele>210.0</ele><time>2026-03-29T08:45:40Z</time></trkpt><trkpt lat="40.32347116432779" lon="15.000398766678254"><ele>210.0</ele><time>2026-03-29T08:45:54Z</time></trkpt><trkpt lat="40.323413606209876" lon="15.000354552048048"><ele>210.0</ele><time>2026-03-29T08:46:20Z</time></trkpt><trkpt lat="40.323365437326856" lon="15.000250738392198"><ele>210.0</ele><time>2026-03-29T08:46:22Z</time></trkpt><trkpt lat="40.32331506575955" lon="15.00012904968598"><ele>210.0</ele><time>2026-03-29T08:46:24Z</time></trkpt><trkpt lat="40.32325096389349" lon="14.999997352575418"><ele>210.0</ele><time>2026-03-29T08:46:26Z</time></trkpt><trkpt lat="40.32322352489497" lon="14.999918559769208"><ele>210.0</ele><time>2026-03-29T08:46:27Z</time></trkpt><trkpt lat="40.323186329375915" lon="14.999837819178206"><ele>210.0</ele><time>2026-03-29T08:46:28Z</time></trkpt><trkpt lat="40.32314399691791" lon="14.999757406406905"><ele>210.0</ele><time>2026-03-29T08:46:29Z</time></trkpt><trkpt lat="40.323097286839754" lon="14.99968761711534"><ele>210.0</ele><time>2026-03-29T08:46:30Z</time></trkpt><trkpt lat="40.32304482212598" lon="14.99962455354"><ele>210.0</ele><time>2026-03-29T08:46:31Z</time></trkpt><trkpt lat="40.3229955684545" lon="14.999554184535619"><ele>210.0</ele><time>2026-03-29T08:46:32Z</time></trkpt><trkpt lat="40.32294719369076" lon="14.999477709853316"><ele>211.16666666666666</ele><time>2026-03-29T08:46:33Z</time></trkpt><trkpt lat="40.322898345395686" lon="14.99940284773302"><ele>212.33333333333331</ele><time>2026-03-29T08:46:34Z</time></trkpt><trkpt lat="40.322852710453695" lon="14.999338677007362"><ele>213.5</ele><time>2026-03-29T08:46:35Z</time></trkpt><trkpt lat="40.322800784982" lon="14.999265644511611"><ele>214.66666666666666</ele><time>2026-03-29T08:46:36Z</time></trkpt><trkpt lat="40.3227753630141" lon="14.999176940546938"><ele>215.83333333333331</ele><time>2026-03-29T08:46:37Z</time></trkpt><trkpt lat="40.32274998374941" lon="14.99909737938819"><ele>217.0</ele><time>2026-03-29T08:46:38Z</time></trkpt><trkpt lat="40.32272703955828" lon="14.998951101099442"><ele>217.0</ele><time>2026-03-29T08:46:40Z</time></trkpt><trkpt lat="40.3227254711507" lon="14.998867484016655"><ele>217.0</ele><time>2026-03-29T08:46:41Z</time></trkpt><trkpt lat="40.32271608242152" lon="14.998705414016209"><ele>217.0</ele><time>2026-03-29T08:46:43Z</time></trkpt><trkpt lat="40.322695198763256" lon="14.998620210877862"><ele>217.0</ele><time>2026-03-29T08:46:44Z</time></trkpt><trkpt lat="40.322690064447436" lon="14.998467566626106"><ele>217.0</ele><time>2026-03-29T08:46:46Z</time></trkpt><trkpt lat="40.32267924593421" lon="14.99832877594016"><ele>216.99999999999997</ele><time>2026-03-29T08:46:48Z</time></trkpt><trkpt lat="40.32267342419371" lon="14.998200963669026"><ele>217.0</ele><time>2026-03-29T08:46:50Z</time></trkpt><trkpt lat="40.322675995478825" lon="14.998090049136078"><ele>217.0</ele><time>2026-03-29T08:46:52Z</time></trkpt><trkpt lat="40.322663306747714" lon="14.99797623684791"><ele>217.0</ele><time>2026-03-29T08:46:54Z</time></trkpt><trkpt lat="40.322650848029" lon="14.997873690430383"><ele>216.99999999999997</ele><time>2026-03-29T08:46:56Z</time></trkpt><trkpt lat="40.32264387805071" lon="14.997761291620165"><ele>217.0</ele><time>2026-03-29T08:46:59Z</time></trkpt><trkpt lat="40.322666476431905" lon="14.997865702199544"><ele>216.99999999999997</ele><time>2026-03-29T08:51:42Z</time></trkpt><trkpt lat="40.32261522359888" lon="14.99792945192513"><ele>217.0</ele><time>2026-03-29T09:00:17Z</time></trkpt><trkpt lat="40.32264752939762" lon="14.998079185139472"><ele>217.0</ele><time>2026-03-29T09:00:34Z</time></trkpt><trkpt lat="40.32266093118994" lon="14.998178271348076"><ele>217.0</ele><time>2026-03-29T09:00:35Z</time></trkpt><trkpt lat="40.32267287727346" lon="14.998272061017493"><ele>216.99999999999997</ele><time>2026-03-29T09:00:36Z</time></trkpt><trkpt lat="40.3226620682743" lon="14.998378970926266"><ele>217.0</ele><time>2026-03-29T09:00:37Z</time></trkpt><trkpt lat="40.32267930147834" lon="14.998486214216724"><ele>217.0</ele><time>2026-03-29T09:00:38Z</time></trkpt><trkpt lat="40.322680958517864" lon="14.998584122954094"><ele>217.0</ele><time>2026-03-29T09:00:39Z</time></trkpt><trkpt lat="40.3226867874924" lon="14.998679260239678"><ele>217.0</ele><time>2026-03-29T09:00:40Z</time></trkpt><trkpt lat="40.32270342022696" lon="14.99880869587808"><ele>217.0</ele><time>2026-03-29T09:00:42Z</time></trkpt><trkpt lat="40.32270861162223" lon="14.998953226422419"><ele>217.0</ele><time>2026-03-29T09:00:44Z</time></trkpt><trkpt lat="40.32270421334877" lon="14.999082142259905"><ele>213.99999999999997</ele><time>2026-03-29T09:00:46Z</time></trkpt><trkpt lat="40.32273428387235" lon="14.999176992400832"><ele>211.0</ele><time>2026-03-29T09:00:48Z</time></trkpt><trkpt lat="40.32278937197879" lon="14.99927489152327"><ele>208.0</ele><time>2026-03-29T09:00:50Z</time></trkpt><trkpt lat="40.32287318559038" lon="14.999396141763889"><ele>205.0</ele><time>2026-03-29T09:00:52Z</time></trkpt><trkpt lat="40.32291856889848" lon="14.999455195542195"><ele>201.99999999999997</ele><time>2026-03-29T09:00:53Z</time></trkpt><trkpt lat="40.32296080360157" lon="14.999532590702211"><ele>199.0</ele><time>2026-03-29T09:00:54Z</time></trkpt><trkpt lat="40.323013275852894" lon="14.999600654721585"><ele>198.99999999999997</ele><time>2026-03-29T09:00:55Z</time></trkpt><trkpt lat="40.32306325729209" lon="14.999673909680151"><ele>199.0</ele><time>2026-03-29T09:00:56Z</time></trkpt><trkpt lat="40.32311874179753" lon="14.99974206170382"><ele>199.0</ele><time>2026-03-29T09:00:57Z</time></trkpt><trkpt lat="40.32314860205085" lon="14.999824212555053"><ele>199.0</ele><time>2026-03-29T09:00:58Z</time></trkpt><trkpt lat="40.32318484820294" lon="14.999894150840317"><ele>199.0</ele><time>2026-03-29T09:00:59Z</time></trkpt><trkpt lat="40.32321871438263" lon="14.999968972575665"><ele>198.99999999999997</ele><time>2026-03-29T09:01:00Z</time></trkpt><trkpt lat="40.3232531840077" lon="15.00005370119236"><ele>199.0</ele><time>2026-03-29T09:01:01Z</time></trkpt><trkpt lat="40.32328774799767" lon="15.000131746158663"><ele>201.2</ele><time>2026-03-29T09:01:02Z</time></trkpt><trkpt lat="40.32332181925088" lon="15.000203742447331"><ele>203.39999999999998</ele><time>2026-03-29T09:01:03Z</time></trkpt><trkpt lat="40.32335471246009" lon="15.000276545186548"><ele>205.6</ele><time>2026-03-29T09:01:04Z</time></trkpt><trkpt lat="40.323420176130575" lon="15.00037846275115"><ele>207.8</ele><time>2026-03-29T09:01:06Z</time></trkpt><trkpt lat="40.32347399896731" lon="15.000465984119634"><ele>210.0</ele><time>2026-03-29T09:01:08Z</time></trkpt><trkpt lat="40.32356496406871" lon="15.000301994834668"><ele>210.0</ele><time>2026-03-29T09:01:14Z</time></trkpt><trkpt lat="40.32358350514081" lon="15.000170638337783"><ele>210.0</ele><time>2026-03-29T09:01:16Z</time></trkpt><trkpt lat="40.32361861041579" lon="15.00004563675625"><ele>210.0</ele><time>2026-03-29T09:01:18Z</time></trkpt><trkpt lat="40.323667724927226" lon="14.999918485151598"><ele>210.0</ele><time>2026-03-29T09:01:20Z</time></trkpt><trkpt lat="40.323712373197964" lon="14.999811226010255"><ele>210.0</ele><time>2026-03-29T09:01:22Z</time></trkpt><trkpt lat="40.32376877226604" lon="14.999710836310687"><ele>210.0</ele><time>2026-03-29T09:01:24Z</time></trkpt><trkpt lat="40.32384360217211" lon="14.999617701975643"><ele>210.0</ele><time>2026-03-29T09:01:26Z</time></trkpt><trkpt lat="40.32393619510788" lon="14.999514341105579"><ele>210.0</ele><time>2026-03-29T09:01:28Z</time></trkpt><trkpt lat="40.32402708067943" lon="14.999432101684018"><ele>210.0</ele><time>2026-03-29T09:01:30Z</time></trkpt><trkpt lat="40.324099828034505" lon="14.999356299886257"><ele>210.0</ele><time>2026-03-29T09:01:32Z</time></trkpt><trkpt lat="40.32410983910597" lon="14.99926314735862"><ele>208.4</ele><time>2026-03-29T09:01:36Z</time></trkpt><trkpt lat="40.32410445541964" lon="14.999170869800963"><ele>206.8</ele><time>2026-03-29T09:01:49Z</time></trkpt><trkpt lat="40.32410422999178" lon="14.999073277567899"><ele>205.2</ele><time>2026-03-29T09:05:04Z</time></trkpt><trkpt lat="40.324139421131164" lon="14.998979590418422"><ele>203.6</ele><time>2026-03-29T09:05:06Z</time></trkpt><trkpt lat="40.32414461055723" lon="14.99884067531825"><ele>202.0</ele><time>2026-03-29T09:05:08Z</time></trkpt><trkpt lat="40.32413532797658" lon="14.998666197517482"><ele>200.33333333333331</ele><time>2026-03-29T09:05:10Z</time></trkpt><trkpt lat="40.324146326722975" lon="14.998562321438268"><ele>198.66666666666666</ele><time>2026-03-29T09:05:11Z</time></trkpt><trkpt lat="40.32414647526333" lon="14.998466290308693"><ele>197.0</ele><time>2026-03-29T09:05:12Z</time></trkpt><trkpt lat="40.32416367044759" lon="14.998368365140507"><ele>195.33333333333331</ele><time>2026-03-29T09:05:13Z</time></trkpt><trkpt lat="40.32418034245255" lon="14.998278333322688"><ele>193.66666666666666</ele><time>2026-03-29T09:05:14Z</time></trkpt><trkpt lat="40.32420362584506" lon="14.998127068009325"><ele>192.0</ele><time>2026-03-29T09:05:16Z</time></trkpt><trkpt lat="40.324225638949756" lon="14.998048142191967"><ele>190.85714285714283</ele><time>2026-03-29T09:05:17Z</time></trkpt><trkpt lat="40.32427427223005" lon="14.997983111420837"><ele>189.71428571428572</ele><time>2026-03-29T09:05:18Z</time></trkpt><trkpt lat="40.324306035265735" lon="14.997902833127684"><ele>188.57142857142856</ele><time>2026-03-29T09:05:19Z</time></trkpt><trkpt lat="40.32433294247507" lon="14.99781776174588"><ele>187.42857142857142</ele><time>2026-03-29T09:05:20Z</time></trkpt><trkpt lat="40.324329025009945" lon="14.997728525369588"><ele>186.28571428571428</ele><time>2026-03-29T09:05:21Z</time></trkpt><trkpt lat="40.32431370337402" lon="14.997644003129"><ele>185.14285714285714</ele><time>2026-03-29T09:05:22Z</time></trkpt><trkpt lat="40.32428252904305" lon="14.997551614717525"><ele>184.0</ele><time>2026-03-29T09:05:23Z</time></trkpt><trkpt lat="40.32423630065978" lon="14.99746317037927"><ele>182.66666666666669</ele><time>2026-03-29T09:05:24Z</time></trkpt><trkpt lat="40.3241843856486" lon="14.997378386079598"><ele>181.33333333333334</ele><time>2026-03-29T09:05:25Z</time></trkpt><trkpt lat="40.32412712918839" lon="14.997290369520636"><ele>180.0</ele><time>2026-03-29T09:05:26Z</time></trkpt><trkpt lat="40.32408072525753" lon="14.997229158929127"><ele>178.66666666666666</ele><time>2026-03-29T09:05:27Z</time></trkpt><trkpt lat="40.324040799157785" lon="14.997137620977616"><ele>177.33333333333331</ele><time>2026-03-29T09:05:28Z</time></trkpt><trkpt lat="40.323995834968194" lon="14.9970770343554"><ele>176.0</ele><time>2026-03-29T09:05:29Z</time></trkpt><trkpt lat="40.32394921854122" lon="14.996994385842505"><ele>176.0</ele><time>2026-03-29T09:05:30Z</time></trkpt><trkpt lat="40.323899197657504" lon="14.99687764404296"><ele>176.0</ele><time>2026-03-29T09:05:31Z</time></trkpt><trkpt lat="40.32382205991108" lon="14.996758180030389"><ele>176.0</ele><time>2026-03-29T09:05:32Z</time></trkpt><trkpt lat="40.32376872178046" lon="14.996662123803626"><ele>176.0</ele><time>2026-03-29T09:05:33Z</time></trkpt><trkpt lat="40.323725097611835" lon="14.996556282625924"><ele>176.0</ele><time>2026-03-29T09:05:34Z</time></trkpt><trkpt lat="40.32368438497784" lon="14.996436950730075"><ele>176.8</ele><time>2026-03-29T09:05:35Z</time></trkpt><trkpt lat="40.323660792728354" lon="14.996320726152012"><ele>177.60000000000002</ele><time>2026-03-29T09:05:36Z</time></trkpt><trkpt lat="40.3236386935267" lon="14.996188545796537"><ele>178.4</ele><time>2026-03-29T09:05:37Z</time></trkpt><trkpt lat="40.323635654762946" lon="14.996067519320208"><ele>179.2</ele><time>2026-03-29T09:05:38Z</time></trkpt><trkpt lat="40.323613074223324" lon="14.995960912490961"><ele>180.0</ele><time>2026-03-29T09:05:39Z</time></trkpt><trkpt lat="40.323580001403386" lon="14.995863447996983"><ele>178.0</ele><time>2026-03-29T09:05:40Z</time></trkpt><trkpt lat="40.323533251733636" lon="14.995783497306123"><ele>176.0</ele><time>2026-03-29T09:05:41Z</time></trkpt><trkpt lat="40.323470631718926" lon="14.995719809379358"><ele>174.0</ele><time>2026-03-29T09:05:42Z</time></trkpt><trkpt lat="40.32339186996448" lon="14.9956670883254"><ele>172.0</ele><time>2026-03-29T09:05:43Z</time></trkpt><trkpt lat="40.32330083910651" lon="14.995624137752547"><ele>170.0</ele><time>2026-03-29T09:05:44Z</time></trkpt><trkpt lat="40.323217983335326" lon="14.995574168032178"><ele>168.0</ele><time>2026-03-29T09:05:45Z</time></trkpt><trkpt lat="40.323160085837436" lon="14.9955019786959"><ele>168.0</ele><time>2026-03-29T09:05:46Z</time></trkpt><trkpt lat="40.32310656469931" lon="14.995413918597613"><ele>168.0</ele><time>2026-03-29T09:05:47Z</time></trkpt><trkpt lat="40.323054727593764" lon="14.995299451791677"><ele>168.0</ele><time>2026-03-29T09:05:48Z</time></trkpt><trkpt lat="40.32301269602169" lon="14.995183229786289"><ele>168.0</ele><time>2026-03-29T09:05:49Z</time></trkpt><trkpt lat="40.32297013411815" lon="14.995077463968219"><ele>168.0</ele><time>2026-03-29T09:05:50Z</time></trkpt><trkpt lat="40.322920270834146" lon="14.994984380500478"><ele>171.8</ele><time>2026-03-29T09:05:51Z</time></trkpt><trkpt lat="40.32288719893944" lon="14.994895278655562"><ele>175.60000000000002</ele><time>2026-03-29T09:05:52Z</time></trkpt><trkpt lat="40.32284162128821" lon="14.994769510721552"><ele>179.39999999999998</ele><time>2026-03-29T09:05:54Z</time></trkpt><trkpt lat="40.32281101819678" lon="14.994660735322395"><ele>183.2</ele><time>2026-03-29T09:08:03Z</time></trkpt><trkpt lat="40.32268975900214" lon="14.994593218264999"><ele>187.0</ele><time>2026-03-29T09:08:07Z</time></trkpt><trkpt lat="40.32260431241028" lon="14.994518724197036"><ele>187.0</ele><time>2026-03-29T09:08:09Z</time></trkpt><trkpt lat="40.32252091104289" lon="14.99439635617387"><ele>187.0</ele><time>2026-03-29T09:08:11Z</time></trkpt><trkpt lat="40.32247110258649" lon="14.99433058798998"><ele>187.0</ele><time>2026-03-29T09:08:12Z</time></trkpt><trkpt lat="40.322421827175305" lon="14.994262652720417"><ele>187.0</ele><time>2026-03-29T09:08:13Z</time></trkpt><trkpt lat="40.32236945404681" lon="14.994185531198745"><ele>187.0</ele><time>2026-03-29T09:08:14Z</time></trkpt><trkpt lat="40.322321153676064" lon="14.994105889594357"><ele>187.0</ele><time>2026-03-29T09:08:15Z</time></trkpt><trkpt lat="40.3222718892225" lon="14.994023220166175"><ele>190.6</ele><time>2026-03-29T09:08:16Z</time></trkpt><trkpt lat="40.322215942830354" lon="14.993941305746477"><ele>194.2</ele><time>2026-03-29T09:08:17Z</time></trkpt><trkpt lat="40.32216456895284" lon="14.993849958087749"><ele>197.8</ele><time>2026-03-29T09:08:18Z</time></trkpt><trkpt lat="40.32210879720721" lon="14.993746377922486"><ele>201.4</ele><time>2026-03-29T09:08:19Z</time></trkpt><trkpt lat="40.32205487422948" lon="14.993656025574763"><ele>205.0</ele><time>2026-03-29T09:08:20Z</time></trkpt><trkpt lat="40.32198401867538" lon="14.99355151130248"><ele>205.0</ele><time>2026-03-29T09:08:21Z</time></trkpt><trkpt lat="40.32192810202216" lon="14.993437367304969"><ele>205.0</ele><time>2026-03-29T09:08:22Z</time></trkpt><trkpt lat="40.3218801496466" lon="14.993306062779089"><ele>205.0</ele><time>2026-03-29T09:08:23Z</time></trkpt><trkpt lat="40.32184533104318" lon="14.993170546532795"><ele>205.0</ele><time>2026-03-29T09:08:24Z</time></trkpt><trkpt lat="40.32179509791352" lon="14.993039965478486"><ele>205.0</ele><time>2026-03-29T09:08:25Z</time></trkpt><trkpt lat="40.321698184157206" lon="14.992774098291777"><ele>201.8</ele><time>2026-03-29T09:08:27Z</time></trkpt><trkpt lat="40.32165355607328" lon="14.992667592430367"><ele>198.6</ele><time>2026-03-29T09:08:28Z</time></trkpt><trkpt lat="40.321603842142444" lon="14.992556934586746"><ele>195.39999999999998</ele><time>2026-03-29T09:08:29Z</time></trkpt><trkpt lat="40.32154877923222" lon="14.992440465611919"><ele>192.2</ele><time>2026-03-29T09:08:30Z</time></trkpt><trkpt lat="40.321494004752715" lon="14.99232395474848"><ele>189.0</ele><time>2026-03-29T09:08:31Z</time></trkpt><trkpt lat="40.32144271209199" lon="14.99220116536448"><ele>189.79999999999998</ele><time>2026-03-29T09:08:32Z</time></trkpt><trkpt lat="40.32139101223756" lon="14.992086937646368"><ele>190.6</ele><time>2026-03-29T09:08:33Z</time></trkpt><trkpt lat="40.32133325216803" lon="14.99198035834062"><ele>191.4</ele><time>2026-03-29T09:08:34Z</time></trkpt><trkpt lat="40.32129473181773" lon="14.99188278891036"><ele>192.2</ele><time>2026-03-29T09:08:35Z</time></trkpt><trkpt lat="40.32122622638101" lon="14.991771096538214"><ele>193.0</ele><time>2026-03-29T09:08:36Z</time></trkpt><trkpt lat="40.321175802303344" lon="14.991652973905802"><ele>193.0</ele><time>2026-03-29T09:08:37Z</time></trkpt><trkpt lat="40.32112726989971" lon="14.991532799027478"><ele>193.0</ele><time>2026-03-29T09:08:38Z</time></trkpt><trkpt lat="40.32107804579674" lon="14.991421439332736"><ele>193.0</ele><time>2026-03-29T09:08:39Z</time></trkpt><trkpt lat="40.32102746937648" lon="14.991317717413809"><ele>193.0</ele><time>2026-03-29T09:08:40Z</time></trkpt><trkpt lat="40.320981624957184" lon="14.99121444417676"><ele>193.0</ele><time>2026-03-29T09:08:41Z</time></trkpt><trkpt lat="40.32094462584997" lon="14.991122761642789"><ele>192.99999999999997</ele><time>2026-03-29T09:08:42Z</time></trkpt><trkpt lat="40.32090839507767" lon="14.991031930484588"><ele>193.0</ele><time>2026-03-29T09:08:43Z</time></trkpt><trkpt lat="40.32084249153709" lon="14.990902254063768"><ele>193.0</ele><time>2026-03-29T09:08:44.999Z</time></trkpt><trkpt lat="40.32079767158803" lon="14.990836819237652"><ele>193.0</ele><time>2026-03-29T09:08:45.999Z</time></trkpt><trkpt lat="40.320750363992374" lon="14.990781042740045"><ele>192.99999999999997</ele><time>2026-03-29T09:08:46.999Z</time></trkpt><trkpt lat="40.32065210522905" lon="14.990699127065136"><ele>193.0</ele><time>2026-03-29T09:08:48.999Z</time></trkpt><trkpt lat="40.320527916156415" lon="14.990672820811778"><ele>193.99999999999997</ele><time>2026-03-29T09:08:50.999Z</time></trkpt><trkpt lat="40.32046073022718" lon="14.990671515619882"><ele>195.0</ele><time>2026-03-29T09:08:51.999Z</time></trkpt><trkpt lat="40.32039065592262" lon="14.990666802267738"><ele>196.0</ele><time>2026-03-29T09:08:52.999Z</time></trkpt><trkpt lat="40.320320391788606" lon="14.990652870320721"><ele>197.0</ele><time>2026-03-29T09:08:53.999Z</time></trkpt><trkpt lat="40.320250450069345" lon="14.990643669287815"><ele>197.99999999999997</ele><time>2026-03-29T09:08:54.999Z</time></trkpt><trkpt lat="40.32013665338378" lon="14.990616336234064"><ele>199.0</ele><time>2026-03-29T09:08:57Z</time></trkpt><trkpt lat="40.32007008894251" lon="14.990595627215212"><ele>198.99999999999997</ele><time>2026-03-29T09:08:58Z</time></trkpt><trkpt lat="40.32000194800543" lon="14.990570104690757"><ele>199.0</ele><time>2026-03-29T09:08:59Z</time></trkpt><trkpt lat="40.31993284600236" lon="14.990540437048509"><ele>199.0</ele><time>2026-03-29T09:09:00Z</time></trkpt><trkpt lat="40.31986574263395" lon="14.990505723201123"><ele>199.0</ele><time>2026-03-29T09:09:01Z</time></trkpt><trkpt lat="40.31980862172401" lon="14.990469502378259"><ele>199.0</ele><time>2026-03-29T09:09:02Z</time></trkpt><trkpt lat="40.31974765810181" lon="14.990429640955961"><ele>198.99999999999997</ele><time>2026-03-29T09:09:03Z</time></trkpt><trkpt lat="40.319685577357305" lon="14.990390437858222"><ele>199.0</ele><time>2026-03-29T09:09:04Z</time></trkpt><trkpt lat="40.319619458953134" lon="14.990362366183968"><ele>198.66666666666666</ele><time>2026-03-29T09:09:05Z</time></trkpt><trkpt lat="40.31954467346021" lon="14.990329658978808"><ele>198.33333333333331</ele><time>2026-03-29T09:09:06Z</time></trkpt><trkpt lat="40.3194657994452" lon="14.990286238690446"><ele>198.0</ele><time>2026-03-29T09:09:07Z</time></trkpt><trkpt lat="40.31938767846157" lon="14.990236443986332"><ele>197.66666666666669</ele><time>2026-03-29T09:09:08Z</time></trkpt><trkpt lat="40.319311690768195" lon="14.990184541697896"><ele>197.33333333333334</ele><time>2026-03-29T09:09:09Z</time></trkpt><trkpt lat="40.319250403581236" lon="14.990096694726018"><ele>197.0</ele><time>2026-03-29T09:09:10Z</time></trkpt><trkpt lat="40.3191828799052" lon="14.990001243062336"><ele>197.0</ele><time>2026-03-29T09:09:11Z</time></trkpt><trkpt lat="40.319122428458705" lon="14.989914616181695"><ele>197.0</ele><time>2026-03-29T09:09:12Z</time></trkpt><trkpt lat="40.31906269244925" lon="14.98980774936142"><ele>197.0</ele><time>2026-03-29T09:09:13Z</time></trkpt><trkpt lat="40.31900491407387" lon="14.989694678781552"><ele>197.0</ele><time>2026-03-29T09:09:14Z</time></trkpt><trkpt lat="40.318942339477665" lon="14.989583686941163"><ele>197.0</ele><time>2026-03-29T09:09:15Z</time></trkpt><trkpt lat="40.3188842707525" lon="14.98947608107967"><ele>196.50000000000003</ele><time>2026-03-29T09:09:16Z</time></trkpt><trkpt lat="40.318827870159055" lon="14.989383521399859"><ele>196.0</ele><time>2026-03-29T09:09:17Z</time></trkpt><trkpt lat="40.318773809962586" lon="14.989291604571457"><ele>195.5</ele><time>2026-03-29T09:09:18Z</time></trkpt><trkpt lat="40.3187411711684" lon="14.989196514876475"><ele>195.0</ele><time>2026-03-29T09:09:19Z</time></trkpt><trkpt lat="40.31870147735435" lon="14.989122564770826"><ele>194.50000000000003</ele><time>2026-03-29T09:09:20Z</time></trkpt><trkpt lat="40.31865051489475" lon="14.98902762101155"><ele>194.0</ele><time>2026-03-29T09:09:22Z</time></trkpt><trkpt lat="40.31860279019927" lon="14.988938708220035"><ele>194.0</ele><time>2026-03-29T09:09:38Z</time></trkpt><trkpt lat="40.31855602024579" lon="14.988846067979475"><ele>194.0</ele><time>2026-03-29T09:09:40Z</time></trkpt><trkpt lat="40.31849061012103" lon="14.988716754498107"><ele>194.0</ele><time>2026-03-29T09:09:42Z</time></trkpt><trkpt lat="40.31846295836082" lon="14.9886391103706"><ele>194.0</ele><time>2026-03-29T09:09:43Z</time></trkpt><trkpt lat="40.31840778637034" lon="14.988475962944042"><ele>194.0</ele><time>2026-03-29T09:09:45Z</time></trkpt><trkpt lat="40.31837185309677" lon="14.988380742437492"><ele>195.79999999999998</ele><time>2026-03-29T09:09:46Z</time></trkpt><trkpt lat="40.318336483419" lon="14.988287885752111"><ele>197.6</ele><time>2026-03-29T09:09:47Z</time></trkpt><trkpt lat="40.31829271737256" lon="14.988176084960555"><ele>199.4</ele><time>2026-03-29T09:09:48Z</time></trkpt><trkpt lat="40.3182510324485" lon="14.98805472225373"><ele>201.2</ele><time>2026-03-29T09:09:49Z</time></trkpt><trkpt lat="40.31820822806139" lon="14.987935039297788"><ele>203.0</ele><time>2026-03-29T09:09:50Z</time></trkpt><trkpt lat="40.31816281485656" lon="14.987810023585258"><ele>203.0</ele><time>2026-03-29T09:09:51Z</time></trkpt><trkpt lat="40.318115417731015" lon="14.987684473770313"><ele>203.0</ele><time>2026-03-29T09:09:52Z</time></trkpt><trkpt lat="40.318070598539215" lon="14.987563547396558"><ele>203.0</ele><time>2026-03-29T09:09:53Z</time></trkpt><trkpt lat="40.31802895281281" lon="14.987448578998215"><ele>203.0</ele><time>2026-03-29T09:09:54Z</time></trkpt><trkpt lat="40.31798616819284" lon="14.98733357543882"><ele>203.0</ele><time>2026-03-29T09:09:55Z</time></trkpt><trkpt lat="40.31792664644762" lon="14.987228416353418"><ele>204.4</ele><time>2026-03-29T09:09:56Z</time></trkpt><trkpt lat="40.31784994040416" lon="14.987156809277495"><ele>205.8</ele><time>2026-03-29T09:09:57Z</time></trkpt><trkpt lat="40.31776330898557" lon="14.987084092600707"><ele>207.2</ele><time>2026-03-29T09:09:58Z</time></trkpt><trkpt lat="40.317674794920066" lon="14.987005530430816"><ele>208.6</ele><time>2026-03-29T09:09:59Z</time></trkpt><trkpt lat="40.31759217706657" lon="14.986911788435997"><ele>210.0</ele><time>2026-03-29T09:10:00Z</time></trkpt><trkpt lat="40.31753850574014" lon="14.98677962153164"><ele>211.0</ele><time>2026-03-29T09:10:01Z</time></trkpt><trkpt lat="40.3174731136171" lon="14.986663150426129"><ele>212.0</ele><time>2026-03-29T09:10:02Z</time></trkpt><trkpt lat="40.31744250160616" lon="14.986531021145938"><ele>213.0</ele><time>2026-03-29T09:10:03Z</time></trkpt><trkpt lat="40.31742877013766" lon="14.98640813198547"><ele>214.0</ele><time>2026-03-29T09:10:04Z</time></trkpt><trkpt lat="40.31742574545669" lon="14.986292799012196"><ele>215.0</ele><time>2026-03-29T09:10:05Z</time></trkpt><trkpt lat="40.31741182735065" lon="14.986190289071272"><ele>215.00000000000003</ele><time>2026-03-29T09:10:06Z</time></trkpt><trkpt lat="40.317367593529816" lon="14.986113012675467"><ele>215.0</ele><time>2026-03-29T09:10:07Z</time></trkpt><trkpt lat="40.31730222112408" lon="14.986054473182291"><ele>215.0</ele><time>2026-03-29T09:10:08Z</time></trkpt><trkpt lat="40.317215759783124" lon="14.985992978240361"><ele>215.0</ele><time>2026-03-29T09:10:09Z</time></trkpt><trkpt lat="40.3171271770329" lon="14.985946856071775"><ele>215.00000000000003</ele><time>2026-03-29T09:10:10Z</time></trkpt><trkpt lat="40.317027949269495" lon="14.985913357272489"><ele>215.0</ele><time>2026-03-29T09:10:11Z</time></trkpt><trkpt lat="40.31692153998168" lon="14.985886808752314"><ele>217.0</ele><time>2026-03-29T09:10:12Z</time></trkpt><trkpt lat="40.31680511240454" lon="14.985858630624946"><ele>219.0</ele><time>2026-03-29T09:10:13Z</time></trkpt><trkpt lat="40.316711817461055" lon="14.985832357466835"><ele>221.0</ele><time>2026-03-29T09:10:14Z</time></trkpt><trkpt lat="40.31663716252398" lon="14.985803197534056"><ele>223.0</ele><time>2026-03-29T09:10:15Z</time></trkpt><trkpt lat="40.316570931633976" lon="14.985798873255694"><ele>225.0</ele><time>2026-03-29T09:10:16Z</time></trkpt><trkpt lat="40.31648286603424" lon="14.985738300303776"><ele>225.2</ele><time>2026-03-29T09:10:18Z</time></trkpt><trkpt lat="40.31643767892785" lon="14.985526923544255"><ele>225.4</ele><time>2026-03-29T09:10:20Z</time></trkpt><trkpt lat="40.31639142961612" lon="14.985430282531542"><ele>225.60000000000002</ele><time>2026-03-29T09:10:21Z</time></trkpt><trkpt lat="40.31635622944357" lon="14.98532623754746"><ele>225.8</ele><time>2026-03-29T09:10:22Z</time></trkpt><trkpt lat="40.31631937916886" lon="14.98521933668189"><ele>226.0</ele><time>2026-03-29T09:10:23Z</time></trkpt><trkpt lat="40.31628430500565" lon="14.9851183111074"><ele>228.4</ele><time>2026-03-29T09:10:24Z</time></trkpt><trkpt lat="40.31623687530256" lon="14.985024995340806"><ele>230.8</ele><time>2026-03-29T09:10:25Z</time></trkpt><trkpt lat="40.31617625701457" lon="14.984938756269763"><ele>233.20000000000002</ele><time>2026-03-29T09:10:26Z</time></trkpt><trkpt lat="40.31607777089327" lon="14.984792546419417"><ele>235.60000000000002</ele><time>2026-03-29T09:10:28Z</time></trkpt><trkpt lat="40.31604996689495" lon="14.984710915675558"><ele>238.0</ele><time>2026-03-29T09:10:29Z</time></trkpt><trkpt lat="40.31607205763542" lon="14.984566850033538"><ele>238.0</ele><time>2026-03-29T09:10:31Z</time></trkpt><trkpt lat="40.31608018245907" lon="14.984421983597"><ele>238.0</ele><time>2026-03-29T09:10:33Z</time></trkpt><trkpt lat="40.31607208875064" lon="14.984337202369563"><ele>238.0</ele><time>2026-03-29T09:10:34Z</time></trkpt><trkpt lat="40.3160891562936" lon="14.984188399009588"><ele>238.0</ele><time>2026-03-29T09:10:36Z</time></trkpt><trkpt lat="40.3160743284608" lon="14.984052577782759"><ele>238.0</ele><time>2026-03-29T09:10:38Z</time></trkpt><trkpt lat="40.31606532203494" lon="14.983916190266768"><ele>238.0</ele><time>2026-03-29T09:10:40Z</time></trkpt><trkpt lat="40.31606788866721" lon="14.983774232237025"><ele>238.0</ele><time>2026-03-29T09:10:42Z</time></trkpt><trkpt lat="40.31607636600469" lon="14.983659165774059"><ele>238.0</ele><time>2026-03-29T09:10:44Z</time></trkpt><trkpt lat="40.31609393160622" lon="14.98355434847864"><ele>238.0</ele><time>2026-03-29T09:10:46Z</time></trkpt><trkpt lat="40.316131382483455" lon="14.983453208880112"><ele>238.0</ele><time>2026-03-29T09:10:48Z</time></trkpt><trkpt lat="40.316194467991885" lon="14.98337061920464"><ele>238.60000000000002</ele><time>2026-03-29T09:10:49.999Z</time></trkpt><trkpt lat="40.316230344979154" lon="14.983274712485697"><ele>239.20000000000002</ele><time>2026-03-29T09:10:51.999Z</time></trkpt><trkpt lat="40.31623431051682" lon="14.983164904734"><ele>239.8</ele><time>2026-03-29T09:10:53.999Z</time></trkpt><trkpt lat="40.316256442813966" lon="14.983055126902936"><ele>240.4</ele><time>2026-03-29T09:10:55.999Z</time></trkpt><trkpt lat="40.316279710168764" lon="14.982942754093955"><ele>241.0</ele><time>2026-03-29T09:10:57.999Z</time></trkpt><trkpt lat="40.3162896296383" lon="14.982800225852307"><ele>241.0</ele><time>2026-03-29T09:10:59.999Z</time></trkpt><trkpt lat="40.31631110862865" lon="14.982679689332778"><ele>241.00000000000003</ele><time>2026-03-29T09:11:01.999Z</time></trkpt><trkpt lat="40.3163505195665" lon="14.982608123789072"><ele>241.00000000000003</ele><time>2026-03-29T09:11:02.999Z</time></trkpt><trkpt lat="40.31637721365094" lon="14.98246231874137"><ele>241.0</ele><time>2026-03-29T09:11:04.999Z</time></trkpt><trkpt lat="40.316386140327154" lon="14.982380104398086"><ele>241.0</ele><time>2026-03-29T09:11:05.999Z</time></trkpt><trkpt lat="40.316393190170665" lon="14.982225383073093"><ele>239.8</ele><time>2026-03-29T09:11:07.999Z</time></trkpt><trkpt lat="40.31642589028432" lon="14.98206711364333"><ele>238.60000000000002</ele><time>2026-03-29T09:11:09.999Z</time></trkpt><trkpt lat="40.3164535769219" lon="14.981954401560042"><ele>237.4</ele><time>2026-03-29T09:11:11.999Z</time></trkpt><trkpt lat="40.31646349394784" lon="14.981853428814839"><ele>236.2</ele><time>2026-03-29T09:11:13.999Z</time></trkpt><trkpt lat="40.31644876349622" lon="14.981749772187035"><ele>235.0</ele><time>2026-03-29T09:11:15.999Z</time></trkpt><trkpt lat="40.31640064712699" lon="14.981615219095833"><ele>235.0</ele><time>2026-03-29T09:11:17.999Z</time></trkpt><trkpt lat="40.31635218767529" lon="14.981489701429629"><ele>235.0</ele><time>2026-03-29T09:11:19.999Z</time></trkpt><trkpt lat="40.316291188675514" lon="14.981358179904747"><ele>235.0</ele><time>2026-03-29T09:11:22Z</time></trkpt><trkpt lat="40.31625421392555" lon="14.981285799623805"><ele>235.0</ele><time>2026-03-29T09:11:23Z</time></trkpt><trkpt lat="40.3161776330622" lon="14.98115795086714"><ele>235.0</ele><time>2026-03-29T09:11:25Z</time></trkpt><trkpt lat="40.31611581935524" lon="14.981053165094266"><ele>235.0</ele><time>2026-03-29T09:11:27Z</time></trkpt><trkpt lat="40.31604833319879" lon="14.980929741597063"><ele>235.0</ele><time>2026-03-29T09:11:29Z</time></trkpt><trkpt lat="40.316021808476854" lon="14.980836171436252"><ele>235.0</ele><time>2026-03-29T09:11:31Z</time></trkpt><trkpt lat="40.31597203593581" lon="14.980780084186133"><ele>235.0</ele><time>2026-03-29T09:11:38Z</time></trkpt><trkpt lat="40.31591290810705" lon="14.980692023916975"><ele>235.0</ele><time>2026-03-29T09:11:40Z</time></trkpt><trkpt lat="40.31582465232448" lon="14.98060638723094"><ele>233.66666666666666</ele><time>2026-03-29T09:11:42Z</time></trkpt><trkpt lat="40.31577559953381" lon="14.98055290054029"><ele>232.33333333333331</ele><time>2026-03-29T09:11:43Z</time></trkpt><trkpt lat="40.315720853417595" lon="14.980492400544517"><ele>231.0</ele><time>2026-03-29T09:11:44Z</time></trkpt><trkpt lat="40.31563027313306" lon="14.980387344327658"><ele>229.66666666666669</ele><time>2026-03-29T09:11:46Z</time></trkpt><trkpt lat="40.3155829673688" lon="14.980331815269926"><ele>228.33333333333334</ele><time>2026-03-29T09:11:47Z</time></trkpt><trkpt lat="40.31550153214353" lon="14.980230126739599"><ele>227.0</ele><time>2026-03-29T09:11:49Z</time></trkpt><trkpt lat="40.315447349913605" lon="14.980080362735308"><ele>223.6</ele><time>2026-03-29T09:11:51Z</time></trkpt><trkpt lat="40.31542942778848" lon="14.979994409798554"><ele>220.2</ele><time>2026-03-29T09:11:52Z</time></trkpt><trkpt lat="40.315421111103284" lon="14.979910900305171"><ele>216.8</ele><time>2026-03-29T09:11:53Z</time></trkpt><trkpt lat="40.315389737787875" lon="14.979758825587664"><ele>213.4</ele><time>2026-03-29T09:11:55Z</time></trkpt><trkpt lat="40.31535727749989" lon="14.9795838343905"><ele>210.0</ele><time>2026-03-29T09:11:57Z</time></trkpt><trkpt lat="40.315337577701605" lon="14.979491380665662"><ele>210.0</ele><time>2026-03-29T09:11:58Z</time></trkpt><trkpt lat="40.315315512174124" lon="14.979396793985224"><ele>210.0</ele><time>2026-03-29T09:11:59Z</time></trkpt><trkpt lat="40.31528255879646" lon="14.97923213116296"><ele>210.0</ele><time>2026-03-29T09:12:01Z</time></trkpt><trkpt lat="40.315282427406714" lon="14.979135363246655"><ele>210.0</ele><time>2026-03-29T09:12:02Z</time></trkpt><trkpt lat="40.315250182919826" lon="14.978959651968848"><ele>210.0</ele><time>2026-03-29T09:12:04Z</time></trkpt><trkpt lat="40.31523777038992" lon="14.978862290084692"><ele>210.66666666666666</ele><time>2026-03-29T09:12:05Z</time></trkpt><trkpt lat="40.315219186781874" lon="14.978777810212447"><ele>211.33333333333331</ele><time>2026-03-29T09:12:06Z</time></trkpt><trkpt lat="40.315206022056124" lon="14.978690661810383"><ele>212.0</ele><time>2026-03-29T09:12:07Z</time></trkpt><trkpt lat="40.315194006771826" lon="14.978608575818312"><ele>212.66666666666666</ele><time>2026-03-29T09:12:08Z</time></trkpt><trkpt lat="40.31521157033194" lon="14.978452959647855"><ele>213.33333333333331</ele><time>2026-03-29T09:12:10Z</time></trkpt><trkpt lat="40.31522489737615" lon="14.978291581287078"><ele>214.0</ele><time>2026-03-29T09:12:12Z</time></trkpt><trkpt lat="40.315247433778346" lon="14.978190449409663"><ele>214.6</ele><time>2026-03-29T09:12:13Z</time></trkpt><trkpt lat="40.31526790657358" lon="14.978097724291402"><ele>215.2</ele><time>2026-03-29T09:12:14Z</time></trkpt><trkpt lat="40.3152807843921" lon="14.97800573610734"><ele>215.79999999999998</ele><time>2026-03-29T09:12:15Z</time></trkpt><trkpt lat="40.31531854947478" lon="14.977829954927856"><ele>216.39999999999998</ele><time>2026-03-29T09:12:17Z</time></trkpt><trkpt lat="40.31532796578475" lon="14.97767306366785"><ele>217.0</ele><time>2026-03-29T09:12:19Z</time></trkpt><trkpt lat="40.31532911177302" lon="14.977589534566498"><ele>215.6</ele><time>2026-03-29T09:12:20Z</time></trkpt><trkpt lat="40.31532052363083" lon="14.977450982428008"><ele>214.2</ele><time>2026-03-29T09:12:22Z</time></trkpt><trkpt lat="40.31531499553679" lon="14.977319133432166"><ele>212.8</ele><time>2026-03-29T09:12:24Z</time></trkpt><trkpt lat="40.31529964871202" lon="14.977204092473638"><ele>211.4</ele><time>2026-03-29T09:12:26Z</time></trkpt><trkpt lat="40.31527141381712" lon="14.977084655731183"><ele>210.0</ele><time>2026-03-29T09:12:28Z</time></trkpt><trkpt lat="40.31521992514988" lon="14.976963992994143"><ele>210.0</ele><time>2026-03-29T09:12:30Z</time></trkpt><trkpt lat="40.31514317359272" lon="14.9768702778113"><ele>210.0</ele><time>2026-03-29T09:12:32Z</time></trkpt><trkpt lat="40.315054049991176" lon="14.976759226064978"><ele>210.0</ele><time>2026-03-29T09:12:34Z</time></trkpt><trkpt lat="40.31499476156096" lon="14.976681321327037"><ele>210.0</ele><time>2026-03-29T09:12:36Z</time></trkpt><trkpt lat="40.3149411996118" lon="14.9765677053375"><ele>210.0</ele><time>2026-03-29T09:12:38Z</time></trkpt><trkpt lat="40.314916120441346" lon="14.976433018599304"><ele>211.4</ele><time>2026-03-29T09:12:40Z</time></trkpt><trkpt lat="40.3149296898745" lon="14.976308279917744"><ele>212.8</ele><time>2026-03-29T09:12:42Z</time></trkpt><trkpt lat="40.314985095259026" lon="14.976189991467798"><ele>214.2</ele><time>2026-03-29T09:12:44Z</time></trkpt><trkpt lat="40.315057627268764" lon="14.976080272545527"><ele>215.6</ele><time>2026-03-29T09:12:46Z</time></trkpt><trkpt lat="40.31513429048082" lon="14.975977937916051"><ele>217.0</ele><time>2026-03-29T09:12:48Z</time></trkpt><trkpt lat="40.315216381687854" lon="14.975884803108219"><ele>215.8</ele><time>2026-03-29T09:12:50Z</time></trkpt><trkpt lat="40.315294726659744" lon="14.975807249121434"><ele>214.6</ele><time>2026-03-29T09:12:52Z</time></trkpt><trkpt lat="40.31537781679573" lon="14.975728265474558"><ele>213.4</ele><time>2026-03-29T09:12:54Z</time></trkpt><trkpt lat="40.315487254001745" lon="14.975638758470584"><ele>212.20000000000002</ele><time>2026-03-29T09:12:55.999Z</time></trkpt><trkpt lat="40.3155699683834" lon="14.975601344412569"><ele>211.0</ele><time>2026-03-29T09:12:57.999Z</time></trkpt><trkpt lat="40.315651634702014" lon="14.975583239257855"><ele>214.20000000000002</ele><time>2026-03-29T09:12:59.999Z</time></trkpt><trkpt lat="40.31574213140224" lon="14.975609193703194"><ele>217.4</ele><time>2026-03-29T09:13:01.999Z</time></trkpt><trkpt lat="40.315845386770505" lon="14.975671384876076"><ele>220.6</ele><time>2026-03-29T09:13:03.999Z</time></trkpt><trkpt lat="40.315948577252065" lon="14.975697035271072"><ele>223.8</ele><time>2026-03-29T09:13:05.999Z</time></trkpt><trkpt lat="40.31604299894512" lon="14.975742135261827"><ele>227.0</ele><time>2026-03-29T09:13:07.999Z</time></trkpt><trkpt lat="40.316143222124325" lon="14.975755071958"><ele>227.0</ele><time>2026-03-29T09:13:09.999Z</time></trkpt><trkpt lat="40.3162325256244" lon="14.97575027860052"><ele>227.0</ele><time>2026-03-29T09:13:11.999Z</time></trkpt><trkpt lat="40.31633580364353" lon="14.975714007464815"><ele>227.0</ele><time>2026-03-29T09:13:13.999Z</time></trkpt><trkpt lat="40.316432152509606" lon="14.97566274194112"><ele>227.0</ele><time>2026-03-29T09:13:16Z</time></trkpt><trkpt lat="40.31651912074681" lon="14.975586438103141"><ele>227.0</ele><time>2026-03-29T09:13:18Z</time></trkpt><trkpt lat="40.31661429220749" lon="14.97549306897978"><ele>228.0</ele><time>2026-03-29T09:13:20Z</time></trkpt><trkpt lat="40.31669827460993" lon="14.975411712120527"><ele>229.0</ele><time>2026-03-29T09:13:22Z</time></trkpt><trkpt lat="40.31678984843932" lon="14.975326911856934"><ele>230.0</ele><time>2026-03-29T09:13:24Z</time></trkpt><trkpt lat="40.31688531675234" lon="14.975253353817596"><ele>231.0</ele><time>2026-03-29T09:13:26Z</time></trkpt><trkpt lat="40.316986899594056" lon="14.975231369742975"><ele>232.0</ele><time>2026-03-29T09:13:28Z</time></trkpt><trkpt lat="40.31705085175208" lon="14.975231699590784"><ele>232.0</ele><time>2026-03-29T09:13:29Z</time></trkpt><trkpt lat="40.317155665842506" lon="14.9752135616865"><ele>232.0</ele><time>2026-03-29T09:13:31Z</time></trkpt><trkpt lat="40.31727085352738" lon="14.975154229847691"><ele>232.0</ele><time>2026-03-29T09:13:33Z</time></trkpt><trkpt lat="40.31738879754754" lon="14.97512855893603"><ele>232.0</ele><time>2026-03-29T09:13:35Z</time></trkpt><trkpt lat="40.31749986972877" lon="14.975060283251526"><ele>230.6</ele><time>2026-03-29T09:13:37Z</time></trkpt><trkpt lat="40.31760609778592" lon="14.975010477565526"><ele>229.2</ele><time>2026-03-29T09:13:39Z</time></trkpt><trkpt lat="40.31768721276739" lon="14.9749265572667"><ele>227.8</ele><time>2026-03-29T09:13:41Z</time></trkpt><trkpt lat="40.317771093923355" lon="14.974816278849747"><ele>226.4</ele><time>2026-03-29T09:13:43Z</time></trkpt><trkpt lat="40.317845426391926" lon="14.974729965978424"><ele>225.0</ele><time>2026-03-29T09:13:45Z</time></trkpt><trkpt lat="40.31790066688368" lon="14.974612552033303"><ele>225.0</ele><time>2026-03-29T09:13:47Z</time></trkpt><trkpt lat="40.31797949037745" lon="14.974525063766313"><ele>225.0</ele><time>2026-03-29T09:13:49Z</time></trkpt><trkpt lat="40.318062255426824" lon="14.974401383928374"><ele>225.0</ele><time>2026-03-29T09:13:51Z</time></trkpt><trkpt lat="40.31810671843781" lon="14.974339838231602"><ele>225.0</ele><time>2026-03-29T09:13:52Z</time></trkpt><trkpt lat="40.3181918949478" lon="14.974230269277202"><ele>225.0</ele><time>2026-03-29T09:13:54Z</time></trkpt><trkpt lat="40.31825675770147" lon="14.974112606432726"><ele>226.2</ele><time>2026-03-29T09:13:56Z</time></trkpt><trkpt lat="40.31834793053561" lon="14.973990118961751"><ele>227.4</ele><time>2026-03-29T09:13:58Z</time></trkpt><trkpt lat="40.31837914044913" lon="14.973908034705635"><ele>228.60000000000002</ele><time>2026-03-29T09:13:59Z</time></trkpt><trkpt lat="40.3184062633393" lon="14.973817937060549"><ele>229.8</ele><time>2026-03-29T09:14:00Z</time></trkpt><trkpt lat="40.318447100213056" lon="14.973695680573595"><ele>231.0</ele><time>2026-03-29T09:14:02Z</time></trkpt><trkpt lat="40.31848519482289" lon="14.973549094425346"><ele>231.0</ele><time>2026-03-29T09:14:04Z</time></trkpt><trkpt lat="40.31850187798037" lon="14.973467984921653"><ele>231.00000000000003</ele><time>2026-03-29T09:14:05Z</time></trkpt><trkpt lat="40.31851158202833" lon="14.973316985068097"><ele>231.00000000000003</ele><time>2026-03-29T09:14:07Z</time></trkpt><trkpt lat="40.318517744187574" lon="14.973195486951866"><ele>231.0</ele><time>2026-03-29T09:14:09Z</time></trkpt><trkpt lat="40.31855270705989" lon="14.973030469877504"><ele>231.0</ele><time>2026-03-29T09:14:11Z</time></trkpt><trkpt lat="40.31859079853626" lon="14.972932451598153"><ele>229.0</ele><time>2026-03-29T09:14:13Z</time></trkpt><trkpt lat="40.31864742670648" lon="14.972810837331135"><ele>227.00000000000003</ele><time>2026-03-29T09:14:15Z</time></trkpt><trkpt lat="40.31870474893249" lon="14.972772565576882"><ele>225.00000000000003</ele><time>2026-03-29T09:14:16Z</time></trkpt><trkpt lat="40.3187990696451" lon="14.97269494513136"><ele>223.0</ele><time>2026-03-29T09:14:18Z</time></trkpt><trkpt lat="40.31890196224009" lon="14.972616763477834"><ele>221.0</ele><time>2026-03-29T09:14:20Z</time></trkpt><trkpt lat="40.31895775421361" lon="14.972558307981899"><ele>223.4</ele><time>2026-03-29T09:14:21Z</time></trkpt><trkpt lat="40.319022085125084" lon="14.972495602901617"><ele>225.8</ele><time>2026-03-29T09:14:22Z</time></trkpt><trkpt lat="40.319124445155296" lon="14.972407270050232"><ele>228.20000000000002</ele><time>2026-03-29T09:14:24Z</time></trkpt><trkpt lat="40.319220375413494" lon="14.97229708481015"><ele>230.60000000000002</ele><time>2026-03-29T09:14:26Z</time></trkpt><trkpt lat="40.319271509683695" lon="14.972242584876769"><ele>233.0</ele><time>2026-03-29T09:14:27Z</time></trkpt><trkpt lat="40.31931616274644" lon="14.972177258370737"><ele>233.00000000000003</ele><time>2026-03-29T09:14:28Z</time></trkpt><trkpt lat="40.31938581787709" lon="14.972130731018432"><ele>233.0</ele><time>2026-03-29T09:14:29Z</time></trkpt><trkpt lat="40.31944882418563" lon="14.972080724341737"><ele>233.0</ele><time>2026-03-29T09:14:30Z</time></trkpt><trkpt lat="40.31950672767574" lon="14.972025092483662"><ele>233.0</ele><time>2026-03-29T09:14:31Z</time></trkpt><trkpt lat="40.31956254386796" lon="14.97196338215226"><ele>233.00000000000003</ele><time>2026-03-29T09:14:32Z</time></trkpt><trkpt lat="40.319623617471876" lon="14.971895195807653"><ele>233.0</ele><time>2026-03-29T09:14:33Z</time></trkpt><trkpt lat="40.31968890388499" lon="14.971826952139095"><ele>233.16666666666669</ele><time>2026-03-29T09:14:34Z</time></trkpt><trkpt lat="40.31975011676344" lon="14.971757592222954"><ele>233.33333333333334</ele><time>2026-03-29T09:14:35Z</time></trkpt><trkpt lat="40.3198214808898" lon="14.971684867479231"><ele>233.5</ele><time>2026-03-29T09:14:36Z</time></trkpt><trkpt lat="40.31989309146568" lon="14.971612438498937"><ele>233.66666666666669</ele><time>2026-03-29T09:14:37Z</time></trkpt><trkpt lat="40.3199660439732" lon="14.971536782916894"><ele>233.83333333333334</ele><time>2026-03-29T09:14:38Z</time></trkpt><trkpt lat="40.32002475160419" lon="14.971473242203322"><ele>234.0</ele><time>2026-03-29T09:14:39Z</time></trkpt><trkpt lat="40.32008472553959" lon="14.971416412281409"><ele>234.0</ele><time>2026-03-29T09:14:40Z</time></trkpt><trkpt lat="40.32014479241812" lon="14.971355626428245"><ele>234.0</ele><time>2026-03-29T09:14:41Z</time></trkpt><trkpt lat="40.32018415318332" lon="14.971283723851036"><ele>234.0</ele><time>2026-03-29T09:14:42Z</time></trkpt><trkpt lat="40.320227629095996" lon="14.971214673032325"><ele>234.0</ele><time>2026-03-29T09:14:43Z</time></trkpt><trkpt lat="40.320314129128334" lon="14.971101111101186"><ele>234.0</ele><time>2026-03-29T09:14:45Z</time></trkpt><trkpt lat="40.3203707715009" lon="14.971055506633776"><ele>234.0</ele><time>2026-03-29T09:14:46Z</time></trkpt><trkpt lat="40.32043443911141" lon="14.971021669833156"><ele>234.0</ele><time>2026-03-29T09:14:47Z</time></trkpt><trkpt lat="40.3205515475036" lon="14.970948333363385"><ele>233.99999999999997</ele><time>2026-03-29T09:14:49Z</time></trkpt><trkpt lat="40.32061141904214" lon="14.97091059704132"><ele>233.99999999999997</ele><time>2026-03-29T09:14:50Z</time></trkpt><trkpt lat="40.32065587840329" lon="14.97084915472322"><ele>234.0</ele><time>2026-03-29T09:14:51Z</time></trkpt><trkpt lat="40.32070413190395" lon="14.97069715198606"><ele>234.0</ele><time>2026-03-29T09:14:53Z</time></trkpt><trkpt lat="40.32069784776563" lon="14.97060338710241"><ele>234.0</ele><time>2026-03-29T09:14:54Z</time></trkpt><trkpt lat="40.32069904322947" lon="14.97051428730669"><ele>234.00000000000003</ele><time>2026-03-29T09:14:55Z</time></trkpt><trkpt lat="40.32071886618128" lon="14.970415420687193"><ele>234.0</ele><time>2026-03-29T09:14:56Z</time></trkpt><trkpt lat="40.320714981146516" lon="14.970310998580667"><ele>234.0</ele><time>2026-03-29T09:14:57Z</time></trkpt><trkpt lat="40.32071995054966" lon="14.97021867784227"><ele>234.00000000000003</ele><time>2026-03-29T09:14:58Z</time></trkpt><trkpt lat="40.32072444742232" lon="14.970135371350528"><ele>234.0</ele><time>2026-03-29T09:14:59Z</time></trkpt><trkpt lat="40.32072578474682" lon="14.970039934742696"><ele>234.0</ele><time>2026-03-29T09:15:00Z</time></trkpt><trkpt lat="40.32073878363925" lon="14.969937815151836"><ele>234.0</ele><time>2026-03-29T09:15:01Z</time></trkpt><trkpt lat="40.32074359356877" lon="14.969833862795708"><ele>234.00000000000003</ele><time>2026-03-29T09:15:02Z</time></trkpt><trkpt lat="40.32074945619686" lon="14.969743757525526"><ele>234.0</ele><time>2026-03-29T09:15:03Z</time></trkpt><trkpt lat="40.320750904398736" lon="14.969651960773092"><ele>234.0</ele><time>2026-03-29T09:15:04Z</time></trkpt><trkpt lat="40.320746334973805" lon="14.969561631655683"><ele>234.00000000000003</ele><time>2026-03-29T09:15:05Z</time></trkpt><trkpt lat="40.32072415748563" lon="14.969465926224224"><ele>234.0</ele><time>2026-03-29T09:15:06Z</time></trkpt><trkpt lat="40.32069506310772" lon="14.969366964774716"><ele>234.0</ele><time>2026-03-29T09:15:07Z</time></trkpt><trkpt lat="40.32065611058778" lon="14.96926712486162"><ele>234.83333333333334</ele><time>2026-03-29T09:15:08Z</time></trkpt><trkpt lat="40.32061972110592" lon="14.96917373833898"><ele>235.66666666666669</ele><time>2026-03-29T09:15:09Z</time></trkpt><trkpt lat="40.32060361116678" lon="14.969081364561854"><ele>236.5</ele><time>2026-03-29T09:15:10Z</time></trkpt><trkpt lat="40.32056603602406" lon="14.96900547635988"><ele>237.33333333333334</ele><time>2026-03-29T09:15:11Z</time></trkpt><trkpt lat="40.3205409052895" lon="14.968899011721538"><ele>238.16666666666669</ele><time>2026-03-29T09:15:12Z</time></trkpt><trkpt lat="40.32050949250305" lon="14.968805172011402"><ele>239.0</ele><time>2026-03-29T09:15:13Z</time></trkpt><trkpt lat="40.320476067632335" lon="14.968720766361368"><ele>237.79999999999998</ele><time>2026-03-29T09:15:14Z</time></trkpt><trkpt lat="40.32041468724295" lon="14.968591355592409"><ele>236.59999999999997</ele><time>2026-03-29T09:15:16Z</time></trkpt><trkpt lat="40.32034022819714" lon="14.968500827010498"><ele>235.4</ele><time>2026-03-29T09:15:18Z</time></trkpt><trkpt lat="40.32025256832851" lon="14.968407219421293"><ele>234.2</ele><time>2026-03-29T09:15:20Z</time></trkpt><trkpt lat="40.32020569040506" lon="14.968340256422232"><ele>233.0</ele><time>2026-03-29T09:15:21Z</time></trkpt><trkpt lat="40.320157669401105" lon="14.968281062328803"><ele>233.00000000000003</ele><time>2026-03-29T09:15:22Z</time></trkpt><trkpt lat="40.320103579351645" lon="14.96823475351981"><ele>233.0</ele><time>2026-03-29T09:15:23Z</time></trkpt><trkpt lat="40.32001030279499" lon="14.968116383144942"><ele>233.0</ele><time>2026-03-29T09:15:25Z</time></trkpt><trkpt lat="40.319967717058574" lon="14.968054814416368"><ele>233.0</ele><time>2026-03-29T09:15:26Z</time></trkpt><trkpt lat="40.319920147381524" lon="14.967982951066002"><ele>233.00000000000003</ele><time>2026-03-29T09:15:27Z</time></trkpt><trkpt lat="40.31987143998086" lon="14.967913901853894"><ele>233.0</ele><time>2026-03-29T09:15:28Z</time></trkpt><trkpt lat="40.3198193108265" lon="14.967844519737815"><ele>233.0</ele><time>2026-03-29T09:15:29Z</time></trkpt><trkpt lat="40.31976455672991" lon="14.967779985669157"><ele>233.0</ele><time>2026-03-29T09:15:30Z</time></trkpt><trkpt lat="40.31970446237284" lon="14.967721793098812"><ele>233.0</ele><time>2026-03-29T09:15:31Z</time></trkpt><trkpt lat="40.31959935325113" lon="14.967636828538932"><ele>233.0</ele><time>2026-03-29T09:15:33Z</time></trkpt><trkpt lat="40.319543101063736" lon="14.967542553940586"><ele>233.0</ele><time>2026-03-29T09:15:35Z</time></trkpt><trkpt lat="40.31949254914583" lon="14.967410458004744"><ele>230.8</ele><time>2026-03-29T09:15:37Z</time></trkpt><trkpt lat="40.31951305991286" lon="14.967325123160345"><ele>228.60000000000002</ele><time>2026-03-29T09:15:38Z</time></trkpt><trkpt lat="40.319543125051474" lon="14.967171578688806"><ele>226.39999999999998</ele><time>2026-03-29T09:15:40Z</time></trkpt><trkpt lat="40.31957421492678" lon="14.967095884860907"><ele>224.2</ele><time>2026-03-29T09:15:41Z</time></trkpt><trkpt lat="40.319601305253705" lon="14.966945772748995"><ele>222.0</ele><time>2026-03-29T09:15:43Z</time></trkpt><trkpt lat="40.319601210871966" lon="14.966804621691745"><ele>222.42857142857142</ele><time>2026-03-29T09:15:45Z</time></trkpt><trkpt lat="40.319615514545866" lon="14.966679017025152"><ele>222.8571428571429</ele><time>2026-03-29T09:15:47Z</time></trkpt><trkpt lat="40.3196157564716" lon="14.966577141906036"><ele>223.2857142857143</ele><time>2026-03-29T09:15:48Z</time></trkpt><trkpt lat="40.319615961813774" lon="14.96649067234311"><ele>223.71428571428572</ele><time>2026-03-29T09:15:49Z</time></trkpt><trkpt lat="40.319602944543625" lon="14.966409386767507"><ele>224.14285714285717</ele><time>2026-03-29T09:15:50Z</time></trkpt><trkpt lat="40.31960786554768" lon="14.966313538297225"><ele>224.5714285714286</ele><time>2026-03-29T09:15:51Z</time></trkpt><trkpt lat="40.319594570034226" lon="14.96622382652711"><ele>225.00000000000003</ele><time>2026-03-29T09:15:52Z</time></trkpt><trkpt lat="40.3195750636291" lon="14.966127432649573"><ele>225.0</ele><time>2026-03-29T09:15:53Z</time></trkpt><trkpt lat="40.31953144977081" lon="14.966040626526338"><ele>225.0</ele><time>2026-03-29T09:15:54Z</time></trkpt><trkpt lat="40.31948552413288" lon="14.965963139164987"><ele>225.0</ele><time>2026-03-29T09:15:55Z</time></trkpt><trkpt lat="40.319420272029106" lon="14.96588796887322"><ele>225.0</ele><time>2026-03-29T09:15:56Z</time></trkpt><trkpt lat="40.319361855333355" lon="14.96581276470363"><ele>225.0</ele><time>2026-03-29T09:15:57Z</time></trkpt><trkpt lat="40.31932174453274" lon="14.965739431775418"><ele>225.0</ele><time>2026-03-29T09:15:58Z</time></trkpt><trkpt lat="40.31929859438718" lon="14.965649069771718"><ele>226.66666666666666</ele><time>2026-03-29T09:15:59Z</time></trkpt><trkpt lat="40.31927758224248" lon="14.96555920745321"><ele>228.33333333333331</ele><time>2026-03-29T09:16:00Z</time></trkpt><trkpt lat="40.319238295876474" lon="14.965470078846124"><ele>230.0</ele><time>2026-03-29T09:16:01Z</time></trkpt><trkpt lat="40.319214145751594" lon="14.965358013500635"><ele>231.66666666666666</ele><time>2026-03-29T09:16:02Z</time></trkpt><trkpt lat="40.319183066358704" lon="14.965266976540917"><ele>233.33333333333331</ele><time>2026-03-29T09:16:03Z</time></trkpt><trkpt lat="40.319149615412066" lon="14.965182045932682"><ele>235.0</ele><time>2026-03-29T09:16:04Z</time></trkpt><trkpt lat="40.31911652739499" lon="14.965105963992682"><ele>233.83333333333331</ele><time>2026-03-29T09:16:05Z</time></trkpt><trkpt lat="40.31908017196755" lon="14.96501992345751"><ele>232.66666666666666</ele><time>2026-03-29T09:16:06Z</time></trkpt><trkpt lat="40.31903469939822" lon="14.964955616317111"><ele>231.5</ele><time>2026-03-29T09:16:07Z</time></trkpt><trkpt lat="40.31899256108429" lon="14.964893780611007"><ele>230.33333333333331</ele><time>2026-03-29T09:16:08Z</time></trkpt><trkpt lat="40.318934194826895" lon="14.9647894650722"><ele>229.16666666666666</ele><time>2026-03-29T09:16:10Z</time></trkpt><trkpt lat="40.31889435536066" lon="14.964703257599497"><ele>228.0</ele><time>2026-03-29T09:16:12Z</time></trkpt><trkpt lat="40.3188539290537" lon="14.964569907485446"><ele>228.0</ele><time>2026-03-29T09:16:14Z</time></trkpt><trkpt lat="40.318834378692976" lon="14.964449780209444"><ele>228.0</ele><time>2026-03-29T09:16:16Z</time></trkpt><trkpt lat="40.31884079967694" lon="14.96434446120633"><ele>228.0</ele><time>2026-03-29T09:16:18Z</time></trkpt><trkpt lat="40.31886493417726" lon="14.964246398910571"><ele>228.0</ele><time>2026-03-29T09:16:20Z</time></trkpt><trkpt lat="40.31891749390378" lon="14.964118862918163"><ele>228.0</ele><time>2026-03-29T09:16:22Z</time></trkpt><trkpt lat="40.318963981594564" lon="14.963988610282772"><ele>232.0</ele><time>2026-03-29T09:16:24Z</time></trkpt><trkpt lat="40.319011338413866" lon="14.963872840651838"><ele>236.0</ele><time>2026-03-29T09:16:26Z</time></trkpt><trkpt lat="40.31908094041336" lon="14.963773510563277"><ele>240.0</ele><time>2026-03-29T09:16:28Z</time></trkpt><trkpt lat="40.31914420657595" lon="14.963725228891846"><ele>244.0</ele><time>2026-03-29T09:16:29Z</time></trkpt><trkpt lat="40.31918857928472" lon="14.963662348857394"><ele>248.0</ele><time>2026-03-29T09:16:30Z</time></trkpt><trkpt lat="40.31925173373516" lon="14.963617051534397"><ele>252.0</ele><time>2026-03-29T09:16:31Z</time></trkpt><trkpt lat="40.31931187342246" lon="14.963578855680032"><ele>252.0</ele><time>2026-03-29T09:16:32Z</time></trkpt><trkpt lat="40.319415268233136" lon="14.963513698159359"><ele>252.0</ele><time>2026-03-29T09:16:34Z</time></trkpt><trkpt lat="40.31950533223572" lon="14.963439351468192"><ele>252.0</ele><time>2026-03-29T09:16:36Z</time></trkpt><trkpt lat="40.31960279759738" lon="14.963373008768142"><ele>252.0</ele><time>2026-03-29T09:16:38Z</time></trkpt><trkpt lat="40.31971013547605" lon="14.963294752021572"><ele>252.39999999999998</ele><time>2026-03-29T09:16:40Z</time></trkpt><trkpt lat="40.3198026273176" lon="14.963244098588197"><ele>252.79999999999998</ele><time>2026-03-29T09:16:42Z</time></trkpt><trkpt lat="40.31990209865971" lon="14.96316097901407"><ele>253.2</ele><time>2026-03-29T09:16:44Z</time></trkpt><trkpt lat="40.31996476862899" lon="14.963114413082861"><ele>253.6</ele><time>2026-03-29T09:16:45Z</time></trkpt><trkpt lat="40.320040704319325" lon="14.963029203677815"><ele>254.0</ele><time>2026-03-29T09:16:47Z</time></trkpt><trkpt lat="40.32010701043621" lon="14.962906252523373"><ele>254.0</ele><time>2026-03-29T09:16:49Z</time></trkpt><trkpt lat="40.32014637458369" lon="14.962821885716306"><ele>253.99999999999997</ele><time>2026-03-29T09:16:50Z</time></trkpt><trkpt lat="40.320190986553875" lon="14.962746338184079"><ele>253.99999999999997</ele><time>2026-03-29T09:16:51Z</time></trkpt><trkpt lat="40.32025912591866" lon="14.962640488800051"><ele>254.0</ele><time>2026-03-29T09:16:53Z</time></trkpt><trkpt lat="40.32032829891034" lon="14.962526110733172"><ele>254.0</ele><time>2026-03-29T09:16:55Z</time></trkpt><trkpt lat="40.320405867002336" lon="14.962403836265857"><ele>255.0</ele><time>2026-03-29T09:16:57Z</time></trkpt><trkpt lat="40.3204899708061" lon="14.962254309673773"><ele>255.99999999999997</ele><time>2026-03-29T09:16:59Z</time></trkpt><trkpt lat="40.32053172715424" lon="14.962175602556343"><ele>257.0</ele><time>2026-03-29T09:17:00Z</time></trkpt><trkpt lat="40.320576292658885" lon="14.96207855974614"><ele>258.0</ele><time>2026-03-29T09:17:01Z</time></trkpt><trkpt lat="40.32061134669198" lon="14.96200925215204"><ele>259.0</ele><time>2026-03-29T09:17:02Z</time></trkpt><trkpt lat="40.32065240935027" lon="14.961901830388955"><ele>259.0</ele><time>2026-03-29T09:17:03Z</time></trkpt><trkpt lat="40.32068452462865" lon="14.961743519187355"><ele>259.0</ele><time>2026-03-29T09:17:05Z</time></trkpt><trkpt lat="40.320695422502695" lon="14.961648178843033"><ele>259.0</ele><time>2026-03-29T09:17:06Z</time></trkpt><trkpt lat="40.320695842202255" lon="14.961538228783482"><ele>259.0</ele><time>2026-03-29T09:17:07Z</time></trkpt><trkpt lat="40.320682579226975" lon="14.961417674139769"><ele>259.0</ele><time>2026-03-29T09:17:08Z</time></trkpt><trkpt lat="40.32067031019716" lon="14.961311289597496"><ele>258.66666666666663</ele><time>2026-03-29T09:17:09Z</time></trkpt><trkpt lat="40.32068025089385" lon="14.961213901860637"><ele>258.3333333333333</ele><time>2026-03-29T09:17:10Z</time></trkpt><trkpt lat="40.32067788232917" lon="14.961111442298206"><ele>258.0</ele><time>2026-03-29T09:17:11Z</time></trkpt><trkpt lat="40.320673003864826" lon="14.960986377876763"><ele>257.6666666666667</ele><time>2026-03-29T09:17:13Z</time></trkpt><trkpt lat="40.320697137048356" lon="14.960878061455345"><ele>257.33333333333337</ele><time>2026-03-29T09:18:09Z</time></trkpt><trkpt lat="40.32068404918822" lon="14.960763829934743"><ele>257.0</ele><time>2026-03-29T09:18:11Z</time></trkpt><trkpt lat="40.320668162736894" lon="14.960614123400635"><ele>257.0</ele><time>2026-03-29T09:18:13Z</time></trkpt><trkpt lat="40.32064699409751" lon="14.96053178318013"><ele>257.0</ele><time>2026-03-29T09:18:14Z</time></trkpt><trkpt lat="40.320626694717404" lon="14.960453159544436"><ele>257.0</ele><time>2026-03-29T09:18:15Z</time></trkpt><trkpt lat="40.320606465512014" lon="14.96036891460928"><ele>257.0</ele><time>2026-03-29T09:18:16Z</time></trkpt><trkpt lat="40.320585783554726" lon="14.960284882785663"><ele>257.0</ele><time>2026-03-29T09:18:17Z</time></trkpt><trkpt lat="40.32056389843763" lon="14.960205115824861"><ele>257.0</ele><time>2026-03-29T09:18:18Z</time></trkpt><trkpt lat="40.32053983097275" lon="14.960115033240388"><ele>257.0</ele><time>2026-03-29T09:18:19Z</time></trkpt><trkpt lat="40.32050164536268" lon="14.959951481983051"><ele>253.71428571428572</ele><time>2026-03-29T09:18:21Z</time></trkpt><trkpt lat="40.320482287570265" lon="14.959866801358292"><ele>250.42857142857144</ele><time>2026-03-29T09:18:22Z</time></trkpt><trkpt lat="40.32045500826223" lon="14.959779054333545"><ele>247.14285714285717</ele><time>2026-03-29T09:18:23Z</time></trkpt><trkpt lat="40.32043859195584" lon="14.959697362763945"><ele>243.85714285714286</ele><time>2026-03-29T09:18:24Z</time></trkpt><trkpt lat="40.320408136190416" lon="14.959596108157971"><ele>240.5714285714286</ele><time>2026-03-29T09:18:25Z</time></trkpt><trkpt lat="40.320391396569654" lon="14.959510069754803"><ele>237.2857142857143</ele><time>2026-03-29T09:18:26Z</time></trkpt><trkpt lat="40.320376953533916" lon="14.959426942878748"><ele>234.0</ele><time>2026-03-29T09:18:27Z</time></trkpt><trkpt lat="40.32034072556158" lon="14.959340982822903"><ele>234.0</ele><time>2026-03-29T09:18:28Z</time></trkpt><trkpt lat="40.320294771232895" lon="14.959271450647988"><ele>234.00000000000003</ele><time>2026-03-29T09:18:29Z</time></trkpt><trkpt lat="40.320248955232415" lon="14.959213921921235"><ele>234.0</ele><time>2026-03-29T09:18:30Z</time></trkpt><trkpt lat="40.32018625348589" lon="14.959172926203586"><ele>234.0</ele><time>2026-03-29T09:18:31Z</time></trkpt><trkpt lat="40.3201038308512" lon="14.959137540371703"><ele>234.00000000000003</ele><time>2026-03-29T09:18:32Z</time></trkpt><trkpt lat="40.320031726460016" lon="14.95910893168221"><ele>234.0</ele><time>2026-03-29T09:18:33Z</time></trkpt><trkpt lat="40.31995795346007" lon="14.959083471031397"><ele>234.0</ele><time>2026-03-29T09:18:34Z</time></trkpt><trkpt lat="40.31989781123564" lon="14.959056754759334"><ele>234.85714285714286</ele><time>2026-03-29T09:18:35Z</time></trkpt><trkpt lat="40.31982797309523" lon="14.959031599880754"><ele>235.71428571428572</ele><time>2026-03-29T09:18:36Z</time></trkpt><trkpt lat="40.319757467775254" lon="14.959016094334665"><ele>236.57142857142858</ele><time>2026-03-29T09:18:37Z</time></trkpt><trkpt lat="40.31968400322923" lon="14.959013488910916"><ele>237.42857142857144</ele><time>2026-03-29T09:18:38Z</time></trkpt><trkpt lat="40.319610140072704" lon="14.95901686563861"><ele>238.28571428571428</ele><time>2026-03-29T09:18:39Z</time></trkpt><trkpt lat="40.31954031733864" lon="14.95902584802136"><ele>239.14285714285717</ele><time>2026-03-29T09:18:40Z</time></trkpt><trkpt lat="40.31947571816562" lon="14.959038902769695"><ele>240.0</ele><time>2026-03-29T09:18:41Z</time></trkpt><trkpt lat="40.31935314177755" lon="14.959062090897111"><ele>240.0</ele><time>2026-03-29T09:18:43Z</time></trkpt><trkpt lat="40.319245831267125" lon="14.959047920994424"><ele>240.0</ele><time>2026-03-29T09:18:45Z</time></trkpt><trkpt lat="40.319134558312136" lon="14.958974097172478"><ele>240.0</ele><time>2026-03-29T09:18:47Z</time></trkpt><trkpt lat="40.319065380706846" lon="14.958926562674788"><ele>240.0</ele><time>2026-03-29T09:18:48Z</time></trkpt><trkpt lat="40.319008533611395" lon="14.958877489151153"><ele>240.0</ele><time>2026-03-29T09:18:49Z</time></trkpt><trkpt lat="40.31895000021026" lon="14.958820604756944"><ele>236.25</ele><time>2026-03-29T09:18:50Z</time></trkpt><trkpt lat="40.318890667059584" lon="14.958780219634452"><ele>232.5</ele><time>2026-03-29T09:18:51Z</time></trkpt><trkpt lat="40.31877071734769" lon="14.958707087012579"><ele>228.75</ele><time>2026-03-29T09:18:53Z</time></trkpt><trkpt lat="40.318643508965195" lon="14.958655486077605"><ele>225.0</ele><time>2026-03-29T09:18:55Z</time></trkpt><trkpt lat="40.31852936361255" lon="14.958609006536035"><ele>225.0</ele><time>2026-03-29T09:18:57Z</time></trkpt><trkpt lat="40.31846408766227" lon="14.958593103816185"><ele>225.0</ele><time>2026-03-29T09:18:58Z</time></trkpt><trkpt lat="40.31837640252517" lon="14.958534865557374"><ele>225.0</ele><time>2026-03-29T09:19:00Z</time></trkpt><trkpt lat="40.31831209642931" lon="14.958458347789811"><ele>225.0</ele><time>2026-03-29T09:19:02Z</time></trkpt><trkpt lat="40.318235778630815" lon="14.958329678002874"><ele>225.0</ele><time>2026-03-29T09:19:04Z</time></trkpt><trkpt lat="40.31814770472713" lon="14.958222032242645"><ele>224.0</ele><time>2026-03-29T09:19:06Z</time></trkpt><trkpt lat="40.31810426196721" lon="14.958141399224516"><ele>223.0</ele><time>2026-03-29T09:19:07Z</time></trkpt><trkpt lat="40.318057530119326" lon="14.958073875179323"><ele>222.0</ele><time>2026-03-29T09:19:08Z</time></trkpt><trkpt lat="40.31800681868782" lon="14.95800504380128"><ele>221.0</ele><time>2026-03-29T09:19:09Z</time></trkpt><trkpt lat="40.31792525414141" lon="14.957900152881894"><ele>220.0</ele><time>2026-03-29T09:19:11Z</time></trkpt><trkpt lat="40.31783637737973" lon="14.957786943604997"><ele>220.0</ele><time>2026-03-29T09:19:13Z</time></trkpt><trkpt lat="40.31778582625174" lon="14.95772117502387"><ele>220.0</ele><time>2026-03-29T09:19:14Z</time></trkpt><trkpt lat="40.31771307392659" lon="14.957619448693544"><ele>220.0</ele><time>2026-03-29T09:19:16Z</time></trkpt><trkpt lat="40.31766788689616" lon="14.957492801221397"><ele>220.0</ele><time>2026-03-29T09:19:18Z</time></trkpt><trkpt lat="40.317684226620116" lon="14.957381121975326"><ele>220.0</ele><time>2026-03-29T09:19:20Z</time></trkpt><trkpt lat="40.31776102396873" lon="14.957292191121308"><ele>223.2</ele><time>2026-03-29T09:19:22Z</time></trkpt><trkpt lat="40.31781499430074" lon="14.957192559154231"><ele>226.4</ele><time>2026-03-29T09:19:24Z</time></trkpt><trkpt lat="40.317877127843964" lon="14.957091220556435"><ele>229.60000000000002</ele><time>2026-03-29T09:19:26Z</time></trkpt><trkpt lat="40.317947377843566" lon="14.957001936597145"><ele>232.8</ele><time>2026-03-29T09:19:28Z</time></trkpt><trkpt lat="40.31800295275757" lon="14.956902193447611"><ele>236.0</ele><time>2026-03-29T09:19:30Z</time></trkpt><trkpt lat="40.31806273968911" lon="14.956817903641307"><ele>238.4</ele><time>2026-03-29T09:19:32Z</time></trkpt><trkpt lat="40.318124430588945" lon="14.956719977788914"><ele>240.8</ele><time>2026-03-29T09:19:34Z</time></trkpt><trkpt lat="40.31818748472199" lon="14.956627357534101"><ele>243.20000000000002</ele><time>2026-03-29T09:19:36Z</time></trkpt><trkpt lat="40.31825904668092" lon="14.956525677468765"><ele>245.60000000000002</ele><time>2026-03-29T09:19:38Z</time></trkpt><trkpt lat="40.31832216210568" lon="14.95643379214121"><ele>248.0</ele><time>2026-03-29T09:19:40Z</time></trkpt><trkpt lat="40.31837608568386" lon="14.95633530348681"><ele>248.0</ele><time>2026-03-29T09:19:42Z</time></trkpt><trkpt lat="40.318405852566556" lon="14.956222013782172"><ele>248.0</ele><time>2026-03-29T09:19:44Z</time></trkpt><trkpt lat="40.318410221103406" lon="14.956074111467467"><ele>248.0</ele><time>2026-03-29T09:19:46Z</time></trkpt><trkpt lat="40.318416991119115" lon="14.955942926116586"><ele>248.0</ele><time>2026-03-29T09:19:48Z</time></trkpt><trkpt lat="40.31840898994982" lon="14.955813106262028"><ele>248.0</ele><time>2026-03-29T09:19:50Z</time></trkpt><trkpt lat="40.3184087599698" lon="14.955666578380287"><ele>245.8</ele><time>2026-03-29T09:19:52Z</time></trkpt><trkpt lat="40.318421329382936" lon="14.955535308177208"><ele>243.60000000000002</ele><time>2026-03-29T09:19:54Z</time></trkpt><trkpt lat="40.31842999838249" lon="14.95539874726999"><ele>241.39999999999998</ele><time>2026-03-29T09:19:56Z</time></trkpt><trkpt lat="40.31845614409136" lon="14.955289837997759"><ele>239.2</ele><time>2026-03-29T09:19:58Z</time></trkpt><trkpt lat="40.31849564713184" lon="14.955175247664913"><ele>237.0</ele><time>2026-03-29T09:20:00Z</time></trkpt><trkpt lat="40.318532981476075" lon="14.955081603577206"><ele>237.83333333333334</ele><time>2026-03-29T09:20:02Z</time></trkpt><trkpt lat="40.318594252476544" lon="14.95502710261006"><ele>238.66666666666669</ele><time>2026-03-29T09:20:04Z</time></trkpt><trkpt lat="40.318681396969886" lon="14.95497811961671"><ele>239.5</ele><time>2026-03-29T09:20:07Z</time></trkpt><trkpt lat="40.31874071757283" lon="14.954949503790191"><ele>240.33333333333334</ele><time>2026-03-29T09:20:09Z</time></trkpt><trkpt lat="40.31880925081899" lon="14.954914846036111"><ele>241.16666666666669</ele><time>2026-03-29T09:20:12Z</time></trkpt><trkpt lat="40.31887040760054" lon="14.954883918611888"><ele>242.0</ele><time>2026-03-29T09:20:14Z</time></trkpt><trkpt lat="40.31894408368042" lon="14.954838356812429"><ele>242.0</ele><time>2026-03-29T09:20:16Z</time></trkpt><trkpt lat="40.3190285413445" lon="14.954787680251787"><ele>242.0</ele><time>2026-03-29T09:20:18Z</time></trkpt><trkpt lat="40.31912152492881" lon="14.95474991445482"><ele>242.0</ele><time>2026-03-29T09:20:20Z</time></trkpt><trkpt lat="40.31922596917684" lon="14.954679589284687"><ele>242.0</ele><time>2026-03-29T09:20:22Z</time></trkpt><trkpt lat="40.31928439462705" lon="14.95464619049669"><ele>242.0</ele><time>2026-03-29T09:20:23Z</time></trkpt><trkpt lat="40.31938885563612" lon="14.954597498659133"><ele>242.00000000000003</ele><time>2026-03-29T09:20:25Z</time></trkpt><trkpt lat="40.31945362485671" lon="14.95457092707742"><ele>242.0</ele><time>2026-03-29T09:20:26Z</time></trkpt><trkpt lat="40.319510596448914" lon="14.954531334000386"><ele>242.0</ele><time>2026-03-29T09:20:27Z</time></trkpt><trkpt lat="40.31957250706736" lon="14.954500351130113"><ele>242.0</ele><time>2026-03-29T09:20:28Z</time></trkpt><trkpt lat="40.3196911680538" lon="14.954438285773268"><ele>242.00000000000003</ele><time>2026-03-29T09:20:30Z</time></trkpt><trkpt lat="40.31976070602806" lon="14.954407914466346"><ele>242.0</ele><time>2026-03-29T09:20:31Z</time></trkpt><trkpt lat="40.31981752794074" lon="14.954369087182286"><ele>243.39999999999998</ele><time>2026-03-29T09:20:32Z</time></trkpt><trkpt lat="40.31988037342779" lon="14.954342898833014"><ele>244.79999999999998</ele><time>2026-03-29T09:20:33Z</time></trkpt><trkpt lat="40.32000161359941" lon="14.954290292046188"><ele>246.2</ele><time>2026-03-29T09:20:35Z</time></trkpt><trkpt lat="40.32011517299011" lon="14.954247084253756"><ele>247.6</ele><time>2026-03-29T09:20:37Z</time></trkpt><trkpt lat="40.32018372536375" lon="14.954221101985867"><ele>249.0</ele><time>2026-03-29T09:20:38Z</time></trkpt><trkpt lat="40.3203080198936" lon="14.954211218404707"><ele>249.0</ele><time>2026-03-29T09:20:40Z</time></trkpt><trkpt lat="40.32039362918695" lon="14.954215555073935"><ele>249.0</ele><time>2026-03-29T09:20:42Z</time></trkpt><trkpt lat="40.32047841485096" lon="14.95421517968971"><ele>249.0</ele><time>2026-03-29T09:20:44Z</time></trkpt><trkpt lat="40.32054260724446" lon="14.954219932644918"><ele>249.0</ele><time>2026-03-29T09:20:57Z</time></trkpt><trkpt lat="40.320643124137156" lon="14.954236916217516"><ele>249.0</ele><time>2026-03-29T09:21:00Z</time></trkpt><trkpt lat="40.320702834526195" lon="14.95428713368258"><ele>249.0</ele><time>2026-03-29T09:21:02Z</time></trkpt><trkpt lat="40.32076875329274" lon="14.954329950710823"><ele>248.0</ele><time>2026-03-29T09:21:04Z</time></trkpt><trkpt lat="40.32085731220733" lon="14.954375786557609"><ele>246.99999999999997</ele><time>2026-03-29T09:21:06Z</time></trkpt><trkpt lat="40.320946687422904" lon="14.954363702252126"><ele>245.99999999999997</ele><time>2026-03-29T09:21:08Z</time></trkpt><trkpt lat="40.32105799657286" lon="14.954311792256423"><ele>245.0</ele><time>2026-03-29T09:21:10Z</time></trkpt><trkpt lat="40.321107866151905" lon="14.954240335788864"><ele>244.0</ele><time>2026-03-29T09:21:11Z</time></trkpt><trkpt lat="40.32122232891665" lon="14.95418859190448"><ele>242.16666666666666</ele><time>2026-03-29T09:21:13Z</time></trkpt><trkpt lat="40.321288156042435" lon="14.954160675518219"><ele>240.33333333333331</ele><time>2026-03-29T09:21:14Z</time></trkpt><trkpt lat="40.321351864926264" lon="14.95415694741589"><ele>238.5</ele><time>2026-03-29T09:21:15Z</time></trkpt><trkpt lat="40.321425146099834" lon="14.954135600296123"><ele>236.66666666666669</ele><time>2026-03-29T09:21:16Z</time></trkpt><trkpt lat="40.32149390628547" lon="14.954117819484392"><ele>234.83333333333334</ele><time>2026-03-29T09:21:17Z</time></trkpt><trkpt lat="40.321615015869774" lon="14.954085069972601"><ele>233.0</ele><time>2026-03-29T09:21:19Z</time></trkpt><trkpt lat="40.321728494177414" lon="14.954057271438959"><ele>233.0</ele><time>2026-03-29T09:21:21Z</time></trkpt><trkpt lat="40.321845682162035" lon="14.95404082245929"><ele>233.0</ele><time>2026-03-29T09:21:23Z</time></trkpt><trkpt lat="40.321912486159746" lon="14.954024102453618"><ele>233.0</ele><time>2026-03-29T09:21:24Z</time></trkpt><trkpt lat="40.32201281102342" lon="14.954018095149285"><ele>233.0</ele><time>2026-03-29T09:21:26Z</time></trkpt><trkpt lat="40.32209168777113" lon="14.95401373989597"><ele>233.0</ele><time>2026-03-29T09:21:28Z</time></trkpt><trkpt lat="40.32216744968337" lon="14.953949625842162"><ele>233.0</ele><time>2026-03-29T09:21:30Z</time></trkpt><trkpt lat="40.32221537372684" lon="14.953790160491982"><ele>233.0</ele><time>2026-03-29T09:21:32Z</time></trkpt><trkpt lat="40.3222557120509" lon="14.953692776678036"><ele>233.0</ele><time>2026-03-29T09:21:33Z</time></trkpt><trkpt lat="40.32228395561671" lon="14.953556927924677"><ele>233.0</ele><time>2026-03-29T09:21:35Z</time></trkpt><trkpt lat="40.32235737291832" lon="14.95345489384985"><ele>233.0</ele><time>2026-03-29T09:21:37Z</time></trkpt><trkpt lat="40.32243870438136" lon="14.953349028313331"><ele>232.50000000000003</ele><time>2026-03-29T09:21:39Z</time></trkpt><trkpt lat="40.32249480605078" lon="14.953286508595268"><ele>232.0</ele><time>2026-03-29T09:21:40Z</time></trkpt><trkpt lat="40.32255484950696" lon="14.953221805503517"><ele>231.5</ele><time>2026-03-29T09:21:41Z</time></trkpt><trkpt lat="40.32261973024426" lon="14.953142402744843"><ele>231.0</ele><time>2026-03-29T09:21:42Z</time></trkpt><trkpt lat="40.322678738934506" lon="14.953078264806615"><ele>230.50000000000003</ele><time>2026-03-29T09:21:43Z</time></trkpt><trkpt lat="40.32274546044844" lon="14.953016272504865"><ele>230.0</ele><time>2026-03-29T09:21:44Z</time></trkpt><trkpt lat="40.322803359050994" lon="14.95297049882257"><ele>229.99999999999997</ele><time>2026-03-29T09:21:45Z</time></trkpt><trkpt lat="40.32286326682674" lon="14.95291999858391"><ele>230.0</ele><time>2026-03-29T09:21:46Z</time></trkpt><trkpt lat="40.322915320514355" lon="14.952871368590674"><ele>229.99999999999997</ele><time>2026-03-29T09:21:47Z</time></trkpt><trkpt lat="40.32298624228876" lon="14.952826960626549"><ele>229.99999999999997</ele><time>2026-03-29T09:21:48Z</time></trkpt><trkpt lat="40.3230534226401" lon="14.952765447174897"><ele>230.0</ele><time>2026-03-29T09:21:49Z</time></trkpt><trkpt lat="40.3231233749984" lon="14.952727757658105"><ele>229.99999999999997</ele><time>2026-03-29T09:21:50Z</time></trkpt><trkpt lat="40.323166309734056" lon="14.95265893970247"><ele>229.99999999999997</ele><time>2026-03-29T09:21:51Z</time></trkpt><trkpt lat="40.32322724592135" lon="14.952624740267215"><ele>230.00000000000003</ele><time>2026-03-29T09:21:52Z</time></trkpt><trkpt lat="40.3232807560516" lon="14.952573119341952"><ele>230.0</ele><time>2026-03-29T09:21:53Z</time></trkpt><trkpt lat="40.32339087178026" lon="14.952485373336451"><ele>230.0</ele><time>2026-03-29T09:21:55Z</time></trkpt><trkpt lat="40.32345707278568" lon="14.952446209883595"><ele>230.0</ele><time>2026-03-29T09:21:56Z</time></trkpt><trkpt lat="40.323517996978595" lon="14.952414115645015"><ele>230.00000000000003</ele><time>2026-03-29T09:21:57Z</time></trkpt><trkpt lat="40.32361903050351" lon="14.952368713326464"><ele>230.0</ele><time>2026-03-29T09:21:59Z</time></trkpt><trkpt lat="40.32371288392632" lon="14.95233884114248"><ele>229.99999999999997</ele><time>2026-03-29T09:22:01Z</time></trkpt><trkpt lat="40.323790336849726" lon="14.952319485810579"><ele>230.0</ele><time>2026-03-29T09:22:03Z</time></trkpt><trkpt lat="40.32386246637473" lon="14.952348028439362"><ele>229.99999999999997</ele><time>2026-03-29T09:22:05Z</time></trkpt><trkpt lat="40.32392706638898" lon="14.952344490406922"><ele>229.99999999999997</ele><time>2026-03-29T09:22:08Z</time></trkpt><trkpt lat="40.32396906928804" lon="14.952275346430662"><ele>230.0</ele><time>2026-03-29T09:22:12Z</time></trkpt><trkpt lat="40.323908034688436" lon="14.952251721303085"><ele>229.99999999999997</ele><time>2026-03-29T09:22:15Z</time></trkpt><trkpt lat="40.32385495860524" lon="14.952312982449467"><ele>229.99999999999997</ele><time>2026-03-29T09:23:03Z</time></trkpt><trkpt lat="40.323791547779706" lon="14.952292477653376"><ele>230.00000000000003</ele><time>2026-03-29T09:23:06Z</time></trkpt><trkpt lat="40.32372014251264" lon="14.95231306589812"><ele>230.0</ele><time>2026-03-29T09:23:08Z</time></trkpt><trkpt lat="40.32363754904406" lon="14.952308059569372"><ele>230.0</ele><time>2026-03-29T09:23:11Z</time></trkpt><trkpt lat="40.32354958893777" lon="14.952347076815721"><ele>230.0</ele><time>2026-03-29T09:23:14Z</time></trkpt><trkpt lat="40.32345638546122" lon="14.952390301704261"><ele>230.00000000000003</ele><time>2026-03-29T09:23:16Z</time></trkpt><trkpt lat="40.32337612966971" lon="14.952442883492054"><ele>230.0</ele><time>2026-03-29T09:23:18Z</time></trkpt><trkpt lat="40.32330880577857" lon="14.952495178486101"><ele>230.00000000000003</ele><time>2026-03-29T09:23:20Z</time></trkpt><trkpt lat="40.32323344743375" lon="14.952561917630296"><ele>230.0</ele><time>2026-03-29T09:23:22Z</time></trkpt><trkpt lat="40.32316518818488" lon="14.952631432714933"><ele>230.0</ele><time>2026-03-29T09:23:24Z</time></trkpt><trkpt lat="40.32309730652362" lon="14.95270387297065"><ele>230.0</ele><time>2026-03-29T09:23:25.999Z</time></trkpt><trkpt lat="40.32303344238088" lon="14.95276684899564"><ele>230.00000000000003</ele><time>2026-03-29T09:23:27.999Z</time></trkpt><trkpt lat="40.32295271557503" lon="14.952829180330687"><ele>230.0</ele><time>2026-03-29T09:23:29.999Z</time></trkpt><trkpt lat="40.32287644873298" lon="14.952897087309251"><ele>230.0</ele><time>2026-03-29T09:23:31.999Z</time></trkpt><trkpt lat="40.32278633845126" lon="14.952963199335178"><ele>230.0</ele><time>2026-03-29T09:23:33.999Z</time></trkpt><trkpt lat="40.322684106010875" lon="14.953042726747745"><ele>230.0</ele><time>2026-03-29T09:23:35.999Z</time></trkpt><trkpt lat="40.32263229491277" lon="14.953092183466513"><ele>230.0</ele><time>2026-03-29T09:23:36.999Z</time></trkpt><trkpt lat="40.322535441477086" lon="14.95318017018533"><ele>230.0</ele><time>2026-03-29T09:23:38.999Z</time></trkpt><trkpt lat="40.32244496431425" lon="14.953280031216178"><ele>230.0</ele><time>2026-03-29T09:23:40.999Z</time></trkpt><trkpt lat="40.322368429406765" lon="14.953362172175991"><ele>230.0</ele><time>2026-03-29T09:23:42.999Z</time></trkpt><trkpt lat="40.322300178819894" lon="14.953492009338172"><ele>230.0</ele><time>2026-03-29T09:23:44.999Z</time></trkpt><trkpt lat="40.32226485939346" lon="14.953566148412571"><ele>230.0</ele><time>2026-03-29T09:23:45.999Z</time></trkpt><trkpt lat="40.322218283911994" lon="14.953699191646438"><ele>230.0</ele><time>2026-03-29T09:23:47.999Z</time></trkpt><trkpt lat="40.32218666381305" lon="14.953817361488543"><ele>230.6</ele><time>2026-03-29T09:23:49.999Z</time></trkpt><trkpt lat="40.32213538777748" lon="14.953916101193695"><ele>231.2</ele><time>2026-03-29T09:23:51.999Z</time></trkpt><trkpt lat="40.322059957552746" lon="14.95396549383006"><ele>231.8</ele><time>2026-03-29T09:23:53.999Z</time></trkpt><trkpt lat="40.32197250304914" lon="14.953987523296483"><ele>232.4</ele><time>2026-03-29T09:23:56.999Z</time></trkpt><trkpt lat="40.32186062620858" lon="14.954017727142366"><ele>233.0</ele><time>2026-03-29T09:23:58.999Z</time></trkpt><trkpt lat="40.321747705431235" lon="14.954033710800555"><ele>233.0</ele><time>2026-03-29T09:24:00.999Z</time></trkpt><trkpt lat="40.3216552432294" lon="14.954050652415173"><ele>233.0</ele><time>2026-03-29T09:24:03Z</time></trkpt><trkpt lat="40.321560963054075" lon="14.954064824322387"><ele>233.0</ele><time>2026-03-29T09:24:05Z</time></trkpt><trkpt lat="40.32144419125209" lon="14.954089612283811"><ele>233.0</ele><time>2026-03-29T09:24:07Z</time></trkpt><trkpt lat="40.321375590043026" lon="14.954096268039635"><ele>233.0</ele><time>2026-03-29T09:24:08Z</time></trkpt><trkpt lat="40.32127889619457" lon="14.954117966657694"><ele>232.2</ele><time>2026-03-29T09:24:10Z</time></trkpt><trkpt lat="40.321182169008004" lon="14.954175855411199"><ele>231.4</ele><time>2026-03-29T09:24:12Z</time></trkpt><trkpt lat="40.321082729158164" lon="14.954225415554163"><ele>230.59999999999997</ele><time>2026-03-29T09:24:14Z</time></trkpt><trkpt lat="40.320989359015165" lon="14.954282282418419"><ele>229.79999999999998</ele><time>2026-03-29T09:24:16Z</time></trkpt><trkpt lat="40.32090212059059" lon="14.954336844310982"><ele>229.0</ele><time>2026-03-29T09:24:18Z</time></trkpt><trkpt lat="40.32080675660272" lon="14.954310421638995"><ele>229.2</ele><time>2026-03-29T09:24:20Z</time></trkpt><trkpt lat="40.32071742632416" lon="14.954251845653754"><ele>229.39999999999998</ele><time>2026-03-29T09:24:22Z</time></trkpt><trkpt lat="40.32062089086276" lon="14.954206745003926"><ele>229.6</ele><time>2026-03-29T09:24:24Z</time></trkpt><trkpt lat="40.3205237983618" lon="14.954189471667055"><ele>229.8</ele><time>2026-03-29T09:24:26Z</time></trkpt><trkpt lat="40.32040823140979" lon="14.9541822801369"><ele>230.0</ele><time>2026-03-29T09:24:28Z</time></trkpt><trkpt lat="40.32028734954315" lon="14.954172098590329"><ele>230.0</ele><time>2026-03-29T09:24:30Z</time></trkpt><trkpt lat="40.32017687191545" lon="14.954203014433789"><ele>230.0</ele><time>2026-03-29T09:24:32Z</time></trkpt><trkpt lat="40.32006613470093" lon="14.954221075478738"><ele>230.0</ele><time>2026-03-29T09:24:34Z</time></trkpt><trkpt lat="40.31999437576353" lon="14.95425235429048"><ele>230.0</ele><time>2026-03-29T09:24:35Z</time></trkpt><trkpt lat="40.319888287613544" lon="14.954297357782602"><ele>230.0</ele><time>2026-03-29T09:24:37Z</time></trkpt><trkpt lat="40.31982718481597" lon="14.954332104478082"><ele>232.00000000000003</ele><time>2026-03-29T09:24:38Z</time></trkpt><trkpt lat="40.31971246300781" lon="14.954380936090756"><ele>234.0</ele><time>2026-03-29T09:24:40Z</time></trkpt><trkpt lat="40.31966140861974" lon="14.95443438049388"><ele>236.0</ele><time>2026-03-29T09:24:41Z</time></trkpt><trkpt lat="40.31959850275914" lon="14.954474015321965"><ele>238.0</ele><time>2026-03-29T09:24:42Z</time></trkpt><trkpt lat="40.31952239029276" lon="14.95450812401015"><ele>240.00000000000003</ele><time>2026-03-29T09:24:43Z</time></trkpt><trkpt lat="40.3194592547532" lon="14.954532879589276"><ele>242.0</ele><time>2026-03-29T09:24:44Z</time></trkpt><trkpt lat="40.3193634235047" lon="14.954585817649809"><ele>242.0</ele><time>2026-03-29T09:24:46Z</time></trkpt><trkpt lat="40.31925623219478" lon="14.9546416975281"><ele>242.0</ele><time>2026-03-29T09:24:48Z</time></trkpt><trkpt lat="40.31914807033806" lon="14.95470975475414"><ele>242.0</ele><time>2026-03-29T09:24:50Z</time></trkpt><trkpt lat="40.31903766574273" lon="14.95476159842555"><ele>242.0</ele><time>2026-03-29T09:24:52Z</time></trkpt><trkpt lat="40.31892408616278" lon="14.9548210159333"><ele>241.16666666666669</ele><time>2026-03-29T09:24:54Z</time></trkpt><trkpt lat="40.318863263097604" lon="14.954847263030548"><ele>240.33333333333334</ele><time>2026-03-29T09:24:55Z</time></trkpt><trkpt lat="40.31875935637365" lon="14.95489729288503"><ele>239.5</ele><time>2026-03-29T09:24:57Z</time></trkpt><trkpt lat="40.318658644263316" lon="14.95495656013972"><ele>238.66666666666669</ele><time>2026-03-29T09:24:59Z</time></trkpt><trkpt lat="40.318576076678006" lon="14.955002513477561"><ele>237.83333333333334</ele><time>2026-03-29T09:25:01Z</time></trkpt><trkpt lat="40.31850604401371" lon="14.955015757501197"><ele>237.0</ele><time>2026-03-29T09:25:04Z</time></trkpt><trkpt lat="40.318467598940835" lon="14.955169295935965"><ele>237.0</ele><time>2026-03-29T09:25:12Z</time></trkpt><trkpt lat="40.31843175448157" lon="14.955277741576323"><ele>237.0</ele><time>2026-03-29T09:25:14Z</time></trkpt><trkpt lat="40.31841563242653" lon="14.955357893184173"><ele>237.0</ele><time>2026-03-29T09:25:15Z</time></trkpt><trkpt lat="40.318401410764494" lon="14.955505111233803"><ele>237.0</ele><time>2026-03-29T09:25:17Z</time></trkpt><trkpt lat="40.31839596203711" lon="14.955664944717778"><ele>237.0</ele><time>2026-03-29T09:25:19Z</time></trkpt><trkpt lat="40.31839304846948" lon="14.955805129348846"><ele>239.2</ele><time>2026-03-29T09:25:21Z</time></trkpt><trkpt lat="40.31839162297572" lon="14.955948363935889"><ele>241.39999999999998</ele><time>2026-03-29T09:25:23Z</time></trkpt><trkpt lat="40.318391834543384" lon="14.956081619539688"><ele>243.60000000000002</ele><time>2026-03-29T09:25:25Z</time></trkpt><trkpt lat="40.318385442332335" lon="14.956216998945186"><ele>245.8</ele><time>2026-03-29T09:25:27Z</time></trkpt><trkpt lat="40.31835416763371" lon="14.956360647806173"><ele>248.0</ele><time>2026-03-29T09:25:29Z</time></trkpt><trkpt lat="40.31827191606327" lon="14.95647217806702"><ele>248.0</ele><time>2026-03-29T09:25:31Z</time></trkpt><trkpt lat="40.31820468235565" lon="14.95658934657504"><ele>248.0</ele><time>2026-03-29T09:25:32.999Z</time></trkpt><trkpt lat="40.31812958288814" lon="14.956698483365633"><ele>248.0</ele><time>2026-03-29T09:25:34.999Z</time></trkpt><trkpt lat="40.31803275519167" lon="14.956809830269787"><ele>248.0</ele><time>2026-03-29T09:25:36.999Z</time></trkpt><trkpt lat="40.317956472890764" lon="14.956956732777828"><ele>245.60000000000002</ele><time>2026-03-29T09:25:38.999Z</time></trkpt><trkpt lat="40.31790211701231" lon="14.957007519857955"><ele>243.20000000000002</ele><time>2026-03-29T09:25:39.999Z</time></trkpt><trkpt lat="40.31782191750044" lon="14.957143261855649"><ele>240.8</ele><time>2026-03-29T09:25:41.999Z</time></trkpt><trkpt lat="40.31774181904008" lon="14.957256938897112"><ele>238.4</ele><time>2026-03-29T09:25:43.999Z</time></trkpt><trkpt lat="40.31767125811292" lon="14.957361158154779"><ele>236.0</ele><time>2026-03-29T09:25:45.999Z</time></trkpt><trkpt lat="40.31763457125442" lon="14.957483389831406"><ele>233.33333333333334</ele><time>2026-03-29T09:25:47.999Z</time></trkpt><trkpt lat="40.31765055775221" lon="14.957563630096965"><ele>230.66666666666669</ele><time>2026-03-29T09:25:48.999Z</time></trkpt><trkpt lat="40.317717414885735" lon="14.95769049166639"><ele>228.0</ele><time>2026-03-29T09:25:51Z</time></trkpt><trkpt lat="40.31777190083044" lon="14.957756612754418"><ele>225.33333333333331</ele><time>2026-03-29T09:25:52Z</time></trkpt><trkpt lat="40.31782097454713" lon="14.957813989110711"><ele>222.66666666666666</ele><time>2026-03-29T09:25:53Z</time></trkpt><trkpt lat="40.317864174737736" lon="14.957879891113752"><ele>220.0</ele><time>2026-03-29T09:25:54Z</time></trkpt><trkpt lat="40.31791592237374" lon="14.957949944743088"><ele>219.99999999999997</ele><time>2026-03-29T09:25:55Z</time></trkpt><trkpt lat="40.31796346831392" lon="14.958012814747127"><ele>220.0</ele><time>2026-03-29T09:25:56Z</time></trkpt><trkpt lat="40.31801817685511" lon="14.958075079436806"><ele>220.0</ele><time>2026-03-29T09:25:57Z</time></trkpt><trkpt lat="40.31806772570431" lon="14.958143037290425"><ele>220.0</ele><time>2026-03-29T09:25:58Z</time></trkpt><trkpt lat="40.31811985768128" lon="14.958211440702257"><ele>220.0</ele><time>2026-03-29T09:25:59Z</time></trkpt><trkpt lat="40.31817877970455" lon="14.958291576876798"><ele>219.99999999999997</ele><time>2026-03-29T09:26:00Z</time></trkpt><trkpt lat="40.318225862428676" lon="14.958359893735583"><ele>220.0</ele><time>2026-03-29T09:26:01Z</time></trkpt><trkpt lat="40.318267029589045" lon="14.958430337529425"><ele>220.83333333333331</ele><time>2026-03-29T09:26:02Z</time></trkpt><trkpt lat="40.318346935509126" lon="14.958545218476877"><ele>221.66666666666666</ele><time>2026-03-29T09:26:04Z</time></trkpt><trkpt lat="40.318399767921626" lon="14.95859073965859"><ele>222.5</ele><time>2026-03-29T09:26:05Z</time></trkpt><trkpt lat="40.31846511071012" lon="14.958619788919403"><ele>223.33333333333331</ele><time>2026-03-29T09:26:06Z</time></trkpt><trkpt lat="40.31853083718981" lon="14.958635108834976"><ele>224.16666666666666</ele><time>2026-03-29T09:26:07Z</time></trkpt><trkpt lat="40.318606263889635" lon="14.95866103454368"><ele>225.0</ele><time>2026-03-29T09:26:08Z</time></trkpt><trkpt lat="40.31867715668333" lon="14.958684563846687"><ele>225.00000000000003</ele><time>2026-03-29T09:26:09Z</time></trkpt><trkpt lat="40.318745767817255" lon="14.95871655082332"><ele>225.0</ele><time>2026-03-29T09:26:10Z</time></trkpt><trkpt lat="40.31880855233281" lon="14.958743383648015"><ele>225.00000000000003</ele><time>2026-03-29T09:26:11Z</time></trkpt><trkpt lat="40.31887805324282" lon="14.958786412397044"><ele>225.00000000000003</ele><time>2026-03-29T09:26:12Z</time></trkpt><trkpt lat="40.31894105229366" lon="14.9588383685697"><ele>225.0</ele><time>2026-03-29T09:26:13Z</time></trkpt><trkpt lat="40.318998281376565" lon="14.958908887275296"><ele>225.00000000000003</ele><time>2026-03-29T09:26:14Z</time></trkpt><trkpt lat="40.31906464931303" lon="14.958964364577724"><ele>225.00000000000003</ele><time>2026-03-29T09:26:15Z</time></trkpt><trkpt lat="40.31913695093393" lon="14.958997267955693"><ele>227.5</ele><time>2026-03-29T09:26:16Z</time></trkpt><trkpt lat="40.31919360250342" lon="14.95903684852977"><ele>230.0</ele><time>2026-03-29T09:26:17Z</time></trkpt><trkpt lat="40.319258017796024" lon="14.959074467255713"><ele>232.5</ele><time>2026-03-29T09:26:18Z</time></trkpt><trkpt lat="40.31938749061951" lon="14.95909381393564"><ele>235.0</ele><time>2026-03-29T09:26:20Z</time></trkpt><trkpt lat="40.31945973461963" lon="14.959077957915296"><ele>237.5</ele><time>2026-03-29T09:26:21Z</time></trkpt><trkpt lat="40.31952634247957" lon="14.959062159839718"><ele>240.0</ele><time>2026-03-29T09:26:22Z</time></trkpt><trkpt lat="40.31959218897229" lon="14.95904358075661"><ele>240.0</ele><time>2026-03-29T09:26:23Z</time></trkpt><trkpt lat="40.31966054479941" lon="14.959038832502474"><ele>240.0</ele><time>2026-03-29T09:26:24Z</time></trkpt><trkpt lat="40.319725771593376" lon="14.959040221636283"><ele>240.0</ele><time>2026-03-29T09:26:25Z</time></trkpt><trkpt lat="40.319790715318604" lon="14.959071446684248"><ele>240.0</ele><time>2026-03-29T09:26:26Z</time></trkpt><trkpt lat="40.3198562945499" lon="14.959088811021362"><ele>240.0</ele><time>2026-03-29T09:26:27Z</time></trkpt><trkpt lat="40.319927755846194" lon="14.95908890433469"><ele>240.0</ele><time>2026-03-29T09:26:28Z</time></trkpt><trkpt lat="40.32000082452175" lon="14.959123764277695"><ele>240.0</ele><time>2026-03-29T09:26:29Z</time></trkpt><trkpt lat="40.32007305100225" lon="14.959151818048873"><ele>239.0</ele><time>2026-03-29T09:26:30Z</time></trkpt><trkpt lat="40.32013515171808" lon="14.95917688375956"><ele>238.0</ele><time>2026-03-29T09:26:31Z</time></trkpt><trkpt lat="40.32019362497141" lon="14.959209995085523"><ele>237.0</ele><time>2026-03-29T09:26:32Z</time></trkpt><trkpt lat="40.320298997406546" lon="14.959288829092337"><ele>236.0</ele><time>2026-03-29T09:26:34Z</time></trkpt><trkpt lat="40.32032560384827" lon="14.959365086976383"><ele>235.0</ele><time>2026-03-29T09:26:35Z</time></trkpt><trkpt lat="40.320373014682175" lon="14.959504799026675"><ele>234.0</ele><time>2026-03-29T09:26:37Z</time></trkpt><trkpt lat="40.320388714291674" lon="14.959599307774726"><ele>234.0</ele><time>2026-03-29T09:26:38Z</time></trkpt><trkpt lat="40.320423165517894" lon="14.959690247037063"><ele>234.00000000000003</ele><time>2026-03-29T09:26:39Z</time></trkpt><trkpt lat="40.32043323962718" lon="14.959778758938489"><ele>234.0</ele><time>2026-03-29T09:26:40Z</time></trkpt><trkpt lat="40.32045915284776" lon="14.959865892117783"><ele>234.0</ele><time>2026-03-29T09:26:41Z</time></trkpt><trkpt lat="40.320487287247325" lon="14.959950561255447"><ele>234.00000000000003</ele><time>2026-03-29T09:26:42Z</time></trkpt><trkpt lat="40.320509088240215" lon="14.96003908786482"><ele>234.0</ele><time>2026-03-29T09:26:43Z</time></trkpt><trkpt lat="40.320531504409104" lon="14.960126598487532"><ele>234.0</ele><time>2026-03-29T09:26:44Z</time></trkpt><trkpt lat="40.32055100869118" lon="14.960215479552533"><ele>238.6</ele><time>2026-03-29T09:26:45Z</time></trkpt><trkpt lat="40.32057053976859" lon="14.960302712427923"><ele>243.2</ele><time>2026-03-29T09:26:46Z</time></trkpt><trkpt lat="40.320594156175524" lon="14.960394137137389"><ele>247.79999999999998</ele><time>2026-03-29T09:26:47Z</time></trkpt><trkpt lat="40.32062300176627" lon="14.96049668138033"><ele>252.39999999999998</ele><time>2026-03-29T09:26:48Z</time></trkpt><trkpt lat="40.32066565112517" lon="14.960656339756689"><ele>257.0</ele><time>2026-03-29T09:26:50Z</time></trkpt><trkpt lat="40.320663640163325" lon="14.9608152532344"><ele>256.6666666666667</ele><time>2026-03-29T09:26:52Z</time></trkpt><trkpt lat="40.32064819838568" lon="14.960982329690406"><ele>256.33333333333337</ele><time>2026-03-29T09:26:54Z</time></trkpt><trkpt lat="40.32065923720557" lon="14.961066429207987"><ele>256.0</ele><time>2026-03-29T09:26:55Z</time></trkpt><trkpt lat="40.320643392920324" lon="14.96114705193438"><ele>255.66666666666669</ele><time>2026-03-29T09:26:56Z</time></trkpt><trkpt lat="40.320644287250275" lon="14.961232179409965"><ele>255.33333333333334</ele><time>2026-03-29T09:26:57Z</time></trkpt><trkpt lat="40.32065600749816" lon="14.961322156430649"><ele>255.0</ele><time>2026-03-29T09:26:58Z</time></trkpt><trkpt lat="40.3206672925298" lon="14.961412266280933"><ele>255.0</ele><time>2026-03-29T09:26:59Z</time></trkpt><trkpt lat="40.32066168201307" lon="14.961512339967259"><ele>255.0</ele><time>2026-03-29T09:27:00Z</time></trkpt><trkpt lat="40.32066888492302" lon="14.96159746528055"><ele>255.0</ele><time>2026-03-29T09:27:01Z</time></trkpt><trkpt lat="40.320674579517465" lon="14.96176160437533"><ele>255.0</ele><time>2026-03-29T09:27:03Z</time></trkpt><trkpt lat="40.320646974145475" lon="14.961835962050555"><ele>255.0</ele><time>2026-03-29T09:27:04Z</time></trkpt><trkpt lat="40.32061982619817" lon="14.961918569956946"><ele>255.0</ele><time>2026-03-29T09:27:05Z</time></trkpt><trkpt lat="40.32057955075755" lon="14.962007414248836"><ele>252.85714285714286</ele><time>2026-03-29T09:27:06Z</time></trkpt><trkpt lat="40.320555172596855" lon="14.962087731769204"><ele>250.71428571428572</ele><time>2026-03-29T09:27:07Z</time></trkpt><trkpt lat="40.320507063887" lon="14.96216795052204"><ele>248.57142857142858</ele><time>2026-03-29T09:27:08.001Z</time></trkpt><trkpt lat="40.32048402835741" lon="14.962251738200306"><ele>246.42857142857144</ele><time>2026-03-29T09:27:09.001Z</time></trkpt><trkpt lat="40.320445125137944" lon="14.96232249776641"><ele>244.28571428571428</ele><time>2026-03-29T09:27:10.001Z</time></trkpt><trkpt lat="40.32039551127686" lon="14.962390571323889"><ele>242.14285714285717</ele><time>2026-03-29T09:27:11.001Z</time></trkpt><trkpt lat="40.32034062226331" lon="14.962443638606572"><ele>240.0</ele><time>2026-03-29T09:27:12.001Z</time></trkpt><trkpt lat="40.32030445023683" lon="14.962523944867232"><ele>242.33333333333334</ele><time>2026-03-29T09:27:13.001Z</time></trkpt><trkpt lat="40.32025246823379" lon="14.96258229161323"><ele>244.66666666666669</ele><time>2026-03-29T09:27:14.001Z</time></trkpt><trkpt lat="40.320204927260114" lon="14.96266685099317"><ele>247.0</ele><time>2026-03-29T09:27:15.001Z</time></trkpt><trkpt lat="40.32016559183463" lon="14.962741992394188"><ele>249.33333333333334</ele><time>2026-03-29T09:27:16.001Z</time></trkpt><trkpt lat="40.320128532187354" lon="14.962826825280766"><ele>251.66666666666669</ele><time>2026-03-29T09:27:17.001Z</time></trkpt><trkpt lat="40.32008824728546" lon="14.96289879616674"><ele>254.0</ele><time>2026-03-29T09:27:18.001Z</time></trkpt><trkpt lat="40.319995194598995" lon="14.963015657572662"><ele>254.00000000000003</ele><time>2026-03-29T09:27:20.001Z</time></trkpt><trkpt lat="40.31994050321571" lon="14.963085057485435"><ele>254.0</ele><time>2026-03-29T09:27:21.001Z</time></trkpt><trkpt lat="40.31983906997857" lon="14.963168060312295"><ele>254.0</ele><time>2026-03-29T09:27:23.001Z</time></trkpt><trkpt lat="40.3197753042731" lon="14.963229874517182"><ele>254.0</ele><time>2026-03-29T09:27:24.001Z</time></trkpt><trkpt lat="40.31970841234793" lon="14.963280235482365"><ele>254.00000000000003</ele><time>2026-03-29T09:27:25.001Z</time></trkpt><trkpt lat="40.31963587475141" lon="14.963310639867407"><ele>254.0</ele><time>2026-03-29T09:27:26.001Z</time></trkpt><trkpt lat="40.319560099447344" lon="14.96336328722507"><ele>253.71428571428572</ele><time>2026-03-29T09:27:27.001Z</time></trkpt><trkpt lat="40.31949951672256" lon="14.96342418692966"><ele>253.42857142857142</ele><time>2026-03-29T09:27:28.001Z</time></trkpt><trkpt lat="40.319431891356864" lon="14.963468545615013"><ele>253.14285714285714</ele><time>2026-03-29T09:27:29.001Z</time></trkpt><trkpt lat="40.319375898241965" lon="14.963513364127476"><ele>252.85714285714286</ele><time>2026-03-29T09:27:30.001Z</time></trkpt><trkpt lat="40.31931107328695" lon="14.963560690425412"><ele>252.57142857142856</ele><time>2026-03-29T09:27:31.001Z</time></trkpt><trkpt lat="40.31924825819884" lon="14.963611545115148"><ele>252.28571428571428</ele><time>2026-03-29T09:27:32.001Z</time></trkpt><trkpt lat="40.31918329196646" lon="14.963659148727528"><ele>252.0</ele><time>2026-03-29T09:27:33.001Z</time></trkpt><trkpt lat="40.31912502104267" lon="14.9637071901365"><ele>252.0</ele><time>2026-03-29T09:27:34.001Z</time></trkpt><trkpt lat="40.319067361879036" lon="14.963759971138504"><ele>252.0</ele><time>2026-03-29T09:27:35.001Z</time></trkpt><trkpt lat="40.31901364616551" lon="14.96382606151447"><ele>252.0</ele><time>2026-03-29T09:27:36.001Z</time></trkpt><trkpt lat="40.31896920625328" lon="14.963909559171633"><ele>252.0</ele><time>2026-03-29T09:27:37.001Z</time></trkpt><trkpt lat="40.318935453300476" lon="14.963995638101181"><ele>252.0</ele><time>2026-03-29T09:27:38Z</time></trkpt><trkpt lat="40.318878786620374" lon="14.96416022237928"><ele>252.0</ele><time>2026-03-29T09:27:40Z</time></trkpt><trkpt lat="40.31884866209418" lon="14.96425428112459"><ele>251.8</ele><time>2026-03-29T09:27:41Z</time></trkpt><trkpt lat="40.31881283691105" lon="14.964403317781114"><ele>251.6</ele><time>2026-03-29T09:27:43Z</time></trkpt><trkpt lat="40.31881274472556" lon="14.964491964070282"><ele>251.40000000000003</ele><time>2026-03-29T09:27:44Z</time></trkpt><trkpt lat="40.318831799165146" lon="14.964582024317938"><ele>251.20000000000002</ele><time>2026-03-29T09:27:45Z</time></trkpt><trkpt lat="40.3188827575653" lon="14.96472241732284"><ele>251.0</ele><time>2026-03-29T09:27:47Z</time></trkpt><trkpt lat="40.31893244816606" lon="14.96481128093742"><ele>251.00000000000003</ele><time>2026-03-29T09:27:48Z</time></trkpt><trkpt lat="40.3189731468444" lon="14.964888538764487"><ele>251.0</ele><time>2026-03-29T09:27:49Z</time></trkpt><trkpt lat="40.31902309652572" lon="14.964965886254227"><ele>251.0</ele><time>2026-03-29T09:27:50Z</time></trkpt><trkpt lat="40.319062336476385" lon="14.965059280800501"><ele>251.0</ele><time>2026-03-29T09:27:51Z</time></trkpt><trkpt lat="40.319105111666474" lon="14.965147583313678"><ele>251.00000000000003</ele><time>2026-03-29T09:27:52Z</time></trkpt><trkpt lat="40.31914223653719" lon="14.965237075181424"><ele>251.0</ele><time>2026-03-29T09:27:53Z</time></trkpt><trkpt lat="40.31917251413511" lon="14.965319701922672"><ele>248.33333333333334</ele><time>2026-03-29T09:27:54Z</time></trkpt><trkpt lat="40.31920442785206" lon="14.96541223648583"><ele>245.66666666666669</ele><time>2026-03-29T09:27:55Z</time></trkpt><trkpt lat="40.31923121316365" lon="14.965515461812146"><ele>243.0</ele><time>2026-03-29T09:27:56Z</time></trkpt><trkpt lat="40.31925574125455" lon="14.965610231397827"><ele>240.33333333333331</ele><time>2026-03-29T09:27:57Z</time></trkpt><trkpt lat="40.31928605062853" lon="14.965711016102658"><ele>237.66666666666666</ele><time>2026-03-29T09:27:58Z</time></trkpt><trkpt lat="40.319322370745304" lon="14.965802126089953"><ele>235.0</ele><time>2026-03-29T09:27:59Z</time></trkpt><trkpt lat="40.31937781938778" lon="14.965867975457394"><ele>233.33333333333331</ele><time>2026-03-29T09:28:00Z</time></trkpt><trkpt lat="40.319432544770024" lon="14.965936152976875"><ele>231.66666666666666</ele><time>2026-03-29T09:28:01Z</time></trkpt><trkpt lat="40.31949022193485" lon="14.966006069898677"><ele>230.0</ele><time>2026-03-29T09:28:02Z</time></trkpt><trkpt lat="40.31953166933528" lon="14.966096905252794"><ele>228.33333333333331</ele><time>2026-03-29T09:28:03Z</time></trkpt><trkpt lat="40.319578961474335" lon="14.96616194804933"><ele>226.66666666666666</ele><time>2026-03-29T09:28:04Z</time></trkpt><trkpt lat="40.31958592576952" lon="14.96626439855566"><ele>225.0</ele><time>2026-03-29T09:28:05Z</time></trkpt><trkpt lat="40.31959054442459" lon="14.966363578636557"><ele>225.0</ele><time>2026-03-29T09:28:06Z</time></trkpt><trkpt lat="40.319582506301956" lon="14.966547744195784"><ele>225.0</ele><time>2026-03-29T09:28:08Z</time></trkpt><trkpt lat="40.319582275608084" lon="14.966644889446615"><ele>225.0</ele><time>2026-03-29T09:28:09Z</time></trkpt><trkpt lat="40.31958204779559" lon="14.966740820686002"><ele>225.0</ele><time>2026-03-29T09:28:10Z</time></trkpt><trkpt lat="40.3195780488906" lon="14.966851729336975"><ele>225.0</ele><time>2026-03-29T09:28:11Z</time></trkpt><trkpt lat="40.31957247388605" lon="14.966939196398245"><ele>225.0</ele><time>2026-03-29T09:28:12Z</time></trkpt><trkpt lat="40.319559017700314" lon="14.967034224355347"><ele>224.5</ele><time>2026-03-29T09:28:13Z</time></trkpt><trkpt lat="40.31952589751367" lon="14.967120689447887"><ele>224.0</ele><time>2026-03-29T09:28:14Z</time></trkpt><trkpt lat="40.319502396053615" lon="14.967198888860691"><ele>223.5</ele><time>2026-03-29T09:28:15Z</time></trkpt><trkpt lat="40.31949175408393" lon="14.96734997132887"><ele>223.0</ele><time>2026-03-29T09:28:17Z</time></trkpt><trkpt lat="40.3194824042436" lon="14.967485159513178"><ele>222.5</ele><time>2026-03-29T09:28:19Z</time></trkpt><trkpt lat="40.31951258022722" lon="14.967563435805012"><ele>222.0</ele><time>2026-03-29T09:28:20Z</time></trkpt><trkpt lat="40.31960029442537" lon="14.967651438361164"><ele>223.83333333333334</ele><time>2026-03-29T09:28:22Z</time></trkpt><trkpt lat="40.3196933192221" lon="14.967766377848092"><ele>225.66666666666669</ele><time>2026-03-29T09:28:24Z</time></trkpt><trkpt lat="40.31974505292297" lon="14.967817128950541"><ele>227.5</ele><time>2026-03-29T09:28:25Z</time></trkpt><trkpt lat="40.3198045523547" lon="14.967878420670027"><ele>229.33333333333334</ele><time>2026-03-29T09:28:26Z</time></trkpt><trkpt lat="40.319855876122325" lon="14.967948458242713"><ele>231.16666666666669</ele><time>2026-03-29T09:28:27Z</time></trkpt><trkpt lat="40.319900383553396" lon="14.968017349398325"><ele>233.0</ele><time>2026-03-29T09:28:28Z</time></trkpt><trkpt lat="40.319949342288766" lon="14.968095396952652"><ele>233.00000000000003</ele><time>2026-03-29T09:28:29Z</time></trkpt><trkpt lat="40.319992542956555" lon="14.968161901863935"><ele>233.0</ele><time>2026-03-29T09:28:30Z</time></trkpt><trkpt lat="40.3200453770111" lon="14.968231347053461"><ele>233.0</ele><time>2026-03-29T09:28:31Z</time></trkpt><trkpt lat="40.3201081476548" lon="14.9682945168279"><ele>233.0</ele><time>2026-03-29T09:28:32Z</time></trkpt><trkpt lat="40.320174780503656" lon="14.968358287028565"><ele>233.00000000000003</ele><time>2026-03-29T09:28:33Z</time></trkpt><trkpt lat="40.320225990224415" lon="14.968410646527976"><ele>233.0</ele><time>2026-03-29T09:28:34Z</time></trkpt><trkpt lat="40.320318397405934" lon="14.968521002549583"><ele>234.00000000000003</ele><time>2026-03-29T09:28:36Z</time></trkpt><trkpt lat="40.32039593976828" lon="14.968627593158331"><ele>235.0</ele><time>2026-03-29T09:28:38.001Z</time></trkpt><trkpt lat="40.32044942361938" lon="14.968722280905435"><ele>236.0</ele><time>2026-03-29T09:28:40.001Z</time></trkpt><trkpt lat="40.32048694869706" lon="14.968817139173074"><ele>237.0</ele><time>2026-03-29T09:28:43.001Z</time></trkpt><trkpt lat="40.32051383646509" lon="14.96890366566852"><ele>238.00000000000003</ele><time>2026-03-29T09:29:16.001Z</time></trkpt><trkpt lat="40.32054167379181" lon="14.96899519173066"><ele>239.0</ele><time>2026-03-29T09:29:18.001Z</time></trkpt><trkpt lat="40.32058095534963" lon="14.969088828345278"><ele>239.0</ele><time>2026-03-29T09:29:21.001Z</time></trkpt><trkpt lat="40.320611322160815" lon="14.969182003821212"><ele>238.99999999999997</ele><time>2026-03-29T09:30:23.001Z</time></trkpt><trkpt lat="40.32063086857477" lon="14.969294616575764"><ele>238.99999999999997</ele><time>2026-03-29T09:30:25.001Z</time></trkpt><trkpt lat="40.32066349303765" lon="14.969403656875587"><ele>239.0</ele><time>2026-03-29T09:30:27.001Z</time></trkpt><trkpt lat="40.320703066749566" lon="14.969531878292"><ele>239.0</ele><time>2026-03-29T09:30:29.001Z</time></trkpt><trkpt lat="40.32073012037004" lon="14.969671349539517"><ele>238.0</ele><time>2026-03-29T09:30:31.001Z</time></trkpt><trkpt lat="40.32071897479944" lon="14.969815534671387"><ele>236.99999999999997</ele><time>2026-03-29T09:30:33.001Z</time></trkpt><trkpt lat="40.320711503022864" lon="14.969973591624631"><ele>235.99999999999997</ele><time>2026-03-29T09:30:35.001Z</time></trkpt><trkpt lat="40.32071985403852" lon="14.97012124167632"><ele>235.0</ele><time>2026-03-29T09:30:37.001Z</time></trkpt><trkpt lat="40.32070841048607" lon="14.970208418988037"><ele>234.0</ele><time>2026-03-29T09:30:38.001Z</time></trkpt><trkpt lat="40.32070695703804" lon="14.97031826818937"><ele>234.0</ele><time>2026-03-29T09:30:39.001Z</time></trkpt><trkpt lat="40.32070029422359" lon="14.970401203107954"><ele>234.0</ele><time>2026-03-29T09:30:40.001Z</time></trkpt><trkpt lat="40.320691125684554" lon="14.97048343215602"><ele>234.0</ele><time>2026-03-29T09:30:41.001Z</time></trkpt><trkpt lat="40.32068841474074" lon="14.970566069062286"><ele>234.0</ele><time>2026-03-29T09:30:42.001Z</time></trkpt><trkpt lat="40.32068318943436" lon="14.970649967325937"><ele>234.0</ele><time>2026-03-29T09:30:43.001Z</time></trkpt><trkpt lat="40.320647551769156" lon="14.970801645975973"><ele>234.0</ele><time>2026-03-29T09:30:45.001Z</time></trkpt><trkpt lat="40.320565426154275" lon="14.970928014193282"><ele>234.0</ele><time>2026-03-29T09:30:47.001Z</time></trkpt><trkpt lat="40.32050918372115" lon="14.970974584461658"><ele>234.00000000000003</ele><time>2026-03-29T09:30:48.001Z</time></trkpt><trkpt lat="40.32044115785145" lon="14.971007834565873"><ele>234.0</ele><time>2026-03-29T09:30:49.001Z</time></trkpt><trkpt lat="40.32037629309678" lon="14.971015868966502"><ele>234.0</ele><time>2026-03-29T09:30:50.001Z</time></trkpt><trkpt lat="40.320316699941266" lon="14.971054341045406"><ele>234.00000000000003</ele><time>2026-03-29T09:30:51.001Z</time></trkpt><trkpt lat="40.3202601206461" lon="14.971103750537187"><ele>234.0</ele><time>2026-03-29T09:30:52.001Z</time></trkpt><trkpt lat="40.320206640334355" lon="14.971178646020917"><ele>234.0</ele><time>2026-03-29T09:30:53.001Z</time></trkpt><trkpt lat="40.32016266207068" lon="14.971244778830828"><ele>234.0</ele><time>2026-03-29T09:30:54.001Z</time></trkpt><trkpt lat="40.320122921654246" lon="14.971317914684219"><ele>234.0</ele><time>2026-03-29T09:30:55.001Z</time></trkpt><trkpt lat="40.32007805129939" lon="14.97139763670246"><ele>234.0</ele><time>2026-03-29T09:30:56.001Z</time></trkpt><trkpt lat="40.320021315464444" lon="14.971470903879325"><ele>234.0</ele><time>2026-03-29T09:30:57.001Z</time></trkpt><trkpt lat="40.319951161395885" lon="14.971533156839987"><ele>234.0</ele><time>2026-03-29T09:30:58.001Z</time></trkpt><trkpt lat="40.31987486046232" lon="14.971601102818811"><ele>234.0</ele><time>2026-03-29T09:30:59.001Z</time></trkpt><trkpt lat="40.31981085802134" lon="14.971667074797349"><ele>233.83333333333334</ele><time>2026-03-29T09:31:00.001Z</time></trkpt><trkpt lat="40.319749684850315" lon="14.971734538387084"><ele>233.66666666666669</ele><time>2026-03-29T09:31:01.001Z</time></trkpt><trkpt lat="40.31968104811942" lon="14.971803420962981"><ele>233.5</ele><time>2026-03-29T09:31:02.001Z</time></trkpt><trkpt lat="40.31961535536295" lon="14.97186958236031"><ele>233.33333333333334</ele><time>2026-03-29T09:31:03.001Z</time></trkpt><trkpt lat="40.31955694483378" lon="14.971928903321052"><ele>233.16666666666669</ele><time>2026-03-29T09:31:04.001Z</time></trkpt><trkpt lat="40.31948513669284" lon="14.9720072878019"><ele>233.0</ele><time>2026-03-29T09:31:05.001Z</time></trkpt><trkpt lat="40.319411468890834" lon="14.97208299009926"><ele>233.00000000000003</ele><time>2026-03-29T09:31:06.001Z</time></trkpt><trkpt lat="40.31935652696112" lon="14.972136407447056"><ele>233.0</ele><time>2026-03-29T09:31:07.001Z</time></trkpt><trkpt lat="40.319290046557164" lon="14.97218514841572"><ele>233.0</ele><time>2026-03-29T09:31:08.001Z</time></trkpt><trkpt lat="40.31922058021532" lon="14.972229024111105"><ele>233.0</ele><time>2026-03-29T09:31:09.001Z</time></trkpt><trkpt lat="40.31915388310052" lon="14.972288903187655"><ele>233.00000000000003</ele><time>2026-03-29T09:31:10.001Z</time></trkpt><trkpt lat="40.31909472223805" lon="14.972357931715372"><ele>233.0</ele><time>2026-03-29T09:31:11.001Z</time></trkpt><trkpt lat="40.31904413694034" lon="14.972432084467336"><ele>233.00000000000003</ele><time>2026-03-29T09:31:12.001Z</time></trkpt><trkpt lat="40.318995726760406" lon="14.97249255259512"><ele>233.0</ele><time>2026-03-29T09:31:13.001Z</time></trkpt><trkpt lat="40.318931550814426" lon="14.97256566870195"><ele>233.0</ele><time>2026-03-29T09:31:14.001Z</time></trkpt><trkpt lat="40.31886513902432" lon="14.972614275613118"><ele>233.0</ele><time>2026-03-29T09:31:15.001Z</time></trkpt><trkpt lat="40.31879687005898" lon="14.972654022525836"><ele>233.00000000000003</ele><time>2026-03-29T09:31:16.001Z</time></trkpt><trkpt lat="40.31872511298834" lon="14.972696582365366"><ele>233.0</ele><time>2026-03-29T09:31:17.001Z</time></trkpt><trkpt lat="40.31866435855235" lon="14.972750062307508"><ele>230.0</ele><time>2026-03-29T09:31:18.001Z</time></trkpt><trkpt lat="40.318581582893685" lon="14.972867642292378"><ele>227.0</ele><time>2026-03-29T09:31:20.001Z</time></trkpt><trkpt lat="40.31852016013369" lon="14.973006497843985"><ele>224.0</ele><time>2026-03-29T09:31:22.001Z</time></trkpt><trkpt lat="40.31849265015973" lon="14.9731540751711"><ele>221.0</ele><time>2026-03-29T09:31:24.001Z</time></trkpt><trkpt lat="40.318488917604576" lon="14.973318948266524"><ele>222.66666666666669</ele><time>2026-03-29T09:31:26.001Z</time></trkpt><trkpt lat="40.318475232374574" lon="14.973409602430845"><ele>224.33333333333334</ele><time>2026-03-29T09:31:27.001Z</time></trkpt><trkpt lat="40.31848037087505" lon="14.97349722803307"><ele>226.0</ele><time>2026-03-29T09:31:28.001Z</time></trkpt><trkpt lat="40.3184314474926" lon="14.973663726152958"><ele>227.66666666666669</ele><time>2026-03-29T09:31:30.001Z</time></trkpt><trkpt lat="40.31841474232517" lon="14.973749027246647"><ele>229.33333333333334</ele><time>2026-03-29T09:31:31.001Z</time></trkpt><trkpt lat="40.31838334532593" lon="14.973839510385835"><ele>231.0</ele><time>2026-03-29T09:31:32.001Z</time></trkpt><trkpt lat="40.318349901786284" lon="14.973931607945424"><ele>231.0</ele><time>2026-03-29T09:31:33.001Z</time></trkpt><trkpt lat="40.3182610570434" lon="14.974060598959824"><ele>231.0</ele><time>2026-03-29T09:31:35.001Z</time></trkpt><trkpt lat="40.3182295633387" lon="14.974142658291823"><ele>231.0</ele><time>2026-03-29T09:31:36.001Z</time></trkpt><trkpt lat="40.31817884856155" lon="14.974206099915895"><ele>231.0</ele><time>2026-03-29T09:31:37.001Z</time></trkpt><trkpt lat="40.318127959170376" lon="14.974265630388414"><ele>231.0</ele><time>2026-03-29T09:31:38.001Z</time></trkpt><trkpt lat="40.318076914130245" lon="14.97431857727517"><ele>231.0</ele><time>2026-03-29T09:31:39.001Z</time></trkpt><trkpt lat="40.318024966870425" lon="14.974376474462401"><ele>230.0</ele><time>2026-03-29T09:31:40.001Z</time></trkpt><trkpt lat="40.317978873102916" lon="14.974440436802848"><ele>229.0</ele><time>2026-03-29T09:31:41.001Z</time></trkpt><trkpt lat="40.31790482255624" lon="14.974552044769533"><ele>228.0</ele><time>2026-03-29T09:31:43.001Z</time></trkpt><trkpt lat="40.31786849419026" lon="14.974631847934862"><ele>227.0</ele><time>2026-03-29T09:31:44.001Z</time></trkpt><trkpt lat="40.3177901886053" lon="14.974747672337617"><ele>226.0</ele><time>2026-03-29T09:31:46.001Z</time></trkpt><trkpt lat="40.317745265690924" lon="14.974809975096791"><ele>225.0</ele><time>2026-03-29T09:31:47.001Z</time></trkpt><trkpt lat="40.31769623473675" lon="14.974880761323957"><ele>225.0</ele><time>2026-03-29T09:31:48.001Z</time></trkpt><trkpt lat="40.31765784898465" lon="14.974949100289374"><ele>225.0</ele><time>2026-03-29T09:31:49.001Z</time></trkpt><trkpt lat="40.317535088607464" lon="14.975016882213252"><ele>225.0</ele><time>2026-03-29T09:31:51.001Z</time></trkpt><trkpt lat="40.317469215682465" lon="14.975044720519312"><ele>225.0</ele><time>2026-03-29T09:31:52.001Z</time></trkpt><trkpt lat="40.317407898924515" lon="14.975085322990305"><ele>225.0</ele><time>2026-03-29T09:31:53.001Z</time></trkpt><trkpt lat="40.31733828992604" lon="14.975099189395502"><ele>225.0</ele><time>2026-03-29T09:31:54.001Z</time></trkpt><trkpt lat="40.317204861550714" lon="14.975148988414663"><ele>226.16666666666666</ele><time>2026-03-29T09:31:56.001Z</time></trkpt><trkpt lat="40.31713712820602" lon="14.975179030804787"><ele>227.33333333333331</ele><time>2026-03-29T09:31:57.001Z</time></trkpt><trkpt lat="40.31705595079731" lon="14.975199041858515"><ele>228.5</ele><time>2026-03-29T09:31:58.001Z</time></trkpt><trkpt lat="40.316985271015426" lon="14.975205117923682"><ele>229.66666666666666</ele><time>2026-03-29T09:31:59.001Z</time></trkpt><trkpt lat="40.31691750941249" lon="14.975215004233917"><ele>230.83333333333331</ele><time>2026-03-29T09:32:00.001Z</time></trkpt><trkpt lat="40.31685383698766" lon="14.975238428287165"><ele>232.0</ele><time>2026-03-29T09:32:01.001Z</time></trkpt><trkpt lat="40.31674762838148" lon="14.975297818714848"><ele>232.00000000000003</ele><time>2026-03-29T09:32:03.001Z</time></trkpt><trkpt lat="40.31669186951402" lon="14.975348990878116"><ele>232.0</ele><time>2026-03-29T09:32:04.001Z</time></trkpt><trkpt lat="40.31663914786545" lon="14.97540977941081"><ele>232.00000000000003</ele><time>2026-03-29T09:32:05.001Z</time></trkpt><trkpt lat="40.316582943291884" lon="14.975480829193861"><ele>232.00000000000003</ele><time>2026-03-29T09:32:06.001Z</time></trkpt><trkpt lat="40.316534768082825" lon="14.97554892406925"><ele>232.0</ele><time>2026-03-29T09:32:07.001Z</time></trkpt><trkpt lat="40.316472716572164" lon="14.97560225266089"><ele>232.00000000000003</ele><time>2026-03-29T09:32:08.001Z</time></trkpt><trkpt lat="40.31640729128377" lon="14.975644783698042"><ele>232.00000000000003</ele><time>2026-03-29T09:32:09.001Z</time></trkpt><trkpt lat="40.3163503909097" lon="14.975689637081393"><ele>231.16666666666666</ele><time>2026-03-29T09:32:10.001Z</time></trkpt><trkpt lat="40.31627595384915" lon="14.975702895393935"><ele>230.33333333333331</ele><time>2026-03-29T09:32:11.001Z</time></trkpt><trkpt lat="40.3162061952891" lon="14.975717181493584"><ele>229.5</ele><time>2026-03-29T09:32:12.001Z</time></trkpt><trkpt lat="40.31613551470414" lon="14.97571693509784"><ele>228.66666666666669</ele><time>2026-03-29T09:32:13.001Z</time></trkpt><trkpt lat="40.316056136600174" lon="14.975709883592733"><ele>227.83333333333334</ele><time>2026-03-29T09:32:14.001Z</time></trkpt><trkpt lat="40.31591710182171" lon="14.97567613992561"><ele>227.0</ele><time>2026-03-29T09:32:16.001Z</time></trkpt><trkpt lat="40.315849026792336" lon="14.975645064153877"><ele>227.0</ele><time>2026-03-29T09:32:17.001Z</time></trkpt><trkpt lat="40.31577844702769" lon="14.975603098503152"><ele>227.0</ele><time>2026-03-29T09:32:18.001Z</time></trkpt><trkpt lat="40.315709485951714" lon="14.975560071421162"><ele>227.0</ele><time>2026-03-29T09:32:19.001Z</time></trkpt><trkpt lat="40.31556837785667" lon="14.975522889864193"><ele>227.0</ele><time>2026-03-29T09:32:21.001Z</time></trkpt><trkpt lat="40.31544654142874" lon="14.975599485785052"><ele>227.0</ele><time>2026-03-29T09:32:23.001Z</time></trkpt><trkpt lat="40.3153793984709" lon="14.975666895258607"><ele>225.33333333333334</ele><time>2026-03-29T09:32:24.001Z</time></trkpt><trkpt lat="40.31529962254081" lon="14.975737059271772"><ele>223.66666666666669</ele><time>2026-03-29T09:32:25.001Z</time></trkpt><trkpt lat="40.315226888392964" lon="14.975795537114742"><ele>222.0</ele><time>2026-03-29T09:32:26.001Z</time></trkpt><trkpt lat="40.315175354613324" lon="14.97584707381298"><ele>220.33333333333331</ele><time>2026-03-29T09:32:27.001Z</time></trkpt><trkpt lat="40.31511663977018" lon="14.975924858621152"><ele>218.66666666666666</ele><time>2026-03-29T09:32:28.001Z</time></trkpt><trkpt lat="40.31506784552911" lon="14.97599254435613"><ele>217.0</ele><time>2026-03-29T09:32:29.001Z</time></trkpt><trkpt lat="40.315022194723184" lon="14.976065458852448"><ele>217.0</ele><time>2026-03-29T09:32:30.001Z</time></trkpt><trkpt lat="40.31497187662426" lon="14.976122574952957"><ele>217.0</ele><time>2026-03-29T09:32:31.001Z</time></trkpt><trkpt lat="40.31492735878941" lon="14.976192819575763"><ele>217.0</ele><time>2026-03-29T09:32:32.001Z</time></trkpt><trkpt lat="40.314898109396054" lon="14.976279500452703"><ele>217.0</ele><time>2026-03-29T09:32:33.001Z</time></trkpt><trkpt lat="40.3148795929039" lon="14.9763721754722"><ele>217.0</ele><time>2026-03-29T09:32:34.001Z</time></trkpt><trkpt lat="40.31488477941581" lon="14.976477405845085"><ele>217.0</ele><time>2026-03-29T09:32:35.001Z</time></trkpt><trkpt lat="40.314903225016245" lon="14.976570197004241"><ele>217.0</ele><time>2026-03-29T09:32:36.001Z</time></trkpt><trkpt lat="40.314942307346875" lon="14.976648965403012"><ele>216.0</ele><time>2026-03-29T09:32:37.001Z</time></trkpt><trkpt lat="40.314985043623246" lon="14.976717883060314"><ele>215.0</ele><time>2026-03-29T09:32:38.001Z</time></trkpt><trkpt lat="40.31503130907651" lon="14.976776179752715"><ele>214.0</ele><time>2026-03-29T09:32:39.001Z</time></trkpt><trkpt lat="40.315083694493815" lon="14.976840499075776"><ele>213.0</ele><time>2026-03-29T09:32:40.001Z</time></trkpt><trkpt lat="40.3151278517463" lon="14.97691883244536"><ele>212.0</ele><time>2026-03-29T09:32:41.001Z</time></trkpt><trkpt lat="40.31517938453357" lon="14.976983848178445"><ele>211.0</ele><time>2026-03-29T09:32:42.001Z</time></trkpt><trkpt lat="40.315224509509434" lon="14.977052317642524"><ele>210.0</ele><time>2026-03-29T09:32:43.001Z</time></trkpt><trkpt lat="40.315253989870556" lon="14.97712877327542"><ele>210.0</ele><time>2026-03-29T09:32:44.001Z</time></trkpt><trkpt lat="40.31528855878616" lon="14.97721687169866"><ele>210.0</ele><time>2026-03-29T09:32:45.001Z</time></trkpt><trkpt lat="40.31528375435899" lon="14.97731022346962"><ele>210.0</ele><time>2026-03-29T09:32:46.001Z</time></trkpt><trkpt lat="40.31529248756023" lon="14.977402323263476"><ele>210.0</ele><time>2026-03-29T09:32:47.001Z</time></trkpt><trkpt lat="40.31529833931996" lon="14.977498983809578"><ele>210.0</ele><time>2026-03-29T09:32:48.001Z</time></trkpt><trkpt lat="40.315301498654335" lon="14.977600236565468"><ele>210.0</ele><time>2026-03-29T09:32:49.001Z</time></trkpt><trkpt lat="40.315298559222434" lon="14.977704269317817"><ele>210.0</ele><time>2026-03-29T09:32:50.001Z</time></trkpt><trkpt lat="40.31529109624475" lon="14.977802001299247"><ele>210.66666666666666</ele><time>2026-03-29T09:32:51.001Z</time></trkpt><trkpt lat="40.315278405409884" lon="14.9778932125269"><ele>211.33333333333331</ele><time>2026-03-29T09:32:52.001Z</time></trkpt><trkpt lat="40.31527177164284" lon="14.97799570418023"><ele>212.0</ele><time>2026-03-29T09:32:53.001Z</time></trkpt><trkpt lat="40.31524574010331" lon="14.978086513811066"><ele>212.66666666666666</ele><time>2026-03-29T09:32:54.001Z</time></trkpt><trkpt lat="40.31522564185984" lon="14.978191429694801"><ele>213.33333333333331</ele><time>2026-03-29T09:32:55.001Z</time></trkpt><trkpt lat="40.31521997610228" lon="14.978288063375745"><ele>214.0</ele><time>2026-03-29T09:32:56.001Z</time></trkpt><trkpt lat="40.315189047390255" lon="14.978373848286385"><ele>214.0</ele><time>2026-03-29T09:32:57.001Z</time></trkpt><trkpt lat="40.31518114594078" lon="14.978473838990595"><ele>213.99999999999997</ele><time>2026-03-29T09:32:58.001Z</time></trkpt><trkpt lat="40.315166839090985" lon="14.978623519787861"><ele>213.99999999999997</ele><time>2026-03-29T09:33:00.001Z</time></trkpt><trkpt lat="40.31518441317418" lon="14.978730665701004"><ele>214.0</ele><time>2026-03-29T09:33:01.001Z</time></trkpt><trkpt lat="40.31520210414991" lon="14.978823253859197"><ele>214.0</ele><time>2026-03-29T09:33:02.001Z</time></trkpt><trkpt lat="40.315233037990104" lon="14.97899094761045"><ele>213.99999999999997</ele><time>2026-03-29T09:33:04.001Z</time></trkpt><trkpt lat="40.31524494827219" lon="14.979076096087962"><ele>214.0</ele><time>2026-03-29T09:33:05.001Z</time></trkpt><trkpt lat="40.31525526879164" lon="14.979168201645239"><ele>214.0</ele><time>2026-03-29T09:33:06.001Z</time></trkpt><trkpt lat="40.315266402896896" lon="14.979268790654444"><ele>214.0</ele><time>2026-03-29T09:33:07.001Z</time></trkpt><trkpt lat="40.31528274355217" lon="14.97935171402226"><ele>213.99999999999997</ele><time>2026-03-29T09:33:08.001Z</time></trkpt><trkpt lat="40.315302763360094" lon="14.979464045448108"><ele>214.0</ele><time>2026-03-29T09:33:09.001Z</time></trkpt><trkpt lat="40.31533102372186" lon="14.979577853679263"><ele>214.33333333333331</ele><time>2026-03-29T09:33:10.001Z</time></trkpt><trkpt lat="40.31536853886496" lon="14.979692116741996"><ele>214.66666666666666</ele><time>2026-03-29T09:33:11.001Z</time></trkpt><trkpt lat="40.31538096639611" lon="14.97979564331857"><ele>215.0</ele><time>2026-03-29T09:33:12.001Z</time></trkpt><trkpt lat="40.31540215490171" lon="14.97989587657171"><ele>215.33333333333331</ele><time>2026-03-29T09:33:13.001Z</time></trkpt><trkpt lat="40.3154061580939" lon="14.97998388505707"><ele>215.66666666666666</ele><time>2026-03-29T09:33:14.001Z</time></trkpt><trkpt lat="40.31544000010752" lon="14.980061720501793"><ele>216.0</ele><time>2026-03-29T09:33:15.001Z</time></trkpt><trkpt lat="40.31546132331373" lon="14.980145485201964"><ele>216.0</ele><time>2026-03-29T09:33:16.001Z</time></trkpt><trkpt lat="40.315515615496004" lon="14.980269176038313"><ele>216.0</ele><time>2026-03-29T09:33:18.001Z</time></trkpt><trkpt lat="40.315561267892264" lon="14.980337753075329"><ele>216.0</ele><time>2026-03-29T09:33:19.001Z</time></trkpt><trkpt lat="40.31560110110416" lon="14.980413071344332"><ele>216.0</ele><time>2026-03-29T09:33:20.001Z</time></trkpt><trkpt lat="40.31565213619967" lon="14.980473215429075"><ele>216.0</ele><time>2026-03-29T09:33:21.001Z</time></trkpt><trkpt lat="40.315756297823114" lon="14.980563593679866"><ele>216.0</ele><time>2026-03-29T09:33:23.001Z</time></trkpt><trkpt lat="40.31583922656977" lon="14.98065376717313"><ele>217.83333333333334</ele><time>2026-03-29T09:33:25.001Z</time></trkpt><trkpt lat="40.315921105570396" lon="14.980745717301977"><ele>219.66666666666669</ele><time>2026-03-29T09:33:27.001Z</time></trkpt><trkpt lat="40.31596360315677" lon="14.980837874496046"><ele>221.5</ele><time>2026-03-29T09:33:29.001Z</time></trkpt><trkpt lat="40.316007115145354" lon="14.980904552004848"><ele>223.33333333333334</ele><time>2026-03-29T09:34:11.001Z</time></trkpt><trkpt lat="40.31605561848466" lon="14.980997000659064"><ele>225.16666666666669</ele><time>2026-03-29T09:34:14.001Z</time></trkpt><trkpt lat="40.316095144941016" lon="14.981067163535444"><ele>227.0</ele><time>2026-03-29T09:34:17Z</time></trkpt><trkpt lat="40.31602947862548" lon="14.980950600244432"><ele>228.6</ele><time>2026-03-29T09:34:21Z</time></trkpt><trkpt lat="40.3160828545198" lon="14.981052321903057"><ele>230.2</ele><time>2026-03-29T09:36:05.001Z</time></trkpt><trkpt lat="40.31614675918949" lon="14.981159577420364"><ele>231.8</ele><time>2026-03-29T09:36:07.001Z</time></trkpt><trkpt lat="40.316187042160365" lon="14.981235079876702"><ele>233.4</ele><time>2026-03-29T09:36:09.001Z</time></trkpt><trkpt lat="40.31623654314123" lon="14.981327859530152"><ele>235.0</ele><time>2026-03-29T09:36:11.001Z</time></trkpt><trkpt lat="40.31631013312148" lon="14.981485840597488"><ele>235.0</ele><time>2026-03-29T09:36:13.001Z</time></trkpt><trkpt lat="40.31635105982657" lon="14.981576183406538"><ele>235.0</ele><time>2026-03-29T09:36:14.001Z</time></trkpt><trkpt lat="40.31640241706326" lon="14.981715506155453"><ele>235.0</ele><time>2026-03-29T09:36:16.001Z</time></trkpt><trkpt lat="40.31642874664321" lon="14.981868876042245"><ele>235.0</ele><time>2026-03-29T09:36:18.001Z</time></trkpt><trkpt lat="40.31644033901525" lon="14.98196304786088"><ele>235.0</ele><time>2026-03-29T09:36:19.001Z</time></trkpt><trkpt lat="40.31639628744069" lon="14.982109986372262"><ele>236.0</ele><time>2026-03-29T09:36:21.001Z</time></trkpt><trkpt lat="40.31636894667545" lon="14.982273127658466"><ele>237.0</ele><time>2026-03-29T09:36:23.001Z</time></trkpt><trkpt lat="40.31635573906833" lon="14.982361085456562"><ele>238.0</ele><time>2026-03-29T09:36:24.001Z</time></trkpt><trkpt lat="40.31633268569958" lon="14.982528703229656"><ele>239.0</ele><time>2026-03-29T09:36:26.001Z</time></trkpt><trkpt lat="40.31631767328826" lon="14.982619819855186"><ele>240.0</ele><time>2026-03-29T09:36:27.001Z</time></trkpt><trkpt lat="40.31627667801449" lon="14.982788776783428"><ele>240.2</ele><time>2026-03-29T09:36:29.001Z</time></trkpt><trkpt lat="40.31625020939637" lon="14.982945415649146"><ele>240.4</ele><time>2026-03-29T09:36:31.001Z</time></trkpt><trkpt lat="40.31623137942956" lon="14.983081530736952"><ele>240.60000000000002</ele><time>2026-03-29T09:36:33.001Z</time></trkpt><trkpt lat="40.31620434440253" lon="14.98320891163856"><ele>240.8</ele><time>2026-03-29T09:36:35.001Z</time></trkpt><trkpt lat="40.31617703805673" lon="14.9833180195654"><ele>241.0</ele><time>2026-03-29T09:36:37.001Z</time></trkpt><trkpt lat="40.316114587840495" lon="14.98344023589007"><ele>240.4</ele><time>2026-03-29T09:36:39Z</time></trkpt><trkpt lat="40.31606929068789" lon="14.983574612267947"><ele>239.8</ele><time>2026-03-29T09:36:41Z</time></trkpt><trkpt lat="40.316054992063926" lon="14.983687461596775"><ele>239.20000000000002</ele><time>2026-03-29T09:36:43Z</time></trkpt><trkpt lat="40.31604398038106" lon="14.983810674694952"><ele>238.60000000000002</ele><time>2026-03-29T09:36:45Z</time></trkpt><trkpt lat="40.316049633998645" lon="14.983940324310376"><ele>238.0</ele><time>2026-03-29T09:36:47Z</time></trkpt><trkpt lat="40.3160501289903" lon="14.984089623532801"><ele>238.0</ele><time>2026-03-29T09:36:49Z</time></trkpt><trkpt lat="40.31605754405206" lon="14.984218234885573"><ele>238.0</ele><time>2026-03-29T09:36:51Z</time></trkpt><trkpt lat="40.316054080258546" lon="14.984379866264575"><ele>238.0</ele><time>2026-03-29T09:36:53Z</time></trkpt><trkpt lat="40.31604807208329" lon="14.984470957839779"><ele>238.0</ele><time>2026-03-29T09:36:54Z</time></trkpt><trkpt lat="40.31602857723902" lon="14.984586808808968"><ele>238.0</ele><time>2026-03-29T09:36:56Z</time></trkpt><trkpt lat="40.31603081261647" lon="14.984691914580248"><ele>238.0</ele><time>2026-03-29T09:36:59Z</time></trkpt><trkpt lat="40.31605565710959" lon="14.984793107317063"><ele>238.0</ele><time>2026-03-29T09:37:02Z</time></trkpt><trkpt lat="40.31611111134052" lon="14.98490428038016"><ele>238.0</ele><time>2026-03-29T09:37:04Z</time></trkpt><trkpt lat="40.31619602191613" lon="14.985003645959377"><ele>238.0</ele><time>2026-03-29T09:37:06Z</time></trkpt><trkpt lat="40.31626787080325" lon="14.98512483270843"><ele>238.0</ele><time>2026-03-29T09:37:08Z</time></trkpt><trkpt lat="40.316311793898095" lon="14.985242605693157"><ele>238.49999999999997</ele><time>2026-03-29T09:37:10Z</time></trkpt><trkpt lat="40.31632411028401" lon="14.985360313986522"><ele>239.0</ele><time>2026-03-29T09:37:12Z</time></trkpt><trkpt lat="40.316333992103424" lon="14.985456854003333"><ele>239.5</ele><time>2026-03-29T09:37:14Z</time></trkpt><trkpt lat="40.31633998122589" lon="14.985548408761511"><ele>240.0</ele><time>2026-03-29T09:37:16Z</time></trkpt><trkpt lat="40.316380952055596" lon="14.985628017777952"><ele>240.49999999999997</ele><time>2026-03-29T09:37:35Z</time></trkpt><trkpt lat="40.31640047482839" lon="14.985733008302164"><ele>241.0</ele><time>2026-03-29T09:38:07Z</time></trkpt><trkpt lat="40.31641426428738" lon="14.985840610946207"><ele>238.4</ele><time>2026-03-29T09:38:10Z</time></trkpt><trkpt lat="40.31644547203546" lon="14.985931561492851"><ele>235.8</ele><time>2026-03-29T09:38:12Z</time></trkpt><trkpt lat="40.31644784408449" lon="14.986047454473029"><ele>233.20000000000002</ele><time>2026-03-29T09:38:14Z</time></trkpt><trkpt lat="40.31637056891255" lon="14.986144029266871"><ele>230.60000000000002</ele><time>2026-03-29T09:38:16Z</time></trkpt><trkpt lat="40.31631208380919" lon="14.986243192581327"><ele>228.0</ele><time>2026-03-29T09:38:18Z</time></trkpt><trkpt lat="40.31623113227301" lon="14.986319843507463"><ele>228.0</ele><time>2026-03-29T09:38:20Z</time></trkpt><trkpt lat="40.31611877337803" lon="14.986362068111873"><ele>228.0</ele><time>2026-03-29T09:38:22Z</time></trkpt><trkpt lat="40.31601177126268" lon="14.986401379453621"><ele>228.0</ele><time>2026-03-29T09:38:24Z</time></trkpt><trkpt lat="40.31590608757743" lon="14.986461867658326"><ele>228.0</ele><time>2026-03-29T09:38:26Z</time></trkpt><trkpt lat="40.31579019367854" lon="14.986491625106451"><ele>228.0</ele><time>2026-03-29T09:38:28Z</time></trkpt><trkpt lat="40.31571785516797" lon="14.98651844041636"><ele>228.0</ele><time>2026-03-29T09:38:29Z</time></trkpt><trkpt lat="40.315651140914035" lon="14.986545771509867"><ele>228.0</ele><time>2026-03-29T09:38:30Z</time></trkpt><trkpt lat="40.3155761147787" lon="14.9865765801538"><ele>228.0</ele><time>2026-03-29T09:38:31Z</time></trkpt><trkpt lat="40.31550922544355" lon="14.986614201082258"><ele>228.0</ele><time>2026-03-29T09:38:32Z</time></trkpt><trkpt lat="40.31543955463528" lon="14.98664865654988"><ele>228.0</ele><time>2026-03-29T09:38:33Z</time></trkpt><trkpt lat="40.315365809275875" lon="14.986684321106601"><ele>228.0</ele><time>2026-03-29T09:38:34Z</time></trkpt><trkpt lat="40.31529725125527" lon="14.986716301993846"><ele>228.0</ele><time>2026-03-29T09:38:35Z</time></trkpt><trkpt lat="40.31522925618296" lon="14.986749828957507"><ele>228.0</ele><time>2026-03-29T09:38:36Z</time></trkpt><trkpt lat="40.315160559813265" lon="14.98678428015705"><ele>228.0</ele><time>2026-03-29T09:38:37Z</time></trkpt><trkpt lat="40.31503893739179" lon="14.986850871415161"><ele>228.0</ele><time>2026-03-29T09:38:39Z</time></trkpt><trkpt lat="40.31497888389399" lon="14.986895738647883"><ele>228.0</ele><time>2026-03-29T09:38:40Z</time></trkpt><trkpt lat="40.31492664998531" lon="14.986952509867058"><ele>228.0</ele><time>2026-03-29T09:38:41Z</time></trkpt><trkpt lat="40.31487346426567" lon="14.987019651546616"><ele>228.0</ele><time>2026-03-29T09:38:42Z</time></trkpt><trkpt lat="40.31482895980715" lon="14.987110191541989"><ele>228.0</ele><time>2026-03-29T09:38:43Z</time></trkpt><trkpt lat="40.31479164327602" lon="14.987207516961988"><ele>228.0</ele><time>2026-03-29T09:38:44Z</time></trkpt><trkpt lat="40.31476037919844" lon="14.98730858048317"><ele>228.0</ele><time>2026-03-29T09:38:45Z</time></trkpt><trkpt lat="40.31473581471753" lon="14.98741267974102"><ele>228.0</ele><time>2026-03-29T09:38:46Z</time></trkpt><trkpt lat="40.31473015243761" lon="14.987520262455247"><ele>228.0</ele><time>2026-03-29T09:38:47Z</time></trkpt><trkpt lat="40.31470503667828" lon="14.987622283879116"><ele>228.0</ele><time>2026-03-29T09:38:48Z</time></trkpt><trkpt lat="40.3146976684579" lon="14.987716129286463"><ele>228.0</ele><time>2026-03-29T09:38:49Z</time></trkpt><trkpt lat="40.31469664006286" lon="14.987819185212752"><ele>228.0</ele><time>2026-03-29T09:38:50Z</time></trkpt><trkpt lat="40.31470978604455" lon="14.987929725727717"><ele>228.0</ele><time>2026-03-29T09:38:51Z</time></trkpt><trkpt lat="40.314725303333894" lon="14.988030156546898"><ele>228.0</ele><time>2026-03-29T09:38:52Z</time></trkpt><trkpt lat="40.31474140857258" lon="14.98812927099706"><ele>228.0</ele><time>2026-03-29T09:38:53Z</time></trkpt><trkpt lat="40.31475704336509" lon="14.988224008745549"><ele>228.0</ele><time>2026-03-29T09:38:54Z</time></trkpt><trkpt lat="40.31477302573549" lon="14.988319590705903"><ele>228.0</ele><time>2026-03-29T09:38:55Z</time></trkpt><trkpt lat="40.3147910242721" lon="14.988427230266714"><ele>228.0</ele><time>2026-03-29T09:38:56Z</time></trkpt><trkpt lat="40.31480814289502" lon="14.98852960754173"><ele>228.0</ele><time>2026-03-29T09:38:57Z</time></trkpt><trkpt lat="40.31481872822215" lon="14.988625933575458"><ele>228.0</ele><time>2026-03-29T09:38:58Z</time></trkpt><trkpt lat="40.31481578777412" lon="14.988712552390032"><ele>227.83333333333334</ele><time>2026-03-29T09:38:59Z</time></trkpt><trkpt lat="40.31481823442328" lon="14.988800086984783"><ele>227.66666666666669</ele><time>2026-03-29T09:39:00Z</time></trkpt><trkpt lat="40.314773620235506" lon="14.988888566450948"><ele>227.5</ele><time>2026-03-29T09:39:01Z</time></trkpt><trkpt lat="40.31473684320846" lon="14.9889858433299"><ele>227.33333333333334</ele><time>2026-03-29T09:39:02Z</time></trkpt><trkpt lat="40.31471636495071" lon="14.989081497903944"><ele>227.16666666666669</ele><time>2026-03-29T09:39:03Z</time></trkpt><trkpt lat="40.31467749590552" lon="14.989163771289846"><ele>227.0</ele><time>2026-03-29T09:39:04Z</time></trkpt><trkpt lat="40.31468462384199" lon="14.98926693244565"><ele>224.33333333333334</ele><time>2026-03-29T09:39:05Z</time></trkpt><trkpt lat="40.3146848683061" lon="14.989365313878295"><ele>221.66666666666669</ele><time>2026-03-29T09:39:06Z</time></trkpt><trkpt lat="40.314685653857644" lon="14.989476320606904"><ele>219.0</ele><time>2026-03-29T09:39:07Z</time></trkpt><trkpt lat="40.314686305422555" lon="14.989581073833065"><ele>216.33333333333331</ele><time>2026-03-29T09:39:08Z</time></trkpt><trkpt lat="40.31469277282231" lon="14.989682125395845"><ele>213.66666666666666</ele><time>2026-03-29T09:39:09Z</time></trkpt><trkpt lat="40.314681806292" lon="14.989778633962379"><ele>211.0</ele><time>2026-03-29T09:39:10Z</time></trkpt><trkpt lat="40.31468753405368" lon="14.989877915164865"><ele>210.99999999999997</ele><time>2026-03-29T09:39:11Z</time></trkpt><trkpt lat="40.31469330049545" lon="14.989977866843116"><ele>211.0</ele><time>2026-03-29T09:39:12Z</time></trkpt><trkpt lat="40.31469877000725" lon="14.990074909886802"><ele>211.0</ele><time>2026-03-29T09:39:13Z</time></trkpt><trkpt lat="40.314719575332035" lon="14.990163573966854"><ele>211.0</ele><time>2026-03-29T09:39:14Z</time></trkpt><trkpt lat="40.31472164246161" lon="14.99026506082337"><ele>210.99999999999997</ele><time>2026-03-29T09:39:15Z</time></trkpt><trkpt lat="40.31472081555758" lon="14.990367065613686"><ele>211.0</ele><time>2026-03-29T09:39:16Z</time></trkpt><trkpt lat="40.31472571418063" lon="14.99047020839598"><ele>210.99999999999997</ele><time>2026-03-29T09:39:17Z</time></trkpt><trkpt lat="40.31470293577897" lon="14.99056806993659"><ele>211.0</ele><time>2026-03-29T09:39:18Z</time></trkpt><trkpt lat="40.314685728701704" lon="14.990664227539199"><ele>211.0</ele><time>2026-03-29T09:39:19Z</time></trkpt><trkpt lat="40.31465173327967" lon="14.990754630088471"><ele>211.0</ele><time>2026-03-29T09:39:20Z</time></trkpt><trkpt lat="40.314618256339855" lon="14.990850908138881"><ele>210.99999999999997</ele><time>2026-03-29T09:39:21Z</time></trkpt><trkpt lat="40.31459771718349" lon="14.990960225374458"><ele>211.0</ele><time>2026-03-29T09:39:22Z</time></trkpt><trkpt lat="40.3145642672934" lon="14.99106526945587"><ele>210.99999999999997</ele><time>2026-03-29T09:39:23Z</time></trkpt><trkpt lat="40.31451831758716" lon="14.991155106071956"><ele>211.0</ele><time>2026-03-29T09:39:24Z</time></trkpt><trkpt lat="40.314500841384046" lon="14.99126444614996"><ele>211.0</ele><time>2026-03-29T09:39:25Z</time></trkpt><trkpt lat="40.314469357259526" lon="14.991354408104675"><ele>211.0</ele><time>2026-03-29T09:39:26Z</time></trkpt><trkpt lat="40.31442443308829" lon="14.991445893230964"><ele>210.99999999999997</ele><time>2026-03-29T09:39:27Z</time></trkpt><trkpt lat="40.31437349132713" lon="14.991533928255235"><ele>211.0</ele><time>2026-03-29T09:39:28Z</time></trkpt><trkpt lat="40.31433110816429" lon="14.991619423574672"><ele>210.99999999999997</ele><time>2026-03-29T09:39:29Z</time></trkpt><trkpt lat="40.314286178839495" lon="14.991714644981169"><ele>211.0</ele><time>2026-03-29T09:39:30Z</time></trkpt><trkpt lat="40.31424077068839" lon="14.991808850224686"><ele>211.0</ele><time>2026-03-29T09:39:31Z</time></trkpt><trkpt lat="40.3141953292226" lon="14.99190215639809"><ele>211.0</ele><time>2026-03-29T09:39:32Z</time></trkpt><trkpt lat="40.31415319041694" lon="14.991989841925811"><ele>210.99999999999997</ele><time>2026-03-29T09:39:33Z</time></trkpt><trkpt lat="40.314116099814115" lon="14.992078046562385"><ele>211.0</ele><time>2026-03-29T09:39:34Z</time></trkpt><trkpt lat="40.314086113771495" lon="14.992177962864396"><ele>210.99999999999997</ele><time>2026-03-29T09:39:35Z</time></trkpt><trkpt lat="40.31407152661691" lon="14.992274504311002"><ele>211.0</ele><time>2026-03-29T09:39:36Z</time></trkpt><trkpt lat="40.314082426180526" lon="14.992372275336912"><ele>211.0</ele><time>2026-03-29T09:39:37Z</time></trkpt><trkpt lat="40.314114746323284" lon="14.992466024978624"><ele>211.0</ele><time>2026-03-29T09:39:38Z</time></trkpt><trkpt lat="40.31415023748943" lon="14.992562537335344"><ele>210.99999999999997</ele><time>2026-03-29T09:39:39Z</time></trkpt><trkpt lat="40.31415956307708" lon="14.99266462618263"><ele>211.0</ele><time>2026-03-29T09:39:40Z</time></trkpt><trkpt lat="40.31417500129212" lon="14.992761193918517"><ele>210.66666666666666</ele><time>2026-03-29T09:39:41Z</time></trkpt><trkpt lat="40.31417275855729" lon="14.99285680455346"><ele>210.33333333333331</ele><time>2026-03-29T09:39:42Z</time></trkpt><trkpt lat="40.31416209184859" lon="14.99296558802612"><ele>210.0</ele><time>2026-03-29T09:39:43Z</time></trkpt><trkpt lat="40.314144909000866" lon="14.993083499740186"><ele>209.66666666666669</ele><time>2026-03-29T09:39:44Z</time></trkpt><trkpt lat="40.31413639409282" lon="14.993195940847322"><ele>209.33333333333334</ele><time>2026-03-29T09:39:45Z</time></trkpt><trkpt lat="40.31411961610673" lon="14.993297871458362"><ele>209.0</ele><time>2026-03-29T09:39:46Z</time></trkpt><trkpt lat="40.31410039841551" lon="14.99339669678949"><ele>208.00000000000003</ele><time>2026-03-29T09:39:47Z</time></trkpt><trkpt lat="40.31407728684144" lon="14.993498934502767"><ele>207.0</ele><time>2026-03-29T09:39:48Z</time></trkpt><trkpt lat="40.31405631722505" lon="14.99359443950048"><ele>206.0</ele><time>2026-03-29T09:39:49Z</time></trkpt><trkpt lat="40.314029857322154" lon="14.993696226252768"><ele>205.0</ele><time>2026-03-29T09:39:50Z</time></trkpt><trkpt lat="40.31400095125994" lon="14.993804131268075"><ele>204.00000000000003</ele><time>2026-03-29T09:39:51Z</time></trkpt><trkpt lat="40.313976207442295" lon="14.993909040769852"><ele>203.0</ele><time>2026-03-29T09:39:52Z</time></trkpt><trkpt lat="40.3139678538623" lon="14.994011018422556"><ele>203.00000000000003</ele><time>2026-03-29T09:39:53Z</time></trkpt><trkpt lat="40.31397947108038" lon="14.994120922101091"><ele>203.0</ele><time>2026-03-29T09:39:54Z</time></trkpt><trkpt lat="40.31401023017924" lon="14.99421748163299"><ele>203.0</ele><time>2026-03-29T09:39:55Z</time></trkpt><trkpt lat="40.3140528295505" lon="14.994311413337169"><ele>203.0</ele><time>2026-03-29T09:39:56Z</time></trkpt><trkpt lat="40.31410122892767" lon="14.994396207709212"><ele>203.00000000000003</ele><time>2026-03-29T09:39:57Z</time></trkpt><trkpt lat="40.3141371957906" lon="14.99448814959287"><ele>203.0</ele><time>2026-03-29T09:39:58Z</time></trkpt><trkpt lat="40.31418406148541" lon="14.994571340785832"><ele>201.0</ele><time>2026-03-29T09:39:59Z</time></trkpt><trkpt lat="40.31422829070095" lon="14.994649851964954"><ele>199.0</ele><time>2026-03-29T09:40:00Z</time></trkpt><trkpt lat="40.314264711014665" lon="14.994722216019783"><ele>197.0</ele><time>2026-03-29T09:40:01Z</time></trkpt><trkpt lat="40.3142863883316" lon="14.994855361844335"><ele>195.0</ele><time>2026-03-29T09:40:03Z</time></trkpt><trkpt lat="40.31418668198038" lon="14.994900340491093"><ele>193.0</ele><time>2026-03-29T09:40:05Z</time></trkpt><trkpt lat="40.31411131437239" lon="14.994784355191914"><ele>193.00000000000003</ele><time>2026-03-29T09:40:07Z</time></trkpt><trkpt lat="40.31408452238865" lon="14.994707085677923"><ele>193.0</ele><time>2026-03-29T09:40:08Z</time></trkpt><trkpt lat="40.31405088132501" lon="14.994629926520394"><ele>193.0</ele><time>2026-03-29T09:40:09Z</time></trkpt><trkpt lat="40.31400914891761" lon="14.994540527121899"><ele>193.0</ele><time>2026-03-29T09:40:10Z</time></trkpt><trkpt lat="40.313963131677056" lon="14.994466550021015"><ele>193.0</ele><time>2026-03-29T09:40:11Z</time></trkpt><trkpt lat="40.313917322867546" lon="14.994396293228156"><ele>193.00000000000003</ele><time>2026-03-29T09:40:12Z</time></trkpt><trkpt lat="40.31387186374074" lon="14.994314016320974"><ele>193.0</ele><time>2026-03-29T09:40:13Z</time></trkpt><trkpt lat="40.3138249282446" lon="14.994225331815404"><ele>190.83333333333331</ele><time>2026-03-29T09:40:14Z</time></trkpt><trkpt lat="40.313787557300884" lon="14.994139791143635"><ele>188.66666666666666</ele><time>2026-03-29T09:40:15Z</time></trkpt><trkpt lat="40.313755845894946" lon="14.99405271617361"><ele>186.5</ele><time>2026-03-29T09:40:16Z</time></trkpt><trkpt lat="40.313735695579346" lon="14.993957405698302"><ele>184.33333333333331</ele><time>2026-03-29T09:40:17Z</time></trkpt><trkpt lat="40.313726259404675" lon="14.993853014453263"><ele>182.16666666666666</ele><time>2026-03-29T09:40:18Z</time></trkpt><trkpt lat="40.3137286803795" lon="14.99375400813642"><ele>180.0</ele><time>2026-03-29T09:40:19Z</time></trkpt><trkpt lat="40.31374361402612" lon="14.993653508813075"><ele>180.0</ele><time>2026-03-29T09:40:20Z</time></trkpt><trkpt lat="40.313774140880916" lon="14.993552434678167"><ele>180.0</ele><time>2026-03-29T09:40:21Z</time></trkpt><trkpt lat="40.31380570785144" lon="14.993447616723271"><ele>180.0</ele><time>2026-03-29T09:40:22Z</time></trkpt><trkpt lat="40.31382978518682" lon="14.993345745887801"><ele>180.0</ele><time>2026-03-29T09:40:23Z</time></trkpt><trkpt lat="40.31383442057579" lon="14.993241275684376"><ele>180.0</ele><time>2026-03-29T09:40:24Z</time></trkpt><trkpt lat="40.31382322755687" lon="14.993132572544766"><ele>180.0</ele><time>2026-03-29T09:40:25Z</time></trkpt><trkpt lat="40.31380445435223" lon="14.99302843507328"><ele>180.5</ele><time>2026-03-29T09:40:26Z</time></trkpt><trkpt lat="40.3137897879163" lon="14.992922607350318"><ele>181.0</ele><time>2026-03-29T09:40:27Z</time></trkpt><trkpt lat="40.31377188974221" lon="14.99281853329796"><ele>181.5</ele><time>2026-03-29T09:40:28Z</time></trkpt><trkpt lat="40.3137335595118" lon="14.992729399364919"><ele>182.0</ele><time>2026-03-29T09:40:29Z</time></trkpt><trkpt lat="40.31367633830288" lon="14.992654600317563"><ele>182.5</ele><time>2026-03-29T09:40:30Z</time></trkpt><trkpt lat="40.3136074777585" lon="14.992589003979168"><ele>183.0</ele><time>2026-03-29T09:40:31Z</time></trkpt><trkpt lat="40.31354286269894" lon="14.992532421112092"><ele>183.5</ele><time>2026-03-29T09:40:32Z</time></trkpt><trkpt lat="40.313487820883594" lon="14.992464627632748"><ele>184.0</ele><time>2026-03-29T09:40:33Z</time></trkpt><trkpt lat="40.313459015862136" lon="14.992378672118678"><ele>184.5</ele><time>2026-03-29T09:40:34Z</time></trkpt><trkpt lat="40.31344104533992" lon="14.992287481768827"><ele>185.0</ele><time>2026-03-29T09:40:35Z</time></trkpt><trkpt lat="40.313433284580206" lon="14.99218353782574"><ele>185.5</ele><time>2026-03-29T09:40:36Z</time></trkpt><trkpt lat="40.31343883055088" lon="14.992068789279392"><ele>186.0</ele><time>2026-03-29T09:40:37Z</time></trkpt><trkpt lat="40.31344541464173" lon="14.991958981824755"><ele>186.0</ele><time>2026-03-29T09:40:38Z</time></trkpt><trkpt lat="40.313436484439336" lon="14.991859550403868"><ele>186.0</ele><time>2026-03-29T09:40:39Z</time></trkpt><trkpt lat="40.31340932472366" lon="14.9917663889093"><ele>186.0</ele><time>2026-03-29T09:40:40Z</time></trkpt><trkpt lat="40.3133896961938" lon="14.99166925720736"><ele>186.0</ele><time>2026-03-29T09:40:41Z</time></trkpt><trkpt lat="40.313393036647014" lon="14.991572625038767"><ele>186.0</ele><time>2026-03-29T09:40:42Z</time></trkpt><trkpt lat="40.313439550703976" lon="14.991476799044968"><ele>186.0</ele><time>2026-03-29T09:40:43Z</time></trkpt><trkpt lat="40.313462435114516" lon="14.991363923142652"><ele>186.20000000000002</ele><time>2026-03-29T09:40:44Z</time></trkpt><trkpt lat="40.31350978585107" lon="14.991262971618069"><ele>186.4</ele><time>2026-03-29T09:40:45Z</time></trkpt><trkpt lat="40.31355288799489" lon="14.991158265790057"><ele>186.6</ele><time>2026-03-29T09:40:46Z</time></trkpt><trkpt lat="40.31358178542614" lon="14.991036908662892"><ele>186.8</ele><time>2026-03-29T09:40:47Z</time></trkpt><trkpt lat="40.31359132401726" lon="14.990914867271409"><ele>187.0</ele><time>2026-03-29T09:40:48Z</time></trkpt><trkpt lat="40.313586700578846" lon="14.990800209499696"><ele>186.66666666666669</ele><time>2026-03-29T09:40:49Z</time></trkpt><trkpt lat="40.313576524773225" lon="14.990687455368974"><ele>186.33333333333334</ele><time>2026-03-29T09:40:50Z</time></trkpt><trkpt lat="40.31354497115115" lon="14.990599269080962"><ele>186.0</ele><time>2026-03-29T09:40:51Z</time></trkpt><trkpt lat="40.313471921695154" lon="14.99053712466897"><ele>185.66666666666666</ele><time>2026-03-29T09:40:52Z</time></trkpt><trkpt lat="40.313399996187805" lon="14.990482731561094"><ele>185.33333333333331</ele><time>2026-03-29T09:40:53Z</time></trkpt><trkpt lat="40.31331537817994" lon="14.990439445972859"><ele>185.0</ele><time>2026-03-29T09:40:54Z</time></trkpt><trkpt lat="40.31323159448507" lon="14.990395820372834"><ele>185.0</ele><time>2026-03-29T09:40:55Z</time></trkpt><trkpt lat="40.31315895219226" lon="14.990332124708724"><ele>185.0</ele><time>2026-03-29T09:40:56Z</time></trkpt><trkpt lat="40.31307706095928" lon="14.9902913075581"><ele>185.0</ele><time>2026-03-29T09:40:57Z</time></trkpt><trkpt lat="40.31300062673554" lon="14.990256734663225"><ele>185.0</ele><time>2026-03-29T09:40:58Z</time></trkpt><trkpt lat="40.31291644971476" lon="14.990201334734792"><ele>185.0</ele><time>2026-03-29T09:40:59Z</time></trkpt><trkpt lat="40.312838313519926" lon="14.990145815039618"><ele>185.0</ele><time>2026-03-29T09:41:00Z</time></trkpt><trkpt lat="40.312765809199696" lon="14.99009299475436"><ele>184.16666666666666</ele><time>2026-03-29T09:41:01Z</time></trkpt><trkpt lat="40.312692142549686" lon="14.990037849278497"><ele>183.33333333333331</ele><time>2026-03-29T09:41:02Z</time></trkpt><trkpt lat="40.31261895503615" lon="14.989991583060192"><ele>182.5</ele><time>2026-03-29T09:41:03Z</time></trkpt><trkpt lat="40.31254671837909" lon="14.989953660898063"><ele>181.66666666666666</ele><time>2026-03-29T09:41:04Z</time></trkpt><trkpt lat="40.312472264816186" lon="14.989936707712959"><ele>180.83333333333334</ele><time>2026-03-29T09:41:05Z</time></trkpt><trkpt lat="40.31238837709321" lon="14.989947966205186"><ele>180.0</ele><time>2026-03-29T09:41:06Z</time></trkpt><trkpt lat="40.31229011933426" lon="14.98997384848316"><ele>181.6</ele><time>2026-03-29T09:41:07Z</time></trkpt><trkpt lat="40.31219109403519" lon="14.990002482433962"><ele>183.2</ele><time>2026-03-29T09:41:08Z</time></trkpt><trkpt lat="40.312095911708376" lon="14.990037116318488"><ele>184.8</ele><time>2026-03-29T09:41:09Z</time></trkpt><trkpt lat="40.31201186026317" lon="14.99007703254256"><ele>186.4</ele><time>2026-03-29T09:41:10Z</time></trkpt><trkpt lat="40.311931117946266" lon="14.99011574064405"><ele>188.0</ele><time>2026-03-29T09:41:11Z</time></trkpt><trkpt lat="40.31184475627234" lon="14.9901493565669"><ele>184.16666666666666</ele><time>2026-03-29T09:41:12Z</time></trkpt><trkpt lat="40.311764018327686" lon="14.990182264407716"><ele>180.33333333333331</ele><time>2026-03-29T09:41:13Z</time></trkpt><trkpt lat="40.311684204201605" lon="14.99022276983502"><ele>176.5</ele><time>2026-03-29T09:41:14Z</time></trkpt><trkpt lat="40.311607181041666" lon="14.990261890158646"><ele>172.66666666666666</ele><time>2026-03-29T09:41:15Z</time></trkpt><trkpt lat="40.31151760353622" lon="14.990312132215498"><ele>168.83333333333334</ele><time>2026-03-29T09:41:16Z</time></trkpt><trkpt lat="40.31142363431134" lon="14.990354277367679"><ele>165.0</ele><time>2026-03-29T09:41:17Z</time></trkpt><trkpt lat="40.31132998505401" lon="14.990407177336362"><ele>165.0</ele><time>2026-03-29T09:41:18Z</time></trkpt><trkpt lat="40.31123333659891" lon="14.990452469438427"><ele>165.0</ele><time>2026-03-29T09:41:19Z</time></trkpt><trkpt lat="40.31112623013663" lon="14.990498670144735"><ele>165.0</ele><time>2026-03-29T09:41:20Z</time></trkpt><trkpt lat="40.31102344441883" lon="14.9905393975986"><ele>165.0</ele><time>2026-03-29T09:41:21Z</time></trkpt><trkpt lat="40.31091887251209" lon="14.990580906511523"><ele>165.0</ele><time>2026-03-29T09:41:22Z</time></trkpt><trkpt lat="40.31082314565236" lon="14.990622074242072"><ele>165.0</ele><time>2026-03-29T09:41:23Z</time></trkpt><trkpt lat="40.31073584298006" lon="14.990661876210897"><ele>165.0</ele><time>2026-03-29T09:41:24Z</time></trkpt><trkpt lat="40.310643400904" lon="14.990704228814867"><ele>165.0</ele><time>2026-03-29T09:41:25Z</time></trkpt><trkpt lat="40.310555699169825" lon="14.990734739640708"><ele>165.0</ele><time>2026-03-29T09:41:26Z</time></trkpt><trkpt lat="40.310463380767246" lon="14.990747849126823"><ele>165.0</ele><time>2026-03-29T09:41:27Z</time></trkpt><trkpt lat="40.310374591735254" lon="14.990738921467981"><ele>162.6</ele><time>2026-03-29T09:41:28Z</time></trkpt><trkpt lat="40.31028837972752" lon="14.990707836543862"><ele>160.2</ele><time>2026-03-29T09:41:29Z</time></trkpt><trkpt lat="40.31020281483621" lon="14.990648816668473"><ele>157.8</ele><time>2026-03-29T09:41:30Z</time></trkpt><trkpt lat="40.3101264653365" lon="14.990570959581135"><ele>155.4</ele><time>2026-03-29T09:41:31Z</time></trkpt><trkpt lat="40.3100499530214" lon="14.990497853007158"><ele>153.0</ele><time>2026-03-29T09:41:32Z</time></trkpt><trkpt lat="40.30997439318431" lon="14.990432391506667"><ele>153.0</ele><time>2026-03-29T09:41:33Z</time></trkpt><trkpt lat="40.30990340590816" lon="14.990358562030375"><ele>153.0</ele><time>2026-03-29T09:41:34Z</time></trkpt><trkpt lat="40.30984202560892" lon="14.990265751269312"><ele>153.0</ele><time>2026-03-29T09:41:35Z</time></trkpt><trkpt lat="40.30979877697486" lon="14.990148046186984"><ele>153.0</ele><time>2026-03-29T09:41:36Z</time></trkpt><trkpt lat="40.30973269674902" lon="14.990029147128894"><ele>153.0</ele><time>2026-03-29T09:41:37Z</time></trkpt><trkpt lat="40.30968794871478" lon="14.98990214329553"><ele>150.4</ele><time>2026-03-29T09:41:38Z</time></trkpt><trkpt lat="40.30965460847053" lon="14.98977235315087"><ele>147.8</ele><time>2026-03-29T09:41:39Z</time></trkpt><trkpt lat="40.30963326147531" lon="14.989639445177891"><ele>145.2</ele><time>2026-03-29T09:41:40Z</time></trkpt><trkpt lat="40.30962462115435" lon="14.989513677579557"><ele>142.6</ele><time>2026-03-29T09:41:41Z</time></trkpt><trkpt lat="40.309625995148245" lon="14.989391197589258"><ele>140.0</ele><time>2026-03-29T09:41:42Z</time></trkpt><trkpt lat="40.30963229910156" lon="14.989272920554537"><ele>141.8</ele><time>2026-03-29T09:41:43Z</time></trkpt><trkpt lat="40.30961395597547" lon="14.98916886343417"><ele>143.6</ele><time>2026-03-29T09:41:44Z</time></trkpt><trkpt lat="40.30957060814999" lon="14.989064162127605"><ele>145.4</ele><time>2026-03-29T09:41:45Z</time></trkpt><trkpt lat="40.309506003823486" lon="14.988948255736185"><ele>147.2</ele><time>2026-03-29T09:41:46Z</time></trkpt><trkpt lat="40.309435775593776" lon="14.98883503428186"><ele>149.0</ele><time>2026-03-29T09:41:47Z</time></trkpt><trkpt lat="40.30936843886065" lon="14.988732343541795"><ele>149.0</ele><time>2026-03-29T09:41:48Z</time></trkpt><trkpt lat="40.309295102396845" lon="14.98864783994668"><ele>149.0</ele><time>2026-03-29T09:41:49Z</time></trkpt><trkpt lat="40.30922111027299" lon="14.988577852229836"><ele>149.0</ele><time>2026-03-29T09:41:50Z</time></trkpt><trkpt lat="40.30913872404911" lon="14.988499843426888"><ele>149.0</ele><time>2026-03-29T09:41:51Z</time></trkpt><trkpt lat="40.30905761293598" lon="14.988410058637012"><ele>149.0</ele><time>2026-03-29T09:41:52Z</time></trkpt><trkpt lat="40.308971570903495" lon="14.988308878192461"><ele>147.0</ele><time>2026-03-29T09:41:53Z</time></trkpt><trkpt lat="40.30889899049038" lon="14.988210316164112"><ele>145.0</ele><time>2026-03-29T09:41:54Z</time></trkpt><trkpt lat="40.30884017743059" lon="14.98811411241669"><ele>143.0</ele><time>2026-03-29T09:41:55Z</time></trkpt><trkpt lat="40.30877893842255" lon="14.988016764682918"><ele>141.0</ele><time>2026-03-29T09:41:56Z</time></trkpt><trkpt lat="40.30870030034783" lon="14.987947243179603"><ele>139.0</ele><time>2026-03-29T09:41:57Z</time></trkpt><trkpt lat="40.308603688331964" lon="14.987888262347765"><ele>139.0</ele><time>2026-03-29T09:41:58Z</time></trkpt><trkpt lat="40.30850520390476" lon="14.987837676479039"><ele>139.0</ele><time>2026-03-29T09:41:59Z</time></trkpt><trkpt lat="40.3084095378308" lon="14.98778725404515"><ele>139.0</ele><time>2026-03-29T09:42:00Z</time></trkpt><trkpt lat="40.308311434795414" lon="14.987713374692841"><ele>139.0</ele><time>2026-03-29T09:42:01Z</time></trkpt><trkpt lat="40.30821171187329" lon="14.987626287739879"><ele>139.0</ele><time>2026-03-29T09:42:02Z</time></trkpt><trkpt lat="40.308113618127734" lon="14.987536816182715"><ele>139.2</ele><time>2026-03-29T09:42:03Z</time></trkpt><trkpt lat="40.30801463641081" lon="14.987458187975532"><ele>139.4</ele><time>2026-03-29T09:42:04Z</time></trkpt><trkpt lat="40.30791795397343" lon="14.987388311193271"><ele>139.6</ele><time>2026-03-29T09:42:05Z</time></trkpt><trkpt lat="40.307824033545" lon="14.987325059842071"><ele>139.8</ele><time>2026-03-29T09:42:06Z</time></trkpt><trkpt lat="40.3077335674163" lon="14.987259400527478"><ele>140.0</ele><time>2026-03-29T09:42:07Z</time></trkpt><trkpt lat="40.307643367223704" lon="14.987209065710655"><ele>140.0</ele><time>2026-03-29T09:42:08Z</time></trkpt><trkpt lat="40.30754609915818" lon="14.98716998754413"><ele>140.0</ele><time>2026-03-29T09:42:09Z</time></trkpt><trkpt lat="40.30744411342606" lon="14.987132189533295"><ele>140.0</ele><time>2026-03-29T09:42:10Z</time></trkpt><trkpt lat="40.30733690560653" lon="14.987093947415836"><ele>140.0</ele><time>2026-03-29T09:42:11Z</time></trkpt><trkpt lat="40.307230717731976" lon="14.987060854679642"><ele>140.0</ele><time>2026-03-29T09:42:12Z</time></trkpt><trkpt lat="40.307123304317344" lon="14.987030822154136"><ele>139.0</ele><time>2026-03-29T09:42:13Z</time></trkpt><trkpt lat="40.307017896996705" lon="14.987007619925953"><ele>138.0</ele><time>2026-03-29T09:42:14Z</time></trkpt><trkpt lat="40.306915317453345" lon="14.987005398140202"><ele>137.0</ele><time>2026-03-29T09:42:15Z</time></trkpt><trkpt lat="40.306811593078535" lon="14.987008512409453"><ele>136.0</ele><time>2026-03-29T09:42:16Z</time></trkpt><trkpt lat="40.30670581748674" lon="14.987024368671598"><ele>135.0</ele><time>2026-03-29T09:42:17Z</time></trkpt><trkpt lat="40.306598331151584" lon="14.987035935566224"><ele>135.0</ele><time>2026-03-29T09:42:18Z</time></trkpt><trkpt lat="40.306497958619744" lon="14.987032376471396"><ele>135.0</ele><time>2026-03-29T09:42:19Z</time></trkpt><trkpt lat="40.30639699660799" lon="14.987026336989251"><ele>135.0</ele><time>2026-03-29T09:42:20Z</time></trkpt><trkpt lat="40.30630373718396" lon="14.986992432429352"><ele>135.0</ele><time>2026-03-29T09:42:21Z</time></trkpt><trkpt lat="40.30620592298807" lon="14.986953786655262"><ele>135.0</ele><time>2026-03-29T09:42:22Z</time></trkpt><trkpt lat="40.306111318037225" lon="14.986915507944639"><ele>135.0</ele><time>2026-03-29T09:42:23Z</time></trkpt><trkpt lat="40.30601929386524" lon="14.986909896525626"><ele>135.0</ele><time>2026-03-29T09:42:24Z</time></trkpt><trkpt lat="40.305933874281834" lon="14.986916897664832"><ele>135.0</ele><time>2026-03-29T09:42:25Z</time></trkpt><trkpt lat="40.30583865921443" lon="14.986925508927676"><ele>135.0</ele><time>2026-03-29T09:42:26Z</time></trkpt><trkpt lat="40.3057336871498" lon="14.986919248086544"><ele>135.0</ele><time>2026-03-29T09:42:27Z</time></trkpt><trkpt lat="40.305630295475005" lon="14.98690362792605"><ele>132.5</ele><time>2026-03-29T09:42:28Z</time></trkpt><trkpt lat="40.305521983399075" lon="14.986873535943735"><ele>130.0</ele><time>2026-03-29T09:42:29Z</time></trkpt><trkpt lat="40.30541116887021" lon="14.986838257117434"><ele>127.5</ele><time>2026-03-29T09:42:30Z</time></trkpt><trkpt lat="40.30529729566081" lon="14.98679983699946"><ele>125.0</ele><time>2026-03-29T09:42:31Z</time></trkpt><trkpt lat="40.30518836020044" lon="14.986764996324368"><ele>125.0</ele><time>2026-03-29T09:42:32Z</time></trkpt><trkpt lat="40.3050882232009" lon="14.986724410579951"><ele>125.0</ele><time>2026-03-29T09:42:33Z</time></trkpt><trkpt lat="40.304986688415795" lon="14.986695379571353"><ele>125.0</ele><time>2026-03-29T09:42:34Z</time></trkpt><trkpt lat="40.304880062486035" lon="14.986678658416789"><ele>125.0</ele><time>2026-03-29T09:42:35Z</time></trkpt><trkpt lat="40.304777562397426" lon="14.986672808799822"><ele>125.0</ele><time>2026-03-29T09:42:36Z</time></trkpt><trkpt lat="40.30467662787812" lon="14.986681064944289"><ele>125.0</ele><time>2026-03-29T09:42:37Z</time></trkpt><trkpt lat="40.304581042518876" lon="14.986689416604719"><ele>125.0</ele><time>2026-03-29T09:42:38Z</time></trkpt><trkpt lat="40.30447556144073" lon="14.986684645812161"><ele>125.0</ele><time>2026-03-29T09:42:39Z</time></trkpt><trkpt lat="40.30438143254492" lon="14.986664240397797"><ele>125.0</ele><time>2026-03-29T09:42:40Z</time></trkpt><trkpt lat="40.30429681538995" lon="14.986626695234634"><ele>125.0</ele><time>2026-03-29T09:42:41Z</time></trkpt><trkpt lat="40.30422562192395" lon="14.986554251424497"><ele>125.0</ele><time>2026-03-29T09:42:42Z</time></trkpt><trkpt lat="40.30415470208595" lon="14.986475079393125"><ele>125.0</ele><time>2026-03-29T09:42:43Z</time></trkpt><trkpt lat="40.304074615240445" lon="14.986387845525798"><ele>125.0</ele><time>2026-03-29T09:42:44Z</time></trkpt><trkpt lat="40.3039806254071" lon="14.986287711891801"><ele>125.0</ele><time>2026-03-29T09:42:45Z</time></trkpt><trkpt lat="40.303893660950195" lon="14.98619358432442"><ele>125.0</ele><time>2026-03-29T09:42:46Z</time></trkpt><trkpt lat="40.303812336149996" lon="14.986112930363445"><ele>124.0</ele><time>2026-03-29T09:42:47Z</time></trkpt><trkpt lat="40.30374098654706" lon="14.986028539764146"><ele>123.0</ele><time>2026-03-29T09:42:48Z</time></trkpt><trkpt lat="40.30367560114701" lon="14.985937499070529"><ele>122.0</ele><time>2026-03-29T09:42:49Z</time></trkpt><trkpt lat="40.303614770148734" lon="14.985818451570855"><ele>121.0</ele><time>2026-03-29T09:42:50Z</time></trkpt><trkpt lat="40.30354952798758" lon="14.985694742418014"><ele>120.0</ele><time>2026-03-29T09:42:51Z</time></trkpt><trkpt lat="40.30348955438007" lon="14.985562004124185"><ele>120.0</ele><time>2026-03-29T09:42:52Z</time></trkpt><trkpt lat="40.30343238779457" lon="14.985452933260904"><ele>120.0</ele><time>2026-03-29T09:42:53Z</time></trkpt><trkpt lat="40.30337441707409" lon="14.985353904217018"><ele>120.0</ele><time>2026-03-29T09:42:54Z</time></trkpt><trkpt lat="40.30329870317789" lon="14.985291042886509"><ele>120.0</ele><time>2026-03-29T09:42:55Z</time></trkpt><trkpt lat="40.30321266896464" lon="14.985208589411322"><ele>120.0</ele><time>2026-03-29T09:42:56Z</time></trkpt><trkpt lat="40.303126131358866" lon="14.98514189679114"><ele>119.2</ele><time>2026-03-29T09:42:57Z</time></trkpt><trkpt lat="40.30303130155152" lon="14.985070888482245"><ele>118.4</ele><time>2026-03-29T09:42:58Z</time></trkpt><trkpt lat="40.30293699775931" lon="14.984995679687257"><ele>117.6</ele><time>2026-03-29T09:42:59Z</time></trkpt><trkpt lat="40.30284956464479" lon="14.984927618486752"><ele>116.8</ele><time>2026-03-29T09:43:00Z</time></trkpt><trkpt lat="40.30276615870527" lon="14.984860707127547"><ele>116.0</ele><time>2026-03-29T09:43:01Z</time></trkpt><trkpt lat="40.302692919221776" lon="14.984801929262758"><ele>115.99999999999999</ele><time>2026-03-29T09:43:02Z</time></trkpt><trkpt lat="40.3026246664183" lon="14.984749044141255"><ele>116.0</ele><time>2026-03-29T09:43:03Z</time></trkpt><trkpt lat="40.30256652310152" lon="14.984700053316448"><ele>116.0</ele><time>2026-03-29T09:43:04Z</time></trkpt><trkpt lat="40.302487522638565" lon="14.984628085764005"><ele>116.0</ele><time>2026-03-29T09:43:06Z</time></trkpt><trkpt lat="40.302432774113335" lon="14.984573656590216"><ele>115.99999999999999</ele><time>2026-03-29T09:43:10Z</time></trkpt><trkpt lat="40.302504272748024" lon="14.984642230117057"><ele>116.0</ele><time>2026-03-29T09:43:39Z</time></trkpt><trkpt lat="40.302561425419654" lon="14.984681612103678"><ele>116.0</ele><time>2026-03-29T09:43:41Z</time></trkpt><trkpt lat="40.302643425129375" lon="14.984751001551228"><ele>116.0</ele><time>2026-03-29T09:43:43Z</time></trkpt><trkpt lat="40.3027075766448" lon="14.984801869648932"><ele>116.0</ele><time>2026-03-29T09:43:45Z</time></trkpt><trkpt lat="40.30277269349435" lon="14.984853742796329"><ele>116.0</ele><time>2026-03-29T09:43:48Z</time></trkpt><trkpt lat="40.30270151156326" lon="14.985062010960188"><ele>116.0</ele><time>2026-03-29T09:51:08Z</time></trkpt><trkpt lat="40.30274304161396" lon="14.985142156509381"><ele>114.6</ele><time>2026-03-29T09:56:09.999Z</time></trkpt><trkpt lat="40.30268954969203" lon="14.985193575499894"><ele>113.19999999999999</ele><time>2026-03-29T09:56:48.999Z</time></trkpt><trkpt lat="40.3026810424178" lon="14.98532358253099"><ele>111.80000000000001</ele><time>2026-03-29T09:56:50.999Z</time></trkpt><trkpt lat="40.30273567894089" lon="14.985413792027513"><ele>110.4</ele><time>2026-03-29T09:56:52.999Z</time></trkpt><trkpt lat="40.30280507995857" lon="14.985526000165637"><ele>109.0</ele><time>2026-03-29T09:56:54.999Z</time></trkpt><trkpt lat="40.30286479017683" lon="14.985608133144913"><ele>109.0</ele><time>2026-03-29T09:56:56.999Z</time></trkpt><trkpt lat="40.30293839326371" lon="14.985714200399116"><ele>109.0</ele><time>2026-03-29T09:56:58.999Z</time></trkpt><trkpt lat="40.30301602127936" lon="14.985852944568222"><ele>109.0</ele><time>2026-03-29T09:57:00.999Z</time></trkpt><trkpt lat="40.30306252342302" lon="14.98594284524661"><ele>109.0</ele><time>2026-03-29T09:57:01.999Z</time></trkpt><trkpt lat="40.30310674227616" lon="14.986038249322306"><ele>109.0</ele><time>2026-03-29T09:57:02.999Z</time></trkpt><trkpt lat="40.30313161097669" lon="14.986141007525406"><ele>110.0</ele><time>2026-03-29T09:57:03.999Z</time></trkpt><trkpt lat="40.30316766109157" lon="14.98624812322987"><ele>111.0</ele><time>2026-03-29T09:57:04.999Z</time></trkpt><trkpt lat="40.30320534613669" lon="14.986360096856734"><ele>112.0</ele><time>2026-03-29T09:57:05.999Z</time></trkpt><trkpt lat="40.30325228254981" lon="14.986450729799733"><ele>113.0</ele><time>2026-03-29T09:57:06.999Z</time></trkpt><trkpt lat="40.30326671953527" lon="14.986538358330874"><ele>114.0</ele><time>2026-03-29T09:57:07.999Z</time></trkpt><trkpt lat="40.30332983383767" lon="14.98670100805083"><ele>112.0</ele><time>2026-03-29T09:57:09.999Z</time></trkpt><trkpt lat="40.30336553791083" lon="14.98681880447885"><ele>110.0</ele><time>2026-03-29T09:57:10.999Z</time></trkpt><trkpt lat="40.3034034726621" lon="14.98693783550488"><ele>108.0</ele><time>2026-03-29T09:57:11.999Z</time></trkpt><trkpt lat="40.3034531529945" lon="14.987056143717046"><ele>106.0</ele><time>2026-03-29T09:57:12.999Z</time></trkpt><trkpt lat="40.303503436670326" lon="14.98717874909637"><ele>104.0</ele><time>2026-03-29T09:57:13.999Z</time></trkpt><trkpt lat="40.30355339024716" lon="14.987303365380185"><ele>104.0</ele><time>2026-03-29T09:57:14.999Z</time></trkpt><trkpt lat="40.303601702912616" lon="14.987418203707241"><ele>104.0</ele><time>2026-03-29T09:57:15.999Z</time></trkpt><trkpt lat="40.30366603769577" lon="14.987527206812379"><ele>104.0</ele><time>2026-03-29T09:57:16.999Z</time></trkpt><trkpt lat="40.30372996561554" lon="14.987643506018383"><ele>104.0</ele><time>2026-03-29T09:57:17.999Z</time></trkpt><trkpt lat="40.30379986467365" lon="14.98775587728391"><ele>104.0</ele><time>2026-03-29T09:57:18.999Z</time></trkpt><trkpt lat="40.30387522804357" lon="14.987855077343696"><ele>104.0</ele><time>2026-03-29T09:57:19.999Z</time></trkpt><trkpt lat="40.30395851766788" lon="14.987949176331007"><ele>104.0</ele><time>2026-03-29T09:57:20.999Z</time></trkpt><trkpt lat="40.304035294057" lon="14.98804395148577"><ele>104.0</ele><time>2026-03-29T09:57:21.999Z</time></trkpt><trkpt lat="40.30410994987403" lon="14.988146942460169"><ele>104.0</ele><time>2026-03-29T09:57:22.999Z</time></trkpt><trkpt lat="40.30417242602756" lon="14.988271142180508"><ele>104.0</ele><time>2026-03-29T09:57:23.999Z</time></trkpt><trkpt lat="40.30421618438866" lon="14.98840567533981"><ele>104.0</ele><time>2026-03-29T09:57:24.999Z</time></trkpt><trkpt lat="40.30422313505756" lon="14.988559809102703"><ele>104.0</ele><time>2026-03-29T09:57:25.999Z</time></trkpt><trkpt lat="40.304218601863525" lon="14.988709076426009"><ele>104.0</ele><time>2026-03-29T09:57:26.999Z</time></trkpt><trkpt lat="40.30419899470156" lon="14.988855391496358"><ele>104.0</ele><time>2026-03-29T09:57:27.999Z</time></trkpt><trkpt lat="40.30419264779204" lon="14.989006010924971"><ele>104.0</ele><time>2026-03-29T09:57:28.999Z</time></trkpt><trkpt lat="40.30415964828683" lon="14.989152335928285"><ele>104.0</ele><time>2026-03-29T09:57:29.999Z</time></trkpt><trkpt lat="40.304142991883644" lon="14.989290258165537"><ele>104.0</ele><time>2026-03-29T09:57:30.999Z</time></trkpt><trkpt lat="40.30412685530303" lon="14.98943097813969"><ele>104.0</ele><time>2026-03-29T09:57:31.999Z</time></trkpt><trkpt lat="40.304129012421186" lon="14.989571234976054"><ele>104.0</ele><time>2026-03-29T09:57:32.999Z</time></trkpt><trkpt lat="40.30415136978249" lon="14.989717684338746"><ele>101.75</ele><time>2026-03-29T09:57:33.999Z</time></trkpt><trkpt lat="40.304205159627045" lon="14.989859948163046"><ele>99.5</ele><time>2026-03-29T09:57:34.999Z</time></trkpt><trkpt lat="40.30427794205681" lon="14.989995593165753"><ele>97.25</ele><time>2026-03-29T09:57:35.999Z</time></trkpt><trkpt lat="40.30437334530399" lon="14.99011844525997"><ele>95.0</ele><time>2026-03-29T09:57:36.999Z</time></trkpt><trkpt lat="40.30447507104762" lon="14.99023919282911"><ele>94.5</ele><time>2026-03-29T09:57:37.999Z</time></trkpt><trkpt lat="40.304578348327496" lon="14.990346853709374"><ele>94.0</ele><time>2026-03-29T09:57:38.999Z</time></trkpt><trkpt lat="40.3046871920339" lon="14.990440667349695"><ele>93.5</ele><time>2026-03-29T09:57:39.999Z</time></trkpt><trkpt lat="40.30481258655761" lon="14.990501013531885"><ele>93.0</ele><time>2026-03-29T09:57:40.999Z</time></trkpt><trkpt lat="40.30493819432128" lon="14.990560329748645"><ele>93.0</ele><time>2026-03-29T09:57:41.999Z</time></trkpt><trkpt lat="40.305070416840394" lon="14.990591777427056"><ele>93.0</ele><time>2026-03-29T09:57:42.999Z</time></trkpt><trkpt lat="40.30520422844552" lon="14.990605766274777"><ele>93.0</ele><time>2026-03-29T09:57:43.999Z</time></trkpt><trkpt lat="40.30533939196645" lon="14.99060811916225"><ele>93.0</ele><time>2026-03-29T09:57:44.999Z</time></trkpt><trkpt lat="40.30547643859161" lon="14.990612908703799"><ele>93.0</ele><time>2026-03-29T09:57:45.999Z</time></trkpt><trkpt lat="40.30561196923927" lon="14.99061764946105"><ele>93.0</ele><time>2026-03-29T09:57:46.999Z</time></trkpt><trkpt lat="40.30574982077938" lon="14.990625865117737"><ele>93.0</ele><time>2026-03-29T09:57:47.999Z</time></trkpt><trkpt lat="40.305886862275365" lon="14.990634791329839"><ele>93.0</ele><time>2026-03-29T09:57:48.999Z</time></trkpt><trkpt lat="40.30601520971758" lon="14.990645333250452"><ele>93.0</ele><time>2026-03-29T09:57:49.999Z</time></trkpt><trkpt lat="40.30614044642646" lon="14.990658393850465"><ele>93.0</ele><time>2026-03-29T09:57:50.999Z</time></trkpt><trkpt lat="40.30626476153059" lon="14.990679131248216"><ele>93.0</ele><time>2026-03-29T09:57:51.999Z</time></trkpt><trkpt lat="40.30638751182747" lon="14.990714206812905"><ele>93.0</ele><time>2026-03-29T09:57:52.999Z</time></trkpt><trkpt lat="40.30650473766985" lon="14.990771314203531"><ele>91.75</ele><time>2026-03-29T09:57:53.999Z</time></trkpt><trkpt lat="40.306609157428475" lon="14.990850536993554"><ele>90.5</ele><time>2026-03-29T09:57:54.999Z</time></trkpt><trkpt lat="40.30670694251151" lon="14.990954986102512"><ele>89.25</ele><time>2026-03-29T09:57:55.999Z</time></trkpt><trkpt lat="40.30679862218204" lon="14.991078854389787"><ele>88.0</ele><time>2026-03-29T09:57:56.999Z</time></trkpt><trkpt lat="40.30687797897342" lon="14.991208760980758"><ele>88.0</ele><time>2026-03-29T09:57:57.999Z</time></trkpt><trkpt lat="40.30693912777191" lon="14.991346609583033"><ele>88.0</ele><time>2026-03-29T09:57:58.999Z</time></trkpt><trkpt lat="40.30698873613422" lon="14.99150235765325"><ele>88.0</ele><time>2026-03-29T09:57:59.999Z</time></trkpt><trkpt lat="40.30701477165367" lon="14.991671512680536"><ele>88.0</ele><time>2026-03-29T09:58:00.999Z</time></trkpt><trkpt lat="40.30702936184361" lon="14.991839583995455"><ele>87.5</ele><time>2026-03-29T09:58:01.999Z</time></trkpt><trkpt lat="40.307028674027336" lon="14.992008768335129"><ele>87.0</ele><time>2026-03-29T09:58:02.999Z</time></trkpt><trkpt lat="40.30698313188818" lon="14.992171494593526"><ele>86.5</ele><time>2026-03-29T09:58:03.999Z</time></trkpt><trkpt lat="40.306934821590886" lon="14.992334341118031"><ele>86.0</ele><time>2026-03-29T09:58:04.999Z</time></trkpt><trkpt lat="40.30687979131087" lon="14.992504687066404"><ele>86.75</ele><time>2026-03-29T09:58:05.999Z</time></trkpt><trkpt lat="40.30682586458013" lon="14.992679093195695"><ele>87.5</ele><time>2026-03-29T09:58:06.999Z</time></trkpt><trkpt lat="40.306770044623434" lon="14.992845112987919"><ele>88.25</ele><time>2026-03-29T09:58:07.999Z</time></trkpt><trkpt lat="40.30671902064193" lon="14.99301655398908"><ele>89.0</ele><time>2026-03-29T09:58:08.999Z</time></trkpt><trkpt lat="40.30667362452613" lon="14.993195148544597"><ele>88.5</ele><time>2026-03-29T09:58:09.999Z</time></trkpt><trkpt lat="40.30662977961487" lon="14.993376232024755"><ele>88.0</ele><time>2026-03-29T09:58:10.999Z</time></trkpt><trkpt lat="40.306607558105306" lon="14.993559049763904"><ele>87.5</ele><time>2026-03-29T09:58:11.999Z</time></trkpt><trkpt lat="40.306606683401995" lon="14.993733405422951"><ele>87.0</ele><time>2026-03-29T09:58:12.999Z</time></trkpt><trkpt lat="40.30661058818719" lon="14.993913256401225"><ele>87.0</ele><time>2026-03-29T09:58:13.999Z</time></trkpt><trkpt lat="40.30660439972335" lon="14.994092257330518"><ele>87.0</ele><time>2026-03-29T09:58:14.999Z</time></trkpt><trkpt lat="40.30660798518084" lon="14.994259097756949"><ele>87.0</ele><time>2026-03-29T09:58:15.999Z</time></trkpt><trkpt lat="40.306629052961746" lon="14.99442589133566"><ele>87.0</ele><time>2026-03-29T09:58:16.999Z</time></trkpt><trkpt lat="40.306669151460426" lon="14.994590390103202"><ele>85.75</ele><time>2026-03-29T09:58:17.999Z</time></trkpt><trkpt lat="40.306722135149464" lon="14.99474857193692"><ele>84.5</ele><time>2026-03-29T09:58:18.999Z</time></trkpt><trkpt lat="40.30677844783431" lon="14.994900701154219"><ele>83.25</ele><time>2026-03-29T09:58:19.999Z</time></trkpt><trkpt lat="40.30685656554993" lon="14.995035629595987"><ele>82.0</ele><time>2026-03-29T09:58:20.999Z</time></trkpt><trkpt lat="40.30694681712912" lon="14.995151620283085"><ele>80.25</ele><time>2026-03-29T09:58:21.999Z</time></trkpt><trkpt lat="40.30706248829687" lon="14.995247441487528"><ele>78.5</ele><time>2026-03-29T09:58:22.999Z</time></trkpt><trkpt lat="40.30718028210499" lon="14.995344663205676"><ele>76.75</ele><time>2026-03-29T09:58:23.999Z</time></trkpt><trkpt lat="40.307302478374076" lon="14.995443360098278"><ele>75.0</ele><time>2026-03-29T09:58:24.999Z</time></trkpt><trkpt lat="40.30742637503155" lon="14.995546137804151"><ele>75.0</ele><time>2026-03-29T09:58:25.999Z</time></trkpt><trkpt lat="40.307545992959284" lon="14.995652300736054"><ele>75.0</ele><time>2026-03-29T09:58:26.999Z</time></trkpt><trkpt lat="40.307667040567374" lon="14.995747601627288"><ele>75.0</ele><time>2026-03-29T09:58:27.999Z</time></trkpt><trkpt lat="40.30778395883398" lon="14.995838517349277"><ele>75.0</ele><time>2026-03-29T09:58:28.999Z</time></trkpt><trkpt lat="40.307892180650356" lon="14.99593155165071"><ele>76.0</ele><time>2026-03-29T09:58:29.999Z</time></trkpt><trkpt lat="40.30799210089001" lon="14.99602879130169"><ele>77.0</ele><time>2026-03-29T09:58:30.999Z</time></trkpt><trkpt lat="40.30807587811671" lon="14.996146208980964"><ele>78.0</ele><time>2026-03-29T09:58:31.999Z</time></trkpt><trkpt lat="40.308145801136206" lon="14.996271175832696"><ele>79.0</ele><time>2026-03-29T09:58:32.999Z</time></trkpt><trkpt lat="40.308197311236704" lon="14.996405450312704"><ele>79.0</ele><time>2026-03-29T09:58:33.999Z</time></trkpt><trkpt lat="40.30823741339911" lon="14.99653937271066"><ele>79.0</ele><time>2026-03-29T09:58:34.999Z</time></trkpt><trkpt lat="40.30825793887877" lon="14.996684469406903"><ele>79.0</ele><time>2026-03-29T09:58:35.999Z</time></trkpt><trkpt lat="40.30824277198049" lon="14.996830074728404"><ele>79.0</ele><time>2026-03-29T09:58:36.999Z</time></trkpt><trkpt lat="40.30823947438854" lon="14.996970118815408"><ele>79.0</ele><time>2026-03-29T09:58:37.999Z</time></trkpt><trkpt lat="40.30822253714162" lon="14.99710159876063"><ele>79.2</ele><time>2026-03-29T09:58:38.999Z</time></trkpt><trkpt lat="40.308197945996085" lon="14.997227000385077"><ele>79.4</ele><time>2026-03-29T09:58:39.999Z</time></trkpt><trkpt lat="40.30817048315301" lon="14.997349113589236"><ele>79.6</ele><time>2026-03-29T09:58:40.999Z</time></trkpt><trkpt lat="40.308140506420024" lon="14.997461276979301"><ele>79.8</ele><time>2026-03-29T09:58:41.999Z</time></trkpt><trkpt lat="40.30810247874011" lon="14.997558835449041"><ele>80.0</ele><time>2026-03-29T09:58:42.999Z</time></trkpt><trkpt lat="40.308056845468414" lon="14.997644926628926"><ele>77.5</ele><time>2026-03-29T09:58:43.999Z</time></trkpt><trkpt lat="40.307996520027814" lon="14.99770882733847"><ele>75.0</ele><time>2026-03-29T09:58:44.999Z</time></trkpt><trkpt lat="40.30793051983049" lon="14.99777771713427"><ele>72.5</ele><time>2026-03-29T09:58:45.999Z</time></trkpt><trkpt lat="40.30785112910688" lon="14.997824551656224"><ele>70.0</ele><time>2026-03-29T09:58:46.999Z</time></trkpt><trkpt lat="40.30777388749425" lon="14.997892694624214"><ele>67.5</ele><time>2026-03-29T09:58:47.999Z</time></trkpt><trkpt lat="40.3077023528195" lon="14.997976985336813"><ele>65.0</ele><time>2026-03-29T09:58:48.999Z</time></trkpt><trkpt lat="40.30762514803173" lon="14.998030186102296"><ele>65.0</ele><time>2026-03-29T09:58:49.999Z</time></trkpt><trkpt lat="40.30755959640962" lon="14.998061482780855"><ele>65.0</ele><time>2026-03-29T09:58:50.999Z</time></trkpt><trkpt lat="40.30749297574219" lon="14.99806013906704"><ele>65.0</ele><time>2026-03-29T09:58:51.999Z</time></trkpt><trkpt lat="40.30743314703895" lon="14.997998925626755"><ele>65.0</ele><time>2026-03-29T09:58:52.999Z</time></trkpt><trkpt lat="40.30735565516009" lon="14.997945166713789"><ele>65.0</ele><time>2026-03-29T09:58:53.999Z</time></trkpt><trkpt lat="40.307282137083746" lon="14.997861998633525"><ele>65.0</ele><time>2026-03-29T09:58:54.999Z</time></trkpt><trkpt lat="40.30720363283158" lon="14.99778282287251"><ele>63.6</ele><time>2026-03-29T09:58:55.999Z</time></trkpt><trkpt lat="40.30713430595603" lon="14.997712515247597"><ele>62.2</ele><time>2026-03-29T09:58:56.999Z</time></trkpt><trkpt lat="40.30706142310103" lon="14.99765591481703"><ele>60.8</ele><time>2026-03-29T09:58:57.999Z</time></trkpt><trkpt lat="40.30697499878783" lon="14.997634933442589"><ele>59.4</ele><time>2026-03-29T09:58:58.999Z</time></trkpt><trkpt lat="40.306879929873936" lon="14.997647429220452"><ele>58.0</ele><time>2026-03-29T09:58:59.999Z</time></trkpt><trkpt lat="40.30678689739967" lon="14.997695837015995"><ele>58.0</ele><time>2026-03-29T09:59:00.999Z</time></trkpt><trkpt lat="40.30669718965126" lon="14.997772870703407"><ele>58.0</ele><time>2026-03-29T09:59:01.999Z</time></trkpt><trkpt lat="40.306609225515274" lon="14.997869068204096"><ele>58.0</ele><time>2026-03-29T09:59:02.999Z</time></trkpt><trkpt lat="40.306523270099184" lon="14.997961256836586"><ele>58.0</ele><time>2026-03-29T09:59:03.999Z</time></trkpt><trkpt lat="40.30643466419067" lon="14.998052463265143"><ele>58.0</ele><time>2026-03-29T09:59:04.999Z</time></trkpt><trkpt lat="40.30634582363822" lon="14.998139395032194"><ele>57.5</ele><time>2026-03-29T09:59:05.999Z</time></trkpt><trkpt lat="40.30625949659498" lon="14.998223449694134"><ele>57.0</ele><time>2026-03-29T09:59:06.999Z</time></trkpt><trkpt lat="40.30616283294545" lon="14.99829832173021"><ele>56.5</ele><time>2026-03-29T09:59:07.999Z</time></trkpt><trkpt lat="40.30606744562611" lon="14.998403009835096"><ele>56.0</ele><time>2026-03-29T09:59:08.998Z</time></trkpt><trkpt lat="40.30597260148829" lon="14.99849618020957"><ele>55.25</ele><time>2026-03-29T09:59:09.999Z</time></trkpt><trkpt lat="40.30588207307147" lon="14.998588714809118"><ele>54.5</ele><time>2026-03-29T09:59:10.999Z</time></trkpt><trkpt lat="40.30577914785058" lon="14.998675356207457"><ele>53.75</ele><time>2026-03-29T09:59:11.999Z</time></trkpt><trkpt lat="40.30569216598357" lon="14.998766197858284"><ele>53.0</ele><time>2026-03-29T09:59:12.999Z</time></trkpt><trkpt lat="40.30560787698331" lon="14.998860523880028"><ele>53.2</ele><time>2026-03-29T09:59:13.999Z</time></trkpt><trkpt lat="40.30553216013001" lon="14.998968770936976"><ele>53.4</ele><time>2026-03-29T09:59:14.999Z</time></trkpt><trkpt lat="40.30546868789696" lon="14.999087328498868"><ele>53.60000000000001</ele><time>2026-03-29T09:59:15.999Z</time></trkpt><trkpt lat="40.30541372619777" lon="14.99920211402247"><ele>53.800000000000004</ele><time>2026-03-29T09:59:16.999Z</time></trkpt><trkpt lat="40.305379677550114" lon="14.999315156654417"><ele>54.0</ele><time>2026-03-29T09:59:17.999Z</time></trkpt><trkpt lat="40.305366233537725" lon="14.99941494522966"><ele>54.2</ele><time>2026-03-29T09:59:18.999Z</time></trkpt><trkpt lat="40.30536210951654" lon="14.999499698214409"><ele>54.400000000000006</ele><time>2026-03-29T09:59:19.999Z</time></trkpt><trkpt lat="40.30533517255941" lon="14.999620308082903"><ele>54.6</ele><time>2026-03-29T09:59:21.999Z</time></trkpt><trkpt lat="40.30531657640393" lon="14.999776515640939"><ele>54.8</ele><time>2026-03-29T09:59:23.999Z</time></trkpt><trkpt lat="40.305204751169434" lon="14.999777788460168"><ele>55.0</ele><time>2026-03-29T09:59:24.999Z</time></trkpt><trkpt lat="40.305101605987744" lon="14.999909103734575"><ele>54.99999999999999</ele><time>2026-03-29T09:59:26.999Z</time></trkpt><trkpt lat="40.30505035410823" lon="14.99998717093697"><ele>55.0</ele><time>2026-03-29T09:59:27.999Z</time></trkpt><trkpt lat="40.30500755287215" lon="15.000064303207713"><ele>55.0</ele><time>2026-03-29T09:59:28.999Z</time></trkpt><trkpt lat="40.30495579045727" lon="15.000155001995672"><ele>55.0</ele><time>2026-03-29T09:59:29.999Z</time></trkpt><trkpt lat="40.30490019018568" lon="15.000253089371373"><ele>54.99999999999999</ele><time>2026-03-29T09:59:30.999Z</time></trkpt><trkpt lat="40.30485384870501" lon="15.000341426139446"><ele>55.0</ele><time>2026-03-29T09:59:31.999Z</time></trkpt><trkpt lat="40.30481587728799" lon="15.000422561516247"><ele>54.99999999999999</ele><time>2026-03-29T09:59:32.999Z</time></trkpt><trkpt lat="40.30478604482262" lon="15.000496368017705"><ele>55.0</ele><time>2026-03-29T09:59:33.999Z</time></trkpt><trkpt lat="40.304751573841635" lon="15.00057227762647"><ele>55.0</ele><time>2026-03-29T09:59:34.999Z</time></trkpt><trkpt lat="40.30472231133945" lon="15.00064825111415"><ele>55.0</ele><time>2026-03-29T09:59:35.999Z</time></trkpt><trkpt lat="40.30464724264381" lon="15.000796424730414"><ele>54.99999999999999</ele><time>2026-03-29T09:59:37.999Z</time></trkpt><trkpt lat="40.304613186879564" lon="15.000890955467067"><ele>55.0</ele><time>2026-03-29T09:59:38.999Z</time></trkpt><trkpt lat="40.30457905851575" lon="15.001004924964544"><ele>55.99999999999999</ele><time>2026-03-29T09:59:39.999Z</time></trkpt><trkpt lat="40.304496482953624" lon="15.001087398149151"><ele>57.0</ele><time>2026-03-29T09:59:40.999Z</time></trkpt><trkpt lat="40.30444776969625" lon="15.00117854120497"><ele>58.0</ele><time>2026-03-29T09:59:41.999Z</time></trkpt><trkpt lat="40.30435565837969" lon="15.001290386615114"><ele>59.0</ele><time>2026-03-29T09:59:43.999Z</time></trkpt><trkpt lat="40.30430198050185" lon="15.00134134719123"><ele>59.99999999999999</ele><time>2026-03-29T09:59:44.999Z</time></trkpt><trkpt lat="40.30424522866686" lon="15.001380159575747"><ele>61.0</ele><time>2026-03-29T09:59:45.999Z</time></trkpt><trkpt lat="40.30417872594463" lon="15.001409800806321"><ele>60.99999999999999</ele><time>2026-03-29T09:59:46.999Z</time></trkpt><trkpt lat="40.3041002166006" lon="15.001440560905884"><ele>61.0</ele><time>2026-03-29T09:59:47.999Z</time></trkpt><trkpt lat="40.30401670813288" lon="15.001467808191101"><ele>61.0</ele><time>2026-03-29T09:59:48.999Z</time></trkpt><trkpt lat="40.303946533226366" lon="15.001489260043765"><ele>61.0</ele><time>2026-03-29T09:59:49.999Z</time></trkpt><trkpt lat="40.30386765961961" lon="15.001514845348845"><ele>60.99999999999999</ele><time>2026-03-29T09:59:50.999Z</time></trkpt><trkpt lat="40.30379263999926" lon="15.001535359088074"><ele>61.0</ele><time>2026-03-29T09:59:51.999Z</time></trkpt><trkpt lat="40.303719091237724" lon="15.001556735859792"><ele>60.83333333333333</ele><time>2026-03-29T09:59:52.999Z</time></trkpt><trkpt lat="40.303645095427854" lon="15.001590944391905"><ele>60.666666666666664</ele><time>2026-03-29T09:59:53.999Z</time></trkpt><trkpt lat="40.303573217771" lon="15.001653043367858"><ele>60.5</ele><time>2026-03-29T09:59:54.999Z</time></trkpt><trkpt lat="40.303498765134364" lon="15.001713563440676"><ele>60.33333333333333</ele><time>2026-03-29T09:59:55.999Z</time></trkpt><trkpt lat="40.30342396445" lon="15.00175853442987"><ele>60.166666666666664</ele><time>2026-03-29T09:59:56.999Z</time></trkpt><trkpt lat="40.303356388951194" lon="15.001800385237791"><ele>60.0</ele><time>2026-03-29T09:59:57.999Z</time></trkpt><trkpt lat="40.30327540755506" lon="15.001848770444056"><ele>60.0</ele><time>2026-03-29T09:59:58.999Z</time></trkpt><trkpt lat="40.30319552621319" lon="15.001895150120815"><ele>60.0</ele><time>2026-03-29T09:59:59.999Z</time></trkpt><trkpt lat="40.30311569309297" lon="15.001929846578514"><ele>60.0</ele><time>2026-03-29T10:00:00.999Z</time></trkpt><trkpt lat="40.30304181175909" lon="15.001963809007343"><ele>60.0</ele><time>2026-03-29T10:00:01.999Z</time></trkpt><trkpt lat="40.30296542491822" lon="15.00200146441728"><ele>60.0</ele><time>2026-03-29T10:00:02.999Z</time></trkpt><trkpt lat="40.302883804083955" lon="15.002028851592236"><ele>60.0</ele><time>2026-03-29T10:00:03.999Z</time></trkpt><trkpt lat="40.30279352002997" lon="15.002058080730604"><ele>60.666666666666664</ele><time>2026-03-29T10:00:04.999Z</time></trkpt><trkpt lat="40.302711755556" lon="15.00209416576033"><ele>61.33333333333333</ele><time>2026-03-29T10:00:05.999Z</time></trkpt><trkpt lat="40.30264723567564" lon="15.002130212561058"><ele>62.0</ele><time>2026-03-29T10:00:06.999Z</time></trkpt><trkpt lat="40.30257320918335" lon="15.002160833169281"><ele>62.666666666666664</ele><time>2026-03-29T10:00:07.999Z</time></trkpt><trkpt lat="40.30250920563325" lon="15.002188373303188"><ele>63.33333333333333</ele><time>2026-03-29T10:00:08.999Z</time></trkpt><trkpt lat="40.30243472564399" lon="15.002204946087126"><ele>64.0</ele><time>2026-03-29T10:00:09.999Z</time></trkpt><trkpt lat="40.302348375385165" lon="15.002215408499996"><ele>63.99999999999999</ele><time>2026-03-29T10:00:10.999Z</time></trkpt><trkpt lat="40.30226826527979" lon="15.002228595582011"><ele>64.0</ele><time>2026-03-29T10:00:11.999Z</time></trkpt><trkpt lat="40.30219167754841" lon="15.002254170986772"><ele>64.0</ele><time>2026-03-29T10:00:12.999Z</time></trkpt><trkpt lat="40.302112520916836" lon="15.002285279533188"><ele>64.0</ele><time>2026-03-29T10:00:13.999Z</time></trkpt><trkpt lat="40.302039453052686" lon="15.002324301023762"><ele>63.99999999999999</ele><time>2026-03-29T10:00:14.999Z</time></trkpt><trkpt lat="40.30196675805683" lon="15.002359830857426"><ele>64.0</ele><time>2026-03-29T10:00:15.999Z</time></trkpt><trkpt lat="40.301881844449" lon="15.00239468235282"><ele>64.16666666666666</ele><time>2026-03-29T10:00:16.999Z</time></trkpt><trkpt lat="40.301807379973184" lon="15.00242849374554"><ele>64.33333333333333</ele><time>2026-03-29T10:00:17.999Z</time></trkpt><trkpt lat="40.30172696775265" lon="15.00246408255848"><ele>64.5</ele><time>2026-03-29T10:00:18.999Z</time></trkpt><trkpt lat="40.30166034760371" lon="15.002493111378929"><ele>64.66666666666667</ele><time>2026-03-29T10:00:19.999Z</time></trkpt><trkpt lat="40.30159349470422" lon="15.002517005770855"><ele>64.83333333333334</ele><time>2026-03-29T10:00:20.999Z</time></trkpt><trkpt lat="40.30152847454222" lon="15.00253382831452"><ele>65.0</ele><time>2026-03-29T10:00:21.999Z</time></trkpt><trkpt lat="40.301406279814145" lon="15.002596270006293"><ele>65.0</ele><time>2026-03-29T10:00:23.999Z</time></trkpt><trkpt lat="40.30134408027258" lon="15.002630367762587"><ele>65.0</ele><time>2026-03-29T10:00:24.999Z</time></trkpt><trkpt lat="40.30128465626814" lon="15.002666830206836"><ele>65.0</ele><time>2026-03-29T10:00:25.999Z</time></trkpt><trkpt lat="40.30122075562115" lon="15.002682164433722"><ele>65.0</ele><time>2026-03-29T10:00:26.999Z</time></trkpt><trkpt lat="40.30109936243507" lon="15.002708322826377"><ele>65.0</ele><time>2026-03-29T10:00:28.999Z</time></trkpt><trkpt lat="40.30098184267684" lon="15.00271704845389"><ele>65.0</ele><time>2026-03-29T10:00:30.999Z</time></trkpt><trkpt lat="40.30086285974776" lon="15.002722148558282"><ele>65.0</ele><time>2026-03-29T10:00:32.999Z</time></trkpt><trkpt lat="40.30075835298724" lon="15.002712928664073"><ele>65.0</ele><time>2026-03-29T10:00:34.999Z</time></trkpt><trkpt lat="40.300665437201786" lon="15.002697495417237"><ele>65.0</ele><time>2026-03-29T10:00:36.999Z</time></trkpt><trkpt lat="40.30058377929381" lon="15.002670746780547"><ele>65.0</ele><time>2026-03-29T10:00:38.999Z</time></trkpt><trkpt lat="40.30050295548939" lon="15.002639227083737"><ele>65.0</ele><time>2026-03-29T10:00:40.999Z</time></trkpt><trkpt lat="40.30042434411134" lon="15.002601769987185"><ele>65.5</ele><time>2026-03-29T10:00:42.999Z</time></trkpt><trkpt lat="40.300339703249584" lon="15.002591212226369"><ele>66.0</ele><time>2026-03-29T10:00:44.999Z</time></trkpt><trkpt lat="40.30026410838298" lon="15.00260188760452"><ele>66.5</ele><time>2026-03-29T10:00:46.999Z</time></trkpt><trkpt lat="40.300187198097156" lon="15.002607398764201"><ele>67.0</ele><time>2026-03-29T10:00:48.999Z</time></trkpt><trkpt lat="40.3000948499559" lon="15.00261911987459"><ele>67.5</ele><time>2026-03-29T10:00:50.999Z</time></trkpt><trkpt lat="40.299990748892746" lon="15.002672537456883"><ele>68.0</ele><time>2026-03-29T10:00:52.999Z</time></trkpt><trkpt lat="40.29988379620863" lon="15.002732895933718"><ele>68.0</ele><time>2026-03-29T10:00:54.999Z</time></trkpt><trkpt lat="40.29977206510498" lon="15.002805201350965"><ele>68.0</ele><time>2026-03-29T10:00:56.999Z</time></trkpt><trkpt lat="40.299712034904765" lon="15.002834435178087"><ele>68.0</ele><time>2026-03-29T10:00:57.999Z</time></trkpt><trkpt lat="40.29957972789155" lon="15.002876207718197"><ele>68.0</ele><time>2026-03-29T10:00:59.999Z</time></trkpt><trkpt lat="40.29950442588054" lon="15.002891179532222"><ele>68.0</ele><time>2026-03-29T10:01:00.999Z</time></trkpt><trkpt lat="40.29943364916705" lon="15.002913576191643"><ele>69.4</ele><time>2026-03-29T10:01:01.999Z</time></trkpt><trkpt lat="40.29931697443486" lon="15.002954770534481"><ele>70.8</ele><time>2026-03-29T10:01:03.999Z</time></trkpt><trkpt lat="40.29922046640077" lon="15.003000223770428"><ele>72.2</ele><time>2026-03-29T10:01:05.999Z</time></trkpt><trkpt lat="40.299153315725064" lon="15.003038087956988"><ele>73.6</ele><time>2026-03-29T10:01:08.999Z</time></trkpt><trkpt lat="40.29910869694039" lon="15.003103963399257"><ele>75.0</ele><time>2026-03-29T10:01:10.999Z</time></trkpt><trkpt lat="40.29905479381991" lon="15.003200851161209"><ele>75.0</ele><time>2026-03-29T10:01:13.998Z</time></trkpt><trkpt lat="40.29900518090816" lon="15.003255372040098"><ele>75.0</ele><time>2026-03-29T10:01:15.998Z</time></trkpt><trkpt lat="40.29893981829981" lon="15.003296847818172"><ele>75.0</ele><time>2026-03-29T10:01:17.999Z</time></trkpt><trkpt lat="40.2988548328253" lon="15.003300049435355"><ele>75.0</ele><time>2026-03-29T10:02:18.999Z</time></trkpt><trkpt lat="40.29877901209165" lon="15.003329368642586"><ele>75.0</ele><time>2026-03-29T10:02:21Z</time></trkpt><trkpt lat="40.29869504343757" lon="15.003365974145348"><ele>75.0</ele><time>2026-03-29T10:02:23Z</time></trkpt><trkpt lat="40.2985969906001" lon="15.003406626720825"><ele>73.66666666666667</ele><time>2026-03-29T10:02:25Z</time></trkpt><trkpt lat="40.29849765436468" lon="15.003443971331908"><ele>72.33333333333333</ele><time>2026-03-29T10:02:27Z</time></trkpt><trkpt lat="40.29843062356755" lon="15.003463231740433"><ele>71.0</ele><time>2026-03-29T10:02:29Z</time></trkpt><trkpt lat="40.29837343055984" lon="15.003501763987297"><ele>69.66666666666666</ele><time>2026-03-29T10:02:31Z</time></trkpt><trkpt lat="40.298302506668605" lon="15.003527188268457"><ele>68.33333333333333</ele><time>2026-03-29T10:02:33Z</time></trkpt><trkpt lat="40.2982344967227" lon="15.00356453084188"><ele>67.0</ele><time>2026-03-29T10:02:36Z</time></trkpt><trkpt lat="40.29817311627542" lon="15.00360720805697"><ele>67.0</ele><time>2026-03-29T10:02:38Z</time></trkpt><trkpt lat="40.29812838744216" lon="15.003740838763557"><ele>67.0</ele><time>2026-03-29T10:02:41Z</time></trkpt><trkpt lat="40.29808148153918" lon="15.003828158742987"><ele>67.0</ele><time>2026-03-29T10:02:43Z</time></trkpt><trkpt lat="40.29802799039859" lon="15.003931532858406"><ele>67.0</ele><time>2026-03-29T10:02:45Z</time></trkpt><trkpt lat="40.29795954818863" lon="15.00402167213796"><ele>67.0</ele><time>2026-03-29T10:02:47Z</time></trkpt><trkpt lat="40.297866187709644" lon="15.004099943910179"><ele>68.2</ele><time>2026-03-29T10:02:49Z</time></trkpt><trkpt lat="40.297758396113174" lon="15.004156676299024"><ele>69.4</ele><time>2026-03-29T10:02:51Z</time></trkpt><trkpt lat="40.297645168049925" lon="15.004155056518256"><ele>70.6</ele><time>2026-03-29T10:02:53Z</time></trkpt><trkpt lat="40.29757720022433" lon="15.004144561898256"><ele>71.8</ele><time>2026-03-29T10:02:54Z</time></trkpt><trkpt lat="40.297506116685504" lon="15.004137424149713"><ele>73.0</ele><time>2026-03-29T10:02:55Z</time></trkpt><trkpt lat="40.297394503187746" lon="15.004130237183082"><ele>72.5</ele><time>2026-03-29T10:02:57Z</time></trkpt><trkpt lat="40.29728706453576" lon="15.004163466502886"><ele>72.0</ele><time>2026-03-29T10:02:59Z</time></trkpt><trkpt lat="40.29722987057188" lon="15.004201298538936"><ele>71.5</ele><time>2026-03-29T10:03:00Z</time></trkpt><trkpt lat="40.297178859866946" lon="15.004250057917176"><ele>71.0</ele><time>2026-03-29T10:03:01Z</time></trkpt><trkpt lat="40.29712590380215" lon="15.004302181696753"><ele>70.5</ele><time>2026-03-29T10:03:02Z</time></trkpt><trkpt lat="40.29706396856588" lon="15.004360823321981"><ele>70.0</ele><time>2026-03-29T10:03:03Z</time></trkpt><trkpt lat="40.29698792395835" lon="15.004412986321066"><ele>70.0</ele><time>2026-03-29T10:03:04Z</time></trkpt><trkpt lat="40.296927898596245" lon="15.004449915176592"><ele>70.0</ele><time>2026-03-29T10:03:05Z</time></trkpt><trkpt lat="40.29682639484905" lon="15.004517568277485"><ele>70.0</ele><time>2026-03-29T10:03:07Z</time></trkpt><trkpt lat="40.296725762894184" lon="15.004568250196815"><ele>70.0</ele><time>2026-03-29T10:03:09Z</time></trkpt><trkpt lat="40.29661001885139" lon="15.004612909269282"><ele>70.0</ele><time>2026-03-29T10:03:11Z</time></trkpt><trkpt lat="40.296495484659914" lon="15.004649957510106"><ele>71.4</ele><time>2026-03-29T10:03:13Z</time></trkpt><trkpt lat="40.29640425846091" lon="15.004668534021619"><ele>72.8</ele><time>2026-03-29T10:03:15Z</time></trkpt><trkpt lat="40.296329906710405" lon="15.004690956246014"><ele>74.2</ele><time>2026-03-29T10:03:17Z</time></trkpt><trkpt lat="40.296226230073515" lon="15.004742710193852"><ele>75.6</ele><time>2026-03-29T10:03:19Z</time></trkpt><trkpt lat="40.29617116793631" lon="15.004799591504664"><ele>77.0</ele><time>2026-03-29T10:03:19.999Z</time></trkpt><trkpt lat="40.29609046882371" lon="15.004897635006131"><ele>77.0</ele><time>2026-03-29T10:03:21.999Z</time></trkpt><trkpt lat="40.295993513744335" lon="15.00499724689601"><ele>77.0</ele><time>2026-03-29T10:03:23.999Z</time></trkpt><trkpt lat="40.29592991047521" lon="15.005024522149023"><ele>77.0</ele><time>2026-03-29T10:03:24.999Z</time></trkpt><trkpt lat="40.29581498653344" lon="15.00501850392375"><ele>77.0</ele><time>2026-03-29T10:03:26.999Z</time></trkpt><trkpt lat="40.29574431288495" lon="15.005000287677547"><ele>77.0</ele><time>2026-03-29T10:03:27.999Z</time></trkpt><trkpt lat="40.29566960078085" lon="15.00499313574276"><ele>77.0</ele><time>2026-03-29T10:03:28.999Z</time></trkpt><trkpt lat="40.295594400657556" lon="15.004985614619864"><ele>77.0</ele><time>2026-03-29T10:03:29.999Z</time></trkpt><trkpt lat="40.295503973916276" lon="15.004982146009734"><ele>77.0</ele><time>2026-03-29T10:03:31.999Z</time></trkpt><trkpt lat="40.29543163244923" lon="15.004965461897246"><ele>77.0</ele><time>2026-03-29T10:03:34.999Z</time></trkpt><trkpt lat="40.29543429052647" lon="15.005054999261535"><ele>77.0</ele><time>2026-03-29T10:03:38.999Z</time></trkpt><trkpt lat="40.295478486823676" lon="15.005197322867648"><ele>77.0</ele><time>2026-03-29T10:03:41Z</time></trkpt><trkpt lat="40.2954433551016" lon="15.005320123340637"><ele>76.8</ele><time>2026-03-29T10:03:43Z</time></trkpt><trkpt lat="40.29537191836828" lon="15.005433418443703"><ele>76.6</ele><time>2026-03-29T10:03:45Z</time></trkpt><trkpt lat="40.295315039747145" lon="15.005524670430164"><ele>76.39999999999999</ele><time>2026-03-29T10:03:47Z</time></trkpt><trkpt lat="40.29527168093919" lon="15.005633828108184"><ele>76.2</ele><time>2026-03-29T10:03:49Z</time></trkpt><trkpt lat="40.295231248591456" lon="15.0057692235433"><ele>76.0</ele><time>2026-03-29T10:03:51Z</time></trkpt><trkpt lat="40.29521021688701" lon="15.005894197616685"><ele>77.19999999999999</ele><time>2026-03-29T10:03:53Z</time></trkpt><trkpt lat="40.295196461180424" lon="15.006027627347523"><ele>78.39999999999999</ele><time>2026-03-29T10:03:55Z</time></trkpt><trkpt lat="40.295198194801046" lon="15.006183419302547"><ele>79.6</ele><time>2026-03-29T10:03:57Z</time></trkpt><trkpt lat="40.29524079533151" lon="15.00629692755316"><ele>80.8</ele><time>2026-03-29T10:03:59Z</time></trkpt><trkpt lat="40.2953244600251" lon="15.006407549774057"><ele>82.0</ele><time>2026-03-29T10:04:01Z</time></trkpt><trkpt lat="40.29541423395931" lon="15.006481471813597"><ele>82.0</ele><time>2026-03-29T10:04:03Z</time></trkpt><trkpt lat="40.295476511587154" lon="15.00653153367074"><ele>82.0</ele><time>2026-03-29T10:04:04Z</time></trkpt><trkpt lat="40.29553516201511" lon="15.00658103250752"><ele>82.0</ele><time>2026-03-29T10:04:05Z</time></trkpt><trkpt lat="40.29558411415313" lon="15.006637481058675"><ele>82.0</ele><time>2026-03-29T10:04:06Z</time></trkpt><trkpt lat="40.295648176390664" lon="15.006774085840146"><ele>82.0</ele><time>2026-03-29T10:04:08Z</time></trkpt><trkpt lat="40.29567641092976" lon="15.006852660230185"><ele>82.0</ele><time>2026-03-29T10:04:09Z</time></trkpt><trkpt lat="40.29570408520394" lon="15.006937381538789"><ele>82.83333333333333</ele><time>2026-03-29T10:04:10Z</time></trkpt><trkpt lat="40.295727557451556" lon="15.007023289153537"><ele>83.66666666666666</ele><time>2026-03-29T10:04:11Z</time></trkpt><trkpt lat="40.295756985468905" lon="15.007100573057608"><ele>84.5</ele><time>2026-03-29T10:04:12Z</time></trkpt><trkpt lat="40.29579121379214" lon="15.007198104531156"><ele>85.33333333333333</ele><time>2026-03-29T10:04:13Z</time></trkpt><trkpt lat="40.2958228353789" lon="15.007278396328628"><ele>86.16666666666667</ele><time>2026-03-29T10:04:14Z</time></trkpt><trkpt lat="40.295869975679146" lon="15.007358907871376"><ele>87.0</ele><time>2026-03-29T10:04:15Z</time></trkpt><trkpt lat="40.295917030758986" lon="15.007494748337425"><ele>89.19999999999999</ele><time>2026-03-29T10:04:17Z</time></trkpt><trkpt lat="40.295956124378385" lon="15.00759503671438"><ele>91.4</ele><time>2026-03-29T10:04:19Z</time></trkpt><trkpt lat="40.29596415749737" lon="15.007693337747572"><ele>93.6</ele><time>2026-03-29T10:04:22Z</time></trkpt><trkpt lat="40.295983265999965" lon="15.00780102661969"><ele>95.80000000000001</ele><time>2026-03-29T10:04:35Z</time></trkpt><trkpt lat="40.296016221623454" lon="15.007917652975598"><ele>98.0</ele><time>2026-03-29T10:04:37Z</time></trkpt><trkpt lat="40.29601183112265" lon="15.008096706511466"><ele>98.0</ele><time>2026-03-29T10:04:39Z</time></trkpt><trkpt lat="40.2959906622793" lon="15.008201726543637"><ele>98.0</ele><time>2026-03-29T10:04:40Z</time></trkpt><trkpt lat="40.29598431275566" lon="15.008303354482033"><ele>98.0</ele><time>2026-03-29T10:04:41Z</time></trkpt><trkpt lat="40.295989438688736" lon="15.008407656219745"><ele>98.0</ele><time>2026-03-29T10:04:42Z</time></trkpt><trkpt lat="40.296005924485655" lon="15.008550529232238"><ele>98.0</ele><time>2026-03-29T10:04:43Z</time></trkpt><trkpt lat="40.295994503603474" lon="15.008686612924292"><ele>99.66666666666666</ele><time>2026-03-29T10:04:44Z</time></trkpt><trkpt lat="40.295961390554695" lon="15.008817844526995"><ele>101.33333333333333</ele><time>2026-03-29T10:04:45Z</time></trkpt><trkpt lat="40.29592855562298" lon="15.008950781465142"><ele>103.0</ele><time>2026-03-29T10:04:46Z</time></trkpt><trkpt lat="40.29591555966725" lon="15.009049397696554"><ele>104.66666666666666</ele><time>2026-03-29T10:04:47Z</time></trkpt><trkpt lat="40.295877437071695" lon="15.009129843780219"><ele>106.33333333333333</ele><time>2026-03-29T10:04:48Z</time></trkpt><trkpt lat="40.29582798836944" lon="15.009183163953198"><ele>108.0</ele><time>2026-03-29T10:04:49Z</time></trkpt><trkpt lat="40.29574981471377" lon="15.009224305941979"><ele>108.0</ele><time>2026-03-29T10:04:50Z</time></trkpt><trkpt lat="40.29566657660302" lon="15.009245664230214"><ele>108.0</ele><time>2026-03-29T10:04:51Z</time></trkpt><trkpt lat="40.29558000774334" lon="15.009236234042294"><ele>108.0</ele><time>2026-03-29T10:04:52Z</time></trkpt><trkpt lat="40.295481023869584" lon="15.009250520287797"><ele>108.0</ele><time>2026-03-29T10:04:53Z</time></trkpt><trkpt lat="40.295605810820966" lon="15.0088853805994"><ele>109.60000000000001</ele><time>2026-03-29T10:04:54Z</time></trkpt><trkpt lat="40.29555142688876" lon="15.008785918550178"><ele>111.20000000000002</ele><time>2026-03-29T10:04:55Z</time></trkpt><trkpt lat="40.295491175696924" lon="15.008684749104471"><ele>112.8</ele><time>2026-03-29T10:04:56Z</time></trkpt><trkpt lat="40.295422019039854" lon="15.00861674792797"><ele>114.4</ele><time>2026-03-29T10:04:57Z</time></trkpt><trkpt lat="40.295340244978725" lon="15.008584380462818"><ele>116.0</ele><time>2026-03-29T10:04:58Z</time></trkpt><trkpt lat="40.29524399647996" lon="15.008585391528255"><ele>116.0</ele><time>2026-03-29T10:04:59Z</time></trkpt><trkpt lat="40.295137483476516" lon="15.008590927277597"><ele>116.0</ele><time>2026-03-29T10:05:00Z</time></trkpt><trkpt lat="40.29501993440948" lon="15.008592986947685"><ele>116.0</ele><time>2026-03-29T10:05:01Z</time></trkpt><trkpt lat="40.29491285271047" lon="15.008603963031184"><ele>116.0</ele><time>2026-03-29T10:05:02Z</time></trkpt><trkpt lat="40.294796190537525" lon="15.00861832120082"><ele>116.0</ele><time>2026-03-29T10:05:03Z</time></trkpt><trkpt lat="40.29467151137769" lon="15.00862905079272"><ele>117.0</ele><time>2026-03-29T10:05:04Z</time></trkpt><trkpt lat="40.29454752057425" lon="15.008616895769674"><ele>118.0</ele><time>2026-03-29T10:05:05Z</time></trkpt><trkpt lat="40.29442457546106" lon="15.008597285645783"><ele>119.0</ele><time>2026-03-29T10:05:06Z</time></trkpt><trkpt lat="40.29430295629803" lon="15.008586099454144"><ele>120.0</ele><time>2026-03-29T10:05:07Z</time></trkpt><trkpt lat="40.29418752588931" lon="15.008610097130791"><ele>120.0</ele><time>2026-03-29T10:05:08Z</time></trkpt><trkpt lat="40.294068333290745" lon="15.008669081703617"><ele>120.0</ele><time>2026-03-29T10:05:09Z</time></trkpt><trkpt lat="40.29397462649742" lon="15.008733670908683"><ele>120.0</ele><time>2026-03-29T10:05:10Z</time></trkpt><trkpt lat="40.293896554802615" lon="15.008788634351083"><ele>120.0</ele><time>2026-03-29T10:05:11Z</time></trkpt><trkpt lat="40.293852768449085" lon="15.008860971748286"><ele>120.0</ele><time>2026-03-29T10:05:12Z</time></trkpt><trkpt lat="40.293832004200226" lon="15.008966244803156"><ele>122.4</ele><time>2026-03-29T10:05:13Z</time></trkpt><trkpt lat="40.293845009130536" lon="15.009072485465051"><ele>124.8</ele><time>2026-03-29T10:05:14Z</time></trkpt><trkpt lat="40.293878797754985" lon="15.009182220911002"><ele>127.19999999999999</ele><time>2026-03-29T10:05:15Z</time></trkpt><trkpt lat="40.293978663578194" lon="15.009299406849891"><ele>129.6</ele><time>2026-03-29T10:05:16Z</time></trkpt><trkpt lat="40.29406524930108" lon="15.009355288092182"><ele>132.0</ele><time>2026-03-29T10:05:17Z</time></trkpt><trkpt lat="40.294161931275674" lon="15.0093924347889"><ele>133.0</ele><time>2026-03-29T10:05:18Z</time></trkpt><trkpt lat="40.294278320281485" lon="15.009403644691448"><ele>134.0</ele><time>2026-03-29T10:05:19Z</time></trkpt><trkpt lat="40.29438313073318" lon="15.009405297175364"><ele>135.0</ele><time>2026-03-29T10:05:20Z</time></trkpt><trkpt lat="40.294485808221" lon="15.009400132836255"><ele>136.0</ele><time>2026-03-29T10:05:21Z</time></trkpt><trkpt lat="40.29457155368503" lon="15.009421056529476"><ele>137.0</ele><time>2026-03-29T10:05:22Z</time></trkpt><trkpt lat="40.29464901920517" lon="15.00948328672389"><ele>137.0</ele><time>2026-03-29T10:05:23Z</time></trkpt><trkpt lat="40.29471989757341" lon="15.009570775213271"><ele>137.0</ele><time>2026-03-29T10:05:24Z</time></trkpt><trkpt lat="40.294780135352006" lon="15.00968145780926"><ele>137.0</ele><time>2026-03-29T10:05:25Z</time></trkpt><trkpt lat="40.29483030301682" lon="15.009775502896883"><ele>137.0</ele><time>2026-03-29T10:05:26Z</time></trkpt><trkpt lat="40.294862948755" lon="15.009855880510745"><ele>137.0</ele><time>2026-03-29T10:05:26.999Z</time></trkpt><trkpt lat="40.29482016808261" lon="15.009959952075754"><ele>137.0</ele><time>2026-03-29T10:05:29Z</time></trkpt><trkpt lat="40.29470837638778" lon="15.009952358906549"><ele>137.0</ele><time>2026-03-29T10:05:31Z</time></trkpt><trkpt lat="40.294645027741005" lon="15.009910037101026"><ele>137.0</ele><time>2026-03-29T10:05:32Z</time></trkpt><trkpt lat="40.29456349281325" lon="15.009891820608578"><ele>137.0</ele><time>2026-03-29T10:05:33Z</time></trkpt><trkpt lat="40.29447037105323" lon="15.009911771963514"><ele>137.0</ele><time>2026-03-29T10:05:34Z</time></trkpt><trkpt lat="40.294382262690235" lon="15.009940382166656"><ele>137.0</ele><time>2026-03-29T10:05:35Z</time></trkpt><trkpt lat="40.294281082405796" lon="15.009970670283519"><ele>137.0</ele><time>2026-03-29T10:05:36Z</time></trkpt><trkpt lat="40.29417163632723" lon="15.009984350786699"><ele>137.0</ele><time>2026-03-29T10:05:37Z</time></trkpt><trkpt lat="40.2940652359641" lon="15.009981324383531"><ele>137.0</ele><time>2026-03-29T10:05:38Z</time></trkpt><trkpt lat="40.29396692470504" lon="15.009958848791117"><ele>137.0</ele><time>2026-03-29T10:05:39Z</time></trkpt><trkpt lat="40.29389128559768" lon="15.009925716026489"><ele>137.0</ele><time>2026-03-29T10:05:40Z</time></trkpt><trkpt lat="40.29381309410912" lon="15.009902895521558"><ele>137.0</ele><time>2026-03-29T10:05:41Z</time></trkpt><trkpt lat="40.29375058385933" lon="15.009943601320629"><ele>137.0</ele><time>2026-03-29T10:05:42Z</time></trkpt><trkpt lat="40.29371672637799" lon="15.010030705913508"><ele>140.16666666666666</ele><time>2026-03-29T10:05:43Z</time></trkpt><trkpt lat="40.2937011715877" lon="15.010139965371321"><ele>143.33333333333331</ele><time>2026-03-29T10:05:44Z</time></trkpt><trkpt lat="40.293718936068174" lon="15.010237157338821"><ele>146.5</ele><time>2026-03-29T10:05:45Z</time></trkpt><trkpt lat="40.29377365501277" lon="15.01031588144696"><ele>149.66666666666666</ele><time>2026-03-29T10:05:46Z</time></trkpt><trkpt lat="40.29385895195626" lon="15.010369889669924"><ele>152.83333333333334</ele><time>2026-03-29T10:05:47Z</time></trkpt><trkpt lat="40.29396091768383" lon="15.010400859433402"><ele>156.0</ele><time>2026-03-29T10:05:48Z</time></trkpt><trkpt lat="40.29406346152486" lon="15.010421202828137"><ele>156.0</ele><time>2026-03-29T10:05:49Z</time></trkpt><trkpt lat="40.29413936462558" lon="15.010451148155784"><ele>156.0</ele><time>2026-03-29T10:05:50Z</time></trkpt><trkpt lat="40.294180240376214" lon="15.010565519571166"><ele>156.0</ele><time>2026-03-29T10:05:52Z</time></trkpt><trkpt lat="40.29410520095589" lon="15.010646221372756"><ele>156.0</ele><time>2026-03-29T10:05:54Z</time></trkpt><trkpt lat="40.294031293334186" lon="15.010647571568159"><ele>156.0</ele><time>2026-03-29T10:05:55Z</time></trkpt><trkpt lat="40.29394679664773" lon="15.010644562353505"><ele>156.0</ele><time>2026-03-29T10:05:56Z</time></trkpt><trkpt lat="40.29385694305594" lon="15.010645217160432"><ele>157.83333333333334</ele><time>2026-03-29T10:05:57Z</time></trkpt><trkpt lat="40.29376862877518" lon="15.01065648291988"><ele>159.66666666666666</ele><time>2026-03-29T10:05:58Z</time></trkpt><trkpt lat="40.29368165812791" lon="15.010664914069352"><ele>161.5</ele><time>2026-03-29T10:05:59Z</time></trkpt><trkpt lat="40.293601771170344" lon="15.010686156328251"><ele>163.33333333333331</ele><time>2026-03-29T10:06:00Z</time></trkpt><trkpt lat="40.29355233959571" lon="15.010756820106792"><ele>165.16666666666666</ele><time>2026-03-29T10:06:01Z</time></trkpt><trkpt lat="40.29354617180927" lon="15.01083927951624"><ele>167.0</ele><time>2026-03-29T10:06:02Z</time></trkpt><trkpt lat="40.29358915363946" lon="15.01091694362564"><ele>169.5</ele><time>2026-03-29T10:06:03Z</time></trkpt><trkpt lat="40.29362550576879" lon="15.01100444219576"><ele>172.0</ele><time>2026-03-29T10:06:04Z</time></trkpt><trkpt lat="40.29362131619357" lon="15.011096643782047"><ele>174.5</ele><time>2026-03-29T10:06:05Z</time></trkpt><trkpt lat="40.293585383399716" lon="15.011178436775548"><ele>177.0</ele><time>2026-03-29T10:06:06Z</time></trkpt><trkpt lat="40.29351163206107" lon="15.011225581094132"><ele>179.5</ele><time>2026-03-29T10:06:07Z</time></trkpt><trkpt lat="40.29343514803521" lon="15.011232631475236"><ele>182.0</ele><time>2026-03-29T10:06:08Z</time></trkpt><trkpt lat="40.29332222844391" lon="15.011227195139268"><ele>182.0</ele><time>2026-03-29T10:06:09Z</time></trkpt><trkpt lat="40.293212880394584" lon="15.01118435251358"><ele>182.0</ele><time>2026-03-29T10:06:10Z</time></trkpt><trkpt lat="40.29308778404369" lon="15.011158899534061"><ele>182.0</ele><time>2026-03-29T10:06:11Z</time></trkpt><trkpt lat="40.2929731724796" lon="15.011171888233296"><ele>182.0</ele><time>2026-03-29T10:06:12Z</time></trkpt><trkpt lat="40.29285868867755" lon="15.011219255730362"><ele>186.0</ele><time>2026-03-29T10:06:13Z</time></trkpt><trkpt lat="40.29274506405553" lon="15.011283405190712"><ele>190.0</ele><time>2026-03-29T10:06:14Z</time></trkpt><trkpt lat="40.29264916390709" lon="15.011316542913562"><ele>194.0</ele><time>2026-03-29T10:06:15Z</time></trkpt><trkpt lat="40.29254531036154" lon="15.011386116278514"><ele>198.0</ele><time>2026-03-29T10:06:16Z</time></trkpt><trkpt lat="40.29244882907707" lon="15.011458376673323"><ele>198.0</ele><time>2026-03-29T10:06:17Z</time></trkpt><trkpt lat="40.2923470982347" lon="15.011544565409231"><ele>198.0</ele><time>2026-03-29T10:06:18Z</time></trkpt><trkpt lat="40.29222086245985" lon="15.011617860226812"><ele>198.0</ele><time>2026-03-29T10:06:19Z</time></trkpt><trkpt lat="40.29207387299264" lon="15.011686404920168"><ele>198.0</ele><time>2026-03-29T10:06:20Z</time></trkpt><trkpt lat="40.29192954141505" lon="15.011756071260253"><ele>202.66666666666669</ele><time>2026-03-29T10:06:21Z</time></trkpt><trkpt lat="40.29178508006559" lon="15.011802856637608"><ele>207.33333333333334</ele><time>2026-03-29T10:06:22Z</time></trkpt><trkpt lat="40.291626682015654" lon="15.011848617691923"><ele>212.0</ele><time>2026-03-29T10:06:23Z</time></trkpt><trkpt lat="40.29148155969067" lon="15.011907499954964"><ele>215.66666666666669</ele><time>2026-03-29T10:06:24Z</time></trkpt><trkpt lat="40.29134142599743" lon="15.011993723882293"><ele>219.33333333333331</ele><time>2026-03-29T10:06:25Z</time></trkpt><trkpt lat="40.29119765759573" lon="15.012084692027585"><ele>223.0</ele><time>2026-03-29T10:06:26Z</time></trkpt><trkpt lat="40.29103429271303" lon="15.0121885789885"><ele>223.0</ele><time>2026-03-29T10:06:27Z</time></trkpt><trkpt lat="40.29087378109256" lon="15.012281373391382"><ele>223.0</ele><time>2026-03-29T10:06:28Z</time></trkpt><trkpt lat="40.290714555829645" lon="15.012355698412707"><ele>223.0</ele><time>2026-03-29T10:06:29Z</time></trkpt><trkpt lat="40.290573657026115" lon="15.012412591951332"><ele>225.75</ele><time>2026-03-29T10:06:30Z</time></trkpt><trkpt lat="40.290434380282036" lon="15.01246429220769"><ele>228.5</ele><time>2026-03-29T10:06:31Z</time></trkpt><trkpt lat="40.29029278906165" lon="15.012511904931698"><ele>231.25</ele><time>2026-03-29T10:06:32Z</time></trkpt><trkpt lat="40.290171092869784" lon="15.0125343836692"><ele>234.0</ele><time>2026-03-29T10:06:33Z</time></trkpt><trkpt lat="40.29007813471362" lon="15.012554249979603"><ele>234.5</ele><time>2026-03-29T10:06:34Z</time></trkpt><trkpt lat="40.290004803661425" lon="15.012595719294433"><ele>235.0</ele><time>2026-03-29T10:06:35Z</time></trkpt><trkpt lat="40.289952537474306" lon="15.012664994260563"><ele>235.5</ele><time>2026-03-29T10:06:36Z</time></trkpt><trkpt lat="40.28993041500988" lon="15.012775904373"><ele>236.0</ele><time>2026-03-29T10:06:37Z</time></trkpt><trkpt lat="40.28991662255906" lon="15.01288638837252"><ele>236.5</ele><time>2026-03-29T10:06:38Z</time></trkpt><trkpt lat="40.28990543880713" lon="15.013000038852674"><ele>237.0</ele><time>2026-03-29T10:06:39Z</time></trkpt><trkpt lat="40.289875570937" lon="15.01307558779994"><ele>237.0</ele><time>2026-03-29T10:06:40Z</time></trkpt><trkpt lat="40.28977937765547" lon="15.013074387932436"><ele>237.0</ele><time>2026-03-29T10:06:42Z</time></trkpt><trkpt lat="40.289708605633976" lon="15.012954358886363"><ele>237.0</ele><time>2026-03-29T10:06:44Z</time></trkpt><trkpt lat="40.28966887489334" lon="15.01288014027113"><ele>237.0</ele><time>2026-03-29T10:06:45Z</time></trkpt><trkpt lat="40.28960743826036" lon="15.012795014043947"><ele>237.0</ele><time>2026-03-29T10:06:46Z</time></trkpt><trkpt lat="40.28953542051853" lon="15.012732846184935"><ele>237.8</ele><time>2026-03-29T10:06:47Z</time></trkpt><trkpt lat="40.28945618071806" lon="15.012669728287715"><ele>238.6</ele><time>2026-03-29T10:06:48Z</time></trkpt><trkpt lat="40.28936861399418" lon="15.012603075917813"><ele>239.40000000000003</ele><time>2026-03-29T10:06:49Z</time></trkpt><trkpt lat="40.28928738009457" lon="15.012528472692036"><ele>240.20000000000002</ele><time>2026-03-29T10:06:50Z</time></trkpt><trkpt lat="40.28920503052345" lon="15.012467483369303"><ele>241.0</ele><time>2026-03-29T10:06:51Z</time></trkpt><trkpt lat="40.28913012722011" lon="15.012404533141815"><ele>241.0</ele><time>2026-03-29T10:06:52Z</time></trkpt><trkpt lat="40.28905771280066" lon="15.012337797138997"><ele>241.00000000000003</ele><time>2026-03-29T10:06:53Z</time></trkpt><trkpt lat="40.28897953274777" lon="15.012267431372699"><ele>241.00000000000003</ele><time>2026-03-29T10:06:54Z</time></trkpt><trkpt lat="40.28889944913778" lon="15.012207789326446"><ele>241.0</ele><time>2026-03-29T10:06:55Z</time></trkpt><trkpt lat="40.288813297970556" lon="15.012168841479584"><ele>241.0</ele><time>2026-03-29T10:06:56Z</time></trkpt><trkpt lat="40.28872527870698" lon="15.012137932472019"><ele>243.49999999999997</ele><time>2026-03-29T10:06:57Z</time></trkpt><trkpt lat="40.288634089619414" lon="15.012114933735416"><ele>246.0</ele><time>2026-03-29T10:06:58Z</time></trkpt><trkpt lat="40.28854071601896" lon="15.012102080309148"><ele>248.5</ele><time>2026-03-29T10:06:59Z</time></trkpt><trkpt lat="40.288462994927514" lon="15.012106194754672"><ele>251.0</ele><time>2026-03-29T10:07:00Z</time></trkpt><trkpt lat="40.28839450293216" lon="15.01211346916547"><ele>253.49999999999997</ele><time>2026-03-29T10:07:01Z</time></trkpt><trkpt lat="40.288330303594655" lon="15.012212313470858"><ele>256.0</ele><time>2026-03-29T10:07:03Z</time></trkpt><trkpt lat="40.28839383921355" lon="15.012339269543714"><ele>255.99999999999997</ele><time>2026-03-29T10:07:05Z</time></trkpt><trkpt lat="40.28845969954067" lon="15.012402670060252"><ele>256.0</ele><time>2026-03-29T10:07:06Z</time></trkpt><trkpt lat="40.28852923350624" lon="15.012473944850072"><ele>256.0</ele><time>2026-03-29T10:07:07Z</time></trkpt><trkpt lat="40.28858381935011" lon="15.012551320169194"><ele>256.0</ele><time>2026-03-29T10:07:08Z</time></trkpt><trkpt lat="40.28862429683174" lon="15.012638304898456"><ele>255.99999999999997</ele><time>2026-03-29T10:07:09Z</time></trkpt><trkpt lat="40.28865504018526" lon="15.012712566452889"><ele>256.0</ele><time>2026-03-29T10:07:10Z</time></trkpt><trkpt lat="40.28864296297148" lon="15.012854327282597"><ele>258.8333333333333</ele><time>2026-03-29T10:07:12Z</time></trkpt><trkpt lat="40.288560419070755" lon="15.012860095666685"><ele>261.66666666666663</ele><time>2026-03-29T10:07:13Z</time></trkpt><trkpt lat="40.288489948626946" lon="15.012882977783162"><ele>264.5</ele><time>2026-03-29T10:07:14Z</time></trkpt><trkpt lat="40.28840444088388" lon="15.012912468417003"><ele>267.3333333333333</ele><time>2026-03-29T10:07:15Z</time></trkpt><trkpt lat="40.28832346077646" lon="15.012945232074063"><ele>270.1666666666667</ele><time>2026-03-29T10:07:16Z</time></trkpt><trkpt lat="40.28823784343218" lon="15.012923663080388"><ele>273.0</ele><time>2026-03-29T10:07:17Z</time></trkpt><trkpt lat="40.28816285309981" lon="15.012823152373187"><ele>273.8</ele><time>2026-03-29T10:07:18Z</time></trkpt><trkpt lat="40.28806330254162" lon="15.012757061457926"><ele>274.6</ele><time>2026-03-29T10:07:19Z</time></trkpt><trkpt lat="40.28795270732139" lon="15.012707012188034"><ele>275.4</ele><time>2026-03-29T10:07:20Z</time></trkpt><trkpt lat="40.287848576074644" lon="15.012652861159381"><ele>276.2</ele><time>2026-03-29T10:07:21Z</time></trkpt><trkpt lat="40.287755220085515" lon="15.012585320254713"><ele>277.0</ele><time>2026-03-29T10:07:22Z</time></trkpt><trkpt lat="40.287665730505175" lon="15.012565200567664"><ele>277.0</ele><time>2026-03-29T10:07:23Z</time></trkpt><trkpt lat="40.28758627827097" lon="15.01253815179308"><ele>277.0</ele><time>2026-03-29T10:07:24Z</time></trkpt><trkpt lat="40.28750096395225" lon="15.0125368110006"><ele>277.0</ele><time>2026-03-29T10:07:25.001Z</time></trkpt><trkpt lat="40.28742166834586" lon="15.012613583903674"><ele>277.0</ele><time>2026-03-29T10:07:26.001Z</time></trkpt><trkpt lat="40.28737114387601" lon="15.012750580823985"><ele>277.0</ele><time>2026-03-29T10:07:27.001Z</time></trkpt><trkpt lat="40.28730987881011" lon="15.01286282334147"><ele>276.4</ele><time>2026-03-29T10:07:28.001Z</time></trkpt><trkpt lat="40.287240989151584" lon="15.012985181601533"><ele>275.79999999999995</ele><time>2026-03-29T10:07:29.001Z</time></trkpt><trkpt lat="40.28716818019073" lon="15.013097079013038"><ele>275.2</ele><time>2026-03-29T10:07:30.001Z</time></trkpt><trkpt lat="40.28709348086359" lon="15.013190225042967"><ele>274.59999999999997</ele><time>2026-03-29T10:07:31.001Z</time></trkpt><trkpt lat="40.28701196298905" lon="15.013261541146685"><ele>274.0</ele><time>2026-03-29T10:07:31.999Z</time></trkpt><trkpt lat="40.286909401113796" lon="15.013295234282365"><ele>274.0</ele><time>2026-03-29T10:07:32.999Z</time></trkpt><trkpt lat="40.28678799514058" lon="15.013318393281837"><ele>274.0</ele><time>2026-03-29T10:07:33.999Z</time></trkpt><trkpt lat="40.28667760394673" lon="15.013357853387786"><ele>274.0</ele><time>2026-03-29T10:07:34.999Z</time></trkpt><trkpt lat="40.28659164842796" lon="15.01337011260869"><ele>274.0</ele><time>2026-03-29T10:07:35.999Z</time></trkpt><trkpt lat="40.28651599543792" lon="15.01338427140816"><ele>274.0</ele><time>2026-03-29T10:07:36.999Z</time></trkpt><trkpt lat="40.28645041090272" lon="15.013459326819723"><ele>275.2</ele><time>2026-03-29T10:07:37.999Z</time></trkpt><trkpt lat="40.28642265854792" lon="15.013583746485324"><ele>276.4</ele><time>2026-03-29T10:07:38.999Z</time></trkpt><trkpt lat="40.28638131631168" lon="15.013709751204203"><ele>277.6</ele><time>2026-03-29T10:07:39.999Z</time></trkpt><trkpt lat="40.286352369978026" lon="15.013844152513318"><ele>278.8</ele><time>2026-03-29T10:07:40.999Z</time></trkpt><trkpt lat="40.286340035095854" lon="15.013980712994915"><ele>280.0</ele><time>2026-03-29T10:07:41.999Z</time></trkpt><trkpt lat="40.28631187683883" lon="15.014113929822095"><ele>282.66666666666663</ele><time>2026-03-29T10:07:42.999Z</time></trkpt><trkpt lat="40.286270260398574" lon="15.01424309257539"><ele>285.3333333333333</ele><time>2026-03-29T10:07:43.999Z</time></trkpt><trkpt lat="40.286261928600176" lon="15.014360541256448"><ele>288.0</ele><time>2026-03-29T10:07:44.999Z</time></trkpt><trkpt lat="40.28623235390005" lon="15.014442438727597"><ele>290.6666666666667</ele><time>2026-03-29T10:07:45.999Z</time></trkpt><trkpt lat="40.28621102799292" lon="15.014533871676253"><ele>293.33333333333337</ele><time>2026-03-29T10:07:46.999Z</time></trkpt><trkpt lat="40.28619791798522" lon="15.01463265929209"><ele>296.0</ele><time>2026-03-29T10:07:47.999Z</time></trkpt><trkpt lat="40.28616032908682" lon="15.014713091922285"><ele>296.0</ele><time>2026-03-29T10:07:48.999Z</time></trkpt><trkpt lat="40.28610339100479" lon="15.014768353440557"><ele>296.0</ele><time>2026-03-29T10:07:49.999Z</time></trkpt><trkpt lat="40.28602415686798" lon="15.014807018820937"><ele>296.0</ele><time>2026-03-29T10:07:50.999Z</time></trkpt><trkpt lat="40.28593082256346" lon="15.014821866781089"><ele>296.0</ele><time>2026-03-29T10:07:51.999Z</time></trkpt><trkpt lat="40.285837268929264" lon="15.014858746030162"><ele>296.0</ele><time>2026-03-29T10:07:52.999Z</time></trkpt><trkpt lat="40.28573551159226" lon="15.014920714685655"><ele>296.0</ele><time>2026-03-29T10:07:53.999Z</time></trkpt><trkpt lat="40.28562335240272" lon="15.014964378958897"><ele>296.0</ele><time>2026-03-29T10:07:54.999Z</time></trkpt><trkpt lat="40.28551240065427" lon="15.014997544196184"><ele>296.0</ele><time>2026-03-29T10:07:55.999Z</time></trkpt><trkpt lat="40.28540073596918" lon="15.015032584896836"><ele>296.0</ele><time>2026-03-29T10:07:56.999Z</time></trkpt><trkpt lat="40.28529078952883" lon="15.01504828196076"><ele>297.2</ele><time>2026-03-29T10:07:57.999Z</time></trkpt><trkpt lat="40.28520121580644" lon="15.015053520525319"><ele>298.40000000000003</ele><time>2026-03-29T10:07:58.999Z</time></trkpt><trkpt lat="40.28513005498513" lon="15.01498785380358"><ele>299.6</ele><time>2026-03-29T10:08:00Z</time></trkpt><trkpt lat="40.28505792135441" lon="15.014969309120174"><ele>300.8</ele><time>2026-03-29T10:08:01Z</time></trkpt><trkpt lat="40.284958611595044" lon="15.01497409051566"><ele>302.0</ele><time>2026-03-29T10:08:03Z</time></trkpt><trkpt lat="40.285000285280965" lon="15.015150898469399"><ele>304.83333333333337</ele><time>2026-03-29T10:08:06Z</time></trkpt><trkpt lat="40.285058926002606" lon="15.015194100484926"><ele>307.6666666666667</ele><time>2026-03-29T10:08:07Z</time></trkpt><trkpt lat="40.285123146842565" lon="15.015255077199305"><ele>310.5</ele><time>2026-03-29T10:08:08Z</time></trkpt><trkpt lat="40.28520326132542" lon="15.015313403928932"><ele>313.3333333333333</ele><time>2026-03-29T10:08:09Z</time></trkpt><trkpt lat="40.285280908528314" lon="15.015359914783714"><ele>316.16666666666663</ele><time>2026-03-29T10:08:10Z</time></trkpt><trkpt lat="40.28535880787201" lon="15.015402113093447"><ele>319.0</ele><time>2026-03-29T10:08:11Z</time></trkpt><trkpt lat="40.285436978403936" lon="15.015452530903032"><ele>319.0</ele><time>2026-03-29T10:08:12Z</time></trkpt><trkpt lat="40.285502206839126" lon="15.015503864551391"><ele>319.0</ele><time>2026-03-29T10:08:13Z</time></trkpt><trkpt lat="40.28554025251242" lon="15.015570577265118"><ele>319.0</ele><time>2026-03-29T10:08:14Z</time></trkpt><trkpt lat="40.2855458441579" lon="15.015660015984318"><ele>319.0</ele><time>2026-03-29T10:08:15Z</time></trkpt><trkpt lat="40.28551727444254" lon="15.01574766180421"><ele>319.0</ele><time>2026-03-29T10:08:16Z</time></trkpt><trkpt lat="40.28544143139641" lon="15.015806150938545"><ele>319.0</ele><time>2026-03-29T10:08:17Z</time></trkpt><trkpt lat="40.28539568070728" lon="15.015921502597168"><ele>322.6</ele><time>2026-03-29T10:08:18Z</time></trkpt><trkpt lat="40.28535443336149" lon="15.01604267083292"><ele>326.2</ele><time>2026-03-29T10:08:19Z</time></trkpt><trkpt lat="40.28534066003728" lon="15.016185126377307"><ele>329.8</ele><time>2026-03-29T10:08:20Z</time></trkpt><trkpt lat="40.28532892822529" lon="15.016322155267364"><ele>333.40000000000003</ele><time>2026-03-29T10:08:21Z</time></trkpt><trkpt lat="40.28529139448058" lon="15.016448120208976"><ele>337.0</ele><time>2026-03-29T10:08:22Z</time></trkpt><trkpt lat="40.28526465795967" lon="15.016571699447844"><ele>338.8333333333333</ele><time>2026-03-29T10:08:23Z</time></trkpt><trkpt lat="40.28523296044202" lon="15.016668220855976"><ele>340.66666666666663</ele><time>2026-03-29T10:08:24Z</time></trkpt><trkpt lat="40.28519412983494" lon="15.016762416093556"><ele>342.5</ele><time>2026-03-29T10:08:25Z</time></trkpt><trkpt lat="40.28513130537065" lon="15.016830113831077"><ele>344.3333333333333</ele><time>2026-03-29T10:08:26Z</time></trkpt><trkpt lat="40.28505133377126" lon="15.016880409633591"><ele>346.1666666666667</ele><time>2026-03-29T10:08:27Z</time></trkpt><trkpt lat="40.28495630266515" lon="15.016943440489785"><ele>348.0</ele><time>2026-03-29T10:08:28Z</time></trkpt><trkpt lat="40.2848570223889" lon="15.017012339825499"><ele>348.0</ele><time>2026-03-29T10:08:29Z</time></trkpt><trkpt lat="40.28476655513836" lon="15.017127697241392"><ele>348.0</ele><time>2026-03-29T10:08:30Z</time></trkpt><trkpt lat="40.284704144753796" lon="15.017229326666925"><ele>348.0</ele><time>2026-03-29T10:08:31Z</time></trkpt><trkpt lat="40.28468630065634" lon="15.017341438354327"><ele>348.0</ele><time>2026-03-29T10:08:32Z</time></trkpt><trkpt lat="40.284624520030206" lon="15.017447250484791"><ele>348.0</ele><time>2026-03-29T10:08:34Z</time></trkpt><trkpt lat="40.28456849646021" lon="15.017349139687203"><ele>350.4</ele><time>2026-03-29T10:08:37Z</time></trkpt><trkpt lat="40.28462410259323" lon="15.017183029748903"><ele>352.79999999999995</ele><time>2026-03-29T10:08:39Z</time></trkpt><trkpt lat="40.284668136174616" lon="15.017081393063274"><ele>355.2</ele><time>2026-03-29T10:08:40Z</time></trkpt><trkpt lat="40.284703709585855" lon="15.016970690549776"><ele>357.6</ele><time>2026-03-29T10:08:41Z</time></trkpt><trkpt lat="40.28471926890346" lon="15.016873285245435"><ele>360.0</ele><time>2026-03-29T10:08:42Z</time></trkpt><trkpt lat="40.284705968945275" lon="15.016781755458553"><ele>360.0</ele><time>2026-03-29T10:08:43Z</time></trkpt><trkpt lat="40.28458251150081" lon="15.016702831237852"><ele>360.0</ele><time>2026-03-29T10:08:45Z</time></trkpt><trkpt lat="40.2845021757048" lon="15.01671542651212"><ele>360.0</ele><time>2026-03-29T10:08:46Z</time></trkpt><trkpt lat="40.284407618366" lon="15.016734192182641"><ele>360.0</ele><time>2026-03-29T10:08:47Z</time></trkpt><trkpt lat="40.28431669054381" lon="15.016751072990896"><ele>360.0</ele><time>2026-03-29T10:08:48Z</time></trkpt><trkpt lat="40.28424364951142" lon="15.01680923042456"><ele>360.0</ele><time>2026-03-29T10:08:49Z</time></trkpt><trkpt lat="40.28417036901308" lon="15.016893353186223"><ele>360.0</ele><time>2026-03-29T10:08:50Z</time></trkpt><trkpt lat="40.28410653804689" lon="15.01698860158877"><ele>360.0</ele><time>2026-03-29T10:08:51Z</time></trkpt><trkpt lat="40.28403372330248" lon="15.017074733888162"><ele>360.0</ele><time>2026-03-29T10:08:52Z</time></trkpt><trkpt lat="40.283975870960525" lon="15.01718630801059"><ele>360.0</ele><time>2026-03-29T10:08:53Z</time></trkpt><trkpt lat="40.28393213643401" lon="15.017306263766734"><ele>357.75</ele><time>2026-03-29T10:08:54Z</time></trkpt><trkpt lat="40.283892649471916" lon="15.017429922259463"><ele>355.5</ele><time>2026-03-29T10:08:55Z</time></trkpt><trkpt lat="40.28386652929054" lon="15.017576167094644"><ele>353.25</ele><time>2026-03-29T10:08:56Z</time></trkpt><trkpt lat="40.28381470088135" lon="15.01771632699808"><ele>351.0</ele><time>2026-03-29T10:08:57Z</time></trkpt><trkpt lat="40.283780180579335" lon="15.017862120200817"><ele>351.0</ele><time>2026-03-29T10:08:58Z</time></trkpt><trkpt lat="40.28374136456488" lon="15.017999078673787"><ele>351.0</ele><time>2026-03-29T10:08:59Z</time></trkpt><trkpt lat="40.28370136972651" lon="15.018107184124764"><ele>351.0</ele><time>2026-03-29T10:09:00Z</time></trkpt><trkpt lat="40.28367680114771" lon="15.018221757963888"><ele>351.0</ele><time>2026-03-29T10:09:01Z</time></trkpt><trkpt lat="40.28362790591493" lon="15.01833034361504"><ele>351.0</ele><time>2026-03-29T10:09:02Z</time></trkpt><trkpt lat="40.283592077869386" lon="15.01846486464449"><ele>354.0</ele><time>2026-03-29T10:09:03Z</time></trkpt><trkpt lat="40.28356448614299" lon="15.01860841743131"><ele>357.0</ele><time>2026-03-29T10:09:04Z</time></trkpt><trkpt lat="40.28353489764047" lon="15.018742048460284"><ele>360.0</ele><time>2026-03-29T10:09:05Z</time></trkpt><trkpt lat="40.283472509741564" lon="15.018859962343273"><ele>363.0</ele><time>2026-03-29T10:09:06Z</time></trkpt><trkpt lat="40.28341672799445" lon="15.018992370925028"><ele>366.0</ele><time>2026-03-29T10:09:07Z</time></trkpt><trkpt lat="40.283365447799405" lon="15.019110564662636"><ele>368.0</ele><time>2026-03-29T10:09:08Z</time></trkpt><trkpt lat="40.28330945403312" lon="15.019221765974628"><ele>370.0</ele><time>2026-03-29T10:09:09Z</time></trkpt><trkpt lat="40.28324566611547" lon="15.019330743987732"><ele>372.0</ele><time>2026-03-29T10:09:10Z</time></trkpt><trkpt lat="40.283183475451544" lon="15.019435182113016"><ele>374.0</ele><time>2026-03-29T10:09:11Z</time></trkpt><trkpt lat="40.28313781366555" lon="15.019520063702732"><ele>376.0</ele><time>2026-03-29T10:09:12Z</time></trkpt><trkpt lat="40.28309883222598" lon="15.01959381999762"><ele>375.5</ele><time>2026-03-29T10:09:13Z</time></trkpt><trkpt lat="40.28305562509588" lon="15.019691699941312"><ele>375.0</ele><time>2026-03-29T10:09:14Z</time></trkpt><trkpt lat="40.28302036007908" lon="15.019791062017658"><ele>374.5</ele><time>2026-03-29T10:09:15Z</time></trkpt><trkpt lat="40.28299153211108" lon="15.01988773095083"><ele>374.0</ele><time>2026-03-29T10:09:16Z</time></trkpt><trkpt lat="40.28298089839924" lon="15.019987747488033"><ele>373.5</ele><time>2026-03-29T10:09:17Z</time></trkpt><trkpt lat="40.28293894975638" lon="15.020121273053045"><ele>373.0</ele><time>2026-03-29T10:09:19Z</time></trkpt><trkpt lat="40.282917838831345" lon="15.020223462831915"><ele>373.0</ele><time>2026-03-29T10:09:21Z</time></trkpt><trkpt lat="40.2828848900918" lon="15.020358013285627"><ele>373.0</ele><time>2026-03-29T10:09:23.001Z</time></trkpt><trkpt lat="40.282857588876176" lon="15.020494945062605"><ele>373.0</ele><time>2026-03-29T10:09:25.001Z</time></trkpt><trkpt lat="40.28282359443692" lon="15.020636556604718"><ele>373.0</ele><time>2026-03-29T10:09:27.001Z</time></trkpt><trkpt lat="40.28280866568009" lon="15.020720405247738"><ele>373.0</ele><time>2026-03-29T10:09:28.001Z</time></trkpt><trkpt lat="40.28279191960311" lon="15.020814461028394"><ele>375.2</ele><time>2026-03-29T10:09:29.001Z</time></trkpt><trkpt lat="40.28277281917305" lon="15.020921740222736"><ele>377.4</ele><time>2026-03-29T10:09:30.001Z</time></trkpt><trkpt lat="40.28275405023222" lon="15.021027157548284"><ele>379.59999999999997</ele><time>2026-03-29T10:09:31.001Z</time></trkpt><trkpt lat="40.28273230250584" lon="15.02114930555581"><ele>381.79999999999995</ele><time>2026-03-29T10:09:32.001Z</time></trkpt><trkpt lat="40.28271412068252" lon="15.02127542308244"><ele>384.0</ele><time>2026-03-29T10:09:33.001Z</time></trkpt><trkpt lat="40.28268792462901" lon="15.021393761018462"><ele>384.0</ele><time>2026-03-29T10:09:34.001Z</time></trkpt><trkpt lat="40.28266374301288" lon="15.021533325388386"><ele>384.0</ele><time>2026-03-29T10:09:35.001Z</time></trkpt><trkpt lat="40.28264254111789" lon="15.021669168278015"><ele>384.0</ele><time>2026-03-29T10:09:36.001Z</time></trkpt><trkpt lat="40.28261686652323" lon="15.02181054205194"><ele>384.0</ele><time>2026-03-29T10:09:37.001Z</time></trkpt><trkpt lat="40.28258928538435" lon="15.021950464179044"><ele>384.0</ele><time>2026-03-29T10:09:37.999Z</time></trkpt><trkpt lat="40.28256580486162" lon="15.022081300313127"><ele>384.79999999999995</ele><time>2026-03-29T10:09:38.999Z</time></trkpt><trkpt lat="40.28254146011996" lon="15.022211303216908"><ele>385.59999999999997</ele><time>2026-03-29T10:09:39.999Z</time></trkpt><trkpt lat="40.28251383552492" lon="15.022351279662102"><ele>386.4</ele><time>2026-03-29T10:09:40.999Z</time></trkpt><trkpt lat="40.2824887521077" lon="15.022490690170795"><ele>387.2</ele><time>2026-03-29T10:09:41.999Z</time></trkpt><trkpt lat="40.282460415558695" lon="15.022624841963628"><ele>388.0</ele><time>2026-03-29T10:09:42.999Z</time></trkpt><trkpt lat="40.28242442234134" lon="15.022762985638426"><ele>388.59999999999997</ele><time>2026-03-29T10:09:43.999Z</time></trkpt><trkpt lat="40.282385076343914" lon="15.02290376124051"><ele>389.2</ele><time>2026-03-29T10:09:44.999Z</time></trkpt><trkpt lat="40.28235506571995" lon="15.023024835234716"><ele>389.8</ele><time>2026-03-29T10:09:45.999Z</time></trkpt><trkpt lat="40.2823269768389" lon="15.023152542878108"><ele>390.4</ele><time>2026-03-29T10:09:46.999Z</time></trkpt><trkpt lat="40.282297222474384" lon="15.023248191733906"><ele>391.0</ele><time>2026-03-29T10:09:48Z</time></trkpt><trkpt lat="40.282277468628415" lon="15.023352287054342"><ele>391.4</ele><time>2026-03-29T10:09:49Z</time></trkpt><trkpt lat="40.282256081061085" lon="15.023448100907139"><ele>391.8</ele><time>2026-03-29T10:09:50Z</time></trkpt><trkpt lat="40.28222555787282" lon="15.02357748306705"><ele>392.2</ele><time>2026-03-29T10:09:52Z</time></trkpt><trkpt lat="40.28223100934313" lon="15.023741302097095"><ele>392.59999999999997</ele><time>2026-03-29T10:09:54Z</time></trkpt><trkpt lat="40.28226630951798" lon="15.02390307691663"><ele>393.0</ele><time>2026-03-29T10:09:56Z</time></trkpt><trkpt lat="40.282274777490244" lon="15.023987078218276"><ele>393.4</ele><time>2026-03-29T10:09:57Z</time></trkpt><trkpt lat="40.282284495746644" lon="15.024073117249308"><ele>393.79999999999995</ele><time>2026-03-29T10:09:58Z</time></trkpt><trkpt lat="40.28230800798088" lon="15.02422844000266"><ele>394.2</ele><time>2026-03-29T10:10:00Z</time></trkpt><trkpt lat="40.28234513975467" lon="15.024397826661888"><ele>394.6</ele><time>2026-03-29T10:10:02Z</time></trkpt><trkpt lat="40.282357062810334" lon="15.024488212924156"><ele>395.0</ele><time>2026-03-29T10:10:03Z</time></trkpt><trkpt lat="40.28236129012562" lon="15.024584643578109"><ele>396.66666666666663</ele><time>2026-03-29T10:10:04Z</time></trkpt><trkpt lat="40.282361286356426" lon="15.024677968028625"><ele>398.3333333333333</ele><time>2026-03-29T10:10:05Z</time></trkpt><trkpt lat="40.28235298658409" lon="15.024798055117031"><ele>400.0</ele><time>2026-03-29T10:10:07Z</time></trkpt><trkpt lat="40.28236184349826" lon="15.024699477325067"><ele>401.66666666666663</ele><time>2026-03-29T10:10:33Z</time></trkpt><trkpt lat="40.2823551899644" lon="15.0246057112209"><ele>403.3333333333333</ele><time>2026-03-29T10:10:35Z</time></trkpt><trkpt lat="40.28233583813623" lon="15.024519263669198"><ele>405.0</ele><time>2026-03-29T10:10:36Z</time></trkpt><trkpt lat="40.282320538876675" lon="15.024427838766046"><ele>405.0</ele><time>2026-03-29T10:10:37Z</time></trkpt><trkpt lat="40.282325869662145" lon="15.024296275713628"><ele>405.0</ele><time>2026-03-29T10:10:39Z</time></trkpt><trkpt lat="40.28231363206847" lon="15.024160781855471"><ele>405.0</ele><time>2026-03-29T10:10:41Z</time></trkpt><trkpt lat="40.282285644072225" lon="15.02407531735889"><ele>405.0</ele><time>2026-03-29T10:10:42Z</time></trkpt><trkpt lat="40.282276347016065" lon="15.023987060824327"><ele>405.0</ele><time>2026-03-29T10:10:43Z</time></trkpt><trkpt lat="40.2822502671622" lon="15.023834951762652"><ele>403.0</ele><time>2026-03-29T10:10:45Z</time></trkpt><trkpt lat="40.28225079047522" lon="15.023739009029047"><ele>401.0</ele><time>2026-03-29T10:10:47Z</time></trkpt><trkpt lat="40.28222243787531" lon="15.0236502143607"><ele>399.0</ele><time>2026-03-29T10:10:49Z</time></trkpt><trkpt lat="40.28211947799989" lon="15.023615386625007"><ele>397.0</ele><time>2026-03-29T10:10:53Z</time></trkpt><trkpt lat="40.28203100194957" lon="15.023645118683596"><ele>395.0</ele><time>2026-03-29T10:10:56Z</time></trkpt><trkpt lat="40.28195414699656" lon="15.023698688660982"><ele>393.0</ele><time>2026-03-29T10:11:38.001Z</time></trkpt><trkpt lat="40.282039653585045" lon="15.023652227809132"><ele>393.0</ele><time>2026-03-29T10:11:48Z</time></trkpt><trkpt lat="40.282110297111714" lon="15.023643237252141"><ele>393.0</ele><time>2026-03-29T10:11:49Z</time></trkpt><trkpt lat="40.28218785657911" lon="15.023641468442465"><ele>393.0</ele><time>2026-03-29T10:11:51Z</time></trkpt><trkpt lat="40.28210624046126" lon="15.023615146765327"><ele>393.0</ele><time>2026-03-29T10:12:01Z</time></trkpt><trkpt lat="40.28203591373851" lon="15.02362701057802"><ele>393.0</ele><time>2026-03-29T10:12:03Z</time></trkpt><trkpt lat="40.28197491342001" lon="15.023668686418963"><ele>393.0</ele><time>2026-03-29T10:12:07Z</time></trkpt><trkpt lat="40.28192288243621" lon="15.023774696831001"><ele>393.0</ele><time>2026-03-29T10:13:32.001Z</time></trkpt><trkpt lat="40.28184526841085" lon="15.023869438114728"><ele>393.0</ele><time>2026-03-29T10:13:34.001Z</time></trkpt><trkpt lat="40.281758108052905" lon="15.023976270780945"><ele>393.0</ele><time>2026-03-29T10:13:36.001Z</time></trkpt><trkpt lat="40.28174044852525" lon="15.024070759760049"><ele>393.0</ele><time>2026-03-29T10:13:37.001Z</time></trkpt><trkpt lat="40.28173098209919" lon="15.024166505403677"><ele>393.0</ele><time>2026-03-29T10:13:38.001Z</time></trkpt><trkpt lat="40.28171165284744" lon="15.024246977335476"><ele>393.0</ele><time>2026-03-29T10:13:39.001Z</time></trkpt><trkpt lat="40.281742770348245" lon="15.024355601612335"><ele>394.1666666666667</ele><time>2026-03-29T10:13:40.001Z</time></trkpt><trkpt lat="40.28176202631256" lon="15.02445631359804"><ele>395.33333333333337</ele><time>2026-03-29T10:13:41.001Z</time></trkpt><trkpt lat="40.28178902217225" lon="15.024559745110752"><ele>396.5</ele><time>2026-03-29T10:13:42.001Z</time></trkpt><trkpt lat="40.28181617157552" lon="15.024659903468217"><ele>397.6666666666667</ele><time>2026-03-29T10:13:43.001Z</time></trkpt><trkpt lat="40.28180729366046" lon="15.02477221190177"><ele>398.83333333333337</ele><time>2026-03-29T10:13:44.001Z</time></trkpt><trkpt lat="40.28180737651742" lon="15.024868243657316"><ele>400.0</ele><time>2026-03-29T10:13:45.001Z</time></trkpt><trkpt lat="40.281801797135934" lon="15.024960455699231"><ele>401.50000000000006</ele><time>2026-03-29T10:13:46.001Z</time></trkpt><trkpt lat="40.28176234999767" lon="15.025051033475613"><ele>403.0</ele><time>2026-03-29T10:13:47.001Z</time></trkpt><trkpt lat="40.28172526813203" lon="15.025127794057775"><ele>404.5</ele><time>2026-03-29T10:13:48.001Z</time></trkpt><trkpt lat="40.28166675345991" lon="15.025201230641601"><ele>406.0</ele><time>2026-03-29T10:13:49.001Z</time></trkpt><trkpt lat="40.28162505565359" lon="15.025293881743458"><ele>407.50000000000006</ele><time>2026-03-29T10:13:50.002Z</time></trkpt><trkpt lat="40.28157364493484" lon="15.025398962829115"><ele>409.0</ele><time>2026-03-29T10:13:51.002Z</time></trkpt><trkpt lat="40.2815433216632" lon="15.025501588587995"><ele>409.0</ele><time>2026-03-29T10:13:52.002Z</time></trkpt><trkpt lat="40.28150741073819" lon="15.025610978540454"><ele>409.0</ele><time>2026-03-29T10:13:53.002Z</time></trkpt><trkpt lat="40.28149702353687" lon="15.025741168141302"><ele>409.0</ele><time>2026-03-29T10:13:54.002Z</time></trkpt><trkpt lat="40.281478691928555" lon="15.025864113960473"><ele>409.0</ele><time>2026-03-29T10:13:55.002Z</time></trkpt><trkpt lat="40.28145590211661" lon="15.025978724488978"><ele>409.0</ele><time>2026-03-29T10:13:56.002Z</time></trkpt><trkpt lat="40.281419223619984" lon="15.026095904663777"><ele>407.79999999999995</ele><time>2026-03-29T10:13:57.002Z</time></trkpt><trkpt lat="40.28136683026684" lon="15.026206507455347"><ele>406.59999999999997</ele><time>2026-03-29T10:13:58.001Z</time></trkpt><trkpt lat="40.28129940051419" lon="15.026311765408039"><ele>405.4</ele><time>2026-03-29T10:13:59.001Z</time></trkpt><trkpt lat="40.281218882289735" lon="15.026407456410135"><ele>404.2</ele><time>2026-03-29T10:14:00.001Z</time></trkpt><trkpt lat="40.28113462359834" lon="15.02648195695477"><ele>403.0</ele><time>2026-03-29T10:14:01.001Z</time></trkpt><trkpt lat="40.28103788661588" lon="15.026545043889914"><ele>403.0</ele><time>2026-03-29T10:14:02.001Z</time></trkpt><trkpt lat="40.280933003705115" lon="15.02659998710809"><ele>403.0</ele><time>2026-03-29T10:14:03.001Z</time></trkpt><trkpt lat="40.28083175825935" lon="15.02666493458281"><ele>403.0</ele><time>2026-03-29T10:14:04.001Z</time></trkpt><trkpt lat="40.28072343833639" lon="15.026712683947043"><ele>403.0</ele><time>2026-03-29T10:14:05.001Z</time></trkpt><trkpt lat="40.28061105967445" lon="15.026741998433685"><ele>406.0</ele><time>2026-03-29T10:14:06.001Z</time></trkpt><trkpt lat="40.28050037707895" lon="15.02678491868879"><ele>409.0</ele><time>2026-03-29T10:14:07.001Z</time></trkpt><trkpt lat="40.280406086065675" lon="15.026840111855307"><ele>412.0</ele><time>2026-03-29T10:14:08.001Z</time></trkpt><trkpt lat="40.28032099272214" lon="15.026860827997291"><ele>415.0</ele><time>2026-03-29T10:14:09.001Z</time></trkpt><trkpt lat="40.28025496804584" lon="15.02690626055893"><ele>418.0</ele><time>2026-03-29T10:14:10.001Z</time></trkpt><trkpt lat="40.28018173084339" lon="15.026991722177746"><ele>418.0</ele><time>2026-03-29T10:14:11.001Z</time></trkpt><trkpt lat="40.28011540196807" lon="15.027098677683366"><ele>418.0</ele><time>2026-03-29T10:14:12.001Z</time></trkpt><trkpt lat="40.28003828298874" lon="15.027226231046518"><ele>418.0</ele><time>2026-03-29T10:14:13.001Z</time></trkpt><trkpt lat="40.279953020221996" lon="15.027337821928977"><ele>418.0</ele><time>2026-03-29T10:14:14.001Z</time></trkpt><trkpt lat="40.2798811830473" lon="15.02744541086744"><ele>418.4</ele><time>2026-03-29T10:14:15.001Z</time></trkpt><trkpt lat="40.27979725445635" lon="15.027525094043812"><ele>418.79999999999995</ele><time>2026-03-29T10:14:16.001Z</time></trkpt><trkpt lat="40.27972112904038" lon="15.027628968744866"><ele>419.2</ele><time>2026-03-29T10:14:17.001Z</time></trkpt><trkpt lat="40.279623450172565" lon="15.027710246623126"><ele>419.6</ele><time>2026-03-29T10:14:18.001Z</time></trkpt><trkpt lat="40.27953623658102" lon="15.02779022715155"><ele>420.0</ele><time>2026-03-29T10:14:19.001Z</time></trkpt><trkpt lat="40.27946664121356" lon="15.027863160200702"><ele>420.0</ele><time>2026-03-29T10:14:20.001Z</time></trkpt><trkpt lat="40.27940423839131" lon="15.027934865462447"><ele>420.0</ele><time>2026-03-29T10:14:21.001Z</time></trkpt><trkpt lat="40.27934514074422" lon="15.028010837945212"><ele>420.0</ele><time>2026-03-29T10:14:22.001Z</time></trkpt><trkpt lat="40.27927920516548" lon="15.028097198500873"><ele>420.0</ele><time>2026-03-29T10:14:23.001Z</time></trkpt><trkpt lat="40.27923145332999" lon="15.02820718769139"><ele>420.0</ele><time>2026-03-29T10:14:24.001Z</time></trkpt><trkpt lat="40.27919612520003" lon="15.028330937290557"><ele>424.0</ele><time>2026-03-29T10:14:25.001Z</time></trkpt><trkpt lat="40.27916741418042" lon="15.028478179251694"><ele>428.0</ele><time>2026-03-29T10:14:26.001Z</time></trkpt><trkpt lat="40.27912798522818" lon="15.028621158176447"><ele>432.0</ele><time>2026-03-29T10:14:27.001Z</time></trkpt><trkpt lat="40.279082576481976" lon="15.028750389890288"><ele>436.0</ele><time>2026-03-29T10:14:28.001Z</time></trkpt><trkpt lat="40.279019021877495" lon="15.028886477146772"><ele>436.0</ele><time>2026-03-29T10:14:29.001Z</time></trkpt><trkpt lat="40.27896320612146" lon="15.029017929678938"><ele>436.0</ele><time>2026-03-29T10:14:30.001Z</time></trkpt><trkpt lat="40.278923543775164" lon="15.029163158070592"><ele>436.0</ele><time>2026-03-29T10:14:31.001Z</time></trkpt><trkpt lat="40.27887335663902" lon="15.029290471639916"><ele>436.0</ele><time>2026-03-29T10:14:32.001Z</time></trkpt><trkpt lat="40.27882666156168" lon="15.029420057009716"><ele>436.4</ele><time>2026-03-29T10:14:33.001Z</time></trkpt><trkpt lat="40.27877741539858" lon="15.029552022469337"><ele>436.8</ele><time>2026-03-29T10:14:34.001Z</time></trkpt><trkpt lat="40.27873727078966" lon="15.029681249301483"><ele>437.19999999999993</ele><time>2026-03-29T10:14:35.001Z</time></trkpt><trkpt lat="40.278691920726914" lon="15.029801032865494"><ele>437.59999999999997</ele><time>2026-03-29T10:14:36.001Z</time></trkpt><trkpt lat="40.27862756634487" lon="15.029912187189872"><ele>438.0</ele><time>2026-03-29T10:14:37.001Z</time></trkpt><trkpt lat="40.27853538673644" lon="15.02998276569263"><ele>438.0</ele><time>2026-03-29T10:14:38.001Z</time></trkpt><trkpt lat="40.27847069670406" lon="15.030075491120286"><ele>437.99999999999994</ele><time>2026-03-29T10:14:39.001Z</time></trkpt><trkpt lat="40.278405322829656" lon="15.030171893448202"><ele>437.99999999999994</ele><time>2026-03-29T10:14:40.001Z</time></trkpt><trkpt lat="40.27837226024562" lon="15.030278835191721"><ele>438.0</ele><time>2026-03-29T10:14:41.001Z</time></trkpt><trkpt lat="40.27833905050747" lon="15.03039236522829"><ele>438.0</ele><time>2026-03-29T10:14:42.001Z</time></trkpt><trkpt lat="40.27829885236575" lon="15.030500681558062"><ele>438.0</ele><time>2026-03-29T10:14:43.001Z</time></trkpt><trkpt lat="40.278252528078916" lon="15.030606249158573"><ele>437.99999999999994</ele><time>2026-03-29T10:14:44.001Z</time></trkpt><trkpt lat="40.278168774305094" lon="15.030681796907706"><ele>437.99999999999994</ele><time>2026-03-29T10:14:45.001Z</time></trkpt><trkpt lat="40.27808656982289" lon="15.030783478316543"><ele>438.0</ele><time>2026-03-29T10:14:46.001Z</time></trkpt><trkpt lat="40.27802806866097" lon="15.03090355521861"><ele>438.0</ele><time>2026-03-29T10:14:47.001Z</time></trkpt><trkpt lat="40.277983463058845" lon="15.030988266609368"><ele>436.4</ele><time>2026-03-29T10:14:48.001Z</time></trkpt><trkpt lat="40.27793079629718" lon="15.03110381136863"><ele>434.79999999999995</ele><time>2026-03-29T10:14:49.001Z</time></trkpt><trkpt lat="40.2778908240628" lon="15.031192063553695"><ele>433.2</ele><time>2026-03-29T10:14:50.001Z</time></trkpt><trkpt lat="40.277844391733474" lon="15.031326308562218"><ele>431.6</ele><time>2026-03-29T10:14:51.001Z</time></trkpt><trkpt lat="40.27784914463221" lon="15.031434605879747"><ele>430.0</ele><time>2026-03-29T10:14:52.001Z</time></trkpt><trkpt lat="40.277865933752985" lon="15.031577038452209"><ele>433.1666666666667</ele><time>2026-03-29T10:14:53.001Z</time></trkpt><trkpt lat="40.277883433063295" lon="15.031705479273114"><ele>436.33333333333337</ele><time>2026-03-29T10:14:54.001Z</time></trkpt><trkpt lat="40.27789167156979" lon="15.031817879080817"><ele>439.5</ele><time>2026-03-29T10:14:55.001Z</time></trkpt><trkpt lat="40.277900681800574" lon="15.031907212986976"><ele>442.66666666666663</ele><time>2026-03-29T10:14:56.001Z</time></trkpt><trkpt lat="40.27784982210847" lon="15.032024901068336"><ele>445.8333333333333</ele><time>2026-03-29T10:14:58.001Z</time></trkpt><trkpt lat="40.27778653824271" lon="15.032060850584607"><ele>449.0</ele><time>2026-03-29T10:14:59.001Z</time></trkpt><trkpt lat="40.27771807904072" lon="15.032068172818402"><ele>449.0</ele><time>2026-03-29T10:15:00.001Z</time></trkpt><trkpt lat="40.27765248718743" lon="15.032061263355844"><ele>448.99999999999994</ele><time>2026-03-29T10:15:01.001Z</time></trkpt><trkpt lat="40.27756544820465" lon="15.032050434277552"><ele>449.0</ele><time>2026-03-29T10:15:02.001Z</time></trkpt><trkpt lat="40.27748116098065" lon="15.032037284026254"><ele>449.0</ele><time>2026-03-29T10:15:03.001Z</time></trkpt><trkpt lat="40.27740648343763" lon="15.032041042670196"><ele>448.99999999999994</ele><time>2026-03-29T10:15:04.001Z</time></trkpt><trkpt lat="40.277345550501096" lon="15.032076352252941"><ele>449.0</ele><time>2026-03-29T10:15:05.001Z</time></trkpt><trkpt lat="40.2772956944731" lon="15.032139262589002"><ele>449.0</ele><time>2026-03-29T10:15:06.001Z</time></trkpt><trkpt lat="40.27727456746919" lon="15.032220053197028"><ele>449.8333333333333</ele><time>2026-03-29T10:15:07.001Z</time></trkpt><trkpt lat="40.277258561237545" lon="15.032321575794759"><ele>450.66666666666663</ele><time>2026-03-29T10:15:08.001Z</time></trkpt><trkpt lat="40.277260548625875" lon="15.032430159181944"><ele>451.5</ele><time>2026-03-29T10:15:09.001Z</time></trkpt><trkpt lat="40.27726311504013" lon="15.032541063493172"><ele>452.33333333333337</ele><time>2026-03-29T10:15:10.001Z</time></trkpt><trkpt lat="40.27725283413911" lon="15.03264829373251"><ele>453.1666666666667</ele><time>2026-03-29T10:15:11.001Z</time></trkpt><trkpt lat="40.27722698442033" lon="15.032736832820822"><ele>454.0</ele><time>2026-03-29T10:15:12.001Z</time></trkpt><trkpt lat="40.27719155783931" lon="15.032835119275337"><ele>454.00000000000006</ele><time>2026-03-29T10:15:13.001Z</time></trkpt><trkpt lat="40.27715507012542" lon="15.03293527048371"><ele>454.0</ele><time>2026-03-29T10:15:14.001Z</time></trkpt><trkpt lat="40.27711198101772" lon="15.033040565225015"><ele>454.0</ele><time>2026-03-29T10:15:15.001Z</time></trkpt><trkpt lat="40.277067913774076" lon="15.033130288917775"><ele>454.0</ele><time>2026-03-29T10:15:16.001Z</time></trkpt><trkpt lat="40.277008873048786" lon="15.03322858733908"><ele>454.00000000000006</ele><time>2026-03-29T10:15:17.001Z</time></trkpt><trkpt lat="40.276947531179324" lon="15.033313165069455"><ele>454.0</ele><time>2026-03-29T10:15:18.001Z</time></trkpt><trkpt lat="40.27687883955541" lon="15.033385337420484"><ele>457.6666666666667</ele><time>2026-03-29T10:15:19.001Z</time></trkpt><trkpt lat="40.27680280812337" lon="15.033453287804642"><ele>461.33333333333337</ele><time>2026-03-29T10:15:20.001Z</time></trkpt><trkpt lat="40.27672004973408" lon="15.033516545664002"><ele>465.0</ele><time>2026-03-29T10:15:21.001Z</time></trkpt><trkpt lat="40.27664860142517" lon="15.033577517862092"><ele>468.66666666666663</ele><time>2026-03-29T10:15:22.001Z</time></trkpt><trkpt lat="40.276584234023645" lon="15.033657861063615"><ele>472.3333333333333</ele><time>2026-03-29T10:15:23.001Z</time></trkpt><trkpt lat="40.276519835900075" lon="15.033731522220318"><ele>476.0</ele><time>2026-03-29T10:15:24.001Z</time></trkpt><trkpt lat="40.27643205610513" lon="15.033814370060055"><ele>475.99999999999994</ele><time>2026-03-29T10:15:26.001Z</time></trkpt><trkpt lat="40.276335260907025" lon="15.03385836915546"><ele>476.0</ele><time>2026-03-29T10:15:28.001Z</time></trkpt><trkpt lat="40.2762373397082" lon="15.033907421008532"><ele>476.0</ele><time>2026-03-29T10:15:30.001Z</time></trkpt><trkpt lat="40.276174031843965" lon="15.033932764700024"><ele>476.0</ele><time>2026-03-29T10:15:31.001Z</time></trkpt><trkpt lat="40.27610247184343" lon="15.03394622364929"><ele>475.99999999999994</ele><time>2026-03-29T10:15:32.001Z</time></trkpt><trkpt lat="40.27603322154718" lon="15.033953416927293"><ele>476.0</ele><time>2026-03-29T10:15:33.001Z</time></trkpt><trkpt lat="40.27591275856139" lon="15.033958885511929"><ele>476.0</ele><time>2026-03-29T10:15:35.001Z</time></trkpt><trkpt lat="40.27582597833364" lon="15.034010627592432"><ele>476.0</ele><time>2026-03-29T10:15:37.001Z</time></trkpt><trkpt lat="40.275797729610446" lon="15.03411560892281"><ele>476.0</ele><time>2026-03-29T10:15:39.001Z</time></trkpt><trkpt lat="40.27587352660303" lon="15.034216919776581"><ele>476.0</ele><time>2026-03-29T10:15:41.001Z</time></trkpt><trkpt lat="40.27597416239559" lon="15.034237732293935"><ele>476.0</ele><time>2026-03-29T10:15:43.001Z</time></trkpt><trkpt lat="40.27608720129409" lon="15.03425564152442"><ele>479.6</ele><time>2026-03-29T10:15:45.001Z</time></trkpt><trkpt lat="40.27617534413132" lon="15.034278250356193"><ele>483.20000000000005</ele><time>2026-03-29T10:15:47.001Z</time></trkpt><trkpt lat="40.276238835209405" lon="15.03435207627508"><ele>486.79999999999995</ele><time>2026-03-29T10:15:53.001Z</time></trkpt><trkpt lat="40.276166482534556" lon="15.034448268184809"><ele>490.4</ele><time>2026-03-29T10:15:55.001Z</time></trkpt><trkpt lat="40.27609561479397" lon="15.034435443405377"><ele>494.0</ele><time>2026-03-29T10:15:56.999Z</time></trkpt><trkpt lat="40.275985511352154" lon="15.03450023824222"><ele>494.0</ele><time>2026-03-29T10:15:58.999Z</time></trkpt><trkpt lat="40.27592276077004" lon="15.034512613249383"><ele>494.0</ele><time>2026-03-29T10:15:59.999Z</time></trkpt><trkpt lat="40.275811528135975" lon="15.034578914583983"><ele>494.0</ele><time>2026-03-29T10:16:01.999Z</time></trkpt><trkpt lat="40.27570622370444" lon="15.034618947167772"><ele>494.0</ele><time>2026-03-29T10:16:03.999Z</time></trkpt><trkpt lat="40.27561495938944" lon="15.03464545334368"><ele>494.0</ele><time>2026-03-29T10:16:05.999Z</time></trkpt><trkpt lat="40.27552053617187" lon="15.034543653579519"><ele>496.2</ele><time>2026-03-29T10:16:10.999Z</time></trkpt><trkpt lat="40.27547189494114" lon="15.034484192953565"><ele>498.4</ele><time>2026-03-29T10:16:11.999Z</time></trkpt><trkpt lat="40.2754066742158" lon="15.03437492229785"><ele>500.6</ele><time>2026-03-29T10:16:13.999Z</time></trkpt><trkpt lat="40.27533042850654" lon="15.03430834210267"><ele>502.8</ele><time>2026-03-29T10:16:15.999Z</time></trkpt><trkpt lat="40.27521146865691" lon="15.034298237871921"><ele>505.0</ele><time>2026-03-29T10:16:17.999Z</time></trkpt><trkpt lat="40.275156018552636" lon="15.034354368501909"><ele>505.00000000000006</ele><time>2026-03-29T10:16:18.999Z</time></trkpt><trkpt lat="40.275093005034236" lon="15.034408343411766"><ele>505.0</ele><time>2026-03-29T10:16:19.999Z</time></trkpt><trkpt lat="40.27503715615252" lon="15.03447798134112"><ele>505.0</ele><time>2026-03-29T10:16:20.999Z</time></trkpt><trkpt lat="40.274982222849445" lon="15.034552800520894"><ele>505.0</ele><time>2026-03-29T10:16:21.999Z</time></trkpt><trkpt lat="40.27492778408172" lon="15.034622119073314"><ele>505.00000000000006</ele><time>2026-03-29T10:16:22.999Z</time></trkpt><trkpt lat="40.27484485175184" lon="15.034726158714635"><ele>505.0</ele><time>2026-03-29T10:16:24.999Z</time></trkpt><trkpt lat="40.27478599431547" lon="15.034756829295295"><ele>503.33333333333337</ele><time>2026-03-29T10:16:25.999Z</time></trkpt><trkpt lat="40.27471095465418" lon="15.034782227354194"><ele>501.6666666666667</ele><time>2026-03-29T10:16:26.999Z</time></trkpt><trkpt lat="40.27463773755344" lon="15.034831581508588"><ele>500.0</ele><time>2026-03-29T10:16:27.999Z</time></trkpt><trkpt lat="40.27455489066258" lon="15.034874318106638"><ele>498.33333333333337</ele><time>2026-03-29T10:16:28.999Z</time></trkpt><trkpt lat="40.27447527263896" lon="15.034919503101854"><ele>496.6666666666667</ele><time>2026-03-29T10:16:29.999Z</time></trkpt><trkpt lat="40.27441203416477" lon="15.034960721039928"><ele>495.0</ele><time>2026-03-29T10:16:30.999Z</time></trkpt><trkpt lat="40.274295796403216" lon="15.035006318147833"><ele>498.0</ele><time>2026-03-29T10:16:32.999Z</time></trkpt><trkpt lat="40.27418439021489" lon="15.035066642579038"><ele>501.0</ele><time>2026-03-29T10:16:35Z</time></trkpt><trkpt lat="40.2741372468485" lon="15.035144459758085"><ele>504.0</ele><time>2026-03-29T10:16:36Z</time></trkpt><trkpt lat="40.27409177660354" lon="15.035219151970994"><ele>507.0</ele><time>2026-03-29T10:16:37Z</time></trkpt><trkpt lat="40.274029545136415" lon="15.035280259753003"><ele>510.0</ele><time>2026-03-29T10:16:38Z</time></trkpt><trkpt lat="40.27397923247841" lon="15.035345664960666"><ele>513.0</ele><time>2026-03-29T10:16:39Z</time></trkpt><trkpt lat="40.2738969240637" lon="15.035478133988551"><ele>513.0</ele><time>2026-03-29T10:16:41Z</time></trkpt><trkpt lat="40.273852187059916" lon="15.035538765320483"><ele>513.0</ele><time>2026-03-29T10:16:42Z</time></trkpt><trkpt lat="40.273796097688965" lon="15.035625040665337"><ele>513.0</ele><time>2026-03-29T10:16:43Z</time></trkpt><trkpt lat="40.27371533817573" lon="15.035719436498383"><ele>513.0</ele><time>2026-03-29T10:16:45Z</time></trkpt><trkpt lat="40.27362171167899" lon="15.035762744923604"><ele>513.0</ele><time>2026-03-29T10:16:47Z</time></trkpt><trkpt lat="40.27355498463697" lon="15.035736163561843"><ele>513.0</ele><time>2026-03-29T10:16:48Z</time></trkpt><trkpt lat="40.27343901308824" lon="15.035776856555016"><ele>514.3333333333334</ele><time>2026-03-29T10:16:50Z</time></trkpt><trkpt lat="40.27337602398694" lon="15.035804719353713"><ele>515.6666666666666</ele><time>2026-03-29T10:16:51Z</time></trkpt><trkpt lat="40.27332264192123" lon="15.035850035771173"><ele>517.0</ele><time>2026-03-29T10:16:52Z</time></trkpt><trkpt lat="40.273253040957584" lon="15.035949975410524"><ele>518.3333333333333</ele><time>2026-03-29T10:16:54Z</time></trkpt><trkpt lat="40.273183784760576" lon="15.03601115005657"><ele>519.6666666666666</ele><time>2026-03-29T10:16:56Z</time></trkpt><trkpt lat="40.27312326496841" lon="15.036077681527177"><ele>521.0</ele><time>2026-03-29T10:16:59Z</time></trkpt><trkpt lat="40.27306216505915" lon="15.036151846534251"><ele>521.0</ele><time>2026-03-29T10:17:11Z</time></trkpt><trkpt lat="40.273020025640896" lon="15.03625024978572"><ele>521.0</ele><time>2026-03-29T10:17:13Z</time></trkpt><trkpt lat="40.27298477902853" lon="15.036371739243101"><ele>521.0</ele><time>2026-03-29T10:17:15Z</time></trkpt><trkpt lat="40.27302033522793" lon="15.036461922681388"><ele>521.0</ele><time>2026-03-29T10:17:17Z</time></trkpt><trkpt lat="40.27310786294756" lon="15.036496157622889"><ele>521.0</ele><time>2026-03-29T10:17:19Z</time></trkpt><trkpt lat="40.27324789439689" lon="15.036437478242213"><ele>522.4</ele><time>2026-03-29T10:17:22Z</time></trkpt><trkpt lat="40.27335314643639" lon="15.036406323759413"><ele>523.8</ele><time>2026-03-29T10:17:24Z</time></trkpt><trkpt lat="40.27346152139457" lon="15.036400022997698"><ele>525.1999999999999</ele><time>2026-03-29T10:17:26Z</time></trkpt><trkpt lat="40.27357859451085" lon="15.036424312305265"><ele>526.6</ele><time>2026-03-29T10:17:28Z</time></trkpt><trkpt lat="40.27367161415985" lon="15.036496009959334"><ele>528.0</ele><time>2026-03-29T10:17:30Z</time></trkpt><trkpt lat="40.2736996983362" lon="15.036594149670128"><ele>529.8333333333334</ele><time>2026-03-29T10:17:32Z</time></trkpt><trkpt lat="40.2737274081719" lon="15.036725739250203"><ele>531.6666666666666</ele><time>2026-03-29T10:17:34Z</time></trkpt><trkpt lat="40.273771684190805" lon="15.036836056089767"><ele>533.5</ele><time>2026-03-29T10:17:36Z</time></trkpt><trkpt lat="40.27386541479042" lon="15.036872095965673"><ele>535.3333333333333</ele><time>2026-03-29T10:17:38Z</time></trkpt><trkpt lat="40.273931805915154" lon="15.036862987523147"><ele>537.1666666666666</ele><time>2026-03-29T10:17:39Z</time></trkpt><trkpt lat="40.27399543966395" lon="15.036835478232526"><ele>539.0</ele><time>2026-03-29T10:17:40Z</time></trkpt><trkpt lat="40.27408023818884" lon="15.036735603310497"><ele>540.4</ele><time>2026-03-29T10:17:42Z</time></trkpt><trkpt lat="40.274152977523116" lon="15.0366448652762"><ele>541.8</ele><time>2026-03-29T10:17:44Z</time></trkpt><trkpt lat="40.2742387971016" lon="15.036558999359892"><ele>543.2</ele><time>2026-03-29T10:17:46Z</time></trkpt><trkpt lat="40.27431701336827" lon="15.036544524691164"><ele>544.6</ele><time>2026-03-29T10:17:48Z</time></trkpt><trkpt lat="40.274351041007485" lon="15.036643052587104"><ele>546.0</ele><time>2026-03-29T10:17:50Z</time></trkpt><trkpt lat="40.27428710964427" lon="15.036744461837944"><ele>546.0</ele><time>2026-03-29T10:17:52Z</time></trkpt><trkpt lat="40.27423525172963" lon="15.036817478132281"><ele>546.0</ele><time>2026-03-29T10:17:53Z</time></trkpt><trkpt lat="40.27419728093027" lon="15.036893833381617"><ele>546.0</ele><time>2026-03-29T10:17:54Z</time></trkpt><trkpt lat="40.27411786063179" lon="15.036999099045012"><ele>546.0</ele><time>2026-03-29T10:17:56Z</time></trkpt><trkpt lat="40.27401530101972" lon="15.037030746161372"><ele>546.0</ele><time>2026-03-29T10:17:58Z</time></trkpt><trkpt lat="40.273954676872094" lon="15.037097729991032"><ele>546.0</ele><time>2026-03-29T10:18:00Z</time></trkpt><trkpt lat="40.273926439771046" lon="15.037209083572705"><ele>546.0</ele><time>2026-03-29T10:18:01.999Z</time></trkpt><trkpt lat="40.27398131328032" lon="15.037278688423566"><ele>546.0</ele><time>2026-03-29T10:18:02.999Z</time></trkpt><trkpt lat="40.27406454626844" lon="15.03728950432224"><ele>546.0</ele><time>2026-03-29T10:18:03.999Z</time></trkpt><trkpt lat="40.2741382286493" lon="15.037287811219102"><ele>546.0</ele><time>2026-03-29T10:18:04.999Z</time></trkpt><trkpt lat="40.27421429130038" lon="15.0372904357427"><ele>546.0</ele><time>2026-03-29T10:18:05.999Z</time></trkpt><trkpt lat="40.27433980656143" lon="15.037303352583873"><ele>546.0</ele><time>2026-03-29T10:18:07.999Z</time></trkpt><trkpt lat="40.27441203906191" lon="15.037304446406308"><ele>546.0</ele><time>2026-03-29T10:18:08.999Z</time></trkpt><trkpt lat="40.274486071130305" lon="15.037295989920786"><ele>546.0</ele><time>2026-03-29T10:18:09.999Z</time></trkpt><trkpt lat="40.274549184429034" lon="15.037280228739506"><ele>546.0</ele><time>2026-03-29T10:18:10.999Z</time></trkpt><trkpt lat="40.2746121358136" lon="15.03724833211291"><ele>546.0</ele><time>2026-03-29T10:18:11.999Z</time></trkpt><trkpt lat="40.274726792612235" lon="15.037184234699303"><ele>546.0</ele><time>2026-03-29T10:18:13.999Z</time></trkpt><trkpt lat="40.2748091406291" lon="15.03719138439132"><ele>546.0</ele><time>2026-03-29T10:18:15.999Z</time></trkpt><trkpt lat="40.27480132583612" lon="15.03728581252543"><ele>546.0</ele><time>2026-03-29T10:18:17.999Z</time></trkpt><trkpt lat="40.274765290859904" lon="15.037355671898725"><ele>546.0</ele><time>2026-03-29T10:18:19.999Z</time></trkpt><trkpt lat="40.27471002779864" lon="15.037407113397181"><ele>546.0</ele><time>2026-03-29T10:18:20.999Z</time></trkpt><trkpt lat="40.27460899852361" lon="15.037492144953621"><ele>546.0</ele><time>2026-03-29T10:18:22.999Z</time></trkpt><trkpt lat="40.274531454302874" lon="15.037597938898674"><ele>546.0</ele><time>2026-03-29T10:18:24.999Z</time></trkpt><trkpt lat="40.27444041316402" lon="15.037685377598821"><ele>548.8</ele><time>2026-03-29T10:18:27Z</time></trkpt><trkpt lat="40.27439022382857" lon="15.0377639456547"><ele>551.6</ele><time>2026-03-29T10:18:30Z</time></trkpt><trkpt lat="40.274293867318974" lon="15.037835659889772"><ele>554.4</ele><time>2026-03-29T10:18:40Z</time></trkpt><trkpt lat="40.274206099487614" lon="15.037920811909068"><ele>557.2</ele><time>2026-03-29T10:18:42Z</time></trkpt><trkpt lat="40.27411930897117" lon="15.038003062406904"><ele>560.0</ele><time>2026-03-29T10:18:44Z</time></trkpt><trkpt lat="40.274041703334035" lon="15.038082692990145"><ele>560.0</ele><time>2026-03-29T10:18:46Z</time></trkpt><trkpt lat="40.27394981011386" lon="15.038165593030964"><ele>560.0</ele><time>2026-03-29T10:18:48Z</time></trkpt><trkpt lat="40.27388237491506" lon="15.0382376979744"><ele>560.0</ele><time>2026-03-29T10:18:49Z</time></trkpt><trkpt lat="40.27382436695921" lon="15.038307009566639"><ele>560.0</ele><time>2026-03-29T10:18:50Z</time></trkpt><trkpt lat="40.27376369905208" lon="15.038407730720014"><ele>560.0</ele><time>2026-03-29T10:18:52Z</time></trkpt><trkpt lat="40.2737283700704" lon="15.038490230275164"><ele>560.0</ele><time>2026-03-29T10:18:54Z</time></trkpt><trkpt lat="40.273673728934256" lon="15.038615045653975"><ele>561.2</ele><time>2026-03-29T10:18:55Z</time></trkpt><trkpt lat="40.273632283490564" lon="15.03870392508385"><ele>562.4</ele><time>2026-03-29T10:18:56Z</time></trkpt><trkpt lat="40.27357403315428" lon="15.038825337568555"><ele>563.6</ele><time>2026-03-29T10:18:58Z</time></trkpt><trkpt lat="40.27353884978832" lon="15.038969157735169"><ele>564.8</ele><time>2026-03-29T10:19:00Z</time></trkpt><trkpt lat="40.27356916459227" lon="15.039108150915641"><ele>566.0</ele><time>2026-03-29T10:19:02Z</time></trkpt><trkpt lat="40.27365900042124" lon="15.039175941368727"><ele>566.0</ele><time>2026-03-29T10:19:04Z</time></trkpt><trkpt lat="40.27378120537086" lon="15.039154492626334"><ele>566.0</ele><time>2026-03-29T10:19:06Z</time></trkpt><trkpt lat="40.273888802441064" lon="15.039095593913352"><ele>566.0</ele><time>2026-03-29T10:19:08Z</time></trkpt><trkpt lat="40.273971628879515" lon="15.039091059923388"><ele>566.0</ele><time>2026-03-29T10:19:10Z</time></trkpt><trkpt lat="40.27406139965488" lon="15.039073275192083"><ele>566.0</ele><time>2026-03-29T10:19:14Z</time></trkpt><trkpt lat="40.2741446680238" lon="15.039077331368386"><ele>567.1666666666666</ele><time>2026-03-29T10:19:16Z</time></trkpt><trkpt lat="40.27422404280367" lon="15.039082126498302"><ele>568.3333333333333</ele><time>2026-03-29T10:19:18Z</time></trkpt><trkpt lat="40.27432215638252" lon="15.03908503359383"><ele>569.5</ele><time>2026-03-29T10:19:20Z</time></trkpt><trkpt lat="40.274389050281144" lon="15.039072369472745"><ele>570.6666666666666</ele><time>2026-03-29T10:19:21Z</time></trkpt><trkpt lat="40.274454637511546" lon="15.039053366032324"><ele>571.8333333333334</ele><time>2026-03-29T10:19:22Z</time></trkpt><trkpt lat="40.274577804366196" lon="15.039039123074437"><ele>573.0</ele><time>2026-03-29T10:19:24Z</time></trkpt><trkpt lat="40.27464244206012" lon="15.039030291449269"><ele>573.0</ele><time>2026-03-29T10:19:25Z</time></trkpt><trkpt lat="40.27473875403294" lon="15.039031584541933"><ele>573.0</ele><time>2026-03-29T10:19:27Z</time></trkpt><trkpt lat="40.27482509065997" lon="15.039064379096782"><ele>573.0</ele><time>2026-03-29T10:19:29.001Z</time></trkpt><trkpt lat="40.274862077013594" lon="15.03914721016861"><ele>573.0</ele><time>2026-03-29T10:19:31.001Z</time></trkpt><trkpt lat="40.274824988393355" lon="15.039243217423484"><ele>573.0</ele><time>2026-03-29T10:19:35.001Z</time></trkpt><trkpt lat="40.27474738762238" lon="15.039287584835813"><ele>573.0</ele><time>2026-03-29T10:19:38.001Z</time></trkpt><trkpt lat="40.27468919294916" lon="15.039345003121662"><ele>575.5</ele><time>2026-03-29T10:20:24Z</time></trkpt><trkpt lat="40.274616574245165" lon="15.039386948846722"><ele>578.0</ele><time>2026-03-29T10:20:32Z</time></trkpt><trkpt lat="40.274531877151496" lon="15.039444716490065"><ele>580.5</ele><time>2026-03-29T10:20:34Z</time></trkpt><trkpt lat="40.27444556562883" lon="15.039488160175283"><ele>583.0</ele><time>2026-03-29T10:20:36Z</time></trkpt><trkpt lat="40.27438795024891" lon="15.039531400288556"><ele>585.5</ele><time>2026-03-29T10:20:37Z</time></trkpt><trkpt lat="40.27432458734521" lon="15.03956945167883"><ele>588.0</ele><time>2026-03-29T10:20:38Z</time></trkpt><trkpt lat="40.274258041999495" lon="15.039613348519946"><ele>588.0</ele><time>2026-03-29T10:20:39Z</time></trkpt><trkpt lat="40.27420171909966" lon="15.039664709378433"><ele>588.0</ele><time>2026-03-29T10:20:40Z</time></trkpt><trkpt lat="40.27414748390366" lon="15.039722427108785"><ele>588.0</ele><time>2026-03-29T10:20:41Z</time></trkpt><trkpt lat="40.27407857933937" lon="15.039806632454766"><ele>588.0</ele><time>2026-03-29T10:20:42Z</time></trkpt><trkpt lat="40.274025826941575" lon="15.039900367730347"><ele>588.0</ele><time>2026-03-29T10:20:43Z</time></trkpt><trkpt lat="40.273986591503736" lon="15.040010262312308"><ele>588.0</ele><time>2026-03-29T10:20:44Z</time></trkpt><trkpt lat="40.273955334625796" lon="15.040115807446124"><ele>588.8</ele><time>2026-03-29T10:20:45Z</time></trkpt><trkpt lat="40.27394178138244" lon="15.040243081305546"><ele>589.5999999999999</ele><time>2026-03-29T10:20:46Z</time></trkpt><trkpt lat="40.2739549090432" lon="15.04037930179883"><ele>590.4000000000001</ele><time>2026-03-29T10:20:47Z</time></trkpt><trkpt lat="40.27396277187215" lon="15.040488192263856"><ele>591.2</ele><time>2026-03-29T10:20:48Z</time></trkpt><trkpt lat="40.273940537753106" lon="15.040623758534522"><ele>592.0</ele><time>2026-03-29T10:20:50.001Z</time></trkpt><trkpt lat="40.27392015611985" lon="15.040704181577546"><ele>592.0</ele><time>2026-03-29T10:20:51.001Z</time></trkpt><trkpt lat="40.27383783024886" lon="15.04072678811446"><ele>592.0</ele><time>2026-03-29T10:20:52.001Z</time></trkpt><trkpt lat="40.27377189648509" lon="15.040781775038079"><ele>592.0</ele><time>2026-03-29T10:20:53.001Z</time></trkpt><trkpt lat="40.273697163784874" lon="15.040835629246674"><ele>592.0</ele><time>2026-03-29T10:20:54.001Z</time></trkpt><trkpt lat="40.27362609212753" lon="15.040883212486957"><ele>592.0</ele><time>2026-03-29T10:20:55.001Z</time></trkpt><trkpt lat="40.27352201637465" lon="15.040951083392997"><ele>592.0</ele><time>2026-03-29T10:20:57.001Z</time></trkpt><trkpt lat="40.27345082635293" lon="15.0409975088313"><ele>594.0</ele><time>2026-03-29T10:20:59.001Z</time></trkpt><trkpt lat="40.27350041409003" lon="15.041160235426323"><ele>596.0</ele><time>2026-03-29T10:21:01.001Z</time></trkpt><trkpt lat="40.273539425217194" lon="15.04129590032644"><ele>598.0</ele><time>2026-03-29T10:21:03.001Z</time></trkpt><trkpt lat="40.27363518253139" lon="15.041357388343512"><ele>600.0</ele><time>2026-03-29T10:21:05.001Z</time></trkpt><trkpt lat="40.27369956553255" lon="15.041344478350153"><ele>602.0</ele><time>2026-03-29T10:21:06.001Z</time></trkpt><trkpt lat="40.273767446314174" lon="15.04130934460705"><ele>602.0</ele><time>2026-03-29T10:21:07.001Z</time></trkpt><trkpt lat="40.27383616763538" lon="15.041271395758852"><ele>602.0</ele><time>2026-03-29T10:21:08.001Z</time></trkpt><trkpt lat="40.27389135454474" lon="15.041216119998042"><ele>602.0</ele><time>2026-03-29T10:21:09.001Z</time></trkpt><trkpt lat="40.273936336868736" lon="15.0411482217262"><ele>602.0</ele><time>2026-03-29T10:21:10.001Z</time></trkpt><trkpt lat="40.2740142916161" lon="15.041052426055005"><ele>602.0</ele><time>2026-03-29T10:21:12.001Z</time></trkpt><trkpt lat="40.27412922725261" lon="15.041061547346501"><ele>602.0</ele><time>2026-03-29T10:21:14.001Z</time></trkpt><trkpt lat="40.27419478339319" lon="15.041168795054652"><ele>603.4285714285714</ele><time>2026-03-29T10:21:16.001Z</time></trkpt><trkpt lat="40.27422133957611" lon="15.041250323889683"><ele>604.8571428571429</ele><time>2026-03-29T10:21:17.001Z</time></trkpt><trkpt lat="40.27424570355021" lon="15.041342603531415"><ele>606.2857142857142</ele><time>2026-03-29T10:21:18.001Z</time></trkpt><trkpt lat="40.27426757786971" lon="15.041423010288556"><ele>607.7142857142858</ele><time>2026-03-29T10:21:19.001Z</time></trkpt><trkpt lat="40.274294926840675" lon="15.041501391576341"><ele>609.1428571428571</ele><time>2026-03-29T10:21:21.001Z</time></trkpt><trkpt lat="40.27438591246669" lon="15.041458779446902"><ele>610.5714285714286</ele><time>2026-03-29T10:21:22.001Z</time></trkpt><trkpt lat="40.274442978098676" lon="15.041412017460312"><ele>612.0</ele><time>2026-03-29T10:21:23.001Z</time></trkpt><trkpt lat="40.27449941088242" lon="15.041361959911182"><ele>612.0</ele><time>2026-03-29T10:21:24.001Z</time></trkpt><trkpt lat="40.27456458346717" lon="15.041305687316722"><ele>612.0</ele><time>2026-03-29T10:21:25.001Z</time></trkpt><trkpt lat="40.27462690236159" lon="15.04125709445831"><ele>612.0</ele><time>2026-03-29T10:21:26.001Z</time></trkpt><trkpt lat="40.2746966326307" lon="15.041207239698716"><ele>612.0</ele><time>2026-03-29T10:21:27.001Z</time></trkpt><trkpt lat="40.2747641990831" lon="15.041153722979661"><ele>612.0</ele><time>2026-03-29T10:21:28.001Z</time></trkpt><trkpt lat="40.274832196667575" lon="15.041096281899543"><ele>612.0</ele><time>2026-03-29T10:21:29.001Z</time></trkpt><trkpt lat="40.27490874186949" lon="15.041036762230826"><ele>613.2</ele><time>2026-03-29T10:21:30.001Z</time></trkpt><trkpt lat="40.2749884578982" lon="15.040981679086784"><ele>614.4000000000001</ele><time>2026-03-29T10:21:31.001Z</time></trkpt><trkpt lat="40.27506883652345" lon="15.04093033039263"><ele>615.5999999999999</ele><time>2026-03-29T10:21:32.001Z</time></trkpt><trkpt lat="40.27515402495491" lon="15.040874941776377"><ele>616.8</ele><time>2026-03-29T10:21:33.001Z</time></trkpt><trkpt lat="40.27523294985317" lon="15.04082849256907"><ele>618.0</ele><time>2026-03-29T10:21:34.001Z</time></trkpt><trkpt lat="40.275326958150885" lon="15.04078936946497"><ele>618.0</ele><time>2026-03-29T10:21:35.001Z</time></trkpt><trkpt lat="40.27541710048147" lon="15.040759500445052"><ele>618.0</ele><time>2026-03-29T10:21:36.001Z</time></trkpt><trkpt lat="40.27551007138722" lon="15.040740621441985"><ele>618.0</ele><time>2026-03-29T10:21:37.001Z</time></trkpt><trkpt lat="40.27558760958051" lon="15.04072663517482"><ele>618.0</ele><time>2026-03-29T10:21:38.001Z</time></trkpt><trkpt lat="40.27568016343673" lon="15.040714574800992"><ele>618.0</ele><time>2026-03-29T10:21:39.001Z</time></trkpt><trkpt lat="40.275764292208066" lon="15.040700373432191"><ele>618.0</ele><time>2026-03-29T10:21:40.001Z</time></trkpt><trkpt lat="40.2758586088128" lon="15.040693710787338"><ele>620.1999999999999</ele><time>2026-03-29T10:21:41.001Z</time></trkpt><trkpt lat="40.275943813983915" lon="15.040678280059502"><ele>622.4</ele><time>2026-03-29T10:21:42.001Z</time></trkpt><trkpt lat="40.27604620372358" lon="15.04064464699754"><ele>624.5999999999999</ele><time>2026-03-29T10:21:43.001Z</time></trkpt><trkpt lat="40.2761478772107" lon="15.040607718835775"><ele>626.8</ele><time>2026-03-29T10:21:44.001Z</time></trkpt><trkpt lat="40.2762354153566" lon="15.040568389403882"><ele>629.0</ele><time>2026-03-29T10:21:45.001Z</time></trkpt><trkpt lat="40.27632350534564" lon="15.040558979714145"><ele>629.0</ele><time>2026-03-29T10:21:46.001Z</time></trkpt><trkpt lat="40.276411372449125" lon="15.040553381308165"><ele>629.0</ele><time>2026-03-29T10:21:47.001Z</time></trkpt><trkpt lat="40.27649998523877" lon="15.040580335794356"><ele>629.0</ele><time>2026-03-29T10:21:48.001Z</time></trkpt><trkpt lat="40.276583053288356" lon="15.040618733976366"><ele>629.0</ele><time>2026-03-29T10:21:49.001Z</time></trkpt><trkpt lat="40.27666447819821" lon="15.040652233299564"><ele>629.0</ele><time>2026-03-29T10:21:50.001Z</time></trkpt><trkpt lat="40.27675388281081" lon="15.040663430983296"><ele>629.0</ele><time>2026-03-29T10:21:51.001Z</time></trkpt><trkpt lat="40.27683870764351" lon="15.040648317172796"><ele>631.5</ele><time>2026-03-29T10:21:52.001Z</time></trkpt><trkpt lat="40.27691248399553" lon="15.040626720477134"><ele>634.0</ele><time>2026-03-29T10:21:53.001Z</time></trkpt><trkpt lat="40.276970039025" lon="15.040586212937262"><ele>636.5</ele><time>2026-03-29T10:21:54.001Z</time></trkpt><trkpt lat="40.27702470462713" lon="15.040526803077382"><ele>639.0</ele><time>2026-03-29T10:21:55.001Z</time></trkpt><trkpt lat="40.27709730044237" lon="15.040457365563068"><ele>641.5</ele><time>2026-03-29T10:21:56.001Z</time></trkpt><trkpt lat="40.277165011724094" lon="15.040382212512183"><ele>644.0</ele><time>2026-03-29T10:21:57.001Z</time></trkpt><trkpt lat="40.27723765170584" lon="15.040311366709359"><ele>645.2</ele><time>2026-03-29T10:21:58.001Z</time></trkpt><trkpt lat="40.27730731422252" lon="15.040251147085062"><ele>646.4000000000001</ele><time>2026-03-29T10:21:59.001Z</time></trkpt><trkpt lat="40.27738745349977" lon="15.04018008809318"><ele>647.6</ele><time>2026-03-29T10:22:00.001Z</time></trkpt><trkpt lat="40.27747776306535" lon="15.040136287023614"><ele>648.8</ele><time>2026-03-29T10:22:01.001Z</time></trkpt><trkpt lat="40.277569454959526" lon="15.040089993123395"><ele>650.0</ele><time>2026-03-29T10:22:02.001Z</time></trkpt><trkpt lat="40.277679067213235" lon="15.040052293227872"><ele>650.0</ele><time>2026-03-29T10:22:03.001Z</time></trkpt><trkpt lat="40.27778047853017" lon="15.040018607493861"><ele>650.0</ele><time>2026-03-29T10:22:04.001Z</time></trkpt><trkpt lat="40.27786941555111" lon="15.039998872432655"><ele>650.0</ele><time>2026-03-29T10:22:05.001Z</time></trkpt><trkpt lat="40.27795918204511" lon="15.0399758675295"><ele>650.0</ele><time>2026-03-29T10:22:06.002Z</time></trkpt><trkpt lat="40.278057267181744" lon="15.039978786664308"><ele>650.0</ele><time>2026-03-29T10:22:07.002Z</time></trkpt><trkpt lat="40.27815542828843" lon="15.039954571944858"><ele>647.4</ele><time>2026-03-29T10:22:08.002Z</time></trkpt><trkpt lat="40.27825260272085" lon="15.03995129956904"><ele>644.8</ele><time>2026-03-29T10:22:09.002Z</time></trkpt><trkpt lat="40.278352381584206" lon="15.039958513133831"><ele>642.2</ele><time>2026-03-29T10:22:10.002Z</time></trkpt><trkpt lat="40.278454258491294" lon="15.039956727041268"><ele>639.6</ele><time>2026-03-29T10:22:11.002Z</time></trkpt><trkpt lat="40.27856295701824" lon="15.03995104447897"><ele>637.0</ele><time>2026-03-29T10:22:12.002Z</time></trkpt><trkpt lat="40.27865765398562" lon="15.039943638854274"><ele>637.0</ele><time>2026-03-29T10:22:13.002Z</time></trkpt><trkpt lat="40.278773004683856" lon="15.039913317708487"><ele>637.0</ele><time>2026-03-29T10:22:14.001Z</time></trkpt><trkpt lat="40.27887826830199" lon="15.0398730315551"><ele>637.0</ele><time>2026-03-29T10:22:15.001Z</time></trkpt><trkpt lat="40.278988526684984" lon="15.039849939709026"><ele>637.0</ele><time>2026-03-29T10:22:16.001Z</time></trkpt><trkpt lat="40.279082659092715" lon="15.039773136388321"><ele>638.0</ele><time>2026-03-29T10:22:17.001Z</time></trkpt><trkpt lat="40.27916626003463" lon="15.039705132914989"><ele>639.0</ele><time>2026-03-29T10:22:18.001Z</time></trkpt><trkpt lat="40.27925826453332" lon="15.039647090875448"><ele>640.0</ele><time>2026-03-29T10:22:19.001Z</time></trkpt><trkpt lat="40.279345222713935" lon="15.039561669859683"><ele>641.0</ele><time>2026-03-29T10:22:20.001Z</time></trkpt><trkpt lat="40.27943397836677" lon="15.039473357248161"><ele>642.0</ele><time>2026-03-29T10:22:21.001Z</time></trkpt><trkpt lat="40.2795245082546" lon="15.03937277930843"><ele>642.0</ele><time>2026-03-29T10:22:22.001Z</time></trkpt><trkpt lat="40.27961274329702" lon="15.039274806988212"><ele>642.0</ele><time>2026-03-29T10:22:23.001Z</time></trkpt><trkpt lat="40.279692586084764" lon="15.039180135244225"><ele>642.0</ele><time>2026-03-29T10:22:24.001Z</time></trkpt><trkpt lat="40.27976885792549" lon="15.039086759836328"><ele>642.0</ele><time>2026-03-29T10:22:25.001Z</time></trkpt><trkpt lat="40.27985102344587" lon="15.039003566892921"><ele>642.0</ele><time>2026-03-29T10:22:26.001Z</time></trkpt><trkpt lat="40.27993898764815" lon="15.038927999491884"><ele>642.5</ele><time>2026-03-29T10:22:27.001Z</time></trkpt><trkpt lat="40.280053446652545" lon="15.038872486368904"><ele>643.0</ele><time>2026-03-29T10:22:28.001Z</time></trkpt><trkpt lat="40.28015992725216" lon="15.03883457827178"><ele>643.5</ele><time>2026-03-29T10:22:29.001Z</time></trkpt><trkpt lat="40.28027686620836" lon="15.038798294195589"><ele>644.0</ele><time>2026-03-29T10:22:30.001Z</time></trkpt><trkpt lat="40.28039891005944" lon="15.038786096029437"><ele>644.0</ele><time>2026-03-29T10:22:31.001Z</time></trkpt><trkpt lat="40.28051398121002" lon="15.038789669721373"><ele>644.0</ele><time>2026-03-29T10:22:32.001Z</time></trkpt><trkpt lat="40.28063486971303" lon="15.038793602346674"><ele>644.0</ele><time>2026-03-29T10:22:33.001Z</time></trkpt><trkpt lat="40.28074059639738" lon="15.038812778152018"><ele>644.0</ele><time>2026-03-29T10:22:34.001Z</time></trkpt><trkpt lat="40.280839362020544" lon="15.038833206996436"><ele>644.0</ele><time>2026-03-29T10:22:35.001Z</time></trkpt><trkpt lat="40.28091327169324" lon="15.038830931364643"><ele>645.75</ele><time>2026-03-29T10:22:36.001Z</time></trkpt><trkpt lat="40.28101007985351" lon="15.038842741161366"><ele>647.5</ele><time>2026-03-29T10:22:37.001Z</time></trkpt><trkpt lat="40.28113523102289" lon="15.038841262115383"><ele>649.25</ele><time>2026-03-29T10:22:38.001Z</time></trkpt><trkpt lat="40.28124965142049" lon="15.038877907408708"><ele>651.0</ele><time>2026-03-29T10:22:39.001Z</time></trkpt><trkpt lat="40.2813603618612" lon="15.03891251270142"><ele>650.0</ele><time>2026-03-29T10:22:40.001Z</time></trkpt><trkpt lat="40.28147516532811" lon="15.038945665631145"><ele>649.0</ele><time>2026-03-29T10:22:41.001Z</time></trkpt><trkpt lat="40.28159063991042" lon="15.038987226000646"><ele>648.0</ele><time>2026-03-29T10:22:42.001Z</time></trkpt><trkpt lat="40.28169732881201" lon="15.039023307884984"><ele>647.0</ele><time>2026-03-29T10:22:43.001Z</time></trkpt><trkpt lat="40.28181439111602" lon="15.039060421175744"><ele>647.0</ele><time>2026-03-29T10:22:44.001Z</time></trkpt><trkpt lat="40.28192633910681" lon="15.039111318528526"><ele>647.0</ele><time>2026-03-29T10:22:45.001Z</time></trkpt><trkpt lat="40.282036826623546" lon="15.039149423778158"><ele>647.0</ele><time>2026-03-29T10:22:46.001Z</time></trkpt><trkpt lat="40.282160649553745" lon="15.039180806580138"><ele>647.0</ele><time>2026-03-29T10:22:47.001Z</time></trkpt><trkpt lat="40.28228240492385" lon="15.039195854405273"><ele>648.25</ele><time>2026-03-29T10:22:48.001Z</time></trkpt><trkpt lat="40.28239968697115" lon="15.039199126009327"><ele>649.5</ele><time>2026-03-29T10:22:49.001Z</time></trkpt><trkpt lat="40.28251226532665" lon="15.039210734358875"><ele>650.75</ele><time>2026-03-29T10:22:50.001Z</time></trkpt><trkpt lat="40.282624638086354" lon="15.03920595048405"><ele>652.0</ele><time>2026-03-29T10:22:51.001Z</time></trkpt><trkpt lat="40.28274785526548" lon="15.039208866352247"><ele>652.0</ele><time>2026-03-29T10:22:52.001Z</time></trkpt><trkpt lat="40.28286680761412" lon="15.03925631365656"><ele>652.0</ele><time>2026-03-29T10:22:53.001Z</time></trkpt><trkpt lat="40.28296777182578" lon="15.039294340782243"><ele>652.0</ele><time>2026-03-29T10:22:54.001Z</time></trkpt><trkpt lat="40.28308264810198" lon="15.039327272799618"><ele>652.0</ele><time>2026-03-29T10:22:55.001Z</time></trkpt><trkpt lat="40.28319007297742" lon="15.039387924700724"><ele>650.75</ele><time>2026-03-29T10:22:56.001Z</time></trkpt><trkpt lat="40.283291919654886" lon="15.039468729604007"><ele>649.5</ele><time>2026-03-29T10:22:57.001Z</time></trkpt><trkpt lat="40.283399483199275" lon="15.039567239114456"><ele>648.25</ele><time>2026-03-29T10:22:58.001Z</time></trkpt><trkpt lat="40.28350077178979" lon="15.039659627704536"><ele>647.0</ele><time>2026-03-29T10:22:59.001Z</time></trkpt><trkpt lat="40.28359690940541" lon="15.03974113280733"><ele>647.0</ele><time>2026-03-29T10:23:00.001Z</time></trkpt><trkpt lat="40.28370335837634" lon="15.039814772274502"><ele>647.0</ele><time>2026-03-29T10:23:01.001Z</time></trkpt><trkpt lat="40.28381783885102" lon="15.039871717039995"><ele>647.0</ele><time>2026-03-29T10:23:02.001Z</time></trkpt><trkpt lat="40.28392337381937" lon="15.039914169806437"><ele>647.0</ele><time>2026-03-29T10:23:03.001Z</time></trkpt><trkpt lat="40.284026085400114" lon="15.039946642940238"><ele>647.0</ele><time>2026-03-29T10:23:04.001Z</time></trkpt><trkpt lat="40.28411829755161" lon="15.039965916114726"><ele>647.0</ele><time>2026-03-29T10:23:05.001Z</time></trkpt><trkpt lat="40.284219991953485" lon="15.039968524573549"><ele>647.0</ele><time>2026-03-29T10:23:06.001Z</time></trkpt><trkpt lat="40.28433030708687" lon="15.039993167887577"><ele>647.0</ele><time>2026-03-29T10:23:07.001Z</time></trkpt><trkpt lat="40.28444669839673" lon="15.039991481737975"><ele>647.0</ele><time>2026-03-29T10:23:08.001Z</time></trkpt><trkpt lat="40.284563854730244" lon="15.0400206405841"><ele>647.0</ele><time>2026-03-29T10:23:09.001Z</time></trkpt><trkpt lat="40.28468877837331" lon="15.04006128551393"><ele>647.0</ele><time>2026-03-29T10:23:10.001Z</time></trkpt><trkpt lat="40.28482212329648" lon="15.040108085908207"><ele>647.0</ele><time>2026-03-29T10:23:11.001Z</time></trkpt><trkpt lat="40.28495421068991" lon="15.040168086773079"><ele>647.0</ele><time>2026-03-29T10:23:12.001Z</time></trkpt><trkpt lat="40.28507997203446" lon="15.040214923638363"><ele>647.5</ele><time>2026-03-29T10:23:13.001Z</time></trkpt><trkpt lat="40.28521165689131" lon="15.04026347459242"><ele>648.0</ele><time>2026-03-29T10:23:14.001Z</time></trkpt><trkpt lat="40.28534582672751" lon="15.040318684858093"><ele>648.5</ele><time>2026-03-29T10:23:15.001Z</time></trkpt><trkpt lat="40.28547607474432" lon="15.040379185346879"><ele>649.0</ele><time>2026-03-29T10:23:16.001Z</time></trkpt><trkpt lat="40.28559928374101" lon="15.040447791304683"><ele>649.0</ele><time>2026-03-29T10:23:17.001Z</time></trkpt><trkpt lat="40.28572364328627" lon="15.040525995949595"><ele>649.0</ele><time>2026-03-29T10:23:18.001Z</time></trkpt><trkpt lat="40.28584012659407" lon="15.040606858594003"><ele>649.0</ele><time>2026-03-29T10:23:19.001Z</time></trkpt><trkpt lat="40.28595578363326" lon="15.0406954448461"><ele>649.0</ele><time>2026-03-29T10:23:20.001Z</time></trkpt><trkpt lat="40.286070091706904" lon="15.040781218276114"><ele>648.5</ele><time>2026-03-29T10:23:21.001Z</time></trkpt><trkpt lat="40.2861870654071" lon="15.040858362481925"><ele>648.0</ele><time>2026-03-29T10:23:22.001Z</time></trkpt><trkpt lat="40.28631173321688" lon="15.040923067505295"><ele>647.5</ele><time>2026-03-29T10:23:23.001Z</time></trkpt><trkpt lat="40.286425843294154" lon="15.040964900965337"><ele>647.0</ele><time>2026-03-29T10:23:24.001Z</time></trkpt><trkpt lat="40.28657114539298" lon="15.040998734293643"><ele>649.75</ele><time>2026-03-29T10:23:25.001Z</time></trkpt><trkpt lat="40.28670714404224" lon="15.041016743066763"><ele>652.5</ele><time>2026-03-29T10:23:26.001Z</time></trkpt><trkpt lat="40.286829100784914" lon="15.041024649336464"><ele>655.25</ele><time>2026-03-29T10:23:27.001Z</time></trkpt><trkpt lat="40.286958141880284" lon="15.041004036180922"><ele>658.0</ele><time>2026-03-29T10:23:28.001Z</time></trkpt><trkpt lat="40.28709617340373" lon="15.040985557846781"><ele>658.0</ele><time>2026-03-29T10:23:29.001Z</time></trkpt><trkpt lat="40.28721559597536" lon="15.040975801414302"><ele>658.0</ele><time>2026-03-29T10:23:30.001Z</time></trkpt><trkpt lat="40.287328765691086" lon="15.040964575363411"><ele>658.0</ele><time>2026-03-29T10:23:31.001Z</time></trkpt><trkpt lat="40.28747281581497" lon="15.040939077391382"><ele>658.0</ele><time>2026-03-29T10:23:32.001Z</time></trkpt><trkpt lat="40.28758500095167" lon="15.040913081377617"><ele>658.8</ele><time>2026-03-29T10:23:33.001Z</time></trkpt><trkpt lat="40.287692875580525" lon="15.040888279343035"><ele>659.5999999999999</ele><time>2026-03-29T10:23:34.001Z</time></trkpt><trkpt lat="40.28779462185313" lon="15.04087159642193"><ele>660.4000000000001</ele><time>2026-03-29T10:23:35.001Z</time></trkpt><trkpt lat="40.28788674778013" lon="15.040887461506854"><ele>661.2</ele><time>2026-03-29T10:23:36.001Z</time></trkpt><trkpt lat="40.28796993207851" lon="15.040941030296258"><ele>662.0</ele><time>2026-03-29T10:23:37.001Z</time></trkpt><trkpt lat="40.28805848874937" lon="15.041009359665534"><ele>661.25</ele><time>2026-03-29T10:23:38.001Z</time></trkpt><trkpt lat="40.288158718456565" lon="15.041074871338257"><ele>660.5</ele><time>2026-03-29T10:23:39.001Z</time></trkpt><trkpt lat="40.28826962827468" lon="15.041124873331835"><ele>659.75</ele><time>2026-03-29T10:23:40.001Z</time></trkpt><trkpt lat="40.28838644877967" lon="15.041160509622983"><ele>659.0</ele><time>2026-03-29T10:23:41.001Z</time></trkpt><trkpt lat="40.288497758460714" lon="15.041193699836567"><ele>659.0</ele><time>2026-03-29T10:23:42.001Z</time></trkpt><trkpt lat="40.2886032395757" lon="15.041222369772525"><ele>659.0</ele><time>2026-03-29T10:23:43.001Z</time></trkpt><trkpt lat="40.288710043142906" lon="15.041253951171955"><ele>659.0</ele><time>2026-03-29T10:23:44.001Z</time></trkpt><trkpt lat="40.28882007691026" lon="15.04129176801022"><ele>659.0</ele><time>2026-03-29T10:23:45.001Z</time></trkpt><trkpt lat="40.28892554948691" lon="15.041338842149365"><ele>659.0</ele><time>2026-03-29T10:23:46.001Z</time></trkpt><trkpt lat="40.289014462608584" lon="15.041405860688075"><ele>659.5</ele><time>2026-03-29T10:23:47.001Z</time></trkpt><trkpt lat="40.28909464547018" lon="15.041498503190649"><ele>660.0</ele><time>2026-03-29T10:23:48.001Z</time></trkpt><trkpt lat="40.28917394304274" lon="15.041603551834058"><ele>660.5</ele><time>2026-03-29T10:23:49.001Z</time></trkpt><trkpt lat="40.28925654204494" lon="15.041709733195576"><ele>661.0</ele><time>2026-03-29T10:23:50.001Z</time></trkpt><trkpt lat="40.28934810820761" lon="15.04180521559296"><ele>661.0</ele><time>2026-03-29T10:23:51.001Z</time></trkpt><trkpt lat="40.28945536961644" lon="15.041873687551142"><ele>661.0</ele><time>2026-03-29T10:23:52.001Z</time></trkpt><trkpt lat="40.28956947510785" lon="15.041912732872161"><ele>661.0</ele><time>2026-03-29T10:23:53.001Z</time></trkpt><trkpt lat="40.28966043489354" lon="15.041985896974783"><ele>661.0</ele><time>2026-03-29T10:23:54.001Z</time></trkpt><trkpt lat="40.28974285794098" lon="15.042068928513647"><ele>661.0</ele><time>2026-03-29T10:23:55.001Z</time></trkpt><trkpt lat="40.2898163718154" lon="15.042188455517616"><ele>659.5</ele><time>2026-03-29T10:23:56.001Z</time></trkpt><trkpt lat="40.28988642501218" lon="15.042322742328361"><ele>658.0</ele><time>2026-03-29T10:23:57.001Z</time></trkpt><trkpt lat="40.289954811630615" lon="15.042451643354617"><ele>656.5</ele><time>2026-03-29T10:23:58.001Z</time></trkpt><trkpt lat="40.29001581263169" lon="15.042567082610725"><ele>655.0</ele><time>2026-03-29T10:23:59.001Z</time></trkpt><trkpt lat="40.29006508369037" lon="15.042698606959505"><ele>655.0</ele><time>2026-03-29T10:24:00.001Z</time></trkpt><trkpt lat="40.290098474221445" lon="15.04282779208591"><ele>655.0</ele><time>2026-03-29T10:24:01.001Z</time></trkpt><trkpt lat="40.29011422900482" lon="15.042959614571156"><ele>655.0</ele><time>2026-03-29T10:24:02.001Z</time></trkpt><trkpt lat="40.290137948711475" lon="15.043091603565639"><ele>655.0</ele><time>2026-03-29T10:24:03.001Z</time></trkpt><trkpt lat="40.29018894705219" lon="15.043221129192013"><ele>655.0</ele><time>2026-03-29T10:24:04.001Z</time></trkpt><trkpt lat="40.290260848128646" lon="15.043346730687604"><ele>653.75</ele><time>2026-03-29T10:24:05.001Z</time></trkpt><trkpt lat="40.29035508323175" lon="15.043459451158492"><ele>652.5</ele><time>2026-03-29T10:24:06.001Z</time></trkpt><trkpt lat="40.29046095075768" lon="15.043571548227222"><ele>651.25</ele><time>2026-03-29T10:24:07.001Z</time></trkpt><trkpt lat="40.290557449018465" lon="15.043691361095267"><ele>650.0</ele><time>2026-03-29T10:24:08.002Z</time></trkpt><trkpt lat="40.29065242648978" lon="15.04381057416688"><ele>650.0</ele><time>2026-03-29T10:24:09.001Z</time></trkpt><trkpt lat="40.290733971337374" lon="15.04393552233223"><ele>650.0</ele><time>2026-03-29T10:24:10.001Z</time></trkpt><trkpt lat="40.29081356056099" lon="15.044068768004232"><ele>650.0</ele><time>2026-03-29T10:24:11.002Z</time></trkpt><trkpt lat="40.290896684321915" lon="15.044199961906742"><ele>650.0</ele><time>2026-03-29T10:24:12.002Z</time></trkpt><trkpt lat="40.29098876055094" lon="15.044314353654478"><ele>650.25</ele><time>2026-03-29T10:24:13.002Z</time></trkpt><trkpt lat="40.29108807420662" lon="15.044404778003727"><ele>650.5</ele><time>2026-03-29T10:24:14.002Z</time></trkpt><trkpt lat="40.29119225623241" lon="15.044478433208655"><ele>650.75</ele><time>2026-03-29T10:24:15.002Z</time></trkpt><trkpt lat="40.29129645760604" lon="15.04455502156315"><ele>651.0</ele><time>2026-03-29T10:24:16.002Z</time></trkpt><trkpt lat="40.29140700136024" lon="15.044624746769772"><ele>650.0</ele><time>2026-03-29T10:24:17.002Z</time></trkpt><trkpt lat="40.291493740345" lon="15.044695822936736"><ele>649.0</ele><time>2026-03-29T10:24:18.002Z</time></trkpt><trkpt lat="40.291565934796395" lon="15.044779563006974"><ele>648.0</ele><time>2026-03-29T10:24:19.002Z</time></trkpt><trkpt lat="40.29161959557809" lon="15.044877557848416"><ele>647.0</ele><time>2026-03-29T10:24:20.001Z</time></trkpt><trkpt lat="40.29166292181499" lon="15.044996742705766"><ele>646.0</ele><time>2026-03-29T10:24:21.001Z</time></trkpt><trkpt lat="40.29169784858543" lon="15.045128593272906"><ele>646.0</ele><time>2026-03-29T10:24:22.001Z</time></trkpt><trkpt lat="40.29173091911359" lon="15.045282460480136"><ele>646.0</ele><time>2026-03-29T10:24:23.001Z</time></trkpt><trkpt lat="40.29175101919525" lon="15.045453269833152"><ele>646.0</ele><time>2026-03-29T10:24:24.001Z</time></trkpt><trkpt lat="40.291796570635434" lon="15.045611163551088"><ele>646.0</ele><time>2026-03-29T10:24:25.001Z</time></trkpt><trkpt lat="40.29181660659236" lon="15.045780989506198"><ele>646.0</ele><time>2026-03-29T10:24:26.001Z</time></trkpt><trkpt lat="40.29183193231749" lon="15.045958505262522"><ele>646.0</ele><time>2026-03-29T10:24:27.001Z</time></trkpt><trkpt lat="40.29184725746066" lon="15.046125313362431"><ele>646.0</ele><time>2026-03-29T10:24:28.001Z</time></trkpt><trkpt lat="40.29184456876245" lon="15.046292435014715"><ele>646.0</ele><time>2026-03-29T10:24:29.001Z</time></trkpt><trkpt lat="40.29183745993358" lon="15.046455117487996"><ele>646.0</ele><time>2026-03-29T10:24:30.001Z</time></trkpt><trkpt lat="40.29184578389953" lon="15.046619781816439"><ele>646.0</ele><time>2026-03-29T10:24:31.001Z</time></trkpt><trkpt lat="40.2918653050971" lon="15.046777479100463"><ele>646.0</ele><time>2026-03-29T10:24:32.001Z</time></trkpt><trkpt lat="40.29189512657603" lon="15.046933039172844"><ele>646.0</ele><time>2026-03-29T10:24:33.001Z</time></trkpt><trkpt lat="40.291935570763826" lon="15.04707937377998"><ele>647.25</ele><time>2026-03-29T10:24:34.001Z</time></trkpt><trkpt lat="40.291992125090744" lon="15.047228429000148"><ele>648.5</ele><time>2026-03-29T10:24:35.001Z</time></trkpt><trkpt lat="40.29206355716603" lon="15.047369292499518"><ele>649.75</ele><time>2026-03-29T10:24:36.001Z</time></trkpt><trkpt lat="40.29214354894096" lon="15.04751327494417"><ele>651.0</ele><time>2026-03-29T10:24:37.001Z</time></trkpt><trkpt lat="40.29222981088271" lon="15.047654140858402"><ele>645.75</ele><time>2026-03-29T10:24:38.001Z</time></trkpt><trkpt lat="40.292311417242026" lon="15.0478049053107"><ele>640.5</ele><time>2026-03-29T10:24:39.001Z</time></trkpt><trkpt lat="40.29238119979985" lon="15.047959254556176"><ele>635.25</ele><time>2026-03-29T10:24:40.001Z</time></trkpt><trkpt lat="40.292440474308265" lon="15.048115480232667"><ele>630.0</ele><time>2026-03-29T10:24:41.001Z</time></trkpt><trkpt lat="40.29250388739343" lon="15.048281309350171"><ele>632.75</ele><time>2026-03-29T10:24:42.001Z</time></trkpt><trkpt lat="40.29256471464013" lon="15.048442920184407"><ele>635.5</ele><time>2026-03-29T10:24:43.001Z</time></trkpt><trkpt lat="40.29262319468347" lon="15.04860578338138"><ele>638.25</ele><time>2026-03-29T10:24:44.001Z</time></trkpt><trkpt lat="40.2926875789734" lon="15.048770799847404"><ele>641.0</ele><time>2026-03-29T10:24:45.001Z</time></trkpt><trkpt lat="40.29274675859419" lon="15.04893605843287"><ele>641.0</ele><time>2026-03-29T10:24:46.001Z</time></trkpt><trkpt lat="40.29280649493559" lon="15.049100474300436"><ele>641.0</ele><time>2026-03-29T10:24:47.001Z</time></trkpt><trkpt lat="40.29287414346212" lon="15.049251660980614"><ele>641.0</ele><time>2026-03-29T10:24:48.001Z</time></trkpt><trkpt lat="40.29293047913687" lon="15.049401206754938"><ele>641.0</ele><time>2026-03-29T10:24:49.001Z</time></trkpt><trkpt lat="40.29297672190117" lon="15.049542624379741"><ele>639.5999999999999</ele><time>2026-03-29T10:24:50.001Z</time></trkpt><trkpt lat="40.29302446829039" lon="15.049688817386516"><ele>638.1999999999999</ele><time>2026-03-29T10:24:51.001Z</time></trkpt><trkpt lat="40.293074296379615" lon="15.049817556157643"><ele>636.8</ele><time>2026-03-29T10:24:52.001Z</time></trkpt><trkpt lat="40.29312239199845" lon="15.049940833506138"><ele>635.4</ele><time>2026-03-29T10:24:53.001Z</time></trkpt><trkpt lat="40.29318442364517" lon="15.050051049980363"><ele>634.0</ele><time>2026-03-29T10:24:54.001Z</time></trkpt><trkpt lat="40.29325670853527" lon="15.050157294601883"><ele>634.0</ele><time>2026-03-29T10:24:55.001Z</time></trkpt><trkpt lat="40.29332987363938" lon="15.05024754267928"><ele>634.0</ele><time>2026-03-29T10:24:56.001Z</time></trkpt><trkpt lat="40.29339644502082" lon="15.050339374241878"><ele>634.0</ele><time>2026-03-29T10:24:57.001Z</time></trkpt><trkpt lat="40.29345536187527" lon="15.050460726904394"><ele>634.0</ele><time>2026-03-29T10:24:58.001Z</time></trkpt><trkpt lat="40.2935116229453" lon="15.05060388056406"><ele>634.0</ele><time>2026-03-29T10:24:59.001Z</time></trkpt><trkpt lat="40.293564254055724" lon="15.050753190533774"><ele>632.0</ele><time>2026-03-29T10:25:00.001Z</time></trkpt><trkpt lat="40.29361770221904" lon="15.050896338970984"><ele>630.0</ele><time>2026-03-29T10:25:01.001Z</time></trkpt><trkpt lat="40.29367079107906" lon="15.05103239811325"><ele>628.0</ele><time>2026-03-29T10:25:02.001Z</time></trkpt><trkpt lat="40.29373230581755" lon="15.0511558910627"><ele>626.0</ele><time>2026-03-29T10:25:03.001Z</time></trkpt><trkpt lat="40.293778076330995" lon="15.05129608015242"><ele>626.0</ele><time>2026-03-29T10:25:04.001Z</time></trkpt><trkpt lat="40.293842300391304" lon="15.051424929359575"><ele>626.0</ele><time>2026-03-29T10:25:05.001Z</time></trkpt><trkpt lat="40.293913570244314" lon="15.051539573506526"><ele>626.0</ele><time>2026-03-29T10:25:06.001Z</time></trkpt><trkpt lat="40.293993412281736" lon="15.05164286934271"><ele>626.0</ele><time>2026-03-29T10:25:07.001Z</time></trkpt><trkpt lat="40.29407731188234" lon="15.05174458815162"><ele>626.75</ele><time>2026-03-29T10:25:08.001Z</time></trkpt><trkpt lat="40.29416069565051" lon="15.05185490090708"><ele>627.5</ele><time>2026-03-29T10:25:09.001Z</time></trkpt><trkpt lat="40.29424209230919" lon="15.051967085663746"><ele>628.25</ele><time>2026-03-29T10:25:10.001Z</time></trkpt><trkpt lat="40.29431419123886" lon="15.052086922699857"><ele>629.0</ele><time>2026-03-29T10:25:11.001Z</time></trkpt><trkpt lat="40.29437352049316" lon="15.05221379687733"><ele>629.0</ele><time>2026-03-29T10:25:12.001Z</time></trkpt><trkpt lat="40.29442394854429" lon="15.05234375538571"><ele>629.0</ele><time>2026-03-29T10:25:13.001Z</time></trkpt><trkpt lat="40.294487264112966" lon="15.05246384182273"><ele>629.0</ele><time>2026-03-29T10:25:14.001Z</time></trkpt><trkpt lat="40.29452437164557" lon="15.052611696288801"><ele>629.0</ele><time>2026-03-29T10:25:15.001Z</time></trkpt><trkpt lat="40.294577700367164" lon="15.052747275306084"><ele>626.5</ele><time>2026-03-29T10:25:16.001Z</time></trkpt><trkpt lat="40.29462115569771" lon="15.052890663581007"><ele>624.0</ele><time>2026-03-29T10:25:17.001Z</time></trkpt><trkpt lat="40.29465692958121" lon="15.053040198515523"><ele>621.5</ele><time>2026-03-29T10:25:18.001Z</time></trkpt><trkpt lat="40.29469838609847" lon="15.053203920198008"><ele>619.0</ele><time>2026-03-29T10:25:19.001Z</time></trkpt><trkpt lat="40.29474004175554" lon="15.053371690959148"><ele>620.75</ele><time>2026-03-29T10:25:20.001Z</time></trkpt><trkpt lat="40.29478235948106" lon="15.053531036845305"><ele>622.5</ele><time>2026-03-29T10:25:21.001Z</time></trkpt><trkpt lat="40.294842878616976" lon="15.05367132594395"><ele>624.25</ele><time>2026-03-29T10:25:22.001Z</time></trkpt><trkpt lat="40.294888335194024" lon="15.053805524071835"><ele>626.0</ele><time>2026-03-29T10:25:23.001Z</time></trkpt><trkpt lat="40.294936854113146" lon="15.05393754000431"><ele>626.0</ele><time>2026-03-29T10:25:24.001Z</time></trkpt><trkpt lat="40.294977567994785" lon="15.054084719892048"><ele>626.0</ele><time>2026-03-29T10:25:25.001Z</time></trkpt><trkpt lat="40.29504172876062" lon="15.054210005331008"><ele>626.0</ele><time>2026-03-29T10:25:26.001Z</time></trkpt><trkpt lat="40.29510521567956" lon="15.054318255542738"><ele>626.0</ele><time>2026-03-29T10:25:27.001Z</time></trkpt><trkpt lat="40.29517782289384" lon="15.0544138376612"><ele>626.0</ele><time>2026-03-29T10:25:28.001Z</time></trkpt><trkpt lat="40.295232301079174" lon="15.05453541461604"><ele>624.8</ele><time>2026-03-29T10:25:29.001Z</time></trkpt><trkpt lat="40.2952569447149" lon="15.054679055979694"><ele>623.6</ele><time>2026-03-29T10:25:30.001Z</time></trkpt><trkpt lat="40.295298824502936" lon="15.05480488645371"><ele>622.4</ele><time>2026-03-29T10:25:31.001Z</time></trkpt><trkpt lat="40.295333097609884" lon="15.054933672796555"><ele>621.2</ele><time>2026-03-29T10:25:32.001Z</time></trkpt><trkpt lat="40.29536485586516" lon="15.055065540871228"><ele>620.0</ele><time>2026-03-29T10:25:33.001Z</time></trkpt><trkpt lat="40.29539830728154" lon="15.05519417356727"><ele>620.0</ele><time>2026-03-29T10:25:34.001Z</time></trkpt><trkpt lat="40.29542751394092" lon="15.055320817588392"><ele>620.0</ele><time>2026-03-29T10:25:35.001Z</time></trkpt><trkpt lat="40.29547140586957" lon="15.055434880365244"><ele>620.0</ele><time>2026-03-29T10:25:36.001Z</time></trkpt><trkpt lat="40.29547834927798" lon="15.055552422670695"><ele>620.0</ele><time>2026-03-29T10:25:37.001Z</time></trkpt><trkpt lat="40.29549762328982" lon="15.055666790272046"><ele>620.0</ele><time>2026-03-29T10:25:38.001Z</time></trkpt><trkpt lat="40.295496835847224" lon="15.055776982648187"><ele>617.6</ele><time>2026-03-29T10:25:39.001Z</time></trkpt><trkpt lat="40.295482924142775" lon="15.055889025998699"><ele>615.2</ele><time>2026-03-29T10:25:40.001Z</time></trkpt><trkpt lat="40.295451947017575" lon="15.056001847652189"><ele>612.8</ele><time>2026-03-29T10:25:41.001Z</time></trkpt><trkpt lat="40.29540822534254" lon="15.056112120927379"><ele>610.4</ele><time>2026-03-29T10:25:42.001Z</time></trkpt><trkpt lat="40.29536471332634" lon="15.056195120887626"><ele>608.0</ele><time>2026-03-29T10:25:43.001Z</time></trkpt><trkpt lat="40.29529536184363" lon="15.05629520736454"><ele>608.0</ele><time>2026-03-29T10:25:45.001Z</time></trkpt><trkpt lat="40.29525445326629" lon="15.056381969961368"><ele>608.0</ele><time>2026-03-29T10:27:21.001Z</time></trkpt><trkpt lat="40.29521954773075" lon="15.056454557708957"><ele>608.0</ele><time>2026-03-29T10:28:46.001Z</time></trkpt><trkpt lat="40.29517486069384" lon="15.056540508790999"><ele>608.0</ele><time>2026-03-29T10:28:48.001Z</time></trkpt><trkpt lat="40.29512243073431" lon="15.056625410757782"><ele>608.0</ele><time>2026-03-29T10:28:50.001Z</time></trkpt><trkpt lat="40.29507238939713" lon="15.056727395369522"><ele>608.0</ele><time>2026-03-29T10:28:52.001Z</time></trkpt><trkpt lat="40.29502443086677" lon="15.05683211843018"><ele>609.8</ele><time>2026-03-29T10:28:54.001Z</time></trkpt><trkpt lat="40.294980651949054" lon="15.05699017635549"><ele>611.5999999999999</ele><time>2026-03-29T10:28:56.001Z</time></trkpt><trkpt lat="40.29494594545548" lon="15.057075477719849"><ele>613.4000000000001</ele><time>2026-03-29T10:28:58.001Z</time></trkpt><trkpt lat="40.29491373203839" lon="15.057220759627798"><ele>615.2</ele><time>2026-03-29T10:29:00.001Z</time></trkpt><trkpt lat="40.294905247784605" lon="15.057352711789953"><ele>617.0</ele><time>2026-03-29T10:29:02.001Z</time></trkpt><trkpt lat="40.2949129898192" lon="15.057492646977824"><ele>617.8333333333333</ele><time>2026-03-29T10:29:04.001Z</time></trkpt><trkpt lat="40.29493901230911" lon="15.057600333459424"><ele>618.6666666666666</ele><time>2026-03-29T10:29:06.001Z</time></trkpt><trkpt lat="40.29500248955728" lon="15.057649630982594"><ele>619.5</ele><time>2026-03-29T10:29:08.001Z</time></trkpt><trkpt lat="40.29507997442277" lon="15.057669593197886"><ele>620.3333333333334</ele><time>2026-03-29T10:29:10.001Z</time></trkpt><trkpt lat="40.295145246663914" lon="15.057685430217097"><ele>621.1666666666667</ele><time>2026-03-29T10:29:12.001Z</time></trkpt><trkpt lat="40.29523455354264" lon="15.057680710422419"><ele>622.0</ele><time>2026-03-29T10:29:30.001Z</time></trkpt><trkpt lat="40.29532487989741" lon="15.057635862216054"><ele>622.0</ele><time>2026-03-29T10:29:32.001Z</time></trkpt><trkpt lat="40.295402312549676" lon="15.057583674461346"><ele>622.0</ele><time>2026-03-29T10:29:34.001Z</time></trkpt><trkpt lat="40.29550212807268" lon="15.057529739901499"><ele>622.0</ele><time>2026-03-29T10:29:36.001Z</time></trkpt><trkpt lat="40.29559722509095" lon="15.057480870597043"><ele>622.0</ele><time>2026-03-29T10:29:38.001Z</time></trkpt><trkpt lat="40.295681242062145" lon="15.05741677619918"><ele>622.0</ele><time>2026-03-29T10:29:40.001Z</time></trkpt><trkpt lat="40.29579655166197" lon="15.05738440318932"><ele>623.1666666666667</ele><time>2026-03-29T10:29:42.001Z</time></trkpt><trkpt lat="40.295870384251465" lon="15.057374791027359"><ele>624.3333333333334</ele><time>2026-03-29T10:29:43.001Z</time></trkpt><trkpt lat="40.295935544703795" lon="15.0573845465924"><ele>625.5</ele><time>2026-03-29T10:29:44.001Z</time></trkpt><trkpt lat="40.29605347406315" lon="15.057379874714018"><ele>626.6666666666666</ele><time>2026-03-29T10:29:46.001Z</time></trkpt><trkpt lat="40.2961599689733" lon="15.057382548998174"><ele>627.8333333333333</ele><time>2026-03-29T10:29:48.001Z</time></trkpt><trkpt lat="40.29622456518116" lon="15.05738592575357"><ele>629.0</ele><time>2026-03-29T10:29:49.001Z</time></trkpt><trkpt lat="40.296287043149434" lon="15.0573969582633"><ele>629.0</ele><time>2026-03-29T10:29:50.001Z</time></trkpt><trkpt lat="40.29640954515269" lon="15.057367328596435"><ele>629.0</ele><time>2026-03-29T10:29:52.001Z</time></trkpt><trkpt lat="40.29646199119329" lon="15.057293739091445"><ele>629.0</ele><time>2026-03-29T10:29:53.001Z</time></trkpt><trkpt lat="40.29648020734395" lon="15.057174055039217"><ele>629.0</ele><time>2026-03-29T10:29:54.001Z</time></trkpt><trkpt lat="40.29647523065572" lon="15.057038217954952"><ele>629.0</ele><time>2026-03-29T10:29:55.001Z</time></trkpt><trkpt lat="40.29651190565632" lon="15.056922856728841"><ele>626.5</ele><time>2026-03-29T10:29:56.001Z</time></trkpt><trkpt lat="40.29652936548349" lon="15.05683715517707"><ele>624.0</ele><time>2026-03-29T10:29:57.001Z</time></trkpt><trkpt lat="40.296538968712646" lon="15.056698610494553"><ele>621.5</ele><time>2026-03-29T10:29:58.001Z</time></trkpt><trkpt lat="40.296555480065635" lon="15.056589934935884"><ele>619.0</ele><time>2026-03-29T10:29:59.001Z</time></trkpt><trkpt lat="40.296575666296214" lon="15.05648633450428"><ele>616.5</ele><time>2026-03-29T10:30:00.001Z</time></trkpt><trkpt lat="40.296594463491026" lon="15.056387327702803"><ele>614.0</ele><time>2026-03-29T10:30:01.001Z</time></trkpt><trkpt lat="40.296620956345194" lon="15.056294763422098"><ele>614.0</ele><time>2026-03-29T10:30:02.001Z</time></trkpt><trkpt lat="40.296631329038505" lon="15.056207897234813"><ele>614.0</ele><time>2026-03-29T10:30:03.001Z</time></trkpt><trkpt lat="40.296687458253466" lon="15.056104215072203"><ele>614.0</ele><time>2026-03-29T10:30:05.001Z</time></trkpt><trkpt lat="40.29679159584515" lon="15.056126230366631"><ele>614.0</ele><time>2026-03-29T10:30:07.001Z</time></trkpt><trkpt lat="40.29683286149806" lon="15.056190988815663"><ele>614.0</ele><time>2026-03-29T10:30:08.001Z</time></trkpt><trkpt lat="40.29687074629131" lon="15.056267426608413"><ele>614.0</ele><time>2026-03-29T10:30:09.001Z</time></trkpt><trkpt lat="40.296915853484656" lon="15.05635938728473"><ele>614.0</ele><time>2026-03-29T10:30:10.001Z</time></trkpt><trkpt lat="40.296956513490635" lon="15.056461430739102"><ele>614.0</ele><time>2026-03-29T10:30:11.001Z</time></trkpt><trkpt lat="40.29700115887378" lon="15.05655792370353"><ele>614.0</ele><time>2026-03-29T10:30:12.001Z</time></trkpt><trkpt lat="40.29703916881951" lon="15.056671004495662"><ele>614.0</ele><time>2026-03-29T10:30:13.001Z</time></trkpt><trkpt lat="40.297105980279404" lon="15.05676382056137"><ele>614.0</ele><time>2026-03-29T10:30:14.001Z</time></trkpt><trkpt lat="40.29717362783113" lon="15.05687821330575"><ele>614.0</ele><time>2026-03-29T10:30:15.001Z</time></trkpt><trkpt lat="40.297232491753995" lon="15.056983302280566"><ele>614.0</ele><time>2026-03-29T10:30:16.001Z</time></trkpt><trkpt lat="40.29729245016156" lon="15.057085799423996"><ele>614.0</ele><time>2026-03-29T10:30:17.001Z</time></trkpt><trkpt lat="40.29735405607777" lon="15.057188378728295"><ele>614.0</ele><time>2026-03-29T10:30:18.001Z</time></trkpt><trkpt lat="40.29742972668198" lon="15.057297065183693"><ele>614.0</ele><time>2026-03-29T10:30:19.001Z</time></trkpt><trkpt lat="40.297501820945165" lon="15.05740439114757"><ele>611.2</ele><time>2026-03-29T10:30:20.001Z</time></trkpt><trkpt lat="40.29756340172833" lon="15.05751144956366"><ele>608.4</ele><time>2026-03-29T10:30:21.001Z</time></trkpt><trkpt lat="40.29762882452821" lon="15.05760576668206"><ele>605.6</ele><time>2026-03-29T10:30:22.001Z</time></trkpt><trkpt lat="40.2976842721419" lon="15.05769848944701"><ele>602.8</ele><time>2026-03-29T10:30:23.001Z</time></trkpt><trkpt lat="40.29771283656073" lon="15.057804984679503"><ele>600.0</ele><time>2026-03-29T10:30:24Z</time></trkpt><trkpt lat="40.29770884771754" lon="15.057908181234614"><ele>600.0</ele><time>2026-03-29T10:30:25Z</time></trkpt><trkpt lat="40.29766104140765" lon="15.057990216652195"><ele>600.0</ele><time>2026-03-29T10:30:26Z</time></trkpt><trkpt lat="40.29760137653957" lon="15.058062988025616"><ele>600.0</ele><time>2026-03-29T10:30:27Z</time></trkpt><trkpt lat="40.29753155123407" lon="15.058127388693896"><ele>600.0</ele><time>2026-03-29T10:30:28Z</time></trkpt><trkpt lat="40.297461359997065" lon="15.058151727722091"><ele>600.0</ele><time>2026-03-29T10:30:29Z</time></trkpt><trkpt lat="40.29738261096337" lon="15.058143953704011"><ele>600.0</ele><time>2026-03-29T10:30:30Z</time></trkpt><trkpt lat="40.29729393686785" lon="15.058127235177494"><ele>602.0</ele><time>2026-03-29T10:30:31Z</time></trkpt><trkpt lat="40.297188891851945" lon="15.058090465308258"><ele>604.0</ele><time>2026-03-29T10:30:32Z</time></trkpt><trkpt lat="40.297079542077036" lon="15.05809161768363"><ele>606.0</ele><time>2026-03-29T10:30:33Z</time></trkpt><trkpt lat="40.29697614633163" lon="15.058076186855338"><ele>608.0</ele><time>2026-03-29T10:30:34Z</time></trkpt><trkpt lat="40.29686765260233" lon="15.058080383644958"><ele>610.0</ele><time>2026-03-29T10:30:35Z</time></trkpt><trkpt lat="40.29675638032965" lon="15.05809305923336"><ele>610.0</ele><time>2026-03-29T10:30:36Z</time></trkpt><trkpt lat="40.29664563499635" lon="15.058104525489611"><ele>610.0</ele><time>2026-03-29T10:30:37Z</time></trkpt><trkpt lat="40.2965324120308" lon="15.05811770920503"><ele>610.0</ele><time>2026-03-29T10:30:38Z</time></trkpt><trkpt lat="40.29642052687455" lon="15.058127855458535"><ele>610.0</ele><time>2026-03-29T10:30:39Z</time></trkpt><trkpt lat="40.29630699935556" lon="15.058124059130686"><ele>611.6</ele><time>2026-03-29T10:30:40Z</time></trkpt><trkpt lat="40.29618836827315" lon="15.058140253186828"><ele>613.2</ele><time>2026-03-29T10:30:41Z</time></trkpt><trkpt lat="40.29608033438783" lon="15.05814550833412"><ele>614.8</ele><time>2026-03-29T10:30:42Z</time></trkpt><trkpt lat="40.295976381244834" lon="15.05815084762618"><ele>616.4</ele><time>2026-03-29T10:30:43Z</time></trkpt><trkpt lat="40.295879494389624" lon="15.058186635955638"><ele>618.0</ele><time>2026-03-29T10:30:44Z</time></trkpt><trkpt lat="40.295784096175396" lon="15.058215067276725"><ele>618.0</ele><time>2026-03-29T10:30:45Z</time></trkpt><trkpt lat="40.295705278901984" lon="15.058244129247791"><ele>618.0</ele><time>2026-03-29T10:30:46Z</time></trkpt><trkpt lat="40.29563555277762" lon="15.058269112269393"><ele>618.0</ele><time>2026-03-29T10:30:47Z</time></trkpt><trkpt lat="40.29556354439618" lon="15.058335363970397"><ele>618.0</ele><time>2026-03-29T10:30:49Z</time></trkpt><trkpt lat="40.29565030567692" lon="15.058441197394584"><ele>618.0</ele><time>2026-03-29T10:30:53Z</time></trkpt><trkpt lat="40.29571929512166" lon="15.058413659795992"><ele>618.0</ele><time>2026-03-29T10:30:54Z</time></trkpt><trkpt lat="40.295795013259074" lon="15.058399333282313"><ele>610.4</ele><time>2026-03-29T10:30:55Z</time></trkpt><trkpt lat="40.295866606466674" lon="15.058371314671964"><ele>602.8</ele><time>2026-03-29T10:30:56Z</time></trkpt><trkpt lat="40.295951930653324" lon="15.05837599124589"><ele>595.2</ele><time>2026-03-29T10:30:57Z</time></trkpt><trkpt lat="40.29604960557004" lon="15.058396868689606"><ele>587.6</ele><time>2026-03-29T10:30:58Z</time></trkpt><trkpt lat="40.29615043445907" lon="15.058456329078533"><ele>580.0</ele><time>2026-03-29T10:30:59Z</time></trkpt><trkpt lat="40.296252631229024" lon="15.058498454285962"><ele>580.0</ele><time>2026-03-29T10:31:00Z</time></trkpt><trkpt lat="40.29635552159526" lon="15.05851387810549"><ele>580.0</ele><time>2026-03-29T10:31:01Z</time></trkpt><trkpt lat="40.29645684820769" lon="15.0585640876801"><ele>580.0</ele><time>2026-03-29T10:31:02Z</time></trkpt><trkpt lat="40.29657196044532" lon="15.05858331738514"><ele>580.0</ele><time>2026-03-29T10:31:03Z</time></trkpt><trkpt lat="40.29668196711303" lon="15.058574340224467"><ele>580.0</ele><time>2026-03-29T10:31:04Z</time></trkpt><trkpt lat="40.29679499446005" lon="15.058609675885918"><ele>580.4</ele><time>2026-03-29T10:31:05Z</time></trkpt><trkpt lat="40.296883020161516" lon="15.058645033153182"><ele>580.8</ele><time>2026-03-29T10:31:06Z</time></trkpt><trkpt lat="40.29697623572533" lon="15.058700808601404"><ele>581.2</ele><time>2026-03-29T10:31:07Z</time></trkpt><trkpt lat="40.29705700803577" lon="15.058786612597157"><ele>581.6</ele><time>2026-03-29T10:31:08Z</time></trkpt><trkpt lat="40.29714138505313" lon="15.058886797092697"><ele>582.0</ele><time>2026-03-29T10:31:09Z</time></trkpt><trkpt lat="40.29725285758409" lon="15.05895224240239"><ele>583.8000000000001</ele><time>2026-03-29T10:31:10Z</time></trkpt><trkpt lat="40.29736008652985" lon="15.059005452487932"><ele>585.6</ele><time>2026-03-29T10:31:11Z</time></trkpt><trkpt lat="40.29746194622689" lon="15.059051231957083"><ele>587.4000000000001</ele><time>2026-03-29T10:31:12Z</time></trkpt><trkpt lat="40.297554984801195" lon="15.059112402514174"><ele>589.2</ele><time>2026-03-29T10:31:13Z</time></trkpt><trkpt lat="40.297631100291035" lon="15.059226984706358"><ele>591.0</ele><time>2026-03-29T10:31:14Z</time></trkpt><trkpt lat="40.297701141477425" lon="15.059342144417943"><ele>584.5</ele><time>2026-03-29T10:31:15Z</time></trkpt><trkpt lat="40.29777121065871" lon="15.059465705439104"><ele>578.0</ele><time>2026-03-29T10:31:16Z</time></trkpt><trkpt lat="40.29784718952327" lon="15.05957702461525"><ele>571.5</ele><time>2026-03-29T10:31:17Z</time></trkpt><trkpt lat="40.29788631073665" lon="15.059710521106956"><ele>565.0</ele><time>2026-03-29T10:31:18Z</time></trkpt><trkpt lat="40.297951403789284" lon="15.059825438241676"><ele>565.0</ele><time>2026-03-29T10:31:19Z</time></trkpt><trkpt lat="40.29799910690795" lon="15.05993635430523"><ele>565.0</ele><time>2026-03-29T10:31:20Z</time></trkpt><trkpt lat="40.298060224829264" lon="15.060012941597913"><ele>565.0</ele><time>2026-03-29T10:31:21Z</time></trkpt><trkpt lat="40.29813113113308" lon="15.060034125085462"><ele>565.0</ele><time>2026-03-29T10:31:22Z</time></trkpt><trkpt lat="40.29821600899131" lon="15.060007345797338"><ele>565.0</ele><time>2026-03-29T10:31:23Z</time></trkpt><trkpt lat="40.29829742324507" lon="15.059949036920287"><ele>565.0</ele><time>2026-03-29T10:31:24Z</time></trkpt><trkpt lat="40.29838650255583" lon="15.059870711126528"><ele>564.0</ele><time>2026-03-29T10:31:25Z</time></trkpt><trkpt lat="40.29849247196034" lon="15.059834802693393"><ele>563.0</ele><time>2026-03-29T10:31:26Z</time></trkpt><trkpt lat="40.2985980664382" lon="15.059807190910506"><ele>562.0</ele><time>2026-03-29T10:31:27Z</time></trkpt><trkpt lat="40.29870421507698" lon="15.059791986088511"><ele>561.0</ele><time>2026-03-29T10:31:28Z</time></trkpt><trkpt lat="40.29882671047488" lon="15.059774306193043"><ele>560.0</ele><time>2026-03-29T10:31:29Z</time></trkpt><trkpt lat="40.29893524068611" lon="15.059732151609126"><ele>560.0</ele><time>2026-03-29T10:31:30Z</time></trkpt><trkpt lat="40.29904439847416" lon="15.059738609080345"><ele>560.0</ele><time>2026-03-29T10:31:31Z</time></trkpt><trkpt lat="40.29914192755446" lon="15.059765168784104"><ele>560.0</ele><time>2026-03-29T10:31:32Z</time></trkpt><trkpt lat="40.299239381632724" lon="15.059790810099036"><ele>560.0</ele><time>2026-03-29T10:31:33Z</time></trkpt><trkpt lat="40.29931781238022" lon="15.059871592118624"><ele>560.0</ele><time>2026-03-29T10:31:34Z</time></trkpt><trkpt lat="40.29937963431537" lon="15.059979512329942"><ele>557.0</ele><time>2026-03-29T10:31:35Z</time></trkpt><trkpt lat="40.299450138887785" lon="15.060108333763775"><ele>554.0</ele><time>2026-03-29T10:31:36Z</time></trkpt><trkpt lat="40.29953200759706" lon="15.06023252892554"><ele>551.0</ele><time>2026-03-29T10:31:37Z</time></trkpt><trkpt lat="40.29961969614558" lon="15.060334126682573"><ele>548.0</ele><time>2026-03-29T10:31:38Z</time></trkpt><trkpt lat="40.29971442916888" lon="15.060414989598048"><ele>547.6666666666666</ele><time>2026-03-29T10:31:39Z</time></trkpt><trkpt lat="40.2997824943814" lon="15.060500005813472"><ele>547.3333333333333</ele><time>2026-03-29T10:31:40Z</time></trkpt><trkpt lat="40.29984910218047" lon="15.060545201194966"><ele>547.0</ele><time>2026-03-29T10:31:41Z</time></trkpt><trkpt lat="40.29991703847727" lon="15.060547293178164"><ele>546.6666666666666</ele><time>2026-03-29T10:31:42Z</time></trkpt><trkpt lat="40.29999009941395" lon="15.060520113614693"><ele>546.3333333333334</ele><time>2026-03-29T10:31:43Z</time></trkpt><trkpt lat="40.30004890676693" lon="15.060392704602618"><ele>546.0</ele><time>2026-03-29T10:31:44Z</time></trkpt><trkpt lat="40.30009004068357" lon="15.060263731305197"><ele>546.0</ele><time>2026-03-29T10:31:45Z</time></trkpt><trkpt lat="40.30010141452044" lon="15.060141260279885"><ele>546.0</ele><time>2026-03-29T10:31:46Z</time></trkpt><trkpt lat="40.30009086417424" lon="15.060001569207795"><ele>546.0</ele><time>2026-03-29T10:31:47Z</time></trkpt><trkpt lat="40.3001027798541" lon="15.059875166410162"><ele>546.0</ele><time>2026-03-29T10:31:48Z</time></trkpt><trkpt lat="40.300115366763194" lon="15.059728836157277"><ele>546.0</ele><time>2026-03-29T10:31:49Z</time></trkpt><trkpt lat="40.30014670743628" lon="15.059588133915613"><ele>545.6</ele><time>2026-03-29T10:31:50Z</time></trkpt><trkpt lat="40.30019846012033" lon="15.05944815957012"><ele>545.2</ele><time>2026-03-29T10:31:51Z</time></trkpt><trkpt lat="40.30024441242581" lon="15.059300308686128"><ele>544.8</ele><time>2026-03-29T10:31:53Z</time></trkpt><trkpt lat="40.300259942267196" lon="15.059214794904443"><ele>544.4</ele><time>2026-03-29T10:31:54Z</time></trkpt><trkpt lat="40.30025428626724" lon="15.059120072268469"><ele>544.0</ele><time>2026-03-29T10:31:55Z</time></trkpt><trkpt lat="40.30023869993616" lon="15.059024471930437"><ele>543.8333333333334</ele><time>2026-03-29T10:31:56Z</time></trkpt><trkpt lat="40.300228718917516" lon="15.058924780208924"><ele>543.6666666666667</ele><time>2026-03-29T10:31:57Z</time></trkpt><trkpt lat="40.30023895716745" lon="15.058826199901878"><ele>543.5</ele><time>2026-03-29T10:31:58Z</time></trkpt><trkpt lat="40.3002508637223" lon="15.058740348147293"><ele>543.3333333333334</ele><time>2026-03-29T10:31:59Z</time></trkpt><trkpt lat="40.30025679086214" lon="15.058645862442264"><ele>543.1666666666666</ele><time>2026-03-29T10:32:01Z</time></trkpt><trkpt lat="40.30025179260169" lon="15.058733104305954"><ele>543.0</ele><time>2026-03-29T10:32:08Z</time></trkpt><trkpt lat="40.300233976610095" lon="15.058887651266565"><ele>543.0</ele><time>2026-03-29T10:32:10Z</time></trkpt><trkpt lat="40.30023135919361" lon="15.058986786075971"><ele>543.0</ele><time>2026-03-29T10:32:11Z</time></trkpt><trkpt lat="40.30024784447467" lon="15.059083862123392"><ele>543.0</ele><time>2026-03-29T10:32:12Z</time></trkpt><trkpt lat="40.30020277798157" lon="15.059300537441368"><ele>543.0</ele><time>2026-03-29T10:32:13Z</time></trkpt><trkpt lat="40.300168160940125" lon="15.059432979844884"><ele>543.0</ele><time>2026-03-29T10:32:14Z</time></trkpt><trkpt lat="40.30011724146498" lon="15.059552180429586"><ele>543.1999999999999</ele><time>2026-03-29T10:32:15Z</time></trkpt><trkpt lat="40.30007703075558" lon="15.059675549154633"><ele>543.4</ele><time>2026-03-29T10:32:16Z</time></trkpt><trkpt lat="40.300061377541375" lon="15.059814380996798"><ele>543.5999999999999</ele><time>2026-03-29T10:32:17Z</time></trkpt><trkpt lat="40.30005824657877" lon="15.059969181594672"><ele>543.8</ele><time>2026-03-29T10:32:18Z</time></trkpt><trkpt lat="40.30005699160737" lon="15.060121002919177"><ele>544.0</ele><time>2026-03-29T10:32:19Z</time></trkpt><trkpt lat="40.30004340027138" lon="15.060249315453657"><ele>544.3333333333334</ele><time>2026-03-29T10:32:20Z</time></trkpt><trkpt lat="40.30001664154854" lon="15.060355931262139"><ele>544.6666666666667</ele><time>2026-03-29T10:32:21Z</time></trkpt><trkpt lat="40.29996762766598" lon="15.060444742836205"><ele>545.0</ele><time>2026-03-29T10:32:22Z</time></trkpt><trkpt lat="40.299894459578695" lon="15.060510600181125"><ele>545.3333333333334</ele><time>2026-03-29T10:32:24Z</time></trkpt><trkpt lat="40.29986946481311" lon="15.060588120089639"><ele>545.6666666666666</ele><time>2026-03-29T10:32:29Z</time></trkpt><trkpt lat="40.29992842064809" lon="15.060650988284308"><ele>546.0</ele><time>2026-03-29T10:32:31Z</time></trkpt><trkpt lat="40.299967142891475" lon="15.060721872115288"><ele>543.6</ele><time>2026-03-29T10:32:32Z</time></trkpt><trkpt lat="40.30000184663133" lon="15.060795056411628"><ele>541.2</ele><time>2026-03-29T10:32:33Z</time></trkpt><trkpt lat="40.30006064059599" lon="15.06094266859565"><ele>538.8</ele><time>2026-03-29T10:32:35Z</time></trkpt><trkpt lat="40.300100763765315" lon="15.06101041525689"><ele>536.4</ele><time>2026-03-29T10:32:36Z</time></trkpt><trkpt lat="40.30015917889291" lon="15.061153930439684"><ele>534.0</ele><time>2026-03-29T10:32:38Z</time></trkpt><trkpt lat="40.30019870603108" lon="15.061231161225884"><ele>534.0</ele><time>2026-03-29T10:32:39Z</time></trkpt><trkpt lat="40.30025444242632" lon="15.061301208858174"><ele>534.0</ele><time>2026-03-29T10:32:40Z</time></trkpt><trkpt lat="40.300299810233554" lon="15.061386809275334"><ele>534.0</ele><time>2026-03-29T10:32:41Z</time></trkpt><trkpt lat="40.30034796323694" lon="15.061474727345141"><ele>534.0</ele><time>2026-03-29T10:32:42Z</time></trkpt><trkpt lat="40.300423152769646" lon="15.061606766230582"><ele>534.0</ele><time>2026-03-29T10:32:43.999Z</time></trkpt><trkpt lat="40.300475114518214" lon="15.06169422467798"><ele>534.0</ele><time>2026-03-29T10:32:44.999Z</time></trkpt><trkpt lat="40.300526842656424" lon="15.061771848816898"><ele>531.8571428571429</ele><time>2026-03-29T10:32:45.999Z</time></trkpt><trkpt lat="40.30056445979112" lon="15.061842362245349"><ele>529.7142857142858</ele><time>2026-03-29T10:32:46.999Z</time></trkpt><trkpt lat="40.300615707168554" lon="15.061906607175258"><ele>527.5714285714286</ele><time>2026-03-29T10:32:47.999Z</time></trkpt><trkpt lat="40.30066958365286" lon="15.061971551158868"><ele>525.4285714285714</ele><time>2026-03-29T10:32:48.999Z</time></trkpt><trkpt lat="40.30072936320443" lon="15.062037624707404"><ele>523.2857142857142</ele><time>2026-03-29T10:32:49.999Z</time></trkpt><trkpt lat="40.30078086450308" lon="15.06211473231498"><ele>521.1428571428571</ele><time>2026-03-29T10:32:50.999Z</time></trkpt><trkpt lat="40.3008232284228" lon="15.062180226480837"><ele>519.0</ele><time>2026-03-29T10:32:51.999Z</time></trkpt><trkpt lat="40.300869970202065" lon="15.062250057706116"><ele>519.0</ele><time>2026-03-29T10:32:52.999Z</time></trkpt><trkpt lat="40.30091474454935" lon="15.062309749469177"><ele>519.0</ele><time>2026-03-29T10:32:53.999Z</time></trkpt><trkpt lat="40.30100049967512" lon="15.062421607034468"><ele>519.0</ele><time>2026-03-29T10:32:55.999Z</time></trkpt><trkpt lat="40.301108098675655" lon="15.062505314617052"><ele>519.0</ele><time>2026-03-29T10:32:57.999Z</time></trkpt><trkpt lat="40.30122448458366" lon="15.06253848735732"><ele>519.0</ele><time>2026-03-29T10:32:59.999Z</time></trkpt><trkpt lat="40.30133408053923" lon="15.062505231600793"><ele>518.6666666666666</ele><time>2026-03-29T10:33:01.999Z</time></trkpt><trkpt lat="40.301398084769296" lon="15.062498594705232"><ele>518.3333333333334</ele><time>2026-03-29T10:33:02.999Z</time></trkpt><trkpt lat="40.301464329300615" lon="15.062466944534464"><ele>518.0</ele><time>2026-03-29T10:33:03.999Z</time></trkpt><trkpt lat="40.30157411695242" lon="15.06240804809685"><ele>517.6666666666667</ele><time>2026-03-29T10:33:05.999Z</time></trkpt><trkpt lat="40.301645816969334" lon="15.062411997331619"><ele>517.3333333333334</ele><time>2026-03-29T10:33:06.999Z</time></trkpt><trkpt lat="40.301710314629055" lon="15.062396736477302"><ele>517.0</ele><time>2026-03-29T10:33:07.999Z</time></trkpt><trkpt lat="40.301788162734695" lon="15.06240782662076"><ele>517.0</ele><time>2026-03-29T10:33:08.999Z</time></trkpt><trkpt lat="40.301863496364625" lon="15.0624271404735"><ele>517.0</ele><time>2026-03-29T10:33:09.999Z</time></trkpt><trkpt lat="40.301946105686405" lon="15.0624263445148"><ele>517.0</ele><time>2026-03-29T10:33:10.999Z</time></trkpt><trkpt lat="40.30203387414525" lon="15.062454154063103"><ele>517.0</ele><time>2026-03-29T10:33:11.999Z</time></trkpt><trkpt lat="40.30211523929147" lon="15.062490946212169"><ele>517.0</ele><time>2026-03-29T10:33:12.999Z</time></trkpt><trkpt lat="40.30222208514725" lon="15.06249718514879"><ele>517.0</ele><time>2026-03-29T10:33:13.999Z</time></trkpt><trkpt lat="40.30230812460859" lon="15.062470070800515"><ele>515.2857142857143</ele><time>2026-03-29T10:33:14.999Z</time></trkpt><trkpt lat="40.302389358599136" lon="15.062470027770786"><ele>513.5714285714287</ele><time>2026-03-29T10:33:15.999Z</time></trkpt><trkpt lat="40.30246126106456" lon="15.06246502996054"><ele>511.8571428571429</ele><time>2026-03-29T10:33:16.999Z</time></trkpt><trkpt lat="40.302529792188466" lon="15.062474864447733"><ele>510.1428571428571</ele><time>2026-03-29T10:33:17.999Z</time></trkpt><trkpt lat="40.30258359655239" lon="15.06251869649093"><ele>508.4285714285714</ele><time>2026-03-29T10:33:18.999Z</time></trkpt><trkpt lat="40.30264649868957" lon="15.062554496175789"><ele>506.71428571428567</ele><time>2026-03-29T10:33:19.999Z</time></trkpt><trkpt lat="40.30271094542616" lon="15.062574214558529"><ele>505.0</ele><time>2026-03-29T10:33:20.999Z</time></trkpt><trkpt lat="40.30276645109573" lon="15.062626125611498"><ele>505.00000000000006</ele><time>2026-03-29T10:33:21.999Z</time></trkpt><trkpt lat="40.302825592363625" lon="15.062689318383292"><ele>505.0</ele><time>2026-03-29T10:33:22.999Z</time></trkpt><trkpt lat="40.302878409046464" lon="15.062750489236418"><ele>505.0</ele><time>2026-03-29T10:33:23.999Z</time></trkpt><trkpt lat="40.302926836799244" lon="15.062815077625395"><ele>505.0</ele><time>2026-03-29T10:33:24.999Z</time></trkpt><trkpt lat="40.30301492912116" lon="15.062811527656903"><ele>505.00000000000006</ele><time>2026-03-29T10:33:25.999Z</time></trkpt><trkpt lat="40.303077739973" lon="15.062874356037124"><ele>505.0</ele><time>2026-03-29T10:33:26.999Z</time></trkpt><trkpt lat="40.30314597634632" lon="15.062931228475751"><ele>501.33333333333337</ele><time>2026-03-29T10:33:27.999Z</time></trkpt><trkpt lat="40.303215380662664" lon="15.062949517814541"><ele>497.6666666666667</ele><time>2026-03-29T10:33:28.999Z</time></trkpt><trkpt lat="40.30328832873477" lon="15.06296590046464"><ele>494.0</ele><time>2026-03-29T10:33:29.999Z</time></trkpt><trkpt lat="40.303370815734354" lon="15.06295596329465"><ele>490.33333333333337</ele><time>2026-03-29T10:33:30.999Z</time></trkpt><trkpt lat="40.30346262707564" lon="15.062965355498665"><ele>486.6666666666667</ele><time>2026-03-29T10:33:31.999Z</time></trkpt><trkpt lat="40.30355195386538" lon="15.062959068085076"><ele>483.0</ele><time>2026-03-29T10:33:32.999Z</time></trkpt><trkpt lat="40.30363834988878" lon="15.06295294912445"><ele>483.0</ele><time>2026-03-29T10:33:33.999Z</time></trkpt><trkpt lat="40.303730464071386" lon="15.062945648646599"><ele>482.99999999999994</ele><time>2026-03-29T10:33:34.999Z</time></trkpt><trkpt lat="40.30382480156728" lon="15.062938002402683"><ele>482.99999999999994</ele><time>2026-03-29T10:33:35.999Z</time></trkpt><trkpt lat="40.30391178105746" lon="15.062926135412468"><ele>483.0</ele><time>2026-03-29T10:33:36.999Z</time></trkpt><trkpt lat="40.30400217854342" lon="15.062909024288158"><ele>483.0</ele><time>2026-03-29T10:33:37.999Z</time></trkpt><trkpt lat="40.30409382924328" lon="15.062891207071175"><ele>479.8333333333333</ele><time>2026-03-29T10:33:38.999Z</time></trkpt><trkpt lat="40.30418417763724" lon="15.062903758591082"><ele>476.66666666666663</ele><time>2026-03-29T10:33:39.999Z</time></trkpt><trkpt lat="40.30426664447886" lon="15.062900606079795"><ele>473.5</ele><time>2026-03-29T10:33:41Z</time></trkpt><trkpt lat="40.304344151854615" lon="15.062916482796192"><ele>470.3333333333333</ele><time>2026-03-29T10:33:42Z</time></trkpt><trkpt lat="40.30443065439132" lon="15.062925647413774"><ele>467.16666666666663</ele><time>2026-03-29T10:33:43Z</time></trkpt><trkpt lat="40.304515563890675" lon="15.062949058838234"><ele>464.0</ele><time>2026-03-29T10:33:44Z</time></trkpt><trkpt lat="40.30459344182482" lon="15.062974904046062"><ele>463.99999999999994</ele><time>2026-03-29T10:33:45Z</time></trkpt><trkpt lat="40.30466180907996" lon="15.063024595261279"><ele>464.0</ele><time>2026-03-29T10:33:46Z</time></trkpt><trkpt lat="40.304718468206566" lon="15.063092907800627"><ele>464.0</ele><time>2026-03-29T10:33:47Z</time></trkpt><trkpt lat="40.30476677609084" lon="15.063184740515753"><ele>464.0</ele><time>2026-03-29T10:33:48Z</time></trkpt><trkpt lat="40.30481360922849" lon="15.063280736025638"><ele>463.99999999999994</ele><time>2026-03-29T10:33:49Z</time></trkpt><trkpt lat="40.304866111467966" lon="15.063380915396099"><ele>464.0</ele><time>2026-03-29T10:33:50Z</time></trkpt><trkpt lat="40.30492759696317" lon="15.063471159227472"><ele>461.8333333333333</ele><time>2026-03-29T10:33:51Z</time></trkpt><trkpt lat="40.30499383743392" lon="15.063549879307764"><ele>459.66666666666663</ele><time>2026-03-29T10:33:52Z</time></trkpt><trkpt lat="40.30506355756589" lon="15.063625211768121"><ele>457.5</ele><time>2026-03-29T10:33:53Z</time></trkpt><trkpt lat="40.305133535686956" lon="15.063685063339149"><ele>455.33333333333337</ele><time>2026-03-29T10:33:54Z</time></trkpt><trkpt lat="40.30520544580419" lon="15.06374625007604"><ele>453.1666666666667</ele><time>2026-03-29T10:33:55Z</time></trkpt><trkpt lat="40.30526119052352" lon="15.063802114037564"><ele>451.0</ele><time>2026-03-29T10:33:56Z</time></trkpt><trkpt lat="40.305302964593395" lon="15.063874777518965"><ele>451.00000000000006</ele><time>2026-03-29T10:33:57Z</time></trkpt><trkpt lat="40.3053150312206" lon="15.063968245374241"><ele>451.0</ele><time>2026-03-29T10:33:58Z</time></trkpt><trkpt lat="40.30530584243709" lon="15.064077407145458"><ele>451.0</ele><time>2026-03-29T10:33:59Z</time></trkpt><trkpt lat="40.305261049441505" lon="15.064176110695897"><ele>451.0</ele><time>2026-03-29T10:34:00Z</time></trkpt><trkpt lat="40.30522431837006" lon="15.064263893296374"><ele>451.00000000000006</ele><time>2026-03-29T10:34:01Z</time></trkpt><trkpt lat="40.305213426219474" lon="15.064349271840603"><ele>451.0</ele><time>2026-03-29T10:34:02Z</time></trkpt><trkpt lat="40.30522518113189" lon="15.064481399748715"><ele>449.50000000000006</ele><time>2026-03-29T10:34:04Z</time></trkpt><trkpt lat="40.30527129253261" lon="15.064542352562759"><ele>448.0</ele><time>2026-03-29T10:34:05Z</time></trkpt><trkpt lat="40.305323174335555" lon="15.064593617122219"><ele>446.5</ele><time>2026-03-29T10:34:06Z</time></trkpt><trkpt lat="40.30537763282287" lon="15.06464192113366"><ele>445.0</ele><time>2026-03-29T10:34:07Z</time></trkpt><trkpt lat="40.30548535320918" lon="15.064677087206958"><ele>443.50000000000006</ele><time>2026-03-29T10:34:09Z</time></trkpt><trkpt lat="40.305593099647446" lon="15.064698640991011"><ele>442.0</ele><time>2026-03-29T10:34:11Z</time></trkpt><trkpt lat="40.30568439850671" lon="15.064727294549916"><ele>439.8</ele><time>2026-03-29T10:34:13Z</time></trkpt><trkpt lat="40.30577575484034" lon="15.064755951424521"><ele>437.6</ele><time>2026-03-29T10:34:15Z</time></trkpt><trkpt lat="40.305864745668835" lon="15.064790962525034"><ele>435.40000000000003</ele><time>2026-03-29T10:34:17Z</time></trkpt><trkpt lat="40.30599579487212" lon="15.064826103600723"><ele>433.20000000000005</ele><time>2026-03-29T10:34:19Z</time></trkpt><trkpt lat="40.30606652970813" lon="15.064857760902049"><ele>431.0</ele><time>2026-03-29T10:34:20Z</time></trkpt><trkpt lat="40.30613965682249" lon="15.06489235184828"><ele>430.99999999999994</ele><time>2026-03-29T10:34:21Z</time></trkpt><trkpt lat="40.30620066351787" lon="15.064934645389986"><ele>431.0</ele><time>2026-03-29T10:34:22Z</time></trkpt><trkpt lat="40.30626232580304" lon="15.06495688160697"><ele>431.0</ele><time>2026-03-29T10:34:23Z</time></trkpt><trkpt lat="40.30632411665805" lon="15.064992104387022"><ele>431.0</ele><time>2026-03-29T10:34:24Z</time></trkpt><trkpt lat="40.30642740966095" lon="15.065079978579194"><ele>430.99999999999994</ele><time>2026-03-29T10:34:26Z</time></trkpt><trkpt lat="40.30652741547475" lon="15.065087480725644"><ele>431.0</ele><time>2026-03-29T10:34:28Z</time></trkpt><trkpt lat="40.306602320867285" lon="15.065107388413791"><ele>425.6</ele><time>2026-03-29T10:34:31Z</time></trkpt><trkpt lat="40.3066192278176" lon="15.065220437219542"><ele>420.20000000000005</ele><time>2026-03-29T10:34:34Z</time></trkpt><trkpt lat="40.306689864390975" lon="15.065296836609688"><ele>414.79999999999995</ele><time>2026-03-29T10:34:36Z</time></trkpt><trkpt lat="40.30681625520761" lon="15.065340379604987"><ele>409.4</ele><time>2026-03-29T10:34:38Z</time></trkpt><trkpt lat="40.30688972069362" lon="15.06538734520879"><ele>404.0</ele><time>2026-03-29T10:34:39Z</time></trkpt><trkpt lat="40.30696638133375" lon="15.065428355249948"><ele>403.99999999999994</ele><time>2026-03-29T10:34:40Z</time></trkpt><trkpt lat="40.30703658012961" lon="15.06545948287101"><ele>404.0</ele><time>2026-03-29T10:34:41Z</time></trkpt><trkpt lat="40.30710861931893" lon="15.065495096069146"><ele>404.0</ele><time>2026-03-29T10:34:42Z</time></trkpt><trkpt lat="40.30719182950164" lon="15.06553928291254"><ele>404.0</ele><time>2026-03-29T10:34:43Z</time></trkpt><trkpt lat="40.307280060111374" lon="15.065585199381148"><ele>403.99999999999994</ele><time>2026-03-29T10:34:44Z</time></trkpt><trkpt lat="40.30736082814917" lon="15.065631813066808"><ele>404.0</ele><time>2026-03-29T10:34:45Z</time></trkpt><trkpt lat="40.30744539706483" lon="15.06569396472956"><ele>403.2</ele><time>2026-03-29T10:34:46Z</time></trkpt><trkpt lat="40.307523578968016" lon="15.065766073541766"><ele>402.4</ele><time>2026-03-29T10:34:47Z</time></trkpt><trkpt lat="40.30760205133152" lon="15.065841189123603"><ele>401.6</ele><time>2026-03-29T10:34:48Z</time></trkpt><trkpt lat="40.30768337514776" lon="15.065908841362464"><ele>400.8</ele><time>2026-03-29T10:34:48.999Z</time></trkpt><trkpt lat="40.30775230872959" lon="15.065968208132743"><ele>400.0</ele><time>2026-03-29T10:34:49.999Z</time></trkpt><trkpt lat="40.30784080630812" lon="15.066006701547225"><ele>400.0</ele><time>2026-03-29T10:34:50.999Z</time></trkpt><trkpt lat="40.30791592486294" lon="15.066048001911263"><ele>400.0</ele><time>2026-03-29T10:34:51.999Z</time></trkpt><trkpt lat="40.307988271675555" lon="15.06608661056191"><ele>400.0</ele><time>2026-03-29T10:34:52.999Z</time></trkpt><trkpt lat="40.30806908078339" lon="15.066125312533847"><ele>400.0</ele><time>2026-03-29T10:34:53.999Z</time></trkpt><trkpt lat="40.30816439436327" lon="15.066159129794986"><ele>400.0</ele><time>2026-03-29T10:34:54.999Z</time></trkpt><trkpt lat="40.308266637880095" lon="15.066192251881802"><ele>400.4</ele><time>2026-03-29T10:34:55.999Z</time></trkpt><trkpt lat="40.308365830171866" lon="15.066209125814577"><ele>400.8</ele><time>2026-03-29T10:34:56.999Z</time></trkpt><trkpt lat="40.30845574865291" lon="15.066208703064103"><ele>401.20000000000005</ele><time>2026-03-29T10:34:57.999Z</time></trkpt><trkpt lat="40.30856115770357" lon="15.066208662248071"><ele>401.6</ele><time>2026-03-29T10:34:58.999Z</time></trkpt><trkpt lat="40.30867001024949" lon="15.066185804828066"><ele>402.0</ele><time>2026-03-29T10:34:59.999Z</time></trkpt><trkpt lat="40.30878490371372" lon="15.066148957124064"><ele>402.0</ele><time>2026-03-29T10:35:00.999Z</time></trkpt><trkpt lat="40.30889275572785" lon="15.066115604531413"><ele>402.0</ele><time>2026-03-29T10:35:01.999Z</time></trkpt><trkpt lat="40.30900212320152" lon="15.06607452277504"><ele>402.0</ele><time>2026-03-29T10:35:02.999Z</time></trkpt><trkpt lat="40.309099765278134" lon="15.06602717433182"><ele>402.0</ele><time>2026-03-29T10:35:03.999Z</time></trkpt><trkpt lat="40.30918824589857" lon="15.065968185972082"><ele>402.0</ele><time>2026-03-29T10:35:04.999Z</time></trkpt><trkpt lat="40.309272189335246" lon="15.065912287042911"><ele>402.6666666666667</ele><time>2026-03-29T10:35:05.999Z</time></trkpt><trkpt lat="40.30935355951519" lon="15.065876184838958"><ele>403.33333333333337</ele><time>2026-03-29T10:35:06.999Z</time></trkpt><trkpt lat="40.30943608737779" lon="15.065877556138016"><ele>404.0</ele><time>2026-03-29T10:35:07.999Z</time></trkpt><trkpt lat="40.30950933707127" lon="15.065922765922425"><ele>404.6666666666667</ele><time>2026-03-29T10:35:08.999Z</time></trkpt><trkpt lat="40.3095663409214" lon="15.06601337214668"><ele>405.33333333333337</ele><time>2026-03-29T10:35:09.999Z</time></trkpt><trkpt lat="40.30961570325071" lon="15.066116330654939"><ele>406.0</ele><time>2026-03-29T10:35:10.999Z</time></trkpt><trkpt lat="40.30967687095385" lon="15.066193956042328"><ele>405.20000000000005</ele><time>2026-03-29T10:35:11.999Z</time></trkpt><trkpt lat="40.30975754520896" lon="15.066231937658374"><ele>404.40000000000003</ele><time>2026-03-29T10:35:12.999Z</time></trkpt><trkpt lat="40.30985669506762" lon="15.066218641296421"><ele>403.6</ele><time>2026-03-29T10:35:14Z</time></trkpt><trkpt lat="40.309952972452436" lon="15.066166903680092"><ele>402.8</ele><time>2026-03-29T10:35:15Z</time></trkpt><trkpt lat="40.310054115887354" lon="15.066096463433983"><ele>402.0</ele><time>2026-03-29T10:35:16Z</time></trkpt><trkpt lat="40.31016420485009" lon="15.06602218794012"><ele>402.0</ele><time>2026-03-29T10:35:17Z</time></trkpt><trkpt lat="40.31027219281584" lon="15.06594314015922"><ele>402.0</ele><time>2026-03-29T10:35:18Z</time></trkpt><trkpt lat="40.31036927559546" lon="15.065871511709855"><ele>402.0</ele><time>2026-03-29T10:35:19Z</time></trkpt><trkpt lat="40.31046481661221" lon="15.065814520453152"><ele>402.0</ele><time>2026-03-29T10:35:20Z</time></trkpt><trkpt lat="40.31056646336355" lon="15.065791659404148"><ele>402.0</ele><time>2026-03-29T10:35:21Z</time></trkpt><trkpt lat="40.31067297469518" lon="15.065803089451121"><ele>401.75</ele><time>2026-03-29T10:35:22Z</time></trkpt><trkpt lat="40.310790572364716" lon="15.065845860419754"><ele>401.5</ele><time>2026-03-29T10:35:23Z</time></trkpt><trkpt lat="40.31089815030613" lon="15.065939130298434"><ele>401.25</ele><time>2026-03-29T10:35:24Z</time></trkpt><trkpt lat="40.3110163369784" lon="15.065993346070417"><ele>401.0</ele><time>2026-03-29T10:35:25Z</time></trkpt><trkpt lat="40.311130262819695" lon="15.066051059891967"><ele>401.0</ele><time>2026-03-29T10:35:26Z</time></trkpt><trkpt lat="40.31124041687788" lon="15.066103712973291"><ele>401.0</ele><time>2026-03-29T10:35:27Z</time></trkpt><trkpt lat="40.31134595679009" lon="15.066176318886619"><ele>401.0</ele><time>2026-03-29T10:35:28Z</time></trkpt><trkpt lat="40.311437003944754" lon="15.066254223853301"><ele>401.0</ele><time>2026-03-29T10:35:29Z</time></trkpt><trkpt lat="40.311527716281574" lon="15.066321286994558"><ele>401.0</ele><time>2026-03-29T10:35:30Z</time></trkpt><trkpt lat="40.31162731795021" lon="15.066378251993365"><ele>397.75</ele><time>2026-03-29T10:35:31Z</time></trkpt><trkpt lat="40.31173184146846" lon="15.066427435494198"><ele>394.5</ele><time>2026-03-29T10:35:32Z</time></trkpt><trkpt lat="40.311845449926025" lon="15.066462856959712"><ele>391.25</ele><time>2026-03-29T10:35:33Z</time></trkpt><trkpt lat="40.311969740580345" lon="15.066464334753572"><ele>388.0</ele><time>2026-03-29T10:35:34Z</time></trkpt><trkpt lat="40.31210390010311" lon="15.066466085458002"><ele>388.0</ele><time>2026-03-29T10:35:35Z</time></trkpt><trkpt lat="40.31223529543687" lon="15.066457088026542"><ele>388.0</ele><time>2026-03-29T10:35:36Z</time></trkpt><trkpt lat="40.31234495091655" lon="15.066424937071154"><ele>388.0</ele><time>2026-03-29T10:35:37Z</time></trkpt><trkpt lat="40.31246344245236" lon="15.066376393744527"><ele>388.0</ele><time>2026-03-29T10:35:38Z</time></trkpt><trkpt lat="40.31258433697091" lon="15.06630641761802"><ele>387.5</ele><time>2026-03-29T10:35:39Z</time></trkpt><trkpt lat="40.31269267559607" lon="15.066226740770354"><ele>387.0</ele><time>2026-03-29T10:35:40Z</time></trkpt><trkpt lat="40.312796973914466" lon="15.066131106644152"><ele>386.5</ele><time>2026-03-29T10:35:41Z</time></trkpt><trkpt lat="40.312902492446526" lon="15.066035996911145"><ele>386.0</ele><time>2026-03-29T10:35:42Z</time></trkpt><trkpt lat="40.31299719031575" lon="15.065923155733694"><ele>385.5</ele><time>2026-03-29T10:35:43Z</time></trkpt><trkpt lat="40.31309204799958" lon="15.065790525121074"><ele>385.0</ele><time>2026-03-29T10:35:44Z</time></trkpt><trkpt lat="40.31317931483527" lon="15.065673747998394"><ele>384.5</ele><time>2026-03-29T10:35:45Z</time></trkpt><trkpt lat="40.31325528320797" lon="15.065540385118789"><ele>384.0</ele><time>2026-03-29T10:35:46Z</time></trkpt><trkpt lat="40.31333218491082" lon="15.065390715964812"><ele>384.0</ele><time>2026-03-29T10:35:47Z</time></trkpt><trkpt lat="40.31340338556938" lon="15.065258472612085"><ele>384.0</ele><time>2026-03-29T10:35:48Z</time></trkpt><trkpt lat="40.31347247631445" lon="15.065117666725142"><ele>384.0</ele><time>2026-03-29T10:35:49Z</time></trkpt><trkpt lat="40.31353947670337" lon="15.064964834256875"><ele>384.0</ele><time>2026-03-29T10:35:50Z</time></trkpt><trkpt lat="40.31359530236263" lon="15.06483149790222"><ele>382.79999999999995</ele><time>2026-03-29T10:35:51Z</time></trkpt><trkpt lat="40.313644230943616" lon="15.064702688187111"><ele>381.59999999999997</ele><time>2026-03-29T10:35:52Z</time></trkpt><trkpt lat="40.313662311787326" lon="15.06457391262562"><ele>380.4</ele><time>2026-03-29T10:35:53Z</time></trkpt><trkpt lat="40.31365966564546" lon="15.064434750954439"><ele>379.2</ele><time>2026-03-29T10:35:54Z</time></trkpt><trkpt lat="40.313643320831204" lon="15.064285666990942"><ele>378.0</ele><time>2026-03-29T10:35:55Z</time></trkpt><trkpt lat="40.313619125270584" lon="15.06411613251322"><ele>375.75</ele><time>2026-03-29T10:35:56Z</time></trkpt><trkpt lat="40.3136014621872" lon="15.063946217641515"><ele>373.5</ele><time>2026-03-29T10:35:57Z</time></trkpt><trkpt lat="40.313598856100086" lon="15.063778444725406"><ele>371.25</ele><time>2026-03-29T10:35:58Z</time></trkpt><trkpt lat="40.31360625400822" lon="15.063615109882011"><ele>369.0</ele><time>2026-03-29T10:35:59Z</time></trkpt><trkpt lat="40.31364792707062" lon="15.063459353887053"><ele>369.0</ele><time>2026-03-29T10:36:00Z</time></trkpt><trkpt lat="40.31371169817262" lon="15.063313577496453"><ele>369.0</ele><time>2026-03-29T10:36:01Z</time></trkpt><trkpt lat="40.313797339480544" lon="15.063178023468309"><ele>369.0</ele><time>2026-03-29T10:36:02Z</time></trkpt><trkpt lat="40.31388225784255" lon="15.063044494956888"><ele>369.0</ele><time>2026-03-29T10:36:03Z</time></trkpt><trkpt lat="40.31396155335082" lon="15.062922849429047"><ele>369.6</ele><time>2026-03-29T10:36:04Z</time></trkpt><trkpt lat="40.314036484877526" lon="15.06279662418332"><ele>370.2</ele><time>2026-03-29T10:36:05Z</time></trkpt><trkpt lat="40.314110559546705" lon="15.062676639570556"><ele>370.8</ele><time>2026-03-29T10:36:06Z</time></trkpt><trkpt lat="40.31418077871827" lon="15.062569975407532"><ele>371.40000000000003</ele><time>2026-03-29T10:36:07Z</time></trkpt><trkpt lat="40.314262610393556" lon="15.062503795355493"><ele>372.0</ele><time>2026-03-29T10:36:08Z</time></trkpt><trkpt lat="40.31436424191934" lon="15.062484877276798"><ele>372.0</ele><time>2026-03-29T10:36:09Z</time></trkpt><trkpt lat="40.314474036528175" lon="15.062485401369884"><ele>372.0</ele><time>2026-03-29T10:36:10Z</time></trkpt><trkpt lat="40.314591004229875" lon="15.0624803515573"><ele>372.0</ele><time>2026-03-29T10:36:11Z</time></trkpt><trkpt lat="40.31470570198253" lon="15.06248338055195"><ele>372.0</ele><time>2026-03-29T10:36:12Z</time></trkpt><trkpt lat="40.314813250620126" lon="15.062485093404563"><ele>372.0</ele><time>2026-03-29T10:36:13Z</time></trkpt><trkpt lat="40.31492473036453" lon="15.062511421588137"><ele>372.0</ele><time>2026-03-29T10:36:14Z</time></trkpt><trkpt lat="40.315035747823146" lon="15.062531181672695"><ele>372.0</ele><time>2026-03-29T10:36:15Z</time></trkpt><trkpt lat="40.31514016012654" lon="15.0625508136674"><ele>372.0</ele><time>2026-03-29T10:36:16Z</time></trkpt><trkpt lat="40.31524677481426" lon="15.062567341204403"><ele>372.0</ele><time>2026-03-29T10:36:17Z</time></trkpt><trkpt lat="40.31535567359822" lon="15.062574912580985"><ele>372.0</ele><time>2026-03-29T10:36:18Z</time></trkpt><trkpt lat="40.31545371442921" lon="15.062577414479897"><ele>370.6</ele><time>2026-03-29T10:36:19Z</time></trkpt><trkpt lat="40.31557041062798" lon="15.062538579863748"><ele>369.20000000000005</ele><time>2026-03-29T10:36:20Z</time></trkpt><trkpt lat="40.3156427547429" lon="15.06249531285218"><ele>367.8</ele><time>2026-03-29T10:36:21Z</time></trkpt><trkpt lat="40.31572229177063" lon="15.062435047463737"><ele>366.4</ele><time>2026-03-29T10:36:22Z</time></trkpt><trkpt lat="40.31579712493576" lon="15.062350184684387"><ele>365.0</ele><time>2026-03-29T10:36:23Z</time></trkpt><trkpt lat="40.31587470674018" lon="15.06228049882154"><ele>364.0</ele><time>2026-03-29T10:36:24Z</time></trkpt><trkpt lat="40.3159496884692" lon="15.06221752019533"><ele>363.0</ele><time>2026-03-29T10:36:25Z</time></trkpt><trkpt lat="40.316026544489105" lon="15.062167998346757"><ele>362.0</ele><time>2026-03-29T10:36:26Z</time></trkpt><trkpt lat="40.3161162037772" lon="15.062148204585515"><ele>361.0</ele><time>2026-03-29T10:36:27Z</time></trkpt><trkpt lat="40.31620161814367" lon="15.062127709978279"><ele>360.0</ele><time>2026-03-29T10:36:28Z</time></trkpt><trkpt lat="40.316280389968746" lon="15.06208848763871"><ele>359.0</ele><time>2026-03-29T10:36:29Z</time></trkpt><trkpt lat="40.31636276627356" lon="15.06206928349334"><ele>360.25</ele><time>2026-03-29T10:36:30Z</time></trkpt><trkpt lat="40.316448883639666" lon="15.062017140062274"><ele>361.5</ele><time>2026-03-29T10:36:31Z</time></trkpt><trkpt lat="40.31653868940646" lon="15.061983015690418"><ele>362.75</ele><time>2026-03-29T10:36:32Z</time></trkpt><trkpt lat="40.316653101552205" lon="15.06188212593644"><ele>364.0</ele><time>2026-03-29T10:36:33Z</time></trkpt><trkpt lat="40.31676649090672" lon="15.061779545225415"><ele>364.0</ele><time>2026-03-29T10:36:34Z</time></trkpt><trkpt lat="40.3168716032044" lon="15.061684452708844"><ele>364.0</ele><time>2026-03-29T10:36:35Z</time></trkpt><trkpt lat="40.316973485992094" lon="15.061568599874768"><ele>364.0</ele><time>2026-03-29T10:36:36Z</time></trkpt><trkpt lat="40.31708978744407" lon="15.061478207446857"><ele>364.0</ele><time>2026-03-29T10:36:37Z</time></trkpt><trkpt lat="40.31719742381441" lon="15.061391571647631"><ele>365.0</ele><time>2026-03-29T10:36:38Z</time></trkpt><trkpt lat="40.31731039447882" lon="15.061312483927614"><ele>366.0</ele><time>2026-03-29T10:36:39Z</time></trkpt><trkpt lat="40.31744102244256" lon="15.061287459621118"><ele>367.0</ele><time>2026-03-29T10:36:40Z</time></trkpt><trkpt lat="40.31757247994328" lon="15.061280866339022"><ele>368.0</ele><time>2026-03-29T10:36:41Z</time></trkpt><trkpt lat="40.317708723345596" lon="15.061266947793811"><ele>368.0</ele><time>2026-03-29T10:36:42Z</time></trkpt><trkpt lat="40.31784810525442" lon="15.0612585041061"><ele>368.0</ele><time>2026-03-29T10:36:43Z</time></trkpt><trkpt lat="40.31798010860078" lon="15.06122639148179"><ele>368.0</ele><time>2026-03-29T10:36:44Z</time></trkpt><trkpt lat="40.318097951133666" lon="15.06116642567703"><ele>368.0</ele><time>2026-03-29T10:36:45Z</time></trkpt><trkpt lat="40.3182059723574" lon="15.061088268613707"><ele>367.0</ele><time>2026-03-29T10:36:46Z</time></trkpt><trkpt lat="40.31831806108847" lon="15.061002687530372"><ele>366.0</ele><time>2026-03-29T10:36:47Z</time></trkpt><trkpt lat="40.31844427762711" lon="15.060936884623796"><ele>365.0</ele><time>2026-03-29T10:36:48Z</time></trkpt><trkpt lat="40.318583115628456" lon="15.060900948587847"><ele>364.0</ele><time>2026-03-29T10:36:49Z</time></trkpt><trkpt lat="40.3187180050045" lon="15.060884162975796"><ele>364.0</ele><time>2026-03-29T10:36:50Z</time></trkpt><trkpt lat="40.318861664994884" lon="15.060888177029598"><ele>364.0</ele><time>2026-03-29T10:36:51Z</time></trkpt><trkpt lat="40.319011549510186" lon="15.060905282165779"><ele>364.0</ele><time>2026-03-29T10:36:52Z</time></trkpt><trkpt lat="40.3191584321405" lon="15.060913193059212"><ele>364.0</ele><time>2026-03-29T10:36:53Z</time></trkpt><trkpt lat="40.31929802958322" lon="15.060908518825064"><ele>362.66666666666663</ele><time>2026-03-29T10:36:54Z</time></trkpt><trkpt lat="40.31944276011579" lon="15.060899108453391"><ele>361.3333333333333</ele><time>2026-03-29T10:36:54.999Z</time></trkpt><trkpt lat="40.3195914227492" lon="15.060878973366227"><ele>360.0</ele><time>2026-03-29T10:36:55.999Z</time></trkpt><trkpt lat="40.31974212823391" lon="15.060824702557682"><ele>359.5</ele><time>2026-03-29T10:36:56.999Z</time></trkpt><trkpt lat="40.319888456785066" lon="15.06079306413164"><ele>359.0</ele><time>2026-03-29T10:36:57.999Z</time></trkpt><trkpt lat="40.32002844476414" lon="15.060749707514573"><ele>358.5</ele><time>2026-03-29T10:36:58.999Z</time></trkpt><trkpt lat="40.320178439559214" lon="15.060725450027899"><ele>358.0</ele><time>2026-03-29T10:36:59.999Z</time></trkpt><trkpt lat="40.32031463320928" lon="15.060695912870013"><ele>363.75</ele><time>2026-03-29T10:37:00.999Z</time></trkpt><trkpt lat="40.32046579617354" lon="15.060666433240542"><ele>369.5</ele><time>2026-03-29T10:37:01.999Z</time></trkpt><trkpt lat="40.32061163119304" lon="15.060654655052133"><ele>375.25</ele><time>2026-03-29T10:37:02.999Z</time></trkpt><trkpt lat="40.32075741546858" lon="15.06066666683499"><ele>381.0</ele><time>2026-03-29T10:37:03.999Z</time></trkpt><trkpt lat="40.320893717145005" lon="15.060699618166916"><ele>381.0</ele><time>2026-03-29T10:37:04.999Z</time></trkpt><trkpt lat="40.32102091338119" lon="15.060766067604641"><ele>381.0</ele><time>2026-03-29T10:37:05.999Z</time></trkpt><trkpt lat="40.321142189950145" lon="15.060847407374697"><ele>381.0</ele><time>2026-03-29T10:37:06.999Z</time></trkpt><trkpt lat="40.321261339700456" lon="15.06094703722539"><ele>381.0</ele><time>2026-03-29T10:37:07.999Z</time></trkpt><trkpt lat="40.32138463209811" lon="15.061055085724819"><ele>374.5</ele><time>2026-03-29T10:37:08.999Z</time></trkpt><trkpt lat="40.32149883685174" lon="15.061156966635844"><ele>368.0</ele><time>2026-03-29T10:37:09.999Z</time></trkpt><trkpt lat="40.321613285603846" lon="15.06123355171265"><ele>361.5</ele><time>2026-03-29T10:37:10.999Z</time></trkpt><trkpt lat="40.321741051194955" lon="15.061286976677888"><ele>355.0</ele><time>2026-03-29T10:37:11.999Z</time></trkpt><trkpt lat="40.32187202275144" lon="15.061307385903465"><ele>355.0</ele><time>2026-03-29T10:37:12.999Z</time></trkpt><trkpt lat="40.32200676556002" lon="15.061294638534758"><ele>355.0</ele><time>2026-03-29T10:37:13.999Z</time></trkpt><trkpt lat="40.3221308314066" lon="15.061260136320609"><ele>355.0</ele><time>2026-03-29T10:37:14.999Z</time></trkpt><trkpt lat="40.32224471604763" lon="15.061208547242483"><ele>355.0</ele><time>2026-03-29T10:37:15.999Z</time></trkpt><trkpt lat="40.322356068946696" lon="15.061164157285692"><ele>355.0</ele><time>2026-03-29T10:37:16.999Z</time></trkpt><trkpt lat="40.3224722086311" lon="15.061165694848418"><ele>355.0</ele><time>2026-03-29T10:37:18Z</time></trkpt><trkpt lat="40.3225695182196" lon="15.061243716482954"><ele>355.0</ele><time>2026-03-29T10:37:19Z</time></trkpt><trkpt lat="40.32265800525235" lon="15.061323104587235"><ele>355.0</ele><time>2026-03-29T10:37:20Z</time></trkpt><trkpt lat="40.32274011496621" lon="15.06141181325758"><ele>355.0</ele><time>2026-03-29T10:37:21Z</time></trkpt><trkpt lat="40.32281148548384" lon="15.061543728936423"><ele>351.25</ele><time>2026-03-29T10:37:22Z</time></trkpt><trkpt lat="40.32288150514261" lon="15.061691865860485"><ele>347.5</ele><time>2026-03-29T10:37:23Z</time></trkpt><trkpt lat="40.3229528914975" lon="15.061838308349905"><ele>343.75</ele><time>2026-03-29T10:37:24Z</time></trkpt><trkpt lat="40.323022503730236" lon="15.061993007984507"><ele>340.0</ele><time>2026-03-29T10:37:25Z</time></trkpt><trkpt lat="40.32308697453642" lon="15.062142012435455"><ele>340.0</ele><time>2026-03-29T10:37:26Z</time></trkpt><trkpt lat="40.32315128956326" lon="15.062275525512874"><ele>340.0</ele><time>2026-03-29T10:37:27Z</time></trkpt><trkpt lat="40.32322658032004" lon="15.062403116351216"><ele>340.0</ele><time>2026-03-29T10:37:28Z</time></trkpt><trkpt lat="40.3233138317233" lon="15.062521319718925"><ele>340.0</ele><time>2026-03-29T10:37:29Z</time></trkpt><trkpt lat="40.32341343762143" lon="15.062620345663483"><ele>340.0</ele><time>2026-03-29T10:37:30Z</time></trkpt><trkpt lat="40.32351802770249" lon="15.062709558161757"><ele>340.0</ele><time>2026-03-29T10:37:31Z</time></trkpt><trkpt lat="40.323620659406046" lon="15.062783814382803"><ele>340.0</ele><time>2026-03-29T10:37:32Z</time></trkpt><trkpt lat="40.32371607372342" lon="15.062884565610114"><ele>340.0</ele><time>2026-03-29T10:37:33Z</time></trkpt><trkpt lat="40.323811830110344" lon="15.062980888590776"><ele>340.0</ele><time>2026-03-29T10:37:34Z</time></trkpt><trkpt lat="40.323884318166925" lon="15.06309910062871"><ele>340.0</ele><time>2026-03-29T10:37:35Z</time></trkpt><trkpt lat="40.323960627693886" lon="15.063224643959053"><ele>340.0</ele><time>2026-03-29T10:37:36Z</time></trkpt><trkpt lat="40.32404504677858" lon="15.06334120207845"><ele>340.0</ele><time>2026-03-29T10:37:37Z</time></trkpt><trkpt lat="40.324127388958246" lon="15.063469110218554"><ele>339.0</ele><time>2026-03-29T10:37:38Z</time></trkpt><trkpt lat="40.32422315336206" lon="15.063581899645401"><ele>338.0</ele><time>2026-03-29T10:37:39Z</time></trkpt><trkpt lat="40.32433123375111" lon="15.063670430383251"><ele>337.0</ele><time>2026-03-29T10:37:40Z</time></trkpt><trkpt lat="40.324448851281765" lon="15.063743304030208"><ele>336.0</ele><time>2026-03-29T10:37:41Z</time></trkpt><trkpt lat="40.32457225731506" lon="15.063802961791733"><ele>336.0</ele><time>2026-03-29T10:37:42Z</time></trkpt><trkpt lat="40.32468463758773" lon="15.063887108017463"><ele>336.0</ele><time>2026-03-29T10:37:43Z</time></trkpt><trkpt lat="40.324806882565056" lon="15.063941011746568"><ele>336.0</ele><time>2026-03-29T10:37:44Z</time></trkpt><trkpt lat="40.324923003169225" lon="15.06401133050985"><ele>336.0</ele><time>2026-03-29T10:37:45Z</time></trkpt><trkpt lat="40.325049171471996" lon="15.064080050836806"><ele>337.75</ele><time>2026-03-29T10:37:46Z</time></trkpt><trkpt lat="40.32516941008199" lon="15.064147671400548"><ele>339.5</ele><time>2026-03-29T10:37:47Z</time></trkpt><trkpt lat="40.325295282296544" lon="15.064190824916446"><ele>341.25</ele><time>2026-03-29T10:37:48Z</time></trkpt><trkpt lat="40.32541693470863" lon="15.06422817992218"><ele>343.0</ele><time>2026-03-29T10:37:49Z</time></trkpt><trkpt lat="40.3255424956012" lon="15.064270196650092"><ele>345.0</ele><time>2026-03-29T10:37:50Z</time></trkpt><trkpt lat="40.32566723181542" lon="15.064312477250025"><ele>347.0</ele><time>2026-03-29T10:37:51Z</time></trkpt><trkpt lat="40.325798792880974" lon="15.064345187196835"><ele>349.0</ele><time>2026-03-29T10:37:52Z</time></trkpt><trkpt lat="40.32592342988542" lon="15.064390410068743"><ele>351.0</ele><time>2026-03-29T10:37:53Z</time></trkpt><trkpt lat="40.32604508869951" lon="15.064433474100273"><ele>351.0</ele><time>2026-03-29T10:37:54Z</time></trkpt><trkpt lat="40.32616393803928" lon="15.064494298903568"><ele>351.0</ele><time>2026-03-29T10:37:55Z</time></trkpt><trkpt lat="40.326280283630844" lon="15.06456984321873"><ele>351.0</ele><time>2026-03-29T10:37:56Z</time></trkpt><trkpt lat="40.326391936750554" lon="15.064658695747852"><ele>351.0</ele><time>2026-03-29T10:37:57Z</time></trkpt><trkpt lat="40.32650685977273" lon="15.064749313469466"><ele>350.5</ele><time>2026-03-29T10:37:58Z</time></trkpt><trkpt lat="40.32661684694068" lon="15.064836767448705"><ele>350.0</ele><time>2026-03-29T10:37:59Z</time></trkpt><trkpt lat="40.32673883925745" lon="15.064915457508404"><ele>349.5</ele><time>2026-03-29T10:38:00Z</time></trkpt><trkpt lat="40.326862262437615" lon="15.064998641024902"><ele>349.0</ele><time>2026-03-29T10:38:01Z</time></trkpt><trkpt lat="40.326985666019695" lon="15.065083386841915"><ele>348.25</ele><time>2026-03-29T10:38:02Z</time></trkpt><trkpt lat="40.32710928571379" lon="15.065176581143653"><ele>347.5</ele><time>2026-03-29T10:38:03Z</time></trkpt><trkpt lat="40.327240998711474" lon="15.065258690181464"><ele>346.75</ele><time>2026-03-29T10:38:04Z</time></trkpt><trkpt lat="40.327360555358254" lon="15.065348558595883"><ele>346.0</ele><time>2026-03-29T10:38:05Z</time></trkpt><trkpt lat="40.327480939159706" lon="15.065433448260233"><ele>346.0</ele><time>2026-03-29T10:38:06Z</time></trkpt><trkpt lat="40.327607468009354" lon="15.065521399030924"><ele>346.0</ele><time>2026-03-29T10:38:07Z</time></trkpt><trkpt lat="40.327744233205294" lon="15.065596187373792"><ele>346.0</ele><time>2026-03-29T10:38:08Z</time></trkpt><trkpt lat="40.327889815404525" lon="15.065683476532387"><ele>346.0</ele><time>2026-03-29T10:38:09Z</time></trkpt><trkpt lat="40.328045911158505" lon="15.065740725952775"><ele>346.0</ele><time>2026-03-29T10:38:10Z</time></trkpt><trkpt lat="40.32820477019702" lon="15.06583060629171"><ele>346.0</ele><time>2026-03-29T10:38:11Z</time></trkpt><trkpt lat="40.32836491062562" lon="15.065902294621072"><ele>352.0</ele><time>2026-03-29T10:38:12Z</time></trkpt><trkpt lat="40.328521852815456" lon="15.065982790609656"><ele>358.0</ele><time>2026-03-29T10:38:13Z</time></trkpt><trkpt lat="40.32866634099138" lon="15.066057628465968"><ele>364.0</ele><time>2026-03-29T10:38:14Z</time></trkpt><trkpt lat="40.328808902507184" lon="15.06614463883342"><ele>361.75</ele><time>2026-03-29T10:38:15Z</time></trkpt><trkpt lat="40.32893812918124" lon="15.066220061547066"><ele>359.5</ele><time>2026-03-29T10:38:16Z</time></trkpt><trkpt lat="40.329064362534496" lon="15.066287178654502"><ele>357.25</ele><time>2026-03-29T10:38:17Z</time></trkpt><trkpt lat="40.32919986700629" lon="15.066342121137993"><ele>355.0</ele><time>2026-03-29T10:38:18Z</time></trkpt><trkpt lat="40.32932770877244" lon="15.066382293450708"><ele>355.0</ele><time>2026-03-29T10:38:19Z</time></trkpt><trkpt lat="40.329445960165856" lon="15.0664133152878"><ele>355.0</ele><time>2026-03-29T10:38:20Z</time></trkpt><trkpt lat="40.32954811121896" lon="15.06643789354142"><ele>355.0</ele><time>2026-03-29T10:38:21Z</time></trkpt><trkpt lat="40.32963124648187" lon="15.066468677516063"><ele>355.0</ele><time>2026-03-29T10:38:22Z</time></trkpt><trkpt lat="40.32968407273459" lon="15.066578387418083"><ele>355.0</ele><time>2026-03-29T10:38:24Z</time></trkpt><trkpt lat="40.32958443971525" lon="15.066656557130534"><ele>355.0</ele><time>2026-03-29T10:38:26Z</time></trkpt><trkpt lat="40.329520752684914" lon="15.066600120158208"><ele>355.0</ele><time>2026-03-29T10:38:27Z</time></trkpt><trkpt lat="40.329437991111554" lon="15.066587993358333"><ele>355.0</ele><time>2026-03-29T10:38:28Z</time></trkpt><trkpt lat="40.3293454429028" lon="15.066546770588698"><ele>355.0</ele><time>2026-03-29T10:38:29Z</time></trkpt><trkpt lat="40.329233883490296" lon="15.066517075270683"><ele>355.0</ele><time>2026-03-29T10:38:30Z</time></trkpt><trkpt lat="40.329115545079944" lon="15.066488110795097"><ele>355.0</ele><time>2026-03-29T10:38:31Z</time></trkpt><trkpt lat="40.329006427530935" lon="15.066463782353427"><ele>355.0</ele><time>2026-03-29T10:38:32Z</time></trkpt><trkpt lat="40.3288896555898" lon="15.066432971552281"><ele>355.0</ele><time>2026-03-29T10:38:33Z</time></trkpt><trkpt lat="40.32876113369385" lon="15.06639522902155"><ele>355.0</ele><time>2026-03-29T10:38:34Z</time></trkpt><trkpt lat="40.32863153722768" lon="15.066356845336207"><ele>357.25</ele><time>2026-03-29T10:38:35Z</time></trkpt><trkpt lat="40.32851192477373" lon="15.066333628838937"><ele>359.5</ele><time>2026-03-29T10:38:36Z</time></trkpt><trkpt lat="40.3283849171059" lon="15.066300321874794"><ele>361.75</ele><time>2026-03-29T10:38:37Z</time></trkpt><trkpt lat="40.32825157417902" lon="15.066281228321827"><ele>364.0</ele><time>2026-03-29T10:38:38Z</time></trkpt><trkpt lat="40.32812785449367" lon="15.06627350966945"><ele>366.0</ele><time>2026-03-29T10:38:39Z</time></trkpt><trkpt lat="40.3280175249517" lon="15.06628853442225"><ele>368.0</ele><time>2026-03-29T10:38:40Z</time></trkpt><trkpt lat="40.32792185706572" lon="15.06629909816451"><ele>370.0</ele><time>2026-03-29T10:38:41Z</time></trkpt><trkpt lat="40.327831775953825" lon="15.066304255561676"><ele>372.0</ele><time>2026-03-29T10:38:42Z</time></trkpt><trkpt lat="40.327757339228604" lon="15.06632074218971"><ele>374.0</ele><time>2026-03-29T10:38:43Z</time></trkpt><trkpt lat="40.32769408902573" lon="15.066459446114116"><ele>374.0</ele><time>2026-03-29T10:38:45Z</time></trkpt><trkpt lat="40.32772126648027" lon="15.066536609766016"><ele>374.0</ele><time>2026-03-29T10:38:46Z</time></trkpt><trkpt lat="40.32778709594364" lon="15.066577486283338"><ele>374.0</ele><time>2026-03-29T10:38:47Z</time></trkpt><trkpt lat="40.32786810523387" lon="15.066575366709015"><ele>374.0</ele><time>2026-03-29T10:38:48Z</time></trkpt><trkpt lat="40.32795742127939" lon="15.066562050430905"><ele>374.0</ele><time>2026-03-29T10:38:49Z</time></trkpt><trkpt lat="40.32805952875565" lon="15.066551993843136"><ele>374.0</ele><time>2026-03-29T10:38:50Z</time></trkpt><trkpt lat="40.32817157690561" lon="15.066561944432442"><ele>371.5</ele><time>2026-03-29T10:38:51Z</time></trkpt><trkpt lat="40.32827813590201" lon="15.066590555896079"><ele>369.0</ele><time>2026-03-29T10:38:52Z</time></trkpt><trkpt lat="40.32838575357426" lon="15.066622342332973"><ele>366.5</ele><time>2026-03-29T10:38:53Z</time></trkpt><trkpt lat="40.32849540565814" lon="15.066676746265287"><ele>364.0</ele><time>2026-03-29T10:38:54Z</time></trkpt><trkpt lat="40.32861096360225" lon="15.06675113154502"><ele>367.5</ele><time>2026-03-29T10:38:55Z</time></trkpt><trkpt lat="40.328731673207585" lon="15.066831399478271"><ele>371.0</ele><time>2026-03-29T10:38:56Z</time></trkpt><trkpt lat="40.32885500405212" lon="15.066899273967497"><ele>374.5</ele><time>2026-03-29T10:38:57Z</time></trkpt><trkpt lat="40.32897050670343" lon="15.06698092882703"><ele>378.0</ele><time>2026-03-29T10:38:58Z</time></trkpt><trkpt lat="40.329088847957394" lon="15.067072442931282"><ele>378.0</ele><time>2026-03-29T10:38:59Z</time></trkpt><trkpt lat="40.329198271421426" lon="15.06716804574988"><ele>378.0</ele><time>2026-03-29T10:39:00Z</time></trkpt><trkpt lat="40.32930726417871" lon="15.06725808797493"><ele>378.0</ele><time>2026-03-29T10:39:01Z</time></trkpt><trkpt lat="40.32942829785614" lon="15.06733796155766"><ele>378.0</ele><time>2026-03-29T10:39:02Z</time></trkpt><trkpt lat="40.32958525810851" lon="15.067371934822306"><ele>378.0</ele><time>2026-03-29T10:39:03Z</time></trkpt><trkpt lat="40.329712062964795" lon="15.067423467905549"><ele>378.0</ele><time>2026-03-29T10:39:04Z</time></trkpt><trkpt lat="40.32985056601964" lon="15.06746471218263"><ele>378.0</ele><time>2026-03-29T10:39:05Z</time></trkpt><trkpt lat="40.329985834986545" lon="15.067507975075584"><ele>378.0</ele><time>2026-03-29T10:39:06Z</time></trkpt><trkpt lat="40.33012753583451" lon="15.067536256398586"><ele>381.5</ele><time>2026-03-29T10:39:07Z</time></trkpt><trkpt lat="40.33027117919739" lon="15.06753675724835"><ele>385.0</ele><time>2026-03-29T10:39:08Z</time></trkpt><trkpt lat="40.33041569105617" lon="15.067514634358147"><ele>388.5</ele><time>2026-03-29T10:39:09Z</time></trkpt><trkpt lat="40.330564198468466" lon="15.067489409757442"><ele>392.0</ele><time>2026-03-29T10:39:10Z</time></trkpt><trkpt lat="40.33070464578533" lon="15.067444584394261"><ele>387.3333333333333</ele><time>2026-03-29T10:39:11Z</time></trkpt><trkpt lat="40.330842062334895" lon="15.06737317340626"><ele>382.66666666666663</ele><time>2026-03-29T10:39:12Z</time></trkpt><trkpt lat="40.33098343061518" lon="15.067277731029172"><ele>378.0</ele><time>2026-03-29T10:39:13Z</time></trkpt><trkpt lat="40.33112602299867" lon="15.067180124641249"><ele>378.0</ele><time>2026-03-29T10:39:14Z</time></trkpt><trkpt lat="40.331271961655524" lon="15.067102180830146"><ele>378.0</ele><time>2026-03-29T10:39:15Z</time></trkpt><trkpt lat="40.33141961376359" lon="15.06704863753256"><ele>378.0</ele><time>2026-03-29T10:39:16Z</time></trkpt><trkpt lat="40.33156635890741" lon="15.066994705173316"><ele>382.33333333333337</ele><time>2026-03-29T10:39:17Z</time></trkpt><trkpt lat="40.331710515058425" lon="15.066913042459053"><ele>386.6666666666667</ele><time>2026-03-29T10:39:18Z</time></trkpt><trkpt lat="40.33185370806644" lon="15.066827935521767"><ele>391.0</ele><time>2026-03-29T10:39:19Z</time></trkpt><trkpt lat="40.332005543463715" lon="15.066757977839902"><ele>391.0</ele><time>2026-03-29T10:39:20Z</time></trkpt><trkpt lat="40.33216494193603" lon="15.066695869574263"><ele>391.0</ele><time>2026-03-29T10:39:21Z</time></trkpt><trkpt lat="40.33232993765935" lon="15.066615629200703"><ele>391.0</ele><time>2026-03-29T10:39:22Z</time></trkpt><trkpt lat="40.33249041349362" lon="15.066522116453797"><ele>385.33333333333337</ele><time>2026-03-29T10:39:23Z</time></trkpt><trkpt lat="40.332659151724016" lon="15.066461722029695"><ele>379.6666666666667</ele><time>2026-03-29T10:39:24Z</time></trkpt><trkpt lat="40.33281433664838" lon="15.066408021630236"><ele>374.0</ele><time>2026-03-29T10:39:25Z</time></trkpt><trkpt lat="40.33297501676956" lon="15.066378142135624"><ele>377.0</ele><time>2026-03-29T10:39:26Z</time></trkpt><trkpt lat="40.33314660692869" lon="15.066366559792304"><ele>380.0</ele><time>2026-03-29T10:39:27Z</time></trkpt><trkpt lat="40.333316465334896" lon="15.066348365681897"><ele>383.0</ele><time>2026-03-29T10:39:28Z</time></trkpt><trkpt lat="40.333486520154715" lon="15.066344052345114"><ele>383.0</ele><time>2026-03-29T10:39:29Z</time></trkpt><trkpt lat="40.3336654078137" lon="15.06631673581488"><ele>383.0</ele><time>2026-03-29T10:39:30Z</time></trkpt><trkpt lat="40.333844160842865" lon="15.066316751206436"><ele>383.0</ele><time>2026-03-29T10:39:31Z</time></trkpt><trkpt lat="40.334016701993434" lon="15.066282187342658"><ele>385.33333333333337</ele><time>2026-03-29T10:39:32Z</time></trkpt><trkpt lat="40.334182200439365" lon="15.066261907517076"><ele>387.6666666666667</ele><time>2026-03-29T10:39:33Z</time></trkpt><trkpt lat="40.33434400479839" lon="15.066226784435168"><ele>390.0</ele><time>2026-03-29T10:39:34Z</time></trkpt><trkpt lat="40.3345066186142" lon="15.066176938770278"><ele>390.0</ele><time>2026-03-29T10:39:35Z</time></trkpt><trkpt lat="40.3346636906509" lon="15.066118677135249"><ele>390.0</ele><time>2026-03-29T10:39:36Z</time></trkpt><trkpt lat="40.334806202057656" lon="15.066056842142798"><ele>390.0</ele><time>2026-03-29T10:39:37Z</time></trkpt><trkpt lat="40.33493870789849" lon="15.066011205050447"><ele>393.25</ele><time>2026-03-29T10:39:38Z</time></trkpt><trkpt lat="40.335078256408785" lon="15.065948613149567"><ele>396.5</ele><time>2026-03-29T10:39:39Z</time></trkpt><trkpt lat="40.335214137552704" lon="15.065899087257256"><ele>399.75</ele><time>2026-03-29T10:39:40Z</time></trkpt><trkpt lat="40.33534407272441" lon="15.065845575902673"><ele>403.0</ele><time>2026-03-29T10:39:41Z</time></trkpt><trkpt lat="40.3354812744107" lon="15.065792248989046"><ele>405.75</ele><time>2026-03-29T10:39:42Z</time></trkpt><trkpt lat="40.335609435255556" lon="15.065736577934441"><ele>408.5</ele><time>2026-03-29T10:39:43Z</time></trkpt><trkpt lat="40.33573460945936" lon="15.065679518613644"><ele>411.25</ele><time>2026-03-29T10:39:44Z</time></trkpt><trkpt lat="40.335852245830466" lon="15.065643972441686"><ele>414.0</ele><time>2026-03-29T10:39:45Z</time></trkpt><trkpt lat="40.33595958710527" lon="15.065596353770609"><ele>414.0</ele><time>2026-03-29T10:39:46Z</time></trkpt><trkpt lat="40.336063140104635" lon="15.065552043767207"><ele>414.0</ele><time>2026-03-29T10:39:47Z</time></trkpt><trkpt lat="40.33616820441839" lon="15.065516647594503"><ele>414.0</ele><time>2026-03-29T10:39:48Z</time></trkpt><trkpt lat="40.33628150381918" lon="15.065463051985352"><ele>414.0</ele><time>2026-03-29T10:39:49Z</time></trkpt><trkpt lat="40.33639814138984" lon="15.065415659840209"><ele>413.25</ele><time>2026-03-29T10:39:50Z</time></trkpt><trkpt lat="40.33651664846202" lon="15.065371201355951"><ele>412.5</ele><time>2026-03-29T10:39:51Z</time></trkpt><trkpt lat="40.336634512945515" lon="15.065324957467897"><ele>411.75</ele><time>2026-03-29T10:39:52Z</time></trkpt><trkpt lat="40.336744588822505" lon="15.065275856664115"><ele>411.0</ele><time>2026-03-29T10:39:53Z</time></trkpt><trkpt lat="40.336869019476794" lon="15.065262449811376"><ele>411.0</ele><time>2026-03-29T10:39:54Z</time></trkpt><trkpt lat="40.33698444867924" lon="15.0652541192917"><ele>411.0</ele><time>2026-03-29T10:39:55Z</time></trkpt><trkpt lat="40.33710016864317" lon="15.065225891692656"><ele>411.0</ele><time>2026-03-29T10:39:56Z</time></trkpt><trkpt lat="40.337209724095345" lon="15.065232069657757"><ele>411.0</ele><time>2026-03-29T10:39:57Z</time></trkpt><trkpt lat="40.33731989356952" lon="15.065239975937716"><ele>409.20000000000005</ele><time>2026-03-29T10:39:58Z</time></trkpt><trkpt lat="40.33743125597065" lon="15.065251796682185"><ele>407.40000000000003</ele><time>2026-03-29T10:39:59Z</time></trkpt><trkpt lat="40.33753260030119" lon="15.065296474173437"><ele>405.6</ele><time>2026-03-29T10:40:00Z</time></trkpt><trkpt lat="40.337632587475255" lon="15.065305202491066"><ele>403.8</ele><time>2026-03-29T10:40:01Z</time></trkpt><trkpt lat="40.33772418479507" lon="15.065313229179667"><ele>402.0</ele><time>2026-03-29T10:40:02Z</time></trkpt><trkpt lat="40.337815274999" lon="15.065303707097065"><ele>402.0</ele><time>2026-03-29T10:40:03Z</time></trkpt><trkpt lat="40.33790146251752" lon="15.06533176567402"><ele>402.0</ele><time>2026-03-29T10:40:04Z</time></trkpt><trkpt lat="40.337992989830276" lon="15.065363588966537"><ele>402.0</ele><time>2026-03-29T10:40:05Z</time></trkpt><trkpt lat="40.33807234896473" lon="15.065410232575402"><ele>402.0</ele><time>2026-03-29T10:40:06Z</time></trkpt><trkpt lat="40.33814577018933" lon="15.065460896378552"><ele>402.0</ele><time>2026-03-29T10:40:07Z</time></trkpt><trkpt lat="40.338207745970756" lon="15.065515401415922"><ele>402.0</ele><time>2026-03-29T10:40:08Z</time></trkpt><trkpt lat="40.33827198536275" lon="15.065578103547699"><ele>402.20000000000005</ele><time>2026-03-29T10:40:09Z</time></trkpt><trkpt lat="40.33834071330569" lon="15.065637055402966"><ele>402.4</ele><time>2026-03-29T10:40:10Z</time></trkpt><trkpt lat="40.338390540806394" lon="15.065815670645671"><ele>402.6</ele><time>2026-03-29T10:40:12Z</time></trkpt><trkpt lat="40.33843827817817" lon="15.06592149634647"><ele>402.79999999999995</ele><time>2026-03-29T10:40:13Z</time></trkpt><trkpt lat="40.33849121818915" lon="15.06602930440919"><ele>403.0</ele><time>2026-03-29T10:40:14Z</time></trkpt><trkpt lat="40.33854676298011" lon="15.066147334766482"><ele>403.0</ele><time>2026-03-29T10:40:15Z</time></trkpt><trkpt lat="40.33861194179047" lon="15.066250114498816"><ele>403.0</ele><time>2026-03-29T10:40:16Z</time></trkpt><trkpt lat="40.33869936665456" lon="15.066333001469657"><ele>403.0</ele><time>2026-03-29T10:40:17Z</time></trkpt><trkpt lat="40.33880046273425" lon="15.066406554052843"><ele>403.0</ele><time>2026-03-29T10:40:18Z</time></trkpt><trkpt lat="40.3389010915297" lon="15.066496233742168"><ele>403.0</ele><time>2026-03-29T10:40:19Z</time></trkpt><trkpt lat="40.33899396536563" lon="15.066599613428918"><ele>406.25</ele><time>2026-03-29T10:40:20Z</time></trkpt><trkpt lat="40.3390762567713" lon="15.066707038634108"><ele>409.5</ele><time>2026-03-29T10:40:21Z</time></trkpt><trkpt lat="40.33915183415733" lon="15.066814963701502"><ele>412.75</ele><time>2026-03-29T10:40:22Z</time></trkpt><trkpt lat="40.33923349703429" lon="15.066929737822722"><ele>416.0</ele><time>2026-03-29T10:40:23Z</time></trkpt><trkpt lat="40.33931133445895" lon="15.06705475774384"><ele>416.0</ele><time>2026-03-29T10:40:24Z</time></trkpt><trkpt lat="40.33939841612781" lon="15.067169373051927"><ele>416.0</ele><time>2026-03-29T10:40:25Z</time></trkpt><trkpt lat="40.33946629786163" lon="15.0673032066015"><ele>416.0</ele><time>2026-03-29T10:40:26Z</time></trkpt><trkpt lat="40.33953418931042" lon="15.067368271857855"><ele>416.0</ele><time>2026-03-29T10:40:27Z</time></trkpt><trkpt lat="40.33959983684695" lon="15.067392021224363"><ele>416.0</ele><time>2026-03-29T10:40:28Z</time></trkpt><trkpt lat="40.33968081584363" lon="15.067403205515078"><ele>419.20000000000005</ele><time>2026-03-29T10:40:29Z</time></trkpt><trkpt lat="40.339776710382495" lon="15.06737920034259"><ele>422.40000000000003</ele><time>2026-03-29T10:40:30Z</time></trkpt><trkpt lat="40.33988081646497" lon="15.067335641159358"><ele>425.6</ele><time>2026-03-29T10:40:31Z</time></trkpt><trkpt lat="40.339989845285075" lon="15.067331338220322"><ele>428.8</ele><time>2026-03-29T10:40:32Z</time></trkpt><trkpt lat="40.34009860190063" lon="15.067332305807836"><ele>432.0</ele><time>2026-03-29T10:40:33Z</time></trkpt><trkpt lat="40.340201190677696" lon="15.06737170278453"><ele>432.0</ele><time>2026-03-29T10:40:34Z</time></trkpt><trkpt lat="40.34031112585342" lon="15.067411724469796"><ele>432.00000000000006</ele><time>2026-03-29T10:40:35Z</time></trkpt><trkpt lat="40.34042303992486" lon="15.06743754125993"><ele>432.00000000000006</ele><time>2026-03-29T10:40:36Z</time></trkpt><trkpt lat="40.34052292294895" lon="15.06747458273767"><ele>432.0</ele><time>2026-03-29T10:40:37Z</time></trkpt><trkpt lat="40.340623540147675" lon="15.067523718730074"><ele>432.0</ele><time>2026-03-29T10:40:38Z</time></trkpt><trkpt lat="40.3407109439677" lon="15.067612583402964"><ele>428.5</ele><time>2026-03-29T10:40:39Z</time></trkpt><trkpt lat="40.34078258343356" lon="15.06771337061819"><ele>425.0</ele><time>2026-03-29T10:40:40Z</time></trkpt><trkpt lat="40.34085824302493" lon="15.067838457848882"><ele>421.5</ele><time>2026-03-29T10:40:41Z</time></trkpt><trkpt lat="40.34093675679202" lon="15.067949541732087"><ele>418.0</ele><time>2026-03-29T10:40:42Z</time></trkpt><trkpt lat="40.34102602779898" lon="15.06804685517379"><ele>418.0</ele><time>2026-03-29T10:40:43Z</time></trkpt><trkpt lat="40.34110699301953" lon="15.06811417679416"><ele>418.0</ele><time>2026-03-29T10:40:44Z</time></trkpt><trkpt lat="40.34116406275859" lon="15.068200912244128"><ele>418.0</ele><time>2026-03-29T10:40:45Z</time></trkpt><trkpt lat="40.34117051575184" lon="15.068331110640042"><ele>418.0</ele><time>2026-03-29T10:40:46Z</time></trkpt><trkpt lat="40.34120359902947" lon="15.068477307995577"><ele>418.0</ele><time>2026-03-29T10:40:47Z</time></trkpt><trkpt lat="40.34126009823324" lon="15.068628908904692"><ele>417.2</ele><time>2026-03-29T10:40:48Z</time></trkpt><trkpt lat="40.34130458094902" lon="15.068768655565508"><ele>416.4</ele><time>2026-03-29T10:40:49Z</time></trkpt><trkpt lat="40.34135168263512" lon="15.068907131991061"><ele>415.59999999999997</ele><time>2026-03-29T10:40:50Z</time></trkpt><trkpt lat="40.34139078419196" lon="15.069033058289689"><ele>414.79999999999995</ele><time>2026-03-29T10:40:51Z</time></trkpt><trkpt lat="40.34142262673484" lon="15.069133578924946"><ele>414.0</ele><time>2026-03-29T10:40:52Z</time></trkpt><trkpt lat="40.34148499005221" lon="15.069218435540174"><ele>414.0</ele><time>2026-03-29T10:40:53Z</time></trkpt><trkpt lat="40.34156339916797" lon="15.0692962286932"><ele>414.0</ele><time>2026-03-29T10:40:54Z</time></trkpt><trkpt lat="40.34166014289655" lon="15.069356339296254"><ele>414.0</ele><time>2026-03-29T10:40:55Z</time></trkpt><trkpt lat="40.3417614597174" lon="15.069411204446148"><ele>414.0</ele><time>2026-03-29T10:40:56.001Z</time></trkpt><trkpt lat="40.34185058261331" lon="15.069499755445399"><ele>414.0</ele><time>2026-03-29T10:40:57.001Z</time></trkpt><trkpt lat="40.34194576669916" lon="15.069550729040477"><ele>414.0</ele><time>2026-03-29T10:40:58.001Z</time></trkpt><trkpt lat="40.342020403247304" lon="15.069618975213666"><ele>414.0</ele><time>2026-03-29T10:40:59.001Z</time></trkpt><trkpt lat="40.34207622970499" lon="15.069697268456896"><ele>414.0</ele><time>2026-03-29T10:41:00.001Z</time></trkpt><trkpt lat="40.34211578022281" lon="15.069808074152679"><ele>414.0</ele><time>2026-03-29T10:41:01.001Z</time></trkpt><trkpt lat="40.34214230149707" lon="15.069939104425798"><ele>414.0</ele><time>2026-03-29T10:41:02.001Z</time></trkpt><trkpt lat="40.34214496586531" lon="15.070102045874235"><ele>414.79999999999995</ele><time>2026-03-29T10:41:03.001Z</time></trkpt><trkpt lat="40.34216857308952" lon="15.070253992196635"><ele>415.59999999999997</ele><time>2026-03-29T10:41:04.001Z</time></trkpt><trkpt lat="40.34219121687452" lon="15.070406653192764"><ele>416.4</ele><time>2026-03-29T10:41:05.001Z</time></trkpt><trkpt lat="40.34221855280737" lon="15.070542604005071"><ele>417.2</ele><time>2026-03-29T10:41:06.001Z</time></trkpt><trkpt lat="40.34222940464517" lon="15.070674856743718"><ele>418.0</ele><time>2026-03-29T10:41:07Z</time></trkpt><trkpt lat="40.342248209602026" lon="15.070793162138145"><ele>415.2</ele><time>2026-03-29T10:41:08Z</time></trkpt><trkpt lat="40.342269545322864" lon="15.070884260392706"><ele>412.4</ele><time>2026-03-29T10:41:09Z</time></trkpt><trkpt lat="40.34235658201114" lon="15.07100166998707"><ele>409.59999999999997</ele><time>2026-03-29T10:41:11Z</time></trkpt><trkpt lat="40.3424688877595" lon="15.07096799793176"><ele>406.79999999999995</ele><time>2026-03-29T10:41:12Z</time></trkpt><trkpt lat="40.34256796806057" lon="15.070949705378924"><ele>404.0</ele><time>2026-03-29T10:41:13Z</time></trkpt><trkpt lat="40.342673270990076" lon="15.070926116901388"><ele>404.0</ele><time>2026-03-29T10:41:14Z</time></trkpt><trkpt lat="40.342790287294825" lon="15.070927470578868"><ele>404.0</ele><time>2026-03-29T10:41:15Z</time></trkpt><trkpt lat="40.342912841106724" lon="15.070937877998306"><ele>404.0</ele><time>2026-03-29T10:41:16Z</time></trkpt><trkpt lat="40.34303240813088" lon="15.070987132791965"><ele>404.0</ele><time>2026-03-29T10:41:17Z</time></trkpt><trkpt lat="40.34316452025042" lon="15.071015073653093"><ele>403.5</ele><time>2026-03-29T10:41:18Z</time></trkpt><trkpt lat="40.34328161142483" lon="15.071047338904801"><ele>403.0</ele><time>2026-03-29T10:41:19Z</time></trkpt><trkpt lat="40.343393503254944" lon="15.071095107001375"><ele>402.5</ele><time>2026-03-29T10:41:20Z</time></trkpt><trkpt lat="40.34351706183499" lon="15.071145943717264"><ele>402.0</ele><time>2026-03-29T10:41:21Z</time></trkpt><trkpt lat="40.34361919828401" lon="15.071249665482561"><ele>402.0</ele><time>2026-03-29T10:41:22Z</time></trkpt><trkpt lat="40.34371913164455" lon="15.071344952381"><ele>402.0</ele><time>2026-03-29T10:41:23Z</time></trkpt><trkpt lat="40.343827217100404" lon="15.0714107205496"><ele>402.0</ele><time>2026-03-29T10:41:24Z</time></trkpt><trkpt lat="40.34393073406353" lon="15.071482160563196"><ele>402.0</ele><time>2026-03-29T10:41:25Z</time></trkpt><trkpt lat="40.344036657033826" lon="15.071537851011103"><ele>404.0</ele><time>2026-03-29T10:41:26Z</time></trkpt><trkpt lat="40.34413353268375" lon="15.071595880454916"><ele>406.0</ele><time>2026-03-29T10:41:27Z</time></trkpt><trkpt lat="40.34423329336607" lon="15.07165191490142"><ele>408.0</ele><time>2026-03-29T10:41:28Z</time></trkpt><trkpt lat="40.3443240690979" lon="15.071697429044827"><ele>410.0</ele><time>2026-03-29T10:41:29Z</time></trkpt><trkpt lat="40.3444245077703" lon="15.071713908535108"><ele>412.0</ele><time>2026-03-29T10:41:30Z</time></trkpt><trkpt lat="40.34451433459769" lon="15.071695011458376"><ele>412.0</ele><time>2026-03-29T10:41:31Z</time></trkpt><trkpt lat="40.344600559289226" lon="15.071642466526482"><ele>412.0</ele><time>2026-03-29T10:41:32Z</time></trkpt><trkpt lat="40.34469265199359" lon="15.07157037887734"><ele>412.0</ele><time>2026-03-29T10:41:33Z</time></trkpt><trkpt lat="40.34479588066191" lon="15.071492460737419"><ele>412.0</ele><time>2026-03-29T10:41:34Z</time></trkpt><trkpt lat="40.34489270937828" lon="15.071411747685552"><ele>412.0</ele><time>2026-03-29T10:41:35Z</time></trkpt><trkpt lat="40.34498941309005" lon="15.071350920867022"><ele>409.5</ele><time>2026-03-29T10:41:36Z</time></trkpt><trkpt lat="40.34510548276226" lon="15.07131235992535"><ele>407.0</ele><time>2026-03-29T10:41:37Z</time></trkpt><trkpt lat="40.34521325597809" lon="15.07129038547435"><ele>404.5</ele><time>2026-03-29T10:41:38Z</time></trkpt><trkpt lat="40.3453339533075" lon="15.071284926584156"><ele>402.0</ele><time>2026-03-29T10:41:39Z</time></trkpt><trkpt lat="40.34546314196097" lon="15.071287604680476"><ele>398.6</ele><time>2026-03-29T10:41:40Z</time></trkpt><trkpt lat="40.34558276996639" lon="15.071288334772637"><ele>395.20000000000005</ele><time>2026-03-29T10:41:41Z</time></trkpt><trkpt lat="40.34569559953061" lon="15.0712913171919"><ele>391.8</ele><time>2026-03-29T10:41:42Z</time></trkpt><trkpt lat="40.34578710819382" lon="15.071277271405814"><ele>388.4</ele><time>2026-03-29T10:41:43Z</time></trkpt><trkpt lat="40.34585843474444" lon="15.071229736519891"><ele>385.0</ele><time>2026-03-29T10:41:44Z</time></trkpt><trkpt lat="40.34591970616406" lon="15.071151417581552"><ele>385.0</ele><time>2026-03-29T10:41:45Z</time></trkpt><trkpt lat="40.34597580254361" lon="15.071042766294442"><ele>385.0</ele><time>2026-03-29T10:41:46Z</time></trkpt><trkpt lat="40.346025760689244" lon="15.070930291776543"><ele>385.0</ele><time>2026-03-29T10:41:47Z</time></trkpt><trkpt lat="40.34608053937756" lon="15.070784981056484"><ele>385.0</ele><time>2026-03-29T10:41:48Z</time></trkpt><trkpt lat="40.346132834854856" lon="15.070645152367987"><ele>385.0</ele><time>2026-03-29T10:41:49Z</time></trkpt><trkpt lat="40.3462042706468" lon="15.070520257390635"><ele>382.25</ele><time>2026-03-29T10:41:50Z</time></trkpt><trkpt lat="40.34628777723156" lon="15.07040442594231"><ele>379.5</ele><time>2026-03-29T10:41:51Z</time></trkpt><trkpt lat="40.34637664256182" lon="15.070295043851315"><ele>376.75</ele><time>2026-03-29T10:41:52Z</time></trkpt><trkpt lat="40.346466962888336" lon="15.07018102677625"><ele>374.0</ele><time>2026-03-29T10:41:53Z</time></trkpt><trkpt lat="40.34655042984351" lon="15.070068604380126"><ele>374.0</ele><time>2026-03-29T10:41:54Z</time></trkpt><trkpt lat="40.34662549862835" lon="15.069975627285121"><ele>374.0</ele><time>2026-03-29T10:41:55Z</time></trkpt><trkpt lat="40.3466998524543" lon="15.069912534349992"><ele>374.0</ele><time>2026-03-29T10:41:56Z</time></trkpt><trkpt lat="40.34677624477202" lon="15.069888343165921"><ele>374.0</ele><time>2026-03-29T10:41:57Z</time></trkpt><trkpt lat="40.34686820510667" lon="15.069895893028114"><ele>374.0</ele><time>2026-03-29T10:41:58Z</time></trkpt><trkpt lat="40.346975260144546" lon="15.069926029132807"><ele>374.0</ele><time>2026-03-29T10:41:59Z</time></trkpt><trkpt lat="40.34709384654751" lon="15.069948380474353"><ele>374.0</ele><time>2026-03-29T10:42:00Z</time></trkpt><trkpt lat="40.34721799288633" lon="15.069918973004679"><ele>374.0</ele><time>2026-03-29T10:42:01Z</time></trkpt><trkpt lat="40.34734296224502" lon="15.069864019265793"><ele>374.0</ele><time>2026-03-29T10:42:02Z</time></trkpt><trkpt lat="40.34747941264084" lon="15.069847366946012"><ele>377.75</ele><time>2026-03-29T10:42:03Z</time></trkpt><trkpt lat="40.34761602956398" lon="15.069825741050872"><ele>381.5</ele><time>2026-03-29T10:42:04Z</time></trkpt><trkpt lat="40.34775722432961" lon="15.069827759086422"><ele>385.25</ele><time>2026-03-29T10:42:05Z</time></trkpt><trkpt lat="40.34790212329411" lon="15.069813402192217"><ele>389.0</ele><time>2026-03-29T10:42:06Z</time></trkpt><trkpt lat="40.34802863040077" lon="15.069806625540535"><ele>388.6</ele><time>2026-03-29T10:42:07Z</time></trkpt><trkpt lat="40.348131299242795" lon="15.069815690072463"><ele>388.2</ele><time>2026-03-29T10:42:08Z</time></trkpt><trkpt lat="40.34820173946616" lon="15.06984240437097"><ele>387.8</ele><time>2026-03-29T10:42:09Z</time></trkpt><trkpt lat="40.348258352383546" lon="15.069930897363763"><ele>387.40000000000003</ele><time>2026-03-29T10:42:10Z</time></trkpt><trkpt lat="40.348351665491705" lon="15.069992863861012"><ele>387.0</ele><time>2026-03-29T10:42:11Z</time></trkpt><trkpt lat="40.348440240153124" lon="15.070079743625438"><ele>383.0</ele><time>2026-03-29T10:42:12Z</time></trkpt><trkpt lat="40.348546196265495" lon="15.070158482829461"><ele>379.0</ele><time>2026-03-29T10:42:13Z</time></trkpt><trkpt lat="40.34866005287902" lon="15.07023050360305"><ele>375.0</ele><time>2026-03-29T10:42:14Z</time></trkpt><trkpt lat="40.348781731448724" lon="15.070281669791413"><ele>371.0</ele><time>2026-03-29T10:42:15Z</time></trkpt><trkpt lat="40.34890592716336" lon="15.070318672507435"><ele>371.0</ele><time>2026-03-29T10:42:16Z</time></trkpt><trkpt lat="40.349024259321396" lon="15.070359621531164"><ele>371.0</ele><time>2026-03-29T10:42:17Z</time></trkpt><trkpt lat="40.34912513902031" lon="15.07046686543953"><ele>371.0</ele><time>2026-03-29T10:42:18Z</time></trkpt><trkpt lat="40.3492258843818" lon="15.070588019924"><ele>371.0</ele><time>2026-03-29T10:42:19Z</time></trkpt><trkpt lat="40.349329462516536" lon="15.070717138813238"><ele>369.0</ele><time>2026-03-29T10:42:20Z</time></trkpt><trkpt lat="40.34942356933318" lon="15.070830000794828"><ele>367.0</ele><time>2026-03-29T10:42:21Z</time></trkpt><trkpt lat="40.34952068593651" lon="15.070915351992886"><ele>365.0</ele><time>2026-03-29T10:42:22Z</time></trkpt><trkpt lat="40.349615473908806" lon="15.070983140821594"><ele>363.0</ele><time>2026-03-29T10:42:23Z</time></trkpt><trkpt lat="40.349709523073976" lon="15.071013965556304"><ele>361.0</ele><time>2026-03-29T10:42:24.001Z</time></trkpt><trkpt lat="40.34981108545263" lon="15.070996850200203"><ele>361.0</ele><time>2026-03-29T10:42:25.001Z</time></trkpt><trkpt lat="40.34991330775467" lon="15.070933263564909"><ele>361.0</ele><time>2026-03-29T10:42:26.001Z</time></trkpt><trkpt lat="40.35000928086697" lon="15.07087193457178"><ele>361.0</ele><time>2026-03-29T10:42:27.001Z</time></trkpt><trkpt lat="40.350105333507436" lon="15.07082755749597"><ele>361.0</ele><time>2026-03-29T10:42:28.001Z</time></trkpt><trkpt lat="40.35019104041951" lon="15.070817065165905"><ele>361.0</ele><time>2026-03-29T10:42:29.001Z</time></trkpt><trkpt lat="40.35026848149637" lon="15.07087011609968"><ele>361.0</ele><time>2026-03-29T10:42:30.001Z</time></trkpt><trkpt lat="40.35032009035684" lon="15.070929090432186"><ele>361.0</ele><time>2026-03-29T10:42:31.001Z</time></trkpt><trkpt lat="40.35035112567882" lon="15.071100393472008"><ele>361.0</ele><time>2026-03-29T10:42:33.001Z</time></trkpt><trkpt lat="40.350374288246705" lon="15.0712372298014"><ele>361.0</ele><time>2026-03-29T10:42:34.001Z</time></trkpt><trkpt lat="40.35040224937202" lon="15.071383322642358"><ele>361.0</ele><time>2026-03-29T10:42:35.001Z</time></trkpt><trkpt lat="40.350426513029504" lon="15.071531047192796"><ele>362.0</ele><time>2026-03-29T10:42:36.001Z</time></trkpt><trkpt lat="40.35046143228597" lon="15.07168561789578"><ele>363.0</ele><time>2026-03-29T10:42:37.001Z</time></trkpt><trkpt lat="40.35051064358513" lon="15.07183188602995"><ele>364.0</ele><time>2026-03-29T10:42:38.001Z</time></trkpt><trkpt lat="40.35056420318072" lon="15.071964687993814"><ele>365.0</ele><time>2026-03-29T10:42:39.001Z</time></trkpt><trkpt lat="40.3506310240157" lon="15.072098716698372"><ele>365.0</ele><time>2026-03-29T10:42:40.001Z</time></trkpt><trkpt lat="40.350673513644345" lon="15.072261485010761"><ele>365.0</ele><time>2026-03-29T10:42:41.001Z</time></trkpt><trkpt lat="40.35073238692486" lon="15.072417715699242"><ele>365.0</ele><time>2026-03-29T10:42:42.001Z</time></trkpt><trkpt lat="40.350754386657044" lon="15.072601680590845"><ele>365.0</ele><time>2026-03-29T10:42:43.001Z</time></trkpt><trkpt lat="40.35076865172406" lon="15.072769336327529"><ele>362.0</ele><time>2026-03-29T10:42:44.001Z</time></trkpt><trkpt lat="40.3507865815306" lon="15.07293287670625"><ele>359.0</ele><time>2026-03-29T10:42:45.001Z</time></trkpt><trkpt lat="40.35081918185625" lon="15.073087459794168"><ele>356.0</ele><time>2026-03-29T10:42:46.001Z</time></trkpt><trkpt lat="40.35085327445252" lon="15.07323710455963"><ele>353.0</ele><time>2026-03-29T10:42:47.001Z</time></trkpt><trkpt lat="40.35090883119151" lon="15.073379956358096"><ele>349.75</ele><time>2026-03-29T10:42:48.001Z</time></trkpt><trkpt lat="40.35097000758253" lon="15.073516321310032"><ele>346.5</ele><time>2026-03-29T10:42:49.001Z</time></trkpt><trkpt lat="40.351030954154375" lon="15.073654615743465"><ele>343.25</ele><time>2026-03-29T10:42:50.001Z</time></trkpt><trkpt lat="40.351097119404535" lon="15.073792318817123"><ele>340.0</ele><time>2026-03-29T10:42:51.001Z</time></trkpt><trkpt lat="40.35118263421376" lon="15.073915898765824"><ele>340.0</ele><time>2026-03-29T10:42:52.001Z</time></trkpt><trkpt lat="40.35127048571484" lon="15.07402396462162"><ele>340.0</ele><time>2026-03-29T10:42:53.001Z</time></trkpt><trkpt lat="40.35134931368634" lon="15.074110823407768"><ele>340.0</ele><time>2026-03-29T10:42:54.001Z</time></trkpt><trkpt lat="40.351420073072795" lon="15.074188040820644"><ele>340.0</ele><time>2026-03-29T10:42:55.001Z</time></trkpt><trkpt lat="40.3514938415754" lon="15.074237282917466"><ele>340.0</ele><time>2026-03-29T10:42:56.001Z</time></trkpt><trkpt lat="40.35156822844462" lon="15.074246837848262"><ele>340.8</ele><time>2026-03-29T10:42:57.001Z</time></trkpt><trkpt lat="40.351674357207905" lon="15.074230235234124"><ele>341.6</ele><time>2026-03-29T10:42:59.001Z</time></trkpt><trkpt lat="40.35177989969842" lon="15.07415467441391"><ele>342.4</ele><time>2026-03-29T10:43:01.001Z</time></trkpt><trkpt lat="40.351836285165994" lon="15.074095622508231"><ele>343.2</ele><time>2026-03-29T10:43:02.001Z</time></trkpt><trkpt lat="40.35190561819823" lon="15.074018877888989"><ele>344.0</ele><time>2026-03-29T10:43:03.001Z</time></trkpt><trkpt lat="40.35200155100058" lon="15.073896224642427"><ele>345.6666666666667</ele><time>2026-03-29T10:43:05.001Z</time></trkpt><trkpt lat="40.35209126567623" lon="15.073852384195446"><ele>347.33333333333337</ele><time>2026-03-29T10:43:06.001Z</time></trkpt><trkpt lat="40.35216492281863" lon="15.073807478757194"><ele>349.0</ele><time>2026-03-29T10:43:07.001Z</time></trkpt><trkpt lat="40.352224545692344" lon="15.07375811514892"><ele>350.6666666666667</ele><time>2026-03-29T10:43:08.001Z</time></trkpt><trkpt lat="40.35229706991584" lon="15.073723342189792"><ele>352.3333333333333</ele><time>2026-03-29T10:43:09.001Z</time></trkpt><trkpt lat="40.35239210144875" lon="15.073701114798709"><ele>354.0</ele><time>2026-03-29T10:43:10.001Z</time></trkpt><trkpt lat="40.352490314207664" lon="15.073678809901029"><ele>354.0</ele><time>2026-03-29T10:43:11.001Z</time></trkpt><trkpt lat="40.35257978835726" lon="15.073686889577225"><ele>354.0</ele><time>2026-03-29T10:43:12.001Z</time></trkpt><trkpt lat="40.35266796329393" lon="15.073661290506825"><ele>354.0</ele><time>2026-03-29T10:43:13.001Z</time></trkpt><trkpt lat="40.3527695355319" lon="15.073605264420792"><ele>354.0</ele><time>2026-03-29T10:43:14.001Z</time></trkpt><trkpt lat="40.35285773920721" lon="15.073524641519484"><ele>354.0</ele><time>2026-03-29T10:43:15.001Z</time></trkpt><trkpt lat="40.352935154304696" lon="15.073417445710577"><ele>354.0</ele><time>2026-03-29T10:43:16.001Z</time></trkpt><trkpt lat="40.353007122781484" lon="15.073299303224196"><ele>354.0</ele><time>2026-03-29T10:43:17.001Z</time></trkpt><trkpt lat="40.353073093538484" lon="15.07317917852167"><ele>354.0</ele><time>2026-03-29T10:43:18.001Z</time></trkpt><trkpt lat="40.353122929469926" lon="15.073048037942915"><ele>354.0</ele><time>2026-03-29T10:43:19.001Z</time></trkpt><trkpt lat="40.35316515465382" lon="15.072915435780192"><ele>354.0</ele><time>2026-03-29T10:43:20.001Z</time></trkpt><trkpt lat="40.353209383302485" lon="15.07279608310173"><ele>355.25</ele><time>2026-03-29T10:43:21.001Z</time></trkpt><trkpt lat="40.35324942615146" lon="15.07267393022306"><ele>356.5</ele><time>2026-03-29T10:43:22.001Z</time></trkpt><trkpt lat="40.35332525187937" lon="15.0725587411245"><ele>357.75</ele><time>2026-03-29T10:43:23.001Z</time></trkpt><trkpt lat="40.35341637266467" lon="15.072452690531609"><ele>359.0</ele><time>2026-03-29T10:43:24.001Z</time></trkpt><trkpt lat="40.35351915705797" lon="15.07235053338367"><ele>359.0</ele><time>2026-03-29T10:43:25.001Z</time></trkpt><trkpt lat="40.35362979939606" lon="15.072280965655214"><ele>359.0</ele><time>2026-03-29T10:43:26.001Z</time></trkpt><trkpt lat="40.35375248488311" lon="15.07220298557845"><ele>359.0</ele><time>2026-03-29T10:43:27.001Z</time></trkpt><trkpt lat="40.353874804874614" lon="15.07212675045213"><ele>359.0</ele><time>2026-03-29T10:43:28.001Z</time></trkpt><trkpt lat="40.35399381760637" lon="15.072048910339664"><ele>355.25</ele><time>2026-03-29T10:43:29.001Z</time></trkpt><trkpt lat="40.35409988297617" lon="15.071955656180885"><ele>351.5</ele><time>2026-03-29T10:43:30.001Z</time></trkpt><trkpt lat="40.354224434366294" lon="15.071907121216409"><ele>347.75</ele><time>2026-03-29T10:43:31.001Z</time></trkpt><trkpt lat="40.354347416070055" lon="15.071855809907992"><ele>344.0</ele><time>2026-03-29T10:43:32.001Z</time></trkpt><trkpt lat="40.35446926631482" lon="15.07178953340134"><ele>344.0</ele><time>2026-03-29T10:43:33.001Z</time></trkpt><trkpt lat="40.35460119157284" lon="15.071746029117046"><ele>344.0</ele><time>2026-03-29T10:43:34.001Z</time></trkpt><trkpt lat="40.354732387693296" lon="15.071704780780452"><ele>344.0</ele><time>2026-03-29T10:43:35.001Z</time></trkpt><trkpt lat="40.3548595654421" lon="15.071663438379222"><ele>344.0</ele><time>2026-03-29T10:43:36.001Z</time></trkpt><trkpt lat="40.35498669522247" lon="15.071623186634323"><ele>345.0</ele><time>2026-03-29T10:43:37.001Z</time></trkpt><trkpt lat="40.35511128957" lon="15.071588411781896"><ele>346.0</ele><time>2026-03-29T10:43:38.001Z</time></trkpt><trkpt lat="40.35523350856469" lon="15.071545467634119"><ele>347.0</ele><time>2026-03-29T10:43:39.001Z</time></trkpt><trkpt lat="40.35535130293836" lon="15.071500960646476"><ele>348.0</ele><time>2026-03-29T10:43:40.001Z</time></trkpt><trkpt lat="40.355463784801444" lon="15.07146390659343"><ele>345.2</ele><time>2026-03-29T10:43:41.001Z</time></trkpt><trkpt lat="40.35556394490444" lon="15.071430276408925"><ele>342.4</ele><time>2026-03-29T10:43:42.001Z</time></trkpt><trkpt lat="40.355656892686575" lon="15.07139214668243"><ele>339.59999999999997</ele><time>2026-03-29T10:43:43.001Z</time></trkpt><trkpt lat="40.355736198657155" lon="15.071348268434534"><ele>336.79999999999995</ele><time>2026-03-29T10:43:44.001Z</time></trkpt><trkpt lat="40.35579912168358" lon="15.071308859064269"><ele>334.0</ele><time>2026-03-29T10:43:45.001Z</time></trkpt><trkpt lat="40.35589801157924" lon="15.071312166383324"><ele>334.0</ele><time>2026-03-29T10:43:47.001Z</time></trkpt><trkpt lat="40.355964187359525" lon="15.071338989678452"><ele>334.0</ele><time>2026-03-29T10:43:48.001Z</time></trkpt><trkpt lat="40.35604170547496" lon="15.071343430215718"><ele>334.0</ele><time>2026-03-29T10:43:49.001Z</time></trkpt><trkpt lat="40.356153972363046" lon="15.071414639275703"><ele>334.0</ele><time>2026-03-29T10:43:51.001Z</time></trkpt><trkpt lat="40.3562562164022" lon="15.071484138735217"><ele>334.0</ele><time>2026-03-29T10:43:53.001Z</time></trkpt><trkpt lat="40.35638034117662" lon="15.071444573328"><ele>334.16666666666663</ele><time>2026-03-29T10:43:55.001Z</time></trkpt><trkpt lat="40.356450803791226" lon="15.07146010340727"><ele>334.3333333333333</ele><time>2026-03-29T10:43:56.001Z</time></trkpt><trkpt lat="40.35652593170835" lon="15.071493862813647"><ele>334.5</ele><time>2026-03-29T10:43:57.001Z</time></trkpt><trkpt lat="40.3566121964765" lon="15.071536088792739"><ele>334.6666666666667</ele><time>2026-03-29T10:43:58.001Z</time></trkpt><trkpt lat="40.356697580141756" lon="15.07156652325333"><ele>334.83333333333337</ele><time>2026-03-29T10:43:59.001Z</time></trkpt><trkpt lat="40.35678957049063" lon="15.071598996753032"><ele>335.0</ele><time>2026-03-29T10:44:00.001Z</time></trkpt><trkpt lat="40.35688669165599" lon="15.071658573119276"><ele>336.0</ele><time>2026-03-29T10:44:01.001Z</time></trkpt><trkpt lat="40.35698287850793" lon="15.071707374268952"><ele>337.0</ele><time>2026-03-29T10:44:02.001Z</time></trkpt><trkpt lat="40.357088230186804" lon="15.071743908765717"><ele>338.0</ele><time>2026-03-29T10:44:03.001Z</time></trkpt><trkpt lat="40.35718762418531" lon="15.071762352276913"><ele>339.0</ele><time>2026-03-29T10:44:04.001Z</time></trkpt><trkpt lat="40.35729453062341" lon="15.071762207081475"><ele>340.0</ele><time>2026-03-29T10:44:05.001Z</time></trkpt><trkpt lat="40.35738198885442" lon="15.071759489215957"><ele>340.0</ele><time>2026-03-29T10:44:06.001Z</time></trkpt><trkpt lat="40.357481972423074" lon="15.071754000039409"><ele>340.0</ele><time>2026-03-29T10:44:07.001Z</time></trkpt><trkpt lat="40.357591617256006" lon="15.071744177981367"><ele>340.0</ele><time>2026-03-29T10:44:08.001Z</time></trkpt><trkpt lat="40.35769585457822" lon="15.071785410278503"><ele>340.0</ele><time>2026-03-29T10:44:09.001Z</time></trkpt><trkpt lat="40.35780871108675" lon="15.071822094396788"><ele>340.0</ele><time>2026-03-29T10:44:10.001Z</time></trkpt><trkpt lat="40.357914404940786" lon="15.07186199803433"><ele>340.0</ele><time>2026-03-29T10:44:11.001Z</time></trkpt><trkpt lat="40.35801205176872" lon="15.071922463567075"><ele>340.0</ele><time>2026-03-29T10:44:12.001Z</time></trkpt><trkpt lat="40.358118894653806" lon="15.071966394452982"><ele>340.0</ele><time>2026-03-29T10:44:13.001Z</time></trkpt><trkpt lat="40.358227952628134" lon="15.071982956638548"><ele>340.0</ele><time>2026-03-29T10:44:14.001Z</time></trkpt><trkpt lat="40.358348149064646" lon="15.07198401859444"><ele>339.25</ele><time>2026-03-29T10:44:15.001Z</time></trkpt><trkpt lat="40.358461965092545" lon="15.071966922242131"><ele>338.5</ele><time>2026-03-29T10:44:16.001Z</time></trkpt><trkpt lat="40.3585795196768" lon="15.071943827970571"><ele>337.75</ele><time>2026-03-29T10:44:17.001Z</time></trkpt><trkpt lat="40.3587106029954" lon="15.07190615123002"><ele>337.0</ele><time>2026-03-29T10:44:18.001Z</time></trkpt><trkpt lat="40.35884809213598" lon="15.071876452166824"><ele>337.0</ele><time>2026-03-29T10:44:19.001Z</time></trkpt><trkpt lat="40.35898137683009" lon="15.071829171655914"><ele>337.0</ele><time>2026-03-29T10:44:20.001Z</time></trkpt><trkpt lat="40.3591119816033" lon="15.071780624500452"><ele>337.0</ele><time>2026-03-29T10:44:21.001Z</time></trkpt><trkpt lat="40.359243198535104" lon="15.071723741679042"><ele>337.0</ele><time>2026-03-29T10:44:22.001Z</time></trkpt><trkpt lat="40.35938334937315" lon="15.07167370861149"><ele>337.0</ele><time>2026-03-29T10:44:23.001Z</time></trkpt><trkpt lat="40.35952326868649" lon="15.071620538475495"><ele>337.0</ele><time>2026-03-29T10:44:24.001Z</time></trkpt><trkpt lat="40.35965970767542" lon="15.07156095636527"><ele>337.0</ele><time>2026-03-29T10:44:25.001Z</time></trkpt><trkpt lat="40.35979510789172" lon="15.07150328767193"><ele>337.0</ele><time>2026-03-29T10:44:26.001Z</time></trkpt><trkpt lat="40.35993194771876" lon="15.071448719524597"><ele>336.25</ele><time>2026-03-29T10:44:27.001Z</time></trkpt><trkpt lat="40.360062076873646" lon="15.071393492185281"><ele>335.5</ele><time>2026-03-29T10:44:28.001Z</time></trkpt><trkpt lat="40.36018587524593" lon="15.071345292879991"><ele>334.75</ele><time>2026-03-29T10:44:29.001Z</time></trkpt><trkpt lat="40.36030630553221" lon="15.071302282713619"><ele>334.0</ele><time>2026-03-29T10:44:30.001Z</time></trkpt><trkpt lat="40.36042855157551" lon="15.071257072647832"><ele>334.4</ele><time>2026-03-29T10:44:31.001Z</time></trkpt><trkpt lat="40.36053997462108" lon="15.071200627108052"><ele>334.79999999999995</ele><time>2026-03-29T10:44:32.001Z</time></trkpt><trkpt lat="40.36063414714481" lon="15.071123452014694"><ele>335.20000000000005</ele><time>2026-03-29T10:44:33.001Z</time></trkpt><trkpt lat="40.36074385672537" lon="15.071095964179815"><ele>335.6</ele><time>2026-03-29T10:44:34.001Z</time></trkpt><trkpt lat="40.360818408166345" lon="15.07101148875303"><ele>336.0</ele><time>2026-03-29T10:44:35.001Z</time></trkpt><trkpt lat="40.36076620930445" lon="15.070739994782876"><ele>332.75</ele><time>2026-03-29T10:44:36.001Z</time></trkpt><trkpt lat="40.360788814468116" lon="15.07056542271854"><ele>329.5</ele><time>2026-03-29T10:44:37.001Z</time></trkpt><trkpt lat="40.36082245306757" lon="15.070391794449687"><ele>326.25</ele><time>2026-03-29T10:44:38.001Z</time></trkpt><trkpt lat="40.36085410866639" lon="15.070212923828537"><ele>323.0</ele><time>2026-03-29T10:44:39.001Z</time></trkpt><trkpt lat="40.36088657379513" lon="15.070037355592"><ele>319.25</ele><time>2026-03-29T10:44:40.001Z</time></trkpt><trkpt lat="40.36093179594948" lon="15.069865269837214"><ele>315.5</ele><time>2026-03-29T10:44:41.001Z</time></trkpt><trkpt lat="40.360981896442816" lon="15.069694616122215"><ele>311.75</ele><time>2026-03-29T10:44:42.001Z</time></trkpt><trkpt lat="40.361027387824386" lon="15.06952071819268"><ele>308.0</ele><time>2026-03-29T10:44:43.001Z</time></trkpt><trkpt lat="40.36107398273648" lon="15.069347406808031"><ele>308.0</ele><time>2026-03-29T10:44:44.001Z</time></trkpt><trkpt lat="40.36112525533892" lon="15.069184838052028"><ele>308.0</ele><time>2026-03-29T10:44:45.001Z</time></trkpt><trkpt lat="40.36119140753919" lon="15.069025542285955"><ele>308.0</ele><time>2026-03-29T10:44:46.001Z</time></trkpt><trkpt lat="40.36125922149913" lon="15.068864564592705"><ele>308.0</ele><time>2026-03-29T10:44:47.001Z</time></trkpt><trkpt lat="40.3613335262248" lon="15.06870427234509"><ele>307.5</ele><time>2026-03-29T10:44:48.001Z</time></trkpt><trkpt lat="40.36140279513206" lon="15.068544210771657"><ele>307.0</ele><time>2026-03-29T10:44:49.001Z</time></trkpt><trkpt lat="40.3614741514715" lon="15.068395632709787"><ele>306.5</ele><time>2026-03-29T10:44:50.001Z</time></trkpt><trkpt lat="40.361543032757496" lon="15.06824799802695"><ele>306.0</ele><time>2026-03-29T10:44:51.001Z</time></trkpt><trkpt lat="40.36160073331655" lon="15.068095211268103"><ele>306.0</ele><time>2026-03-29T10:44:52.001Z</time></trkpt><trkpt lat="40.36165497407904" lon="15.067942666311243"><ele>306.0</ele><time>2026-03-29T10:44:53.001Z</time></trkpt><trkpt lat="40.36169594720109" lon="15.067785135726172"><ele>306.0</ele><time>2026-03-29T10:44:54.001Z</time></trkpt><trkpt lat="40.36172035242722" lon="15.067617207075845"><ele>306.0</ele><time>2026-03-29T10:44:55.001Z</time></trkpt><trkpt lat="40.36173770396048" lon="15.067430084645194"><ele>303.5</ele><time>2026-03-29T10:44:56.001Z</time></trkpt><trkpt lat="40.361754735747766" lon="15.067243353799967"><ele>301.0</ele><time>2026-03-29T10:44:57.001Z</time></trkpt><trkpt lat="40.36176911241205" lon="15.067051814675251"><ele>298.5</ele><time>2026-03-29T10:44:58.001Z</time></trkpt><trkpt lat="40.36176832215786" lon="15.066858910223779"><ele>296.0</ele><time>2026-03-29T10:44:59.001Z</time></trkpt><trkpt lat="40.36175975237259" lon="15.066659617353405"><ele>295.33333333333337</ele><time>2026-03-29T10:45:00.001Z</time></trkpt><trkpt lat="40.361749318613846" lon="15.066453387958544"><ele>294.6666666666667</ele><time>2026-03-29T10:45:01.001Z</time></trkpt><trkpt lat="40.3617290328139" lon="15.066248554035386"><ele>294.0</ele><time>2026-03-29T10:45:02.001Z</time></trkpt><trkpt lat="40.36170745939163" lon="15.066055331087195"><ele>294.0</ele><time>2026-03-29T10:45:03.001Z</time></trkpt><trkpt lat="40.36169590308327" lon="15.065859329722144"><ele>294.0</ele><time>2026-03-29T10:45:04.001Z</time></trkpt><trkpt lat="40.361694140995304" lon="15.065657763318939"><ele>294.0</ele><time>2026-03-29T10:45:05.001Z</time></trkpt><trkpt lat="40.3616845409582" lon="15.065443477818384"><ele>292.0</ele><time>2026-03-29T10:45:06.001Z</time></trkpt><trkpt lat="40.36167068064363" lon="15.065234962842473"><ele>290.0</ele><time>2026-03-29T10:45:07.001Z</time></trkpt><trkpt lat="40.361662389975635" lon="15.06503268716822"><ele>288.0</ele><time>2026-03-29T10:45:08.001Z</time></trkpt><trkpt lat="40.361652018334205" lon="15.064831445254464"><ele>285.5</ele><time>2026-03-29T10:45:09.001Z</time></trkpt><trkpt lat="40.361644093981724" lon="15.064627155441059"><ele>283.0</ele><time>2026-03-29T10:45:10.001Z</time></trkpt><trkpt lat="40.36164262474552" lon="15.064441194809158"><ele>280.5</ele><time>2026-03-29T10:45:11.001Z</time></trkpt><trkpt lat="40.361650966588655" lon="15.064262682848224"><ele>278.0</ele><time>2026-03-29T10:45:12.001Z</time></trkpt><trkpt lat="40.36167070986561" lon="15.064086805337812"><ele>275.5</ele><time>2026-03-29T10:45:13.001Z</time></trkpt><trkpt lat="40.36171017040681" lon="15.063912558883754"><ele>273.0</ele><time>2026-03-29T10:45:14.001Z</time></trkpt><trkpt lat="40.36176361165292" lon="15.063731044253744"><ele>270.5</ele><time>2026-03-29T10:45:15.001Z</time></trkpt><trkpt lat="40.36181973563293" lon="15.063565585209878"><ele>268.0</ele><time>2026-03-29T10:45:16.001Z</time></trkpt><trkpt lat="40.36186803091539" lon="15.063435036873509"><ele>268.0</ele><time>2026-03-29T10:45:17.001Z</time></trkpt><trkpt lat="40.36193183742898" lon="15.063345839216533"><ele>268.0</ele><time>2026-03-29T10:45:18.001Z</time></trkpt><trkpt lat="40.362015787213025" lon="15.063274264937213"><ele>268.0</ele><time>2026-03-29T10:45:19.001Z</time></trkpt><trkpt lat="40.36212123636538" lon="15.063206398342965"><ele>268.0</ele><time>2026-03-29T10:45:20.001Z</time></trkpt><trkpt lat="40.36223336073915" lon="15.063165375629268"><ele>268.0</ele><time>2026-03-29T10:45:21.001Z</time></trkpt><trkpt lat="40.36235404854249" lon="15.063143806521108"><ele>265.0</ele><time>2026-03-29T10:45:22.001Z</time></trkpt><trkpt lat="40.36249138829035" lon="15.063162771995119"><ele>262.0</ele><time>2026-03-29T10:45:23.001Z</time></trkpt><trkpt lat="40.362639782754" lon="15.063164824032892"><ele>259.0</ele><time>2026-03-29T10:45:24.001Z</time></trkpt><trkpt lat="40.36279283920048" lon="15.063156384331068"><ele>256.0</ele><time>2026-03-29T10:45:25.001Z</time></trkpt><trkpt lat="40.36294771468994" lon="15.063153253517912"><ele>252.0</ele><time>2026-03-29T10:45:26.001Z</time></trkpt><trkpt lat="40.36311368890469" lon="15.063157151939777"><ele>248.0</ele><time>2026-03-29T10:45:27.001Z</time></trkpt><trkpt lat="40.36328668056446" lon="15.063162583780372"><ele>244.0</ele><time>2026-03-29T10:45:28.001Z</time></trkpt><trkpt lat="40.36344807120816" lon="15.063164204436713"><ele>244.0</ele><time>2026-03-29T10:45:29.001Z</time></trkpt><trkpt lat="40.36360118296219" lon="15.063167125617237"><ele>244.0</ele><time>2026-03-29T10:45:30.001Z</time></trkpt><trkpt lat="40.36374894901314" lon="15.06316701937341"><ele>244.0</ele><time>2026-03-29T10:45:31.001Z</time></trkpt><trkpt lat="40.363893288942876" lon="15.06316754574784"><ele>244.0</ele><time>2026-03-29T10:45:32.001Z</time></trkpt><trkpt lat="40.36403655450029" lon="15.063182436647592"><ele>243.0</ele><time>2026-03-29T10:45:33.001Z</time></trkpt><trkpt lat="40.36417803640404" lon="15.063166175820495"><ele>242.0</ele><time>2026-03-29T10:45:34.001Z</time></trkpt><trkpt lat="40.364311831545756" lon="15.063168987453707"><ele>241.0</ele><time>2026-03-29T10:45:35.001Z</time></trkpt><trkpt lat="40.36444183198009" lon="15.063172580752816"><ele>240.0</ele><time>2026-03-29T10:45:36.001Z</time></trkpt><trkpt lat="40.36457315322166" lon="15.063160699714832"><ele>241.5</ele><time>2026-03-29T10:45:37.001Z</time></trkpt><trkpt lat="40.36469896626406" lon="15.063117289441378"><ele>243.0</ele><time>2026-03-29T10:45:38.001Z</time></trkpt><trkpt lat="40.36482009757725" lon="15.063052303865918"><ele>244.5</ele><time>2026-03-29T10:45:39.001Z</time></trkpt><trkpt lat="40.364933796276105" lon="15.062965251306018"><ele>246.0</ele><time>2026-03-29T10:45:40.001Z</time></trkpt><trkpt lat="40.36504002078561" lon="15.062846427414536"><ele>246.0</ele><time>2026-03-29T10:45:41.001Z</time></trkpt><trkpt lat="40.36514827922787" lon="15.062700776749699"><ele>246.0</ele><time>2026-03-29T10:45:42.001Z</time></trkpt><trkpt lat="40.36524771951625" lon="15.062541880929942"><ele>246.0</ele><time>2026-03-29T10:45:43.001Z</time></trkpt><trkpt lat="40.365343057198466" lon="15.062373868007498"><ele>243.66666666666669</ele><time>2026-03-29T10:45:44.001Z</time></trkpt><trkpt lat="40.36542901393706" lon="15.062201190938127"><ele>241.33333333333334</ele><time>2026-03-29T10:45:45.001Z</time></trkpt><trkpt lat="40.36552216986889" lon="15.062025926992044"><ele>239.0</ele><time>2026-03-29T10:45:46.001Z</time></trkpt><trkpt lat="40.365608794658364" lon="15.061853699330154"><ele>239.0</ele><time>2026-03-29T10:45:47.001Z</time></trkpt><trkpt lat="40.36570075959267" lon="15.061690860384468"><ele>239.0</ele><time>2026-03-29T10:45:48.001Z</time></trkpt><trkpt lat="40.36579280879671" lon="15.061524041343874"><ele>239.0</ele><time>2026-03-29T10:45:49Z</time></trkpt><trkpt lat="40.3658812780934" lon="15.061349561990836"><ele>234.0</ele><time>2026-03-29T10:45:50Z</time></trkpt><trkpt lat="40.36597316327682" lon="15.061175155092435"><ele>229.0</ele><time>2026-03-29T10:45:51Z</time></trkpt><trkpt lat="40.36606635195136" lon="15.061002229312757"><ele>224.0</ele><time>2026-03-29T10:45:52Z</time></trkpt><trkpt lat="40.366161699721914" lon="15.060819666166589"><ele>223.75</ele><time>2026-03-29T10:45:53Z</time></trkpt><trkpt lat="40.366250005437244" lon="15.060664447680459"><ele>223.5</ele><time>2026-03-29T10:45:54Z</time></trkpt><trkpt lat="40.36633790499186" lon="15.060502183977142"><ele>223.25</ele><time>2026-03-29T10:45:55Z</time></trkpt><trkpt lat="40.36641800238871" lon="15.060341418268367"><ele>223.0</ele><time>2026-03-29T10:45:56Z</time></trkpt><trkpt lat="40.36649330569397" lon="15.060193854916879"><ele>223.0</ele><time>2026-03-29T10:45:57Z</time></trkpt><trkpt lat="40.36656854423102" lon="15.060078897508134"><ele>223.0</ele><time>2026-03-29T10:45:58Z</time></trkpt><trkpt lat="40.36665560625821" lon="15.059990433857791"><ele>223.0</ele><time>2026-03-29T10:45:59Z</time></trkpt><trkpt lat="40.36674900314597" lon="15.059943742174744"><ele>223.0</ele><time>2026-03-29T10:46:00Z</time></trkpt><trkpt lat="40.36685048560109" lon="15.059971717781938"><ele>223.0</ele><time>2026-03-29T10:46:01Z</time></trkpt><trkpt lat="40.366967266316635" lon="15.059972827593748"><ele>223.0</ele><time>2026-03-29T10:46:02Z</time></trkpt><trkpt lat="40.3671155087454" lon="15.059957775150853"><ele>223.0</ele><time>2026-03-29T10:46:03Z</time></trkpt><trkpt lat="40.36723198539856" lon="15.05995271792761"><ele>223.0</ele><time>2026-03-29T10:46:04Z</time></trkpt><trkpt lat="40.367346768689046" lon="15.05997806127005"><ele>223.0</ele><time>2026-03-29T10:46:05Z</time></trkpt><trkpt lat="40.36745902396846" lon="15.060011482833954"><ele>223.0</ele><time>2026-03-29T10:46:06Z</time></trkpt><trkpt lat="40.367564683970436" lon="15.060084299904668"><ele>223.0</ele><time>2026-03-29T10:46:07Z</time></trkpt><trkpt lat="40.36766246135825" lon="15.060178127122311"><ele>223.0</ele><time>2026-03-29T10:46:08Z</time></trkpt><trkpt lat="40.36775872489908" lon="15.060266990937333"><ele>223.0</ele><time>2026-03-29T10:46:09Z</time></trkpt><trkpt lat="40.3678555281631" lon="15.0603309588468"><ele>223.0</ele><time>2026-03-29T10:46:10Z</time></trkpt><trkpt lat="40.367941628684875" lon="15.060349477430215"><ele>223.0</ele><time>2026-03-29T10:46:11Z</time></trkpt><trkpt lat="40.368044840152294" lon="15.060319491099445"><ele>223.0</ele><time>2026-03-29T10:46:12Z</time></trkpt><trkpt lat="40.36813531115712" lon="15.060250033139852"><ele>223.0</ele><time>2026-03-29T10:46:13Z</time></trkpt><trkpt lat="40.368225796454574" lon="15.060139587785411"><ele>223.0</ele><time>2026-03-29T10:46:14Z</time></trkpt><trkpt lat="40.36831237155011" lon="15.060019489524489"><ele>214.75</ele><time>2026-03-29T10:46:15Z</time></trkpt><trkpt lat="40.36839403778282" lon="15.059902040365763"><ele>206.5</ele><time>2026-03-29T10:46:16Z</time></trkpt><trkpt lat="40.36849900049015" lon="15.059784403339949"><ele>198.25</ele><time>2026-03-29T10:46:17Z</time></trkpt><trkpt lat="40.36860330383104" lon="15.059691827791767"><ele>190.0</ele><time>2026-03-29T10:46:18Z</time></trkpt><trkpt lat="40.36872403059085" lon="15.0596292005407"><ele>190.0</ele><time>2026-03-29T10:46:19Z</time></trkpt><trkpt lat="40.36885650119766" lon="15.05958434058255"><ele>190.0</ele><time>2026-03-29T10:46:20Z</time></trkpt><trkpt lat="40.36898812738109" lon="15.05954049520443"><ele>190.0</ele><time>2026-03-29T10:46:21Z</time></trkpt><trkpt lat="40.36912370813371" lon="15.059506643062962"><ele>190.0</ele><time>2026-03-29T10:46:22Z</time></trkpt><trkpt lat="40.36925466438026" lon="15.059465374368068"><ele>190.25</ele><time>2026-03-29T10:46:23Z</time></trkpt><trkpt lat="40.36938362856596" lon="15.05940417056171"><ele>190.5</ele><time>2026-03-29T10:46:24Z</time></trkpt><trkpt lat="40.36950443005821" lon="15.059328698357747"><ele>190.75</ele><time>2026-03-29T10:46:25Z</time></trkpt><trkpt lat="40.369625041172554" lon="15.059240043398239"><ele>191.0</ele><time>2026-03-29T10:46:26Z</time></trkpt><trkpt lat="40.36973399505665" lon="15.059157441232605"><ele>188.5</ele><time>2026-03-29T10:46:27Z</time></trkpt><trkpt lat="40.3698437163122" lon="15.059036465459245"><ele>186.0</ele><time>2026-03-29T10:46:28Z</time></trkpt><trkpt lat="40.369953340676595" lon="15.058931175695855"><ele>183.5</ele><time>2026-03-29T10:46:29Z</time></trkpt><trkpt lat="40.370054096028184" lon="15.058809904511154"><ele>181.0</ele><time>2026-03-29T10:46:30Z</time></trkpt><trkpt lat="40.37013728774713" lon="15.058675696623114"><ele>181.0</ele><time>2026-03-29T10:46:31Z</time></trkpt><trkpt lat="40.3701960000653" lon="15.058540286104666"><ele>181.0</ele><time>2026-03-29T10:46:32Z</time></trkpt><trkpt lat="40.37023346026047" lon="15.058384158695603"><ele>181.0</ele><time>2026-03-29T10:46:33Z</time></trkpt><trkpt lat="40.37025869164712" lon="15.058200215451196"><ele>181.0</ele><time>2026-03-29T10:46:34Z</time></trkpt><trkpt lat="40.37028368341115" lon="15.058006677667203"><ele>177.75</ele><time>2026-03-29T10:46:35Z</time></trkpt><trkpt lat="40.37031448966931" lon="15.057824733144448"><ele>174.5</ele><time>2026-03-29T10:46:36Z</time></trkpt><trkpt lat="40.37034429464807" lon="15.057647020433986"><ele>171.25</ele><time>2026-03-29T10:46:37Z</time></trkpt><trkpt lat="40.37037546334433" lon="15.057468215962746"><ele>168.0</ele><time>2026-03-29T10:46:38Z</time></trkpt><trkpt lat="40.370412410844196" lon="15.057291651237103"><ele>172.66666666666666</ele><time>2026-03-29T10:46:39Z</time></trkpt><trkpt lat="40.370467544955034" lon="15.05711762045029"><ele>177.33333333333331</ele><time>2026-03-29T10:46:40Z</time></trkpt><trkpt lat="40.37050841284759" lon="15.056917548931933"><ele>182.0</ele><time>2026-03-29T10:46:41Z</time></trkpt><trkpt lat="40.370552486179584" lon="15.056706736657205"><ele>177.33333333333331</ele><time>2026-03-29T10:46:42Z</time></trkpt><trkpt lat="40.37059480667214" lon="15.056507212015628"><ele>172.66666666666666</ele><time>2026-03-29T10:46:43Z</time></trkpt><trkpt lat="40.37061928396217" lon="15.056312391629703"><ele>168.0</ele><time>2026-03-29T10:46:44Z</time></trkpt><trkpt lat="40.37067650151058" lon="15.056124488032024"><ele>168.0</ele><time>2026-03-29T10:46:45Z</time></trkpt><trkpt lat="40.370716302531086" lon="15.055943512622326"><ele>168.0</ele><time>2026-03-29T10:46:46Z</time></trkpt><trkpt lat="40.370757942492574" lon="15.055754207306364"><ele>168.0</ele><time>2026-03-29T10:46:47Z</time></trkpt><trkpt lat="40.37080045203206" lon="15.055563158545375"><ele>168.0</ele><time>2026-03-29T10:46:48Z</time></trkpt><trkpt lat="40.370843861936194" lon="15.055370314307474"><ele>164.5</ele><time>2026-03-29T10:46:49Z</time></trkpt><trkpt lat="40.37088905126679" lon="15.055186257216223"><ele>161.0</ele><time>2026-03-29T10:46:50Z</time></trkpt><trkpt lat="40.37094025359166" lon="15.05500294748644"><ele>157.5</ele><time>2026-03-29T10:46:51Z</time></trkpt><trkpt lat="40.37099929342335" lon="15.054831993283607"><ele>154.0</ele><time>2026-03-29T10:46:52Z</time></trkpt><trkpt lat="40.37107063035157" lon="15.054664821079234"><ele>154.75</ele><time>2026-03-29T10:46:53Z</time></trkpt><trkpt lat="40.37116020727948" lon="15.054507775829393"><ele>155.5</ele><time>2026-03-29T10:46:54Z</time></trkpt><trkpt lat="40.371259062599584" lon="15.05436208412915"><ele>156.25</ele><time>2026-03-29T10:46:55Z</time></trkpt><trkpt lat="40.37136112398901" lon="15.054224301927144"><ele>157.0</ele><time>2026-03-29T10:46:56Z</time></trkpt><trkpt lat="40.3714475398795" lon="15.054079941049366"><ele>155.2</ele><time>2026-03-29T10:46:57Z</time></trkpt><trkpt lat="40.37152797401423" lon="15.053967956854349"><ele>153.39999999999998</ele><time>2026-03-29T10:46:58Z</time></trkpt><trkpt lat="40.37158459229677" lon="15.05386721663527"><ele>151.60000000000002</ele><time>2026-03-29T10:46:59Z</time></trkpt><trkpt lat="40.37162691960104" lon="15.053772783099909"><ele>149.8</ele><time>2026-03-29T10:47:00Z</time></trkpt><trkpt lat="40.371595639644326" lon="15.053630485554013"><ele>148.0</ele><time>2026-03-29T10:47:01Z</time></trkpt><trkpt lat="40.37156350121042" lon="15.053499309330308"><ele>148.0</ele><time>2026-03-29T10:47:02Z</time></trkpt><trkpt lat="40.371544452449605" lon="15.053354869463499"><ele>148.0</ele><time>2026-03-29T10:47:03Z</time></trkpt><trkpt lat="40.371530763774" lon="15.053230975662728"><ele>148.0</ele><time>2026-03-29T10:47:04Z</time></trkpt><trkpt lat="40.37156029307799" lon="15.053143240084982"><ele>148.0</ele><time>2026-03-29T10:47:05Z</time></trkpt><trkpt lat="40.3715928609701" lon="15.053063169205087"><ele>148.0</ele><time>2026-03-29T10:47:06Z</time></trkpt><trkpt lat="40.371682781758196" lon="15.05305605140899"><ele>148.0</ele><time>2026-03-29T10:47:07Z</time></trkpt><trkpt lat="40.37177262840826" lon="15.053029872616687"><ele>145.4</ele><time>2026-03-29T10:47:08Z</time></trkpt><trkpt lat="40.371862850493926" lon="15.052956040809574"><ele>142.8</ele><time>2026-03-29T10:47:09Z</time></trkpt><trkpt lat="40.3719354152716" lon="15.052891841468726"><ele>140.2</ele><time>2026-03-29T10:47:10Z</time></trkpt><trkpt lat="40.3719524720977" lon="15.052751291096568"><ele>137.6</ele><time>2026-03-29T10:47:11Z</time></trkpt><trkpt lat="40.371955826112114" lon="15.052604282008673"><ele>135.0</ele><time>2026-03-29T10:47:12Z</time></trkpt><trkpt lat="40.3719466790446" lon="15.052448761225186"><ele>135.0</ele><time>2026-03-29T10:47:13Z</time></trkpt><trkpt lat="40.371969009272874" lon="15.052310078680733"><ele>135.0</ele><time>2026-03-29T10:47:14Z</time></trkpt><trkpt lat="40.37198535824048" lon="15.05218703413235"><ele>135.0</ele><time>2026-03-29T10:47:15Z</time></trkpt><trkpt lat="40.37204197223897" lon="15.052103153373402"><ele>135.0</ele><time>2026-03-29T10:47:16Z</time></trkpt><trkpt lat="40.37211270118553" lon="15.052013582434633"><ele>135.0</ele><time>2026-03-29T10:47:17Z</time></trkpt><trkpt lat="40.37223263890682" lon="15.051981751827494"><ele>135.0</ele><time>2026-03-29T10:47:18Z</time></trkpt><trkpt lat="40.37233625846191" lon="15.051921007555022"><ele>135.0</ele><time>2026-03-29T10:47:19Z</time></trkpt><trkpt lat="40.37243720780122" lon="15.051840821378638"><ele>135.0</ele><time>2026-03-29T10:47:20Z</time></trkpt><trkpt lat="40.37255698307925" lon="15.051757273681199"><ele>135.0</ele><time>2026-03-29T10:47:21Z</time></trkpt><trkpt lat="40.37263743445196" lon="15.051647435141238"><ele>130.5</ele><time>2026-03-29T10:47:22Z</time></trkpt><trkpt lat="40.372717550391805" lon="15.051528190373201"><ele>126.0</ele><time>2026-03-29T10:47:23Z</time></trkpt><trkpt lat="40.372799189133865" lon="15.051388388574546"><ele>121.5</ele><time>2026-03-29T10:47:24Z</time></trkpt><trkpt lat="40.37288302779414" lon="15.051233164803664"><ele>117.0</ele><time>2026-03-29T10:47:25.001Z</time></trkpt><trkpt lat="40.37295825438063" lon="15.051072516299039"><ele>115.33333333333334</ele><time>2026-03-29T10:47:26.001Z</time></trkpt><trkpt lat="40.3730476131381" lon="15.050912952321314"><ele>113.66666666666667</ele><time>2026-03-29T10:47:27.001Z</time></trkpt><trkpt lat="40.373123060297566" lon="15.050741974540596"><ele>112.0</ele><time>2026-03-29T10:47:28.001Z</time></trkpt><trkpt lat="40.373211185839885" lon="15.050582264969645"><ele>112.0</ele><time>2026-03-29T10:47:29.001Z</time></trkpt><trkpt lat="40.37330395301458" lon="15.050437904193458"><ele>112.0</ele><time>2026-03-29T10:47:30Z</time></trkpt><trkpt lat="40.37338933298415" lon="15.050291634412789"><ele>112.0</ele><time>2026-03-29T10:47:31.001Z</time></trkpt><trkpt lat="40.37349012499233" lon="15.050164008225275"><ele>112.0</ele><time>2026-03-29T10:47:32Z</time></trkpt><trkpt lat="40.37357863715407" lon="15.050041578157247"><ele>110.0</ele><time>2026-03-29T10:47:33Z</time></trkpt><trkpt lat="40.373626475669475" lon="15.049896776541036"><ele>108.0</ele><time>2026-03-29T10:47:34Z</time></trkpt><trkpt lat="40.37365368891653" lon="15.049733304812674"><ele>106.0</ele><time>2026-03-29T10:47:35Z</time></trkpt><trkpt lat="40.37367511108204" lon="15.049553923738788"><ele>104.0</ele><time>2026-03-29T10:47:36Z</time></trkpt><trkpt lat="40.37369552372536" lon="15.049382972376621"><ele>104.0</ele><time>2026-03-29T10:47:37Z</time></trkpt><trkpt lat="40.37374959313171" lon="15.049231170554426"><ele>104.0</ele><time>2026-03-29T10:47:38Z</time></trkpt><trkpt lat="40.37380492141516" lon="15.049110811384686"><ele>104.0</ele><time>2026-03-29T10:47:39Z</time></trkpt><trkpt lat="40.37387974295814" lon="15.049013169152536"><ele>104.0</ele><time>2026-03-29T10:47:40Z</time></trkpt><trkpt lat="40.37397677785994" lon="15.0489221689031"><ele>103.0</ele><time>2026-03-29T10:47:41Z</time></trkpt><trkpt lat="40.37409643284426" lon="15.048828027140205"><ele>102.0</ele><time>2026-03-29T10:47:42Z</time></trkpt><trkpt lat="40.37421947595626" lon="15.048714141388283"><ele>101.0</ele><time>2026-03-29T10:47:43Z</time></trkpt><trkpt lat="40.37434843793038" lon="15.048607538360395"><ele>100.0</ele><time>2026-03-29T10:47:44Z</time></trkpt><trkpt lat="40.37447606768629" lon="15.048508011200367"><ele>100.0</ele><time>2026-03-29T10:47:45Z</time></trkpt><trkpt lat="40.37461191636536" lon="15.048398985864367"><ele>100.0</ele><time>2026-03-29T10:47:46Z</time></trkpt><trkpt lat="40.37474578463443" lon="15.04830828602991"><ele>100.0</ele><time>2026-03-29T10:47:47Z</time></trkpt><trkpt lat="40.3748737595588" lon="15.048221577338376"><ele>96.75</ele><time>2026-03-29T10:47:48Z</time></trkpt><trkpt lat="40.37498774922245" lon="15.048139970158838"><ele>93.5</ele><time>2026-03-29T10:47:49Z</time></trkpt><trkpt lat="40.375084739455126" lon="15.048043438424298"><ele>90.25</ele><time>2026-03-29T10:47:50Z</time></trkpt><trkpt lat="40.375163515876636" lon="15.047931502823442"><ele>87.0</ele><time>2026-03-29T10:47:51Z</time></trkpt><trkpt lat="40.375226545473396" lon="15.047795816343758"><ele>87.0</ele><time>2026-03-29T10:47:52Z</time></trkpt><trkpt lat="40.37528395269447" lon="15.047628375427546"><ele>87.0</ele><time>2026-03-29T10:47:53Z</time></trkpt><trkpt lat="40.37535437695217" lon="15.047461492849639"><ele>87.0</ele><time>2026-03-29T10:47:54Z</time></trkpt><trkpt lat="40.37542555272541" lon="15.047287098057614"><ele>87.0</ele><time>2026-03-29T10:47:55Z</time></trkpt><trkpt lat="40.37549812894519" lon="15.047118215878845"><ele>86.0</ele><time>2026-03-29T10:47:56Z</time></trkpt><trkpt lat="40.37557145336225" lon="15.046960339241732"><ele>85.0</ele><time>2026-03-29T10:47:57Z</time></trkpt><trkpt lat="40.375660823942475" lon="15.04679683818824"><ele>84.0</ele><time>2026-03-29T10:47:58Z</time></trkpt><trkpt lat="40.3757481652764" lon="15.04665531347977"><ele>83.0</ele><time>2026-03-29T10:47:59Z</time></trkpt><trkpt lat="40.375839994477296" lon="15.046538017818586"><ele>79.75</ele><time>2026-03-29T10:48:00Z</time></trkpt><trkpt lat="40.375906693419296" lon="15.046411310199472"><ele>76.5</ele><time>2026-03-29T10:48:01Z</time></trkpt><trkpt lat="40.375994663108614" lon="15.046322268132636"><ele>73.25</ele><time>2026-03-29T10:48:02Z</time></trkpt><trkpt lat="40.376103407022846" lon="15.046281198672245"><ele>70.0</ele><time>2026-03-29T10:48:03Z</time></trkpt><trkpt lat="40.37622125658654" lon="15.046222895889361"><ele>70.0</ele><time>2026-03-29T10:48:04Z</time></trkpt><trkpt lat="40.37634909680949" lon="15.046163485823586"><ele>70.0</ele><time>2026-03-29T10:48:05Z</time></trkpt><trkpt lat="40.376468372546434" lon="15.046092768243758"><ele>70.0</ele><time>2026-03-29T10:48:06Z</time></trkpt><trkpt lat="40.3765871832057" lon="15.046046567193748"><ele>70.0</ele><time>2026-03-29T10:48:07Z</time></trkpt><trkpt lat="40.37670354656283" lon="15.046008827298937"><ele>70.0</ele><time>2026-03-29T10:48:08Z</time></trkpt><trkpt lat="40.37681243829719" lon="15.04600072950453"><ele>70.0</ele><time>2026-03-29T10:48:09Z</time></trkpt><trkpt lat="40.37690706476141" lon="15.04598363410051"><ele>70.0</ele><time>2026-03-29T10:48:10Z</time></trkpt><trkpt lat="40.376987444121895" lon="15.04604071751916"><ele>70.0</ele><time>2026-03-29T10:48:11Z</time></trkpt><trkpt lat="40.377053079037985" lon="15.046120071376288"><ele>70.0</ele><time>2026-03-29T10:48:12Z</time></trkpt><trkpt lat="40.377086195781516" lon="15.046211024773605"><ele>70.0</ele><time>2026-03-29T10:48:13Z</time></trkpt><trkpt lat="40.37710276025826" lon="15.046328498847473"><ele>70.0</ele><time>2026-03-29T10:48:14Z</time></trkpt><trkpt lat="40.377115912288495" lon="15.046473196192965"><ele>70.0</ele><time>2026-03-29T10:48:15Z</time></trkpt><trkpt lat="40.377090715307006" lon="15.046623464809475"><ele>70.0</ele><time>2026-03-29T10:48:16Z</time></trkpt><trkpt lat="40.37705786106465" lon="15.046774545031086"><ele>70.0</ele><time>2026-03-29T10:48:17Z</time></trkpt><trkpt lat="40.37702036466763" lon="15.046918950819718"><ele>70.25</ele><time>2026-03-29T10:48:18Z</time></trkpt><trkpt lat="40.37699249185248" lon="15.047081190056401"><ele>70.5</ele><time>2026-03-29T10:48:19Z</time></trkpt><trkpt lat="40.376945438909324" lon="15.047249982181597"><ele>70.75</ele><time>2026-03-29T10:48:20Z</time></trkpt><trkpt lat="40.376894307990355" lon="15.047423348802454"><ele>71.0</ele><time>2026-03-29T10:48:21Z</time></trkpt><trkpt lat="40.37685649158689" lon="15.04759800306864"><ele>71.0</ele><time>2026-03-29T10:48:22Z</time></trkpt><trkpt lat="40.376830556908466" lon="15.047771122552556"><ele>71.0</ele><time>2026-03-29T10:48:23Z</time></trkpt><trkpt lat="40.376809785870535" lon="15.047950893614095"><ele>71.0</ele><time>2026-03-29T10:48:24Z</time></trkpt><trkpt lat="40.376798568115746" lon="15.048121065562398"><ele>71.0</ele><time>2026-03-29T10:48:25Z</time></trkpt><trkpt lat="40.376779851222985" lon="15.048289348482134"><ele>69.75</ele><time>2026-03-29T10:48:26Z</time></trkpt><trkpt lat="40.37676809755613" lon="15.048456802868147"><ele>68.5</ele><time>2026-03-29T10:48:27Z</time></trkpt><trkpt lat="40.37674921247942" lon="15.04861929091178"><ele>67.25</ele><time>2026-03-29T10:48:28Z</time></trkpt><trkpt lat="40.37674969555519" lon="15.048767699739313"><ele>66.0</ele><time>2026-03-29T10:48:29Z</time></trkpt><trkpt lat="40.37676373613652" lon="15.04891447898894"><ele>66.0</ele><time>2026-03-29T10:48:30Z</time></trkpt><trkpt lat="40.376798594660436" lon="15.04904167409247"><ele>66.0</ele><time>2026-03-29T10:48:31Z</time></trkpt><trkpt lat="40.37685887584933" lon="15.049151938850212"><ele>66.0</ele><time>2026-03-29T10:48:32Z</time></trkpt><trkpt lat="40.3769330712045" lon="15.049230321667135"><ele>66.0</ele><time>2026-03-29T10:48:33Z</time></trkpt><trkpt lat="40.37701460795257" lon="15.04927231200704"><ele>66.0</ele><time>2026-03-29T10:48:34Z</time></trkpt><trkpt lat="40.37710979556119" lon="15.049286332170643"><ele>63.4</ele><time>2026-03-29T10:48:35Z</time></trkpt><trkpt lat="40.37720993871649" lon="15.049266912398584"><ele>60.8</ele><time>2026-03-29T10:48:36Z</time></trkpt><trkpt lat="40.37730769813268" lon="15.049220581148099"><ele>58.199999999999996</ele><time>2026-03-29T10:48:37Z</time></trkpt><trkpt lat="40.3774011261636" lon="15.049143825688008"><ele>55.599999999999994</ele><time>2026-03-29T10:48:38Z</time></trkpt><trkpt lat="40.37748622057962" lon="15.049045700108081"><ele>53.0</ele><time>2026-03-29T10:48:39Z</time></trkpt><trkpt lat="40.37757378427663" lon="15.048919980745762"><ele>52.5</ele><time>2026-03-29T10:48:40Z</time></trkpt><trkpt lat="40.377662428166296" lon="15.048775883526247"><ele>52.0</ele><time>2026-03-29T10:48:41Z</time></trkpt><trkpt lat="40.377760202768634" lon="15.04864878578582"><ele>51.5</ele><time>2026-03-29T10:48:42Z</time></trkpt><trkpt lat="40.377853784978264" lon="15.048519110747558"><ele>51.0</ele><time>2026-03-29T10:48:43Z</time></trkpt><trkpt lat="40.37795536696221" lon="15.04840230966775"><ele>48.75</ele><time>2026-03-29T10:48:44Z</time></trkpt><trkpt lat="40.378060450247425" lon="15.048301067509437"><ele>46.5</ele><time>2026-03-29T10:48:45Z</time></trkpt><trkpt lat="40.37817227483994" lon="15.048227730857427"><ele>44.25</ele><time>2026-03-29T10:48:46Z</time></trkpt><trkpt lat="40.37829322668256" lon="15.048179372171798"><ele>42.0</ele><time>2026-03-29T10:48:47Z</time></trkpt><trkpt lat="40.37842895858427" lon="15.048169138901653"><ele>42.0</ele><time>2026-03-29T10:48:48Z</time></trkpt><trkpt lat="40.37856523201183" lon="15.048110638949506"><ele>42.0</ele><time>2026-03-29T10:48:49Z</time></trkpt><trkpt lat="40.37869486409869" lon="15.048072320996473"><ele>42.0</ele><time>2026-03-29T10:48:50Z</time></trkpt><trkpt lat="40.3788230724758" lon="15.048052269799536"><ele>42.0</ele><time>2026-03-29T10:48:51Z</time></trkpt><trkpt lat="40.37894076695563" lon="15.048017657416741"><ele>40.25</ele><time>2026-03-29T10:48:52Z</time></trkpt><trkpt lat="40.37905384309475" lon="15.047966129876345"><ele>38.5</ele><time>2026-03-29T10:48:53Z</time></trkpt><trkpt lat="40.37916501735421" lon="15.047933587555113"><ele>36.75</ele><time>2026-03-29T10:48:54Z</time></trkpt><trkpt lat="40.37927465942496" lon="15.047900750995291"><ele>35.0</ele><time>2026-03-29T10:48:55Z</time></trkpt><trkpt lat="40.37938546971972" lon="15.047876226659511"><ele>35.0</ele><time>2026-03-29T10:48:56Z</time></trkpt><trkpt lat="40.37948596691671" lon="15.047847172022838"><ele>35.0</ele><time>2026-03-29T10:48:57Z</time></trkpt><trkpt lat="40.3795796560412" lon="15.047829721142293"><ele>35.0</ele><time>2026-03-29T10:48:58Z</time></trkpt><trkpt lat="40.37965790477372" lon="15.047801147690185"><ele>35.0</ele><time>2026-03-29T10:48:59Z</time></trkpt><trkpt lat="40.3797504518961" lon="15.047779594119405"><ele>35.0</ele><time>2026-03-29T10:49:01Z</time></trkpt><trkpt lat="40.379800833134155" lon="15.047876956737595"><ele>34.5</ele><time>2026-03-29T10:49:06Z</time></trkpt><trkpt lat="40.37979400876957" lon="15.047970384716583"><ele>34.0</ele><time>2026-03-29T10:49:08Z</time></trkpt><trkpt lat="40.37980961699347" lon="15.048063101240677"><ele>33.5</ele><time>2026-03-29T10:49:09Z</time></trkpt><trkpt lat="40.37981873121787" lon="15.048171398159955"><ele>33.0</ele><time>2026-03-29T10:49:10Z</time></trkpt><trkpt lat="40.37982543628976" lon="15.048283704661712"><ele>32.5</ele><time>2026-03-29T10:49:11Z</time></trkpt><trkpt lat="40.379830640386224" lon="15.048408713448364"><ele>32.0</ele><time>2026-03-29T10:49:12Z</time></trkpt><trkpt lat="40.3798423608498" lon="15.048527239387827"><ele>32.0</ele><time>2026-03-29T10:49:13Z</time></trkpt><trkpt lat="40.379857585373664" lon="15.048673231359095"><ele>32.0</ele><time>2026-03-29T10:49:14Z</time></trkpt><trkpt lat="40.379864860840776" lon="15.048827579795114"><ele>32.0</ele><time>2026-03-29T10:49:15Z</time></trkpt><trkpt lat="40.37987555552715" lon="15.048982878611241"><ele>32.0</ele><time>2026-03-29T10:49:16Z</time></trkpt><trkpt lat="40.37988676816459" lon="15.049126736161133"><ele>32.0</ele><time>2026-03-29T10:49:17Z</time></trkpt><trkpt lat="40.37989653771169" lon="15.049283957857192"><ele>32.0</ele><time>2026-03-29T10:49:18Z</time></trkpt><trkpt lat="40.3799056632528" lon="15.049445136386796"><ele>32.0</ele><time>2026-03-29T10:49:19Z</time></trkpt><trkpt lat="40.379916377709236" lon="15.049610786744248"><ele>32.0</ele><time>2026-03-29T10:49:20Z</time></trkpt><trkpt lat="40.379927894296166" lon="15.049767416841362"><ele>32.0</ele><time>2026-03-29T10:49:21Z</time></trkpt><trkpt lat="40.37993898515468" lon="15.04992724069885"><ele>32.0</ele><time>2026-03-29T10:49:22Z</time></trkpt><trkpt lat="40.3799490442988" lon="15.050090296266765"><ele>32.0</ele><time>2026-03-29T10:49:23Z</time></trkpt><trkpt lat="40.37995383929087" lon="15.050256342523054"><ele>32.0</ele><time>2026-03-29T10:49:24Z</time></trkpt><trkpt lat="40.37996557546485" lon="15.050416026317846"><ele>32.25</ele><time>2026-03-29T10:49:25Z</time></trkpt><trkpt lat="40.37998164922689" lon="15.050579319553831"><ele>32.5</ele><time>2026-03-29T10:49:26Z</time></trkpt><trkpt lat="40.3799906455413" lon="15.050745753916505"><ele>32.75</ele><time>2026-03-29T10:49:27Z</time></trkpt><trkpt lat="40.380001132747005" lon="15.050914888942117"><ele>33.0</ele><time>2026-03-29T10:49:28Z</time></trkpt><trkpt lat="40.380027017965176" lon="15.05108363428758"><ele>33.5</ele><time>2026-03-29T10:49:29Z</time></trkpt><trkpt lat="40.38007036231673" lon="15.051244741023382"><ele>34.0</ele><time>2026-03-29T10:49:30Z</time></trkpt><trkpt lat="40.380122073939795" lon="15.051410801752425"><ele>34.5</ele><time>2026-03-29T10:49:31Z</time></trkpt><trkpt lat="40.380152364099715" lon="15.05158881764611"><ele>35.0</ele><time>2026-03-29T10:49:32Z</time></trkpt><trkpt lat="40.38020540603224" lon="15.051757331812484"><ele>35.5</ele><time>2026-03-29T10:49:33Z</time></trkpt><trkpt lat="40.38024029463021" lon="15.051936730632157"><ele>36.0</ele><time>2026-03-29T10:49:34Z</time></trkpt><trkpt lat="40.38028745103972" lon="15.05210301996724"><ele>36.5</ele><time>2026-03-29T10:49:35Z</time></trkpt><trkpt lat="40.380340298997844" lon="15.05226496408022"><ele>37.0</ele><time>2026-03-29T10:49:36Z</time></trkpt><trkpt lat="40.38040117503747" lon="15.05242834054254"><ele>36.75</ele><time>2026-03-29T10:49:37Z</time></trkpt><trkpt lat="40.380479512125696" lon="15.052587059568548"><ele>36.5</ele><time>2026-03-29T10:49:38Z</time></trkpt><trkpt lat="40.38056187959074" lon="15.052737837130794"><ele>36.25</ele><time>2026-03-29T10:49:39Z</time></trkpt><trkpt lat="40.38063746249924" lon="15.052886668099115"><ele>36.0</ele><time>2026-03-29T10:49:40Z</time></trkpt><trkpt lat="40.38071233888242" lon="15.053029848336699"><ele>36.0</ele><time>2026-03-29T10:49:41Z</time></trkpt><trkpt lat="40.38078171479446" lon="15.053148682031484"><ele>36.0</ele><time>2026-03-29T10:49:42Z</time></trkpt><trkpt lat="40.38085086517916" lon="15.053258730213518"><ele>36.0</ele><time>2026-03-29T10:49:43Z</time></trkpt><trkpt lat="40.38091782100373" lon="15.053349198413226"><ele>36.0</ele><time>2026-03-29T10:49:44Z</time></trkpt><trkpt lat="40.38095751411711" lon="15.05343457646481"><ele>36.0</ele><time>2026-03-29T10:49:45Z</time></trkpt><trkpt lat="40.38114859289231" lon="15.053366446309546"><ele>36.0</ele><time>2026-03-29T10:49:47Z</time></trkpt><trkpt lat="40.38123770116976" lon="15.053289801904652"><ele>36.0</ele><time>2026-03-29T10:49:48Z</time></trkpt><trkpt lat="40.38133030887494" lon="15.053197825013399"><ele>36.0</ele><time>2026-03-29T10:49:49Z</time></trkpt><trkpt lat="40.38143386780912" lon="15.053098769566512"><ele>36.0</ele><time>2026-03-29T10:49:50Z</time></trkpt><trkpt lat="40.38155674023784" lon="15.05300041864456"><ele>35.25</ele><time>2026-03-29T10:49:51Z</time></trkpt><trkpt lat="40.3816805898968" lon="15.052907771246119"><ele>34.5</ele><time>2026-03-29T10:49:52Z</time></trkpt><trkpt lat="40.38180400560462" lon="15.052814660595445"><ele>33.75</ele><time>2026-03-29T10:49:53Z</time></trkpt><trkpt lat="40.38194174708214" lon="15.052722652062025"><ele>33.0</ele><time>2026-03-29T10:49:54Z</time></trkpt><trkpt lat="40.38208777876259" lon="15.052629396728898"><ele>31.666666666666664</ele><time>2026-03-29T10:49:55Z</time></trkpt><trkpt lat="40.38223455469553" lon="15.052528447187338"><ele>30.333333333333332</ele><time>2026-03-29T10:49:56Z</time></trkpt><trkpt lat="40.38237919159843" lon="15.052424073059381"><ele>29.0</ele><time>2026-03-29T10:49:57Z</time></trkpt><trkpt lat="40.38252828191194" lon="15.052324850793736"><ele>28.666666666666664</ele><time>2026-03-29T10:49:58Z</time></trkpt><trkpt lat="40.382678247698486" lon="15.052227150580789"><ele>28.333333333333336</ele><time>2026-03-29T10:49:59Z</time></trkpt><trkpt lat="40.382832917264494" lon="15.052122565502879"><ele>28.0</ele><time>2026-03-29T10:50:00Z</time></trkpt><trkpt lat="40.38298858295853" lon="15.052017333190085"><ele>27.333333333333336</ele><time>2026-03-29T10:50:01Z</time></trkpt><trkpt lat="40.38314592762883" lon="15.051912844474899"><ele>26.666666666666664</ele><time>2026-03-29T10:50:02Z</time></trkpt><trkpt lat="40.38329777093157" lon="15.051811297304521"><ele>26.0</ele><time>2026-03-29T10:50:03Z</time></trkpt><trkpt lat="40.38344871773028" lon="15.051716996382266"><ele>26.0</ele><time>2026-03-29T10:50:04Z</time></trkpt><trkpt lat="40.38360410731532" lon="15.051618866242222"><ele>26.0</ele><time>2026-03-29T10:50:05Z</time></trkpt><trkpt lat="40.383759766380074" lon="15.05152313190234"><ele>26.0</ele><time>2026-03-29T10:50:06Z</time></trkpt><trkpt lat="40.38391579625879" lon="15.051422947191382"><ele>26.0</ele><time>2026-03-29T10:50:07Z</time></trkpt><trkpt lat="40.384077160452534" lon="15.051320583859848"><ele>26.0</ele><time>2026-03-29T10:50:08Z</time></trkpt><trkpt lat="40.38423026137395" lon="15.051229170205286"><ele>26.0</ele><time>2026-03-29T10:50:09Z</time></trkpt><trkpt lat="40.384393778342485" lon="15.051132554543512"><ele>26.0</ele><time>2026-03-29T10:50:10Z</time></trkpt><trkpt lat="40.38452990848078" lon="15.051025300830386"><ele>26.0</ele><time>2026-03-29T10:50:11Z</time></trkpt><trkpt lat="40.384667822612705" lon="15.050937505542528"><ele>26.0</ele><time>2026-03-29T10:50:12Z</time></trkpt><trkpt lat="40.38479264718179" lon="15.05086476739125"><ele>26.0</ele><time>2026-03-29T10:50:13Z</time></trkpt><trkpt lat="40.38491754721427" lon="15.050793928874025"><ele>26.0</ele><time>2026-03-29T10:50:14Z</time></trkpt><trkpt lat="40.38503022780597" lon="15.050736868814607"><ele>26.0</ele><time>2026-03-29T10:50:15Z</time></trkpt><trkpt lat="40.38512704467296" lon="15.050722029202145"><ele>26.0</ele><time>2026-03-29T10:50:16Z</time></trkpt><trkpt lat="40.38520610992529" lon="15.050778447794109"><ele>26.0</ele><time>2026-03-29T10:50:17Z</time></trkpt><trkpt lat="40.38529781789881" lon="15.05082446779141"><ele>26.0</ele><time>2026-03-29T10:50:18Z</time></trkpt><trkpt lat="40.385402201462526" lon="15.050882842889205"><ele>25.75</ele><time>2026-03-29T10:50:19Z</time></trkpt><trkpt lat="40.385514330035086" lon="15.050949964474137"><ele>25.5</ele><time>2026-03-29T10:50:20Z</time></trkpt><trkpt lat="40.38564078128608" lon="15.051008910383862"><ele>25.25</ele><time>2026-03-29T10:50:21Z</time></trkpt><trkpt lat="40.38576241683183" lon="15.05109840328939"><ele>25.0</ele><time>2026-03-29T10:50:22Z</time></trkpt><trkpt lat="40.38590266043816" lon="15.05118185579701"><ele>25.0</ele><time>2026-03-29T10:50:23Z</time></trkpt><trkpt lat="40.3860381375203" lon="15.05125922109588"><ele>25.0</ele><time>2026-03-29T10:50:24Z</time></trkpt><trkpt lat="40.386169706618354" lon="15.051336233868083"><ele>25.0</ele><time>2026-03-29T10:50:25Z</time></trkpt><trkpt lat="40.386306198470756" lon="15.051421062550672"><ele>25.0</ele><time>2026-03-29T10:50:26Z</time></trkpt><trkpt lat="40.386452351814604" lon="15.051504752811056"><ele>25.0</ele><time>2026-03-29T10:50:27Z</time></trkpt><trkpt lat="40.386597838486026" lon="15.051584128103737"><ele>25.0</ele><time>2026-03-29T10:50:28Z</time></trkpt><trkpt lat="40.38674603989341" lon="15.05166829477781"><ele>25.0</ele><time>2026-03-29T10:50:29Z</time></trkpt><trkpt lat="40.386886696638385" lon="15.051753542837567"><ele>25.0</ele><time>2026-03-29T10:50:30Z</time></trkpt><trkpt lat="40.38700503244079" lon="15.05182603741045"><ele>25.0</ele><time>2026-03-29T10:50:31Z</time></trkpt><trkpt lat="40.387127639674546" lon="15.051895204151384"><ele>25.0</ele><time>2026-03-29T10:50:32Z</time></trkpt><trkpt lat="40.38724684415081" lon="15.05195690173916"><ele>25.0</ele><time>2026-03-29T10:50:33Z</time></trkpt><trkpt lat="40.38735954826703" lon="15.052013110689675"><ele>25.4</ele><time>2026-03-29T10:50:34Z</time></trkpt><trkpt lat="40.38746165228733" lon="15.052055818540156"><ele>25.8</ele><time>2026-03-29T10:50:35Z</time></trkpt><trkpt lat="40.38756023958984" lon="15.05209737298428"><ele>26.200000000000003</ele><time>2026-03-29T10:50:36Z</time></trkpt><trkpt lat="40.387653265203795" lon="15.052148189748324"><ele>26.6</ele><time>2026-03-29T10:50:37Z</time></trkpt><trkpt lat="40.38772945209018" lon="15.052214274610726"><ele>27.0</ele><time>2026-03-29T10:50:38Z</time></trkpt><trkpt lat="40.387795110033224" lon="15.052252597445728"><ele>27.0</ele><time>2026-03-29T10:50:39Z</time></trkpt><trkpt lat="40.3877934447966" lon="15.05238196132446"><ele>27.000000000000004</ele><time>2026-03-29T10:50:40Z</time></trkpt><trkpt lat="40.38782019751421" lon="15.05250087084019"><ele>27.000000000000004</ele><time>2026-03-29T10:50:41Z</time></trkpt><trkpt lat="40.38786755401562" lon="15.052644972338928"><ele>27.0</ele><time>2026-03-29T10:50:42Z</time></trkpt><trkpt lat="40.38790425206537" lon="15.052810769653602"><ele>27.0</ele><time>2026-03-29T10:50:43Z</time></trkpt><trkpt lat="40.38794535332235" lon="15.05299066449101"><ele>26.75</ele><time>2026-03-29T10:50:44Z</time></trkpt><trkpt lat="40.387981935213006" lon="15.053151810573752"><ele>26.5</ele><time>2026-03-29T10:50:45Z</time></trkpt><trkpt lat="40.388019332633355" lon="15.053321240609108"><ele>26.25</ele><time>2026-03-29T10:50:46Z</time></trkpt><trkpt lat="40.388066000887555" lon="15.053503075166223"><ele>26.0</ele><time>2026-03-29T10:50:47Z</time></trkpt><trkpt lat="40.38810980737508" lon="15.053703615650553"><ele>26.666666666666664</ele><time>2026-03-29T10:50:48Z</time></trkpt><trkpt lat="40.38815695144547" lon="15.053907307095756"><ele>27.333333333333336</ele><time>2026-03-29T10:50:49Z</time></trkpt><trkpt lat="40.38820221496758" lon="15.05410859774996"><ele>28.0</ele><time>2026-03-29T10:50:50Z</time></trkpt><trkpt lat="40.38825443765502" lon="15.054305948583178"><ele>28.0</ele><time>2026-03-29T10:50:51Z</time></trkpt><trkpt lat="40.38830178918569" lon="15.054509642262655"><ele>28.0</ele><time>2026-03-29T10:50:52Z</time></trkpt><trkpt lat="40.38834886278708" lon="15.054715537901282"><ele>28.0</ele><time>2026-03-29T10:50:53Z</time></trkpt><trkpt lat="40.38839497145838" lon="15.054921868915546"><ele>27.666666666666668</ele><time>2026-03-29T10:50:54Z</time></trkpt><trkpt lat="40.38844659607308" lon="15.055131504681595"><ele>27.333333333333336</ele><time>2026-03-29T10:50:55Z</time></trkpt><trkpt lat="40.388498499387445" lon="15.055341539455949"><ele>27.0</ele><time>2026-03-29T10:50:56Z</time></trkpt><trkpt lat="40.38854853670114" lon="15.055555436713693"><ele>27.0</ele><time>2026-03-29T10:50:57Z</time></trkpt><trkpt lat="40.38859657143762" lon="15.055767350647375"><ele>27.0</ele><time>2026-03-29T10:50:58Z</time></trkpt><trkpt lat="40.38864230752397" lon="15.055986194449748"><ele>27.0</ele><time>2026-03-29T10:50:59Z</time></trkpt><trkpt lat="40.38868916060751" lon="15.056203402675983"><ele>27.333333333333336</ele><time>2026-03-29T10:51:00Z</time></trkpt><trkpt lat="40.38873981570633" lon="15.056413887448945"><ele>27.666666666666668</ele><time>2026-03-29T10:51:01Z</time></trkpt><trkpt lat="40.38879092769489" lon="15.056625027190783"><ele>28.0</ele><time>2026-03-29T10:51:02Z</time></trkpt><trkpt lat="40.38884687883903" lon="15.056848007397283"><ele>28.0</ele><time>2026-03-29T10:51:03Z</time></trkpt><trkpt lat="40.38889583786904" lon="15.057058619345018"><ele>28.0</ele><time>2026-03-29T10:51:04Z</time></trkpt><trkpt lat="40.38894478360558" lon="15.057279690196372"><ele>28.0</ele><time>2026-03-29T10:51:05Z</time></trkpt><trkpt lat="40.38899681971381" lon="15.057489188661576"><ele>28.666666666666668</ele><time>2026-03-29T10:51:06Z</time></trkpt><trkpt lat="40.389051487341035" lon="15.057709833385545"><ele>29.333333333333336</ele><time>2026-03-29T10:51:07Z</time></trkpt><trkpt lat="40.38910545205445" lon="15.057929742378994"><ele>30.0</ele><time>2026-03-29T10:51:08Z</time></trkpt><trkpt lat="40.38915343357735" lon="15.058144321610536"><ele>30.666666666666664</ele><time>2026-03-29T10:51:09Z</time></trkpt><trkpt lat="40.389207178721996" lon="15.058368214287867"><ele>31.333333333333332</ele><time>2026-03-29T10:51:10Z</time></trkpt><trkpt lat="40.38925688044507" lon="15.058589108283325"><ele>32.0</ele><time>2026-03-29T10:51:11Z</time></trkpt><trkpt lat="40.38931040032939" lon="15.05880699267477"><ele>32.0</ele><time>2026-03-29T10:51:12Z</time></trkpt><trkpt lat="40.389361554386454" lon="15.059023595583879"><ele>32.0</ele><time>2026-03-29T10:51:13Z</time></trkpt><trkpt lat="40.38940582171437" lon="15.05923830364111"><ele>32.0</ele><time>2026-03-29T10:51:14Z</time></trkpt><trkpt lat="40.389452274979774" lon="15.059443018691674"><ele>31.666666666666664</ele><time>2026-03-29T10:51:15Z</time></trkpt><trkpt lat="40.38950149592152" lon="15.059646240065842"><ele>31.333333333333336</ele><time>2026-03-29T10:51:16Z</time></trkpt><trkpt lat="40.38955535738102" lon="15.059849300960009"><ele>31.0</ele><time>2026-03-29T10:51:17Z</time></trkpt><trkpt lat="40.38960345428145" lon="15.060052098044336"><ele>31.666666666666668</ele><time>2026-03-29T10:51:18Z</time></trkpt><trkpt lat="40.38964837760823" lon="15.060253782268887"><ele>32.333333333333336</ele><time>2026-03-29T10:51:19Z</time></trkpt><trkpt lat="40.38969828701444" lon="15.060459908101306"><ele>33.0</ele><time>2026-03-29T10:51:20Z</time></trkpt><trkpt lat="40.38975266490238" lon="15.060665635056424"><ele>34.0</ele><time>2026-03-29T10:51:21Z</time></trkpt><trkpt lat="40.38979904164206" lon="15.060856215910366"><ele>35.0</ele><time>2026-03-29T10:51:22Z</time></trkpt><trkpt lat="40.389823072177414" lon="15.061049996385544"><ele>36.0</ele><time>2026-03-29T10:51:23Z</time></trkpt><trkpt lat="40.38985738604218" lon="15.0612514055095"><ele>36.0</ele><time>2026-03-29T10:51:24Z</time></trkpt><trkpt lat="40.38982205109902" lon="15.061457838638953"><ele>36.0</ele><time>2026-03-29T10:51:25Z</time></trkpt><trkpt lat="40.38979416085197" lon="15.0616660950662"><ele>36.0</ele><time>2026-03-29T10:51:26Z</time></trkpt><trkpt lat="40.38975684815682" lon="15.061880324980551"><ele>36.333333333333336</ele><time>2026-03-29T10:51:27Z</time></trkpt><trkpt lat="40.38971954079035" lon="15.062094787467453"><ele>36.66666666666667</ele><time>2026-03-29T10:51:28Z</time></trkpt><trkpt lat="40.38968251116105" lon="15.062308050066328"><ele>37.0</ele><time>2026-03-29T10:51:29Z</time></trkpt><trkpt lat="40.38964588940657" lon="15.062520046789764"><ele>37.0</ele><time>2026-03-29T10:51:30Z</time></trkpt><trkpt lat="40.3896233368216" lon="15.062741987125143"><ele>37.0</ele><time>2026-03-29T10:51:31Z</time></trkpt><trkpt lat="40.389582629184545" lon="15.062956542327028"><ele>37.0</ele><time>2026-03-29T10:51:32Z</time></trkpt><trkpt lat="40.389549243268235" lon="15.063173540719193"><ele>37.333333333333336</ele><time>2026-03-29T10:51:33Z</time></trkpt><trkpt lat="40.389520896895164" lon="15.063371721700065"><ele>37.666666666666664</ele><time>2026-03-29T10:51:34Z</time></trkpt><trkpt lat="40.389497863641004" lon="15.063563350109693"><ele>38.0</ele><time>2026-03-29T10:51:35Z</time></trkpt><trkpt lat="40.389493243059256" lon="15.063763531913661"><ele>38.0</ele><time>2026-03-29T10:51:36Z</time></trkpt><trkpt lat="40.389514128096636" lon="15.06396471507607"><ele>38.0</ele><time>2026-03-29T10:51:37Z</time></trkpt><trkpt lat="40.389556620070216" lon="15.064170451030412"><ele>38.0</ele><time>2026-03-29T10:51:38Z</time></trkpt><trkpt lat="40.389607593745644" lon="15.064356128950754"><ele>38.5</ele><time>2026-03-29T10:51:39Z</time></trkpt><trkpt lat="40.38965067333262" lon="15.064531857981292"><ele>39.0</ele><time>2026-03-29T10:51:40Z</time></trkpt><trkpt lat="40.389696321947156" lon="15.064681225477523"><ele>39.5</ele><time>2026-03-29T10:51:41Z</time></trkpt><trkpt lat="40.38976099871968" lon="15.0647969299265"><ele>40.0</ele><time>2026-03-29T10:51:42Z</time></trkpt><trkpt lat="40.38984694149714" lon="15.064876781377134"><ele>41.5</ele><time>2026-03-29T10:51:43Z</time></trkpt><trkpt lat="40.389966912386924" lon="15.064928218730259"><ele>43.0</ele><time>2026-03-29T10:51:44Z</time></trkpt><trkpt lat="40.39010142306851" lon="15.064957378424069"><ele>44.5</ele><time>2026-03-29T10:51:45Z</time></trkpt><trkpt lat="40.39023959191842" lon="15.064969910106008"><ele>46.0</ele><time>2026-03-29T10:51:46Z</time></trkpt><trkpt lat="40.39036315755315" lon="15.064990469844835"><ele>46.0</ele><time>2026-03-29T10:51:47Z</time></trkpt><trkpt lat="40.390467595090215" lon="15.06504969590531"><ele>46.0</ele><time>2026-03-29T10:51:48Z</time></trkpt><trkpt lat="40.39055761145404" lon="15.065135608794266"><ele>46.0</ele><time>2026-03-29T10:51:49Z</time></trkpt><trkpt lat="40.39063695501884" lon="15.065259877163786"><ele>46.0</ele><time>2026-03-29T10:51:50Z</time></trkpt><trkpt lat="40.39068494027831" lon="15.065422342272736"><ele>46.75</ele><time>2026-03-29T10:51:51Z</time></trkpt><trkpt lat="40.3907582705904" lon="15.065578368701104"><ele>47.5</ele><time>2026-03-29T10:51:52Z</time></trkpt><trkpt lat="40.39081217452249" lon="15.065750370206503"><ele>48.25</ele><time>2026-03-29T10:51:53Z</time></trkpt><trkpt lat="40.390878844230684" lon="15.065929327239875"><ele>49.0</ele><time>2026-03-29T10:51:54Z</time></trkpt><trkpt lat="40.390942229358735" lon="15.066100367407785"><ele>49.0</ele><time>2026-03-29T10:51:55Z</time></trkpt><trkpt lat="40.3909920989218" lon="15.066256158150804"><ele>49.0</ele><time>2026-03-29T10:51:56Z</time></trkpt><trkpt lat="40.39104635134443" lon="15.066404921393838"><ele>49.0</ele><time>2026-03-29T10:51:57Z</time></trkpt><trkpt lat="40.39112366011269" lon="15.066534263539742"><ele>49.0</ele><time>2026-03-29T10:51:58Z</time></trkpt><trkpt lat="40.391214438616245" lon="15.066652322656598"><ele>48.25</ele><time>2026-03-29T10:51:59Z</time></trkpt><trkpt lat="40.39132188170746" lon="15.066765069174073"><ele>47.5</ele><time>2026-03-29T10:52:00Z</time></trkpt><trkpt lat="40.391438162251994" lon="15.066870940600976"><ele>46.75</ele><time>2026-03-29T10:52:01Z</time></trkpt><trkpt lat="40.3915468498063" lon="15.066987331229356"><ele>46.0</ele><time>2026-03-29T10:52:02Z</time></trkpt><trkpt lat="40.391648533079774" lon="15.067094717909537"><ele>47.0</ele><time>2026-03-29T10:52:03Z</time></trkpt><trkpt lat="40.39175351092714" lon="15.067215115986038"><ele>48.0</ele><time>2026-03-29T10:52:04Z</time></trkpt><trkpt lat="40.3918434310322" lon="15.067354425866364"><ele>49.0</ele><time>2026-03-29T10:52:05Z</time></trkpt><trkpt lat="40.391916518125306" lon="15.067502768733263"><ele>50.0</ele><time>2026-03-29T10:52:06Z</time></trkpt><trkpt lat="40.39198789019502" lon="15.06765674675262"><ele>50.0</ele><time>2026-03-29T10:52:07Z</time></trkpt><trkpt lat="40.39204691907955" lon="15.067806806785683"><ele>50.0</ele><time>2026-03-29T10:52:08Z</time></trkpt><trkpt lat="40.392091289132345" lon="15.067969960181586"><ele>50.0</ele><time>2026-03-29T10:52:09Z</time></trkpt><trkpt lat="40.392119674422524" lon="15.068121319991072"><ele>50.0</ele><time>2026-03-29T10:52:10Z</time></trkpt><trkpt lat="40.39213790581713" lon="15.068281266766299"><ele>49.5</ele><time>2026-03-29T10:52:11Z</time></trkpt><trkpt lat="40.392144658383565" lon="15.068457605448916"><ele>49.0</ele><time>2026-03-29T10:52:12Z</time></trkpt><trkpt lat="40.392127959462" lon="15.068651132636903"><ele>48.5</ele><time>2026-03-29T10:52:13Z</time></trkpt><trkpt lat="40.392135687597936" lon="15.068812938969728"><ele>48.0</ele><time>2026-03-29T10:52:14Z</time></trkpt><trkpt lat="40.39211462701637" lon="15.068979039481663"><ele>47.8</ele><time>2026-03-29T10:52:15Z</time></trkpt><trkpt lat="40.392109136915415" lon="15.069118579680877"><ele>47.599999999999994</ele><time>2026-03-29T10:52:16Z</time></trkpt><trkpt lat="40.39210442681317" lon="15.069238294789718"><ele>47.400000000000006</ele><time>2026-03-29T10:52:17Z</time></trkpt><trkpt lat="40.39210092852094" lon="15.069327209704529"><ele>47.2</ele><time>2026-03-29T10:52:18Z</time></trkpt><trkpt lat="40.39209662383624" lon="15.069436619203437"><ele>47.0</ele><time>2026-03-29T10:52:20Z</time></trkpt><trkpt lat="40.392248779803005" lon="15.069452600767235"><ele>47.6</ele><time>2026-03-29T10:52:21Z</time></trkpt><trkpt lat="40.39231644978275" lon="15.069420610872205"><ele>48.2</ele><time>2026-03-29T10:52:22Z</time></trkpt><trkpt lat="40.392398049778265" lon="15.069391581489992"><ele>48.8</ele><time>2026-03-29T10:52:23Z</time></trkpt><trkpt lat="40.39249837722719" lon="15.06934612585881"><ele>49.4</ele><time>2026-03-29T10:52:24Z</time></trkpt><trkpt lat="40.39261942237806" lon="15.069284512796628"><ele>50.0</ele><time>2026-03-29T10:52:25Z</time></trkpt><trkpt lat="40.39274376200309" lon="15.069244417341125"><ele>50.0</ele><time>2026-03-29T10:52:26Z</time></trkpt><trkpt lat="40.39286661967452" lon="15.069196714157632"><ele>50.0</ele><time>2026-03-29T10:52:27Z</time></trkpt><trkpt lat="40.39298673742594" lon="15.0691462664144"><ele>50.0</ele><time>2026-03-29T10:52:28Z</time></trkpt><trkpt lat="40.39311832337756" lon="15.069099211881662"><ele>50.0</ele><time>2026-03-29T10:52:29Z</time></trkpt><trkpt lat="40.39324916904627" lon="15.069058659626823"><ele>51.0</ele><time>2026-03-29T10:52:30Z</time></trkpt><trkpt lat="40.39337970943405" lon="15.069019708020965"><ele>52.0</ele><time>2026-03-29T10:52:31Z</time></trkpt><trkpt lat="40.39349904252348" lon="15.068968168146872"><ele>53.0</ele><time>2026-03-29T10:52:32Z</time></trkpt><trkpt lat="40.39361560271618" lon="15.06892629159255"><ele>54.0</ele><time>2026-03-29T10:52:33Z</time></trkpt><trkpt lat="40.39372227749766" lon="15.068889885619845"><ele>54.0</ele><time>2026-03-29T10:52:34Z</time></trkpt><trkpt lat="40.393817575287606" lon="15.068855502938224"><ele>54.00000000000001</ele><time>2026-03-29T10:52:35Z</time></trkpt><trkpt lat="40.39391935489382" lon="15.068813788270894"><ele>54.00000000000001</ele><time>2026-03-29T10:52:36Z</time></trkpt><trkpt lat="40.39402725697813" lon="15.068772866438357"><ele>54.0</ele><time>2026-03-29T10:52:37Z</time></trkpt><trkpt lat="40.39412495254069" lon="15.068742997379426"><ele>54.0</ele><time>2026-03-29T10:52:38Z</time></trkpt><trkpt lat="40.3942222930921" lon="15.068707913400138"><ele>54.5</ele><time>2026-03-29T10:52:39Z</time></trkpt><trkpt lat="40.39432906221806" lon="15.06866461874516"><ele>55.0</ele><time>2026-03-29T10:52:40Z</time></trkpt><trkpt lat="40.394441531402855" lon="15.068612688723544"><ele>55.5</ele><time>2026-03-29T10:52:41Z</time></trkpt><trkpt lat="40.39456073131836" lon="15.068560044706603"><ele>56.0</ele><time>2026-03-29T10:52:42Z</time></trkpt><trkpt lat="40.39466992491624" lon="15.068491772269201"><ele>56.199999999999996</ele><time>2026-03-29T10:52:43Z</time></trkpt><trkpt lat="40.39477583171058" lon="15.068446814492278"><ele>56.39999999999999</ele><time>2026-03-29T10:52:44Z</time></trkpt><trkpt lat="40.39486411990308" lon="15.068381346265475"><ele>56.6</ele><time>2026-03-29T10:52:45Z</time></trkpt><trkpt lat="40.394953840623224" lon="15.068351919691386"><ele>56.8</ele><time>2026-03-29T10:52:46Z</time></trkpt><trkpt lat="40.395036121646086" lon="15.068308056458172"><ele>57.0</ele><time>2026-03-29T10:52:47Z</time></trkpt><trkpt lat="40.39512009156838" lon="15.068256397467255"><ele>57.0</ele><time>2026-03-29T10:52:48Z</time></trkpt><trkpt lat="40.39519246944241" lon="15.06821024963784"><ele>57.0</ele><time>2026-03-29T10:52:49Z</time></trkpt><trkpt lat="40.3952800234088" lon="15.068162624845488"><ele>57.0</ele><time>2026-03-29T10:52:50Z</time></trkpt><trkpt lat="40.39534753429385" lon="15.068147249349131"><ele>57.0</ele><time>2026-03-29T10:52:51Z</time></trkpt><trkpt lat="40.39542523881822" lon="15.068104072991988"><ele>57.0</ele><time>2026-03-29T10:52:52Z</time></trkpt><trkpt lat="40.39553536206315" lon="15.068057106828066"><ele>57.0</ele><time>2026-03-29T10:52:53Z</time></trkpt><trkpt lat="40.3956353985981" lon="15.067967433379716"><ele>57.400000000000006</ele><time>2026-03-29T10:52:54Z</time></trkpt><trkpt lat="40.39571960381591" lon="15.067896654438083"><ele>57.800000000000004</ele><time>2026-03-29T10:52:55Z</time></trkpt><trkpt lat="40.395797722129124" lon="15.067811770246218"><ele>58.2</ele><time>2026-03-29T10:52:56Z</time></trkpt><trkpt lat="40.39588155350315" lon="15.067717317967109"><ele>58.6</ele><time>2026-03-29T10:52:57Z</time></trkpt><trkpt lat="40.3959570181537" lon="15.067612078680181"><ele>59.0</ele><time>2026-03-29T10:52:58Z</time></trkpt><trkpt lat="40.396038654147695" lon="15.06751726916757"><ele>59.2</ele><time>2026-03-29T10:52:59Z</time></trkpt><trkpt lat="40.39611839380744" lon="15.067413274365093"><ele>59.400000000000006</ele><time>2026-03-29T10:53:00Z</time></trkpt><trkpt lat="40.39620337584149" lon="15.067317402201397"><ele>59.6</ele><time>2026-03-29T10:53:01Z</time></trkpt><trkpt lat="40.396286133755474" lon="15.067223089925301"><ele>59.8</ele><time>2026-03-29T10:53:02Z</time></trkpt><trkpt lat="40.39637304022305" lon="15.067129109116133"><ele>60.0</ele><time>2026-03-29T10:53:03Z</time></trkpt><trkpt lat="40.396450365844906" lon="15.067027716833605"><ele>60.6</ele><time>2026-03-29T10:53:04Z</time></trkpt><trkpt lat="40.39652859529337" lon="15.066924391150824"><ele>61.2</ele><time>2026-03-29T10:53:05Z</time></trkpt><trkpt lat="40.396614313911776" lon="15.06683870802015"><ele>61.8</ele><time>2026-03-29T10:53:06Z</time></trkpt><trkpt lat="40.39670413208564" lon="15.066769978885665"><ele>62.4</ele><time>2026-03-29T10:53:07Z</time></trkpt><trkpt lat="40.39679341509352" lon="15.066705367563253"><ele>63.0</ele><time>2026-03-29T10:53:08Z</time></trkpt><trkpt lat="40.396886394823994" lon="15.066642012020063"><ele>63.599999999999994</ele><time>2026-03-29T10:53:09Z</time></trkpt><trkpt lat="40.39697923555644" lon="15.066588946993747"><ele>64.19999999999999</ele><time>2026-03-29T10:53:10Z</time></trkpt><trkpt lat="40.397076819296224" lon="15.066525365567498"><ele>64.8</ele><time>2026-03-29T10:53:11Z</time></trkpt><trkpt lat="40.39717985832411" lon="15.066478607653883"><ele>65.39999999999999</ele><time>2026-03-29T10:53:12Z</time></trkpt><trkpt lat="40.39728197950113" lon="15.066418018215852"><ele>66.0</ele><time>2026-03-29T10:53:13Z</time></trkpt><trkpt lat="40.397391312027665" lon="15.066330236775483"><ele>66.0</ele><time>2026-03-29T10:53:14Z</time></trkpt><trkpt lat="40.39750094776136" lon="15.066284030642915"><ele>66.0</ele><time>2026-03-29T10:53:15Z</time></trkpt><trkpt lat="40.39759948587238" lon="15.066219502615617"><ele>66.0</ele><time>2026-03-29T10:53:16Z</time></trkpt><trkpt lat="40.39770214197989" lon="15.066155908629453"><ele>66.0</ele><time>2026-03-29T10:53:17Z</time></trkpt><trkpt lat="40.39780045136537" lon="15.066078877823141"><ele>66.0</ele><time>2026-03-29T10:53:18Z</time></trkpt><trkpt lat="40.39790006370074" lon="15.065999028737696"><ele>66.0</ele><time>2026-03-29T10:53:19Z</time></trkpt><trkpt lat="40.39799921891831" lon="15.065921777919412"><ele>66.0</ele><time>2026-03-29T10:53:20Z</time></trkpt><trkpt lat="40.398100903661344" lon="15.065859230817233"><ele>66.0</ele><time>2026-03-29T10:53:21Z</time></trkpt><trkpt lat="40.39820417132883" lon="15.065823361856138"><ele>66.75</ele><time>2026-03-29T10:53:22Z</time></trkpt><trkpt lat="40.398314511867184" lon="15.065796147177878"><ele>67.5</ele><time>2026-03-29T10:53:23Z</time></trkpt><trkpt lat="40.398434187484575" lon="15.065786188542612"><ele>68.25</ele><time>2026-03-29T10:53:24Z</time></trkpt><trkpt lat="40.398546888850156" lon="15.065780170308882"><ele>69.0</ele><time>2026-03-29T10:53:25Z</time></trkpt><trkpt lat="40.39865448373383" lon="15.065779879805465"><ele>69.60000000000001</ele><time>2026-03-29T10:53:26Z</time></trkpt><trkpt lat="40.39876352777638" lon="15.065776584934335"><ele>70.2</ele><time>2026-03-29T10:53:27Z</time></trkpt><trkpt lat="40.3988615070943" lon="15.065776141703745"><ele>70.80000000000001</ele><time>2026-03-29T10:53:28Z</time></trkpt><trkpt lat="40.398964663222756" lon="15.06577076872303"><ele>71.4</ele><time>2026-03-29T10:53:29Z</time></trkpt><trkpt lat="40.3990707329793" lon="15.065765500181547"><ele>72.0</ele><time>2026-03-29T10:53:30Z</time></trkpt><trkpt lat="40.399171317869325" lon="15.06574608556699"><ele>72.0</ele><time>2026-03-29T10:53:31Z</time></trkpt><trkpt lat="40.399273885072425" lon="15.065728697598164"><ele>72.0</ele><time>2026-03-29T10:53:32Z</time></trkpt><trkpt lat="40.39938078960551" lon="15.065725298152415"><ele>72.0</ele><time>2026-03-29T10:53:33Z</time></trkpt><trkpt lat="40.399489275280814" lon="15.065701228535458"><ele>72.0</ele><time>2026-03-29T10:53:34Z</time></trkpt><trkpt lat="40.39960394023726" lon="15.065665049187224"><ele>72.0</ele><time>2026-03-29T10:53:35Z</time></trkpt><trkpt lat="40.39971262340473" lon="15.065619079275237"><ele>72.75</ele><time>2026-03-29T10:53:36Z</time></trkpt><trkpt lat="40.3998232535069" lon="15.065563772755288"><ele>73.5</ele><time>2026-03-29T10:53:37Z</time></trkpt><trkpt lat="40.39993711131018" lon="15.065517054026563"><ele>74.25</ele><time>2026-03-29T10:53:38Z</time></trkpt><trkpt lat="40.40004884972413" lon="15.06547060815097"><ele>75.0</ele><time>2026-03-29T10:53:39Z</time></trkpt><trkpt lat="40.40015905404298" lon="15.065420728618884"><ele>75.0</ele><time>2026-03-29T10:53:40Z</time></trkpt><trkpt lat="40.400269200512966" lon="15.065362330972546"><ele>75.0</ele><time>2026-03-29T10:53:41Z</time></trkpt><trkpt lat="40.40036945346752" lon="15.065292692803279"><ele>75.0</ele><time>2026-03-29T10:53:42Z</time></trkpt><trkpt lat="40.40046508791938" lon="15.06522024707611"><ele>75.0</ele><time>2026-03-29T10:53:43Z</time></trkpt><trkpt lat="40.40055643759008" lon="15.065139871170887"><ele>75.6</ele><time>2026-03-29T10:53:44Z</time></trkpt><trkpt lat="40.400640504734156" lon="15.065056328405905"><ele>76.2</ele><time>2026-03-29T10:53:45Z</time></trkpt><trkpt lat="40.40071656622203" lon="15.064975336323812"><ele>76.8</ele><time>2026-03-29T10:53:46Z</time></trkpt><trkpt lat="40.40079399020905" lon="15.064871894872649"><ele>77.4</ele><time>2026-03-29T10:53:47Z</time></trkpt><trkpt lat="40.400861249536185" lon="15.064754318813758"><ele>78.0</ele><time>2026-03-29T10:53:48Z</time></trkpt><trkpt lat="40.40093726845799" lon="15.064655067835659"><ele>78.0</ele><time>2026-03-29T10:53:49Z</time></trkpt><trkpt lat="40.4010051633451" lon="15.06456647956331"><ele>78.0</ele><time>2026-03-29T10:53:50Z</time></trkpt><trkpt lat="40.40108829512319" lon="15.064477329680557"><ele>78.0</ele><time>2026-03-29T10:53:51Z</time></trkpt><trkpt lat="40.40117470667496" lon="15.064389717507913"><ele>78.0</ele><time>2026-03-29T10:53:52Z</time></trkpt><trkpt lat="40.401265225098655" lon="15.064316807606176"><ele>78.0</ele><time>2026-03-29T10:53:53Z</time></trkpt><trkpt lat="40.40135102712926" lon="15.06424837602106"><ele>78.6</ele><time>2026-03-29T10:53:54Z</time></trkpt><trkpt lat="40.401456877002175" lon="15.064245912807866"><ele>79.19999999999999</ele><time>2026-03-29T10:53:55Z</time></trkpt><trkpt lat="40.4015629628969" lon="15.064210264742272"><ele>79.8</ele><time>2026-03-29T10:53:56Z</time></trkpt><trkpt lat="40.40165183403869" lon="15.064164114773712"><ele>80.39999999999999</ele><time>2026-03-29T10:53:57Z</time></trkpt><trkpt lat="40.40172462542714" lon="15.064099393669713"><ele>81.0</ele><time>2026-03-29T10:53:58Z</time></trkpt><trkpt lat="40.401797814061396" lon="15.064062292306405"><ele>81.8</ele><time>2026-03-29T10:53:59Z</time></trkpt><trkpt lat="40.401871559962835" lon="15.064049920005742"><ele>82.6</ele><time>2026-03-29T10:54:00Z</time></trkpt><trkpt lat="40.40195437965704" lon="15.064033673628964"><ele>83.4</ele><time>2026-03-29T10:54:01Z</time></trkpt><trkpt lat="40.40205483059008" lon="15.064019682002113"><ele>84.2</ele><time>2026-03-29T10:54:02Z</time></trkpt><trkpt lat="40.402159398687644" lon="15.064007144103577"><ele>85.0</ele><time>2026-03-29T10:54:03Z</time></trkpt><trkpt lat="40.40225310206826" lon="15.063978432584847"><ele>85.16666666666666</ele><time>2026-03-29T10:54:04Z</time></trkpt><trkpt lat="40.40232826479315" lon="15.063987644718484"><ele>85.33333333333333</ele><time>2026-03-29T10:54:05Z</time></trkpt><trkpt lat="40.40239499713411" lon="15.063992249991335"><ele>85.5</ele><time>2026-03-29T10:54:06Z</time></trkpt><trkpt lat="40.40249161942984" lon="15.064033024263884"><ele>85.66666666666667</ele><time>2026-03-29T10:54:08Z</time></trkpt><trkpt lat="40.40259536540993" lon="15.063988313070881"><ele>85.83333333333334</ele><time>2026-03-29T10:54:10Z</time></trkpt><trkpt lat="40.40267422369668" lon="15.06397253931263"><ele>86.0</ele><time>2026-03-29T10:54:11Z</time></trkpt><trkpt lat="40.40273935625243" lon="15.063933042999869"><ele>86.0</ele><time>2026-03-29T10:54:12Z</time></trkpt><trkpt lat="40.40286001101597" lon="15.06388035345185"><ele>86.0</ele><time>2026-03-29T10:54:14Z</time></trkpt><trkpt lat="40.40294367145996" lon="15.063852231603292"><ele>86.0</ele><time>2026-03-29T10:54:15Z</time></trkpt><trkpt lat="40.40303247208291" lon="15.063824903411048"><ele>86.0</ele><time>2026-03-29T10:54:16Z</time></trkpt><trkpt lat="40.40311254115211" lon="15.063800262368142"><ele>86.0</ele><time>2026-03-29T10:54:17Z</time></trkpt><trkpt lat="40.403189593034924" lon="15.063776318190502"><ele>86.33333333333334</ele><time>2026-03-29T10:54:18Z</time></trkpt><trkpt lat="40.40326365314977" lon="15.063729513097073"><ele>86.66666666666667</ele><time>2026-03-29T10:54:19Z</time></trkpt><trkpt lat="40.40334409549863" lon="15.063703568512187"><ele>87.0</ele><time>2026-03-29T10:54:20Z</time></trkpt><trkpt lat="40.4034288648183" lon="15.063674351424066"><ele>87.33333333333333</ele><time>2026-03-29T10:54:21Z</time></trkpt><trkpt lat="40.403518991015176" lon="15.063666299508803"><ele>87.66666666666666</ele><time>2026-03-29T10:54:22Z</time></trkpt><trkpt lat="40.403600070348965" lon="15.063617443612756"><ele>88.0</ele><time>2026-03-29T10:54:23Z</time></trkpt><trkpt lat="40.40369279708567" lon="15.063596861346191"><ele>88.0</ele><time>2026-03-29T10:54:24Z</time></trkpt><trkpt lat="40.403780678379306" lon="15.063566505607856"><ele>88.0</ele><time>2026-03-29T10:54:25Z</time></trkpt><trkpt lat="40.4038721874152" lon="15.063534765432454"><ele>88.0</ele><time>2026-03-29T10:54:26Z</time></trkpt><trkpt lat="40.4039694023944" lon="15.063506275924516"><ele>88.0</ele><time>2026-03-29T10:54:27Z</time></trkpt><trkpt lat="40.40406503897836" lon="15.063475835345518"><ele>88.0</ele><time>2026-03-29T10:54:28Z</time></trkpt><trkpt lat="40.404164519607" lon="15.063446032554362"><ele>88.5</ele><time>2026-03-29T10:54:29Z</time></trkpt><trkpt lat="40.40425999649249" lon="15.063428538755003"><ele>89.0</ele><time>2026-03-29T10:54:30Z</time></trkpt><trkpt lat="40.40434619796746" lon="15.063413146337217"><ele>89.5</ele><time>2026-03-29T10:54:31Z</time></trkpt><trkpt lat="40.40442548800691" lon="15.063392176755272"><ele>90.0</ele><time>2026-03-29T10:54:32Z</time></trkpt><trkpt lat="40.4045037587008" lon="15.063348013139471"><ele>90.5</ele><time>2026-03-29T10:54:33Z</time></trkpt><trkpt lat="40.4045867549057" lon="15.063332506909816"><ele>91.0</ele><time>2026-03-29T10:54:34Z</time></trkpt><trkpt lat="40.4046773244933" lon="15.063301796078612"><ele>92.0</ele><time>2026-03-29T10:54:35Z</time></trkpt><trkpt lat="40.4047651827556" lon="15.063251516841078"><ele>93.0</ele><time>2026-03-29T10:54:36Z</time></trkpt><trkpt lat="40.404854447397156" lon="15.06322759892538"><ele>94.0</ele><time>2026-03-29T10:54:37Z</time></trkpt><trkpt lat="40.404952127083035" lon="15.06319143720059"><ele>95.0</ele><time>2026-03-29T10:54:38Z</time></trkpt><trkpt lat="40.40504383409081" lon="15.063163713564585"><ele>96.0</ele><time>2026-03-29T10:54:39Z</time></trkpt><trkpt lat="40.40514131262247" lon="15.06313472732477"><ele>96.0</ele><time>2026-03-29T10:54:40Z</time></trkpt><trkpt lat="40.40523299397098" lon="15.063116292189337"><ele>96.0</ele><time>2026-03-29T10:54:41Z</time></trkpt><trkpt lat="40.4053231314065" lon="15.063100260057826"><ele>96.0</ele><time>2026-03-29T10:54:42Z</time></trkpt><trkpt lat="40.40542074327918" lon="15.063067537369765"><ele>96.0</ele><time>2026-03-29T10:54:43Z</time></trkpt><trkpt lat="40.405494539975074" lon="15.063029271727535"><ele>96.0</ele><time>2026-03-29T10:54:44Z</time></trkpt><trkpt lat="40.405584804040316" lon="15.062996415157265"><ele>96.6</ele><time>2026-03-29T10:54:45Z</time></trkpt><trkpt lat="40.40568195232963" lon="15.062970111246553"><ele>97.19999999999999</ele><time>2026-03-29T10:54:46Z</time></trkpt><trkpt lat="40.405781379659096" lon="15.06293423446344"><ele>97.80000000000001</ele><time>2026-03-29T10:54:47Z</time></trkpt><trkpt lat="40.40587960027809" lon="15.06290331119932"><ele>98.4</ele><time>2026-03-29T10:54:48Z</time></trkpt><trkpt lat="40.4059807433198" lon="15.062867536534451"><ele>99.0</ele><time>2026-03-29T10:54:49Z</time></trkpt><trkpt lat="40.406065538210754" lon="15.06283683855222"><ele>99.0</ele><time>2026-03-29T10:54:50Z</time></trkpt><trkpt lat="40.406154622547135" lon="15.062813486055411"><ele>99.0</ele><time>2026-03-29T10:54:51Z</time></trkpt><trkpt lat="40.406242594118545" lon="15.062790022239682"><ele>99.0</ele><time>2026-03-29T10:54:52Z</time></trkpt><trkpt lat="40.40633201641209" lon="15.06277156739198"><ele>99.0</ele><time>2026-03-29T10:54:53Z</time></trkpt><trkpt lat="40.40641832523978" lon="15.062748931403009"><ele>99.0</ele><time>2026-03-29T10:54:54Z</time></trkpt><trkpt lat="40.40650499088701" lon="15.062710528640354"><ele>99.6</ele><time>2026-03-29T10:54:55Z</time></trkpt><trkpt lat="40.40659273891988" lon="15.062697603104432"><ele>100.2</ele><time>2026-03-29T10:54:56Z</time></trkpt><trkpt lat="40.40667159816584" lon="15.062674125625442"><ele>100.8</ele><time>2026-03-29T10:54:57Z</time></trkpt><trkpt lat="40.40676016007286" lon="15.062630965158354"><ele>101.39999999999999</ele><time>2026-03-29T10:54:58Z</time></trkpt><trkpt lat="40.406861389062726" lon="15.062636896344255"><ele>102.0</ele><time>2026-03-29T10:54:59Z</time></trkpt><trkpt lat="40.406961030166805" lon="15.06264278042932"><ele>102.0</ele><time>2026-03-29T10:55:00Z</time></trkpt><trkpt lat="40.40705698945224" lon="15.062644707670508"><ele>102.0</ele><time>2026-03-29T10:55:01Z</time></trkpt><trkpt lat="40.40715316590679" lon="15.062638016178248"><ele>102.0</ele><time>2026-03-29T10:55:02Z</time></trkpt><trkpt lat="40.40724454365668" lon="15.062628228675004"><ele>102.0</ele><time>2026-03-29T10:55:03Z</time></trkpt><trkpt lat="40.407320192146265" lon="15.062617400988298"><ele>102.0</ele><time>2026-03-29T10:55:04Z</time></trkpt><trkpt lat="40.40743222272532" lon="15.06261404152957"><ele>103.0</ele><time>2026-03-29T10:55:05Z</time></trkpt><trkpt lat="40.407529735565326" lon="15.062598172359255"><ele>104.0</ele><time>2026-03-29T10:55:06Z</time></trkpt><trkpt lat="40.40762119128364" lon="15.062582573330735"><ele>105.0</ele><time>2026-03-29T10:55:07Z</time></trkpt><trkpt lat="40.40768888220379" lon="15.062577339782393"><ele>106.0</ele><time>2026-03-29T10:55:08Z</time></trkpt><trkpt lat="40.407763864792834" lon="15.062575900645864"><ele>107.0</ele><time>2026-03-29T10:55:09Z</time></trkpt><trkpt lat="40.40783835952492" lon="15.06256678529265"><ele>108.0</ele><time>2026-03-29T10:55:10Z</time></trkpt><trkpt lat="40.407925347314894" lon="15.062544339084745"><ele>108.83333333333333</ele><time>2026-03-29T10:55:11Z</time></trkpt><trkpt lat="40.40801252499817" lon="15.062520018207545"><ele>109.66666666666666</ele><time>2026-03-29T10:55:12Z</time></trkpt><trkpt lat="40.408089304892904" lon="15.06251883357331"><ele>110.5</ele><time>2026-03-29T10:55:13Z</time></trkpt><trkpt lat="40.40816104102213" lon="15.062506375540279"><ele>111.33333333333333</ele><time>2026-03-29T10:55:14Z</time></trkpt><trkpt lat="40.40824661698724" lon="15.062498984466439"><ele>112.16666666666666</ele><time>2026-03-29T10:55:15Z</time></trkpt><trkpt lat="40.40833262059207" lon="15.062499230120666"><ele>113.0</ele><time>2026-03-29T10:55:16Z</time></trkpt><trkpt lat="40.40841148966893" lon="15.062498325805443"><ele>112.99999999999999</ele><time>2026-03-29T10:55:17Z</time></trkpt><trkpt lat="40.40849151226231" lon="15.062486584595009"><ele>113.0</ele><time>2026-03-29T10:55:18Z</time></trkpt><trkpt lat="40.408576661890514" lon="15.062472651234017"><ele>113.0</ele><time>2026-03-29T10:55:19Z</time></trkpt><trkpt lat="40.40865618459841" lon="15.06245747256065"><ele>113.0</ele><time>2026-03-29T10:55:20Z</time></trkpt><trkpt lat="40.40874036358259" lon="15.062448192456676"><ele>112.99999999999999</ele><time>2026-03-29T10:55:21Z</time></trkpt><trkpt lat="40.40882647091696" lon="15.062435864986856"><ele>113.0</ele><time>2026-03-29T10:55:22Z</time></trkpt><trkpt lat="40.408916123334414" lon="15.062432087536514"><ele>113.80000000000001</ele><time>2026-03-29T10:55:23Z</time></trkpt><trkpt lat="40.40900293682778" lon="15.062421498802097"><ele>114.60000000000001</ele><time>2026-03-29T10:55:24Z</time></trkpt><trkpt lat="40.40909606561381" lon="15.062412952159242"><ele>115.39999999999999</ele><time>2026-03-29T10:55:25Z</time></trkpt><trkpt lat="40.40918589265299" lon="15.062417433922038"><ele>116.19999999999999</ele><time>2026-03-29T10:55:26Z</time></trkpt><trkpt lat="40.409280287047636" lon="15.062406694211742"><ele>117.0</ele><time>2026-03-29T10:55:27Z</time></trkpt><trkpt lat="40.409373509947635" lon="15.062396087817131"><ele>117.0</ele><time>2026-03-29T10:55:28Z</time></trkpt><trkpt lat="40.40945882984369" lon="15.062386380570018"><ele>116.99999999999999</ele><time>2026-03-29T10:55:29Z</time></trkpt><trkpt lat="40.40954575377933" lon="15.062357541314439"><ele>116.99999999999999</ele><time>2026-03-29T10:55:30Z</time></trkpt><trkpt lat="40.40963962374086" lon="15.062347701885574"><ele>117.0</ele><time>2026-03-29T10:55:31Z</time></trkpt><trkpt lat="40.4097406217161" lon="15.062359907685838"><ele>117.0</ele><time>2026-03-29T10:55:32Z</time></trkpt><trkpt lat="40.40983166017603" lon="15.062351442479931"><ele>118.0</ele><time>2026-03-29T10:55:33Z</time></trkpt><trkpt lat="40.40991290097566" lon="15.062332111754895"><ele>118.99999999999999</ele><time>2026-03-29T10:55:34Z</time></trkpt><trkpt lat="40.41002244328498" lon="15.062321651638683"><ele>119.99999999999999</ele><time>2026-03-29T10:55:35Z</time></trkpt><trkpt lat="40.41011842067308" lon="15.062304249080002"><ele>121.0</ele><time>2026-03-29T10:55:36Z</time></trkpt><trkpt lat="40.41021178475726" lon="15.062308183573768"><ele>122.0</ele><time>2026-03-29T10:55:37Z</time></trkpt><trkpt lat="40.41029145560661" lon="15.06228403210733"><ele>121.99999999999999</ele><time>2026-03-29T10:55:38Z</time></trkpt><trkpt lat="40.410355535199955" lon="15.062272389566541"><ele>122.0</ele><time>2026-03-29T10:55:39Z</time></trkpt><trkpt lat="40.41042600589501" lon="15.062267021549681"><ele>122.0</ele><time>2026-03-29T10:55:40Z</time></trkpt><trkpt lat="40.41048885587088" lon="15.062255242842289"><ele>122.0</ele><time>2026-03-29T10:55:41Z</time></trkpt><trkpt lat="40.41058470057016" lon="15.062248280601702"><ele>121.99999999999999</ele><time>2026-03-29T10:55:43Z</time></trkpt><trkpt lat="40.41066071582903" lon="15.062134453016101"><ele>122.0</ele><time>2026-03-29T10:55:45Z</time></trkpt><trkpt lat="40.41069519282262" lon="15.061979409336232"><ele>123.33333333333333</ele><time>2026-03-29T10:55:47Z</time></trkpt><trkpt lat="40.41073512034513" lon="15.061900250666254"><ele>124.66666666666666</ele><time>2026-03-29T10:55:48Z</time></trkpt><trkpt lat="40.410759078549354" lon="15.061812208881683"><ele>126.0</ele><time>2026-03-29T10:55:49Z</time></trkpt><trkpt lat="40.410785782581286" lon="15.061709749418833"><ele>127.33333333333334</ele><time>2026-03-29T10:55:50Z</time></trkpt><trkpt lat="40.41082898132795" lon="15.06154089566434"><ele>128.66666666666669</ele><time>2026-03-29T10:55:52Z</time></trkpt><trkpt lat="40.41085069522929" lon="15.06145469799342"><ele>130.0</ele><time>2026-03-29T10:55:53Z</time></trkpt><trkpt lat="40.410877129592244" lon="15.061349761654878"><ele>130.33333333333334</ele><time>2026-03-29T10:55:54Z</time></trkpt><trkpt lat="40.41090312540116" lon="15.061246566237854"><ele>130.66666666666669</ele><time>2026-03-29T10:55:55Z</time></trkpt><trkpt lat="40.41092990455119" lon="15.061140260999345"><ele>131.0</ele><time>2026-03-29T10:55:56Z</time></trkpt><trkpt lat="40.41095566044604" lon="15.061039559924978"><ele>131.33333333333334</ele><time>2026-03-29T10:55:57Z</time></trkpt><trkpt lat="40.41098171850321" lon="15.060941032001635"><ele>131.66666666666666</ele><time>2026-03-29T10:55:58Z</time></trkpt><trkpt lat="40.41101109768587" lon="15.060829945860187"><ele>132.0</ele><time>2026-03-29T10:55:59Z</time></trkpt><trkpt lat="40.41104576645505" lon="15.060703418239164"><ele>132.2</ele><time>2026-03-29T10:56:00Z</time></trkpt><trkpt lat="40.41107956718033" lon="15.060581723242713"><ele>132.39999999999998</ele><time>2026-03-29T10:56:01Z</time></trkpt><trkpt lat="40.41111300938313" lon="15.060466433207214"><ele>132.60000000000002</ele><time>2026-03-29T10:56:02Z</time></trkpt><trkpt lat="40.41114524238494" lon="15.060355796832175"><ele>132.8</ele><time>2026-03-29T10:56:03Z</time></trkpt><trkpt lat="40.41117701999589" lon="15.060249332159948"><ele>133.0</ele><time>2026-03-29T10:56:04Z</time></trkpt><trkpt lat="40.41120937684422" lon="15.06014092688403"><ele>133.0</ele><time>2026-03-29T10:56:05Z</time></trkpt><trkpt lat="40.411240321552334" lon="15.06003725264443"><ele>133.0</ele><time>2026-03-29T10:56:06Z</time></trkpt><trkpt lat="40.41127387454616" lon="15.059924839874663"><ele>133.0</ele><time>2026-03-29T10:56:07Z</time></trkpt><trkpt lat="40.411306274931384" lon="15.05981628879649"><ele>133.0</ele><time>2026-03-29T10:56:08Z</time></trkpt><trkpt lat="40.411340020877184" lon="15.059703229525795"><ele>133.0</ele><time>2026-03-29T10:56:09Z</time></trkpt><trkpt lat="40.41136900673172" lon="15.059606118047462"><ele>133.0</ele><time>2026-03-29T10:56:10Z</time></trkpt><trkpt lat="40.41140034961241" lon="15.059497598177966"><ele>134.0</ele><time>2026-03-29T10:56:11Z</time></trkpt><trkpt lat="40.41143484909778" lon="15.059377131684835"><ele>135.0</ele><time>2026-03-29T10:56:12Z</time></trkpt><trkpt lat="40.41146874331836" lon="15.059254219075854"><ele>136.0</ele><time>2026-03-29T10:56:13Z</time></trkpt><trkpt lat="40.41150261692339" lon="15.059131381240517"><ele>137.0</ele><time>2026-03-29T10:56:14Z</time></trkpt><trkpt lat="40.411527726370736" lon="15.058986895659293"><ele>138.0</ele><time>2026-03-29T10:56:15Z</time></trkpt><trkpt lat="40.41157375654728" lon="15.058861311468283"><ele>138.0</ele><time>2026-03-29T10:56:16Z</time></trkpt><trkpt lat="40.41160804246349" lon="15.058745090550754"><ele>138.0</ele><time>2026-03-29T10:56:17Z</time></trkpt><trkpt lat="40.41163944581346" lon="15.05862206589322"><ele>138.0</ele><time>2026-03-29T10:56:18Z</time></trkpt><trkpt lat="40.41166365029405" lon="15.058501174784762"><ele>138.0</ele><time>2026-03-29T10:56:19Z</time></trkpt><trkpt lat="40.4116752435604" lon="15.05837539892003"><ele>138.0</ele><time>2026-03-29T10:56:20Z</time></trkpt><trkpt lat="40.41168452432794" lon="15.05825917162129"><ele>138.42857142857144</ele><time>2026-03-29T10:56:21Z</time></trkpt><trkpt lat="40.4116888509267" lon="15.05816297311436"><ele>138.85714285714286</ele><time>2026-03-29T10:56:22Z</time></trkpt><trkpt lat="40.41170532271053" lon="15.058080648996919"><ele>139.28571428571428</ele><time>2026-03-29T10:56:23Z</time></trkpt><trkpt lat="40.41169908464731" lon="15.05799607992051"><ele>139.71428571428572</ele><time>2026-03-29T10:56:24Z</time></trkpt><trkpt lat="40.411726201913076" lon="15.057918835267795"><ele>140.14285714285714</ele><time>2026-03-29T10:56:25Z</time></trkpt><trkpt lat="40.411767314192765" lon="15.057839174220936"><ele>140.57142857142858</ele><time>2026-03-29T10:56:26Z</time></trkpt><trkpt lat="40.411816097532956" lon="15.057760960306029"><ele>141.0</ele><time>2026-03-29T10:56:27Z</time></trkpt><trkpt lat="40.41187865285684" lon="15.057695930078658"><ele>141.0</ele><time>2026-03-29T10:56:28Z</time></trkpt><trkpt lat="40.41193074139891" lon="15.057643419466276"><ele>141.0</ele><time>2026-03-29T10:56:29Z</time></trkpt><trkpt lat="40.412006843837034" lon="15.0575594420143"><ele>141.0</ele><time>2026-03-29T10:56:31Z</time></trkpt><trkpt lat="40.41210359366222" lon="15.057446388098628"><ele>141.0</ele><time>2026-03-29T10:56:33Z</time></trkpt><trkpt lat="40.412164746688426" lon="15.05736059749181"><ele>141.0</ele><time>2026-03-29T10:56:34Z</time></trkpt><trkpt lat="40.41220845915742" lon="15.057274925518476"><ele>140.6</ele><time>2026-03-29T10:56:35Z</time></trkpt><trkpt lat="40.412254238467675" lon="15.05719958955901"><ele>140.2</ele><time>2026-03-29T10:56:36Z</time></trkpt><trkpt lat="40.41235368925496" lon="15.057114781361314"><ele>139.8</ele><time>2026-03-29T10:56:38Z</time></trkpt><trkpt lat="40.41246348741628" lon="15.057124069796048"><ele>139.4</ele><time>2026-03-29T10:56:40Z</time></trkpt><trkpt lat="40.412539516414995" lon="15.057209183421573"><ele>139.0</ele><time>2026-03-29T10:56:42Z</time></trkpt><trkpt lat="40.41258900811785" lon="15.057266044360626"><ele>139.0</ele><time>2026-03-29T10:56:43Z</time></trkpt><trkpt lat="40.412642406942695" lon="15.057327622675029"><ele>139.0</ele><time>2026-03-29T10:56:44Z</time></trkpt><trkpt lat="40.412715141457966" lon="15.057379771458935"><ele>139.0</ele><time>2026-03-29T10:56:45Z</time></trkpt><trkpt lat="40.41276950674983" lon="15.057435866016418"><ele>139.0</ele><time>2026-03-29T10:56:46Z</time></trkpt><trkpt lat="40.412831690514686" lon="15.0574894430501"><ele>139.0</ele><time>2026-03-29T10:56:47Z</time></trkpt><trkpt lat="40.41288290638031" lon="15.057549446560072"><ele>139.0</ele><time>2026-03-29T10:56:48Z</time></trkpt><trkpt lat="40.412929651215215" lon="15.057620801049566"><ele>139.0</ele><time>2026-03-29T10:56:49Z</time></trkpt><trkpt lat="40.41298038488586" lon="15.057696416392705"><ele>139.71428571428572</ele><time>2026-03-29T10:56:50Z</time></trkpt><trkpt lat="40.41302759828666" lon="15.057770479790838"><ele>140.42857142857144</ele><time>2026-03-29T10:56:51Z</time></trkpt><trkpt lat="40.41308102762627" lon="15.057828949320408"><ele>141.14285714285717</ele><time>2026-03-29T10:56:52Z</time></trkpt><trkpt lat="40.4131226028395" lon="15.057912779151389"><ele>141.85714285714286</ele><time>2026-03-29T10:56:53Z</time></trkpt><trkpt lat="40.4131527255741" lon="15.05798825444049"><ele>142.57142857142858</ele><time>2026-03-29T10:56:54Z</time></trkpt><trkpt lat="40.41320933778986" lon="15.058055642754061"><ele>143.2857142857143</ele><time>2026-03-29T10:56:55Z</time></trkpt><trkpt lat="40.413245345154266" lon="15.058133055748577"><ele>144.0</ele><time>2026-03-29T10:56:56Z</time></trkpt><trkpt lat="40.41329282319852" lon="15.058208275970246"><ele>144.00000000000003</ele><time>2026-03-29T10:56:57Z</time></trkpt><trkpt lat="40.41333678431459" lon="15.058282635024213"><ele>144.0</ele><time>2026-03-29T10:56:58Z</time></trkpt><trkpt lat="40.41337645364979" lon="15.058359356091268"><ele>144.0</ele><time>2026-03-29T10:56:59Z</time></trkpt><trkpt lat="40.41342200358891" lon="15.058441623458421"><ele>144.0</ele><time>2026-03-29T10:57:00Z</time></trkpt><trkpt lat="40.41346319477225" lon="15.0585222823374"><ele>144.0</ele><time>2026-03-29T10:57:01Z</time></trkpt><trkpt lat="40.413502766159155" lon="15.05858867401412"><ele>144.00000000000003</ele><time>2026-03-29T10:57:02Z</time></trkpt><trkpt lat="40.413551555356705" lon="15.058654783903014"><ele>144.0</ele><time>2026-03-29T10:57:03Z</time></trkpt><trkpt lat="40.413632611682445" lon="15.05876502908617"><ele>145.8</ele><time>2026-03-29T10:57:05Z</time></trkpt><trkpt lat="40.4136959176459" lon="15.058851779168963"><ele>147.60000000000002</ele><time>2026-03-29T10:57:07Z</time></trkpt><trkpt lat="40.413726674217685" lon="15.058958204572619"><ele>149.4</ele><time>2026-03-29T10:57:11Z</time></trkpt><trkpt lat="40.41371219025929" lon="15.059073664992166"><ele>151.20000000000002</ele><time>2026-03-29T10:57:13Z</time></trkpt><trkpt lat="40.41374502094643" lon="15.059191198807888"><ele>153.0</ele><time>2026-03-29T10:57:15Z</time></trkpt><trkpt lat="40.41378042721469" lon="15.059337644631764"><ele>153.5</ele><time>2026-03-29T10:57:17Z</time></trkpt><trkpt lat="40.41380762434679" lon="15.059431448827969"><ele>154.0</ele><time>2026-03-29T10:57:18Z</time></trkpt><trkpt lat="40.413833967316144" lon="15.059536019949764"><ele>154.5</ele><time>2026-03-29T10:57:19Z</time></trkpt><trkpt lat="40.41385873801437" lon="15.059633171560481"><ele>155.0</ele><time>2026-03-29T10:57:20Z</time></trkpt><trkpt lat="40.41388628840345" lon="15.05973005607632"><ele>155.5</ele><time>2026-03-29T10:57:21Z</time></trkpt><trkpt lat="40.413916004644925" lon="15.059840211861088"><ele>156.0</ele><time>2026-03-29T10:57:22Z</time></trkpt><trkpt lat="40.41394860213845" lon="15.059948893687988"><ele>157.4</ele><time>2026-03-29T10:57:23Z</time></trkpt><trkpt lat="40.41398055021825" lon="15.060065921994141"><ele>158.8</ele><time>2026-03-29T10:57:24Z</time></trkpt><trkpt lat="40.41401772967379" lon="15.060196810533176"><ele>160.20000000000002</ele><time>2026-03-29T10:57:25Z</time></trkpt><trkpt lat="40.414055685796605" lon="15.060326014558635"><ele>161.6</ele><time>2026-03-29T10:57:26Z</time></trkpt><trkpt lat="40.41408339942388" lon="15.0604570903908"><ele>163.0</ele><time>2026-03-29T10:57:27Z</time></trkpt><trkpt lat="40.41411262066915" lon="15.060587854557998"><ele>163.0</ele><time>2026-03-29T10:57:28Z</time></trkpt><trkpt lat="40.414145326740304" lon="15.060709992421824"><ele>163.0</ele><time>2026-03-29T10:57:29Z</time></trkpt><trkpt lat="40.41418691906322" lon="15.060835876253389"><ele>163.0</ele><time>2026-03-29T10:57:30Z</time></trkpt><trkpt lat="40.41423734406242" lon="15.060962818700796"><ele>163.0</ele><time>2026-03-29T10:57:31Z</time></trkpt><trkpt lat="40.414282971175346" lon="15.061101628589878"><ele>163.0</ele><time>2026-03-29T10:57:32Z</time></trkpt><trkpt lat="40.41435917635207" lon="15.061217598830845"><ele>164.25</ele><time>2026-03-29T10:57:33Z</time></trkpt><trkpt lat="40.41445248763411" lon="15.06129279892269"><ele>165.5</ele><time>2026-03-29T10:57:34Z</time></trkpt><trkpt lat="40.41454362772464" lon="15.06137675813771"><ele>166.75</ele><time>2026-03-29T10:57:35Z</time></trkpt><trkpt lat="40.41464632654095" lon="15.061449979756787"><ele>168.0</ele><time>2026-03-29T10:57:36Z</time></trkpt><trkpt lat="40.41475296933566" lon="15.061517590104046"><ele>169.25</ele><time>2026-03-29T10:57:37Z</time></trkpt><trkpt lat="40.414860640066024" lon="15.061592799194054"><ele>170.5</ele><time>2026-03-29T10:57:38Z</time></trkpt><trkpt lat="40.41497125030151" lon="15.061667495309926"><ele>171.75</ele><time>2026-03-29T10:57:39Z</time></trkpt><trkpt lat="40.41508849107729" lon="15.061740850139635"><ele>173.0</ele><time>2026-03-29T10:57:40Z</time></trkpt><trkpt lat="40.41520900296401" lon="15.061813998904203"><ele>173.75</ele><time>2026-03-29T10:57:41Z</time></trkpt><trkpt lat="40.41532284500264" lon="15.061888012248852"><ele>174.5</ele><time>2026-03-29T10:57:42Z</time></trkpt><trkpt lat="40.41544549499093" lon="15.061960630471237"><ele>175.25</ele><time>2026-03-29T10:57:43Z</time></trkpt><trkpt lat="40.41557135721049" lon="15.062035785539306"><ele>176.0</ele><time>2026-03-29T10:57:44Z</time></trkpt><trkpt lat="40.41569700492102" lon="15.062117498522518"><ele>177.66666666666666</ele><time>2026-03-29T10:57:45Z</time></trkpt><trkpt lat="40.41583480076365" lon="15.062194607814591"><ele>179.33333333333334</ele><time>2026-03-29T10:57:46Z</time></trkpt><trkpt lat="40.41597542002679" lon="15.062273410134312"><ele>181.0</ele><time>2026-03-29T10:57:47Z</time></trkpt><trkpt lat="40.4161114089267" lon="15.06235614316621"><ele>181.0</ele><time>2026-03-29T10:57:48Z</time></trkpt><trkpt lat="40.416251787527074" lon="15.062436946557478"><ele>181.0</ele><time>2026-03-29T10:57:49Z</time></trkpt><trkpt lat="40.41639588725639" lon="15.062517258742133"><ele>181.0</ele><time>2026-03-29T10:57:50Z</time></trkpt><trkpt lat="40.41653529555496" lon="15.06263078895568"><ele>182.5</ele><time>2026-03-29T10:57:51Z</time></trkpt><trkpt lat="40.416665884188866" lon="15.062704805137571"><ele>184.0</ele><time>2026-03-29T10:57:52Z</time></trkpt><trkpt lat="40.41680171053574" lon="15.062790035799734"><ele>185.5</ele><time>2026-03-29T10:57:53Z</time></trkpt><trkpt lat="40.416944669573496" lon="15.062870930481308"><ele>187.0</ele><time>2026-03-29T10:57:54Z</time></trkpt><trkpt lat="40.41708664240582" lon="15.062956974385484"><ele>189.0</ele><time>2026-03-29T10:57:55Z</time></trkpt><trkpt lat="40.417232132607516" lon="15.063044341450018"><ele>191.0</ele><time>2026-03-29T10:57:56Z</time></trkpt><trkpt lat="40.41737468149125" lon="15.063128583966344"><ele>193.0</ele><time>2026-03-29T10:57:57Z</time></trkpt><trkpt lat="40.41751595619673" lon="15.063203938090757"><ele>194.5</ele><time>2026-03-29T10:57:58Z</time></trkpt><trkpt lat="40.41764061851942" lon="15.063288918633305"><ele>196.0</ele><time>2026-03-29T10:57:59Z</time></trkpt><trkpt lat="40.417769277011764" lon="15.06335085374873"><ele>197.5</ele><time>2026-03-29T10:58:00Z</time></trkpt><trkpt lat="40.417877519522925" lon="15.063442560736572"><ele>199.0</ele><time>2026-03-29T10:58:01Z</time></trkpt><trkpt lat="40.417970328949096" lon="15.063547711649539"><ele>198.5</ele><time>2026-03-29T10:58:02Z</time></trkpt><trkpt lat="40.41805695572076" lon="15.063673604910756"><ele>198.0</ele><time>2026-03-29T10:58:03Z</time></trkpt><trkpt lat="40.418139060780135" lon="15.063821579825929"><ele>197.5</ele><time>2026-03-29T10:58:04Z</time></trkpt><trkpt lat="40.4182218588499" lon="15.063974963730926"><ele>197.0</ele><time>2026-03-29T10:58:05Z</time></trkpt><trkpt lat="40.41830473623723" lon="15.06412745626251"><ele>199.25</ele><time>2026-03-29T10:58:06Z</time></trkpt><trkpt lat="40.41838889951082" lon="15.064270281378603"><ele>201.5</ele><time>2026-03-29T10:58:07Z</time></trkpt><trkpt lat="40.418470086765915" lon="15.064419148871304"><ele>203.75</ele><time>2026-03-29T10:58:08Z</time></trkpt><trkpt lat="40.41854453098449" lon="15.06457472264348"><ele>206.0</ele><time>2026-03-29T10:58:09Z</time></trkpt><trkpt lat="40.41860818005551" lon="15.064726864103442"><ele>206.0</ele><time>2026-03-29T10:58:10Z</time></trkpt><trkpt lat="40.418650808768305" lon="15.064865620508135"><ele>206.0</ele><time>2026-03-29T10:58:11Z</time></trkpt><trkpt lat="40.418674734958906" lon="15.065010323831679"><ele>206.0</ele><time>2026-03-29T10:58:12Z</time></trkpt><trkpt lat="40.41868305436153" lon="15.065164929966748"><ele>206.0</ele><time>2026-03-29T10:58:13Z</time></trkpt><trkpt lat="40.4186913173794" lon="15.065325059897615"><ele>208.0</ele><time>2026-03-29T10:58:14Z</time></trkpt><trkpt lat="40.4187007129209" lon="15.065483424553182"><ele>210.0</ele><time>2026-03-29T10:58:15Z</time></trkpt><trkpt lat="40.418704742642184" lon="15.065642613234063"><ele>212.0</ele><time>2026-03-29T10:58:16Z</time></trkpt><trkpt lat="40.418712139846605" lon="15.065811077938482"><ele>214.0</ele><time>2026-03-29T10:58:17Z</time></trkpt><trkpt lat="40.41871839819937" lon="15.065973784336842"><ele>216.25</ele><time>2026-03-29T10:58:18Z</time></trkpt><trkpt lat="40.41872906783508" lon="15.066133013479865"><ele>218.5</ele><time>2026-03-29T10:58:19Z</time></trkpt><trkpt lat="40.4187369615576" lon="15.066289519226382"><ele>220.75</ele><time>2026-03-29T10:58:20Z</time></trkpt><trkpt lat="40.41874352987105" lon="15.066451724876924"><ele>223.0</ele><time>2026-03-29T10:58:21Z</time></trkpt><trkpt lat="40.41875130300589" lon="15.066616225099402"><ele>224.4</ele><time>2026-03-29T10:58:22Z</time></trkpt><trkpt lat="40.41876035537755" lon="15.066780334095066"><ele>225.8</ele><time>2026-03-29T10:58:23Z</time></trkpt><trkpt lat="40.418770238138805" lon="15.066932988212653"><ele>227.2</ele><time>2026-03-29T10:58:24Z</time></trkpt><trkpt lat="40.418787136539564" lon="15.067069501325115"><ele>228.6</ele><time>2026-03-29T10:58:25Z</time></trkpt><trkpt lat="40.41880751652934" lon="15.067182436156903"><ele>230.0</ele><time>2026-03-29T10:58:26Z</time></trkpt><trkpt lat="40.4188305037791" lon="15.067290957419788"><ele>231.25</ele><time>2026-03-29T10:58:27Z</time></trkpt><trkpt lat="40.418852955736334" lon="15.067414865208919"><ele>232.5</ele><time>2026-03-29T10:58:28Z</time></trkpt><trkpt lat="40.41887737269216" lon="15.067550469966742"><ele>233.75</ele><time>2026-03-29T10:58:29Z</time></trkpt><trkpt lat="40.4189145718507" lon="15.067708931484011"><ele>235.0</ele><time>2026-03-29T10:58:30Z</time></trkpt><trkpt lat="40.41894995730317" lon="15.067871383141384"><ele>236.75</ele><time>2026-03-29T10:58:31Z</time></trkpt><trkpt lat="40.418976312569576" lon="15.068024630659952"><ele>238.5</ele><time>2026-03-29T10:58:32Z</time></trkpt><trkpt lat="40.41900037049535" lon="15.068180621198419"><ele>240.25</ele><time>2026-03-29T10:58:33Z</time></trkpt><trkpt lat="40.419013525210474" lon="15.06834053770784"><ele>242.0</ele><time>2026-03-29T10:58:34Z</time></trkpt><trkpt lat="40.41901844026394" lon="15.068511128652146"><ele>243.5</ele><time>2026-03-29T10:58:35Z</time></trkpt><trkpt lat="40.41900874404859" lon="15.068683497886752"><ele>245.0</ele><time>2026-03-29T10:58:36Z</time></trkpt><trkpt lat="40.41899777379218" lon="15.068862547499231"><ele>246.5</ele><time>2026-03-29T10:58:37Z</time></trkpt><trkpt lat="40.41900331750742" lon="15.069042550388517"><ele>248.0</ele><time>2026-03-29T10:58:38Z</time></trkpt><trkpt lat="40.4190313595875" lon="15.069219806361847"><ele>249.25</ele><time>2026-03-29T10:58:39Z</time></trkpt><trkpt lat="40.41906481389547" lon="15.069409595395284"><ele>250.5</ele><time>2026-03-29T10:58:40Z</time></trkpt><trkpt lat="40.419093505728895" lon="15.069591353602721"><ele>251.75</ele><time>2026-03-29T10:58:41Z</time></trkpt><trkpt lat="40.41911144873455" lon="15.069788298790924"><ele>253.0</ele><time>2026-03-29T10:58:42Z</time></trkpt><trkpt lat="40.41911873362647" lon="15.069980536285966"><ele>254.25</ele><time>2026-03-29T10:58:43Z</time></trkpt><trkpt lat="40.419120669492116" lon="15.070168702497417"><ele>255.5</ele><time>2026-03-29T10:58:44Z</time></trkpt><trkpt lat="40.419123127604244" lon="15.070360307861673"><ele>256.75</ele><time>2026-03-29T10:58:45Z</time></trkpt><trkpt lat="40.41912779389274" lon="15.070555291655586"><ele>258.0</ele><time>2026-03-29T10:58:46Z</time></trkpt><trkpt lat="40.419140865926316" lon="15.070760808164524"><ele>259.6666666666667</ele><time>2026-03-29T10:58:47Z</time></trkpt><trkpt lat="40.419150152359734" lon="15.070974537301405"><ele>261.33333333333337</ele><time>2026-03-29T10:58:48Z</time></trkpt><trkpt lat="40.41917645583364" lon="15.07118811227771"><ele>263.0</ele><time>2026-03-29T10:58:49Z</time></trkpt><trkpt lat="40.419207081034635" lon="15.071393211418592"><ele>263.0</ele><time>2026-03-29T10:58:50Z</time></trkpt><trkpt lat="40.419235254659135" lon="15.071601192996903"><ele>263.0</ele><time>2026-03-29T10:58:51Z</time></trkpt><trkpt lat="40.4192626619883" lon="15.071806026135535"><ele>263.0</ele><time>2026-03-29T10:58:52Z</time></trkpt><trkpt lat="40.41928962507253" lon="15.071994091980738"><ele>264.2</ele><time>2026-03-29T10:58:53Z</time></trkpt><trkpt lat="40.419318623170085" lon="15.072147337438905"><ele>265.4</ele><time>2026-03-29T10:58:54Z</time></trkpt><trkpt lat="40.41935287069961" lon="15.072278936317089"><ele>266.59999999999997</ele><time>2026-03-29T10:58:55Z</time></trkpt><trkpt lat="40.41939696954497" lon="15.072401360839574"><ele>267.8</ele><time>2026-03-29T10:58:56Z</time></trkpt><trkpt lat="40.419449792210834" lon="15.072485825987117"><ele>269.0</ele><time>2026-03-29T10:58:57Z</time></trkpt><trkpt lat="40.419512524907546" lon="15.07252035978741"><ele>270.0</ele><time>2026-03-29T10:58:58Z</time></trkpt><trkpt lat="40.41959310157286" lon="15.072527185394987"><ele>271.0</ele><time>2026-03-29T10:58:59Z</time></trkpt><trkpt lat="40.41968742137041" lon="15.072503512997084"><ele>272.0</ele><time>2026-03-29T10:59:00Z</time></trkpt><trkpt lat="40.41978343123345" lon="15.072459317950905"><ele>273.0</ele><time>2026-03-29T10:59:01Z</time></trkpt><trkpt lat="40.4198837892031" lon="15.072407895436962"><ele>274.0</ele><time>2026-03-29T10:59:02Z</time></trkpt><trkpt lat="40.419996702004624" lon="15.072363267704088"><ele>275.8333333333333</ele><time>2026-03-29T10:59:03Z</time></trkpt><trkpt lat="40.420105406523085" lon="15.072327452730162"><ele>277.66666666666663</ele><time>2026-03-29T10:59:04Z</time></trkpt><trkpt lat="40.420194635683984" lon="15.072345197313762"><ele>279.5</ele><time>2026-03-29T10:59:05Z</time></trkpt><trkpt lat="40.420262026850466" lon="15.072359719057852"><ele>281.3333333333333</ele><time>2026-03-29T10:59:06Z</time></trkpt><trkpt lat="40.42031618240347" lon="15.07243195222171"><ele>283.1666666666667</ele><time>2026-03-29T10:59:07Z</time></trkpt><trkpt lat="40.42034033275512" lon="15.072551174037839"><ele>285.0</ele><time>2026-03-29T10:59:08Z</time></trkpt><trkpt lat="40.42040264132199" lon="15.072658330588952"><ele>286.5</ele><time>2026-03-29T10:59:09Z</time></trkpt><trkpt lat="40.420450370326044" lon="15.072801283131707"><ele>288.0</ele><time>2026-03-29T10:59:10Z</time></trkpt><trkpt lat="40.42050877757904" lon="15.07294759858815"><ele>289.5</ele><time>2026-03-29T10:59:11Z</time></trkpt><trkpt lat="40.420574596222174" lon="15.073104888681264"><ele>291.0</ele><time>2026-03-29T10:59:12Z</time></trkpt><trkpt lat="40.42063928667458" lon="15.073257291508853"><ele>294.5</ele><time>2026-03-29T10:59:13Z</time></trkpt><trkpt lat="40.42070291410099" lon="15.073405861752587"><ele>298.0</ele><time>2026-03-29T10:59:14Z</time></trkpt><trkpt lat="40.420767229782555" lon="15.073551596664533"><ele>301.5</ele><time>2026-03-29T10:59:15Z</time></trkpt><trkpt lat="40.42083299681594" lon="15.073701200156826"><ele>305.0</ele><time>2026-03-29T10:59:16Z</time></trkpt><trkpt lat="40.42088758881822" lon="15.073846059478779"><ele>305.0</ele><time>2026-03-29T10:59:17Z</time></trkpt><trkpt lat="40.42095061994802" lon="15.073966255544505"><ele>305.0</ele><time>2026-03-29T10:59:18Z</time></trkpt><trkpt lat="40.42104244441115" lon="15.074056488449832"><ele>305.0</ele><time>2026-03-29T10:59:19Z</time></trkpt><trkpt lat="40.421150052889736" lon="15.074132352348295"><ele>305.0</ele><time>2026-03-29T10:59:20Z</time></trkpt><trkpt lat="40.421257389009455" lon="15.074217324186982"><ele>308.75</ele><time>2026-03-29T10:59:21Z</time></trkpt><trkpt lat="40.4213659641448" lon="15.07431295091817"><ele>312.5</ele><time>2026-03-29T10:59:22Z</time></trkpt><trkpt lat="40.42146908844298" lon="15.07440543382962"><ele>316.25</ele><time>2026-03-29T10:59:23Z</time></trkpt><trkpt lat="40.42157359354863" lon="15.07448791031291"><ele>320.0</ele><time>2026-03-29T10:59:24Z</time></trkpt><trkpt lat="40.42165971883818" lon="15.074555323962226"><ele>320.0</ele><time>2026-03-29T10:59:25Z</time></trkpt><trkpt lat="40.421726974415236" lon="15.074622306207289"><ele>320.0</ele><time>2026-03-29T10:59:26Z</time></trkpt><trkpt lat="40.42179603804861" lon="15.074693590443456"><ele>320.0</ele><time>2026-03-29T10:59:27Z</time></trkpt><trkpt lat="40.42185848269508" lon="15.074780622582098"><ele>320.0</ele><time>2026-03-29T10:59:28Z</time></trkpt><trkpt lat="40.421905255516265" lon="15.074895676732709"><ele>320.0</ele><time>2026-03-29T10:59:29Z</time></trkpt><trkpt lat="40.42194322391305" lon="15.07503166861615"><ele>321.2</ele><time>2026-03-29T10:59:30Z</time></trkpt><trkpt lat="40.42198368059137" lon="15.075179377510027"><ele>322.4</ele><time>2026-03-29T10:59:31Z</time></trkpt><trkpt lat="40.42202333611747" lon="15.075318954684935"><ele>323.6</ele><time>2026-03-29T10:59:32Z</time></trkpt><trkpt lat="40.4220591167276" lon="15.075449614966836"><ele>324.8</ele><time>2026-03-29T10:59:33Z</time></trkpt><trkpt lat="40.422090595900734" lon="15.075579655477929"><ele>326.0</ele><time>2026-03-29T10:59:34Z</time></trkpt><trkpt lat="40.422117305506916" lon="15.075702803298707"><ele>326.83333333333337</ele><time>2026-03-29T10:59:35Z</time></trkpt><trkpt lat="40.422139300150725" lon="15.07580949677409"><ele>327.6666666666667</ele><time>2026-03-29T10:59:36Z</time></trkpt><trkpt lat="40.42215598090217" lon="15.075890119258043"><ele>328.5</ele><time>2026-03-29T10:59:37Z</time></trkpt><trkpt lat="40.42217912744525" lon="15.075976878444463"><ele>329.3333333333333</ele><time>2026-03-29T10:59:38Z</time></trkpt><trkpt lat="40.42220310512769" lon="15.07607348690293"><ele>330.16666666666663</ele><time>2026-03-29T10:59:39Z</time></trkpt><trkpt lat="40.422232057864456" lon="15.076172549541424"><ele>331.0</ele><time>2026-03-29T10:59:40Z</time></trkpt><trkpt lat="40.422263074912145" lon="15.076279232924993"><ele>333.16666666666663</ele><time>2026-03-29T10:59:41Z</time></trkpt><trkpt lat="40.422294142131584" lon="15.076386671621286"><ele>335.3333333333333</ele><time>2026-03-29T10:59:42Z</time></trkpt><trkpt lat="40.42232443286863" lon="15.07648453383648"><ele>337.5</ele><time>2026-03-29T10:59:43Z</time></trkpt><trkpt lat="40.42235461358414" lon="15.076570278695595"><ele>339.6666666666667</ele><time>2026-03-29T10:59:44Z</time></trkpt><trkpt lat="40.422396561808945" lon="15.076711807423859"><ele>341.83333333333337</ele><time>2026-03-29T10:59:46Z</time></trkpt><trkpt lat="40.422413817791245" lon="15.07679204279679"><ele>344.0</ele><time>2026-03-29T10:59:47Z</time></trkpt><trkpt lat="40.42239105599741" lon="15.076879243629325"><ele>345.79999999999995</ele><time>2026-03-29T10:59:48Z</time></trkpt><trkpt lat="40.42237733257682" lon="15.07698668526104"><ele>347.59999999999997</ele><time>2026-03-29T10:59:49Z</time></trkpt><trkpt lat="40.422364384868956" lon="15.077106618665036"><ele>349.4</ele><time>2026-03-29T10:59:50Z</time></trkpt><trkpt lat="40.4223616329148" lon="15.07724501812152"><ele>351.2</ele><time>2026-03-29T10:59:51Z</time></trkpt><trkpt lat="40.42233127942122" lon="15.0773859362776"><ele>353.0</ele><time>2026-03-29T10:59:52Z</time></trkpt><trkpt lat="40.42231249043061" lon="15.077523693208908"><ele>354.2</ele><time>2026-03-29T10:59:53Z</time></trkpt><trkpt lat="40.42229276494608" lon="15.077669631049355"><ele>355.4</ele><time>2026-03-29T10:59:54Z</time></trkpt><trkpt lat="40.42228508400641" lon="15.077813217487908"><ele>356.59999999999997</ele><time>2026-03-29T10:59:55Z</time></trkpt><trkpt lat="40.42228444240065" lon="15.077962727686366"><ele>357.79999999999995</ele><time>2026-03-29T10:59:56Z</time></trkpt><trkpt lat="40.42229320909438" lon="15.07809502525534"><ele>359.0</ele><time>2026-03-29T10:59:57Z</time></trkpt><trkpt lat="40.42228484283427" lon="15.078221588998412"><ele>360.0</ele><time>2026-03-29T10:59:58Z</time></trkpt><trkpt lat="40.42222399055588" lon="15.078344810597214"><ele>361.0</ele><time>2026-03-29T10:59:59Z</time></trkpt><trkpt lat="40.42216906371065" lon="15.078497100963423"><ele>362.0</ele><time>2026-03-29T11:00:00Z</time></trkpt><trkpt lat="40.422117462558475" lon="15.078678904545956"><ele>363.0</ele><time>2026-03-29T11:00:01Z</time></trkpt><trkpt lat="40.422047727411034" lon="15.078850902194414"><ele>363.25</ele><time>2026-03-29T11:00:02Z</time></trkpt><trkpt lat="40.42199301387518" lon="15.07900851467758"><ele>363.5</ele><time>2026-03-29T11:00:03Z</time></trkpt><trkpt lat="40.421936282294446" lon="15.079174854690693"><ele>363.75</ele><time>2026-03-29T11:00:04Z</time></trkpt><trkpt lat="40.421865372829565" lon="15.079350754706477"><ele>364.0</ele><time>2026-03-29T11:00:05Z</time></trkpt><trkpt lat="40.421791190312476" lon="15.079514812222543"><ele>364.0</ele><time>2026-03-29T11:00:06Z</time></trkpt><trkpt lat="40.42172332379321" lon="15.07966689297492"><ele>364.0</ele><time>2026-03-29T11:00:07Z</time></trkpt><trkpt lat="40.4216554916578" lon="15.079799806103512"><ele>364.0</ele><time>2026-03-29T11:00:08Z</time></trkpt><trkpt lat="40.42156272366482" lon="15.079909049641687"><ele>364.0</ele><time>2026-03-29T11:00:09Z</time></trkpt><trkpt lat="40.42150526036461" lon="15.080013601620035"><ele>363.4</ele><time>2026-03-29T11:00:10Z</time></trkpt><trkpt lat="40.421446635522045" lon="15.080087394373772"><ele>362.79999999999995</ele><time>2026-03-29T11:00:11Z</time></trkpt><trkpt lat="40.42138577387734" lon="15.080197224801971"><ele>362.20000000000005</ele><time>2026-03-29T11:00:13Z</time></trkpt><trkpt lat="40.42136233014305" lon="15.080339872823126"><ele>361.6</ele><time>2026-03-29T11:00:15Z</time></trkpt><trkpt lat="40.42133193953321" lon="15.080499639003035"><ele>361.0</ele><time>2026-03-29T11:00:17Z</time></trkpt><trkpt lat="40.42131262199658" lon="15.080578564414042"><ele>361.0</ele><time>2026-03-29T11:00:18Z</time></trkpt><trkpt lat="40.421295741814674" lon="15.080729449582607"><ele>361.0</ele><time>2026-03-29T11:00:20Z</time></trkpt><trkpt lat="40.4213123997105" lon="15.080864009628913"><ele>361.0</ele><time>2026-03-29T11:00:22Z</time></trkpt><trkpt lat="40.42128599563868" lon="15.080977535217711"><ele>361.0</ele><time>2026-03-29T11:00:24Z</time></trkpt><trkpt lat="40.421211515554305" lon="15.081075825035965"><ele>361.0</ele><time>2026-03-29T11:00:26Z</time></trkpt><trkpt lat="40.421170084591054" lon="15.081143803584414"><ele>362.8</ele><time>2026-03-29T11:00:27Z</time></trkpt><trkpt lat="40.421139411297" lon="15.08122856600688"><ele>364.6</ele><time>2026-03-29T11:00:28Z</time></trkpt><trkpt lat="40.42110953106702" lon="15.081347727839734"><ele>366.4</ele><time>2026-03-29T11:00:30Z</time></trkpt><trkpt lat="40.42113691991101" lon="15.081468697871653"><ele>368.2</ele><time>2026-03-29T11:00:32Z</time></trkpt><trkpt lat="40.421233810077304" lon="15.081555859106926"><ele>370.0</ele><time>2026-03-29T11:00:34Z</time></trkpt><trkpt lat="40.42134466054545" lon="15.081604779952762"><ele>373.1428571428571</ele><time>2026-03-29T11:00:36Z</time></trkpt><trkpt lat="40.421411039774924" lon="15.081637576425106"><ele>376.2857142857143</ele><time>2026-03-29T11:00:37Z</time></trkpt><trkpt lat="40.42147649128155" lon="15.081657116707445"><ele>379.42857142857144</ele><time>2026-03-29T11:00:38Z</time></trkpt><trkpt lat="40.42152993212522" lon="15.081700980357269"><ele>382.57142857142856</ele><time>2026-03-29T11:00:39Z</time></trkpt><trkpt lat="40.4215926953696" lon="15.081739187473367"><ele>385.7142857142857</ele><time>2026-03-29T11:00:40Z</time></trkpt><trkpt lat="40.4216550690099" lon="15.08176285351384"><ele>388.85714285714283</ele><time>2026-03-29T11:00:41Z</time></trkpt><trkpt lat="40.421720641734346" lon="15.081781547774652"><ele>392.0</ele><time>2026-03-29T11:00:43Z</time></trkpt><trkpt lat="40.421758643340524" lon="15.081697276058918"><ele>392.0</ele><time>2026-03-29T11:00:44Z</time></trkpt><trkpt lat="40.42170297153677" lon="15.081578875856726"><ele>392.0</ele><time>2026-03-29T11:00:46Z</time></trkpt><trkpt lat="40.4217897689809" lon="15.081605393220853"><ele>392.0</ele><time>2026-03-29T11:00:51Z</time></trkpt><trkpt lat="40.42188058470978" lon="15.081690335244964"><ele>392.0</ele><time>2026-03-29T11:00:53Z</time></trkpt><trkpt lat="40.42197165373423" lon="15.081770390983463"><ele>392.0</ele><time>2026-03-29T11:00:55Z</time></trkpt><trkpt lat="40.4220645140913" lon="15.081833990175884"><ele>394.8</ele><time>2026-03-29T11:00:57Z</time></trkpt><trkpt lat="40.42214977150166" lon="15.081883361057308"><ele>397.6</ele><time>2026-03-29T11:00:59Z</time></trkpt><trkpt lat="40.42222312109941" lon="15.081935206812947"><ele>400.40000000000003</ele><time>2026-03-29T11:01:02Z</time></trkpt><trkpt lat="40.42227218702251" lon="15.082038582468485"><ele>403.20000000000005</ele><time>2026-03-29T11:01:05Z</time></trkpt><trkpt lat="40.422263111291024" lon="15.082201040886455"><ele>406.0</ele><time>2026-03-29T11:01:07Z</time></trkpt><trkpt lat="40.42226058087638" lon="15.0822953191627"><ele>406.00000000000006</ele><time>2026-03-29T11:01:08Z</time></trkpt><trkpt lat="40.4222621805042" lon="15.082392924895448"><ele>406.0</ele><time>2026-03-29T11:01:09Z</time></trkpt><trkpt lat="40.42226784364557" lon="15.082485323293474"><ele>406.0</ele><time>2026-03-29T11:01:10Z</time></trkpt><trkpt lat="40.4222719355768" lon="15.082588015971027"><ele>406.0</ele><time>2026-03-29T11:01:11Z</time></trkpt><trkpt lat="40.422272660504056" lon="15.082697684282802"><ele>406.00000000000006</ele><time>2026-03-29T11:01:12Z</time></trkpt><trkpt lat="40.422286961292635" lon="15.082808808309917"><ele>406.0</ele><time>2026-03-29T11:01:13Z</time></trkpt><trkpt lat="40.42229512217185" lon="15.082919008973867"><ele>407.0</ele><time>2026-03-29T11:01:14Z</time></trkpt><trkpt lat="40.42230244003595" lon="15.083026700204071"><ele>408.0</ele><time>2026-03-29T11:01:15Z</time></trkpt><trkpt lat="40.42230423798443" lon="15.083148712893946"><ele>409.0</ele><time>2026-03-29T11:01:16Z</time></trkpt><trkpt lat="40.42230483602628" lon="15.083279730211865"><ele>410.0</ele><time>2026-03-29T11:01:17Z</time></trkpt><trkpt lat="40.42231041356777" lon="15.08338705838125"><ele>411.0</ele><time>2026-03-29T11:01:18Z</time></trkpt><trkpt lat="40.42230567445584" lon="15.083508907471021"><ele>412.1666666666667</ele><time>2026-03-29T11:01:19Z</time></trkpt><trkpt lat="40.42229957178796" lon="15.083623490820521"><ele>413.33333333333337</ele><time>2026-03-29T11:01:20Z</time></trkpt><trkpt lat="40.42229942681607" lon="15.083720909526132"><ele>414.5</ele><time>2026-03-29T11:01:21Z</time></trkpt><trkpt lat="40.422300035111064" lon="15.083807376528378"><ele>415.6666666666667</ele><time>2026-03-29T11:01:22Z</time></trkpt><trkpt lat="40.422295277130175" lon="15.083908542232955"><ele>416.83333333333337</ele><time>2026-03-29T11:01:24Z</time></trkpt><trkpt lat="40.42221416348207" lon="15.084007172811512"><ele>418.0</ele><time>2026-03-29T11:01:26Z</time></trkpt><trkpt lat="40.4221688362851" lon="15.084105630527114"><ele>417.4</ele><time>2026-03-29T11:01:27Z</time></trkpt><trkpt lat="40.4221290415927" lon="15.08418896748337"><ele>416.79999999999995</ele><time>2026-03-29T11:01:28Z</time></trkpt><trkpt lat="40.42206676822761" lon="15.084306610341276"><ele>416.2</ele><time>2026-03-29T11:01:30Z</time></trkpt><trkpt lat="40.42201853732991" lon="15.084479642044494"><ele>415.6</ele><time>2026-03-29T11:01:32Z</time></trkpt><trkpt lat="40.42198393005884" lon="15.084573233883841"><ele>415.0</ele><time>2026-03-29T11:01:33Z</time></trkpt><trkpt lat="40.42195777333018" lon="15.08465202526982"><ele>415.00000000000006</ele><time>2026-03-29T11:01:34Z</time></trkpt><trkpt lat="40.421943692959594" lon="15.08474634982976"><ele>415.0</ele><time>2026-03-29T11:01:35Z</time></trkpt><trkpt lat="40.421913188375086" lon="15.084845007405807"><ele>415.0</ele><time>2026-03-29T11:01:36Z</time></trkpt><trkpt lat="40.42187315585079" lon="15.084923485243069"><ele>415.0</ele><time>2026-03-29T11:01:37Z</time></trkpt><trkpt lat="40.4218492660195" lon="15.085034272471892"><ele>415.00000000000006</ele><time>2026-03-29T11:01:38Z</time></trkpt><trkpt lat="40.42179484824979" lon="15.085130182966374"><ele>415.0</ele><time>2026-03-29T11:01:39Z</time></trkpt><trkpt lat="40.42175551100244" lon="15.08523222004372"><ele>416.0</ele><time>2026-03-29T11:01:40Z</time></trkpt><trkpt lat="40.42170557538081" lon="15.085352731377679"><ele>417.0</ele><time>2026-03-29T11:01:41Z</time></trkpt><trkpt lat="40.42165485545844" lon="15.085472760732149"><ele>418.0</ele><time>2026-03-29T11:01:42Z</time></trkpt><trkpt lat="40.42162242336087" lon="15.085590686074347"><ele>419.0</ele><time>2026-03-29T11:01:43Z</time></trkpt><trkpt lat="40.42158904965585" lon="15.085717468484882"><ele>420.0</ele><time>2026-03-29T11:01:44Z</time></trkpt><trkpt lat="40.421557338144154" lon="15.085843092261381"><ele>421.4</ele><time>2026-03-29T11:01:45Z</time></trkpt><trkpt lat="40.42152599967985" lon="15.085975204493245"><ele>422.8</ele><time>2026-03-29T11:01:46Z</time></trkpt><trkpt lat="40.42149460110939" lon="15.08611390618647"><ele>424.20000000000005</ele><time>2026-03-29T11:01:47Z</time></trkpt><trkpt lat="40.42145672660249" lon="15.086245517333397"><ele>425.6</ele><time>2026-03-29T11:01:48Z</time></trkpt><trkpt lat="40.421432034691136" lon="15.086374295956968"><ele>427.0</ele><time>2026-03-29T11:01:49Z</time></trkpt><trkpt lat="40.42141024616609" lon="15.08648872529245"><ele>427.50000000000006</ele><time>2026-03-29T11:01:50Z</time></trkpt><trkpt lat="40.42138343369808" lon="15.086595264137932"><ele>428.0</ele><time>2026-03-29T11:01:51Z</time></trkpt><trkpt lat="40.42134943511422" lon="15.08666811327257"><ele>428.5</ele><time>2026-03-29T11:01:52Z</time></trkpt><trkpt lat="40.421331905092515" lon="15.08675002559278"><ele>429.0</ele><time>2026-03-29T11:01:53Z</time></trkpt><trkpt lat="40.421318841912424" lon="15.086891414212143"><ele>429.50000000000006</ele><time>2026-03-29T11:01:55Z</time></trkpt><trkpt lat="40.42128062825743" lon="15.086957175910607"><ele>430.0</ele><time>2026-03-29T11:01:56Z</time></trkpt><trkpt lat="40.42127263865816" lon="15.087050630691579"><ele>428.4</ele><time>2026-03-29T11:01:57Z</time></trkpt><trkpt lat="40.42123613202459" lon="15.087153280916102"><ele>426.8</ele><time>2026-03-29T11:01:58Z</time></trkpt><trkpt lat="40.421210703408924" lon="15.087278011186074"><ele>425.20000000000005</ele><time>2026-03-29T11:01:59Z</time></trkpt><trkpt lat="40.42117258459984" lon="15.087401624231411"><ele>423.6</ele><time>2026-03-29T11:02:00Z</time></trkpt><trkpt lat="40.42113114985284" lon="15.08752035141885"><ele>422.0</ele><time>2026-03-29T11:02:01Z</time></trkpt><trkpt lat="40.42109710354135" lon="15.087607467952418"><ele>421.99999999999994</ele><time>2026-03-29T11:02:02Z</time></trkpt><trkpt lat="40.42106741846587" lon="15.087686736019828"><ele>422.0</ele><time>2026-03-29T11:02:03Z</time></trkpt><trkpt lat="40.421046398417595" lon="15.087785088444013"><ele>422.0</ele><time>2026-03-29T11:02:04Z</time></trkpt><trkpt lat="40.42103200762421" lon="15.087873453983741"><ele>422.0</ele><time>2026-03-29T11:02:05Z</time></trkpt><trkpt lat="40.42100421189831" lon="15.087987303669252"><ele>421.99999999999994</ele><time>2026-03-29T11:02:07Z</time></trkpt><trkpt lat="40.42097662217671" lon="15.088084521414155"><ele>422.0</ele><time>2026-03-29T11:02:08Z</time></trkpt><trkpt lat="40.42094841942289" lon="15.088191608331682"><ele>424.40000000000003</ele><time>2026-03-29T11:02:09Z</time></trkpt><trkpt lat="40.42091934243765" lon="15.088302958820172"><ele>426.8</ele><time>2026-03-29T11:02:10Z</time></trkpt><trkpt lat="40.42088320008074" lon="15.088428065027072"><ele>429.2</ele><time>2026-03-29T11:02:11Z</time></trkpt><trkpt lat="40.42083964240222" lon="15.088561200255999"><ele>431.6</ele><time>2026-03-29T11:02:12Z</time></trkpt><trkpt lat="40.42079937663432" lon="15.08870586653515"><ele>434.0</ele><time>2026-03-29T11:02:13Z</time></trkpt><trkpt lat="40.42076155499838" lon="15.088848977045828"><ele>434.0</ele><time>2026-03-29T11:02:14Z</time></trkpt><trkpt lat="40.42072332754101" lon="15.08898444581031"><ele>434.0</ele><time>2026-03-29T11:02:15Z</time></trkpt><trkpt lat="40.420687290777835" lon="15.089113726859773"><ele>434.0</ele><time>2026-03-29T11:02:16Z</time></trkpt><trkpt lat="40.420656499478994" lon="15.08925066732166"><ele>434.0</ele><time>2026-03-29T11:02:17Z</time></trkpt><trkpt lat="40.42061811315166" lon="15.089380321473286"><ele>434.0</ele><time>2026-03-29T11:02:18Z</time></trkpt><trkpt lat="40.420574987864406" lon="15.089512836835489"><ele>435.6</ele><time>2026-03-29T11:02:19Z</time></trkpt><trkpt lat="40.42053690161385" lon="15.089639506600967"><ele>437.2</ele><time>2026-03-29T11:02:20Z</time></trkpt><trkpt lat="40.42051432139088" lon="15.089755145910571"><ele>438.80000000000007</ele><time>2026-03-29T11:02:21Z</time></trkpt><trkpt lat="40.420494000988455" lon="15.089863275916139"><ele>440.40000000000003</ele><time>2026-03-29T11:02:22Z</time></trkpt><trkpt lat="40.42050263728372" lon="15.089993916764367"><ele>442.0</ele><time>2026-03-29T11:02:23Z</time></trkpt><trkpt lat="40.42053895132489" lon="15.090116299018872"><ele>442.6666666666667</ele><time>2026-03-29T11:02:24Z</time></trkpt><trkpt lat="40.42058824291183" lon="15.090217236529941"><ele>443.33333333333337</ele><time>2026-03-29T11:02:25Z</time></trkpt><trkpt lat="40.42064677274646" lon="15.090279190435707"><ele>444.0</ele><time>2026-03-29T11:02:26Z</time></trkpt><trkpt lat="40.42068082926383" lon="15.090354442849762"><ele>444.66666666666663</ele><time>2026-03-29T11:02:27Z</time></trkpt><trkpt lat="40.42076706931381" lon="15.090462628098267"><ele>445.3333333333333</ele><time>2026-03-29T11:02:29Z</time></trkpt><trkpt lat="40.42079504784163" lon="15.090549005537316"><ele>446.0</ele><time>2026-03-29T11:02:30Z</time></trkpt><trkpt lat="40.42082586996054" lon="15.090650937375605"><ele>446.20000000000005</ele><time>2026-03-29T11:02:31Z</time></trkpt><trkpt lat="40.42084239831229" lon="15.090775982109284"><ele>446.40000000000003</ele><time>2026-03-29T11:02:32Z</time></trkpt><trkpt lat="40.420827498925526" lon="15.090898861979529"><ele>446.6</ele><time>2026-03-29T11:02:33Z</time></trkpt><trkpt lat="40.420786047814936" lon="15.091010976022119"><ele>446.8</ele><time>2026-03-29T11:02:34Z</time></trkpt><trkpt lat="40.42072893986945" lon="15.091100975212155"><ele>447.0</ele><time>2026-03-29T11:02:35Z</time></trkpt><trkpt lat="40.42065420344746" lon="15.091171702841667"><ele>447.0</ele><time>2026-03-29T11:02:36Z</time></trkpt><trkpt lat="40.42056692248641" lon="15.091221333031914"><ele>447.00000000000006</ele><time>2026-03-29T11:02:37Z</time></trkpt><trkpt lat="40.420477398759196" lon="15.091198787959584"><ele>447.00000000000006</ele><time>2026-03-29T11:02:38Z</time></trkpt><trkpt lat="40.42037912111194" lon="15.091207846917497"><ele>447.0</ele><time>2026-03-29T11:02:39Z</time></trkpt><trkpt lat="40.4202796801906" lon="15.091193593834895"><ele>447.0</ele><time>2026-03-29T11:02:40Z</time></trkpt><trkpt lat="40.42017971018267" lon="15.091215154567326"><ele>445.75</ele><time>2026-03-29T11:02:41Z</time></trkpt><trkpt lat="40.42008645464308" lon="15.09128159280676"><ele>444.5</ele><time>2026-03-29T11:02:42Z</time></trkpt><trkpt lat="40.420004273247486" lon="15.09139064973954"><ele>443.25</ele><time>2026-03-29T11:02:43Z</time></trkpt><trkpt lat="40.419942397715566" lon="15.091526119019292"><ele>442.0</ele><time>2026-03-29T11:02:44Z</time></trkpt><trkpt lat="40.41988848744688" lon="15.091676278496395"><ele>444.5</ele><time>2026-03-29T11:02:45Z</time></trkpt><trkpt lat="40.419832105894145" lon="15.091834380740883"><ele>447.0</ele><time>2026-03-29T11:02:46Z</time></trkpt><trkpt lat="40.41978101857732" lon="15.091984379447862"><ele>449.5</ele><time>2026-03-29T11:02:47Z</time></trkpt><trkpt lat="40.419731667512316" lon="15.092115074562425"><ele>452.0</ele><time>2026-03-29T11:02:48Z</time></trkpt><trkpt lat="40.41968553460307" lon="15.092217116443484"><ele>452.40000000000003</ele><time>2026-03-29T11:02:49Z</time></trkpt><trkpt lat="40.419646764611194" lon="15.092285238612357"><ele>452.80000000000007</ele><time>2026-03-29T11:02:50Z</time></trkpt><trkpt lat="40.41958283703085" lon="15.092316611343035"><ele>453.2</ele><time>2026-03-29T11:02:52Z</time></trkpt><trkpt lat="40.4195151440288" lon="15.092367348235657"><ele>453.6</ele><time>2026-03-29T11:02:55Z</time></trkpt><trkpt lat="40.41950537871996" lon="15.092512496626508"><ele>454.0</ele><time>2026-03-29T11:02:57Z</time></trkpt><trkpt lat="40.41958365336703" lon="15.092669270284343"><ele>454.0</ele><time>2026-03-29T11:02:59Z</time></trkpt><trkpt lat="40.41964464566787" lon="15.09276260474871"><ele>454.0</ele><time>2026-03-29T11:03:00Z</time></trkpt><trkpt lat="40.41967343600077" lon="15.092859086389058"><ele>454.0</ele><time>2026-03-29T11:03:01Z</time></trkpt><trkpt lat="40.41971628132673" lon="15.092967655772393"><ele>454.0</ele><time>2026-03-29T11:03:02Z</time></trkpt><trkpt lat="40.41975574569691" lon="15.093086803921965"><ele>454.0</ele><time>2026-03-29T11:03:03Z</time></trkpt><trkpt lat="40.41979677638691" lon="15.093210284887041"><ele>456.6</ele><time>2026-03-29T11:03:04Z</time></trkpt><trkpt lat="40.41983989151188" lon="15.093335856732523"><ele>459.2</ele><time>2026-03-29T11:03:05Z</time></trkpt><trkpt lat="40.41989486365481" lon="15.09345831709597"><ele>461.80000000000007</ele><time>2026-03-29T11:03:06Z</time></trkpt><trkpt lat="40.419935353843236" lon="15.093573413755434"><ele>464.40000000000003</ele><time>2026-03-29T11:03:07Z</time></trkpt><trkpt lat="40.41993521840216" lon="15.093689236221447"><ele>467.0</ele><time>2026-03-29T11:03:08Z</time></trkpt><trkpt lat="40.41991752933548" lon="15.093809522784916"><ele>467.0</ele><time>2026-03-29T11:03:09Z</time></trkpt><trkpt lat="40.41987585695805" lon="15.093948468516444"><ele>467.0</ele><time>2026-03-29T11:03:10Z</time></trkpt><trkpt lat="40.41983775263382" lon="15.094105538842173"><ele>467.0</ele><time>2026-03-29T11:03:11Z</time></trkpt><trkpt lat="40.41979250441099" lon="15.094258638053306"><ele>467.0</ele><time>2026-03-29T11:03:12Z</time></trkpt><trkpt lat="40.41976268481039" lon="15.09440837966126"><ele>469.20000000000005</ele><time>2026-03-29T11:03:13Z</time></trkpt><trkpt lat="40.41972737355737" lon="15.09456739085386"><ele>471.40000000000003</ele><time>2026-03-29T11:03:14Z</time></trkpt><trkpt lat="40.419702712483634" lon="15.09470601011506"><ele>473.59999999999997</ele><time>2026-03-29T11:03:15Z</time></trkpt><trkpt lat="40.41969637853966" lon="15.094836592505802"><ele>475.79999999999995</ele><time>2026-03-29T11:03:16Z</time></trkpt><trkpt lat="40.419714133231196" lon="15.094975074985179"><ele>478.0</ele><time>2026-03-29T11:03:17Z</time></trkpt><trkpt lat="40.4197442224088" lon="15.095133419075703"><ele>480.5</ele><time>2026-03-29T11:03:18Z</time></trkpt><trkpt lat="40.419736442636136" lon="15.095298791275283"><ele>483.0</ele><time>2026-03-29T11:03:19Z</time></trkpt><trkpt lat="40.4197142496032" lon="15.095476551262966"><ele>485.5</ele><time>2026-03-29T11:03:20Z</time></trkpt><trkpt lat="40.419712792706356" lon="15.095652118986829"><ele>488.0</ele><time>2026-03-29T11:03:21Z</time></trkpt><trkpt lat="40.4197174177507" lon="15.095826716514638"><ele>489.75</ele><time>2026-03-29T11:03:22Z</time></trkpt><trkpt lat="40.4197166718617" lon="15.095993208194798"><ele>491.5</ele><time>2026-03-29T11:03:23Z</time></trkpt><trkpt lat="40.419720546917304" lon="15.096162387435387"><ele>493.25</ele><time>2026-03-29T11:03:24Z</time></trkpt><trkpt lat="40.41972408546417" lon="15.096336218204593"><ele>495.0</ele><time>2026-03-29T11:03:25Z</time></trkpt><trkpt lat="40.41971969897357" lon="15.096515262112915"><ele>497.75</ele><time>2026-03-29T11:03:26Z</time></trkpt><trkpt lat="40.419710673865936" lon="15.096691748363986"><ele>500.5</ele><time>2026-03-29T11:03:27Z</time></trkpt><trkpt lat="40.41971069760613" lon="15.096855011661194"><ele>503.25</ele><time>2026-03-29T11:03:28Z</time></trkpt><trkpt lat="40.41971072674458" lon="15.09700271444321"><ele>506.0</ele><time>2026-03-29T11:03:29Z</time></trkpt><trkpt lat="40.41971290197593" lon="15.097157555103689"><ele>506.0</ele><time>2026-03-29T11:03:30Z</time></trkpt><trkpt lat="40.4197271986266" lon="15.097316963235315"><ele>506.0</ele><time>2026-03-29T11:03:31Z</time></trkpt><trkpt lat="40.419737136133435" lon="15.097460716709957"><ele>506.0</ele><time>2026-03-29T11:03:32Z</time></trkpt><trkpt lat="40.4197457784441" lon="15.097577541138433"><ele>506.0</ele><time>2026-03-29T11:03:33Z</time></trkpt><trkpt lat="40.41974219560894" lon="15.097707052026461"><ele>506.0</ele><time>2026-03-29T11:03:34Z</time></trkpt><trkpt lat="40.41971881834173" lon="15.097840708196413"><ele>505.66666666666663</ele><time>2026-03-29T11:03:35Z</time></trkpt><trkpt lat="40.41968138621779" lon="15.097965071660889"><ele>505.3333333333333</ele><time>2026-03-29T11:03:36Z</time></trkpt><trkpt lat="40.419646937181085" lon="15.098062279997595"><ele>505.0</ele><time>2026-03-29T11:03:37Z</time></trkpt><trkpt lat="40.4196322688005" lon="15.098165580326988"><ele>504.66666666666663</ele><time>2026-03-29T11:03:38Z</time></trkpt><trkpt lat="40.419644431093204" lon="15.098278259416812"><ele>504.3333333333333</ele><time>2026-03-29T11:03:39Z</time></trkpt><trkpt lat="40.419670524912874" lon="15.098399474408138"><ele>504.0</ele><time>2026-03-29T11:03:40Z</time></trkpt><trkpt lat="40.419693678251505" lon="15.098523879148418"><ele>508.0</ele><time>2026-03-29T11:03:41Z</time></trkpt><trkpt lat="40.419712150660786" lon="15.098648350794003"><ele>512.0</ele><time>2026-03-29T11:03:42Z</time></trkpt><trkpt lat="40.41972707583578" lon="15.09876766524655"><ele>516.0</ele><time>2026-03-29T11:03:43Z</time></trkpt><trkpt lat="40.419738610013184" lon="15.098870302735406"><ele>520.0</ele><time>2026-03-29T11:03:44Z</time></trkpt><trkpt lat="40.419751226589696" lon="15.099022449942195"><ele>524.0</ele><time>2026-03-29T11:03:46Z</time></trkpt><trkpt lat="40.41976761815038" lon="15.099142960065109"><ele>525.8</ele><time>2026-03-29T11:03:48Z</time></trkpt><trkpt lat="40.41977423123245" lon="15.09923618688945"><ele>527.5999999999999</ele><time>2026-03-29T11:03:50Z</time></trkpt><trkpt lat="40.41976524084013" lon="15.099328541539426"><ele>529.4</ele><time>2026-03-29T11:03:51Z</time></trkpt><trkpt lat="40.41977121895777" lon="15.099416435955051"><ele>531.1999999999999</ele><time>2026-03-29T11:03:52Z</time></trkpt><trkpt lat="40.41982834068252" lon="15.099570235058264"><ele>533.0</ele><time>2026-03-29T11:03:54Z</time></trkpt><trkpt lat="40.419853382776445" lon="15.099737174637717"><ele>533.0</ele><time>2026-03-29T11:03:56Z</time></trkpt><trkpt lat="40.419884555559705" lon="15.099820453640568"><ele>533.0</ele><time>2026-03-29T11:03:57Z</time></trkpt><trkpt lat="40.41992171159307" lon="15.099903680414368"><ele>533.0</ele><time>2026-03-29T11:03:58Z</time></trkpt><trkpt lat="40.41992571468745" lon="15.10008080242966"><ele>533.0</ele><time>2026-03-29T11:04:00Z</time></trkpt><trkpt lat="40.41989778490632" lon="15.100196910246511"><ele>533.0</ele><time>2026-03-29T11:04:01Z</time></trkpt><trkpt lat="40.41988501249095" lon="15.100296584307676"><ele>533.0</ele><time>2026-03-29T11:04:02Z</time></trkpt><trkpt lat="40.419872887163464" lon="15.100427201009394"><ele>534.4</ele><time>2026-03-29T11:04:03Z</time></trkpt><trkpt lat="40.41984135383744" lon="15.100534350688234"><ele>535.8</ele><time>2026-03-29T11:04:04Z</time></trkpt><trkpt lat="40.41979855303817" lon="15.100609997125723"><ele>537.2</ele><time>2026-03-29T11:04:05Z</time></trkpt><trkpt lat="40.419779970620056" lon="15.100739457696656"><ele>538.6</ele><time>2026-03-29T11:04:07Z</time></trkpt><trkpt lat="40.4198263628935" lon="15.100824837857184"><ele>540.0</ele><time>2026-03-29T11:04:12Z</time></trkpt><trkpt lat="40.41993734296562" lon="15.10084519516083"><ele>542.0</ele><time>2026-03-29T11:04:14Z</time></trkpt><trkpt lat="40.42006219850427" lon="15.100873117042793"><ele>544.0</ele><time>2026-03-29T11:04:16Z</time></trkpt><trkpt lat="40.420130569325686" lon="15.100894876011433"><ele>546.0</ele><time>2026-03-29T11:04:17Z</time></trkpt><trkpt lat="40.42021022478795" lon="15.100917306633377"><ele>548.0</ele><time>2026-03-29T11:04:18Z</time></trkpt><trkpt lat="40.4202764779514" lon="15.10093873255723"><ele>550.0</ele><time>2026-03-29T11:04:19Z</time></trkpt><trkpt lat="40.42034969652762" lon="15.100960486747987"><ele>552.0</ele><time>2026-03-29T11:04:20Z</time></trkpt><trkpt lat="40.4204157100252" lon="15.100984226318351"><ele>552.0</ele><time>2026-03-29T11:04:21Z</time></trkpt><trkpt lat="40.42051837511225" lon="15.101025574792546"><ele>552.0</ele><time>2026-03-29T11:04:23Z</time></trkpt><trkpt lat="40.420595314894825" lon="15.101043597997734"><ele>552.0</ele><time>2026-03-29T11:04:24Z</time></trkpt><trkpt lat="40.42065519882884" lon="15.101069862122452"><ele>552.0</ele><time>2026-03-29T11:04:26Z</time></trkpt><trkpt lat="40.42055629251245" lon="15.101032818139853"><ele>552.0</ele><time>2026-03-29T11:05:08Z</time></trkpt><trkpt lat="40.420469410994464" lon="15.101001222402978"><ele>552.0</ele><time>2026-03-29T11:05:11Z</time></trkpt><trkpt lat="40.420380351821784" lon="15.100967370512754"><ele>552.0</ele><time>2026-03-29T11:05:13Z</time></trkpt><trkpt lat="40.420279417856385" lon="15.100934348198443"><ele>552.0</ele><time>2026-03-29T11:05:15Z</time></trkpt><trkpt lat="40.4201584334062" lon="15.100916551137736"><ele>552.0</ele><time>2026-03-29T11:05:17Z</time></trkpt><trkpt lat="40.42007060826503" lon="15.100865680507177"><ele>552.0</ele><time>2026-03-29T11:05:18Z</time></trkpt><trkpt lat="40.41999213150617" lon="15.100865345905188"><ele>552.0</ele><time>2026-03-29T11:05:19Z</time></trkpt><trkpt lat="40.41990024371195" lon="15.100819062313116"><ele>552.0</ele><time>2026-03-29T11:05:21Z</time></trkpt><trkpt lat="40.41983176575734" lon="15.10079305906797"><ele>552.0</ele><time>2026-03-29T11:05:23Z</time></trkpt><trkpt lat="40.41976606580797" lon="15.100773277028543"><ele>552.0</ele><time>2026-03-29T11:05:28Z</time></trkpt><trkpt lat="40.41980573839218" lon="15.100897388188093"><ele>552.0</ele><time>2026-03-29T11:05:31Z</time></trkpt><trkpt lat="40.41974116832383" lon="15.10097299224036"><ele>552.0</ele><time>2026-03-29T11:05:33Z</time></trkpt><trkpt lat="40.41975756119477" lon="15.101058994440335"><ele>552.0</ele><time>2026-03-29T11:05:35Z</time></trkpt><trkpt lat="40.419777117280226" lon="15.101169137486941"><ele>552.0</ele><time>2026-03-29T11:05:37Z</time></trkpt><trkpt lat="40.41979980866324" lon="15.101294153827643"><ele>552.0</ele><time>2026-03-29T11:05:39Z</time></trkpt><trkpt lat="40.419838719812546" lon="15.101421296336746"><ele>552.0</ele><time>2026-03-29T11:05:41Z</time></trkpt><trkpt lat="40.41987855425702" lon="15.10153888183413"><ele>552.0</ele><time>2026-03-29T11:05:43Z</time></trkpt><trkpt lat="40.419905039827945" lon="15.101625425858797"><ele>552.0</ele><time>2026-03-29T11:05:44Z</time></trkpt><trkpt lat="40.419945312522316" lon="15.101728174211209"><ele>552.5</ele><time>2026-03-29T11:05:46Z</time></trkpt><trkpt lat="40.41997683841113" lon="15.101858309609392"><ele>553.0</ele><time>2026-03-29T11:05:48Z</time></trkpt><trkpt lat="40.420002325227145" lon="15.101964474723658"><ele>553.5</ele><time>2026-03-29T11:05:50Z</time></trkpt><trkpt lat="40.42004337531929" lon="15.102093357135606"><ele>554.0</ele><time>2026-03-29T11:05:52Z</time></trkpt><trkpt lat="40.42005948738766" lon="15.102197140038996"><ele>554.5</ele><time>2026-03-29T11:05:55Z</time></trkpt><trkpt lat="40.42006719405511" lon="15.102288931803253"><ele>555.0</ele><time>2026-03-29T11:05:57Z</time></trkpt><trkpt lat="40.42007863953773" lon="15.102387912513759"><ele>555.8</ele><time>2026-03-29T11:05:59Z</time></trkpt><trkpt lat="40.420057614286854" lon="15.102520150184528"><ele>556.6</ele><time>2026-03-29T11:06:01Z</time></trkpt><trkpt lat="40.42003826818347" lon="15.102654045806899"><ele>557.4</ele><time>2026-03-29T11:06:03Z</time></trkpt><trkpt lat="40.42001158556422" lon="15.102754681567454"><ele>558.2</ele><time>2026-03-29T11:06:05Z</time></trkpt><trkpt lat="40.41998557980717" lon="15.102863832371542"><ele>559.0</ele><time>2026-03-29T11:06:07Z</time></trkpt><trkpt lat="40.41996006504944" lon="15.1029753892414"><ele>559.0</ele><time>2026-03-29T11:06:09Z</time></trkpt><trkpt lat="40.41994272003196" lon="15.103072383922319"><ele>559.0</ele><time>2026-03-29T11:06:30Z</time></trkpt><trkpt lat="40.41991745289726" lon="15.103174610754987"><ele>559.0</ele><time>2026-03-29T11:06:33Z</time></trkpt><trkpt lat="40.41988592910762" lon="15.103256647533893"><ele>559.0</ele><time>2026-03-29T11:06:35Z</time></trkpt><trkpt lat="40.41985819446972" lon="15.103377144979065"><ele>559.0</ele><time>2026-03-29T11:06:37Z</time></trkpt><trkpt lat="40.4198279830362" lon="15.103450414614645"><ele>559.0</ele><time>2026-03-29T11:06:38Z</time></trkpt><trkpt lat="40.41979651090311" lon="15.103548149824995"><ele>558.6</ele><time>2026-03-29T11:06:40Z</time></trkpt><trkpt lat="40.419740289562284" lon="15.103645914696175"><ele>558.2</ele><time>2026-03-29T11:06:42Z</time></trkpt><trkpt lat="40.41968941531031" lon="15.103780207076873"><ele>557.8000000000001</ele><time>2026-03-29T11:06:44Z</time></trkpt><trkpt lat="40.419646471488065" lon="15.103889162048006"><ele>557.4</ele><time>2026-03-29T11:06:46Z</time></trkpt><trkpt lat="40.419588774701644" lon="15.103976621932796"><ele>557.0</ele><time>2026-03-29T11:06:48Z</time></trkpt><trkpt lat="40.41949460519808" lon="15.104103090213458"><ele>557.0</ele><time>2026-03-29T11:06:50Z</time></trkpt><trkpt lat="40.41944390712622" lon="15.104159466592028"><ele>557.0</ele><time>2026-03-29T11:06:51Z</time></trkpt><trkpt lat="40.41936508469607" lon="15.104238999945919"><ele>557.0</ele><time>2026-03-29T11:06:53Z</time></trkpt><trkpt lat="40.41928993633752" lon="15.10431307245473"><ele>557.0</ele><time>2026-03-29T11:06:55Z</time></trkpt><trkpt lat="40.41923529074479" lon="15.104399837649462"><ele>557.0</ele><time>2026-03-29T11:07:18Z</time></trkpt><trkpt lat="40.41919620296407" lon="15.104509118424714"><ele>557.0</ele><time>2026-03-29T11:07:20Z</time></trkpt><trkpt lat="40.41917979855214" lon="15.104659091922"><ele>557.0</ele><time>2026-03-29T11:07:22Z</time></trkpt><trkpt lat="40.41917734435991" lon="15.104799900640586"><ele>557.0</ele><time>2026-03-29T11:07:24Z</time></trkpt><trkpt lat="40.419184590896116" lon="15.104959837852904"><ele>557.0</ele><time>2026-03-29T11:07:26Z</time></trkpt><trkpt lat="40.41918856446075" lon="15.105047537324578"><ele>557.0</ele><time>2026-03-29T11:07:27Z</time></trkpt><trkpt lat="40.419188170373275" lon="15.105205947324555"><ele>557.0</ele><time>2026-03-29T11:07:29Z</time></trkpt><trkpt lat="40.41916957354854" lon="15.105348656594488"><ele>557.8000000000001</ele><time>2026-03-29T11:07:31Z</time></trkpt><trkpt lat="40.41915192383242" lon="15.105508179664286"><ele>558.6</ele><time>2026-03-29T11:07:33Z</time></trkpt><trkpt lat="40.419126291272434" lon="15.105590286475989"><ele>559.4000000000001</ele><time>2026-03-29T11:07:34Z</time></trkpt><trkpt lat="40.41908170758364" lon="15.105736971465923"><ele>560.2</ele><time>2026-03-29T11:07:36Z</time></trkpt><trkpt lat="40.419004177655395" lon="15.105833931103827"><ele>561.0</ele><time>2026-03-29T11:07:38Z</time></trkpt><trkpt lat="40.41894841974439" lon="15.105887462836487"><ele>561.2</ele><time>2026-03-29T11:07:39Z</time></trkpt><trkpt lat="40.418966737212976" lon="15.10602653030536"><ele>561.4000000000001</ele><time>2026-03-29T11:07:40Z</time></trkpt><trkpt lat="40.418926296150055" lon="15.106164643880325"><ele>561.6</ele><time>2026-03-29T11:07:42Z</time></trkpt><trkpt lat="40.41888448579038" lon="15.106323675472614"><ele>561.8000000000001</ele><time>2026-03-29T11:07:44Z</time></trkpt><trkpt lat="40.41886731540127" lon="15.106404534049602"><ele>562.0</ele><time>2026-03-29T11:07:45Z</time></trkpt><trkpt lat="40.418837761841075" lon="15.106588888313734"><ele>562.8333333333334</ele><time>2026-03-29T11:07:47Z</time></trkpt><trkpt lat="40.4188363674125" lon="15.106686531125128"><ele>563.6666666666667</ele><time>2026-03-29T11:07:48Z</time></trkpt><trkpt lat="40.41883399108234" lon="15.106773951803994"><ele>564.5</ele><time>2026-03-29T11:07:49Z</time></trkpt><trkpt lat="40.41882994179653" lon="15.106872675151154"><ele>565.3333333333334</ele><time>2026-03-29T11:07:50Z</time></trkpt><trkpt lat="40.418842902962226" lon="15.106976758259977"><ele>566.1666666666666</ele><time>2026-03-29T11:07:51Z</time></trkpt><trkpt lat="40.41882403444404" lon="15.107074920172145"><ele>567.0</ele><time>2026-03-29T11:07:52Z</time></trkpt><trkpt lat="40.41880944110668" lon="15.107181917598085"><ele>564.5</ele><time>2026-03-29T11:07:53Z</time></trkpt><trkpt lat="40.418801177806536" lon="15.107270280898723"><ele>562.0</ele><time>2026-03-29T11:07:54Z</time></trkpt><trkpt lat="40.41877231707355" lon="15.107371238206044"><ele>559.5</ele><time>2026-03-29T11:07:55Z</time></trkpt><trkpt lat="40.41874518763926" lon="15.107479803925978"><ele>557.0</ele><time>2026-03-29T11:07:56Z</time></trkpt><trkpt lat="40.418737796814256" lon="15.107574005019986"><ele>554.5</ele><time>2026-03-29T11:07:57Z</time></trkpt><trkpt lat="40.418707016063415" lon="15.107661796329387"><ele>552.0</ele><time>2026-03-29T11:07:58Z</time></trkpt><trkpt lat="40.41864770739669" lon="15.107787951746587"><ele>552.0</ele><time>2026-03-29T11:08:00Z</time></trkpt><trkpt lat="40.41857102820159" lon="15.107932567763543"><ele>552.0</ele><time>2026-03-29T11:08:02Z</time></trkpt><trkpt lat="40.41848612379979" lon="15.108018896833542"><ele>552.0</ele><time>2026-03-29T11:08:04Z</time></trkpt><trkpt lat="40.418440241532025" lon="15.108079592547217"><ele>552.0</ele><time>2026-03-29T11:08:05Z</time></trkpt><trkpt lat="40.41837848957622" lon="15.108141280859051"><ele>552.0</ele><time>2026-03-29T11:08:06Z</time></trkpt><trkpt lat="40.41833204918463" lon="15.108213991238772"><ele>551.3333333333334</ele><time>2026-03-29T11:08:07Z</time></trkpt><trkpt lat="40.418296119720154" lon="15.10829528713305"><ele>550.6666666666666</ele><time>2026-03-29T11:08:08Z</time></trkpt><trkpt lat="40.41824735307111" lon="15.10837638539085"><ele>550.0</ele><time>2026-03-29T11:08:09Z</time></trkpt><trkpt lat="40.41819835632999" lon="15.108456450172493"><ele>549.3333333333333</ele><time>2026-03-29T11:08:10Z</time></trkpt><trkpt lat="40.41813316944702" lon="15.108516732765285"><ele>548.6666666666666</ele><time>2026-03-29T11:08:11Z</time></trkpt><trkpt lat="40.41806121848442" lon="15.108596410605884"><ele>548.0</ele><time>2026-03-29T11:08:12Z</time></trkpt><trkpt lat="40.41798175993852" lon="15.108667812373799"><ele>548.0</ele><time>2026-03-29T11:08:13Z</time></trkpt><trkpt lat="40.4179072508904" lon="15.108754749953674"><ele>548.0</ele><time>2026-03-29T11:08:14Z</time></trkpt><trkpt lat="40.417828710419094" lon="15.108815046383105"><ele>548.0</ele><time>2026-03-29T11:08:15Z</time></trkpt><trkpt lat="40.417744430531414" lon="15.108858610355762"><ele>548.0</ele><time>2026-03-29T11:08:16Z</time></trkpt><trkpt lat="40.417681452679375" lon="15.10893757894834"><ele>548.0</ele><time>2026-03-29T11:08:17Z</time></trkpt><trkpt lat="40.41761381894702" lon="15.108996326096308"><ele>548.0</ele><time>2026-03-29T11:08:18Z</time></trkpt><trkpt lat="40.41755113689563" lon="15.109064063567379"><ele>549.3333333333333</ele><time>2026-03-29T11:08:19Z</time></trkpt><trkpt lat="40.41748113505667" lon="15.109165124088928"><ele>550.6666666666666</ele><time>2026-03-29T11:08:21Z</time></trkpt><trkpt lat="40.41740883747316" lon="15.109261721022975"><ele>552.0</ele><time>2026-03-29T11:08:22Z</time></trkpt><trkpt lat="40.417361791737946" lon="15.109347966266196"><ele>553.3333333333334</ele><time>2026-03-29T11:08:23Z</time></trkpt><trkpt lat="40.41732605862799" lon="15.109451012336281"><ele>554.6666666666667</ele><time>2026-03-29T11:08:24Z</time></trkpt><trkpt lat="40.41727489524675" lon="15.109505997219966"><ele>556.0</ele><time>2026-03-29T11:08:25Z</time></trkpt><trkpt lat="40.41723619643855" lon="15.109588407612383"><ele>556.0</ele><time>2026-03-29T11:08:26Z</time></trkpt><trkpt lat="40.41716386209582" lon="15.109637423354096"><ele>556.0</ele><time>2026-03-29T11:08:27Z</time></trkpt><trkpt lat="40.417090753751324" lon="15.10970835842494"><ele>556.0</ele><time>2026-03-29T11:08:28Z</time></trkpt><trkpt lat="40.41701549253565" lon="15.109763106299232"><ele>556.0</ele><time>2026-03-29T11:08:29Z</time></trkpt><trkpt lat="40.416951803564075" lon="15.10982661903734"><ele>556.0</ele><time>2026-03-29T11:08:30Z</time></trkpt><trkpt lat="40.41690739928921" lon="15.109896079711472"><ele>556.0</ele><time>2026-03-29T11:08:31Z</time></trkpt><trkpt lat="40.416863304693145" lon="15.109957255254225"><ele>556.1666666666667</ele><time>2026-03-29T11:08:32Z</time></trkpt><trkpt lat="40.41683004898165" lon="15.110047193173711"><ele>556.3333333333334</ele><time>2026-03-29T11:08:33Z</time></trkpt><trkpt lat="40.416806392779165" lon="15.110168183111272"><ele>556.5</ele><time>2026-03-29T11:08:34Z</time></trkpt><trkpt lat="40.41682466568764" lon="15.110274516791614"><ele>556.6666666666666</ele><time>2026-03-29T11:08:35Z</time></trkpt><trkpt lat="40.41680157045153" lon="15.11040225762826"><ele>556.8333333333333</ele><time>2026-03-29T11:08:36Z</time></trkpt><trkpt lat="40.41679619180082" lon="15.110492124207344"><ele>557.0</ele><time>2026-03-29T11:08:37Z</time></trkpt><trkpt lat="40.416788759678155" lon="15.110599415171516"><ele>556.8000000000001</ele><time>2026-03-29T11:08:38Z</time></trkpt><trkpt lat="40.41677422277376" lon="15.110772695083307"><ele>556.6</ele><time>2026-03-29T11:08:40Z</time></trkpt><trkpt lat="40.41677910541803" lon="15.110875180601864"><ele>556.4000000000001</ele><time>2026-03-29T11:08:41Z</time></trkpt><trkpt lat="40.4167654762043" lon="15.110966194206105"><ele>556.2</ele><time>2026-03-29T11:08:42Z</time></trkpt><trkpt lat="40.41674905422671" lon="15.11105784729593"><ele>556.0</ele><time>2026-03-29T11:08:43Z</time></trkpt><trkpt lat="40.41671007503273" lon="15.111189667104794"><ele>556.0</ele><time>2026-03-29T11:08:45Z</time></trkpt><trkpt lat="40.416678882084824" lon="15.111301110502772"><ele>556.0</ele><time>2026-03-29T11:08:46Z</time></trkpt><trkpt lat="40.416663850861354" lon="15.111414598136482"><ele>556.0</ele><time>2026-03-29T11:08:47Z</time></trkpt><trkpt lat="40.41663239823238" lon="15.11149510930319"><ele>556.0</ele><time>2026-03-29T11:08:48Z</time></trkpt><trkpt lat="40.416588684594075" lon="15.111687890830947"><ele>556.0</ele><time>2026-03-29T11:08:50Z</time></trkpt><trkpt lat="40.41656275731112" lon="15.111780800353639"><ele>556.3333333333334</ele><time>2026-03-29T11:08:51Z</time></trkpt><trkpt lat="40.41653430180867" lon="15.11188858392988"><ele>556.6666666666667</ele><time>2026-03-29T11:08:52Z</time></trkpt><trkpt lat="40.41650663601751" lon="15.111976818523555"><ele>557.0</ele><time>2026-03-29T11:08:53Z</time></trkpt><trkpt lat="40.41648582691531" lon="15.112070427736995"><ele>557.3333333333334</ele><time>2026-03-29T11:08:54Z</time></trkpt><trkpt lat="40.41645642657064" lon="15.112157757686479"><ele>557.6666666666666</ele><time>2026-03-29T11:08:55Z</time></trkpt><trkpt lat="40.41642720524215" lon="15.112262216371878"><ele>558.0</ele><time>2026-03-29T11:08:56Z</time></trkpt><trkpt lat="40.4163910884927" lon="15.112351603910957"><ele>558.5714285714286</ele><time>2026-03-29T11:08:57Z</time></trkpt><trkpt lat="40.416363447796016" lon="15.112439553703648"><ele>559.1428571428571</ele><time>2026-03-29T11:08:58Z</time></trkpt><trkpt lat="40.416330197691785" lon="15.112533537791496"><ele>559.7142857142858</ele><time>2026-03-29T11:08:59Z</time></trkpt><trkpt lat="40.41629727024583" lon="15.11261435233989"><ele>560.2857142857142</ele><time>2026-03-29T11:09:00Z</time></trkpt><trkpt lat="40.41626232363669" lon="15.112698462702516"><ele>560.8571428571429</ele><time>2026-03-29T11:09:01Z</time></trkpt><trkpt lat="40.41623827515149" lon="15.112801266725953"><ele>561.4285714285714</ele><time>2026-03-29T11:09:02Z</time></trkpt><trkpt lat="40.416199376009075" lon="15.112869662538621"><ele>562.0</ele><time>2026-03-29T11:09:03Z</time></trkpt><trkpt lat="40.41617274493851" lon="15.112949257407795"><ele>561.0</ele><time>2026-03-29T11:09:04Z</time></trkpt><trkpt lat="40.4161052141001" lon="15.113075746849441"><ele>560.0</ele><time>2026-03-29T11:09:06Z</time></trkpt><trkpt lat="40.41605603401767" lon="15.113217314280295"><ele>559.0</ele><time>2026-03-29T11:09:08Z</time></trkpt><trkpt lat="40.41602616952693" lon="15.113291068461887"><ele>558.0</ele><time>2026-03-29T11:09:09Z</time></trkpt><trkpt lat="40.415994557192995" lon="15.113368358138215"><ele>557.0</ele><time>2026-03-29T11:09:10Z</time></trkpt><trkpt lat="40.41593629251596" lon="15.113498766165437"><ele>557.0</ele><time>2026-03-29T11:09:12Z</time></trkpt><trkpt lat="40.41588402538876" lon="15.113645520735501"><ele>557.0</ele><time>2026-03-29T11:09:14Z</time></trkpt><trkpt lat="40.41585255896292" lon="15.113746041032586"><ele>557.0</ele><time>2026-03-29T11:09:16Z</time></trkpt><trkpt lat="40.41582866642972" lon="15.113839072601923"><ele>557.0</ele><time>2026-03-29T11:09:27Z</time></trkpt><trkpt lat="40.41582310955231" lon="15.113966207337668"><ele>557.0</ele><time>2026-03-29T11:09:32Z</time></trkpt><trkpt lat="40.41579570257828" lon="15.114114242414368"><ele>557.5</ele><time>2026-03-29T11:09:34Z</time></trkpt><trkpt lat="40.41575346629175" lon="15.114204727642786"><ele>558.0</ele><time>2026-03-29T11:09:35Z</time></trkpt><trkpt lat="40.41570545723629" lon="15.114274336944629"><ele>558.5</ele><time>2026-03-29T11:09:36Z</time></trkpt><trkpt lat="40.41565986772085" lon="15.114360539706173"><ele>559.0</ele><time>2026-03-29T11:09:37Z</time></trkpt><trkpt lat="40.41559997534505" lon="15.114479516998232"><ele>559.5</ele><time>2026-03-29T11:09:39Z</time></trkpt><trkpt lat="40.41554066311287" lon="15.114578538411198"><ele>560.0</ele><time>2026-03-29T11:09:41Z</time></trkpt><trkpt lat="40.415525115808556" lon="15.114714529645054"><ele>560.0</ele><time>2026-03-29T11:09:43Z</time></trkpt><trkpt lat="40.41550183677888" lon="15.11481341018971"><ele>560.0</ele><time>2026-03-29T11:09:44Z</time></trkpt><trkpt lat="40.41546881529269" lon="15.114957706314938"><ele>560.0</ele><time>2026-03-29T11:09:46Z</time></trkpt><trkpt lat="40.41542556898898" lon="15.115086785768847"><ele>560.0</ele><time>2026-03-29T11:09:48Z</time></trkpt><trkpt lat="40.4153751894863" lon="15.115165779257756"><ele>560.0</ele><time>2026-03-29T11:09:49Z</time></trkpt><trkpt lat="40.415344397523874" lon="15.115239284654535"><ele>560.0</ele><time>2026-03-29T11:09:50Z</time></trkpt><trkpt lat="40.41530250367242" lon="15.115364900389286"><ele>559.8571428571429</ele><time>2026-03-29T11:09:52Z</time></trkpt><trkpt lat="40.41527595277318" lon="15.115442553160559"><ele>559.7142857142858</ele><time>2026-03-29T11:09:53Z</time></trkpt><trkpt lat="40.41523868387421" lon="15.115518299295116"><ele>559.5714285714286</ele><time>2026-03-29T11:09:54Z</time></trkpt><trkpt lat="40.41519980143975" lon="15.115600519646582"><ele>559.4285714285714</ele><time>2026-03-29T11:09:55Z</time></trkpt><trkpt lat="40.4151635064671" lon="15.115669674382513"><ele>559.2857142857143</ele><time>2026-03-29T11:09:56Z</time></trkpt><trkpt lat="40.415118215587356" lon="15.115735466210808"><ele>559.1428571428571</ele><time>2026-03-29T11:09:57Z</time></trkpt><trkpt lat="40.41509560187024" lon="15.11581363337086"><ele>559.0</ele><time>2026-03-29T11:09:58Z</time></trkpt><trkpt lat="40.41500836414289" lon="15.11596058918622"><ele>560.0</ele><time>2026-03-29T11:10:00Z</time></trkpt><trkpt lat="40.4149426437314" lon="15.116095412882357"><ele>561.0</ele><time>2026-03-29T11:10:01Z</time></trkpt><trkpt lat="40.414867376673946" lon="15.11625408528615"><ele>562.0</ele><time>2026-03-29T11:10:03Z</time></trkpt><trkpt lat="40.4148315557001" lon="15.116357916041043"><ele>563.0</ele><time>2026-03-29T11:10:04Z</time></trkpt><trkpt lat="40.41479919862263" lon="15.116449288287127"><ele>564.0</ele><time>2026-03-29T11:10:05Z</time></trkpt><trkpt lat="40.414754671754025" lon="15.116518980235433"><ele>565.3333333333334</ele><time>2026-03-29T11:10:06Z</time></trkpt><trkpt lat="40.41469850846221" lon="15.116694649349506"><ele>566.6666666666666</ele><time>2026-03-29T11:10:08Z</time></trkpt><trkpt lat="40.414670610986896" lon="15.116774281363995"><ele>568.0</ele><time>2026-03-29T11:10:09Z</time></trkpt><trkpt lat="40.414641304331795" lon="15.116854997358951"><ele>569.3333333333333</ele><time>2026-03-29T11:10:10Z</time></trkpt><trkpt lat="40.414619461770954" lon="15.11693809175308"><ele>570.6666666666666</ele><time>2026-03-29T11:10:11Z</time></trkpt><trkpt lat="40.41459178161253" lon="15.117018043383736"><ele>572.0</ele><time>2026-03-29T11:10:12Z</time></trkpt><trkpt lat="40.4145529510098" lon="15.117092788820237"><ele>571.3333333333333</ele><time>2026-03-29T11:10:13Z</time></trkpt><trkpt lat="40.414522521433" lon="15.117175778425455"><ele>570.6666666666666</ele><time>2026-03-29T11:10:14Z</time></trkpt><trkpt lat="40.414460008475565" lon="15.11732948496718"><ele>570.0</ele><time>2026-03-29T11:10:16Z</time></trkpt><trkpt lat="40.41442380834611" lon="15.11741745286747"><ele>569.3333333333334</ele><time>2026-03-29T11:10:17Z</time></trkpt><trkpt lat="40.414388088093325" lon="15.11750425461596"><ele>568.6666666666667</ele><time>2026-03-29T11:10:18Z</time></trkpt><trkpt lat="40.414357798157816" lon="15.117602165774311"><ele>568.0</ele><time>2026-03-29T11:10:19Z</time></trkpt><trkpt lat="40.41431508418944" lon="15.117733812744104"><ele>568.0</ele><time>2026-03-29T11:10:21Z</time></trkpt><trkpt lat="40.41428042353468" lon="15.117851128568654"><ele>568.0</ele><time>2026-03-29T11:10:27Z</time></trkpt><trkpt lat="40.41425032019823" lon="15.117953019242247"><ele>568.0</ele><time>2026-03-29T11:10:29Z</time></trkpt><trkpt lat="40.41421238172142" lon="15.118081429464853"><ele>568.0</ele><time>2026-03-29T11:10:31Z</time></trkpt><trkpt lat="40.41425982378712" lon="15.11819502213973"><ele>568.0</ele><time>2026-03-29T11:10:32Z</time></trkpt><trkpt lat="40.41424033168493" lon="15.118277722929221"><ele>568.0</ele><time>2026-03-29T11:10:33Z</time></trkpt><trkpt lat="40.41421488488434" lon="15.118374380160594"><ele>569.1666666666667</ele><time>2026-03-29T11:10:34Z</time></trkpt><trkpt lat="40.414204759197375" lon="15.118465838263834"><ele>570.3333333333334</ele><time>2026-03-29T11:10:35Z</time></trkpt><trkpt lat="40.41417322468962" lon="15.118546493103658"><ele>571.5</ele><time>2026-03-29T11:10:36Z</time></trkpt><trkpt lat="40.414181521788805" lon="15.118641580238911"><ele>572.6666666666666</ele><time>2026-03-29T11:10:37Z</time></trkpt><trkpt lat="40.414172394288116" lon="15.118726661740338"><ele>573.8333333333333</ele><time>2026-03-29T11:10:38Z</time></trkpt><trkpt lat="40.414159518702384" lon="15.118825006140034"><ele>575.0</ele><time>2026-03-29T11:10:39Z</time></trkpt><trkpt lat="40.41416374643847" lon="15.118993887096593"><ele>576.0</ele><time>2026-03-29T11:10:41Z</time></trkpt><trkpt lat="40.414157154258774" lon="15.119078589836617"><ele>577.0</ele><time>2026-03-29T11:10:42Z</time></trkpt><trkpt lat="40.414141037800334" lon="15.119161715885829"><ele>578.0</ele><time>2026-03-29T11:10:43Z</time></trkpt><trkpt lat="40.414114484754904" lon="15.119251272797305"><ele>579.0</ele><time>2026-03-29T11:10:44Z</time></trkpt><trkpt lat="40.41409076312277" lon="15.119333372409185"><ele>580.0</ele><time>2026-03-29T11:10:45Z</time></trkpt><trkpt lat="40.41406980958797" lon="15.11941563861029"><ele>581.0</ele><time>2026-03-29T11:10:46Z</time></trkpt><trkpt lat="40.41404794053665" lon="15.11951430080899"><ele>582.0</ele><time>2026-03-29T11:10:47Z</time></trkpt><trkpt lat="40.413944789197785" lon="15.11959154891643"><ele>582.0</ele><time>2026-03-29T11:10:49Z</time></trkpt><trkpt lat="40.413896716580595" lon="15.119730700399392"><ele>582.0</ele><time>2026-03-29T11:10:51Z</time></trkpt><trkpt lat="40.41383879414459" lon="15.119790424224599"><ele>582.0</ele><time>2026-03-29T11:10:52Z</time></trkpt><trkpt lat="40.413797492215465" lon="15.11985463761109"><ele>582.0</ele><time>2026-03-29T11:10:53Z</time></trkpt><trkpt lat="40.41374347911918" lon="15.119958841478214"><ele>582.0</ele><time>2026-03-29T11:10:54Z</time></trkpt><trkpt lat="40.41369608774766" lon="15.120027128626694"><ele>582.0</ele><time>2026-03-29T11:10:55Z</time></trkpt><trkpt lat="40.41364731653584" lon="15.1201031356729"><ele>581.1666666666666</ele><time>2026-03-29T11:10:56Z</time></trkpt><trkpt lat="40.413600697742105" lon="15.120183748840324"><ele>580.3333333333334</ele><time>2026-03-29T11:10:57Z</time></trkpt><trkpt lat="40.41356242101414" lon="15.120257625008332"><ele>579.5</ele><time>2026-03-29T11:10:58Z</time></trkpt><trkpt lat="40.41352283572979" lon="15.120361406929133"><ele>578.6666666666667</ele><time>2026-03-29T11:10:59Z</time></trkpt><trkpt lat="40.41348569660105" lon="15.120436570251494"><ele>577.8333333333334</ele><time>2026-03-29T11:11:00Z</time></trkpt><trkpt lat="40.413420586709435" lon="15.120507589957686"><ele>577.0</ele><time>2026-03-29T11:11:01Z</time></trkpt><trkpt lat="40.41336967169114" lon="15.120584198333994"><ele>577.0</ele><time>2026-03-29T11:11:02Z</time></trkpt><trkpt lat="40.413324128909856" lon="15.120664125407849"><ele>577.0</ele><time>2026-03-29T11:11:03Z</time></trkpt><trkpt lat="40.4132714176679" lon="15.120717298623365"><ele>577.0</ele><time>2026-03-29T11:11:04Z</time></trkpt><trkpt lat="40.41321980733991" lon="15.120784432775947"><ele>577.0</ele><time>2026-03-29T11:11:05Z</time></trkpt><trkpt lat="40.41317799114299" lon="15.120936364483391"><ele>577.0</ele><time>2026-03-29T11:11:07Z</time></trkpt><trkpt lat="40.41313464100676" lon="15.121042863507027"><ele>577.0</ele><time>2026-03-29T11:11:09Z</time></trkpt><trkpt lat="40.413092901256164" lon="15.121148377297802"><ele>578.1666666666667</ele><time>2026-03-29T11:11:11Z</time></trkpt><trkpt lat="40.41306443657314" lon="15.121224614267401"><ele>579.3333333333334</ele><time>2026-03-29T11:11:13Z</time></trkpt><trkpt lat="40.41303760155813" lon="15.121318821215583"><ele>580.5</ele><time>2026-03-29T11:11:15Z</time></trkpt><trkpt lat="40.41300555487305" lon="15.121435510136447"><ele>581.6666666666666</ele><time>2026-03-29T11:11:17Z</time></trkpt><trkpt lat="40.41299979265622" lon="15.121571172077605"><ele>582.8333333333333</ele><time>2026-03-29T11:11:19Z</time></trkpt><trkpt lat="40.41298645960371" lon="15.121656057480514"><ele>584.0</ele><time>2026-03-29T11:11:21Z</time></trkpt><trkpt lat="40.41298045345485" lon="15.121749578880836"><ele>584.0</ele><time>2026-03-29T11:11:23Z</time></trkpt><trkpt lat="40.41296289339217" lon="15.12187390850166"><ele>584.0</ele><time>2026-03-29T11:11:25Z</time></trkpt><trkpt lat="40.41294432745678" lon="15.121991985364778"><ele>584.0</ele><time>2026-03-29T11:11:27Z</time></trkpt><trkpt lat="40.41291434547505" lon="15.122128468600852"><ele>584.0</ele><time>2026-03-29T11:11:29Z</time></trkpt><trkpt lat="40.41291060227807" lon="15.1222422719123"><ele>584.0</ele><time>2026-03-29T11:11:31Z</time></trkpt><trkpt lat="40.41287759262656" lon="15.12233522095205"><ele>584.8</ele><time>2026-03-29T11:11:54Z</time></trkpt><trkpt lat="40.41286071477262" lon="15.12242755661327"><ele>585.5999999999999</ele><time>2026-03-29T11:11:56Z</time></trkpt><trkpt lat="40.41282945610001" lon="15.122531430055488"><ele>586.4</ele><time>2026-03-29T11:11:58Z</time></trkpt><trkpt lat="40.41279921335755" lon="15.12262490216321"><ele>587.1999999999999</ele><time>2026-03-29T11:12:00Z</time></trkpt><trkpt lat="40.412732184091084" lon="15.12288480612209"><ele>588.0</ele><time>2026-03-29T11:12:02Z</time></trkpt><trkpt lat="40.41270239950623" lon="15.122960424608923"><ele>588.0</ele><time>2026-03-29T11:12:03Z</time></trkpt><trkpt lat="40.412639774565314" lon="15.123101170161416"><ele>588.0</ele><time>2026-03-29T11:12:05Z</time></trkpt><trkpt lat="40.41259827834212" lon="15.123215959290151"><ele>588.0</ele><time>2026-03-29T11:12:07Z</time></trkpt><trkpt lat="40.41255674770054" lon="15.123331232820185"><ele>588.0</ele><time>2026-03-29T11:12:09Z</time></trkpt><trkpt lat="40.41251408411923" lon="15.123456192490762"><ele>588.0</ele><time>2026-03-29T11:12:11Z</time></trkpt><trkpt lat="40.41246938789033" lon="15.123577078543029"><ele>589.5</ele><time>2026-03-29T11:12:13Z</time></trkpt><trkpt lat="40.41242281238062" lon="15.12365273173351"><ele>591.0</ele><time>2026-03-29T11:12:15Z</time></trkpt><trkpt lat="40.41240281688639" lon="15.123748391947844"><ele>592.5</ele><time>2026-03-29T11:12:17Z</time></trkpt><trkpt lat="40.412361698337556" lon="15.123817223453312"><ele>594.0</ele><time>2026-03-29T11:12:21Z</time></trkpt><trkpt lat="40.41233063872474" lon="15.123913595674146"><ele>595.5</ele><time>2026-03-29T11:12:23Z</time></trkpt><trkpt lat="40.4122656440414" lon="15.124027218547635"><ele>597.0</ele><time>2026-03-29T11:12:25Z</time></trkpt><trkpt lat="40.41220891326294" lon="15.124153551297594"><ele>596.3333333333334</ele><time>2026-03-29T11:12:27Z</time></trkpt><trkpt lat="40.41216995650894" lon="15.124242721094262"><ele>595.6666666666666</ele><time>2026-03-29T11:12:28Z</time></trkpt><trkpt lat="40.41214111603012" lon="15.124316501298917"><ele>595.0</ele><time>2026-03-29T11:12:29Z</time></trkpt><trkpt lat="40.41207328694338" lon="15.124457881517937"><ele>594.3333333333333</ele><time>2026-03-29T11:12:31Z</time></trkpt><trkpt lat="40.41204644469543" lon="15.124534141051646"><ele>593.6666666666666</ele><time>2026-03-29T11:12:32Z</time></trkpt><trkpt lat="40.41196682405592" lon="15.124629781764282"><ele>593.0</ele><time>2026-03-29T11:12:34Z</time></trkpt><trkpt lat="40.411861691942114" lon="15.124708561224876"><ele>593.0</ele><time>2026-03-29T11:12:36Z</time></trkpt><trkpt lat="40.41180132994628" lon="15.124736488286038"><ele>593.0</ele><time>2026-03-29T11:12:37Z</time></trkpt><trkpt lat="40.411735544682735" lon="15.124779972939773"><ele>593.0</ele><time>2026-03-29T11:12:38Z</time></trkpt><trkpt lat="40.411636599914885" lon="15.124802347299317"><ele>593.0</ele><time>2026-03-29T11:12:40Z</time></trkpt><trkpt lat="40.41156885302078" lon="15.12484158460695"><ele>593.0</ele><time>2026-03-29T11:12:41Z</time></trkpt><trkpt lat="40.41151631928943" lon="15.12491453318952"><ele>593.0</ele><time>2026-03-29T11:12:42Z</time></trkpt><trkpt lat="40.41142563296817" lon="15.124993547591117"><ele>593.8333333333333</ele><time>2026-03-29T11:12:44Z</time></trkpt><trkpt lat="40.411380557673624" lon="15.125085472963987"><ele>594.6666666666666</ele><time>2026-03-29T11:12:45Z</time></trkpt><trkpt lat="40.41132520245897" lon="15.125134840106082"><ele>595.5</ele><time>2026-03-29T11:12:46Z</time></trkpt><trkpt lat="40.41126330402698" lon="15.125246519634402"><ele>596.3333333333334</ele><time>2026-03-29T11:12:48Z</time></trkpt><trkpt lat="40.411195460312506" lon="15.125270384394101"><ele>597.1666666666667</ele><time>2026-03-29T11:12:49Z</time></trkpt><trkpt lat="40.41113017047741" lon="15.125286632263487"><ele>598.0</ele><time>2026-03-29T11:12:50Z</time></trkpt><trkpt lat="40.41107458343547" lon="15.12533142391368"><ele>598.0</ele><time>2026-03-29T11:12:51Z</time></trkpt><trkpt lat="40.41098393047432" lon="15.125435740537773"><ele>598.0</ele><time>2026-03-29T11:12:53Z</time></trkpt><trkpt lat="40.410872520495175" lon="15.125446442617246"><ele>598.0</ele><time>2026-03-29T11:12:55Z</time></trkpt><trkpt lat="40.410794031293385" lon="15.125451137822544"><ele>598.0</ele><time>2026-03-29T11:12:56Z</time></trkpt><trkpt lat="40.410706419118235" lon="15.125478757243606"><ele>598.0</ele><time>2026-03-29T11:12:57Z</time></trkpt><trkpt lat="40.410630741843896" lon="15.125476862583627"><ele>598.0</ele><time>2026-03-29T11:12:58Z</time></trkpt><trkpt lat="40.410526150874134" lon="15.125477878085842"><ele>598.0</ele><time>2026-03-29T11:13:00Z</time></trkpt><trkpt lat="40.410549562358376" lon="15.125327415657114"><ele>598.0</ele><time>2026-03-29T11:13:13Z</time></trkpt><trkpt lat="40.4105489176897" lon="15.125224060460393"><ele>598.0</ele><time>2026-03-29T11:13:15Z</time></trkpt><trkpt lat="40.41055393149882" lon="15.12506366877043"><ele>598.0</ele><time>2026-03-29T11:13:17Z</time></trkpt><trkpt lat="40.41054885902981" lon="15.124980087629282"><ele>596.1999999999999</ele><time>2026-03-29T11:13:18Z</time></trkpt><trkpt lat="40.410524799322864" lon="15.124880218354916"><ele>594.4</ele><time>2026-03-29T11:13:19Z</time></trkpt><trkpt lat="40.41050620537742" lon="15.124702726176627"><ele>592.5999999999999</ele><time>2026-03-29T11:13:21Z</time></trkpt><trkpt lat="40.410475452667605" lon="15.12459068455217"><ele>590.8</ele><time>2026-03-29T11:13:22Z</time></trkpt><trkpt lat="40.410444982389514" lon="15.12449783669241"><ele>589.0</ele><time>2026-03-29T11:13:23Z</time></trkpt><trkpt lat="40.410389911436525" lon="15.124403131129572"><ele>589.0</ele><time>2026-03-29T11:13:24Z</time></trkpt><trkpt lat="40.41032452139783" lon="15.12432130213192"><ele>589.0</ele><time>2026-03-29T11:13:25Z</time></trkpt><trkpt lat="40.41024463979605" lon="15.124263327208558"><ele>589.0</ele><time>2026-03-29T11:13:26Z</time></trkpt><trkpt lat="40.4101533921285" lon="15.124188158763953"><ele>589.0</ele><time>2026-03-29T11:13:27Z</time></trkpt><trkpt lat="40.410082891600275" lon="15.124102954236777"><ele>589.0</ele><time>2026-03-29T11:13:28Z</time></trkpt><trkpt lat="40.41002344012044" lon="15.124009123201253"><ele>587.8</ele><time>2026-03-29T11:13:29Z</time></trkpt><trkpt lat="40.4099495534248" lon="15.123902449772784"><ele>586.5999999999999</ele><time>2026-03-29T11:13:30Z</time></trkpt><trkpt lat="40.409886190189034" lon="15.123810244120232"><ele>585.4</ele><time>2026-03-29T11:13:31Z</time></trkpt><trkpt lat="40.40983025294996" lon="15.123737701003154"><ele>584.1999999999999</ele><time>2026-03-29T11:13:32Z</time></trkpt><trkpt lat="40.40978422874649" lon="15.123640212456223"><ele>583.0</ele><time>2026-03-29T11:13:34Z</time></trkpt><trkpt lat="40.40978171043712" lon="15.12353214825165"><ele>583.0</ele><time>2026-03-29T11:13:35Z</time></trkpt><trkpt lat="40.40978127661121" lon="15.123402151053519"><ele>583.0</ele><time>2026-03-29T11:13:36Z</time></trkpt><trkpt lat="40.409761105542664" lon="15.123274392610108"><ele>583.0</ele><time>2026-03-29T11:13:37Z</time></trkpt><trkpt lat="40.409739392201615" lon="15.123150471417805"><ele>583.0</ele><time>2026-03-29T11:13:38Z</time></trkpt><trkpt lat="40.40972114240147" lon="15.123023812899643"><ele>583.0</ele><time>2026-03-29T11:13:39Z</time></trkpt><trkpt lat="40.40970638935443" lon="15.122901501084147"><ele>582.6666666666667</ele><time>2026-03-29T11:13:40Z</time></trkpt><trkpt lat="40.40968521117463" lon="15.122786647137403"><ele>582.3333333333334</ele><time>2026-03-29T11:13:41Z</time></trkpt><trkpt lat="40.409644942050775" lon="15.122680762310706"><ele>582.0</ele><time>2026-03-29T11:13:42Z</time></trkpt><trkpt lat="40.40959027295192" lon="15.122591508683305"><ele>581.6666666666666</ele><time>2026-03-29T11:13:43Z</time></trkpt><trkpt lat="40.409522784969994" lon="15.122507553270587"><ele>581.3333333333333</ele><time>2026-03-29T11:13:44Z</time></trkpt><trkpt lat="40.409446611873975" lon="15.122456643360477"><ele>581.0</ele><time>2026-03-29T11:13:45Z</time></trkpt><trkpt lat="40.40936616084949" lon="15.12237864883823"><ele>579.0</ele><time>2026-03-29T11:13:46Z</time></trkpt><trkpt lat="40.40928201123944" lon="15.122306240351987"><ele>577.0</ele><time>2026-03-29T11:13:47Z</time></trkpt><trkpt lat="40.40920244255937" lon="15.122231400583827"><ele>575.0</ele><time>2026-03-29T11:13:48Z</time></trkpt><trkpt lat="40.40915242455359" lon="15.122173170758115"><ele>573.0</ele><time>2026-03-29T11:13:49Z</time></trkpt><trkpt lat="40.40910564198924" lon="15.122108499026982"><ele>571.0</ele><time>2026-03-29T11:13:50Z</time></trkpt><trkpt lat="40.409067350804854" lon="15.12202760218003"><ele>569.0</ele><time>2026-03-29T11:13:51Z</time></trkpt><trkpt lat="40.40904847078804" lon="15.121917831773052"><ele>569.0</ele><time>2026-03-29T11:13:52Z</time></trkpt><trkpt lat="40.409024627855025" lon="15.121787960168604"><ele>569.0</ele><time>2026-03-29T11:13:53Z</time></trkpt><trkpt lat="40.408999184950346" lon="15.121679933659385"><ele>569.0</ele><time>2026-03-29T11:13:54Z</time></trkpt><trkpt lat="40.408966943296655" lon="15.121558803315104"><ele>569.0</ele><time>2026-03-29T11:13:55Z</time></trkpt><trkpt lat="40.4089331779631" lon="15.121460139761957"><ele>569.0</ele><time>2026-03-29T11:13:56Z</time></trkpt><trkpt lat="40.40888235837899" lon="15.121379310716993"><ele>569.0</ele><time>2026-03-29T11:13:57Z</time></trkpt><trkpt lat="40.408829440064586" lon="15.121310025633235"><ele>566.4</ele><time>2026-03-29T11:13:58Z</time></trkpt><trkpt lat="40.408680286144424" lon="15.121317383226916"><ele>563.8</ele><time>2026-03-29T11:14:00Z</time></trkpt><trkpt lat="40.40861505287026" lon="15.121367663707543"><ele>561.2</ele><time>2026-03-29T11:14:01Z</time></trkpt><trkpt lat="40.40856445045913" lon="15.121431916757807"><ele>558.6</ele><time>2026-03-29T11:14:02Z</time></trkpt><trkpt lat="40.408503798393255" lon="15.121473835249713"><ele>556.0</ele><time>2026-03-29T11:14:03Z</time></trkpt><trkpt lat="40.40838123902803" lon="15.121468603279977"><ele>556.0</ele><time>2026-03-29T11:14:05Z</time></trkpt><trkpt lat="40.40833335497532" lon="15.121401030112576"><ele>556.0</ele><time>2026-03-29T11:14:06Z</time></trkpt><trkpt lat="40.40826470722273" lon="15.121326862736872"><ele>556.0</ele><time>2026-03-29T11:14:07Z</time></trkpt><trkpt lat="40.4081933279834" lon="15.121247784871017"><ele>556.0</ele><time>2026-03-29T11:14:08Z</time></trkpt><trkpt lat="40.4081331466299" lon="15.121175869666091"><ele>556.0</ele><time>2026-03-29T11:14:09Z</time></trkpt><trkpt lat="40.40805791391244" lon="15.121120043732336"><ele>556.0</ele><time>2026-03-29T11:14:10Z</time></trkpt><trkpt lat="40.40798674694589" lon="15.121052052319387"><ele>555.2</ele><time>2026-03-29T11:14:11Z</time></trkpt><trkpt lat="40.407898178760185" lon="15.121004418927916"><ele>554.4000000000001</ele><time>2026-03-29T11:14:12Z</time></trkpt><trkpt lat="40.4078082808828" lon="15.120962179169155"><ele>553.6</ele><time>2026-03-29T11:14:13Z</time></trkpt><trkpt lat="40.40771056042061" lon="15.120912917847836"><ele>552.8000000000001</ele><time>2026-03-29T11:14:14Z</time></trkpt><trkpt lat="40.40762864939346" lon="15.120835459301828"><ele>552.0</ele><time>2026-03-29T11:14:15Z</time></trkpt><trkpt lat="40.40753117911533" lon="15.120778942377743"><ele>552.0</ele><time>2026-03-29T11:14:16Z</time></trkpt><trkpt lat="40.40743714237403" lon="15.120767237697157"><ele>552.0</ele><time>2026-03-29T11:14:17Z</time></trkpt><trkpt lat="40.40733991909069" lon="15.12073329449561"><ele>552.0</ele><time>2026-03-29T11:14:18Z</time></trkpt><trkpt lat="40.407254279520714" lon="15.120715036677113"><ele>552.0</ele><time>2026-03-29T11:14:19Z</time></trkpt><trkpt lat="40.407180202779344" lon="15.120707576809899"><ele>552.0</ele><time>2026-03-29T11:14:20Z</time></trkpt><trkpt lat="40.40710960939869" lon="15.120715129573702"><ele>552.0</ele><time>2026-03-29T11:14:21Z</time></trkpt><trkpt lat="40.40701347286307" lon="15.120739555247958"><ele>551.6666666666666</ele><time>2026-03-29T11:14:22Z</time></trkpt><trkpt lat="40.40696958687714" lon="15.120806627449046"><ele>551.3333333333334</ele><time>2026-03-29T11:14:23Z</time></trkpt><trkpt lat="40.40690633563664" lon="15.120878044466707"><ele>551.0</ele><time>2026-03-29T11:14:24Z</time></trkpt><trkpt lat="40.406825223066555" lon="15.120916578167625"><ele>550.6666666666667</ele><time>2026-03-29T11:14:25Z</time></trkpt><trkpt lat="40.40675720316263" lon="15.120957729565934"><ele>550.3333333333334</ele><time>2026-03-29T11:14:26Z</time></trkpt><trkpt lat="40.40666510771125" lon="15.120948106612447"><ele>550.0</ele><time>2026-03-29T11:14:28Z</time></trkpt><trkpt lat="40.40659413614007" lon="15.120852137320577"><ele>550.0</ele><time>2026-03-29T11:14:30Z</time></trkpt><trkpt lat="40.406538315999484" lon="15.120785731314735"><ele>550.0</ele><time>2026-03-29T11:14:33Z</time></trkpt><trkpt lat="40.40646307935239" lon="15.120821453916879"><ele>550.0</ele><time>2026-03-29T11:14:34Z</time></trkpt><trkpt lat="40.40637796358234" lon="15.12084985387938"><ele>550.0</ele><time>2026-03-29T11:14:35Z</time></trkpt><trkpt lat="40.406309327410014" lon="15.12086915508139"><ele>550.0</ele><time>2026-03-29T11:14:36Z</time></trkpt><trkpt lat="40.406211883021804" lon="15.120877819585774"><ele>550.0</ele><time>2026-03-29T11:14:37Z</time></trkpt><trkpt lat="40.40610392842416" lon="15.120890318926612"><ele>549.0</ele><time>2026-03-29T11:14:38Z</time></trkpt><trkpt lat="40.405997017700855" lon="15.12089260884831"><ele>548.0</ele><time>2026-03-29T11:14:39Z</time></trkpt><trkpt lat="40.40590239233979" lon="15.120883905975175"><ele>547.0</ele><time>2026-03-29T11:14:40Z</time></trkpt><trkpt lat="40.405811685548095" lon="15.120858209571987"><ele>546.0</ele><time>2026-03-29T11:14:41Z</time></trkpt><trkpt lat="40.40570695884869" lon="15.12081429029385"><ele>545.0</ele><time>2026-03-29T11:14:42Z</time></trkpt><trkpt lat="40.40559532550722" lon="15.120752921917948"><ele>543.75</ele><time>2026-03-29T11:14:43Z</time></trkpt><trkpt lat="40.40548127749571" lon="15.120675867847119"><ele>542.5</ele><time>2026-03-29T11:14:44Z</time></trkpt><trkpt lat="40.4053608511634" lon="15.120612688882398"><ele>541.25</ele><time>2026-03-29T11:14:45Z</time></trkpt><trkpt lat="40.40523580771029" lon="15.120579077182235"><ele>540.0</ele><time>2026-03-29T11:14:46Z</time></trkpt><trkpt lat="40.40510285258702" lon="15.120552766082973"><ele>540.0</ele><time>2026-03-29T11:14:47Z</time></trkpt><trkpt lat="40.40499312167267" lon="15.120541093662911"><ele>540.0</ele><time>2026-03-29T11:14:48Z</time></trkpt><trkpt lat="40.40486577614555" lon="15.120542974180903"><ele>540.0</ele><time>2026-03-29T11:14:49Z</time></trkpt><trkpt lat="40.40473538895847" lon="15.120520129870835"><ele>540.0</ele><time>2026-03-29T11:14:50Z</time></trkpt><trkpt lat="40.404607662880146" lon="15.12048626064881"><ele>540.75</ele><time>2026-03-29T11:14:51Z</time></trkpt><trkpt lat="40.40448002799593" lon="15.120440955075177"><ele>541.5</ele><time>2026-03-29T11:14:52Z</time></trkpt><trkpt lat="40.404358405286686" lon="15.120383797982441"><ele>542.25</ele><time>2026-03-29T11:14:53Z</time></trkpt><trkpt lat="40.40425327695766" lon="15.120320454829946"><ele>543.0</ele><time>2026-03-29T11:14:54Z</time></trkpt><trkpt lat="40.40415487742225" lon="15.12026195036361"><ele>543.0</ele><time>2026-03-29T11:14:55Z</time></trkpt><trkpt lat="40.40408020485361" lon="15.120186097999753"><ele>543.0</ele><time>2026-03-29T11:14:56Z</time></trkpt><trkpt lat="40.40398183713487" lon="15.1200695130806"><ele>543.0</ele><time>2026-03-29T11:14:57Z</time></trkpt><trkpt lat="40.40390270249066" lon="15.119931507785482"><ele>543.0</ele><time>2026-03-29T11:14:58Z</time></trkpt><trkpt lat="40.40385554883113" lon="15.119775840662355"><ele>543.75</ele><time>2026-03-29T11:14:59Z</time></trkpt><trkpt lat="40.40380710662839" lon="15.119613494150597"><ele>544.5</ele><time>2026-03-29T11:15:00Z</time></trkpt><trkpt lat="40.403771134899976" lon="15.11944616935998"><ele>545.25</ele><time>2026-03-29T11:15:01Z</time></trkpt><trkpt lat="40.40371732549616" lon="15.119303388749875"><ele>546.0</ele><time>2026-03-29T11:15:02Z</time></trkpt><trkpt lat="40.403667383254685" lon="15.11917077928221"><ele>545.0</ele><time>2026-03-29T11:15:03Z</time></trkpt><trkpt lat="40.403608830509896" lon="15.119054756549923"><ele>544.0</ele><time>2026-03-29T11:15:04Z</time></trkpt><trkpt lat="40.40355029991115" lon="15.11898436889581"><ele>543.0</ele><time>2026-03-29T11:15:05Z</time></trkpt><trkpt lat="40.40346205170337" lon="15.118940192194634"><ele>542.0</ele><time>2026-03-29T11:15:06Z</time></trkpt><trkpt lat="40.40337682343293" lon="15.118944732663596"><ele>541.0</ele><time>2026-03-29T11:15:07Z</time></trkpt><trkpt lat="40.40328760021048" lon="15.118951281461392"><ele>541.0</ele><time>2026-03-29T11:15:08Z</time></trkpt><trkpt lat="40.4032146886781" lon="15.119039791558455"><ele>541.0</ele><time>2026-03-29T11:15:09Z</time></trkpt><trkpt lat="40.403173131352354" lon="15.119134215712453"><ele>541.0</ele><time>2026-03-29T11:15:10Z</time></trkpt><trkpt lat="40.40315212002194" lon="15.11926391198552"><ele>541.0</ele><time>2026-03-29T11:15:11Z</time></trkpt><trkpt lat="40.403140725087766" lon="15.11940989222677"><ele>541.0</ele><time>2026-03-29T11:15:12Z</time></trkpt><trkpt lat="40.4030976857738" lon="15.119555300640693"><ele>541.75</ele><time>2026-03-29T11:15:13Z</time></trkpt><trkpt lat="40.40305686911559" lon="15.119692029044225"><ele>542.5</ele><time>2026-03-29T11:15:14Z</time></trkpt><trkpt lat="40.40301012952357" lon="15.119827448447472"><ele>543.25</ele><time>2026-03-29T11:15:15Z</time></trkpt><trkpt lat="40.40294844863629" lon="15.11996077288805"><ele>544.0</ele><time>2026-03-29T11:15:16Z</time></trkpt><trkpt lat="40.40286729153074" lon="15.120082323153602"><ele>544.0</ele><time>2026-03-29T11:15:17Z</time></trkpt><trkpt lat="40.402770645815046" lon="15.120185773554743"><ele>544.0</ele><time>2026-03-29T11:15:18Z</time></trkpt><trkpt lat="40.40265847930013" lon="15.120261387794129"><ele>544.0</ele><time>2026-03-29T11:15:19Z</time></trkpt><trkpt lat="40.40253283501688" lon="15.120334217597897"><ele>544.0</ele><time>2026-03-29T11:15:20Z</time></trkpt><trkpt lat="40.4024216861017" lon="15.120409381630978"><ele>544.0</ele><time>2026-03-29T11:15:21Z</time></trkpt><trkpt lat="40.40232135123209" lon="15.12047592520279"><ele>544.0</ele><time>2026-03-29T11:15:22Z</time></trkpt><trkpt lat="40.40222887021783" lon="15.120507702639353"><ele>544.0</ele><time>2026-03-29T11:15:23Z</time></trkpt><trkpt lat="40.40213578520138" lon="15.12050628542853"><ele>544.0</ele><time>2026-03-29T11:15:24Z</time></trkpt><trkpt lat="40.40204513518534" lon="15.120476135746827"><ele>544.0</ele><time>2026-03-29T11:15:25Z</time></trkpt><trkpt lat="40.40197379672718" lon="15.120388544059017"><ele>545.0</ele><time>2026-03-29T11:15:26Z</time></trkpt><trkpt lat="40.401880456626415" lon="15.120300021076744"><ele>546.0</ele><time>2026-03-29T11:15:27Z</time></trkpt><trkpt lat="40.40178972657619" lon="15.120182118992211"><ele>547.0</ele><time>2026-03-29T11:15:28Z</time></trkpt><trkpt lat="40.40169100140423" lon="15.12006340211109"><ele>548.0</ele><time>2026-03-29T11:15:29Z</time></trkpt><trkpt lat="40.40158837598722" lon="15.119960544857813"><ele>547.0</ele><time>2026-03-29T11:15:30Z</time></trkpt><trkpt lat="40.40148838515358" lon="15.11983766193874"><ele>546.0</ele><time>2026-03-29T11:15:31Z</time></trkpt><trkpt lat="40.401372519624786" lon="15.119706675070141"><ele>545.0</ele><time>2026-03-29T11:15:32Z</time></trkpt><trkpt lat="40.401270744617456" lon="15.119599853274032"><ele>544.0</ele><time>2026-03-29T11:15:33Z</time></trkpt><trkpt lat="40.401170496957825" lon="15.119472914455843"><ele>546.0</ele><time>2026-03-29T11:15:34Z</time></trkpt><trkpt lat="40.40106178107207" lon="15.119345894807019"><ele>548.0</ele><time>2026-03-29T11:15:35Z</time></trkpt><trkpt lat="40.40096393769946" lon="15.1192067437101"><ele>550.0</ele><time>2026-03-29T11:15:36Z</time></trkpt><trkpt lat="40.40088646707332" lon="15.119030422598073"><ele>552.0</ele><time>2026-03-29T11:15:37Z</time></trkpt><trkpt lat="40.40080506442768" lon="15.118867617268403"><ele>552.0</ele><time>2026-03-29T11:15:38Z</time></trkpt><trkpt lat="40.400716310486416" lon="15.11872056426642"><ele>552.0</ele><time>2026-03-29T11:15:39Z</time></trkpt><trkpt lat="40.40064617219263" lon="15.11856133307464"><ele>552.0</ele><time>2026-03-29T11:15:40Z</time></trkpt><trkpt lat="40.400586472883305" lon="15.118434096877346"><ele>552.0</ele><time>2026-03-29T11:15:41Z</time></trkpt><trkpt lat="40.40054288737727" lon="15.118313892237401"><ele>552.0</ele><time>2026-03-29T11:15:42Z</time></trkpt><trkpt lat="40.400524807995524" lon="15.118168141671921"><ele>552.0</ele><time>2026-03-29T11:15:43Z</time></trkpt><trkpt lat="40.400544980748286" lon="15.118000982766391"><ele>552.0</ele><time>2026-03-29T11:15:44Z</time></trkpt><trkpt lat="40.40053609500271" lon="15.117825362413015"><ele>552.0</ele><time>2026-03-29T11:15:45Z</time></trkpt><trkpt lat="40.40053963465139" lon="15.117644392554498"><ele>552.0</ele><time>2026-03-29T11:15:46Z</time></trkpt><trkpt lat="40.40055143230887" lon="15.117453515904716"><ele>552.0</ele><time>2026-03-29T11:15:47Z</time></trkpt><trkpt lat="40.40056029050941" lon="15.117260950773863"><ele>552.0</ele><time>2026-03-29T11:15:48Z</time></trkpt><trkpt lat="40.4005623094126" lon="15.117067944924164"><ele>552.0</ele><time>2026-03-29T11:15:49Z</time></trkpt><trkpt lat="40.400559015161264" lon="15.116900925935905"><ele>552.2</ele><time>2026-03-29T11:15:50Z</time></trkpt><trkpt lat="40.400559193842504" lon="15.116752217809573"><ele>552.4000000000001</ele><time>2026-03-29T11:15:51Z</time></trkpt><trkpt lat="40.40055320255221" lon="15.116626491227134"><ele>552.5999999999999</ele><time>2026-03-29T11:15:52Z</time></trkpt><trkpt lat="40.400528679522814" lon="15.116542520829691"><ele>552.8</ele><time>2026-03-29T11:15:53Z</time></trkpt><trkpt lat="40.40042932612853" lon="15.116514310951775"><ele>553.0</ele><time>2026-03-29T11:15:55Z</time></trkpt><trkpt lat="40.40036680017847" lon="15.116630670565646"><ele>555.3333333333334</ele><time>2026-03-29T11:15:57Z</time></trkpt><trkpt lat="40.400374146992846" lon="15.116728030739882"><ele>557.6666666666667</ele><time>2026-03-29T11:15:58Z</time></trkpt><trkpt lat="40.400384106590145" lon="15.11682408411786"><ele>560.0</ele><time>2026-03-29T11:15:59Z</time></trkpt><trkpt lat="40.400362553249614" lon="15.116921747375466"><ele>562.3333333333334</ele><time>2026-03-29T11:16:00Z</time></trkpt><trkpt lat="40.400338177646894" lon="15.117023052841017"><ele>564.6666666666666</ele><time>2026-03-29T11:16:01Z</time></trkpt><trkpt lat="40.40030128614123" lon="15.117116987901857"><ele>567.0</ele><time>2026-03-29T11:16:02Z</time></trkpt><trkpt lat="40.400255429845934" lon="15.117216278915217"><ele>567.0</ele><time>2026-03-29T11:16:03Z</time></trkpt><trkpt lat="40.40018911592361" lon="15.1173368224474"><ele>567.0</ele><time>2026-03-29T11:16:04Z</time></trkpt><trkpt lat="40.40013883535568" lon="15.11742822072356"><ele>567.0</ele><time>2026-03-29T11:16:05Z</time></trkpt><trkpt lat="40.40007894628233" lon="15.117556126337135"><ele>567.0</ele><time>2026-03-29T11:16:06Z</time></trkpt><trkpt lat="40.40001736858471" lon="15.117674931157934"><ele>567.0</ele><time>2026-03-29T11:16:07Z</time></trkpt><trkpt lat="40.39994408031654" lon="15.117788900302251"><ele>566.75</ele><time>2026-03-29T11:16:08Z</time></trkpt><trkpt lat="40.39986915939074" lon="15.117906136954202"><ele>566.5</ele><time>2026-03-29T11:16:09Z</time></trkpt><trkpt lat="40.399801949786415" lon="15.118027138865653"><ele>566.25</ele><time>2026-03-29T11:16:10Z</time></trkpt><trkpt lat="40.39974758776917" lon="15.118157657850618"><ele>566.0</ele><time>2026-03-29T11:16:11Z</time></trkpt><trkpt lat="40.39971808544185" lon="15.118329381926653"><ele>566.0</ele><time>2026-03-29T11:16:12Z</time></trkpt><trkpt lat="40.39970324660991" lon="15.118527651864733"><ele>566.0</ele><time>2026-03-29T11:16:13Z</time></trkpt><trkpt lat="40.39969295626361" lon="15.11871744077477"><ele>566.0</ele><time>2026-03-29T11:16:14Z</time></trkpt><trkpt lat="40.39968262155743" lon="15.118896885686896"><ele>566.0</ele><time>2026-03-29T11:16:15Z</time></trkpt><trkpt lat="40.39965323095094" lon="15.119053630992891"><ele>568.75</ele><time>2026-03-29T11:16:16Z</time></trkpt><trkpt lat="40.39961421843434" lon="15.119180907878333"><ele>571.5</ele><time>2026-03-29T11:16:17Z</time></trkpt><trkpt lat="40.39956670367718" lon="15.11931001217512"><ele>574.25</ele><time>2026-03-29T11:16:18Z</time></trkpt><trkpt lat="40.399462563557805" lon="15.119406149236296"><ele>577.0</ele><time>2026-03-29T11:16:19Z</time></trkpt><trkpt lat="40.39936761753292" lon="15.119519459458271"><ele>577.0</ele><time>2026-03-29T11:16:20Z</time></trkpt><trkpt lat="40.399267844158004" lon="15.11963313033722"><ele>577.0</ele><time>2026-03-29T11:16:21Z</time></trkpt><trkpt lat="40.39918664477499" lon="15.119749404018245"><ele>577.0</ele><time>2026-03-29T11:16:22Z</time></trkpt><trkpt lat="40.3990957813072" lon="15.119848158071141"><ele>577.0</ele><time>2026-03-29T11:16:23Z</time></trkpt><trkpt lat="40.399026123971524" lon="15.119989641837194"><ele>576.5</ele><time>2026-03-29T11:16:24Z</time></trkpt><trkpt lat="40.39897569799535" lon="15.120145574797162"><ele>576.0</ele><time>2026-03-29T11:16:25Z</time></trkpt><trkpt lat="40.398923191427386" lon="15.120281933678285"><ele>575.5</ele><time>2026-03-29T11:16:26Z</time></trkpt><trkpt lat="40.39887376355414" lon="15.120426555972134"><ele>575.0</ele><time>2026-03-29T11:16:27Z</time></trkpt><trkpt lat="40.39881937034526" lon="15.120585706402014"><ele>572.25</ele><time>2026-03-29T11:16:28Z</time></trkpt><trkpt lat="40.39876465387166" lon="15.120760830302121"><ele>569.5</ele><time>2026-03-29T11:16:29Z</time></trkpt><trkpt lat="40.39870850981303" lon="15.120934326375382"><ele>566.75</ele><time>2026-03-29T11:16:30Z</time></trkpt><trkpt lat="40.39865836923731" lon="15.1210881025278"><ele>564.0</ele><time>2026-03-29T11:16:31Z</time></trkpt><trkpt lat="40.39862119025851" lon="15.121260124591657"><ele>564.0</ele><time>2026-03-29T11:16:32Z</time></trkpt><trkpt lat="40.3985736542135" lon="15.121414920500673"><ele>564.0</ele><time>2026-03-29T11:16:33Z</time></trkpt><trkpt lat="40.398542576350785" lon="15.121554663436243"><ele>564.0</ele><time>2026-03-29T11:16:34Z</time></trkpt><trkpt lat="40.39850803160724" lon="15.121700151559565"><ele>564.0</ele><time>2026-03-29T11:16:35Z</time></trkpt><trkpt lat="40.398434193803276" lon="15.121802406923983"><ele>565.6</ele><time>2026-03-29T11:16:36Z</time></trkpt><trkpt lat="40.398364719615124" lon="15.121907410650344"><ele>567.2</ele><time>2026-03-29T11:16:37Z</time></trkpt><trkpt lat="40.398275875561424" lon="15.121989417502297"><ele>568.8000000000001</ele><time>2026-03-29T11:16:38Z</time></trkpt><trkpt lat="40.398188227606106" lon="15.12203854024633"><ele>570.4</ele><time>2026-03-29T11:16:39Z</time></trkpt><trkpt lat="40.39809466190034" lon="15.122047298923524"><ele>572.0</ele><time>2026-03-29T11:16:40Z</time></trkpt><trkpt lat="40.397983405897" lon="15.122036715175216"><ele>567.75</ele><time>2026-03-29T11:16:41Z</time></trkpt><trkpt lat="40.3978714921933" lon="15.12208337198839"><ele>563.5</ele><time>2026-03-29T11:16:42Z</time></trkpt><trkpt lat="40.39774780901424" lon="15.122136366163188"><ele>559.25</ele><time>2026-03-29T11:16:43Z</time></trkpt><trkpt lat="40.39764325299837" lon="15.122197083449688"><ele>555.0</ele><time>2026-03-29T11:16:44Z</time></trkpt><trkpt lat="40.39754259587809" lon="15.122277589330361"><ele>560.0</ele><time>2026-03-29T11:16:45Z</time></trkpt><trkpt lat="40.39746890395527" lon="15.12239966960529"><ele>565.0</ele><time>2026-03-29T11:16:46Z</time></trkpt><trkpt lat="40.39739008013931" lon="15.122538061747962"><ele>570.0</ele><time>2026-03-29T11:16:47Z</time></trkpt><trkpt lat="40.39729246180558" lon="15.122671127691993"><ele>575.0</ele><time>2026-03-29T11:16:48Z</time></trkpt><trkpt lat="40.39722178985732" lon="15.12283198598978"><ele>572.75</ele><time>2026-03-29T11:16:49Z</time></trkpt><trkpt lat="40.397141235245314" lon="15.122976140997427"><ele>570.5</ele><time>2026-03-29T11:16:50Z</time></trkpt><trkpt lat="40.397066165860856" lon="15.123131822738696"><ele>568.25</ele><time>2026-03-29T11:16:51Z</time></trkpt><trkpt lat="40.396991177304905" lon="15.123282458529024"><ele>566.0</ele><time>2026-03-29T11:16:52Z</time></trkpt><trkpt lat="40.396922570178155" lon="15.123432483289838"><ele>566.0</ele><time>2026-03-29T11:16:53Z</time></trkpt><trkpt lat="40.39687313418228" lon="15.123595221565681"><ele>566.0</ele><time>2026-03-29T11:16:54Z</time></trkpt><trkpt lat="40.39684303585081" lon="15.123760540246376"><ele>566.0</ele><time>2026-03-29T11:16:55Z</time></trkpt><trkpt lat="40.39682188746271" lon="15.123909527446312"><ele>566.0</ele><time>2026-03-29T11:16:56Z</time></trkpt><trkpt lat="40.39682060425356" lon="15.124059161025073"><ele>567.75</ele><time>2026-03-29T11:16:57Z</time></trkpt><trkpt lat="40.39684479171755" lon="15.12422394037548"><ele>569.5</ele><time>2026-03-29T11:16:58Z</time></trkpt><trkpt lat="40.39688019693281" lon="15.124394510113287"><ele>571.25</ele><time>2026-03-29T11:16:59Z</time></trkpt><trkpt lat="40.3969104422856" lon="15.124573370594506"><ele>573.0</ele><time>2026-03-29T11:17:00Z</time></trkpt><trkpt lat="40.396952654886384" lon="15.124750634639073"><ele>571.75</ele><time>2026-03-29T11:17:01Z</time></trkpt><trkpt lat="40.396994065369235" lon="15.12491999586169"><ele>570.5</ele><time>2026-03-29T11:17:02Z</time></trkpt><trkpt lat="40.39704093856855" lon="15.125095554999966"><ele>569.25</ele><time>2026-03-29T11:17:03Z</time></trkpt><trkpt lat="40.39710495959293" lon="15.125259999006403"><ele>568.0</ele><time>2026-03-29T11:17:04Z</time></trkpt><trkpt lat="40.39716010173983" lon="15.125440415292834"><ele>574.0</ele><time>2026-03-29T11:17:05Z</time></trkpt><trkpt lat="40.39720450410626" lon="15.125630510455029"><ele>580.0</ele><time>2026-03-29T11:17:06Z</time></trkpt><trkpt lat="40.3972659254364" lon="15.125812294442635"><ele>586.0</ele><time>2026-03-29T11:17:07Z</time></trkpt><trkpt lat="40.397309676891176" lon="15.126010424633098"><ele>586.0</ele><time>2026-03-29T11:17:08Z</time></trkpt><trkpt lat="40.39733646401958" lon="15.126216160520768"><ele>586.0</ele><time>2026-03-29T11:17:09Z</time></trkpt><trkpt lat="40.39736391990157" lon="15.126401940964431"><ele>586.0</ele><time>2026-03-29T11:17:10Z</time></trkpt><trkpt lat="40.39738965788923" lon="15.126591867735867"><ele>585.0</ele><time>2026-03-29T11:17:11Z</time></trkpt><trkpt lat="40.3974155968542" lon="15.126791832640544"><ele>584.0</ele><time>2026-03-29T11:17:12Z</time></trkpt><trkpt lat="40.39743668189967" lon="15.126996378996918"><ele>583.0</ele><time>2026-03-29T11:17:13Z</time></trkpt><trkpt lat="40.397452714365144" lon="15.127182604702247"><ele>583.0</ele><time>2026-03-29T11:17:14Z</time></trkpt><trkpt lat="40.39746349583958" lon="15.127373526549844"><ele>583.0</ele><time>2026-03-29T11:17:15Z</time></trkpt><trkpt lat="40.3974792247825" lon="15.127560934978566"><ele>583.0</ele><time>2026-03-29T11:17:16Z</time></trkpt><trkpt lat="40.39753237305146" lon="15.12773981416562"><ele>583.0</ele><time>2026-03-29T11:17:17Z</time></trkpt><trkpt lat="40.39756779866804" lon="15.127931633245304"><ele>582.0</ele><time>2026-03-29T11:17:18Z</time></trkpt><trkpt lat="40.397625345702274" lon="15.128119072388992"><ele>581.0</ele><time>2026-03-29T11:17:19Z</time></trkpt><trkpt lat="40.39768569337454" lon="15.128315424774375"><ele>580.0</ele><time>2026-03-29T11:17:20Z</time></trkpt><trkpt lat="40.397744839077156" lon="15.128503555227368"><ele>577.0</ele><time>2026-03-29T11:17:21Z</time></trkpt><trkpt lat="40.39780843753682" lon="15.128700647577856"><ele>574.0</ele><time>2026-03-29T11:17:22Z</time></trkpt><trkpt lat="40.39786775656796" lon="15.128892757513997"><ele>571.0</ele><time>2026-03-29T11:17:23Z</time></trkpt><trkpt lat="40.397925705256746" lon="15.129085944656486"><ele>567.0</ele><time>2026-03-29T11:17:24Z</time></trkpt><trkpt lat="40.397997815478575" lon="15.129284778384656"><ele>563.0</ele><time>2026-03-29T11:17:25Z</time></trkpt><trkpt lat="40.39801548266258" lon="15.129493028425198"><ele>559.0</ele><time>2026-03-29T11:17:26Z</time></trkpt><trkpt lat="40.398038130851376" lon="15.129701912619149"><ele>569.6666666666667</ele><time>2026-03-29T11:17:27Z</time></trkpt><trkpt lat="40.39807115120187" lon="15.129909437369328"><ele>580.3333333333334</ele><time>2026-03-29T11:17:28Z</time></trkpt><trkpt lat="40.39813096137818" lon="15.130115616240223"><ele>591.0</ele><time>2026-03-29T11:17:29Z</time></trkpt><trkpt lat="40.398177122412186" lon="15.130316393903765"><ele>591.0</ele><time>2026-03-29T11:17:30Z</time></trkpt><trkpt lat="40.39824222487302" lon="15.130511774333494"><ele>591.0</ele><time>2026-03-29T11:17:31Z</time></trkpt><trkpt lat="40.39830933780488" lon="15.130716752098957"><ele>591.0</ele><time>2026-03-29T11:17:32Z</time></trkpt><trkpt lat="40.39837926727616" lon="15.130906709807284"><ele>587.6666666666666</ele><time>2026-03-29T11:17:33Z</time></trkpt><trkpt lat="40.39844605837448" lon="15.13109941498397"><ele>584.3333333333333</ele><time>2026-03-29T11:17:34Z</time></trkpt><trkpt lat="40.39849249587258" lon="15.131304495616947"><ele>581.0</ele><time>2026-03-29T11:17:35Z</time></trkpt><trkpt lat="40.39856343155638" lon="15.131493424609031"><ele>578.3333333333333</ele><time>2026-03-29T11:17:36Z</time></trkpt><trkpt lat="40.39860393281886" lon="15.131701737591285"><ele>575.6666666666666</ele><time>2026-03-29T11:17:37Z</time></trkpt><trkpt lat="40.398650267018574" lon="15.13190746979616"><ele>573.0</ele><time>2026-03-29T11:17:38Z</time></trkpt><trkpt lat="40.398709046040445" lon="15.132119532234135"><ele>573.0</ele><time>2026-03-29T11:17:39Z</time></trkpt><trkpt lat="40.398732732339774" lon="15.132339082293717"><ele>573.0</ele><time>2026-03-29T11:17:40Z</time></trkpt><trkpt lat="40.39878350973395" lon="15.132545865939676"><ele>573.0</ele><time>2026-03-29T11:17:41Z</time></trkpt><trkpt lat="40.3988177846821" lon="15.132757163237699"><ele>581.3333333333334</ele><time>2026-03-29T11:17:42Z</time></trkpt><trkpt lat="40.398848173706064" lon="15.13296394393073"><ele>589.6666666666667</ele><time>2026-03-29T11:17:43Z</time></trkpt><trkpt lat="40.39888588224788" lon="15.133152442895515"><ele>598.0</ele><time>2026-03-29T11:17:44Z</time></trkpt><trkpt lat="40.39892293531763" lon="15.133346498155602"><ele>598.0</ele><time>2026-03-29T11:17:45Z</time></trkpt><trkpt lat="40.39896217847216" lon="15.133540444045725"><ele>598.0</ele><time>2026-03-29T11:17:46Z</time></trkpt><trkpt lat="40.39900102705271" lon="15.133720402507295"><ele>598.0</ele><time>2026-03-29T11:17:47Z</time></trkpt><trkpt lat="40.399015516465184" lon="15.133902264856639"><ele>598.0</ele><time>2026-03-29T11:17:48Z</time></trkpt><trkpt lat="40.399027918239724" lon="15.13408389942128"><ele>596.0</ele><time>2026-03-29T11:17:49Z</time></trkpt><trkpt lat="40.39901071955612" lon="15.134274172024382"><ele>594.0</ele><time>2026-03-29T11:17:50Z</time></trkpt><trkpt lat="40.39899031728909" lon="15.134467110668824"><ele>592.0</ele><time>2026-03-29T11:17:51Z</time></trkpt><trkpt lat="40.39897366832992" lon="15.134673557909396"><ele>592.0</ele><time>2026-03-29T11:17:52Z</time></trkpt><trkpt lat="40.39895767787487" lon="15.134863756249013"><ele>592.0</ele><time>2026-03-29T11:17:53Z</time></trkpt><trkpt lat="40.39894246584229" lon="15.13503393681213"><ele>592.0</ele><time>2026-03-29T11:17:54Z</time></trkpt><trkpt lat="40.398926248656714" lon="15.1351889962845"><ele>592.0</ele><time>2026-03-29T11:17:55Z</time></trkpt><trkpt lat="40.39889245182112" lon="15.135318350119155"><ele>587.0</ele><time>2026-03-29T11:17:56Z</time></trkpt><trkpt lat="40.39882901147849" lon="15.135418802715133"><ele>582.0</ele><time>2026-03-29T11:17:57Z</time></trkpt><trkpt lat="40.39874795017926" lon="15.13550386128563"><ele>577.0</ele><time>2026-03-29T11:17:58Z</time></trkpt><trkpt lat="40.39864010333773" lon="15.135581512757897"><ele>572.0</ele><time>2026-03-29T11:17:59Z</time></trkpt><trkpt lat="40.398528416410926" lon="15.135679217900936"><ele>575.6</ele><time>2026-03-29T11:18:00Z</time></trkpt><trkpt lat="40.398416850244246" lon="15.135755166815416"><ele>579.2</ele><time>2026-03-29T11:18:01Z</time></trkpt><trkpt lat="40.398313047765086" lon="15.135824090223524"><ele>582.8</ele><time>2026-03-29T11:18:02Z</time></trkpt><trkpt lat="40.39820563282408" lon="15.135848461242663"><ele>586.4</ele><time>2026-03-29T11:18:03Z</time></trkpt><trkpt lat="40.39810992879516" lon="15.135878203416723"><ele>590.0</ele><time>2026-03-29T11:18:04Z</time></trkpt><trkpt lat="40.39802547055234" lon="15.135949715538699"><ele>586.8</ele><time>2026-03-29T11:18:05Z</time></trkpt><trkpt lat="40.39796968380134" lon="15.136061165052205"><ele>583.6</ele><time>2026-03-29T11:18:06Z</time></trkpt><trkpt lat="40.39793815617973" lon="15.136188120019096"><ele>580.4</ele><time>2026-03-29T11:18:07Z</time></trkpt><trkpt lat="40.39789993719554" lon="15.13631408053864"><ele>577.2</ele><time>2026-03-29T11:18:08Z</time></trkpt><trkpt lat="40.39786183837641" lon="15.13640802957297"><ele>574.0</ele><time>2026-03-29T11:18:09Z</time></trkpt><trkpt lat="40.397821504376616" lon="15.136476483719836"><ele>574.0</ele><time>2026-03-29T11:18:10Z</time></trkpt><trkpt lat="40.39775125363998" lon="15.136488512114223"><ele>574.0</ele><time>2026-03-29T11:18:11Z</time></trkpt><trkpt lat="40.39767023676407" lon="15.136460748902095"><ele>574.0</ele><time>2026-03-29T11:18:12Z</time></trkpt><trkpt lat="40.397577025883955" lon="15.136429118635725"><ele>574.0</ele><time>2026-03-29T11:18:13Z</time></trkpt><trkpt lat="40.397468112565434" lon="15.136413221968578"><ele>574.0</ele><time>2026-03-29T11:18:14Z</time></trkpt><trkpt lat="40.39734910400469" lon="15.13639212923064"><ele>574.0</ele><time>2026-03-29T11:18:15Z</time></trkpt><trkpt lat="40.397226183374194" lon="15.1363474969325"><ele>574.0</ele><time>2026-03-29T11:18:16Z</time></trkpt><trkpt lat="40.39709735073787" lon="15.13630775862515"><ele>574.0</ele><time>2026-03-29T11:18:17Z</time></trkpt><trkpt lat="40.39697284093213" lon="15.136263096921008"><ele>574.0</ele><time>2026-03-29T11:18:18Z</time></trkpt><trkpt lat="40.39685194716483" lon="15.13622964235315"><ele>572.4</ele><time>2026-03-29T11:18:19Z</time></trkpt><trkpt lat="40.39673906826629" lon="15.136210450123846"><ele>570.8</ele><time>2026-03-29T11:18:20Z</time></trkpt><trkpt lat="40.3966358637407" lon="15.136229194368353"><ele>569.2</ele><time>2026-03-29T11:18:21Z</time></trkpt><trkpt lat="40.396532704431756" lon="15.13626848815766"><ele>567.6</ele><time>2026-03-29T11:18:22Z</time></trkpt><trkpt lat="40.39642391743694" lon="15.136336024476487"><ele>566.0</ele><time>2026-03-29T11:18:23Z</time></trkpt><trkpt lat="40.39631295217321" lon="15.136448950549713"><ele>566.5</ele><time>2026-03-29T11:18:24Z</time></trkpt><trkpt lat="40.396234552056214" lon="15.136588009673805"><ele>567.0</ele><time>2026-03-29T11:18:25Z</time></trkpt><trkpt lat="40.39616746596948" lon="15.136736775223751"><ele>567.5</ele><time>2026-03-29T11:18:26Z</time></trkpt><trkpt lat="40.39611671468093" lon="15.136907328927993"><ele>568.0</ele><time>2026-03-29T11:18:27Z</time></trkpt><trkpt lat="40.3960788985192" lon="15.137085279910908"><ele>568.0</ele><time>2026-03-29T11:18:28Z</time></trkpt><trkpt lat="40.39606044822384" lon="15.137272588372243"><ele>568.0</ele><time>2026-03-29T11:18:29Z</time></trkpt><trkpt lat="40.39602943766341" lon="15.1374606684445"><ele>568.0</ele><time>2026-03-29T11:18:30Z</time></trkpt><trkpt lat="40.39600731381553" lon="15.137645724146196"><ele>568.0</ele><time>2026-03-29T11:18:31Z</time></trkpt><trkpt lat="40.39598221154644" lon="15.137819726568562"><ele>570.5</ele><time>2026-03-29T11:18:32Z</time></trkpt><trkpt lat="40.395955183810024" lon="15.138005505370307"><ele>573.0</ele><time>2026-03-29T11:18:33Z</time></trkpt><trkpt lat="40.39592504689079" lon="15.13819887218961"><ele>575.5</ele><time>2026-03-29T11:18:34Z</time></trkpt><trkpt lat="40.395906668710126" lon="15.138387386843604"><ele>578.0</ele><time>2026-03-29T11:18:35Z</time></trkpt><trkpt lat="40.39587696462954" lon="15.138570660104987"><ele>581.3333333333333</ele><time>2026-03-29T11:18:36Z</time></trkpt><trkpt lat="40.39582510836733" lon="15.138752752362485"><ele>584.6666666666666</ele><time>2026-03-29T11:18:37Z</time></trkpt><trkpt lat="40.39573641372466" lon="15.138938974092133"><ele>588.0</ele><time>2026-03-29T11:18:38Z</time></trkpt><trkpt lat="40.39565854124258" lon="15.139094076299164"><ele>591.0</ele><time>2026-03-29T11:18:39Z</time></trkpt><trkpt lat="40.39558130099806" lon="15.139271699975172"><ele>594.0</ele><time>2026-03-29T11:18:40Z</time></trkpt><trkpt lat="40.39552406292858" lon="15.139464144064585"><ele>597.0</ele><time>2026-03-29T11:18:41Z</time></trkpt><trkpt lat="40.39547500688589" lon="15.139658174551366"><ele>588.3333333333334</ele><time>2026-03-29T11:18:42Z</time></trkpt><trkpt lat="40.39542522875884" lon="15.13986726327387"><ele>579.6666666666667</ele><time>2026-03-29T11:18:43Z</time></trkpt><trkpt lat="40.39538700058204" lon="15.140068595297711"><ele>571.0</ele><time>2026-03-29T11:18:44Z</time></trkpt><trkpt lat="40.3953584030326" lon="15.140255480854506"><ele>571.0</ele><time>2026-03-29T11:18:45Z</time></trkpt><trkpt lat="40.39533303910391" lon="15.140449228697141"><ele>571.0</ele><time>2026-03-29T11:18:46Z</time></trkpt><trkpt lat="40.39531062873669" lon="15.14064139249808"><ele>571.0</ele><time>2026-03-29T11:18:47Z</time></trkpt><trkpt lat="40.39528985790916" lon="15.140834978026266"><ele>571.0</ele><time>2026-03-29T11:18:48Z</time></trkpt><trkpt lat="40.39527821408094" lon="15.141035129229573"><ele>573.0</ele><time>2026-03-29T11:18:49Z</time></trkpt><trkpt lat="40.39527558990659" lon="15.141236875402383"><ele>575.0</ele><time>2026-03-29T11:18:50Z</time></trkpt><trkpt lat="40.3952932269745" lon="15.141448149446326"><ele>577.0</ele><time>2026-03-29T11:18:51Z</time></trkpt><trkpt lat="40.395310505687846" lon="15.141647238842744"><ele>578.0</ele><time>2026-03-29T11:18:52Z</time></trkpt><trkpt lat="40.39532990693462" lon="15.141854606798631"><ele>579.0</ele><time>2026-03-29T11:18:53Z</time></trkpt><trkpt lat="40.39534069566061" lon="15.142073217301771"><ele>580.0</ele><time>2026-03-29T11:18:54Z</time></trkpt><trkpt lat="40.395342744559834" lon="15.142279551942949"><ele>579.0</ele><time>2026-03-29T11:18:55Z</time></trkpt><trkpt lat="40.39534675536286" lon="15.142495965815437"><ele>578.0</ele><time>2026-03-29T11:18:56Z</time></trkpt><trkpt lat="40.395345924002484" lon="15.142673544068215"><ele>577.0</ele><time>2026-03-29T11:18:57Z</time></trkpt><trkpt lat="40.3953453706547" lon="15.142859549379526"><ele>576.0</ele><time>2026-03-29T11:18:58Z</time></trkpt><trkpt lat="40.395347185108264" lon="15.143109329013694"><ele>575.3333333333334</ele><time>2026-03-29T11:18:59Z</time></trkpt><trkpt lat="40.395363233843895" lon="15.143317134918826"><ele>574.6666666666667</ele><time>2026-03-29T11:19:00Z</time></trkpt><trkpt lat="40.39537775261913" lon="15.143528873214331"><ele>574.0</ele><time>2026-03-29T11:19:01Z</time></trkpt><trkpt lat="40.39540531215938" lon="15.143745283979218"><ele>574.0</ele><time>2026-03-29T11:19:02Z</time></trkpt><trkpt lat="40.39543416122033" lon="15.143947028353878"><ele>574.0</ele><time>2026-03-29T11:19:03Z</time></trkpt><trkpt lat="40.39546998186868" lon="15.144135118569519"><ele>574.0</ele><time>2026-03-29T11:19:04Z</time></trkpt><trkpt lat="40.3955123123317" lon="15.144317915505836"><ele>574.0</ele><time>2026-03-29T11:19:05Z</time></trkpt><trkpt lat="40.39555240463376" lon="15.144480500988898"><ele>582.75</ele><time>2026-03-29T11:19:06Z</time></trkpt><trkpt lat="40.39557999185683" lon="15.14464452360049"><ele>591.5</ele><time>2026-03-29T11:19:07Z</time></trkpt><trkpt lat="40.39558360837537" lon="15.144821476334993"><ele>600.25</ele><time>2026-03-29T11:19:08Z</time></trkpt><trkpt lat="40.39555986136652" lon="15.145011951743644"><ele>609.0</ele><time>2026-03-29T11:19:09Z</time></trkpt><trkpt lat="40.39552255028668" lon="15.14519709775052"><ele>609.0</ele><time>2026-03-29T11:19:10Z</time></trkpt><trkpt lat="40.39550308209979" lon="15.14538250422108"><ele>609.0</ele><time>2026-03-29T11:19:11Z</time></trkpt><trkpt lat="40.39550787745854" lon="15.145558390877765"><ele>609.0</ele><time>2026-03-29T11:19:12Z</time></trkpt><trkpt lat="40.395545986122954" lon="15.14573606312476"><ele>609.0</ele><time>2026-03-29T11:19:13Z</time></trkpt><trkpt lat="40.39561547617249" lon="15.14590813205605"><ele>607.75</ele><time>2026-03-29T11:19:14Z</time></trkpt><trkpt lat="40.395700012324376" lon="15.146070604522047"><ele>606.5</ele><time>2026-03-29T11:19:15Z</time></trkpt><trkpt lat="40.39577619796388" lon="15.146168374610102"><ele>605.25</ele><time>2026-03-29T11:19:16Z</time></trkpt><trkpt lat="40.39583334868195" lon="15.146317469270585"><ele>604.0</ele><time>2026-03-29T11:19:17Z</time></trkpt><trkpt lat="40.39589120369875" lon="15.146442896657282"><ele>604.0</ele><time>2026-03-29T11:19:18Z</time></trkpt><trkpt lat="40.395940911411294" lon="15.146531779086331"><ele>604.0</ele><time>2026-03-29T11:19:19Z</time></trkpt><trkpt lat="40.39593730320844" lon="15.146635811871283"><ele>604.0</ele><time>2026-03-29T11:19:20Z</time></trkpt><trkpt lat="40.39587163892338" lon="15.146731709535844"><ele>604.0</ele><time>2026-03-29T11:19:21Z</time></trkpt><trkpt lat="40.39582265486413" lon="15.146855311980058"><ele>604.0</ele><time>2026-03-29T11:19:22Z</time></trkpt><trkpt lat="40.39575803160478" lon="15.146977529712549"><ele>603.0</ele><time>2026-03-29T11:19:23Z</time></trkpt><trkpt lat="40.39569752197205" lon="15.147114862878588"><ele>602.0</ele><time>2026-03-29T11:19:24Z</time></trkpt><trkpt lat="40.39561955743312" lon="15.147252515003268"><ele>601.0</ele><time>2026-03-29T11:19:25Z</time></trkpt><trkpt lat="40.3955469652147" lon="15.147393229038927"><ele>600.0</ele><time>2026-03-29T11:19:26Z</time></trkpt><trkpt lat="40.39546332893726" lon="15.147537287284912"><ele>594.0</ele><time>2026-03-29T11:19:27Z</time></trkpt><trkpt lat="40.39537537934378" lon="15.14768968166945"><ele>588.0</ele><time>2026-03-29T11:19:28Z</time></trkpt><trkpt lat="40.3953005755855" lon="15.147859405745155"><ele>582.0</ele><time>2026-03-29T11:19:29Z</time></trkpt><trkpt lat="40.39522298152397" lon="15.14802582970704"><ele>576.0</ele><time>2026-03-29T11:19:30Z</time></trkpt><trkpt lat="40.39513767809448" lon="15.1481902170649"><ele>582.0</ele><time>2026-03-29T11:19:31Z</time></trkpt><trkpt lat="40.39506569219683" lon="15.148363727632423"><ele>588.0</ele><time>2026-03-29T11:19:32Z</time></trkpt><trkpt lat="40.395009294575324" lon="15.148560927729868"><ele>594.0</ele><time>2026-03-29T11:19:33Z</time></trkpt><trkpt lat="40.39496341569448" lon="15.148764059582914"><ele>594.0</ele><time>2026-03-29T11:19:34Z</time></trkpt><trkpt lat="40.39491488161896" lon="15.148957329819751"><ele>594.0</ele><time>2026-03-29T11:19:35Z</time></trkpt><trkpt lat="40.39487785064526" lon="15.149155636335198"><ele>594.0</ele><time>2026-03-29T11:19:36Z</time></trkpt><trkpt lat="40.394855609522835" lon="15.14935315207571"><ele>597.5</ele><time>2026-03-29T11:19:37Z</time></trkpt><trkpt lat="40.394839247621135" lon="15.149531075378837"><ele>601.0</ele><time>2026-03-29T11:19:38Z</time></trkpt><trkpt lat="40.39480931334485" lon="15.149693906741074"><ele>604.5</ele><time>2026-03-29T11:19:39Z</time></trkpt><trkpt lat="40.39475479191738" lon="15.149847470723046"><ele>608.0</ele><time>2026-03-29T11:19:40Z</time></trkpt><trkpt lat="40.3946611525501" lon="15.149970333300566"><ele>601.0</ele><time>2026-03-29T11:19:41Z</time></trkpt><trkpt lat="40.39457273508612" lon="15.150118174127549"><ele>594.0</ele><time>2026-03-29T11:19:42Z</time></trkpt><trkpt lat="40.394478841383645" lon="15.15026153932548"><ele>587.0</ele><time>2026-03-29T11:19:43Z</time></trkpt><trkpt lat="40.39440975111262" lon="15.150443309046164"><ele>580.0</ele><time>2026-03-29T11:19:44Z</time></trkpt><trkpt lat="40.39436126573623" lon="15.150624223455017"><ele>585.3333333333334</ele><time>2026-03-29T11:19:45Z</time></trkpt><trkpt lat="40.394303054487814" lon="15.150824350141365"><ele>590.6666666666666</ele><time>2026-03-29T11:19:46Z</time></trkpt><trkpt lat="40.39424020498585" lon="15.151013257881461"><ele>596.0</ele><time>2026-03-29T11:19:47Z</time></trkpt><trkpt lat="40.394195523213455" lon="15.15119127529851"><ele>596.0</ele><time>2026-03-29T11:19:48Z</time></trkpt><trkpt lat="40.39416793391079" lon="15.151363455170934"><ele>596.0</ele><time>2026-03-29T11:19:49Z</time></trkpt><trkpt lat="40.39415529231715" lon="15.15153383106729"><ele>596.0</ele><time>2026-03-29T11:19:50Z</time></trkpt><trkpt lat="40.39410557039118" lon="15.151678423174928"><ele>596.0</ele><time>2026-03-29T11:19:51Z</time></trkpt><trkpt lat="40.39406511871297" lon="15.15182198509954"><ele>598.75</ele><time>2026-03-29T11:19:52Z</time></trkpt><trkpt lat="40.39398590831969" lon="15.151931873828625"><ele>601.5</ele><time>2026-03-29T11:19:53Z</time></trkpt><trkpt lat="40.39389392840327" lon="15.151992320027126"><ele>604.25</ele><time>2026-03-29T11:19:54Z</time></trkpt><trkpt lat="40.39379517709678" lon="15.1521003252632"><ele>607.0</ele><time>2026-03-29T11:19:55Z</time></trkpt><trkpt lat="40.393708979003556" lon="15.152215304758677"><ele>601.25</ele><time>2026-03-29T11:19:56Z</time></trkpt><trkpt lat="40.39365170941405" lon="15.152383307159788"><ele>595.5</ele><time>2026-03-29T11:19:57Z</time></trkpt><trkpt lat="40.39360698710654" lon="15.152564853331489"><ele>589.75</ele><time>2026-03-29T11:19:58Z</time></trkpt><trkpt lat="40.393572424774824" lon="15.152752594432085"><ele>584.0</ele><time>2026-03-29T11:19:59Z</time></trkpt><trkpt lat="40.393552729523385" lon="15.152924153724276"><ele>584.0</ele><time>2026-03-29T11:20:00Z</time></trkpt><trkpt lat="40.39355156433286" lon="15.153103897688215"><ele>584.0</ele><time>2026-03-29T11:20:01Z</time></trkpt><trkpt lat="40.39355660441364" lon="15.15327807205856"><ele>584.0</ele><time>2026-03-29T11:20:02Z</time></trkpt><trkpt lat="40.39356877877015" lon="15.153469423431645"><ele>584.0</ele><time>2026-03-29T11:20:03Z</time></trkpt><trkpt lat="40.393591068587085" lon="15.153635990666041"><ele>585.4</ele><time>2026-03-29T11:20:04Z</time></trkpt><trkpt lat="40.3936052566917" lon="15.153791471283052"><ele>586.8</ele><time>2026-03-29T11:20:05Z</time></trkpt><trkpt lat="40.3936206989512" lon="15.153928741358076"><ele>588.2</ele><time>2026-03-29T11:20:06Z</time></trkpt><trkpt lat="40.39363062646682" lon="15.154055761580592"><ele>589.6</ele><time>2026-03-29T11:20:07Z</time></trkpt><trkpt lat="40.39361150866895" lon="15.154167865892209"><ele>591.0</ele><time>2026-03-29T11:20:08Z</time></trkpt><trkpt lat="40.39355837102715" lon="15.154275153038993"><ele>592.75</ele><time>2026-03-29T11:20:09Z</time></trkpt><trkpt lat="40.39347718547986" lon="15.154386710346841"><ele>594.5</ele><time>2026-03-29T11:20:10Z</time></trkpt><trkpt lat="40.393388352585895" lon="15.154506700039715"><ele>596.25</ele><time>2026-03-29T11:20:11Z</time></trkpt><trkpt lat="40.39329408682973" lon="15.154626542007339"><ele>598.0</ele><time>2026-03-29T11:20:12Z</time></trkpt><trkpt lat="40.393211622420644" lon="15.15472871515376"><ele>598.0</ele><time>2026-03-29T11:20:13Z</time></trkpt><trkpt lat="40.39308026714161" lon="15.15478342954077"><ele>598.0</ele><time>2026-03-29T11:20:14Z</time></trkpt><trkpt lat="40.39297894910428" lon="15.154864001987221"><ele>598.0</ele><time>2026-03-29T11:20:15Z</time></trkpt><trkpt lat="40.39285513109623" lon="15.154912963990652"><ele>598.0</ele><time>2026-03-29T11:20:16Z</time></trkpt><trkpt lat="40.39270940266877" lon="15.154991534174973"><ele>597.25</ele><time>2026-03-29T11:20:17Z</time></trkpt><trkpt lat="40.39259886244328" lon="15.155084439585067"><ele>596.5</ele><time>2026-03-29T11:20:18Z</time></trkpt><trkpt lat="40.39249774225559" lon="15.155200507519769"><ele>595.75</ele><time>2026-03-29T11:20:19Z</time></trkpt><trkpt lat="40.3924069615868" lon="15.155334621232354"><ele>595.0</ele><time>2026-03-29T11:20:20Z</time></trkpt><trkpt lat="40.39232016475514" lon="15.15546351150546"><ele>595.0</ele><time>2026-03-29T11:20:21Z</time></trkpt><trkpt lat="40.392256676116745" lon="15.155597297978161"><ele>595.0</ele><time>2026-03-29T11:20:22Z</time></trkpt><trkpt lat="40.39221104893475" lon="15.155748922942427"><ele>595.0</ele><time>2026-03-29T11:20:23Z</time></trkpt><trkpt lat="40.392181965113615" lon="15.15590824029773"><ele>595.0</ele><time>2026-03-29T11:20:24Z</time></trkpt><trkpt lat="40.39217437066486" lon="15.156056708112418"><ele>597.8</ele><time>2026-03-29T11:20:25Z</time></trkpt><trkpt lat="40.39218686181708" lon="15.156196117241306"><ele>600.6</ele><time>2026-03-29T11:20:26Z</time></trkpt><trkpt lat="40.392244082948736" lon="15.156311354901462"><ele>603.4</ele><time>2026-03-29T11:20:27Z</time></trkpt><trkpt lat="40.3923252756169" lon="15.15639069697465"><ele>606.2</ele><time>2026-03-29T11:20:28Z</time></trkpt><trkpt lat="40.39242850818275" lon="15.156465762107862"><ele>609.0</ele><time>2026-03-29T11:20:29Z</time></trkpt><trkpt lat="40.39254364068154" lon="15.156530575561879"><ele>607.4</ele><time>2026-03-29T11:20:30Z</time></trkpt><trkpt lat="40.3926610753668" lon="15.156585367311587"><ele>605.8</ele><time>2026-03-29T11:20:31Z</time></trkpt><trkpt lat="40.39277232098525" lon="15.156626743218446"><ele>604.2</ele><time>2026-03-29T11:20:32Z</time></trkpt><trkpt lat="40.39286539011854" lon="15.156673860937984"><ele>602.6</ele><time>2026-03-29T11:20:33Z</time></trkpt><trkpt lat="40.3929231364665" lon="15.156745015014604"><ele>601.0</ele><time>2026-03-29T11:20:34Z</time></trkpt><trkpt lat="40.39294957718208" lon="15.156823748578747"><ele>601.0</ele><time>2026-03-29T11:20:35Z</time></trkpt><trkpt lat="40.39292564431246" lon="15.15690519654913"><ele>601.0</ele><time>2026-03-29T11:20:36Z</time></trkpt><trkpt lat="40.39289029850238" lon="15.156973604052581"><ele>601.0</ele><time>2026-03-29T11:20:37Z</time></trkpt><trkpt lat="40.39279676653313" lon="15.15703690963875"><ele>601.0</ele><time>2026-03-29T11:20:38Z</time></trkpt><trkpt lat="40.39270943248153" lon="15.157107615694116"><ele>601.0</ele><time>2026-03-29T11:20:39Z</time></trkpt><trkpt lat="40.39261865633924" lon="15.157198620283278"><ele>601.0</ele><time>2026-03-29T11:20:40Z</time></trkpt><trkpt lat="40.39253292618887" lon="15.157304637127085"><ele>601.0</ele><time>2026-03-29T11:20:41Z</time></trkpt><trkpt lat="40.3924672624362" lon="15.157440458464533"><ele>601.0</ele><time>2026-03-29T11:20:42Z</time></trkpt><trkpt lat="40.39242183653126" lon="15.157584516750337"><ele>601.0</ele><time>2026-03-29T11:20:43Z</time></trkpt><trkpt lat="40.39238874594239" lon="15.157745847610146"><ele>602.25</ele><time>2026-03-29T11:20:44Z</time></trkpt><trkpt lat="40.39235718676803" lon="15.157901808568484"><ele>603.5</ele><time>2026-03-29T11:20:45Z</time></trkpt><trkpt lat="40.39234553600642" lon="15.158047112648605"><ele>604.75</ele><time>2026-03-29T11:20:46Z</time></trkpt><trkpt lat="40.39236143170283" lon="15.158189977700086"><ele>606.0</ele><time>2026-03-29T11:20:47Z</time></trkpt><trkpt lat="40.39240624276849" lon="15.158343022262498"><ele>608.0</ele><time>2026-03-29T11:20:48Z</time></trkpt><trkpt lat="40.39246768465416" lon="15.158505113356355"><ele>610.0</ele><time>2026-03-29T11:20:49Z</time></trkpt><trkpt lat="40.39252140809421" lon="15.158664386318952"><ele>612.0</ele><time>2026-03-29T11:20:50Z</time></trkpt><trkpt lat="40.392575342708355" lon="15.158830570515049"><ele>614.0</ele><time>2026-03-29T11:20:51Z</time></trkpt><trkpt lat="40.392633566569145" lon="15.158995874098043"><ele>611.75</ele><time>2026-03-29T11:20:52Z</time></trkpt><trkpt lat="40.392678196794996" lon="15.159187143790806"><ele>609.5</ele><time>2026-03-29T11:20:53Z</time></trkpt><trkpt lat="40.392681964796424" lon="15.159366220668272"><ele>607.25</ele><time>2026-03-29T11:20:54Z</time></trkpt><trkpt lat="40.39270564573861" lon="15.159566491747595"><ele>605.0</ele><time>2026-03-29T11:20:55Z</time></trkpt><trkpt lat="40.39271846773036" lon="15.159774657931276"><ele>604.5</ele><time>2026-03-29T11:20:56Z</time></trkpt><trkpt lat="40.39272757016993" lon="15.159975459131243"><ele>604.0</ele><time>2026-03-29T11:20:57Z</time></trkpt><trkpt lat="40.392739866028045" lon="15.160161612557003"><ele>603.5</ele><time>2026-03-29T11:20:58Z</time></trkpt><trkpt lat="40.39274990178708" lon="15.160333338024397"><ele>603.0</ele><time>2026-03-29T11:20:59Z</time></trkpt><trkpt lat="40.39275824739692" lon="15.160486183751292"><ele>603.0</ele><time>2026-03-29T11:21:00Z</time></trkpt><trkpt lat="40.39274573941059" lon="15.160599417476828"><ele>603.0</ele><time>2026-03-29T11:21:01Z</time></trkpt><trkpt lat="40.392717090573655" lon="15.16068708760208"><ele>603.0</ele><time>2026-03-29T11:21:02Z</time></trkpt><trkpt lat="40.392664972777105" lon="15.16074731530916"><ele>603.0</ele><time>2026-03-29T11:21:03Z</time></trkpt><trkpt lat="40.39258874536614" lon="15.16078105449283"><ele>603.0</ele><time>2026-03-29T11:21:04Z</time></trkpt><trkpt lat="40.392485583868606" lon="15.160746705198747"><ele>603.0</ele><time>2026-03-29T11:21:05Z</time></trkpt><trkpt lat="40.392376142940535" lon="15.16075955377503"><ele>604.75</ele><time>2026-03-29T11:21:06Z</time></trkpt><trkpt lat="40.392257636140904" lon="15.1607775383127"><ele>606.5</ele><time>2026-03-29T11:21:07Z</time></trkpt><trkpt lat="40.39210426222125" lon="15.1607893165136"><ele>608.25</ele><time>2026-03-29T11:21:08Z</time></trkpt><trkpt lat="40.391983976872105" lon="15.16080808265948"><ele>610.0</ele><time>2026-03-29T11:21:09Z</time></trkpt><trkpt lat="40.39186170715023" lon="15.160874170254495"><ele>610.0</ele><time>2026-03-29T11:21:10Z</time></trkpt><trkpt lat="40.39172128941606" lon="15.160912937033375"><ele>610.0</ele><time>2026-03-29T11:21:11Z</time></trkpt><trkpt lat="40.39159026641688" lon="15.160955346863103"><ele>610.0</ele><time>2026-03-29T11:21:12Z</time></trkpt><trkpt lat="40.39146202464951" lon="15.16100168703813"><ele>610.0</ele><time>2026-03-29T11:21:13Z</time></trkpt><trkpt lat="40.39133668436915" lon="15.161045103984351"><ele>604.4</ele><time>2026-03-29T11:21:14Z</time></trkpt><trkpt lat="40.39122019459401" lon="15.161081689203694"><ele>598.8</ele><time>2026-03-29T11:21:15Z</time></trkpt><trkpt lat="40.391133282363555" lon="15.161155260984422"><ele>593.2</ele><time>2026-03-29T11:21:16Z</time></trkpt><trkpt lat="40.39108652618144" lon="15.161261237795392"><ele>587.6</ele><time>2026-03-29T11:21:17Z</time></trkpt><trkpt lat="40.391091935862754" lon="15.161382670501132"><ele>582.0</ele><time>2026-03-29T11:21:18Z</time></trkpt><trkpt lat="40.39111748799925" lon="15.161523631598657"><ele>584.5</ele><time>2026-03-29T11:21:19Z</time></trkpt><trkpt lat="40.39116655597002" lon="15.161665431184158"><ele>587.0</ele><time>2026-03-29T11:21:20Z</time></trkpt><trkpt lat="40.39120982854954" lon="15.16182725536824"><ele>589.5</ele><time>2026-03-29T11:21:21Z</time></trkpt><trkpt lat="40.391241997634594" lon="15.16198550081794"><ele>592.0</ele><time>2026-03-29T11:21:22Z</time></trkpt><trkpt lat="40.39127681720516" lon="15.162143151483285"><ele>592.0</ele><time>2026-03-29T11:21:23Z</time></trkpt><trkpt lat="40.3913091124181" lon="15.162310874665273"><ele>592.0</ele><time>2026-03-29T11:21:24Z</time></trkpt><trkpt lat="40.391340342808114" lon="15.162487006805383"><ele>592.0</ele><time>2026-03-29T11:21:25Z</time></trkpt><trkpt lat="40.3913664168889" lon="15.162651377167363"><ele>592.0</ele><time>2026-03-29T11:21:26Z</time></trkpt><trkpt lat="40.391392321433905" lon="15.16280086877163"><ele>598.0</ele><time>2026-03-29T11:21:27Z</time></trkpt><trkpt lat="40.391398524834635" lon="15.162943807575857"><ele>604.0</ele><time>2026-03-29T11:21:28Z</time></trkpt><trkpt lat="40.39141270574749" lon="15.163071596641231"><ele>610.0</ele><time>2026-03-29T11:21:29Z</time></trkpt><trkpt lat="40.39141434130044" lon="15.163173638012374"><ele>616.0</ele><time>2026-03-29T11:21:30Z</time></trkpt><trkpt lat="40.39134499305016" lon="15.163303133773436"><ele>622.0</ele><time>2026-03-29T11:21:32Z</time></trkpt><trkpt lat="40.391261927209435" lon="15.163317315687427"><ele>622.0</ele><time>2026-03-29T11:21:33Z</time></trkpt><trkpt lat="40.391163051190965" lon="15.163262904701016"><ele>622.0</ele><time>2026-03-29T11:21:34Z</time></trkpt><trkpt lat="40.39105036732792" lon="15.163256306632475"><ele>622.0</ele><time>2026-03-29T11:21:35Z</time></trkpt><trkpt lat="40.39093306575757" lon="15.16324109628014"><ele>622.0</ele><time>2026-03-29T11:21:36Z</time></trkpt><trkpt lat="40.39079895313083" lon="15.163263106205337"><ele>622.0</ele><time>2026-03-29T11:21:37Z</time></trkpt><trkpt lat="40.39067883915394" lon="15.16330771386795"><ele>622.0</ele><time>2026-03-29T11:21:38Z</time></trkpt><trkpt lat="40.390554345207875" lon="15.163344837464047"><ele>622.0</ele><time>2026-03-29T11:21:39Z</time></trkpt><trkpt lat="40.39042189181811" lon="15.163368636177559"><ele>622.0</ele><time>2026-03-29T11:21:40Z</time></trkpt><trkpt lat="40.3902883431482" lon="15.16340273055288"><ele>618.75</ele><time>2026-03-29T11:21:41Z</time></trkpt><trkpt lat="40.39016655994078" lon="15.163448096348295"><ele>615.5</ele><time>2026-03-29T11:21:42Z</time></trkpt><trkpt lat="40.39005133922273" lon="15.163503072288682"><ele>612.25</ele><time>2026-03-29T11:21:43Z</time></trkpt><trkpt lat="40.389946731984935" lon="15.163583302310292"><ele>609.0</ele><time>2026-03-29T11:21:44Z</time></trkpt><trkpt lat="40.38985976288577" lon="15.163707914110613"><ele>609.0</ele><time>2026-03-29T11:21:45Z</time></trkpt><trkpt lat="40.389776355154254" lon="15.163856868266386"><ele>609.0</ele><time>2026-03-29T11:21:46Z</time></trkpt><trkpt lat="40.389713192552286" lon="15.164018362651783"><ele>609.0</ele><time>2026-03-29T11:21:47Z</time></trkpt><trkpt lat="40.389661156595366" lon="15.16419055879596"><ele>609.0</ele><time>2026-03-29T11:21:48Z</time></trkpt><trkpt lat="40.389598998407635" lon="15.164364748714565"><ele>610.25</ele><time>2026-03-29T11:21:49Z</time></trkpt><trkpt lat="40.38952632529107" lon="15.164529333198715"><ele>611.5</ele><time>2026-03-29T11:21:50Z</time></trkpt><trkpt lat="40.38945155892053" lon="15.164698687059186"><ele>612.75</ele><time>2026-03-29T11:21:51Z</time></trkpt><trkpt lat="40.38938852087329" lon="15.164862305580375"><ele>614.0</ele><time>2026-03-29T11:21:52Z</time></trkpt><trkpt lat="40.38931521130104" lon="15.165044536957144"><ele>614.0</ele><time>2026-03-29T11:21:53Z</time></trkpt><trkpt lat="40.38924417010972" lon="15.165209988265161"><ele>614.0</ele><time>2026-03-29T11:21:54Z</time></trkpt><trkpt lat="40.389202399772586" lon="15.16538318910837"><ele>614.0</ele><time>2026-03-29T11:21:55Z</time></trkpt><trkpt lat="40.38918705692189" lon="15.165552200304122"><ele>614.0</ele><time>2026-03-29T11:21:56Z</time></trkpt><trkpt lat="40.3891989898029" lon="15.165742797414847"><ele>616.25</ele><time>2026-03-29T11:21:57Z</time></trkpt><trkpt lat="40.38921786681487" lon="15.16590953086594"><ele>618.5</ele><time>2026-03-29T11:21:58Z</time></trkpt><trkpt lat="40.38919977913917" lon="15.166072531706615"><ele>620.75</ele><time>2026-03-29T11:21:59Z</time></trkpt><trkpt lat="40.389163663474854" lon="15.166212862845553"><ele>623.0</ele><time>2026-03-29T11:22:00Z</time></trkpt><trkpt lat="40.389109208863644" lon="15.1663231582015"><ele>623.0</ele><time>2026-03-29T11:22:01Z</time></trkpt><trkpt lat="40.389033861933335" lon="15.166415002142417"><ele>623.0</ele><time>2026-03-29T11:22:02Z</time></trkpt><trkpt lat="40.38896278053482" lon="15.166502346765819"><ele>623.0</ele><time>2026-03-29T11:22:03Z</time></trkpt><trkpt lat="40.388915467621025" lon="15.166600831000018"><ele>623.0</ele><time>2026-03-29T11:22:04Z</time></trkpt><trkpt lat="40.388901851465434" lon="15.166703406091795"><ele>623.0</ele><time>2026-03-29T11:22:05Z</time></trkpt><trkpt lat="40.38890734896236" lon="15.16680611427917"><ele>623.0</ele><time>2026-03-29T11:22:06Z</time></trkpt><trkpt lat="40.38893349350916" lon="15.166901391088624"><ele>624.4</ele><time>2026-03-29T11:22:07Z</time></trkpt><trkpt lat="40.38896629368441" lon="15.166997425078389"><ele>625.8</ele><time>2026-03-29T11:22:08Z</time></trkpt><trkpt lat="40.389003392301206" lon="15.167094739834422"><ele>627.2</ele><time>2026-03-29T11:22:09Z</time></trkpt><trkpt lat="40.38904074915625" lon="15.167202484488634"><ele>628.6</ele><time>2026-03-29T11:22:10Z</time></trkpt><trkpt lat="40.38907537743135" lon="15.167321264101833"><ele>630.0</ele><time>2026-03-29T11:22:11Z</time></trkpt><trkpt lat="40.3891069020573" lon="15.167447790262065"><ele>630.0</ele><time>2026-03-29T11:22:12Z</time></trkpt><trkpt lat="40.389141955301746" lon="15.167586898131434"><ele>630.0</ele><time>2026-03-29T11:22:13Z</time></trkpt><trkpt lat="40.389158503847625" lon="15.167729920853185"><ele>630.0</ele><time>2026-03-29T11:22:14Z</time></trkpt><trkpt lat="40.38918113202316" lon="15.167910865623709"><ele>630.0</ele><time>2026-03-29T11:22:15Z</time></trkpt><trkpt lat="40.38920426335043" lon="15.168079724583084"><ele>629.0</ele><time>2026-03-29T11:22:16Z</time></trkpt><trkpt lat="40.38921534744928" lon="15.168264241808213"><ele>628.0</ele><time>2026-03-29T11:22:17Z</time></trkpt><trkpt lat="40.389221089859205" lon="15.16845185030197"><ele>627.0</ele><time>2026-03-29T11:22:18Z</time></trkpt><trkpt lat="40.38920356208161" lon="15.168656444718788"><ele>626.0</ele><time>2026-03-29T11:22:19Z</time></trkpt><trkpt lat="40.389212351994296" lon="15.168843126348161"><ele>625.5</ele><time>2026-03-29T11:22:20Z</time></trkpt><trkpt lat="40.389211218884114" lon="15.169043863397686"><ele>625.0</ele><time>2026-03-29T11:22:21Z</time></trkpt><trkpt lat="40.38921236325211" lon="15.169244827771251"><ele>624.5</ele><time>2026-03-29T11:22:22Z</time></trkpt><trkpt lat="40.3891988456974" lon="15.169422553015364"><ele>624.0</ele><time>2026-03-29T11:22:23Z</time></trkpt><trkpt lat="40.3892045367414" lon="15.169546743565537"><ele>624.0</ele><time>2026-03-29T11:22:24Z</time></trkpt><trkpt lat="40.389200567071725" lon="15.169698387367703"><ele>624.0</ele><time>2026-03-29T11:22:25Z</time></trkpt><trkpt lat="40.38919519575561" lon="15.169825644167751"><ele>624.0</ele><time>2026-03-29T11:22:26Z</time></trkpt><trkpt lat="40.38911684675637" lon="15.170151218703836"><ele>624.5</ele><time>2026-03-29T11:22:27Z</time></trkpt><trkpt lat="40.38905618326548" lon="15.17030961182057"><ele>625.0</ele><time>2026-03-29T11:22:28Z</time></trkpt><trkpt lat="40.388972095717754" lon="15.170466705945476"><ele>625.5</ele><time>2026-03-29T11:22:29Z</time></trkpt><trkpt lat="40.38887630053968" lon="15.170633184907588"><ele>626.0</ele><time>2026-03-29T11:22:30Z</time></trkpt><trkpt lat="40.38877915567493" lon="15.170800447356074"><ele>619.6666666666666</ele><time>2026-03-29T11:22:31Z</time></trkpt><trkpt lat="40.388710285322446" lon="15.1710016177863"><ele>613.3333333333334</ele><time>2026-03-29T11:22:32Z</time></trkpt><trkpt lat="40.388637466000986" lon="15.171183666459614"><ele>607.0</ele><time>2026-03-29T11:22:33Z</time></trkpt><trkpt lat="40.38856379684017" lon="15.171375122544815"><ele>612.6666666666667</ele><time>2026-03-29T11:22:34Z</time></trkpt><trkpt lat="40.38848913343402" lon="15.171554422938623"><ele>618.3333333333334</ele><time>2026-03-29T11:22:35Z</time></trkpt><trkpt lat="40.388427546367915" lon="15.171744718581527"><ele>624.0</ele><time>2026-03-29T11:22:36Z</time></trkpt><trkpt lat="40.3883520181629" lon="15.171919355390976"><ele>624.0</ele><time>2026-03-29T11:22:37Z</time></trkpt><trkpt lat="40.38827999238803" lon="15.172103176179505"><ele>624.0</ele><time>2026-03-29T11:22:38Z</time></trkpt><trkpt lat="40.388205315588785" lon="15.172302796610882"><ele>624.0</ele><time>2026-03-29T11:22:39Z</time></trkpt><trkpt lat="40.38813597071312" lon="15.172495390948304"><ele>627.3333333333334</ele><time>2026-03-29T11:22:40Z</time></trkpt><trkpt lat="40.38807257863663" lon="15.172676456498882"><ele>630.6666666666667</ele><time>2026-03-29T11:22:41Z</time></trkpt><trkpt lat="40.38801322184757" lon="15.172857685378842"><ele>634.0</ele><time>2026-03-29T11:22:42Z</time></trkpt><trkpt lat="40.38792872148438" lon="15.173023011020048"><ele>628.6666666666667</ele><time>2026-03-29T11:22:43Z</time></trkpt><trkpt lat="40.38784519220663" lon="15.173188650665272"><ele>623.3333333333334</ele><time>2026-03-29T11:22:44Z</time></trkpt><trkpt lat="40.38775114541924" lon="15.17335136761223"><ele>618.0</ele><time>2026-03-29T11:22:45Z</time></trkpt><trkpt lat="40.38764717436186" lon="15.173504698669932"><ele>618.0</ele><time>2026-03-29T11:22:46Z</time></trkpt><trkpt lat="40.3875327979831" lon="15.173655903289047"><ele>618.0</ele><time>2026-03-29T11:22:47Z</time></trkpt><trkpt lat="40.38740601789272" lon="15.173801539201376"><ele>618.0</ele><time>2026-03-29T11:22:48Z</time></trkpt><trkpt lat="40.387268972698536" lon="15.173939924279834"><ele>617.0</ele><time>2026-03-29T11:22:49Z</time></trkpt><trkpt lat="40.387143470973385" lon="15.174054011880527"><ele>616.0</ele><time>2026-03-29T11:22:50Z</time></trkpt><trkpt lat="40.387028649224554" lon="15.174156849295318"><ele>615.0</ele><time>2026-03-29T11:22:51Z</time></trkpt><trkpt lat="40.38691485409402" lon="15.174281684487346"><ele>614.0</ele><time>2026-03-29T11:22:52Z</time></trkpt><trkpt lat="40.38680180846397" lon="15.174390644661592"><ele>614.0</ele><time>2026-03-29T11:22:53Z</time></trkpt><trkpt lat="40.386694886812755" lon="15.174507918604599"><ele>614.0</ele><time>2026-03-29T11:22:54Z</time></trkpt><trkpt lat="40.38659901240377" lon="15.17465101615012"><ele>614.0</ele><time>2026-03-29T11:22:55Z</time></trkpt><trkpt lat="40.38651424328757" lon="15.174841605937424"><ele>613.0</ele><time>2026-03-29T11:22:56Z</time></trkpt><trkpt lat="40.386420147414235" lon="15.175052293683558"><ele>612.0</ele><time>2026-03-29T11:22:57Z</time></trkpt><trkpt lat="40.38629932729479" lon="15.175238401547361"><ele>611.0</ele><time>2026-03-29T11:22:58Z</time></trkpt><trkpt lat="40.386195308498074" lon="15.175369239352252"><ele>611.0</ele><time>2026-03-29T11:22:59Z</time></trkpt><trkpt lat="40.38607410791127" lon="15.175486100886967"><ele>611.0</ele><time>2026-03-29T11:23:01Z</time></trkpt><trkpt lat="40.385991913362126" lon="15.17552906697951"><ele>611.0</ele><time>2026-03-29T11:23:02Z</time></trkpt><trkpt lat="40.38590988351163" lon="15.175513853396035"><ele>611.0</ele><time>2026-03-29T11:23:03Z</time></trkpt><trkpt lat="40.38584304265799" lon="15.175455027414463"><ele>611.0</ele><time>2026-03-29T11:23:04Z</time></trkpt><trkpt lat="40.385793266997645" lon="15.175362403632606"><ele>611.0</ele><time>2026-03-29T11:23:05Z</time></trkpt><trkpt lat="40.38578232745972" lon="15.175208430557905"><ele>611.0</ele><time>2026-03-29T11:23:06Z</time></trkpt><trkpt lat="40.385714274093345" lon="15.175088932627498"><ele>611.0</ele><time>2026-03-29T11:23:07Z</time></trkpt><trkpt lat="40.385594048306274" lon="15.175001299987425"><ele>611.0</ele><time>2026-03-29T11:23:08Z</time></trkpt><trkpt lat="40.385483205223345" lon="15.174907408872354"><ele>607.75</ele><time>2026-03-29T11:23:09Z</time></trkpt><trkpt lat="40.385368141059104" lon="15.174835274112649"><ele>604.5</ele><time>2026-03-29T11:23:10Z</time></trkpt><trkpt lat="40.38524675254101" lon="15.174765638863802"><ele>601.25</ele><time>2026-03-29T11:23:11Z</time></trkpt><trkpt lat="40.38511219972216" lon="15.174684872415053"><ele>598.0</ele><time>2026-03-29T11:23:12Z</time></trkpt><trkpt lat="40.38497817461763" lon="15.174602360985032"><ele>598.0</ele><time>2026-03-29T11:23:13Z</time></trkpt><trkpt lat="40.384839365230036" lon="15.174517451633681"><ele>598.0</ele><time>2026-03-29T11:23:14Z</time></trkpt><trkpt lat="40.38470635746393" lon="15.174427042707531"><ele>598.0</ele><time>2026-03-29T11:23:15Z</time></trkpt><trkpt lat="40.38457123073771" lon="15.174366223462753"><ele>598.0</ele><time>2026-03-29T11:23:16Z</time></trkpt><trkpt lat="40.3844254571096" lon="15.174320920385599"><ele>597.75</ele><time>2026-03-29T11:23:17Z</time></trkpt><trkpt lat="40.384276184910554" lon="15.174282778731865"><ele>597.5</ele><time>2026-03-29T11:23:18Z</time></trkpt><trkpt lat="40.38413315772696" lon="15.174230774509342"><ele>597.25</ele><time>2026-03-29T11:23:19Z</time></trkpt><trkpt lat="40.3839860308167" lon="15.174207343556695"><ele>597.0</ele><time>2026-03-29T11:23:20Z</time></trkpt><trkpt lat="40.383831209030724" lon="15.17420408279435"><ele>597.0</ele><time>2026-03-29T11:23:21Z</time></trkpt><trkpt lat="40.38367947234564" lon="15.174229490088027"><ele>597.0</ele><time>2026-03-29T11:23:22Z</time></trkpt><trkpt lat="40.38353325531774" lon="15.174294354673819"><ele>597.0</ele><time>2026-03-29T11:23:23Z</time></trkpt><trkpt lat="40.3833832963238" lon="15.174394223983601"><ele>597.0</ele><time>2026-03-29T11:23:24Z</time></trkpt><trkpt lat="40.38325363028415" lon="15.174499377793184"><ele>597.0</ele><time>2026-03-29T11:23:25Z</time></trkpt><trkpt lat="40.383124278054964" lon="15.174614476218144"><ele>597.0</ele><time>2026-03-29T11:23:26Z</time></trkpt><trkpt lat="40.38299265103705" lon="15.174744205944116"><ele>601.3333333333334</ele><time>2026-03-29T11:23:27Z</time></trkpt><trkpt lat="40.38284496129784" lon="15.174827608925757"><ele>605.6666666666667</ele><time>2026-03-29T11:23:28Z</time></trkpt><trkpt lat="40.382694184119345" lon="15.174922745116662"><ele>610.0</ele><time>2026-03-29T11:23:29Z</time></trkpt><trkpt lat="40.38255172444548" lon="15.17504059864165"><ele>610.0</ele><time>2026-03-29T11:23:30Z</time></trkpt><trkpt lat="40.382413619766496" lon="15.17515785457839"><ele>610.0</ele><time>2026-03-29T11:23:31Z</time></trkpt><trkpt lat="40.382288377086226" lon="15.175293600025942"><ele>610.0</ele><time>2026-03-29T11:23:32Z</time></trkpt><trkpt lat="40.382144201777294" lon="15.175411130288808"><ele>613.3333333333334</ele><time>2026-03-29T11:23:33Z</time></trkpt><trkpt lat="40.382015116379904" lon="15.175547387096627"><ele>616.6666666666666</ele><time>2026-03-29T11:23:34Z</time></trkpt><trkpt lat="40.38187393451472" lon="15.175661941751112"><ele>620.0</ele><time>2026-03-29T11:23:35Z</time></trkpt><trkpt lat="40.3817180415271" lon="15.175767287927467"><ele>620.0</ele><time>2026-03-29T11:23:36Z</time></trkpt><trkpt lat="40.381567364169044" lon="15.175891445225623"><ele>620.0</ele><time>2026-03-29T11:23:37Z</time></trkpt><trkpt lat="40.381425169311505" lon="15.175983212273264"><ele>620.0</ele><time>2026-03-29T11:23:38Z</time></trkpt><trkpt lat="40.38129516853756" lon="15.176091870212042"><ele>622.6666666666666</ele><time>2026-03-29T11:23:39Z</time></trkpt><trkpt lat="40.381180536939084" lon="15.176244643397634"><ele>625.3333333333334</ele><time>2026-03-29T11:23:40Z</time></trkpt><trkpt lat="40.38107011064759" lon="15.176395402415261"><ele>628.0</ele><time>2026-03-29T11:23:41Z</time></trkpt><trkpt lat="40.38096409700398" lon="15.176527808547165"><ele>628.0</ele><time>2026-03-29T11:23:42Z</time></trkpt><trkpt lat="40.38086698786714" lon="15.176659119879655"><ele>628.0</ele><time>2026-03-29T11:23:43Z</time></trkpt><trkpt lat="40.38076764502764" lon="15.176761474515024"><ele>628.0</ele><time>2026-03-29T11:23:44Z</time></trkpt><trkpt lat="40.38064740889209" lon="15.17683706312936"><ele>628.0</ele><time>2026-03-29T11:23:45Z</time></trkpt><trkpt lat="40.38050676738147" lon="15.176880227307082"><ele>609.6666666666667</ele><time>2026-03-29T11:23:46Z</time></trkpt><trkpt lat="40.380364075696654" lon="15.176957780921228"><ele>591.3333333333334</ele><time>2026-03-29T11:23:47Z</time></trkpt><trkpt lat="40.38023508216367" lon="15.177072618449435"><ele>573.0</ele><time>2026-03-29T11:23:48Z</time></trkpt><trkpt lat="40.38009074376944" lon="15.177196106104185"><ele>573.0</ele><time>2026-03-29T11:23:49Z</time></trkpt><trkpt lat="40.37996770626755" lon="15.177305292561366"><ele>573.0</ele><time>2026-03-29T11:23:50Z</time></trkpt><trkpt lat="40.37985372164737" lon="15.177443301823107"><ele>573.0</ele><time>2026-03-29T11:23:51Z</time></trkpt><trkpt lat="40.37973657419472" lon="15.177571421032038"><ele>576.5</ele><time>2026-03-29T11:23:52Z</time></trkpt><trkpt lat="40.37960500759685" lon="15.177692451777775"><ele>580.0</ele><time>2026-03-29T11:23:53Z</time></trkpt><trkpt lat="40.379483157424545" lon="15.177798396609957"><ele>583.5</ele><time>2026-03-29T11:23:54Z</time></trkpt><trkpt lat="40.379367529213084" lon="15.17789159332318"><ele>587.0</ele><time>2026-03-29T11:23:55Z</time></trkpt><trkpt lat="40.37924724724093" lon="15.177939783586991"><ele>587.0</ele><time>2026-03-29T11:23:56Z</time></trkpt><trkpt lat="40.379119122849566" lon="15.17796034446615"><ele>587.0</ele><time>2026-03-29T11:23:57Z</time></trkpt><trkpt lat="40.378989063417414" lon="15.177982498779432"><ele>587.0</ele><time>2026-03-29T11:23:58Z</time></trkpt><trkpt lat="40.37886546023553" lon="15.178027243891162"><ele>587.0</ele><time>2026-03-29T11:23:59Z</time></trkpt><trkpt lat="40.37875402927342" lon="15.178077720326355"><ele>586.75</ele><time>2026-03-29T11:24:00Z</time></trkpt><trkpt lat="40.37867152712565" lon="15.178169649401436"><ele>586.5</ele><time>2026-03-29T11:24:01Z</time></trkpt><trkpt lat="40.37861481842251" lon="15.178291934230746"><ele>586.25</ele><time>2026-03-29T11:24:02Z</time></trkpt><trkpt lat="40.37857071481297" lon="15.178444015430928"><ele>586.0</ele><time>2026-03-29T11:24:03Z</time></trkpt><trkpt lat="40.37854644687308" lon="15.178607562373832"><ele>586.0</ele><time>2026-03-29T11:24:04Z</time></trkpt><trkpt lat="40.37851396923291" lon="15.178779383381123"><ele>586.0</ele><time>2026-03-29T11:24:05Z</time></trkpt><trkpt lat="40.37846632157002" lon="15.178954129326543"><ele>586.0</ele><time>2026-03-29T11:24:06Z</time></trkpt><trkpt lat="40.37840249997335" lon="15.17912629048167"><ele>586.0</ele><time>2026-03-29T11:24:07Z</time></trkpt><trkpt lat="40.37831354118104" lon="15.1792751718592"><ele>582.0</ele><time>2026-03-29T11:24:08Z</time></trkpt><trkpt lat="40.378229295468714" lon="15.179423862083398"><ele>578.0</ele><time>2026-03-29T11:24:09Z</time></trkpt><trkpt lat="40.37813203641354" lon="15.17955292942234"><ele>574.0</ele><time>2026-03-29T11:24:10Z</time></trkpt><trkpt lat="40.378019850514924" lon="15.179682774097454"><ele>570.0</ele><time>2026-03-29T11:24:11Z</time></trkpt><trkpt lat="40.37789821377727" lon="15.1798223772379"><ele>581.6666666666666</ele><time>2026-03-29T11:24:12Z</time></trkpt><trkpt lat="40.37777096484369" lon="15.179954031429364"><ele>593.3333333333333</ele><time>2026-03-29T11:24:13Z</time></trkpt><trkpt lat="40.37764671874003" lon="15.18005955839387"><ele>605.0</ele><time>2026-03-29T11:24:14Z</time></trkpt><trkpt lat="40.37751863841653" lon="15.180157105366854"><ele>605.0</ele><time>2026-03-29T11:24:15Z</time></trkpt><trkpt lat="40.37740190000327" lon="15.180277847916878"><ele>605.0</ele><time>2026-03-29T11:24:16Z</time></trkpt><trkpt lat="40.377293637970695" lon="15.180387968990185"><ele>605.0</ele><time>2026-03-29T11:24:17Z</time></trkpt><trkpt lat="40.377187502005164" lon="15.1804717798219"><ele>605.0</ele><time>2026-03-29T11:24:18Z</time></trkpt><trkpt lat="40.37710308107101" lon="15.18056618886478"><ele>602.6</ele><time>2026-03-29T11:24:19Z</time></trkpt><trkpt lat="40.37700352743544" lon="15.180606157476122"><ele>600.2</ele><time>2026-03-29T11:24:20Z</time></trkpt><trkpt lat="40.37690509859964" lon="15.18060688886385"><ele>597.8</ele><time>2026-03-29T11:24:21Z</time></trkpt><trkpt lat="40.3768197090642" lon="15.180555208736875"><ele>595.4</ele><time>2026-03-29T11:24:22Z</time></trkpt><trkpt lat="40.37675556864438" lon="15.180439701884424"><ele>593.0</ele><time>2026-03-29T11:24:23Z</time></trkpt><trkpt lat="40.37665656441123" lon="15.180373606244768"><ele>593.0</ele><time>2026-03-29T11:24:24Z</time></trkpt><trkpt lat="40.37655988835639" lon="15.18027426543168"><ele>593.0</ele><time>2026-03-29T11:24:25Z</time></trkpt><trkpt lat="40.3764646049427" lon="15.180192984118644"><ele>593.0</ele><time>2026-03-29T11:24:26Z</time></trkpt><trkpt lat="40.37632631305376" lon="15.180189540637533"><ele>593.0</ele><time>2026-03-29T11:24:27Z</time></trkpt><trkpt lat="40.37620604927046" lon="15.18022168437214"><ele>593.25</ele><time>2026-03-29T11:24:28Z</time></trkpt><trkpt lat="40.37607136381264" lon="15.180282359365284"><ele>593.5</ele><time>2026-03-29T11:24:29Z</time></trkpt><trkpt lat="40.37595001391612" lon="15.180371248753591"><ele>593.75</ele><time>2026-03-29T11:24:30Z</time></trkpt><trkpt lat="40.375828568284085" lon="15.180459386042658"><ele>594.0</ele><time>2026-03-29T11:24:31Z</time></trkpt><trkpt lat="40.37571546389676" lon="15.180561670494336"><ele>590.25</ele><time>2026-03-29T11:24:32Z</time></trkpt><trkpt lat="40.375617671852496" lon="15.180683406559368"><ele>586.5</ele><time>2026-03-29T11:24:33Z</time></trkpt><trkpt lat="40.37553217239577" lon="15.180830883663637"><ele>582.75</ele><time>2026-03-29T11:24:34Z</time></trkpt><trkpt lat="40.37546279042914" lon="15.180994064103535"><ele>579.0</ele><time>2026-03-29T11:24:35Z</time></trkpt><trkpt lat="40.37540339625724" lon="15.181168861731747"><ele>579.0</ele><time>2026-03-29T11:24:36Z</time></trkpt><trkpt lat="40.37535177405404" lon="15.181343643246679"><ele>579.0</ele><time>2026-03-29T11:24:37Z</time></trkpt><trkpt lat="40.375301733797976" lon="15.181526571734997"><ele>579.0</ele><time>2026-03-29T11:24:38Z</time></trkpt><trkpt lat="40.37524189156596" lon="15.18170685347605"><ele>579.0</ele><time>2026-03-29T11:24:39Z</time></trkpt><trkpt lat="40.37518117751951" lon="15.181887044706725"><ele>584.5</ele><time>2026-03-29T11:24:40Z</time></trkpt><trkpt lat="40.37512488048057" lon="15.182060954994293"><ele>590.0</ele><time>2026-03-29T11:24:41Z</time></trkpt><trkpt lat="40.37506731991554" lon="15.182221705693895"><ele>595.5</ele><time>2026-03-29T11:24:42Z</time></trkpt><trkpt lat="40.37497869045345" lon="15.18234341828028"><ele>601.0</ele><time>2026-03-29T11:24:43Z</time></trkpt><trkpt lat="40.37488730890205" lon="15.18244538534389"><ele>603.0</ele><time>2026-03-29T11:24:44Z</time></trkpt><trkpt lat="40.374801275470936" lon="15.182537070738187"><ele>605.0</ele><time>2026-03-29T11:24:45Z</time></trkpt><trkpt lat="40.3747275481705" lon="15.182606083559872"><ele>607.0</ele><time>2026-03-29T11:24:46Z</time></trkpt><trkpt lat="40.374629893898344" lon="15.182605556466077"><ele>609.0</ele><time>2026-03-29T11:24:47Z</time></trkpt><trkpt lat="40.37452469790557" lon="15.182544559003468"><ele>611.0</ele><time>2026-03-29T11:24:48Z</time></trkpt><trkpt lat="40.37442670783727" lon="15.182456378027512"><ele>611.0</ele><time>2026-03-29T11:24:49Z</time></trkpt><trkpt lat="40.37430431901516" lon="15.182381468616246"><ele>611.0</ele><time>2026-03-29T11:24:50Z</time></trkpt><trkpt lat="40.37417325731561" lon="15.182326271056295"><ele>611.0</ele><time>2026-03-29T11:24:51Z</time></trkpt><trkpt lat="40.3740349083757" lon="15.182277680556872"><ele>611.0</ele><time>2026-03-29T11:24:52Z</time></trkpt><trkpt lat="40.373891745245004" lon="15.18224940534355"><ele>609.75</ele><time>2026-03-29T11:24:53Z</time></trkpt><trkpt lat="40.37375420009949" lon="15.18222792646514"><ele>608.5</ele><time>2026-03-29T11:24:54Z</time></trkpt><trkpt lat="40.37361010394507" lon="15.182262827146133"><ele>607.25</ele><time>2026-03-29T11:24:55Z</time></trkpt><trkpt lat="40.373463120604924" lon="15.1823386275944"><ele>606.0</ele><time>2026-03-29T11:24:56Z</time></trkpt><trkpt lat="40.37332409014115" lon="15.182435714477846"><ele>606.0</ele><time>2026-03-29T11:24:57Z</time></trkpt><trkpt lat="40.37318628616393" lon="15.182549089941897"><ele>606.0</ele><time>2026-03-29T11:24:58Z</time></trkpt><trkpt lat="40.37305619935638" lon="15.182670266046193"><ele>606.0</ele><time>2026-03-29T11:24:59Z</time></trkpt><trkpt lat="40.37291987205451" lon="15.182791351569287"><ele>606.3333333333334</ele><time>2026-03-29T11:25:00Z</time></trkpt><trkpt lat="40.37279777516739" lon="15.182925395689251"><ele>606.6666666666667</ele><time>2026-03-29T11:25:01Z</time></trkpt><trkpt lat="40.37269456546627" lon="15.18306421499801"><ele>607.0</ele><time>2026-03-29T11:25:02Z</time></trkpt><trkpt lat="40.3725711040699" lon="15.183200510043184"><ele>607.0</ele><time>2026-03-29T11:25:03Z</time></trkpt><trkpt lat="40.37245497589355" lon="15.183342385619403"><ele>607.0</ele><time>2026-03-29T11:25:04Z</time></trkpt><trkpt lat="40.372333794736974" lon="15.18349500984097"><ele>607.0</ele><time>2026-03-29T11:25:05Z</time></trkpt><trkpt lat="40.37220853846038" lon="15.183638842917896"><ele>601.3333333333334</ele><time>2026-03-29T11:25:06Z</time></trkpt><trkpt lat="40.37211212718126" lon="15.18382223500827"><ele>595.6666666666666</ele><time>2026-03-29T11:25:07Z</time></trkpt><trkpt lat="40.37200268945135" lon="15.183964540581734"><ele>590.0</ele><time>2026-03-29T11:25:08Z</time></trkpt><trkpt lat="40.3718926810491" lon="15.184141633345252"><ele>590.0</ele><time>2026-03-29T11:25:09Z</time></trkpt><trkpt lat="40.371783512852566" lon="15.184323903240925"><ele>590.0</ele><time>2026-03-29T11:25:10Z</time></trkpt><trkpt lat="40.371689584597945" lon="15.184511932902582"><ele>590.0</ele><time>2026-03-29T11:25:11Z</time></trkpt><trkpt lat="40.37159893666548" lon="15.18470677433685"><ele>599.0</ele><time>2026-03-29T11:25:12Z</time></trkpt><trkpt lat="40.37150637238095" lon="15.184905732020956"><ele>608.0</ele><time>2026-03-29T11:25:13Z</time></trkpt><trkpt lat="40.37141552617974" lon="15.185089012688534"><ele>617.0</ele><time>2026-03-29T11:25:14Z</time></trkpt><trkpt lat="40.37131884541228" lon="15.185285509495023"><ele>605.3333333333333</ele><time>2026-03-29T11:25:15Z</time></trkpt><trkpt lat="40.371240286436276" lon="15.185473066348933"><ele>593.6666666666666</ele><time>2026-03-29T11:25:16Z</time></trkpt><trkpt lat="40.37116174449517" lon="15.185670663966114"><ele>582.0</ele><time>2026-03-29T11:25:17Z</time></trkpt><trkpt lat="40.37107855057595" lon="15.185878909728904"><ele>582.0</ele><time>2026-03-29T11:25:18Z</time></trkpt><trkpt lat="40.37099705128798" lon="15.186082913582126"><ele>582.0</ele><time>2026-03-29T11:25:19Z</time></trkpt><trkpt lat="40.37090681219733" lon="15.186308794364104"><ele>582.0</ele><time>2026-03-29T11:25:20Z</time></trkpt><trkpt lat="40.370821691165396" lon="15.186519676731384"><ele>592.0</ele><time>2026-03-29T11:25:21Z</time></trkpt><trkpt lat="40.37074443678606" lon="15.186709289439884"><ele>602.0</ele><time>2026-03-29T11:25:22Z</time></trkpt><trkpt lat="40.37065884118951" lon="15.186915930658296"><ele>612.0</ele><time>2026-03-29T11:25:23Z</time></trkpt><trkpt lat="40.37056642260985" lon="15.187129003222209"><ele>600.0</ele><time>2026-03-29T11:25:24Z</time></trkpt><trkpt lat="40.37047327651395" lon="15.18734178057197"><ele>588.0</ele><time>2026-03-29T11:25:25Z</time></trkpt><trkpt lat="40.37038036994898" lon="15.187548359812743"><ele>576.0</ele><time>2026-03-29T11:25:26Z</time></trkpt><trkpt lat="40.3702823747769" lon="15.187756827065925"><ele>576.0</ele><time>2026-03-29T11:25:27Z</time></trkpt><trkpt lat="40.37017902035998" lon="15.187978822159888"><ele>576.0</ele><time>2026-03-29T11:25:28Z</time></trkpt><trkpt lat="40.37009505087902" lon="15.188186226536772"><ele>576.0</ele><time>2026-03-29T11:25:29Z</time></trkpt><trkpt lat="40.37000683071388" lon="15.18840413012415"><ele>583.3333333333334</ele><time>2026-03-29T11:25:30Z</time></trkpt><trkpt lat="40.36991539524613" lon="15.188629042386617"><ele>590.6666666666667</ele><time>2026-03-29T11:25:31Z</time></trkpt><trkpt lat="40.36983927096412" lon="15.188847295231966"><ele>598.0</ele><time>2026-03-29T11:25:32Z</time></trkpt><trkpt lat="40.3697606875145" lon="15.189044241220877"><ele>590.3333333333334</ele><time>2026-03-29T11:25:33Z</time></trkpt><trkpt lat="40.369681344237854" lon="15.189232496660557"><ele>582.6666666666666</ele><time>2026-03-29T11:25:34Z</time></trkpt><trkpt lat="40.369573153394775" lon="15.1893855524341"><ele>575.0</ele><time>2026-03-29T11:25:35Z</time></trkpt><trkpt lat="40.36946116976479" lon="15.189547881101504"><ele>575.0</ele><time>2026-03-29T11:25:36Z</time></trkpt><trkpt lat="40.36934319839121" lon="15.18970815263489"><ele>575.0</ele><time>2026-03-29T11:25:37Z</time></trkpt><trkpt lat="40.36923838381762" lon="15.189865725912307"><ele>575.0</ele><time>2026-03-29T11:25:38Z</time></trkpt><trkpt lat="40.369092434395185" lon="15.189974666125973"><ele>575.5</ele><time>2026-03-29T11:25:39Z</time></trkpt><trkpt lat="40.36896146200527" lon="15.190085220849685"><ele>576.0</ele><time>2026-03-29T11:25:40Z</time></trkpt><trkpt lat="40.36885185568612" lon="15.190208253531083"><ele>576.5</ele><time>2026-03-29T11:25:41Z</time></trkpt><trkpt lat="40.368740524411706" lon="15.19033344468676"><ele>577.0</ele><time>2026-03-29T11:25:42Z</time></trkpt><trkpt lat="40.36864923312569" lon="15.190487407069755"><ele>577.0</ele><time>2026-03-29T11:25:43Z</time></trkpt><trkpt lat="40.36857385476527" lon="15.190672342501795"><ele>577.0</ele><time>2026-03-29T11:25:44Z</time></trkpt><trkpt lat="40.36850865692698" lon="15.190867299683541"><ele>577.0</ele><time>2026-03-29T11:25:45Z</time></trkpt><trkpt lat="40.36840679575476" lon="15.1910447025367"><ele>582.6666666666667</ele><time>2026-03-29T11:25:46Z</time></trkpt><trkpt lat="40.36829932527775" lon="15.191208082512064"><ele>588.3333333333334</ele><time>2026-03-29T11:25:47Z</time></trkpt><trkpt lat="40.368178615715735" lon="15.191388431042363"><ele>594.0</ele><time>2026-03-29T11:25:48Z</time></trkpt><trkpt lat="40.3680828365675" lon="15.19154590249042"><ele>588.6666666666666</ele><time>2026-03-29T11:25:49Z</time></trkpt><trkpt lat="40.367980279194846" lon="15.191721879506764"><ele>583.3333333333333</ele><time>2026-03-29T11:25:50Z</time></trkpt><trkpt lat="40.367880136887464" lon="15.191893800925985"><ele>578.0</ele><time>2026-03-29T11:25:51Z</time></trkpt><trkpt lat="40.367781792055474" lon="15.192064787746279"><ele>578.0</ele><time>2026-03-29T11:25:52Z</time></trkpt><trkpt lat="40.36768845073669" lon="15.192227075217273"><ele>578.0</ele><time>2026-03-29T11:25:53Z</time></trkpt><trkpt lat="40.36759302556844" lon="15.192394250977163"><ele>578.0</ele><time>2026-03-29T11:25:54Z</time></trkpt><trkpt lat="40.367503515633246" lon="15.192548011405373"><ele>574.25</ele><time>2026-03-29T11:25:55Z</time></trkpt><trkpt lat="40.36740382672758" lon="15.192699004040797"><ele>570.5</ele><time>2026-03-29T11:25:56Z</time></trkpt><trkpt lat="40.36729813635817" lon="15.192836122320927"><ele>566.75</ele><time>2026-03-29T11:25:57Z</time></trkpt><trkpt lat="40.36719821651831" lon="15.19295964142458"><ele>563.0</ele><time>2026-03-29T11:25:58Z</time></trkpt><trkpt lat="40.36708788999572" lon="15.193053437833628"><ele>563.0</ele><time>2026-03-29T11:25:59Z</time></trkpt><trkpt lat="40.36699925594536" lon="15.193152515755427"><ele>563.0</ele><time>2026-03-29T11:26:00Z</time></trkpt><trkpt lat="40.36695339553401" lon="15.19327851908833"><ele>563.0</ele><time>2026-03-29T11:26:01Z</time></trkpt><trkpt lat="40.366918649592996" lon="15.193438653124273"><ele>563.0</ele><time>2026-03-29T11:26:02Z</time></trkpt><trkpt lat="40.36691003179247" lon="15.193615798964496"><ele>567.25</ele><time>2026-03-29T11:26:03Z</time></trkpt><trkpt lat="40.36690770338459" lon="15.19380747168248"><ele>571.5</ele><time>2026-03-29T11:26:04Z</time></trkpt><trkpt lat="40.36688495951095" lon="15.193987728222693"><ele>575.75</ele><time>2026-03-29T11:26:05Z</time></trkpt><trkpt lat="40.36684439388442" lon="15.194157901493957"><ele>580.0</ele><time>2026-03-29T11:26:06Z</time></trkpt><trkpt lat="40.36681264704413" lon="15.19431629694405"><ele>584.75</ele><time>2026-03-29T11:26:07Z</time></trkpt><trkpt lat="40.3667729596338" lon="15.194468111029872"><ele>589.5</ele><time>2026-03-29T11:26:08Z</time></trkpt><trkpt lat="40.36671717478163" lon="15.194592103322401"><ele>594.25</ele><time>2026-03-29T11:26:09Z</time></trkpt><trkpt lat="40.36664879369853" lon="15.19471890063973"><ele>599.0</ele><time>2026-03-29T11:26:10Z</time></trkpt><trkpt lat="40.36658469828254" lon="15.194866369550226"><ele>595.75</ele><time>2026-03-29T11:26:11Z</time></trkpt><trkpt lat="40.36649286346618" lon="15.194994672541641"><ele>592.5</ele><time>2026-03-29T11:26:12Z</time></trkpt><trkpt lat="40.366398418040774" lon="15.19514208508424"><ele>589.25</ele><time>2026-03-29T11:26:13Z</time></trkpt><trkpt lat="40.36630373677306" lon="15.195287347762564"><ele>586.0</ele><time>2026-03-29T11:26:14Z</time></trkpt><trkpt lat="40.36620041861584" lon="15.195411565242475"><ele>586.0</ele><time>2026-03-29T11:26:15Z</time></trkpt><trkpt lat="40.36608952478218" lon="15.195513784817855"><ele>586.0</ele><time>2026-03-29T11:26:16Z</time></trkpt><trkpt lat="40.36597479054409" lon="15.195602681140256"><ele>586.0</ele><time>2026-03-29T11:26:17Z</time></trkpt><trkpt lat="40.365852623297506" lon="15.19566759602584"><ele>586.0</ele><time>2026-03-29T11:26:18Z</time></trkpt><trkpt lat="40.365721022633196" lon="15.195678159586762"><ele>588.5</ele><time>2026-03-29T11:26:19Z</time></trkpt><trkpt lat="40.365595966998924" lon="15.195673207437885"><ele>591.0</ele><time>2026-03-29T11:26:20Z</time></trkpt><trkpt lat="40.3654629742103" lon="15.195683708591233"><ele>593.5</ele><time>2026-03-29T11:26:21Z</time></trkpt><trkpt lat="40.36532187410097" lon="15.195676209781722"><ele>596.0</ele><time>2026-03-29T11:26:22Z</time></trkpt><trkpt lat="40.365176956875516" lon="15.1956753712551"><ele>595.25</ele><time>2026-03-29T11:26:23Z</time></trkpt><trkpt lat="40.36503723185295" lon="15.1956666092332"><ele>594.5</ele><time>2026-03-29T11:26:24Z</time></trkpt><trkpt lat="40.36491583380879" lon="15.1956585275743"><ele>593.75</ele><time>2026-03-29T11:26:25Z</time></trkpt><trkpt lat="40.36479946036974" lon="15.19566042793929"><ele>593.0</ele><time>2026-03-29T11:26:26Z</time></trkpt><trkpt lat="40.36469065283408" lon="15.195656113286493"><ele>593.0</ele><time>2026-03-29T11:26:27Z</time></trkpt><trkpt lat="40.36459830552472" lon="15.19565406074666"><ele>593.0</ele><time>2026-03-29T11:26:28Z</time></trkpt><trkpt lat="40.36451198644528" lon="15.195624927322546"><ele>593.0</ele><time>2026-03-29T11:26:29Z</time></trkpt><trkpt lat="40.36442823673813" lon="15.195569892677568"><ele>593.0</ele><time>2026-03-29T11:26:30Z</time></trkpt><trkpt lat="40.36436705359511" lon="15.19547112383666"><ele>593.0</ele><time>2026-03-29T11:26:31Z</time></trkpt><trkpt lat="40.36428941676814" lon="15.195390293884902"><ele>593.0</ele><time>2026-03-29T11:26:32Z</time></trkpt><trkpt lat="40.36421979719389" lon="15.195299279628959"><ele>593.0</ele><time>2026-03-29T11:26:33Z</time></trkpt><trkpt lat="40.36418537325911" lon="15.195201221574829"><ele>593.0</ele><time>2026-03-29T11:26:34Z</time></trkpt><trkpt lat="40.36414982917828" lon="15.195096376489362"><ele>593.0</ele><time>2026-03-29T11:26:36Z</time></trkpt><trkpt lat="40.364045892423455" lon="15.19516422358944"><ele>593.0</ele><time>2026-03-29T11:26:40Z</time></trkpt><trkpt lat="40.363977074815836" lon="15.195278452753719"><ele>593.0</ele><time>2026-03-29T11:26:42Z</time></trkpt><trkpt lat="40.36391172481854" lon="15.195397407022709"><ele>593.0</ele><time>2026-03-29T11:26:44Z</time></trkpt><trkpt lat="40.36387067733029" lon="15.19546103959848"><ele>593.0</ele><time>2026-03-29T11:26:45Z</time></trkpt><trkpt lat="40.363819040285975" lon="15.195525042689324"><ele>593.0</ele><time>2026-03-29T11:26:46Z</time></trkpt><trkpt lat="40.36377330700052" lon="15.195629586254888"><ele>593.0</ele><time>2026-03-29T11:26:48Z</time></trkpt><trkpt lat="40.363725177927286" lon="15.195738593546206"><ele>593.0</ele><time>2026-03-29T11:26:50Z</time></trkpt><trkpt lat="40.36368507431491" lon="15.195847173961198"><ele>592.1999999999999</ele><time>2026-03-29T11:26:52Z</time></trkpt><trkpt lat="40.363622386054175" lon="15.195974651312701"><ele>591.4</ele><time>2026-03-29T11:26:54Z</time></trkpt><trkpt lat="40.363587313800984" lon="15.19605580014032"><ele>590.5999999999999</ele><time>2026-03-29T11:26:55Z</time></trkpt><trkpt lat="40.36352604374188" lon="15.196178908492838"><ele>589.8</ele><time>2026-03-29T11:26:56Z</time></trkpt><trkpt lat="40.36349328040911" lon="15.196255326347298"><ele>589.0</ele><time>2026-03-29T11:26:57Z</time></trkpt><trkpt lat="40.36338389721183" lon="15.196515693166004"><ele>592.8</ele><time>2026-03-29T11:26:58Z</time></trkpt><trkpt lat="40.36332265985103" lon="15.196656654491097"><ele>596.5999999999999</ele><time>2026-03-29T11:26:59Z</time></trkpt><trkpt lat="40.36327651176571" lon="15.1967641680286"><ele>600.4</ele><time>2026-03-29T11:27:00Z</time></trkpt><trkpt lat="40.36322354619282" lon="15.196878377018125"><ele>604.1999999999999</ele><time>2026-03-29T11:27:01Z</time></trkpt><trkpt lat="40.363175086421776" lon="15.196984899709848"><ele>608.0</ele><time>2026-03-29T11:27:02Z</time></trkpt><trkpt lat="40.363111296462975" lon="15.197093840105186"><ele>608.0</ele><time>2026-03-29T11:27:02.999Z</time></trkpt><trkpt lat="40.363046688443085" lon="15.197220716714906"><ele>608.0</ele><time>2026-03-29T11:27:03.999Z</time></trkpt><trkpt lat="40.36297980317399" lon="15.197354354057474"><ele>608.0</ele><time>2026-03-29T11:27:04.999Z</time></trkpt><trkpt lat="40.362919665070784" lon="15.197484802130493"><ele>608.0</ele><time>2026-03-29T11:27:05.999Z</time></trkpt><trkpt lat="40.3628707944582" lon="15.1976049215143"><ele>606.8</ele><time>2026-03-29T11:27:06.999Z</time></trkpt><trkpt lat="40.36282407819538" lon="15.197709660632583"><ele>605.5999999999999</ele><time>2026-03-29T11:27:07.999Z</time></trkpt><trkpt lat="40.36276474767696" lon="15.197816303080916"><ele>604.4000000000001</ele><time>2026-03-29T11:27:08.999Z</time></trkpt><trkpt lat="40.36270551248396" lon="15.197934395645973"><ele>603.2</ele><time>2026-03-29T11:27:09.999Z</time></trkpt><trkpt lat="40.36264906640481" lon="15.198030912717066"><ele>602.0</ele><time>2026-03-29T11:27:10.999Z</time></trkpt><trkpt lat="40.36259616485145" lon="15.198132613366935"><ele>606.0</ele><time>2026-03-29T11:27:11.999Z</time></trkpt><trkpt lat="40.3625570732507" lon="15.19820749290225"><ele>610.0</ele><time>2026-03-29T11:27:12.999Z</time></trkpt><trkpt lat="40.36250537026549" lon="15.198331163003685"><ele>614.0</ele><time>2026-03-29T11:27:14.999Z</time></trkpt><trkpt lat="40.36246255817546" lon="15.19841760075767"><ele>618.0</ele><time>2026-03-29T11:27:16.999Z</time></trkpt><trkpt lat="40.362434548135404" lon="15.198504878491836"><ele>622.0</ele><time>2026-03-29T11:27:19Z</time></trkpt><trkpt lat="40.36241287994497" lon="15.198622648658246"><ele>626.0</ele><time>2026-03-29T11:27:39Z</time></trkpt><trkpt lat="40.36235347871237" lon="15.198727408432708"><ele>626.0</ele><time>2026-03-29T11:27:41Z</time></trkpt><trkpt lat="40.36228769287921" lon="15.198866794750055"><ele>626.0</ele><time>2026-03-29T11:27:43Z</time></trkpt><trkpt lat="40.36225245625195" lon="15.198938539009637"><ele>626.0</ele><time>2026-03-29T11:27:44Z</time></trkpt><trkpt lat="40.362218377881575" lon="15.199039497292231"><ele>626.0</ele><time>2026-03-29T11:27:45Z</time></trkpt><trkpt lat="40.362164883311664" lon="15.199112381880989"><ele>626.0</ele><time>2026-03-29T11:27:46Z</time></trkpt><trkpt lat="40.3621211703261" lon="15.199199156522166"><ele>626.0</ele><time>2026-03-29T11:27:47Z</time></trkpt><trkpt lat="40.36208380241266" lon="15.199297532112643"><ele>624.1666666666666</ele><time>2026-03-29T11:27:48Z</time></trkpt><trkpt lat="40.36200749378333" lon="15.199417168192497"><ele>622.3333333333333</ele><time>2026-03-29T11:27:50Z</time></trkpt><trkpt lat="40.36195847172948" lon="15.19946905877302"><ele>620.5</ele><time>2026-03-29T11:27:52Z</time></trkpt><trkpt lat="40.361905871405504" lon="15.199535953527008"><ele>618.6666666666666</ele><time>2026-03-29T11:27:55Z</time></trkpt><trkpt lat="40.36191862434187" lon="15.199648143760903"><ele>616.8333333333334</ele><time>2026-03-29T11:27:58Z</time></trkpt><trkpt lat="40.36197456478684" lon="15.199745313480017"><ele>615.0</ele><time>2026-03-29T11:28:14Z</time></trkpt><trkpt lat="40.361948112138" lon="15.199829498593406"><ele>615.4</ele><time>2026-03-29T11:28:15Z</time></trkpt><trkpt lat="40.36194550453703" lon="15.199989483565172"><ele>615.8</ele><time>2026-03-29T11:28:17Z</time></trkpt><trkpt lat="40.36194217894357" lon="15.200092983527966"><ele>616.2</ele><time>2026-03-29T11:28:18Z</time></trkpt><trkpt lat="40.361928825268585" lon="15.200196097745069"><ele>616.6</ele><time>2026-03-29T11:28:19Z</time></trkpt><trkpt lat="40.361924050437274" lon="15.200304551956423"><ele>617.0</ele><time>2026-03-29T11:28:20Z</time></trkpt><trkpt lat="40.36191967887877" lon="15.200422320356193"><ele>617.0</ele><time>2026-03-29T11:28:21Z</time></trkpt><trkpt lat="40.3619085752854" lon="15.200540074986904"><ele>617.0</ele><time>2026-03-29T11:28:22Z</time></trkpt><trkpt lat="40.3618988656035" lon="15.200672537942168"><ele>617.0</ele><time>2026-03-29T11:28:23Z</time></trkpt><trkpt lat="40.36188492346727" lon="15.200812858146906"><ele>617.0</ele><time>2026-03-29T11:28:24Z</time></trkpt><trkpt lat="40.36183874681647" lon="15.200942947883313"><ele>617.0</ele><time>2026-03-29T11:28:25Z</time></trkpt><trkpt lat="40.361795418085244" lon="15.201064193006678"><ele>618.5</ele><time>2026-03-29T11:28:26Z</time></trkpt><trkpt lat="40.361739192821105" lon="15.201193127306103"><ele>620.0</ele><time>2026-03-29T11:28:27Z</time></trkpt><trkpt lat="40.36168619586828" lon="15.20134826237361"><ele>621.5</ele><time>2026-03-29T11:28:28Z</time></trkpt><trkpt lat="40.361620201947595" lon="15.201509595389199"><ele>623.0</ele><time>2026-03-29T11:28:29Z</time></trkpt><trkpt lat="40.36156775815424" lon="15.201669410589462"><ele>624.5</ele><time>2026-03-29T11:28:30Z</time></trkpt><trkpt lat="40.36153202008292" lon="15.201832169632931"><ele>626.0</ele><time>2026-03-29T11:28:31Z</time></trkpt><trkpt lat="40.361464742702644" lon="15.20198790288016"><ele>627.5</ele><time>2026-03-29T11:28:32Z</time></trkpt><trkpt lat="40.36138572536322" lon="15.202138794097502"><ele>629.0</ele><time>2026-03-29T11:28:33Z</time></trkpt><trkpt lat="40.361292368629776" lon="15.202288094651768"><ele>627.5</ele><time>2026-03-29T11:28:34Z</time></trkpt><trkpt lat="40.36120829334907" lon="15.202424029395484"><ele>626.0</ele><time>2026-03-29T11:28:35Z</time></trkpt><trkpt lat="40.3611480584393" lon="15.202572259884683"><ele>624.5</ele><time>2026-03-29T11:28:36Z</time></trkpt><trkpt lat="40.36108735275132" lon="15.20272323156072"><ele>623.0</ele><time>2026-03-29T11:28:37Z</time></trkpt><trkpt lat="40.36105479002954" lon="15.20289452834252"><ele>623.0</ele><time>2026-03-29T11:28:38Z</time></trkpt><trkpt lat="40.361046933789964" lon="15.203078607992724"><ele>623.0</ele><time>2026-03-29T11:28:39Z</time></trkpt><trkpt lat="40.3610547497996" lon="15.20325043629423"><ele>623.0</ele><time>2026-03-29T11:28:40Z</time></trkpt><trkpt lat="40.36103393420484" lon="15.203409715142561"><ele>623.0</ele><time>2026-03-29T11:28:41Z</time></trkpt><trkpt lat="40.360989316065336" lon="15.203557691560496"><ele>625.0</ele><time>2026-03-29T11:28:42Z</time></trkpt><trkpt lat="40.36092281137344" lon="15.203677389512102"><ele>627.0</ele><time>2026-03-29T11:28:43Z</time></trkpt><trkpt lat="40.360846555029866" lon="15.203775072570783"><ele>629.0</ele><time>2026-03-29T11:28:44Z</time></trkpt><trkpt lat="40.36075339218539" lon="15.20386695015139"><ele>631.0</ele><time>2026-03-29T11:28:45Z</time></trkpt><trkpt lat="40.36063936353024" lon="15.203924186677945"><ele>633.0</ele><time>2026-03-29T11:28:46Z</time></trkpt><trkpt lat="40.360511772326575" lon="15.203968857926712"><ele>635.0</ele><time>2026-03-29T11:28:47Z</time></trkpt><trkpt lat="40.36037576761288" lon="15.204002125163314"><ele>637.0</ele><time>2026-03-29T11:28:48Z</time></trkpt><trkpt lat="40.36024699500845" lon="15.204012434981664"><ele>639.0</ele><time>2026-03-29T11:28:49Z</time></trkpt><trkpt lat="40.36010359315516" lon="15.204035429214834"><ele>639.0</ele><time>2026-03-29T11:28:50Z</time></trkpt><trkpt lat="40.359967983299796" lon="15.20404024452796"><ele>639.0</ele><time>2026-03-29T11:28:51Z</time></trkpt><trkpt lat="40.359838272568865" lon="15.204071305375086"><ele>639.0</ele><time>2026-03-29T11:28:52Z</time></trkpt><trkpt lat="40.35973300902573" lon="15.20412122239554"><ele>639.0</ele><time>2026-03-29T11:28:53Z</time></trkpt><trkpt lat="40.359633715918946" lon="15.204187284997"><ele>635.25</ele><time>2026-03-29T11:28:54Z</time></trkpt><trkpt lat="40.359542177367054" lon="15.204284631073222"><ele>631.5</ele><time>2026-03-29T11:28:55Z</time></trkpt><trkpt lat="40.35946635681846" lon="15.204420796377944"><ele>627.75</ele><time>2026-03-29T11:28:56Z</time></trkpt><trkpt lat="40.35940775499606" lon="15.20459064743286"><ele>624.0</ele><time>2026-03-29T11:28:57Z</time></trkpt><trkpt lat="40.35936389828751" lon="15.204775322229084"><ele>627.5</ele><time>2026-03-29T11:28:58Z</time></trkpt><trkpt lat="40.35928276444805" lon="15.204945474042546"><ele>631.0</ele><time>2026-03-29T11:28:59Z</time></trkpt><trkpt lat="40.359204344758254" lon="15.205107777802544"><ele>634.5</ele><time>2026-03-29T11:29:00Z</time></trkpt><trkpt lat="40.35910662375044" lon="15.205251887406677"><ele>638.0</ele><time>2026-03-29T11:29:01Z</time></trkpt><trkpt lat="40.35899012217254" lon="15.20536471143968"><ele>639.6666666666666</ele><time>2026-03-29T11:29:02Z</time></trkpt><trkpt lat="40.358844515197255" lon="15.205478993377954"><ele>641.3333333333334</ele><time>2026-03-29T11:29:03Z</time></trkpt><trkpt lat="40.35871242612102" lon="15.205633356144464"><ele>643.0</ele><time>2026-03-29T11:29:04Z</time></trkpt><trkpt lat="40.358567674812754" lon="15.205779086781025"><ele>643.0</ele><time>2026-03-29T11:29:05Z</time></trkpt><trkpt lat="40.35840600514995" lon="15.2059250753122"><ele>643.0</ele><time>2026-03-29T11:29:06Z</time></trkpt><trkpt lat="40.35824464724947" lon="15.206038660993823"><ele>643.0</ele><time>2026-03-29T11:29:07Z</time></trkpt><trkpt lat="40.358078095547164" lon="15.206176958439414"><ele>645.6666666666667</ele><time>2026-03-29T11:29:08Z</time></trkpt><trkpt lat="40.35792938836403" lon="15.206340975320176"><ele>648.3333333333334</ele><time>2026-03-29T11:29:09Z</time></trkpt><trkpt lat="40.357812910202604" lon="15.206486331251408"><ele>651.0</ele><time>2026-03-29T11:29:10Z</time></trkpt><trkpt lat="40.35768830288499" lon="15.20657657481521"><ele>651.0</ele><time>2026-03-29T11:29:11Z</time></trkpt><trkpt lat="40.35754044690311" lon="15.206637758111375"><ele>651.0</ele><time>2026-03-29T11:29:12Z</time></trkpt><trkpt lat="40.357386615800706" lon="15.206690059256683"><ele>651.0</ele><time>2026-03-29T11:29:13Z</time></trkpt><trkpt lat="40.35723047537707" lon="15.206753632627146"><ele>648.3333333333334</ele><time>2026-03-29T11:29:14Z</time></trkpt><trkpt lat="40.35707318090321" lon="15.206845072797927"><ele>645.6666666666667</ele><time>2026-03-29T11:29:15Z</time></trkpt><trkpt lat="40.35692346162795" lon="15.206907562380207"><ele>643.0</ele><time>2026-03-29T11:29:16Z</time></trkpt><trkpt lat="40.35677922294792" lon="15.20701058224162"><ele>643.0</ele><time>2026-03-29T11:29:17Z</time></trkpt><trkpt lat="40.35663429869777" lon="15.207126594289845"><ele>643.0</ele><time>2026-03-29T11:29:18Z</time></trkpt><trkpt lat="40.35649505855714" lon="15.20724522746772"><ele>643.0</ele><time>2026-03-29T11:29:19Z</time></trkpt><trkpt lat="40.35637220595954" lon="15.20733715974467"><ele>647.75</ele><time>2026-03-29T11:29:20Z</time></trkpt><trkpt lat="40.35624957985293" lon="15.207422821984878"><ele>652.5</ele><time>2026-03-29T11:29:21Z</time></trkpt><trkpt lat="40.35613211564557" lon="15.207464432576543"><ele>657.25</ele><time>2026-03-29T11:29:22Z</time></trkpt><trkpt lat="40.356003658485186" lon="15.207466623801059"><ele>662.0</ele><time>2026-03-29T11:29:23Z</time></trkpt><trkpt lat="40.35586756480519" lon="15.20746412295687"><ele>662.0</ele><time>2026-03-29T11:29:24Z</time></trkpt><trkpt lat="40.35572902020204" lon="15.207440483415718"><ele>662.0</ele><time>2026-03-29T11:29:25Z</time></trkpt><trkpt lat="40.355589250267016" lon="15.20743922863846"><ele>662.0</ele><time>2026-03-29T11:29:26Z</time></trkpt><trkpt lat="40.355464938707314" lon="15.20746723190849"><ele>662.0</ele><time>2026-03-29T11:29:27Z</time></trkpt><trkpt lat="40.35536164076515" lon="15.207522491889488"><ele>656.2</ele><time>2026-03-29T11:29:28Z</time></trkpt><trkpt lat="40.35528076646919" lon="15.207601799952855"><ele>650.4000000000001</ele><time>2026-03-29T11:29:29Z</time></trkpt><trkpt lat="40.35521379551976" lon="15.207700133339403"><ele>644.5999999999999</ele><time>2026-03-29T11:29:30Z</time></trkpt><trkpt lat="40.35517238010989" lon="15.20781124965634"><ele>638.8</ele><time>2026-03-29T11:29:31Z</time></trkpt><trkpt lat="40.35516591880366" lon="15.207943631374194"><ele>633.0</ele><time>2026-03-29T11:29:32Z</time></trkpt><trkpt lat="40.35518546330625" lon="15.208087615843864"><ele>637.25</ele><time>2026-03-29T11:29:33Z</time></trkpt><trkpt lat="40.35521524509587" lon="15.208247918502153"><ele>641.5</ele><time>2026-03-29T11:29:34Z</time></trkpt><trkpt lat="40.35521399109465" lon="15.208423961949194"><ele>645.75</ele><time>2026-03-29T11:29:35Z</time></trkpt><trkpt lat="40.35522513043939" lon="15.208616170772014"><ele>650.0</ele><time>2026-03-29T11:29:36Z</time></trkpt><trkpt lat="40.35521755074578" lon="15.2087977970369"><ele>650.0</ele><time>2026-03-29T11:29:37Z</time></trkpt><trkpt lat="40.35520285466382" lon="15.208987651806055"><ele>650.0</ele><time>2026-03-29T11:29:38Z</time></trkpt><trkpt lat="40.355181802239436" lon="15.20918180074304"><ele>650.0</ele><time>2026-03-29T11:29:39Z</time></trkpt><trkpt lat="40.35518101538193" lon="15.209363969282428"><ele>650.0</ele><time>2026-03-29T11:29:40Z</time></trkpt><trkpt lat="40.35520171808283" lon="15.209533282953117"><ele>650.0</ele><time>2026-03-29T11:29:41Z</time></trkpt><trkpt lat="40.355225857207245" lon="15.2096985685968"><ele>650.0</ele><time>2026-03-29T11:29:42Z</time></trkpt><trkpt lat="40.355242544509004" lon="15.209855092739954"><ele>650.0</ele><time>2026-03-29T11:29:43Z</time></trkpt><trkpt lat="40.35523010461238" lon="15.210002859742126"><ele>650.0</ele><time>2026-03-29T11:29:44Z</time></trkpt><trkpt lat="40.355215656518745" lon="15.210140531499492"><ele>650.0</ele><time>2026-03-29T11:29:45Z</time></trkpt><trkpt lat="40.35518950238908" lon="15.210286682405354"><ele>650.0</ele><time>2026-03-29T11:29:46Z</time></trkpt><trkpt lat="40.355141042851095" lon="15.210437585394079"><ele>650.0</ele><time>2026-03-29T11:29:47Z</time></trkpt><trkpt lat="40.35507660089623" lon="15.210601960613774"><ele>650.0</ele><time>2026-03-29T11:29:48Z</time></trkpt><trkpt lat="40.35501874098785" lon="15.21078455701176"><ele>653.3333333333333</ele><time>2026-03-29T11:29:49Z</time></trkpt><trkpt lat="40.35493711137381" lon="15.21096383723872"><ele>656.6666666666666</ele><time>2026-03-29T11:29:50Z</time></trkpt><trkpt lat="40.354852230467436" lon="15.211149708515864"><ele>660.0</ele><time>2026-03-29T11:29:51Z</time></trkpt><trkpt lat="40.35478117587218" lon="15.211322669805824"><ele>664.0</ele><time>2026-03-29T11:29:52Z</time></trkpt><trkpt lat="40.35471405366815" lon="15.211495821099106"><ele>668.0</ele><time>2026-03-29T11:29:53Z</time></trkpt><trkpt lat="40.35464421659797" lon="15.211679616176882"><ele>672.0</ele><time>2026-03-29T11:29:54Z</time></trkpt><trkpt lat="40.35458243361146" lon="15.211852923355359"><ele>664.25</ele><time>2026-03-29T11:29:55Z</time></trkpt><trkpt lat="40.35453213111524" lon="15.21202529764416"><ele>656.5</ele><time>2026-03-29T11:29:56Z</time></trkpt><trkpt lat="40.35449778911574" lon="15.212212346242703"><ele>648.75</ele><time>2026-03-29T11:29:57Z</time></trkpt><trkpt lat="40.35447390463167" lon="15.212418186224436"><ele>641.0</ele><time>2026-03-29T11:29:58Z</time></trkpt><trkpt lat="40.354450187983154" lon="15.212627458649061"><ele>641.0</ele><time>2026-03-29T11:29:59Z</time></trkpt><trkpt lat="40.35442281671005" lon="15.212825771755266"><ele>641.0</ele><time>2026-03-29T11:30:00Z</time></trkpt><trkpt lat="40.3543560042789" lon="15.213030331308463"><ele>641.0</ele><time>2026-03-29T11:30:01Z</time></trkpt><trkpt lat="40.35431680709615" lon="15.213225045632699"><ele>644.0</ele><time>2026-03-29T11:30:02Z</time></trkpt><trkpt lat="40.35425946338104" lon="15.213401265439682"><ele>647.0</ele><time>2026-03-29T11:30:03Z</time></trkpt><trkpt lat="40.35419882605567" lon="15.213542974915507"><ele>650.0</ele><time>2026-03-29T11:30:04Z</time></trkpt><trkpt lat="40.35416823730754" lon="15.21374255810786"><ele>653.0</ele><time>2026-03-29T11:30:05Z</time></trkpt><trkpt lat="40.354132149183535" lon="15.21395699735179"><ele>655.0</ele><time>2026-03-29T11:30:06Z</time></trkpt><trkpt lat="40.35412039277331" lon="15.214151022464684"><ele>657.0</ele><time>2026-03-29T11:30:07Z</time></trkpt><trkpt lat="40.35412681307496" lon="15.214351704279713"><ele>659.0</ele><time>2026-03-29T11:30:08Z</time></trkpt><trkpt lat="40.35411781030193" lon="15.214530046201292"><ele>661.0</ele><time>2026-03-29T11:30:09Z</time></trkpt><trkpt lat="40.35411900094087" lon="15.2146827594805"><ele>660.75</ele><time>2026-03-29T11:30:10Z</time></trkpt><trkpt lat="40.35412260514869" lon="15.21487989468596"><ele>660.5</ele><time>2026-03-29T11:30:11Z</time></trkpt><trkpt lat="40.354122899041045" lon="15.215071817308493"><ele>660.25</ele><time>2026-03-29T11:30:12Z</time></trkpt><trkpt lat="40.35412914580486" lon="15.215267494221358"><ele>660.0</ele><time>2026-03-29T11:30:13Z</time></trkpt><trkpt lat="40.35414418619458" lon="15.215451371489404"><ele>660.0</ele><time>2026-03-29T11:30:14Z</time></trkpt><trkpt lat="40.35416125328667" lon="15.215643982217726"><ele>660.0</ele><time>2026-03-29T11:30:15Z</time></trkpt><trkpt lat="40.35417467980892" lon="15.215838208639353"><ele>660.0</ele><time>2026-03-29T11:30:16Z</time></trkpt><trkpt lat="40.35418981426259" lon="15.21601760674091"><ele>660.0</ele><time>2026-03-29T11:30:17Z</time></trkpt><trkpt lat="40.354193960043546" lon="15.216193117554228"><ele>660.0</ele><time>2026-03-29T11:30:18Z</time></trkpt><trkpt lat="40.354185569303795" lon="15.216367044707917"><ele>660.0</ele><time>2026-03-29T11:30:19Z</time></trkpt><trkpt lat="40.3541537251773" lon="15.216547081390763"><ele>660.0</ele><time>2026-03-29T11:30:20Z</time></trkpt><trkpt lat="40.35410574651671" lon="15.21672462510614"><ele>660.0</ele><time>2026-03-29T11:30:21Z</time></trkpt><trkpt lat="40.354038511841665" lon="15.216881664459542"><ele>660.0</ele><time>2026-03-29T11:30:22Z</time></trkpt><trkpt lat="40.353981947922456" lon="15.21704035896487"><ele>660.0</ele><time>2026-03-29T11:30:23Z</time></trkpt><trkpt lat="40.35392282446464" lon="15.217197569041128"><ele>660.0</ele><time>2026-03-29T11:30:24Z</time></trkpt><trkpt lat="40.35386735347939" lon="15.217325855449122"><ele>660.0</ele><time>2026-03-29T11:30:25Z</time></trkpt><trkpt lat="40.353828051405294" lon="15.21744233750119"><ele>657.6</ele><time>2026-03-29T11:30:26Z</time></trkpt><trkpt lat="40.353740395311824" lon="15.217544548690952"><ele>655.2</ele><time>2026-03-29T11:30:27Z</time></trkpt><trkpt lat="40.35368175195664" lon="15.21761700670945"><ele>652.8</ele><time>2026-03-29T11:30:28Z</time></trkpt><trkpt lat="40.35360365607125" lon="15.217676999228773"><ele>650.4</ele><time>2026-03-29T11:30:29Z</time></trkpt><trkpt lat="40.35354431680243" lon="15.217758891096452"><ele>648.0</ele><time>2026-03-29T11:30:30Z</time></trkpt><trkpt lat="40.35349924733341" lon="15.21785388558436"><ele>648.0</ele><time>2026-03-29T11:30:31Z</time></trkpt><trkpt lat="40.353477961087016" lon="15.217981487979714"><ele>648.0</ele><time>2026-03-29T11:30:32Z</time></trkpt><trkpt lat="40.353472736270696" lon="15.218126230563332"><ele>648.0</ele><time>2026-03-29T11:30:33Z</time></trkpt><trkpt lat="40.353479307861555" lon="15.218269698571328"><ele>648.0</ele><time>2026-03-29T11:30:34Z</time></trkpt><trkpt lat="40.353481700936705" lon="15.21842396788862"><ele>648.0</ele><time>2026-03-29T11:30:35Z</time></trkpt><trkpt lat="40.353459583567485" lon="15.218574529727995"><ele>648.8</ele><time>2026-03-29T11:30:36Z</time></trkpt><trkpt lat="40.35344306804036" lon="15.218723239814276"><ele>649.5999999999999</ele><time>2026-03-29T11:30:37Z</time></trkpt><trkpt lat="40.35342970054292" lon="15.218864150311736"><ele>650.4000000000001</ele><time>2026-03-29T11:30:38Z</time></trkpt><trkpt lat="40.353378234661335" lon="15.218984277996809"><ele>651.2</ele><time>2026-03-29T11:30:39Z</time></trkpt><trkpt lat="40.353331955059275" lon="15.219127679855927"><ele>652.0</ele><time>2026-03-29T11:30:40Z</time></trkpt><trkpt lat="40.35326191843691" lon="15.219259249561173"><ele>653.75</ele><time>2026-03-29T11:30:41Z</time></trkpt><trkpt lat="40.35319314209844" lon="15.219405794674891"><ele>655.5</ele><time>2026-03-29T11:30:42Z</time></trkpt><trkpt lat="40.353129502322766" lon="15.219562894514961"><ele>657.25</ele><time>2026-03-29T11:30:43Z</time></trkpt><trkpt lat="40.35303661784121" lon="15.219717148909739"><ele>659.0</ele><time>2026-03-29T11:30:44Z</time></trkpt><trkpt lat="40.352939951411905" lon="15.21984735191725"><ele>659.0</ele><time>2026-03-29T11:30:45Z</time></trkpt><trkpt lat="40.35282860189175" lon="15.21996210258665"><ele>659.0</ele><time>2026-03-29T11:30:46Z</time></trkpt><trkpt lat="40.35271272651703" lon="15.220059868419776"><ele>659.0</ele><time>2026-03-29T11:30:47Z</time></trkpt><trkpt lat="40.35258219219736" lon="15.22015151485893"><ele>659.0</ele><time>2026-03-29T11:30:48Z</time></trkpt><trkpt lat="40.35244585980902" lon="15.220244453589242"><ele>659.0</ele><time>2026-03-29T11:30:49Z</time></trkpt><trkpt lat="40.352327380786626" lon="15.220382931474486"><ele>659.0</ele><time>2026-03-29T11:30:50Z</time></trkpt><trkpt lat="40.352211371142296" lon="15.220517827706809"><ele>659.0</ele><time>2026-03-29T11:30:51Z</time></trkpt><trkpt lat="40.352102285031215" lon="15.2206536523566"><ele>657.0</ele><time>2026-03-29T11:30:52Z</time></trkpt><trkpt lat="40.35199749351661" lon="15.22079179472098"><ele>655.0</ele><time>2026-03-29T11:30:53Z</time></trkpt><trkpt lat="40.35188778744818" lon="15.220935344288995"><ele>653.0</ele><time>2026-03-29T11:30:54Z</time></trkpt><trkpt lat="40.35178621541636" lon="15.221074594145783"><ele>653.0</ele><time>2026-03-29T11:30:55Z</time></trkpt><trkpt lat="40.351685701330986" lon="15.22122226095619"><ele>653.0</ele><time>2026-03-29T11:30:56Z</time></trkpt><trkpt lat="40.35157023526419" lon="15.221377737577635"><ele>653.0</ele><time>2026-03-29T11:30:57Z</time></trkpt><trkpt lat="40.35151472288287" lon="15.221530326076389"><ele>653.0</ele><time>2026-03-29T11:30:58Z</time></trkpt><trkpt lat="40.35145466759754" lon="15.221690461895209"><ele>652.75</ele><time>2026-03-29T11:30:59Z</time></trkpt><trkpt lat="40.35140197017799" lon="15.221864962412207"><ele>652.5</ele><time>2026-03-29T11:31:00Z</time></trkpt><trkpt lat="40.351353880150185" lon="15.222046151298054"><ele>652.25</ele><time>2026-03-29T11:31:01Z</time></trkpt><trkpt lat="40.351324202296965" lon="15.22222370360509"><ele>652.0</ele><time>2026-03-29T11:31:02Z</time></trkpt><trkpt lat="40.35128766320767" lon="15.22240492901059"><ele>652.0</ele><time>2026-03-29T11:31:03Z</time></trkpt><trkpt lat="40.35122505318779" lon="15.222570026708718"><ele>652.0</ele><time>2026-03-29T11:31:04Z</time></trkpt><trkpt lat="40.35114556517669" lon="15.222718391716624"><ele>652.0</ele><time>2026-03-29T11:31:05Z</time></trkpt><trkpt lat="40.35105596710088" lon="15.222871918760843"><ele>652.0</ele><time>2026-03-29T11:31:06Z</time></trkpt><trkpt lat="40.350977051907286" lon="15.223040602594317"><ele>655.0</ele><time>2026-03-29T11:31:07Z</time></trkpt><trkpt lat="40.350894243441225" lon="15.223209888766302"><ele>658.0</ele><time>2026-03-29T11:31:08Z</time></trkpt><trkpt lat="40.35082461043131" lon="15.22339477464586"><ele>661.0</ele><time>2026-03-29T11:31:09Z</time></trkpt><trkpt lat="40.35077439098778" lon="15.223566810977692"><ele>661.0</ele><time>2026-03-29T11:31:10Z</time></trkpt><trkpt lat="40.350713949767645" lon="15.223731755012626"><ele>661.0</ele><time>2026-03-29T11:31:11Z</time></trkpt><trkpt lat="40.35067385447288" lon="15.223865416692716"><ele>661.0</ele><time>2026-03-29T11:31:12Z</time></trkpt><trkpt lat="40.35062530368485" lon="15.224021563953922"><ele>661.0</ele><time>2026-03-29T11:31:13Z</time></trkpt><trkpt lat="40.35060086816379" lon="15.224161037004654"><ele>663.0</ele><time>2026-03-29T11:31:14Z</time></trkpt><trkpt lat="40.350617799578195" lon="15.224290035917996"><ele>665.0</ele><time>2026-03-29T11:31:15Z</time></trkpt><trkpt lat="40.35067418009674" lon="15.224415059563807"><ele>667.0</ele><time>2026-03-29T11:31:16Z</time></trkpt><trkpt lat="40.350730882863644" lon="15.224553497194014"><ele>669.0</ele><time>2026-03-29T11:31:17Z</time></trkpt><trkpt lat="40.35076471269483" lon="15.224689654323623"><ele>671.0</ele><time>2026-03-29T11:31:18Z</time></trkpt><trkpt lat="40.35077225108946" lon="15.224818432079989"><ele>671.25</ele><time>2026-03-29T11:31:19Z</time></trkpt><trkpt lat="40.350722707603886" lon="15.224926614132059"><ele>671.5</ele><time>2026-03-29T11:31:20Z</time></trkpt><trkpt lat="40.35065854574058" lon="15.225074999815304"><ele>671.75</ele><time>2026-03-29T11:31:21Z</time></trkpt><trkpt lat="40.35060102722612" lon="15.225231094596786"><ele>672.0</ele><time>2026-03-29T11:31:22Z</time></trkpt><trkpt lat="40.35055874234643" lon="15.225403580217202"><ele>665.3333333333334</ele><time>2026-03-29T11:31:23Z</time></trkpt><trkpt lat="40.350496142793105" lon="15.22559091370045"><ele>658.6666666666667</ele><time>2026-03-29T11:31:24Z</time></trkpt><trkpt lat="40.35044406022476" lon="15.22576657051274"><ele>652.0</ele><time>2026-03-29T11:31:25Z</time></trkpt><trkpt lat="40.35039238641394" lon="15.225955012339567"><ele>652.0</ele><time>2026-03-29T11:31:26Z</time></trkpt><trkpt lat="40.35033598437159" lon="15.226160516143311"><ele>652.0</ele><time>2026-03-29T11:31:26.999Z</time></trkpt><trkpt lat="40.35028380436464" lon="15.22635061254616"><ele>652.0</ele><time>2026-03-29T11:31:27.999Z</time></trkpt><trkpt lat="40.350231593930225" lon="15.226540819805413"><ele>653.0</ele><time>2026-03-29T11:31:28.999Z</time></trkpt><trkpt lat="40.35018061396121" lon="15.226726544482345"><ele>654.0</ele><time>2026-03-29T11:31:29.999Z</time></trkpt><trkpt lat="40.350146214349" lon="15.226906061762886"><ele>655.0</ele><time>2026-03-29T11:31:31Z</time></trkpt><trkpt lat="40.350079095298085" lon="15.227060524428346"><ele>656.0</ele><time>2026-03-29T11:31:32Z</time></trkpt><trkpt lat="40.34999473858626" lon="15.227181973681567"><ele>656.0</ele><time>2026-03-29T11:31:33Z</time></trkpt><trkpt lat="40.349881710492895" lon="15.227282251597465"><ele>656.0</ele><time>2026-03-29T11:31:34Z</time></trkpt><trkpt lat="40.34976306574558" lon="15.227378999923161"><ele>656.0</ele><time>2026-03-29T11:31:35Z</time></trkpt><trkpt lat="40.34965071130784" lon="15.227476197651718"><ele>656.0</ele><time>2026-03-29T11:31:36Z</time></trkpt><trkpt lat="40.349535655375774" lon="15.227606524652398"><ele>655.5</ele><time>2026-03-29T11:31:37Z</time></trkpt><trkpt lat="40.349459395290225" lon="15.22776486299706"><ele>655.0</ele><time>2026-03-29T11:31:38Z</time></trkpt><trkpt lat="40.34937412795863" lon="15.227918260385009"><ele>654.5</ele><time>2026-03-29T11:31:39Z</time></trkpt><trkpt lat="40.34929246650795" lon="15.228064159888108"><ele>654.0</ele><time>2026-03-29T11:31:40Z</time></trkpt><trkpt lat="40.34922509609675" lon="15.228202904742846"><ele>654.0</ele><time>2026-03-29T11:31:41Z</time></trkpt><trkpt lat="40.3491763624497" lon="15.22835665914445"><ele>654.0</ele><time>2026-03-29T11:31:42Z</time></trkpt><trkpt lat="40.34917708709913" lon="15.22850730547914"><ele>654.0</ele><time>2026-03-29T11:31:43Z</time></trkpt><trkpt lat="40.34918475672228" lon="15.228675895422398"><ele>654.0</ele><time>2026-03-29T11:31:44Z</time></trkpt><trkpt lat="40.34919956323939" lon="15.228837641700087"><ele>654.5</ele><time>2026-03-29T11:31:45Z</time></trkpt><trkpt lat="40.349230470664715" lon="15.22899558924858"><ele>655.0</ele><time>2026-03-29T11:31:46Z</time></trkpt><trkpt lat="40.34927825583595" lon="15.229144419185257"><ele>655.5</ele><time>2026-03-29T11:31:47Z</time></trkpt><trkpt lat="40.34934205096468" lon="15.229296756322313"><ele>656.0</ele><time>2026-03-29T11:31:48Z</time></trkpt><trkpt lat="40.349422051566165" lon="15.229448559639495"><ele>656.0</ele><time>2026-03-29T11:31:49Z</time></trkpt><trkpt lat="40.349464554935516" lon="15.229598104521845"><ele>656.0</ele><time>2026-03-29T11:31:50Z</time></trkpt><trkpt lat="40.34950011076769" lon="15.229769754756818"><ele>656.0</ele><time>2026-03-29T11:31:51Z</time></trkpt><trkpt lat="40.34949597045537" lon="15.229928740004514"><ele>656.0</ele><time>2026-03-29T11:31:52Z</time></trkpt><trkpt lat="40.34946349768631" lon="15.230094205880507"><ele>657.0</ele><time>2026-03-29T11:31:53Z</time></trkpt><trkpt lat="40.34942619499968" lon="15.230278566389293"><ele>658.0</ele><time>2026-03-29T11:31:54Z</time></trkpt><trkpt lat="40.34936978674844" lon="15.23049634492185"><ele>659.0</ele><time>2026-03-29T11:31:55Z</time></trkpt><trkpt lat="40.34932514960926" lon="15.230643424596721"><ele>660.0</ele><time>2026-03-29T11:31:56Z</time></trkpt><trkpt lat="40.349269053267015" lon="15.230797122657942"><ele>660.0</ele><time>2026-03-29T11:31:57Z</time></trkpt><trkpt lat="40.34918564214552" lon="15.230949428107861"><ele>660.0</ele><time>2026-03-29T11:31:58Z</time></trkpt><trkpt lat="40.34909268566625" lon="15.231091355482167"><ele>660.0</ele><time>2026-03-29T11:31:59Z</time></trkpt><trkpt lat="40.348971255146054" lon="15.23121560221167"><ele>660.0</ele><time>2026-03-29T11:32:00Z</time></trkpt><trkpt lat="40.348848214154096" lon="15.23132090846512"><ele>656.0</ele><time>2026-03-29T11:32:01Z</time></trkpt><trkpt lat="40.34874604176367" lon="15.231441874302108"><ele>652.0</ele><time>2026-03-29T11:32:02Z</time></trkpt><trkpt lat="40.34866732277059" lon="15.23160775596347"><ele>648.0</ele><time>2026-03-29T11:32:03Z</time></trkpt><trkpt lat="40.3486073145249" lon="15.231795084654905"><ele>644.0</ele><time>2026-03-29T11:32:04Z</time></trkpt><trkpt lat="40.34856156572985" lon="15.231996238834013"><ele>644.0</ele><time>2026-03-29T11:32:05Z</time></trkpt><trkpt lat="40.348521629859015" lon="15.23219601682358"><ele>644.0</ele><time>2026-03-29T11:32:06Z</time></trkpt><trkpt lat="40.34847532988583" lon="15.232376028131748"><ele>644.0</ele><time>2026-03-29T11:32:07Z</time></trkpt><trkpt lat="40.348435216296366" lon="15.232537804599032"><ele>644.0</ele><time>2026-03-29T11:32:08Z</time></trkpt><trkpt lat="40.34840081000832" lon="15.23267656358067"><ele>646.2</ele><time>2026-03-29T11:32:09Z</time></trkpt><trkpt lat="40.34837220300006" lon="15.232780710351747"><ele>648.4000000000001</ele><time>2026-03-29T11:32:10Z</time></trkpt><trkpt lat="40.34834194454575" lon="15.232889597792333"><ele>650.6</ele><time>2026-03-29T11:32:12Z</time></trkpt><trkpt lat="40.34849050320301" lon="15.232843396330052"><ele>652.8</ele><time>2026-03-29T11:32:17Z</time></trkpt><trkpt lat="40.34854134189521" lon="15.23278028057364"><ele>655.0</ele><time>2026-03-29T11:32:18Z</time></trkpt><trkpt lat="40.348564711918506" lon="15.232689056958465"><ele>655.0</ele><time>2026-03-29T11:32:19Z</time></trkpt><trkpt lat="40.34860136153427" lon="15.232613672870224"><ele>655.0</ele><time>2026-03-29T11:32:20Z</time></trkpt><trkpt lat="40.34864523943322" lon="15.232524376371867"><ele>655.0</ele><time>2026-03-29T11:32:21Z</time></trkpt><trkpt lat="40.34869845725019" lon="15.232457221536865"><ele>655.0</ele><time>2026-03-29T11:32:22Z</time></trkpt><trkpt lat="40.348735341476335" lon="15.232356808143955"><ele>655.0</ele><time>2026-03-29T11:32:23Z</time></trkpt><trkpt lat="40.34877784883825" lon="15.232250897332511"><ele>655.0</ele><time>2026-03-29T11:32:24Z</time></trkpt><trkpt lat="40.3488280391134" lon="15.23213697370783"><ele>658.8333333333334</ele><time>2026-03-29T11:32:25Z</time></trkpt><trkpt lat="40.34888506331609" lon="15.232046744798573"><ele>662.6666666666667</ele><time>2026-03-29T11:32:26Z</time></trkpt><trkpt lat="40.34891253266042" lon="15.23193888991861"><ele>666.5</ele><time>2026-03-29T11:32:27Z</time></trkpt><trkpt lat="40.34895653417885" lon="15.23184428225752"><ele>670.3333333333334</ele><time>2026-03-29T11:32:28Z</time></trkpt><trkpt lat="40.3490088359864" lon="15.231762088143142"><ele>674.1666666666666</ele><time>2026-03-29T11:32:29Z</time></trkpt><trkpt lat="40.349063511092154" lon="15.231661995907844"><ele>678.0</ele><time>2026-03-29T11:32:31Z</time></trkpt><trkpt lat="40.34912942058575" lon="15.231730848951381"><ele>678.0</ele><time>2026-03-29T11:32:33Z</time></trkpt><trkpt lat="40.34910050314923" lon="15.231939661347027"><ele>678.0</ele><time>2026-03-29T11:32:35Z</time></trkpt><trkpt lat="40.349094353810095" lon="15.23206139612962"><ele>678.0</ele><time>2026-03-29T11:32:36Z</time></trkpt><trkpt lat="40.34908259867984" lon="15.232150112501524"><ele>678.0</ele><time>2026-03-29T11:32:37Z</time></trkpt><trkpt lat="40.349075279469965" lon="15.23224420417106"><ele>678.0</ele><time>2026-03-29T11:32:38Z</time></trkpt><trkpt lat="40.34905696323816" lon="15.232346301369155"><ele>680.6666666666666</ele><time>2026-03-29T11:32:39Z</time></trkpt><trkpt lat="40.34901931492704" lon="15.23243372757655"><ele>683.3333333333334</ele><time>2026-03-29T11:32:40Z</time></trkpt><trkpt lat="40.34900936114874" lon="15.232532694150335"><ele>686.0</ele><time>2026-03-29T11:32:41Z</time></trkpt><trkpt lat="40.34896822274785" lon="15.23262754848282"><ele>688.6666666666667</ele><time>2026-03-29T11:32:42Z</time></trkpt><trkpt lat="40.34895843013369" lon="15.232735803838375"><ele>691.3333333333334</ele><time>2026-03-29T11:32:43Z</time></trkpt><trkpt lat="40.3489329210097" lon="15.232832459991174"><ele>694.0</ele><time>2026-03-29T11:32:44Z</time></trkpt><trkpt lat="40.348914227908885" lon="15.232933686888417"><ele>694.0</ele><time>2026-03-29T11:32:45Z</time></trkpt><trkpt lat="40.34890823838714" lon="15.233040194358164"><ele>694.0</ele><time>2026-03-29T11:32:46Z</time></trkpt><trkpt lat="40.348892056677826" lon="15.233145862727458"><ele>694.0</ele><time>2026-03-29T11:32:47Z</time></trkpt><trkpt lat="40.34886378027645" lon="15.233272056384838"><ele>694.0</ele><time>2026-03-29T11:32:48Z</time></trkpt><trkpt lat="40.34882577569667" lon="15.233385150926445"><ele>694.0</ele><time>2026-03-29T11:32:49Z</time></trkpt><trkpt lat="40.34878746675758" lon="15.233489921055467"><ele>694.0</ele><time>2026-03-29T11:32:50Z</time></trkpt><trkpt lat="40.34872673894599" lon="15.233595783828777"><ele>692.0</ele><time>2026-03-29T11:32:51Z</time></trkpt><trkpt lat="40.348667865278294" lon="15.233716553835944"><ele>690.0</ele><time>2026-03-29T11:32:52Z</time></trkpt><trkpt lat="40.34860910787886" lon="15.233857338461698"><ele>688.0</ele><time>2026-03-29T11:32:53Z</time></trkpt><trkpt lat="40.348545741638866" lon="15.234018868660087"><ele>686.0</ele><time>2026-03-29T11:32:55Z</time></trkpt><trkpt lat="40.348504958215415" lon="15.234143318335887"><ele>686.0</ele><time>2026-03-29T11:32:56Z</time></trkpt><trkpt lat="40.34848728250016" lon="15.23426927029625"><ele>686.0</ele><time>2026-03-29T11:32:57Z</time></trkpt><trkpt lat="40.348480035496" lon="15.234391063864374"><ele>686.0</ele><time>2026-03-29T11:32:58Z</time></trkpt><trkpt lat="40.34847184149378" lon="15.234512848117282"><ele>686.0</ele><time>2026-03-29T11:32:59Z</time></trkpt><trkpt lat="40.34845938865063" lon="15.234638572533344"><ele>686.0</ele><time>2026-03-29T11:33:00Z</time></trkpt><trkpt lat="40.348431029411955" lon="15.234767486459651"><ele>691.75</ele><time>2026-03-29T11:33:01Z</time></trkpt><trkpt lat="40.34834713681171" lon="15.23485503924174"><ele>697.5</ele><time>2026-03-29T11:33:02Z</time></trkpt><trkpt lat="40.34829011309399" lon="15.235003949820287"><ele>703.25</ele><time>2026-03-29T11:33:03Z</time></trkpt><trkpt lat="40.34822139332423" lon="15.235159414102542"><ele>709.0</ele><time>2026-03-29T11:33:04Z</time></trkpt><trkpt lat="40.34817464716431" lon="15.235285510694188"><ele>709.0</ele><time>2026-03-29T11:33:05Z</time></trkpt><trkpt lat="40.348163432360046" lon="15.23541939262017"><ele>709.0</ele><time>2026-03-29T11:33:06Z</time></trkpt><trkpt lat="40.34817789249035" lon="15.23555584470744"><ele>709.0</ele><time>2026-03-29T11:33:07Z</time></trkpt><trkpt lat="40.34819654502481" lon="15.235716592759758"><ele>709.0</ele><time>2026-03-29T11:33:08Z</time></trkpt><trkpt lat="40.34821098681058" lon="15.23585874355427"><ele>709.0</ele><time>2026-03-29T11:33:09Z</time></trkpt><trkpt lat="40.34823722124075" lon="15.235996881827361"><ele>712.8000000000001</ele><time>2026-03-29T11:33:10Z</time></trkpt><trkpt lat="40.34823318411637" lon="15.236150265090313"><ele>716.6</ele><time>2026-03-29T11:33:11Z</time></trkpt><trkpt lat="40.34823704518781" lon="15.236305618206675"><ele>720.4</ele><time>2026-03-29T11:33:12Z</time></trkpt><trkpt lat="40.348238111997354" lon="15.23644055170875"><ele>724.2</ele><time>2026-03-29T11:33:13Z</time></trkpt><trkpt lat="40.34823197516228" lon="15.236573065127658"><ele>728.0</ele><time>2026-03-29T11:33:14Z</time></trkpt><trkpt lat="40.34821268837067" lon="15.236703634315598"><ele>729.0</ele><time>2026-03-29T11:33:15Z</time></trkpt><trkpt lat="40.348179280288456" lon="15.236837511772553"><ele>730.0</ele><time>2026-03-29T11:33:16Z</time></trkpt><trkpt lat="40.34813050211612" lon="15.23692847629896"><ele>731.0</ele><time>2026-03-29T11:33:17Z</time></trkpt><trkpt lat="40.34810855832191" lon="15.23703257421284"><ele>732.0</ele><time>2026-03-29T11:33:18Z</time></trkpt><trkpt lat="40.34811643342447" lon="15.237127128139752"><ele>733.0</ele><time>2026-03-29T11:33:19Z</time></trkpt><trkpt lat="40.34815661791894" lon="15.237230602671318"><ele>734.0</ele><time>2026-03-29T11:33:19.999Z</time></trkpt><trkpt lat="40.34815697314291" lon="15.237345660610496"><ele>736.8333333333333</ele><time>2026-03-29T11:33:20.999Z</time></trkpt><trkpt lat="40.34815937165801" lon="15.237432979483923"><ele>739.6666666666666</ele><time>2026-03-29T11:33:21.999Z</time></trkpt><trkpt lat="40.34809894389885" lon="15.237516822308933"><ele>742.5</ele><time>2026-03-29T11:33:23.999Z</time></trkpt><trkpt lat="40.3480054796873" lon="15.237544817352356"><ele>745.3333333333334</ele><time>2026-03-29T11:33:25.999Z</time></trkpt><trkpt lat="40.3479056736789" lon="15.237600398508048"><ele>748.1666666666667</ele><time>2026-03-29T11:33:27.999Z</time></trkpt><trkpt lat="40.34787743177431" lon="15.237679830060387"><ele>751.0</ele><time>2026-03-29T11:33:29.999Z</time></trkpt><trkpt lat="40.34793520620312" lon="15.237739635674384"><ele>751.0</ele><time>2026-03-29T11:33:31.999Z</time></trkpt><trkpt lat="40.347990624033926" lon="15.237783342680167"><ele>751.0</ele><time>2026-03-29T11:33:32.999Z</time></trkpt><trkpt lat="40.34807788723094" lon="15.237785272804077"><ele>751.0</ele><time>2026-03-29T11:33:33.999Z</time></trkpt><trkpt lat="40.34814415883445" lon="15.237773684298874"><ele>751.0</ele><time>2026-03-29T11:33:34.999Z</time></trkpt><trkpt lat="40.34822635264516" lon="15.237738414064475"><ele>751.0</ele><time>2026-03-29T11:33:35.999Z</time></trkpt><trkpt lat="40.34832680914886" lon="15.237632587884002"><ele>751.0</ele><time>2026-03-29T11:33:37Z</time></trkpt><trkpt lat="40.34841157698584" lon="15.237481794163024"><ele>751.0</ele><time>2026-03-29T11:33:39Z</time></trkpt><trkpt lat="40.348456053989786" lon="15.237400162947146"><ele>751.0</ele><time>2026-03-29T11:33:40Z</time></trkpt><trkpt lat="40.348488600815195" lon="15.237305283688823"><ele>751.0</ele><time>2026-03-29T11:33:41Z</time></trkpt><trkpt lat="40.348545815573765" lon="15.237254945778874"><ele>751.0</ele><time>2026-03-29T11:33:42Z</time></trkpt><trkpt lat="40.348612292816625" lon="15.237203469145921"><ele>751.0</ele><time>2026-03-29T11:33:45Z</time></trkpt><trkpt lat="40.34860554127878" lon="15.237305078415353"><ele>751.0</ele><time>2026-03-29T11:33:47Z</time></trkpt><trkpt lat="40.34854896193394" lon="15.237440809485575"><ele>751.0</ele><time>2026-03-29T11:33:49Z</time></trkpt><trkpt lat="40.34849865319443" lon="15.237595344028312"><ele>751.0</ele><time>2026-03-29T11:33:51Z</time></trkpt><trkpt lat="40.34848197098035" lon="15.23769177059798"><ele>751.0</ele><time>2026-03-29T11:33:52Z</time></trkpt><trkpt lat="40.34845207043617" lon="15.237769320262268"><ele>751.0</ele><time>2026-03-29T11:33:53Z</time></trkpt><trkpt lat="40.34842137220766" lon="15.23785339552852"><ele>751.0</ele><time>2026-03-29T11:33:54Z</time></trkpt><trkpt lat="40.348384026991816" lon="15.23793644530746"><ele>751.0</ele><time>2026-03-29T11:33:55Z</time></trkpt><trkpt lat="40.34832742191568" lon="15.238009894150062"><ele>751.0</ele><time>2026-03-29T11:33:56Z</time></trkpt><trkpt lat="40.348261515292656" lon="15.238105348055488"><ele>751.0</ele><time>2026-03-29T11:33:57Z</time></trkpt><trkpt lat="40.34822344436413" lon="15.238200433291961"><ele>751.0</ele><time>2026-03-29T11:33:59Z</time></trkpt><trkpt lat="40.34830242769551" lon="15.238215455408499"><ele>751.0</ele><time>2026-03-29T11:34:02Z</time></trkpt><trkpt lat="40.348405429010114" lon="15.238149313189263"><ele>751.0</ele><time>2026-03-29T11:34:04Z</time></trkpt><trkpt lat="40.34847101638848" lon="15.238098246448827"><ele>751.0</ele><time>2026-03-29T11:34:05Z</time></trkpt><trkpt lat="40.348532268676706" lon="15.238050534667288"><ele>751.0</ele><time>2026-03-29T11:34:06Z</time></trkpt><trkpt lat="40.34859501813274" lon="15.238001488225619"><ele>751.0</ele><time>2026-03-29T11:34:07Z</time></trkpt><trkpt lat="40.34864742874768" lon="15.237940161254732"><ele>751.0</ele><time>2026-03-29T11:34:08Z</time></trkpt><trkpt lat="40.348728634514366" lon="15.237891755413369"><ele>751.0</ele><time>2026-03-29T11:34:10Z</time></trkpt><trkpt lat="40.34879249137713" lon="15.23786738983402"><ele>751.0</ele><time>2026-03-29T11:34:12Z</time></trkpt><trkpt lat="40.34887172794117" lon="15.237784179868667"><ele>751.0</ele><time>2026-03-29T11:34:14Z</time></trkpt><trkpt lat="40.34891486852928" lon="15.237714638002393"><ele>751.0</ele><time>2026-03-29T11:34:18Z</time></trkpt><trkpt lat="40.34883440809917" lon="15.237619243495457"><ele>751.0</ele><time>2026-03-29T11:38:20Z</time></trkpt><trkpt lat="40.34876915986648" lon="15.237628778302561"><ele>751.0</ele><time>2026-03-29T11:40:48Z</time></trkpt><trkpt lat="40.34882973775252" lon="15.237593369636937"><ele>751.0</ele><time>2026-03-29T11:42:06.998Z</time></trkpt><trkpt lat="40.34888832776807" lon="15.237631283093618"><ele>751.0</ele><time>2026-03-29T11:45:32Z</time></trkpt><trkpt lat="40.348959947409604" lon="15.2375255345402"><ele>754.4</ele><time>2026-03-29T11:45:36Z</time></trkpt><trkpt lat="40.34903614295053" lon="15.237488361938077"><ele>757.8</ele><time>2026-03-29T11:45:38Z</time></trkpt><trkpt lat="40.349075561685105" lon="15.237417166095995"><ele>761.1999999999999</ele><time>2026-03-29T11:45:40Z</time></trkpt><trkpt lat="40.34913050255543" lon="15.23735381048397"><ele>764.5999999999999</ele><time>2026-03-29T11:45:42Z</time></trkpt><trkpt lat="40.34920708704194" lon="15.23726341549458"><ele>768.0</ele><time>2026-03-29T11:45:44Z</time></trkpt><trkpt lat="40.34931217931261" lon="15.237156125857345"><ele>771.1666666666666</ele><time>2026-03-29T11:45:46Z</time></trkpt><trkpt lat="40.34937482598763" lon="15.237106426743656"><ele>774.3333333333333</ele><time>2026-03-29T11:45:47Z</time></trkpt><trkpt lat="40.349444855490766" lon="15.237057600309367"><ele>777.5</ele><time>2026-03-29T11:45:48Z</time></trkpt><trkpt lat="40.34952389637754" lon="15.237007577890767"><ele>780.6666666666666</ele><time>2026-03-29T11:45:49Z</time></trkpt><trkpt lat="40.349606206488325" lon="15.236986106531308"><ele>783.8333333333333</ele><time>2026-03-29T11:45:50Z</time></trkpt><trkpt lat="40.3496994410684" lon="15.236971568385549"><ele>787.0</ele><time>2026-03-29T11:45:51Z</time></trkpt><trkpt lat="40.349778496011155" lon="15.236945217809257"><ele>786.9999999999999</ele><time>2026-03-29T11:45:52Z</time></trkpt><trkpt lat="40.34985546795686" lon="15.23690675122936"><ele>787.0</ele><time>2026-03-29T11:45:53Z</time></trkpt><trkpt lat="40.349931554196495" lon="15.236839208574047"><ele>787.0</ele><time>2026-03-29T11:45:54Z</time></trkpt><trkpt lat="40.35001123273625" lon="15.236762296879343"><ele>787.0</ele><time>2026-03-29T11:45:55Z</time></trkpt><trkpt lat="40.35008653412542" lon="15.2366929052849"><ele>786.9999999999999</ele><time>2026-03-29T11:45:56Z</time></trkpt><trkpt lat="40.350148972397534" lon="15.236637981687295"><ele>787.0</ele><time>2026-03-29T11:45:57Z</time></trkpt><trkpt lat="40.35028191727685" lon="15.236539980785361"><ele>787.0</ele><time>2026-03-29T11:45:59Z</time></trkpt><trkpt lat="40.350418541695056" lon="15.23652094613918"><ele>787.0</ele><time>2026-03-29T11:46:01Z</time></trkpt><trkpt lat="40.35053217823802" lon="15.236517772634423"><ele>787.0</ele><time>2026-03-29T11:46:02Z</time></trkpt><trkpt lat="40.350638196146924" lon="15.236525122768473"><ele>787.0</ele><time>2026-03-29T11:46:03Z</time></trkpt><trkpt lat="40.35075037891794" lon="15.236512182813435"><ele>789.0</ele><time>2026-03-29T11:46:04Z</time></trkpt><trkpt lat="40.350875309500665" lon="15.236498733811258"><ele>791.0</ele><time>2026-03-29T11:46:05Z</time></trkpt><trkpt lat="40.35098961831831" lon="15.236488106894763"><ele>793.0</ele><time>2026-03-29T11:46:06Z</time></trkpt><trkpt lat="40.35106195844465" lon="15.236488700046943"><ele>795.0</ele><time>2026-03-29T11:46:07Z</time></trkpt><trkpt lat="40.351190314941796" lon="15.23651130883657"><ele>797.0</ele><time>2026-03-29T11:46:09Z</time></trkpt><trkpt lat="40.351257458322635" lon="15.236537713889506"><ele>797.0000000000001</ele><time>2026-03-29T11:46:10Z</time></trkpt><trkpt lat="40.351331816747795" lon="15.236577738544316"><ele>797.0</ele><time>2026-03-29T11:46:11Z</time></trkpt><trkpt lat="40.351403745198645" lon="15.236616798825676"><ele>797.0</ele><time>2026-03-29T11:46:12Z</time></trkpt><trkpt lat="40.35147957181399" lon="15.236636556840349"><ele>797.0</ele><time>2026-03-29T11:46:13Z</time></trkpt><trkpt lat="40.3515548974032" lon="15.236670435620557"><ele>797.0000000000001</ele><time>2026-03-29T11:46:14Z</time></trkpt><trkpt lat="40.35163144295232" lon="15.236683859172738"><ele>797.0</ele><time>2026-03-29T11:46:15Z</time></trkpt><trkpt lat="40.351692827519294" lon="15.23671578244895"><ele>797.5000000000001</ele><time>2026-03-29T11:46:16Z</time></trkpt><trkpt lat="40.351755810201624" lon="15.236723860560048"><ele>798.0</ele><time>2026-03-29T11:46:17Z</time></trkpt><trkpt lat="40.35183938697805" lon="15.23672350241034"><ele>798.5</ele><time>2026-03-29T11:46:18Z</time></trkpt><trkpt lat="40.35191172033788" lon="15.236723605440348"><ele>799.0</ele><time>2026-03-29T11:46:19Z</time></trkpt><trkpt lat="40.35197995325425" lon="15.23669090752555"><ele>799.5000000000001</ele><time>2026-03-29T11:46:20Z</time></trkpt><trkpt lat="40.35210185581714" lon="15.236724641685889"><ele>800.0</ele><time>2026-03-29T11:46:22Z</time></trkpt><trkpt lat="40.3521681267509" lon="15.236766619834933"><ele>800.6</ele><time>2026-03-29T11:46:23Z</time></trkpt><trkpt lat="40.352264116443564" lon="15.236783271854344"><ele>801.2</ele><time>2026-03-29T11:46:24Z</time></trkpt><trkpt lat="40.352359716571264" lon="15.236775543782464"><ele>801.8</ele><time>2026-03-29T11:46:25Z</time></trkpt><trkpt lat="40.352460704187195" lon="15.236763998231625"><ele>802.4</ele><time>2026-03-29T11:46:26Z</time></trkpt><trkpt lat="40.35255559102729" lon="15.236760074709588"><ele>803.0</ele><time>2026-03-29T11:46:27Z</time></trkpt><trkpt lat="40.35264155303098" lon="15.23673972248313"><ele>803.0</ele><time>2026-03-29T11:46:28Z</time></trkpt><trkpt lat="40.35272814950963" lon="15.23672002404121"><ele>803.0</ele><time>2026-03-29T11:46:29Z</time></trkpt><trkpt lat="40.35280753204609" lon="15.236671535469846"><ele>803.0</ele><time>2026-03-29T11:46:30Z</time></trkpt><trkpt lat="40.35290053982969" lon="15.236624530754069"><ele>803.0</ele><time>2026-03-29T11:46:31Z</time></trkpt><trkpt lat="40.35298442833196" lon="15.236555850209086"><ele>803.0</ele><time>2026-03-29T11:46:32Z</time></trkpt><trkpt lat="40.35307939409074" lon="15.236474133805332"><ele>815.0000000000001</ele><time>2026-03-29T11:46:33Z</time></trkpt><trkpt lat="40.35316908868015" lon="15.236419246751414"><ele>827.0</ele><time>2026-03-29T11:46:34Z</time></trkpt><trkpt lat="40.35325656365073" lon="15.236373294586805"><ele>839.0</ele><time>2026-03-29T11:46:35Z</time></trkpt><trkpt lat="40.3533393888909" lon="15.236357212256463"><ele>851.0</ele><time>2026-03-29T11:46:36Z</time></trkpt><trkpt lat="40.35341678254385" lon="15.236331834680024"><ele>863.0000000000001</ele><time>2026-03-29T11:46:37Z</time></trkpt><trkpt lat="40.353494127715884" lon="15.236331147671862"><ele>875.0</ele><time>2026-03-29T11:46:38Z</time></trkpt><trkpt lat="40.353559962311905" lon="15.2363647351946"><ele>875.0</ele><time>2026-03-29T11:46:39Z</time></trkpt><trkpt lat="40.353611046553134" lon="15.236426846161132"><ele>875.0</ele><time>2026-03-29T11:46:40Z</time></trkpt><trkpt lat="40.35366330730149" lon="15.236506088864463"><ele>875.0</ele><time>2026-03-29T11:46:41Z</time></trkpt><trkpt lat="40.35371563614384" lon="15.236573630695016"><ele>875.0</ele><time>2026-03-29T11:46:42Z</time></trkpt><trkpt lat="40.353823699444995" lon="15.236549231140694"><ele>875.0</ele><time>2026-03-29T11:46:44Z</time></trkpt><trkpt lat="40.353975812741446" lon="15.236562263538252"><ele>873.4</ele><time>2026-03-29T11:46:45Z</time></trkpt><trkpt lat="40.354078888237964" lon="15.236538070531504"><ele>871.8</ele><time>2026-03-29T11:46:46Z</time></trkpt><trkpt lat="40.354152373536145" lon="15.236477937122547"><ele>870.2</ele><time>2026-03-29T11:46:47Z</time></trkpt><trkpt lat="40.35421241739134" lon="15.236395366267447"><ele>868.6</ele><time>2026-03-29T11:46:48Z</time></trkpt><trkpt lat="40.35426791133578" lon="15.236279147174612"><ele>867.0</ele><time>2026-03-29T11:46:49Z</time></trkpt><trkpt lat="40.354333208769944" lon="15.236173613625608"><ele>867.0</ele><time>2026-03-29T11:46:50Z</time></trkpt><trkpt lat="40.354402294200376" lon="15.236071798813503"><ele>867.0</ele><time>2026-03-29T11:46:51Z</time></trkpt><trkpt lat="40.35447635609881" lon="15.23596713783797"><ele>867.0</ele><time>2026-03-29T11:46:52Z</time></trkpt><trkpt lat="40.35453704495234" lon="15.235849356561198"><ele>867.0</ele><time>2026-03-29T11:46:53Z</time></trkpt><trkpt lat="40.35459502060125" lon="15.235738814577207"><ele>867.0</ele><time>2026-03-29T11:46:54Z</time></trkpt><trkpt lat="40.35465951158595" lon="15.235602598011308"><ele>870.8</ele><time>2026-03-29T11:46:55Z</time></trkpt><trkpt lat="40.35471023301781" lon="15.235485219893409"><ele>874.6</ele><time>2026-03-29T11:46:56Z</time></trkpt><trkpt lat="40.35474819581969" lon="15.235382345758609"><ele>878.3999999999999</ele><time>2026-03-29T11:46:57Z</time></trkpt><trkpt lat="40.35484265982606" lon="15.23532857609788"><ele>882.1999999999999</ele><time>2026-03-29T11:46:58Z</time></trkpt><trkpt lat="40.35492134963893" lon="15.235277088216517"><ele>886.0</ele><time>2026-03-29T11:46:59Z</time></trkpt><trkpt lat="40.355001787813435" lon="15.235239422611802"><ele>886.0</ele><time>2026-03-29T11:47:00Z</time></trkpt><trkpt lat="40.35507975075938" lon="15.235232963456081"><ele>885.9999999999999</ele><time>2026-03-29T11:47:01Z</time></trkpt><trkpt lat="40.35518746457692" lon="15.235208798088141"><ele>885.9999999999999</ele><time>2026-03-29T11:47:02Z</time></trkpt><trkpt lat="40.355280234828086" lon="15.235131754591867"><ele>886.0</ele><time>2026-03-29T11:47:03Z</time></trkpt><trkpt lat="40.35538405783479" lon="15.235073285668966"><ele>886.0</ele><time>2026-03-29T11:47:04Z</time></trkpt><trkpt lat="40.35546946803951" lon="15.23501699615512"><ele>885.6666666666666</ele><time>2026-03-29T11:47:05Z</time></trkpt><trkpt lat="40.35555355661542" lon="15.234965657231589"><ele>885.3333333333333</ele><time>2026-03-29T11:47:06Z</time></trkpt><trkpt lat="40.35561990746691" lon="15.23494374652255"><ele>885.0</ele><time>2026-03-29T11:47:07Z</time></trkpt><trkpt lat="40.35568881198319" lon="15.234944094292128"><ele>884.6666666666667</ele><time>2026-03-29T11:47:08Z</time></trkpt><trkpt lat="40.35577777290543" lon="15.234964665358609"><ele>884.3333333333334</ele><time>2026-03-29T11:47:09Z</time></trkpt><trkpt lat="40.35586152134966" lon="15.234992802539645"><ele>884.0</ele><time>2026-03-29T11:47:10Z</time></trkpt><trkpt lat="40.35592259309408" lon="15.235024058988836"><ele>884.0000000000001</ele><time>2026-03-29T11:47:11Z</time></trkpt><trkpt lat="40.35599305191219" lon="15.235109803920228"><ele>884.0</ele><time>2026-03-29T11:47:13Z</time></trkpt><trkpt lat="40.3559879463135" lon="15.235209626440396"><ele>884.0</ele><time>2026-03-29T11:47:14Z</time></trkpt><trkpt lat="40.356018470358144" lon="15.235297216454764"><ele>884.0</ele><time>2026-03-29T11:47:15Z</time></trkpt><trkpt lat="40.35606817843735" lon="15.235370287799688"><ele>884.0000000000001</ele><time>2026-03-29T11:47:16Z</time></trkpt><trkpt lat="40.3561282204295" lon="15.23540877428792"><ele>884.0</ele><time>2026-03-29T11:47:17Z</time></trkpt><trkpt lat="40.35618215761411" lon="15.235458061353961"><ele>884.0000000000001</ele><time>2026-03-29T11:47:18Z</time></trkpt><trkpt lat="40.35627217388502" lon="15.235535988488518"><ele>884.0</ele><time>2026-03-29T11:47:20Z</time></trkpt><trkpt lat="40.35634233913869" lon="15.235559703868567"><ele>884.0</ele><time>2026-03-29T11:47:21Z</time></trkpt><trkpt lat="40.356415026958686" lon="15.235562920472816"><ele>884.0</ele><time>2026-03-29T11:47:22Z</time></trkpt><trkpt lat="40.35648141046254" lon="15.23557531262234"><ele>884.0000000000001</ele><time>2026-03-29T11:47:23Z</time></trkpt><trkpt lat="40.356577936131515" lon="15.235576498222747"><ele>884.0</ele><time>2026-03-29T11:47:25Z</time></trkpt><trkpt lat="40.35666031120188" lon="15.235580615966525"><ele>887.3333333333334</ele><time>2026-03-29T11:47:27Z</time></trkpt><trkpt lat="40.35673293607493" lon="15.235549766564288"><ele>890.6666666666667</ele><time>2026-03-29T11:47:29Z</time></trkpt><trkpt lat="40.356807348534375" lon="15.235546904811539"><ele>894.0</ele><time>2026-03-29T11:47:33Z</time></trkpt><trkpt lat="40.35689373056648" lon="15.235509828798357"><ele>897.3333333333333</ele><time>2026-03-29T11:48:10Z</time></trkpt><trkpt lat="40.356957482131065" lon="15.23549756476397"><ele>900.6666666666666</ele><time>2026-03-29T12:04:41.999Z</time></trkpt><trkpt lat="40.35702165112521" lon="15.23548407497837"><ele>904.0</ele><time>2026-03-29T12:04:43.999Z</time></trkpt><trkpt lat="40.35710532425557" lon="15.235476095780152"><ele>903.9999999999999</ele><time>2026-03-29T12:04:46.999Z</time></trkpt><trkpt lat="40.357171763968076" lon="15.235452478958887"><ele>904.0</ele><time>2026-03-29T12:04:48.999Z</time></trkpt><trkpt lat="40.35724957108848" lon="15.235431562980159"><ele>904.0</ele><time>2026-03-29T12:04:50.999Z</time></trkpt><trkpt lat="40.35733277574245" lon="15.235414912930853"><ele>904.0</ele><time>2026-03-29T12:04:52.999Z</time></trkpt><trkpt lat="40.35742169537504" lon="15.235411730260607"><ele>903.9999999999999</ele><time>2026-03-29T12:04:54.999Z</time></trkpt><trkpt lat="40.357511190129514" lon="15.235401260966231"><ele>904.0</ele><time>2026-03-29T12:04:56.999Z</time></trkpt><trkpt lat="40.3576118699589" lon="15.23539441905012"><ele>902.4999999999999</ele><time>2026-03-29T12:04:58.999Z</time></trkpt><trkpt lat="40.35770134523692" lon="15.235393182804984"><ele>901.0</ele><time>2026-03-29T12:05:01.999Z</time></trkpt><trkpt lat="40.35779749019196" lon="15.23538118218457"><ele>899.5</ele><time>2026-03-29T12:05:04.999Z</time></trkpt><trkpt lat="40.35787256669361" lon="15.235392981243264"><ele>898.0</ele><time>2026-03-29T12:05:08Z</time></trkpt><trkpt lat="40.35795645338093" lon="15.235423890979403"><ele>896.4999999999999</ele><time>2026-03-29T12:05:11Z</time></trkpt><trkpt lat="40.35805457783295" lon="15.235448640609572"><ele>895.0</ele><time>2026-03-29T12:05:13Z</time></trkpt><trkpt lat="40.35817281672734" lon="15.235432156408221"><ele>893.1666666666666</ele><time>2026-03-29T12:05:15Z</time></trkpt><trkpt lat="40.35827284845597" lon="15.235415714021425"><ele>891.3333333333333</ele><time>2026-03-29T12:05:17Z</time></trkpt><trkpt lat="40.35840033149983" lon="15.235399966196688"><ele>889.5</ele><time>2026-03-29T12:05:19Z</time></trkpt><trkpt lat="40.35846038033363" lon="15.235361243959932"><ele>887.6666666666667</ele><time>2026-03-29T12:05:20Z</time></trkpt><trkpt lat="40.358522129065015" lon="15.235317642828631"><ele>885.8333333333334</ele><time>2026-03-29T12:05:21Z</time></trkpt><trkpt lat="40.358584769625594" lon="15.235271154399728"><ele>884.0</ele><time>2026-03-29T12:05:22Z</time></trkpt><trkpt lat="40.35864506850499" lon="15.235217762204172"><ele>884.0</ele><time>2026-03-29T12:05:23Z</time></trkpt><trkpt lat="40.35870574003614" lon="15.235167551902032"><ele>884.0000000000001</ele><time>2026-03-29T12:05:24Z</time></trkpt><trkpt lat="40.358759617585164" lon="15.235123620908798"><ele>884.0000000000001</ele><time>2026-03-29T12:05:25Z</time></trkpt><trkpt lat="40.358855084794676" lon="15.235048885175503"><ele>884.0</ele><time>2026-03-29T12:05:27Z</time></trkpt><trkpt lat="40.358968188983376" lon="15.235030748867722"><ele>884.0</ele><time>2026-03-29T12:05:29Z</time></trkpt><trkpt lat="40.35907302051205" lon="15.235010888038657"><ele>884.4000000000001</ele><time>2026-03-29T12:05:31Z</time></trkpt><trkpt lat="40.35916293309608" lon="15.235008427483631"><ele>884.8000000000001</ele><time>2026-03-29T12:05:34Z</time></trkpt><trkpt lat="40.35923075479386" lon="15.2349912879307"><ele>885.1999999999999</ele><time>2026-03-29T12:05:37Z</time></trkpt><trkpt lat="40.35921997218251" lon="15.234779960954135"><ele>885.5999999999999</ele><time>2026-03-29T12:05:40Z</time></trkpt><trkpt lat="40.359192307000974" lon="15.234673562458699"><ele>886.0</ele><time>2026-03-29T12:05:42Z</time></trkpt><trkpt lat="40.359131081865186" lon="15.234527106386977"><ele>885.9999999999999</ele><time>2026-03-29T12:05:44Z</time></trkpt><trkpt lat="40.3591067701212" lon="15.234449178628036"><ele>886.0</ele><time>2026-03-29T12:05:45Z</time></trkpt><trkpt lat="40.359089299570726" lon="15.23429097115558"><ele>886.0</ele><time>2026-03-29T12:05:47Z</time></trkpt><trkpt lat="40.3590833405093" lon="15.234207688696724"><ele>886.0</ele><time>2026-03-29T12:05:48Z</time></trkpt><trkpt lat="40.35907163530504" lon="15.234121151876055"><ele>885.9999999999999</ele><time>2026-03-29T12:05:49Z</time></trkpt><trkpt lat="40.35909739716403" lon="15.233991197565825"><ele>886.0</ele><time>2026-03-29T12:05:51Z</time></trkpt><trkpt lat="40.3591057941048" lon="15.233848400568226"><ele>887.4</ele><time>2026-03-29T12:05:53Z</time></trkpt><trkpt lat="40.35913724076816" lon="15.23369469092446"><ele>888.8</ele><time>2026-03-29T12:05:55Z</time></trkpt><trkpt lat="40.35915773181616" lon="15.233612771027664"><ele>890.1999999999999</ele><time>2026-03-29T12:05:56Z</time></trkpt><trkpt lat="40.3592122443151" lon="15.233476915807495"><ele>891.5999999999999</ele><time>2026-03-29T12:05:58Z</time></trkpt><trkpt lat="40.359234402914325" lon="15.233389693505345"><ele>893.0</ele><time>2026-03-29T12:05:59Z</time></trkpt><trkpt lat="40.35928272071584" lon="15.233250974086156"><ele>893.0000000000001</ele><time>2026-03-29T12:06:01Z</time></trkpt><trkpt lat="40.35932997727447" lon="15.233157646868996"><ele>893.0</ele><time>2026-03-29T12:06:02Z</time></trkpt><trkpt lat="40.35938431970339" lon="15.233020166088952"><ele>893.0</ele><time>2026-03-29T12:06:04Z</time></trkpt><trkpt lat="40.35942659047767" lon="15.232930619589036"><ele>893.0</ele><time>2026-03-29T12:06:05Z</time></trkpt><trkpt lat="40.35946377796204" lon="15.232843554218894"><ele>893.0000000000001</ele><time>2026-03-29T12:06:06Z</time></trkpt><trkpt lat="40.35950579336336" lon="15.23274758605635"><ele>893.0</ele><time>2026-03-29T12:06:07Z</time></trkpt><trkpt lat="40.35955153987933" lon="15.23266244077504"><ele>892.5000000000001</ele><time>2026-03-29T12:06:08Z</time></trkpt><trkpt lat="40.359587679456574" lon="15.23258327351842"><ele>892.0</ele><time>2026-03-29T12:06:09Z</time></trkpt><trkpt lat="40.35963322653718" lon="15.232498358747486"><ele>891.5</ele><time>2026-03-29T12:06:09.999Z</time></trkpt><trkpt lat="40.35969181047056" lon="15.232419488411178"><ele>891.0</ele><time>2026-03-29T12:06:10.999Z</time></trkpt><trkpt lat="40.359739340449885" lon="15.232327319053152"><ele>890.5000000000001</ele><time>2026-03-29T12:06:11.999Z</time></trkpt><trkpt lat="40.359781953728366" lon="15.232248951811789"><ele>890.0</ele><time>2026-03-29T12:06:12.999Z</time></trkpt><trkpt lat="40.35981812037457" lon="15.232176382041303"><ele>891.6</ele><time>2026-03-29T12:06:13.999Z</time></trkpt><trkpt lat="40.359876922001895" lon="15.232097584135165"><ele>893.2</ele><time>2026-03-29T12:06:14.999Z</time></trkpt><trkpt lat="40.35994125928137" lon="15.231980008232021"><ele>894.8</ele><time>2026-03-29T12:06:16.999Z</time></trkpt><trkpt lat="40.36002510943764" lon="15.231846869130887"><ele>896.4</ele><time>2026-03-29T12:06:18.999Z</time></trkpt><trkpt lat="40.36007533636663" lon="15.23177194849765"><ele>898.0</ele><time>2026-03-29T12:06:19.999Z</time></trkpt><trkpt lat="40.36012642551553" lon="15.231706726965669"><ele>897.9999999999999</ele><time>2026-03-29T12:06:20.999Z</time></trkpt><trkpt lat="40.360191695957646" lon="15.23164380302126"><ele>898.0</ele><time>2026-03-29T12:06:21.999Z</time></trkpt><trkpt lat="40.36024794319083" lon="15.23158364768841"><ele>898.0</ele><time>2026-03-29T12:06:22.999Z</time></trkpt><trkpt lat="40.36032157415929" lon="15.23151515093459"><ele>898.0</ele><time>2026-03-29T12:06:23.999Z</time></trkpt><trkpt lat="40.36039060819699" lon="15.231408305157558"><ele>897.9999999999999</ele><time>2026-03-29T12:06:25.999Z</time></trkpt><trkpt lat="40.36040349467689" lon="15.231317426859636"><ele>898.0</ele><time>2026-03-29T12:06:26.999Z</time></trkpt><trkpt lat="40.360398304473875" lon="15.2312091572184"><ele>900.5999999999999</ele><time>2026-03-29T12:06:27.999Z</time></trkpt><trkpt lat="40.36038861624321" lon="15.23101973795319"><ele>903.1999999999999</ele><time>2026-03-29T12:06:29.999Z</time></trkpt><trkpt lat="40.36038839336774" lon="15.230917773987832"><ele>905.8</ele><time>2026-03-29T12:06:30.999Z</time></trkpt><trkpt lat="40.360485537916844" lon="15.230782000316816"><ele>908.4</ele><time>2026-03-29T12:06:32.999Z</time></trkpt><trkpt lat="40.36050297674289" lon="15.230700347207431"><ele>911.0</ele><time>2026-03-29T12:06:33.999Z</time></trkpt><trkpt lat="40.360512303840444" lon="15.230603070165001"><ele>910.4</ele><time>2026-03-29T12:06:34.999Z</time></trkpt><trkpt lat="40.360553904324014" lon="15.230453786592006"><ele>909.8</ele><time>2026-03-29T12:06:36.999Z</time></trkpt><trkpt lat="40.360638573385216" lon="15.230383272720708"><ele>909.1999999999999</ele><time>2026-03-29T12:06:38.999Z</time></trkpt><trkpt lat="40.360702330931296" lon="15.230342361720522"><ele>908.5999999999999</ele><time>2026-03-29T12:06:39.999Z</time></trkpt><trkpt lat="40.360804656830766" lon="15.230312599188695"><ele>908.0</ele><time>2026-03-29T12:06:41.999Z</time></trkpt><trkpt lat="40.36089492858699" lon="15.230297333387425"><ele>908.0</ele><time>2026-03-29T12:06:43.999Z</time></trkpt><trkpt lat="40.36097329518067" lon="15.230335967928243"><ele>908.0</ele><time>2026-03-29T12:06:45.999Z</time></trkpt><trkpt lat="40.36103978427644" lon="15.230325375196292"><ele>908.0</ele><time>2026-03-29T12:06:46.999Z</time></trkpt><trkpt lat="40.36112921780285" lon="15.230239897931787"><ele>908.0</ele><time>2026-03-29T12:06:48.999Z</time></trkpt><trkpt lat="40.361220129609634" lon="15.23013280792847"><ele>908.0</ele><time>2026-03-29T12:06:50.999Z</time></trkpt><trkpt lat="40.361272862588855" lon="15.230077913279139"><ele>908.0</ele><time>2026-03-29T12:06:51.999Z</time></trkpt><trkpt lat="40.36132118348572" lon="15.230012201464644"><ele>908.0</ele><time>2026-03-29T12:06:52.999Z</time></trkpt><trkpt lat="40.36135243489108" lon="15.22986149869605"><ele>908.0</ele><time>2026-03-29T12:06:54.999Z</time></trkpt><trkpt lat="40.36133597138265" lon="15.229687866161722"><ele>908.0</ele><time>2026-03-29T12:06:56.999Z</time></trkpt><trkpt lat="40.36132756694598" lon="15.229599340370855"><ele>908.0</ele><time>2026-03-29T12:06:57.999Z</time></trkpt><trkpt lat="40.36132172649534" lon="15.229495147125286"><ele>910.8</ele><time>2026-03-29T12:06:58.999Z</time></trkpt><trkpt lat="40.36130686492993" lon="15.229372181451588"><ele>913.5999999999999</ele><time>2026-03-29T12:07:00.999Z</time></trkpt><trkpt lat="40.36125698952725" lon="15.229273982384608"><ele>916.4000000000001</ele><time>2026-03-29T12:07:01.999Z</time></trkpt><trkpt lat="40.361244621571984" lon="15.229125630398515"><ele>919.2</ele><time>2026-03-29T12:07:03.999Z</time></trkpt><trkpt lat="40.36124692454807" lon="15.229017853185985"><ele>922.0</ele><time>2026-03-29T12:07:05.999Z</time></trkpt><trkpt lat="40.36128136523788" lon="15.228899701508405"><ele>924.6</ele><time>2026-03-29T12:07:07.999Z</time></trkpt><trkpt lat="40.36130881224849" lon="15.228782457952201"><ele>927.2</ele><time>2026-03-29T12:07:09.999Z</time></trkpt><trkpt lat="40.361354810437" lon="15.228659755151478"><ele>929.8</ele><time>2026-03-29T12:07:11.999Z</time></trkpt><trkpt lat="40.361396784247816" lon="15.228593748091692"><ele>932.4</ele><time>2026-03-29T12:07:12.998Z</time></trkpt><trkpt lat="40.361484515644165" lon="15.228459294100514"><ele>935.0</ele><time>2026-03-29T12:07:14.998Z</time></trkpt><trkpt lat="40.36153339945848" lon="15.228403534693788"><ele>934.0</ele><time>2026-03-29T12:07:15.998Z</time></trkpt><trkpt lat="40.36157704661736" lon="15.22832486572393"><ele>933.0</ele><time>2026-03-29T12:07:16.998Z</time></trkpt><trkpt lat="40.36163390249419" lon="15.228266786435189"><ele>932.0</ele><time>2026-03-29T12:07:17.998Z</time></trkpt><trkpt lat="40.361684386157066" lon="15.228205071298458"><ele>931.0</ele><time>2026-03-29T12:07:18.998Z</time></trkpt><trkpt lat="40.36174193723985" lon="15.228070839539287"><ele>930.0</ele><time>2026-03-29T12:07:20.998Z</time></trkpt><trkpt lat="40.36183523439417" lon="15.22796940952754"><ele>930.0</ele><time>2026-03-29T12:07:22.998Z</time></trkpt><trkpt lat="40.36189340580057" lon="15.227932745247237"><ele>930.0</ele><time>2026-03-29T12:07:23.998Z</time></trkpt><trkpt lat="40.361986233308265" lon="15.22783430627225"><ele>930.0</ele><time>2026-03-29T12:07:25.999Z</time></trkpt><trkpt lat="40.36207586268765" lon="15.22774691454453"><ele>930.0</ele><time>2026-03-29T12:07:27.999Z</time></trkpt><trkpt lat="40.362132893132994" lon="15.22769186324633"><ele>930.0</ele><time>2026-03-29T12:07:28.999Z</time></trkpt><trkpt lat="40.362217251361976" lon="15.227599630920755"><ele>927.3333333333334</ele><time>2026-03-29T12:07:30.999Z</time></trkpt><trkpt lat="40.362263720836594" lon="15.227528412148661"><ele>924.6666666666667</ele><time>2026-03-29T12:07:31.999Z</time></trkpt><trkpt lat="40.36231284966649" lon="15.22745509093939"><ele>922.0</ele><time>2026-03-29T12:07:32.999Z</time></trkpt><trkpt lat="40.362365633443794" lon="15.227362312232529"><ele>919.3333333333334</ele><time>2026-03-29T12:07:33.999Z</time></trkpt><trkpt lat="40.36242435929394" lon="15.227200056850307"><ele>916.6666666666667</ele><time>2026-03-29T12:07:35.999Z</time></trkpt><trkpt lat="40.36243149890169" lon="15.22710746755072"><ele>914.0</ele><time>2026-03-29T12:07:36.999Z</time></trkpt><trkpt lat="40.36249915989161" lon="15.2269785603496"><ele>914.0</ele><time>2026-03-29T12:07:38.999Z</time></trkpt><trkpt lat="40.362602014906805" lon="15.226871533216864"><ele>914.0000000000001</ele><time>2026-03-29T12:07:40.999Z</time></trkpt><trkpt lat="40.36266656377803" lon="15.22683109207335"><ele>914.0000000000001</ele><time>2026-03-29T12:07:41.999Z</time></trkpt><trkpt lat="40.36273820434768" lon="15.226772439087457"><ele>914.0</ele><time>2026-03-29T12:07:42.999Z</time></trkpt><trkpt lat="40.36279005119987" lon="15.226710150275238"><ele>914.0</ele><time>2026-03-29T12:07:43.999Z</time></trkpt><trkpt lat="40.36287318041409" lon="15.226618559188507"><ele>914.0</ele><time>2026-03-29T12:07:45.999Z</time></trkpt><trkpt lat="40.36294514524807" lon="15.226519487736104"><ele>914.0000000000001</ele><time>2026-03-29T12:07:47.999Z</time></trkpt><trkpt lat="40.36303072423531" lon="15.22644113602348"><ele>914.0000000000001</ele><time>2026-03-29T12:07:49.999Z</time></trkpt><trkpt lat="40.3631298697548" lon="15.226426013917674"><ele>914.0</ele><time>2026-03-29T12:07:51.999Z</time></trkpt><trkpt lat="40.363211657615956" lon="15.226445707429622"><ele>914.0</ele><time>2026-03-29T12:07:53.999Z</time></trkpt><trkpt lat="40.363327665091994" lon="15.22647337377229"><ele>910.75</ele><time>2026-03-29T12:08:25.999Z</time></trkpt><trkpt lat="40.363409017670435" lon="15.226490087252419"><ele>907.5</ele><time>2026-03-29T12:08:27.999Z</time></trkpt><trkpt lat="40.363529855675274" lon="15.22650636539001"><ele>904.25</ele><time>2026-03-29T12:08:29.999Z</time></trkpt><trkpt lat="40.36366153753465" lon="15.226520877034845"><ele>901.0</ele><time>2026-03-29T12:08:31.999Z</time></trkpt><trkpt lat="40.36377587669246" lon="15.226551831694062"><ele>901.0</ele><time>2026-03-29T12:08:33.999Z</time></trkpt><trkpt lat="40.3638406819908" lon="15.226526137707681"><ele>901.0000000000001</ele><time>2026-03-29T12:08:34.999Z</time></trkpt><trkpt lat="40.36392777414862" lon="15.226521021270056"><ele>901.0</ele><time>2026-03-29T12:08:36.999Z</time></trkpt><trkpt lat="40.3639944224319" lon="15.226526937798184"><ele>901.0</ele><time>2026-03-29T12:08:37.999Z</time></trkpt><trkpt lat="40.36405427551606" lon="15.226571648040784"><ele>901.0000000000001</ele><time>2026-03-29T12:08:38.999Z</time></trkpt><trkpt lat="40.36412236098489" lon="15.226607071358943"><ele>901.0</ele><time>2026-03-29T12:08:39.999Z</time></trkpt><trkpt lat="40.36419183808021" lon="15.226654027558057"><ele>901.0</ele><time>2026-03-29T12:08:40.999Z</time></trkpt><trkpt lat="40.364262799795874" lon="15.226676244129724"><ele>900.3333333333333</ele><time>2026-03-29T12:08:41.999Z</time></trkpt><trkpt lat="40.36433529071386" lon="15.226711569309296"><ele>899.6666666666666</ele><time>2026-03-29T12:08:42.999Z</time></trkpt><trkpt lat="40.364403126001115" lon="15.226737469879236"><ele>899.0</ele><time>2026-03-29T12:08:43.999Z</time></trkpt><trkpt lat="40.36445942569437" lon="15.226776538219706"><ele>898.3333333333333</ele><time>2026-03-29T12:08:44.999Z</time></trkpt><trkpt lat="40.364531675647974" lon="15.226808383698051"><ele>897.6666666666666</ele><time>2026-03-29T12:08:45.999Z</time></trkpt><trkpt lat="40.3646034062755" lon="15.226842756591227"><ele>897.0</ele><time>2026-03-29T12:08:46.999Z</time></trkpt><trkpt lat="40.36471402432631" lon="15.226894808678603"><ele>894.6</ele><time>2026-03-29T12:08:48.999Z</time></trkpt><trkpt lat="40.364810102666254" lon="15.226925323322131"><ele>892.2</ele><time>2026-03-29T12:08:50.999Z</time></trkpt><trkpt lat="40.364886922141196" lon="15.22685584367664"><ele>889.8</ele><time>2026-03-29T12:08:52.999Z</time></trkpt><trkpt lat="40.36492752928244" lon="15.226746268404378"><ele>887.4</ele><time>2026-03-29T12:08:54.999Z</time></trkpt><trkpt lat="40.36491587169922" lon="15.2266405524558"><ele>885.0</ele><time>2026-03-29T12:08:56.999Z</time></trkpt><trkpt lat="40.36484738115315" lon="15.226473220893249"><ele>883.4</ele><time>2026-03-29T12:08:58.999Z</time></trkpt><trkpt lat="40.36480423272306" lon="15.226331237146123"><ele>881.8</ele><time>2026-03-29T12:09:00.999Z</time></trkpt><trkpt lat="40.36473885630553" lon="15.226193074396617"><ele>880.2</ele><time>2026-03-29T12:09:02.999Z</time></trkpt><trkpt lat="40.36474095635285" lon="15.22608660175291"><ele>878.6</ele><time>2026-03-29T12:09:04.999Z</time></trkpt><trkpt lat="40.364726198404206" lon="15.225997086158655"><ele>877.0</ele><time>2026-03-29T12:09:05.999Z</time></trkpt><trkpt lat="40.36468935898471" lon="15.225867730414393"><ele>875.8</ele><time>2026-03-29T12:09:07.999Z</time></trkpt><trkpt lat="40.36466319674337" lon="15.225791675880231"><ele>874.6</ele><time>2026-03-29T12:09:08.999Z</time></trkpt><trkpt lat="40.364688753976644" lon="15.225655889875888"><ele>873.3999999999999</ele><time>2026-03-29T12:09:10.999Z</time></trkpt><trkpt lat="40.36469739359326" lon="15.225513726883788"><ele>872.1999999999999</ele><time>2026-03-29T12:09:12.999Z</time></trkpt><trkpt lat="40.36469094836061" lon="15.225422656582541"><ele>871.0</ele><time>2026-03-29T12:09:13.999Z</time></trkpt><trkpt lat="40.364666680767854" lon="15.225266982356802"><ele>872.4</ele><time>2026-03-29T12:09:15.999Z</time></trkpt><trkpt lat="40.36460259752746" lon="15.225149667855739"><ele>873.8</ele><time>2026-03-29T12:09:17.999Z</time></trkpt><trkpt lat="40.36455037099218" lon="15.225016199656194"><ele>875.1999999999999</ele><time>2026-03-29T12:09:19.999Z</time></trkpt><trkpt lat="40.364517738896396" lon="15.224945321130305"><ele>876.5999999999999</ele><time>2026-03-29T12:09:20.999Z</time></trkpt><trkpt lat="40.364492173258085" lon="15.224808165791595"><ele>878.0</ele><time>2026-03-29T12:09:22.999Z</time></trkpt><trkpt lat="40.36447277798935" lon="15.224699676313348"><ele>878.0000000000001</ele><time>2026-03-29T12:09:24.999Z</time></trkpt><trkpt lat="40.364504388791815" lon="15.224581880120708"><ele>878.0</ele><time>2026-03-29T12:09:26.999Z</time></trkpt><trkpt lat="40.36451850985926" lon="15.224447435667882"><ele>878.0</ele><time>2026-03-29T12:09:28.999Z</time></trkpt><trkpt lat="40.36455588112641" lon="15.224362235794182"><ele>878.0</ele><time>2026-03-29T12:09:30.999Z</time></trkpt><trkpt lat="40.364578096802894" lon="15.224269511924234"><ele>878.0000000000001</ele><time>2026-03-29T12:09:32.999Z</time></trkpt><trkpt lat="40.36457965383898" lon="15.224142673693406"><ele>878.0</ele><time>2026-03-29T12:09:34.999Z</time></trkpt><trkpt lat="40.364613963942425" lon="15.224051323183534"><ele>877.3333333333334</ele><time>2026-03-29T12:09:36.999Z</time></trkpt><trkpt lat="40.364627616394245" lon="15.223958321155523"><ele>876.6666666666667</ele><time>2026-03-29T12:09:38.999Z</time></trkpt><trkpt lat="40.36463240874786" lon="15.22385348643482"><ele>876.0</ele><time>2026-03-29T12:09:40.999Z</time></trkpt><trkpt lat="40.36463193955438" lon="15.22373524933111"><ele>875.3333333333333</ele><time>2026-03-29T12:09:50Z</time></trkpt><trkpt lat="40.36465460834819" lon="15.223626802031603"><ele>874.6666666666666</ele><time>2026-03-29T12:09:52Z</time></trkpt><trkpt lat="40.364653411633704" lon="15.223528064944896"><ele>874.0</ele><time>2026-03-29T12:09:54Z</time></trkpt><trkpt lat="40.36469973898597" lon="15.223415200414921"><ele>873.6</ele><time>2026-03-29T12:09:56Z</time></trkpt><trkpt lat="40.36472822167905" lon="15.223301255504085"><ele>873.2</ele><time>2026-03-29T12:09:58Z</time></trkpt><trkpt lat="40.364733916277586" lon="15.223157038270744"><ele>872.8000000000001</ele><time>2026-03-29T12:10:00Z</time></trkpt><trkpt lat="40.364711197424334" lon="15.222987917294029"><ele>872.4000000000001</ele><time>2026-03-29T12:10:02Z</time></trkpt><trkpt lat="40.36475418061892" lon="15.222870235626614"><ele>872.0</ele><time>2026-03-29T12:10:04Z</time></trkpt><trkpt lat="40.364778511495146" lon="15.222780897015213"><ele>872.0000000000001</ele><time>2026-03-29T12:10:05Z</time></trkpt><trkpt lat="40.364797551828715" lon="15.22270044938915"><ele>872.0</ele><time>2026-03-29T12:10:06Z</time></trkpt><trkpt lat="40.36479179676504" lon="15.222588523444799"><ele>872.0</ele><time>2026-03-29T12:10:07Z</time></trkpt><trkpt lat="40.36479232929277" lon="15.22248612290679"><ele>872.0</ele><time>2026-03-29T12:10:08Z</time></trkpt><trkpt lat="40.364791206374704" lon="15.22238381835464"><ele>872.0000000000001</ele><time>2026-03-29T12:10:09Z</time></trkpt><trkpt lat="40.36483171677749" lon="15.222217701240142"><ele>872.0</ele><time>2026-03-29T12:10:11Z</time></trkpt><trkpt lat="40.36483570111839" lon="15.22212483657797"><ele>871.5000000000001</ele><time>2026-03-29T12:10:12Z</time></trkpt><trkpt lat="40.3648539461808" lon="15.221972123566092"><ele>871.0</ele><time>2026-03-29T12:10:14Z</time></trkpt><trkpt lat="40.36486377397585" lon="15.221890338250514"><ele>870.5</ele><time>2026-03-29T12:10:15Z</time></trkpt><trkpt lat="40.36489004296267" lon="15.2218000347622"><ele>870.0</ele><time>2026-03-29T12:10:16Z</time></trkpt><trkpt lat="40.36490664514726" lon="15.221702706018835"><ele>869.5000000000001</ele><time>2026-03-29T12:10:17Z</time></trkpt><trkpt lat="40.36491451486749" lon="15.221602277587575"><ele>869.0</ele><time>2026-03-29T12:10:18Z</time></trkpt><trkpt lat="40.36491023652629" lon="15.221509871707475"><ele>869.0</ele><time>2026-03-29T12:10:19Z</time></trkpt><trkpt lat="40.36491689688122" lon="15.221338181962723"><ele>869.0000000000001</ele><time>2026-03-29T12:10:21Z</time></trkpt><trkpt lat="40.36492357914157" lon="15.221251032002415"><ele>869.0000000000001</ele><time>2026-03-29T12:10:22Z</time></trkpt><trkpt lat="40.36496086669512" lon="15.221077552049472"><ele>869.0</ele><time>2026-03-29T12:10:24Z</time></trkpt><trkpt lat="40.364982090173875" lon="15.220997097965782"><ele>869.0</ele><time>2026-03-29T12:10:25Z</time></trkpt><trkpt lat="40.36499941887001" lon="15.22090986204898"><ele>869.0</ele><time>2026-03-29T12:10:26Z</time></trkpt><trkpt lat="40.365009668781966" lon="15.220744328149674"><ele>869.0000000000001</ele><time>2026-03-29T12:10:28Z</time></trkpt><trkpt lat="40.36502769811694" lon="15.2206528197441"><ele>869.0000000000001</ele><time>2026-03-29T12:10:29Z</time></trkpt><trkpt lat="40.365030638387765" lon="15.220569041553228"><ele>869.0</ele><time>2026-03-29T12:10:30Z</time></trkpt><trkpt lat="40.36505852793008" lon="15.220474270023173"><ele>869.0</ele><time>2026-03-29T12:10:31Z</time></trkpt><trkpt lat="40.365079262355586" lon="15.220329322311265"><ele>869.0</ele><time>2026-03-29T12:10:33Z</time></trkpt><trkpt lat="40.3650876882045" lon="15.220169279740155"><ele>869.0</ele><time>2026-03-29T12:10:35Z</time></trkpt><trkpt lat="40.3651109061329" lon="15.220019074750086"><ele>869.0</ele><time>2026-03-29T12:10:37Z</time></trkpt><trkpt lat="40.365150822616265" lon="15.219879174148863"><ele>869.0</ele><time>2026-03-29T12:10:39Z</time></trkpt><trkpt lat="40.36517991107074" lon="15.219700495065876"><ele>870.0</ele><time>2026-03-29T12:10:41Z</time></trkpt><trkpt lat="40.36522644738173" lon="15.219557893115423"><ele>871.0000000000001</ele><time>2026-03-29T12:10:43Z</time></trkpt><trkpt lat="40.36527019726722" lon="15.219415849983351"><ele>872.0000000000001</ele><time>2026-03-29T12:10:45Z</time></trkpt><trkpt lat="40.36531030992057" lon="15.219269045110607"><ele>873.0</ele><time>2026-03-29T12:10:47Z</time></trkpt><trkpt lat="40.36534253208963" lon="15.219177133667124"><ele>874.0</ele><time>2026-03-29T12:10:48Z</time></trkpt><trkpt lat="40.36537068367388" lon="15.21905321202212"><ele>874.8000000000001</ele><time>2026-03-29T12:10:50Z</time></trkpt><trkpt lat="40.365392949827914" lon="15.218955393200494"><ele>875.6000000000001</ele><time>2026-03-29T12:10:52Z</time></trkpt><trkpt lat="40.36538812319608" lon="15.218792071640552"><ele>876.4</ele><time>2026-03-29T12:10:54Z</time></trkpt><trkpt lat="40.36535435160345" lon="15.218644621263516"><ele>877.2</ele><time>2026-03-29T12:10:56Z</time></trkpt><trkpt lat="40.36533908394837" lon="15.218509440513454"><ele>878.0</ele><time>2026-03-29T12:10:58Z</time></trkpt><trkpt lat="40.365336940914126" lon="15.218397560351283"><ele>878.0</ele><time>2026-03-29T12:11:00Z</time></trkpt><trkpt lat="40.36538681986209" lon="15.218280525761951"><ele>878.0</ele><time>2026-03-29T12:11:02Z</time></trkpt><trkpt lat="40.365435039713404" lon="15.218203742212628"><ele>878.0</ele><time>2026-03-29T12:11:04Z</time></trkpt><trkpt lat="40.3655329289568" lon="15.218145677077706"><ele>878.0</ele><time>2026-03-29T12:11:06Z</time></trkpt><trkpt lat="40.36561069631905" lon="15.21811456899994"><ele>878.0</ele><time>2026-03-29T12:11:08Z</time></trkpt><trkpt lat="40.36571482653432" lon="15.218103573678528"><ele>877.8333333333334</ele><time>2026-03-29T12:11:10Z</time></trkpt><trkpt lat="40.36581017664822" lon="15.218073440619717"><ele>877.6666666666667</ele><time>2026-03-29T12:11:12Z</time></trkpt><trkpt lat="40.365916134833725" lon="15.218028616141034"><ele>877.5</ele><time>2026-03-29T12:11:14Z</time></trkpt><trkpt lat="40.36601062575296" lon="15.217997757559434"><ele>877.3333333333333</ele><time>2026-03-29T12:11:16Z</time></trkpt><trkpt lat="40.36608306505235" lon="15.217977564671347"><ele>877.1666666666666</ele><time>2026-03-29T12:11:18Z</time></trkpt><trkpt lat="40.36614825442779" lon="15.217976387019721"><ele>877.0</ele><time>2026-03-29T12:11:21Z</time></trkpt><trkpt lat="40.3662467941025" lon="15.217919746394537"><ele>877.0</ele><time>2026-03-29T12:11:48Z</time></trkpt><trkpt lat="40.36633971154706" lon="15.217863949967928"><ele>877.0</ele><time>2026-03-29T12:11:50Z</time></trkpt><trkpt lat="40.36639540034713" lon="15.217817413764877"><ele>877.0</ele><time>2026-03-29T12:11:51Z</time></trkpt><trkpt lat="40.36649375312925" lon="15.217741677547139"><ele>877.0</ele><time>2026-03-29T12:11:53Z</time></trkpt><trkpt lat="40.366589656656004" lon="15.21763144737652"><ele>877.0</ele><time>2026-03-29T12:11:55Z</time></trkpt><trkpt lat="40.366674284468566" lon="15.217511897807256"><ele>877.2</ele><time>2026-03-29T12:11:57Z</time></trkpt><trkpt lat="40.366732616828514" lon="15.217460558574995"><ele>877.4000000000001</ele><time>2026-03-29T12:11:58Z</time></trkpt><trkpt lat="40.366784444819736" lon="15.217398441927532"><ele>877.5999999999999</ele><time>2026-03-29T12:11:59Z</time></trkpt><trkpt lat="40.36687730833694" lon="15.217300057805913"><ele>877.8</ele><time>2026-03-29T12:12:01Z</time></trkpt><trkpt lat="40.36698043374995" lon="15.217193274011168"><ele>878.0</ele><time>2026-03-29T12:12:03Z</time></trkpt><trkpt lat="40.367041646198636" lon="15.217137892024754"><ele>878.0000000000001</ele><time>2026-03-29T12:12:04Z</time></trkpt><trkpt lat="40.36709405783867" lon="15.217073976098373"><ele>878.0</ele><time>2026-03-29T12:12:05Z</time></trkpt><trkpt lat="40.36715618396991" lon="15.216999498536545"><ele>878.0</ele><time>2026-03-29T12:12:06Z</time></trkpt><trkpt lat="40.367221468001254" lon="15.216963318699563"><ele>878.0</ele><time>2026-03-29T12:12:07Z</time></trkpt><trkpt lat="40.36730861772224" lon="15.216885102234436"><ele>878.0000000000001</ele><time>2026-03-29T12:12:09Z</time></trkpt><trkpt lat="40.36736403286844" lon="15.216789826731993"><ele>878.0</ele><time>2026-03-29T12:12:11Z</time></trkpt><trkpt lat="40.36741864539833" lon="15.216706291330286"><ele>876.3333333333334</ele><time>2026-03-29T12:12:13Z</time></trkpt><trkpt lat="40.36745224421593" lon="15.216600187971697"><ele>874.6666666666667</ele><time>2026-03-29T12:12:15Z</time></trkpt><trkpt lat="40.367514521576275" lon="15.216487665609836"><ele>873.0</ele><time>2026-03-29T12:12:17Z</time></trkpt><trkpt lat="40.36757677371844" lon="15.21643124167593"><ele>871.3333333333333</ele><time>2026-03-29T12:12:19Z</time></trkpt><trkpt lat="40.36758049525382" lon="15.216342860422795"><ele>869.6666666666666</ele><time>2026-03-29T12:12:20Z</time></trkpt><trkpt lat="40.3676163489619" lon="15.21622476216247"><ele>868.0</ele><time>2026-03-29T12:12:22Z</time></trkpt><trkpt lat="40.36764105244834" lon="15.216142428929048"><ele>867.8</ele><time>2026-03-29T12:12:23Z</time></trkpt><trkpt lat="40.367669733035676" lon="15.216023574740271"><ele>867.5999999999999</ele><time>2026-03-29T12:12:25Z</time></trkpt><trkpt lat="40.36773256624568" lon="15.215924013097636"><ele>867.4000000000001</ele><time>2026-03-29T12:12:27Z</time></trkpt><trkpt lat="40.36779987771797" lon="15.21581525673291"><ele>867.2</ele><time>2026-03-29T12:12:29Z</time></trkpt><trkpt lat="40.36785457150256" lon="15.21571137305816"><ele>867.0</ele><time>2026-03-29T12:12:31Z</time></trkpt><trkpt lat="40.36790596716057" lon="15.215639155291733"><ele>867.8</ele><time>2026-03-29T12:12:33Z</time></trkpt><trkpt lat="40.367994956197556" lon="15.215615203568035"><ele>868.6</ele><time>2026-03-29T12:12:35Z</time></trkpt><trkpt lat="40.36808691374349" lon="15.215551659449464"><ele>869.3999999999999</ele><time>2026-03-29T12:12:38Z</time></trkpt><trkpt lat="40.36818034778588" lon="15.21549612762108"><ele>870.1999999999999</ele><time>2026-03-29T12:12:40Z</time></trkpt><trkpt lat="40.36828203157984" lon="15.215454668697936"><ele>871.0</ele><time>2026-03-29T12:12:42Z</time></trkpt><trkpt lat="40.368391953376054" lon="15.215418661111276"><ele>871.0</ele><time>2026-03-29T12:12:44Z</time></trkpt><trkpt lat="40.36845547766791" lon="15.215392529934514"><ele>871.0</ele><time>2026-03-29T12:12:46Z</time></trkpt><trkpt lat="40.36852697357497" lon="15.215370906006278"><ele>871.0</ele><time>2026-03-29T12:12:47Z</time></trkpt><trkpt lat="40.36858888539113" lon="15.21535244134498"><ele>871.0</ele><time>2026-03-29T12:12:48Z</time></trkpt><trkpt lat="40.36867236215566" lon="15.215324497640426"><ele>871.0</ele><time>2026-03-29T12:12:49Z</time></trkpt><trkpt lat="40.3687423965398" lon="15.215327875543455"><ele>871.0</ele><time>2026-03-29T12:12:50Z</time></trkpt><trkpt lat="40.36881155145386" lon="15.215329787409345"><ele>871.0</ele><time>2026-03-29T12:12:51Z</time></trkpt><trkpt lat="40.368880563263566" lon="15.215328463852751"><ele>871.1999999999999</ele><time>2026-03-29T12:12:52Z</time></trkpt><trkpt lat="40.368961737247595" lon="15.215323106125823"><ele>871.3999999999999</ele><time>2026-03-29T12:12:54Z</time></trkpt><trkpt lat="40.369041428285435" lon="15.215317495545987"><ele>871.6</ele><time>2026-03-29T12:12:55Z</time></trkpt><trkpt lat="40.36915554317112" lon="15.215304896417761"><ele>871.8</ele><time>2026-03-29T12:12:57Z</time></trkpt><trkpt lat="40.3692669234688" lon="15.215283212896471"><ele>872.0</ele><time>2026-03-29T12:12:59Z</time></trkpt><trkpt lat="40.36934347716539" lon="15.215317214076462"><ele>872.0</ele><time>2026-03-29T12:13:00Z</time></trkpt><trkpt lat="40.36946002258072" lon="15.215291468704388"><ele>872.0</ele><time>2026-03-29T12:13:02Z</time></trkpt><trkpt lat="40.369546483699786" lon="15.215261930410648"><ele>872.0</ele><time>2026-03-29T12:13:04Z</time></trkpt><trkpt lat="40.36966907088337" lon="15.215275444762423"><ele>872.0</ele><time>2026-03-29T12:13:06Z</time></trkpt><trkpt lat="40.36977630434531" lon="15.215258106359979"><ele>872.0</ele><time>2026-03-29T12:13:08Z</time></trkpt><trkpt lat="40.36984899176188" lon="15.21526888178523"><ele>872.6666666666667</ele><time>2026-03-29T12:13:09Z</time></trkpt><trkpt lat="40.3699332553962" lon="15.21528780633799"><ele>873.3333333333334</ele><time>2026-03-29T12:13:11Z</time></trkpt><trkpt lat="40.37001599092765" lon="15.215300553849742"><ele>874.0</ele><time>2026-03-29T12:13:12Z</time></trkpt><trkpt lat="40.37008974033782" lon="15.215303496962179"><ele>874.6666666666667</ele><time>2026-03-29T12:13:14Z</time></trkpt><trkpt lat="40.37021441747349" lon="15.215324534635291"><ele>875.3333333333334</ele><time>2026-03-29T12:13:16Z</time></trkpt><trkpt lat="40.37027864862683" lon="15.215326619261448"><ele>876.0</ele><time>2026-03-29T12:13:17Z</time></trkpt><trkpt lat="40.37035689534959" lon="15.21534706895552"><ele>876.0</ele><time>2026-03-29T12:13:19Z</time></trkpt><trkpt lat="40.37043309305551" lon="15.215386713928135"><ele>875.9999999999999</ele><time>2026-03-29T12:13:22Z</time></trkpt><trkpt lat="40.37051796486776" lon="15.215373922024378"><ele>875.9999999999999</ele><time>2026-03-29T12:13:24Z</time></trkpt><trkpt lat="40.370627603449904" lon="15.215339369372696"><ele>876.0</ele><time>2026-03-29T12:13:26Z</time></trkpt><trkpt lat="40.37072905563139" lon="15.215341584971348"><ele>876.0</ele><time>2026-03-29T12:13:28Z</time></trkpt><trkpt lat="40.370814725104076" lon="15.215402862024414"><ele>876.5999999999999</ele><time>2026-03-29T12:13:30Z</time></trkpt><trkpt lat="40.37089558810643" lon="15.215436648863541"><ele>877.1999999999999</ele><time>2026-03-29T12:13:31Z</time></trkpt><trkpt lat="40.370978637918746" lon="15.215515335628572"><ele>877.8000000000001</ele><time>2026-03-29T12:13:33Z</time></trkpt><trkpt lat="40.37105328522611" lon="15.21560061440417"><ele>878.4000000000001</ele><time>2026-03-29T12:13:35Z</time></trkpt><trkpt lat="40.37110393501272" lon="15.215699365920115"><ele>879.0</ele><time>2026-03-29T12:13:37Z</time></trkpt><trkpt lat="40.371171413384666" lon="15.21574229891544"><ele>874.6666666666666</ele><time>2026-03-29T12:13:39Z</time></trkpt><trkpt lat="40.37125668511804" lon="15.215738781959574"><ele>870.3333333333333</ele><time>2026-03-29T12:13:41Z</time></trkpt><trkpt lat="40.37133815322311" lon="15.215701042404593"><ele>866.0</ele><time>2026-03-29T12:13:43Z</time></trkpt><trkpt lat="40.37141086178474" lon="15.21571242534032"><ele>861.6666666666666</ele><time>2026-03-29T12:13:44Z</time></trkpt><trkpt lat="40.37151410773148" lon="15.215714748508228"><ele>857.3333333333333</ele><time>2026-03-29T12:13:46Z</time></trkpt><trkpt lat="40.371600045646304" lon="15.215727659254542"><ele>853.0</ele><time>2026-03-29T12:13:48Z</time></trkpt><trkpt lat="40.37167863053769" lon="15.215750286806298"><ele>852.3333333333333</ele><time>2026-03-29T12:13:50Z</time></trkpt><trkpt lat="40.37175061097909" lon="15.215811844950538"><ele>851.6666666666666</ele><time>2026-03-29T12:13:52Z</time></trkpt><trkpt lat="40.371823915272714" lon="15.215859562017158"><ele>851.0</ele><time>2026-03-29T12:13:54Z</time></trkpt><trkpt lat="40.37192038600416" lon="15.21583526994044"><ele>850.3333333333333</ele><time>2026-03-29T12:13:58Z</time></trkpt><trkpt lat="40.372018868141446" lon="15.215758282333752"><ele>849.6666666666666</ele><time>2026-03-29T12:14:00Z</time></trkpt><trkpt lat="40.372076887579404" lon="15.215715476739799"><ele>849.0</ele><time>2026-03-29T12:14:02Z</time></trkpt><trkpt lat="40.372174368345085" lon="15.215690716799411"><ele>848.3333333333334</ele><time>2026-03-29T12:14:04Z</time></trkpt><trkpt lat="40.37225286770786" lon="15.21574099823844"><ele>847.6666666666667</ele><time>2026-03-29T12:14:06Z</time></trkpt><trkpt lat="40.372342206373766" lon="15.215806834749351"><ele>847.0</ele><time>2026-03-29T12:14:08Z</time></trkpt><trkpt lat="40.37243063032695" lon="15.215824406228974"><ele>846.3333333333334</ele><time>2026-03-29T12:14:11Z</time></trkpt><trkpt lat="40.37249709394419" lon="15.215812821655046"><ele>845.6666666666667</ele><time>2026-03-29T12:14:13Z</time></trkpt><trkpt lat="40.372563704823044" lon="15.215808821427586"><ele>845.0</ele><time>2026-03-29T12:14:15Z</time></trkpt><trkpt lat="40.372634877568935" lon="15.215811964946566"><ele>845.0000000000001</ele><time>2026-03-29T12:14:17Z</time></trkpt><trkpt lat="40.372719936309814" lon="15.215811182454678"><ele>845.0</ele><time>2026-03-29T12:14:19Z</time></trkpt><trkpt lat="40.372796697030026" lon="15.215797129720924"><ele>845.0</ele><time>2026-03-29T12:14:21Z</time></trkpt><trkpt lat="40.37289472981697" lon="15.21580150765172"><ele>845.0</ele><time>2026-03-29T12:14:23Z</time></trkpt><trkpt lat="40.372974744448285" lon="15.215821312880404"><ele>845.0000000000001</ele><time>2026-03-29T12:14:25Z</time></trkpt><trkpt lat="40.373070268826595" lon="15.21586097807686"><ele>845.0</ele><time>2026-03-29T12:14:30Z</time></trkpt><trkpt lat="40.37313945549328" lon="15.21587526277349"><ele>844.8</ele><time>2026-03-29T12:14:32Z</time></trkpt><trkpt lat="40.37322731045484" lon="15.215879376244319"><ele>844.6</ele><time>2026-03-29T12:14:34Z</time></trkpt><trkpt lat="40.373314393705506" lon="15.215901885292128"><ele>844.4000000000001</ele><time>2026-03-29T12:14:37Z</time></trkpt><trkpt lat="40.373437065227485" lon="15.215923706930521"><ele>844.2</ele><time>2026-03-29T12:14:40Z</time></trkpt><trkpt lat="40.373534714066224" lon="15.215916987549802"><ele>844.0</ele><time>2026-03-29T12:14:43Z</time></trkpt><trkpt lat="40.373605444507035" lon="15.215927618557544"><ele>843.9999999999999</ele><time>2026-03-29T12:14:45Z</time></trkpt><trkpt lat="40.37367404756366" lon="15.215931395681586"><ele>844.0</ele><time>2026-03-29T12:14:47Z</time></trkpt><trkpt lat="40.37374402769485" lon="15.215944883643337"><ele>844.0</ele><time>2026-03-29T12:14:49Z</time></trkpt><trkpt lat="40.37383607145568" lon="15.215974163245125"><ele>844.0</ele><time>2026-03-29T12:14:51Z</time></trkpt><trkpt lat="40.373931441877374" lon="15.215974673654078"><ele>843.9999999999999</ele><time>2026-03-29T12:14:55Z</time></trkpt><trkpt lat="40.37401204273313" lon="15.216005606260987"><ele>844.0</ele><time>2026-03-29T12:14:57Z</time></trkpt><trkpt lat="40.374074053482595" lon="15.216064017367165"><ele>844.6666666666666</ele><time>2026-03-29T12:14:59Z</time></trkpt><trkpt lat="40.374157585585536" lon="15.216088872524606"><ele>845.3333333333333</ele><time>2026-03-29T12:15:01Z</time></trkpt><trkpt lat="40.37422528976864" lon="15.216129183719373"><ele>846.0</ele><time>2026-03-29T12:15:03Z</time></trkpt><trkpt lat="40.374304452931106" lon="15.216217385012694"><ele>846.6666666666667</ele><time>2026-03-29T12:15:05Z</time></trkpt><trkpt lat="40.37436081831031" lon="15.216255406883134"><ele>847.3333333333334</ele><time>2026-03-29T12:15:07Z</time></trkpt><trkpt lat="40.37441741879882" lon="15.216293777139358"><ele>848.0</ele><time>2026-03-29T12:15:08Z</time></trkpt><trkpt lat="40.37449552432896" lon="15.216354621817354"><ele>848.0</ele><time>2026-03-29T12:15:11Z</time></trkpt><trkpt lat="40.374568180490975" lon="15.216441231868043"><ele>848.0</ele><time>2026-03-29T12:15:13Z</time></trkpt><trkpt lat="40.374633354412715" lon="15.216521924171332"><ele>848.0</ele><time>2026-03-29T12:15:15Z</time></trkpt><trkpt lat="40.374693256460574" lon="15.21659400613294"><ele>848.0</ele><time>2026-03-29T12:15:17Z</time></trkpt><trkpt lat="40.37476131945289" lon="15.216672460725183"><ele>848.0</ele><time>2026-03-29T12:15:19Z</time></trkpt><trkpt lat="40.37484052667582" lon="15.216734841806682"><ele>845.0</ele><time>2026-03-29T12:15:21Z</time></trkpt><trkpt lat="40.37489358842495" lon="15.216796729220114"><ele>842.0</ele><time>2026-03-29T12:15:23Z</time></trkpt><trkpt lat="40.37495549250849" lon="15.216860926008104"><ele>839.0</ele><time>2026-03-29T12:15:25Z</time></trkpt><trkpt lat="40.37501272223549" lon="15.216934229525755"><ele>836.0</ele><time>2026-03-29T12:15:27Z</time></trkpt><trkpt lat="40.37506340498985" lon="15.217015053829684"><ele>833.0</ele><time>2026-03-29T12:15:29Z</time></trkpt><trkpt lat="40.37511114207954" lon="15.217079640945611"><ele>830.0</ele><time>2026-03-29T12:15:31Z</time></trkpt><trkpt lat="40.375162182637695" lon="15.21713659511546"><ele>827.0</ele><time>2026-03-29T12:15:48.001Z</time></trkpt><trkpt lat="40.37525046551773" lon="15.217189308650921"><ele>827.0</ele><time>2026-03-29T12:15:53.001Z</time></trkpt><trkpt lat="40.37535223590891" lon="15.217239830738917"><ele>827.0</ele><time>2026-03-29T12:15:56.001Z</time></trkpt><trkpt lat="40.37545361559627" lon="15.217286809388634"><ele>827.0</ele><time>2026-03-29T12:15:58.001Z</time></trkpt><trkpt lat="40.37555445863504" lon="15.217307698154622"><ele>827.0</ele><time>2026-03-29T12:16:00.001Z</time></trkpt><trkpt lat="40.37564343986518" lon="15.217323833810095"><ele>827.0</ele><time>2026-03-29T12:16:02.001Z</time></trkpt><trkpt lat="40.37570195325388" lon="15.217362565176517"><ele>824.0</ele><time>2026-03-29T12:16:03.001Z</time></trkpt><trkpt lat="40.37576140868905" lon="15.21741397003787"><ele>821.0</ele><time>2026-03-29T12:16:04.001Z</time></trkpt><trkpt lat="40.375869000539005" lon="15.217465529119623"><ele>818.0</ele><time>2026-03-29T12:16:06Z</time></trkpt><trkpt lat="40.375983016419774" lon="15.217489407360073"><ele>815.0</ele><time>2026-03-29T12:16:09Z</time></trkpt><trkpt lat="40.37605902486182" lon="15.21749331713048"><ele>812.0</ele><time>2026-03-29T12:16:11Z</time></trkpt><trkpt lat="40.376123674425834" lon="15.21743384962981"><ele>812.0</ele><time>2026-03-29T12:16:13Z</time></trkpt><trkpt lat="40.37619186589736" lon="15.217373698574265"><ele>812.0</ele><time>2026-03-29T12:16:15Z</time></trkpt><trkpt lat="40.37627213673248" lon="15.217355585222128"><ele>812.0</ele><time>2026-03-29T12:16:17Z</time></trkpt><trkpt lat="40.37636883698422" lon="15.217290419602138"><ele>812.0</ele><time>2026-03-29T12:16:19Z</time></trkpt><trkpt lat="40.376439407974765" lon="15.21724166417935"><ele>812.0</ele><time>2026-03-29T12:16:20Z</time></trkpt><trkpt lat="40.37652750523345" lon="15.217165067395655"><ele>814.0</ele><time>2026-03-29T12:16:22Z</time></trkpt><trkpt lat="40.37660821724299" lon="15.217154091192407"><ele>816.0</ele><time>2026-03-29T12:16:24Z</time></trkpt><trkpt lat="40.376641873599034" lon="15.217007490615948"><ele>818.0</ele><time>2026-03-29T12:16:26Z</time></trkpt><trkpt lat="40.37672524440525" lon="15.216928257985046"><ele>820.0</ele><time>2026-03-29T12:16:28Z</time></trkpt><trkpt lat="40.376764961980456" lon="15.21682748689761"><ele>822.0</ele><time>2026-03-29T12:16:30Z</time></trkpt><trkpt lat="40.37686112370993" lon="15.216740700295468"><ele>822.0</ele><time>2026-03-29T12:16:32Z</time></trkpt><trkpt lat="40.37690522380706" lon="15.216636804699085"><ele>822.0</ele><time>2026-03-29T12:16:34Z</time></trkpt><trkpt lat="40.37695901863336" lon="15.21654251827674"><ele>822.0</ele><time>2026-03-29T12:16:36Z</time></trkpt><trkpt lat="40.377008846604" lon="15.216485717376337"><ele>822.0</ele><time>2026-03-29T12:16:37Z</time></trkpt><trkpt lat="40.37707829638582" lon="15.216401063615553"><ele>822.0</ele><time>2026-03-29T12:16:39Z</time></trkpt><trkpt lat="40.377171510433044" lon="15.21632932265008"><ele>822.0</ele><time>2026-03-29T12:16:41Z</time></trkpt><trkpt lat="40.37722764040014" lon="15.216270847095744"><ele>819.0</ele><time>2026-03-29T12:16:43Z</time></trkpt><trkpt lat="40.37730108010979" lon="15.216213512361344"><ele>816.0</ele><time>2026-03-29T12:16:45Z</time></trkpt><trkpt lat="40.37738713170622" lon="15.216161617981443"><ele>813.0</ele><time>2026-03-29T12:16:46Z</time></trkpt><trkpt lat="40.37744278628589" lon="15.216111202070946"><ele>810.0</ele><time>2026-03-29T12:16:47Z</time></trkpt><trkpt lat="40.37752858302919" lon="15.216019527326356"><ele>807.0</ele><time>2026-03-29T12:16:49Z</time></trkpt><trkpt lat="40.377589951964524" lon="15.215922040159066"><ele>807.0</ele><time>2026-03-29T12:16:51Z</time></trkpt><trkpt lat="40.37765029554215" lon="15.215868419268967"><ele>807.0</ele><time>2026-03-29T12:16:52Z</time></trkpt><trkpt lat="40.37771276717393" lon="15.215760545301263"><ele>807.0</ele><time>2026-03-29T12:16:54Z</time></trkpt><trkpt lat="40.37775423534253" lon="15.215636926987578"><ele>807.0</ele><time>2026-03-29T12:16:56Z</time></trkpt><trkpt lat="40.37775295137067" lon="15.215533274092497"><ele>807.0</ele><time>2026-03-29T12:16:58Z</time></trkpt><trkpt lat="40.37780512050899" lon="15.215471530812955"><ele>807.0</ele><time>2026-03-29T12:16:59Z</time></trkpt><trkpt lat="40.37785376554713" lon="15.215404062706789"><ele>803.2</ele><time>2026-03-29T12:17:00Z</time></trkpt><trkpt lat="40.37787045478581" lon="15.21531954703129"><ele>799.4000000000001</ele><time>2026-03-29T12:17:02Z</time></trkpt><trkpt lat="40.37792390218997" lon="15.215183740462276"><ele>795.5999999999999</ele><time>2026-03-29T12:17:04Z</time></trkpt><trkpt lat="40.37798608519321" lon="15.215061031699628"><ele>791.8</ele><time>2026-03-29T12:17:06Z</time></trkpt><trkpt lat="40.37805210920839" lon="15.214960136572584"><ele>788.0</ele><time>2026-03-29T12:17:08Z</time></trkpt><trkpt lat="40.37811091024344" lon="15.214891326131733"><ele>791.2</ele><time>2026-03-29T12:17:09Z</time></trkpt><trkpt lat="40.3781828610482" lon="15.214784237914174"><ele>794.4</ele><time>2026-03-29T12:17:11Z</time></trkpt><trkpt lat="40.37824931412218" lon="15.214684454605665"><ele>797.6</ele><time>2026-03-29T12:17:13Z</time></trkpt><trkpt lat="40.37828681106855" lon="15.214594591000537"><ele>800.8000000000001</ele><time>2026-03-29T12:17:15Z</time></trkpt><trkpt lat="40.378367851502674" lon="15.214497172549287"><ele>804.0</ele><time>2026-03-29T12:17:17Z</time></trkpt><trkpt lat="40.37842228612839" lon="15.214444170724063"><ele>804.0</ele><time>2026-03-29T12:17:18Z</time></trkpt><trkpt lat="40.37847550422716" lon="15.21438782717841"><ele>804.0</ele><time>2026-03-29T12:17:19Z</time></trkpt><trkpt lat="40.378519617917526" lon="15.214255256368471"><ele>804.0</ele><time>2026-03-29T12:17:21Z</time></trkpt><trkpt lat="40.37855131888653" lon="15.2141541421905"><ele>804.0</ele><time>2026-03-29T12:17:23Z</time></trkpt><trkpt lat="40.37862233448083" lon="15.214080816426815"><ele>804.0</ele><time>2026-03-29T12:17:24Z</time></trkpt><trkpt lat="40.37869846344852" lon="15.214006169630169"><ele>804.0</ele><time>2026-03-29T12:17:26Z</time></trkpt><trkpt lat="40.37878881887943" lon="15.213906391447447"><ele>798.6</ele><time>2026-03-29T12:17:28Z</time></trkpt><trkpt lat="40.37886407216434" lon="15.213803168917822"><ele>793.2</ele><time>2026-03-29T12:17:30Z</time></trkpt><trkpt lat="40.37889523707062" lon="15.213710629940042"><ele>787.8000000000001</ele><time>2026-03-29T12:17:31Z</time></trkpt><trkpt lat="40.378960281113805" lon="15.21356222433955"><ele>782.4000000000001</ele><time>2026-03-29T12:17:33Z</time></trkpt><trkpt lat="40.37900773366758" lon="15.213457797775211"><ele>777.0</ele><time>2026-03-29T12:17:35Z</time></trkpt><trkpt lat="40.37903397197087" lon="15.213357829596918"><ele>777.0</ele><time>2026-03-29T12:17:37Z</time></trkpt><trkpt lat="40.37906651097818" lon="15.213272218480114"><ele>777.0</ele><time>2026-03-29T12:17:48.001Z</time></trkpt><trkpt lat="40.3790971532416" lon="15.21316066261783"><ele>777.0</ele><time>2026-03-29T12:17:51.001Z</time></trkpt><trkpt lat="40.37910835811244" lon="15.213073545079949"><ele>777.0</ele><time>2026-03-29T12:17:53.001Z</time></trkpt><trkpt lat="40.37910219065863" lon="15.212946516850886"><ele>777.0</ele><time>2026-03-29T12:17:55.001Z</time></trkpt><trkpt lat="40.37909781756922" lon="15.21284250592836"><ele>777.0</ele><time>2026-03-29T12:17:58.001Z</time></trkpt><trkpt lat="40.37907876699333" lon="15.21271898978823"><ele>778.0</ele><time>2026-03-29T12:17:59.001Z</time></trkpt><trkpt lat="40.37911068485896" lon="15.212557490249301"><ele>779.0</ele><time>2026-03-29T12:18:01.001Z</time></trkpt><trkpt lat="40.37916273714591" lon="15.212463114874003"><ele>780.0</ele><time>2026-03-29T12:18:03Z</time></trkpt><trkpt lat="40.37923364667045" lon="15.212365661586972"><ele>781.0</ele><time>2026-03-29T12:18:05Z</time></trkpt><trkpt lat="40.37929424645583" lon="15.212242698692458"><ele>782.0</ele><time>2026-03-29T12:18:07Z</time></trkpt><trkpt lat="40.37933683983205" lon="15.212110027446716"><ele>783.8</ele><time>2026-03-29T12:18:09Z</time></trkpt><trkpt lat="40.379366155806345" lon="15.211978086434971"><ele>785.6</ele><time>2026-03-29T12:18:11Z</time></trkpt><trkpt lat="40.379402420348015" lon="15.211867160905472"><ele>787.4</ele><time>2026-03-29T12:18:13Z</time></trkpt><trkpt lat="40.37942974774121" lon="15.211785356705036"><ele>789.1999999999999</ele><time>2026-03-29T12:18:14Z</time></trkpt><trkpt lat="40.379496212797584" lon="15.211681890745462"><ele>791.0</ele><time>2026-03-29T12:18:16Z</time></trkpt><trkpt lat="40.37953360071831" lon="15.211557827816046"><ele>793.4</ele><time>2026-03-29T12:18:19Z</time></trkpt><trkpt lat="40.37956814329612" lon="15.211445505963074"><ele>795.8</ele><time>2026-03-29T12:18:21Z</time></trkpt><trkpt lat="40.37961224986759" lon="15.211322904058148"><ele>798.1999999999999</ele><time>2026-03-29T12:18:23Z</time></trkpt><trkpt lat="40.379663897765894" lon="15.211227916684944"><ele>800.5999999999999</ele><time>2026-03-29T12:18:25Z</time></trkpt><trkpt lat="40.37971598500009" lon="15.211112416749804"><ele>803.0</ele><time>2026-03-29T12:18:27Z</time></trkpt><trkpt lat="40.379766066930266" lon="15.210994685332693"><ele>794.5999999999999</ele><time>2026-03-29T12:18:29Z</time></trkpt><trkpt lat="40.37983160562566" lon="15.210894211144563"><ele>786.1999999999999</ele><time>2026-03-29T12:18:31Z</time></trkpt><trkpt lat="40.37987106800927" lon="15.210818375368973"><ele>777.8</ele><time>2026-03-29T12:18:33Z</time></trkpt><trkpt lat="40.3798840038315" lon="15.210698493984168"><ele>769.4</ele><time>2026-03-29T12:18:35Z</time></trkpt><trkpt lat="40.37985478008793" lon="15.21057185508133"><ele>761.0</ele><time>2026-03-29T12:18:37Z</time></trkpt><trkpt lat="40.37986091435468" lon="15.210451020473625"><ele>761.0</ele><time>2026-03-29T12:18:39Z</time></trkpt><trkpt lat="40.37988073622618" lon="15.210308596589169"><ele>761.0</ele><time>2026-03-29T12:18:41Z</time></trkpt><trkpt lat="40.37991866137958" lon="15.210151723657905"><ele>761.0</ele><time>2026-03-29T12:18:43Z</time></trkpt><trkpt lat="40.37993698182318" lon="15.210067967451304"><ele>761.0</ele><time>2026-03-29T12:18:45Z</time></trkpt><trkpt lat="40.37997447759794" lon="15.209938189309323"><ele>761.0</ele><time>2026-03-29T12:18:47Z</time></trkpt><trkpt lat="40.38000627596845" lon="15.209827223615502"><ele>764.3333333333333</ele><time>2026-03-29T12:18:49Z</time></trkpt><trkpt lat="40.38006034833614" lon="15.20971942769281"><ele>767.6666666666666</ele><time>2026-03-29T12:18:51Z</time></trkpt><trkpt lat="40.380125202724244" lon="15.209640159883477"><ele>771.0</ele><time>2026-03-29T12:18:53Z</time></trkpt><trkpt lat="40.38019172742483" lon="15.209583228441202"><ele>774.3333333333333</ele><time>2026-03-29T12:18:55Z</time></trkpt><trkpt lat="40.38024938658085" lon="15.209541304353941"><ele>777.6666666666666</ele><time>2026-03-29T12:18:57Z</time></trkpt><trkpt lat="40.380314056887364" lon="15.209601042437024"><ele>781.0</ele><time>2026-03-29T12:19:00Z</time></trkpt><trkpt lat="40.380395715798365" lon="15.209666166952726"><ele>780.9999999999999</ele><time>2026-03-29T12:19:02Z</time></trkpt><trkpt lat="40.38046918998655" lon="15.20967098260183"><ele>781.0</ele><time>2026-03-29T12:19:03Z</time></trkpt><trkpt lat="40.380565713725815" lon="15.209730607857729"><ele>781.0</ele><time>2026-03-29T12:19:05Z</time></trkpt><trkpt lat="40.38063357302001" lon="15.209782536722729"><ele>781.0</ele><time>2026-03-29T12:19:08Z</time></trkpt><trkpt lat="40.38070530722849" lon="15.209808949375143"><ele>780.9999999999999</ele><time>2026-03-29T12:19:57.001Z</time></trkpt><trkpt lat="40.380816240519295" lon="15.209810646266725"><ele>781.0</ele><time>2026-03-29T12:20:00.001Z</time></trkpt><trkpt lat="40.38088081803721" lon="15.209803391963561"><ele>777.4</ele><time>2026-03-29T12:20:01.001Z</time></trkpt><trkpt lat="40.38100243959963" lon="15.209767285562453"><ele>773.8</ele><time>2026-03-29T12:20:03.001Z</time></trkpt><trkpt lat="40.38107347903906" lon="15.209724410952118"><ele>770.1999999999999</ele><time>2026-03-29T12:20:04Z</time></trkpt><trkpt lat="40.38116388521264" lon="15.209628471615371"><ele>766.5999999999999</ele><time>2026-03-29T12:20:06Z</time></trkpt><trkpt lat="40.38119529657443" lon="15.209549124289369"><ele>763.0</ele><time>2026-03-29T12:20:07Z</time></trkpt><trkpt lat="40.38121513221641" lon="15.209410837532182"><ele>763.0</ele><time>2026-03-29T12:20:09Z</time></trkpt><trkpt lat="40.38125851118644" lon="15.209273799007757"><ele>763.0</ele><time>2026-03-29T12:20:11Z</time></trkpt><trkpt lat="40.38129204484209" lon="15.209166492894694"><ele>763.0</ele><time>2026-03-29T12:20:13Z</time></trkpt><trkpt lat="40.381329248472" lon="15.209013746972973"><ele>763.0</ele><time>2026-03-29T12:20:16Z</time></trkpt><trkpt lat="40.38134990245786" lon="15.208904059705825"><ele>763.0</ele><time>2026-03-29T12:20:17Z</time></trkpt><trkpt lat="40.381376644348066" lon="15.208775567160243"><ele>759.4</ele><time>2026-03-29T12:20:18Z</time></trkpt><trkpt lat="40.38135137116473" lon="15.208648235457265"><ele>755.8</ele><time>2026-03-29T12:20:20Z</time></trkpt><trkpt lat="40.38136433771973" lon="15.2085521209074"><ele>752.2</ele><time>2026-03-29T12:20:21Z</time></trkpt><trkpt lat="40.38137038180578" lon="15.208456926488925"><ele>748.6</ele><time>2026-03-29T12:20:22Z</time></trkpt><trkpt lat="40.38140530166732" lon="15.20828309139534"><ele>745.0</ele><time>2026-03-29T12:20:24Z</time></trkpt><trkpt lat="40.38143574453619" lon="15.208198955154394"><ele>747.1666666666667</ele><time>2026-03-29T12:20:25Z</time></trkpt><trkpt lat="40.38144704518812" lon="15.208106800708887"><ele>749.3333333333334</ele><time>2026-03-29T12:20:26Z</time></trkpt><trkpt lat="40.38146557680032" lon="15.208018018333807"><ele>751.5</ele><time>2026-03-29T12:20:27Z</time></trkpt><trkpt lat="40.38148971252272" lon="15.207939923504917"><ele>753.6666666666666</ele><time>2026-03-29T12:20:28Z</time></trkpt><trkpt lat="40.381520455806566" lon="15.20784830632662"><ele>755.8333333333333</ele><time>2026-03-29T12:20:29Z</time></trkpt><trkpt lat="40.38155860888679" lon="15.207761670706958"><ele>758.0</ele><time>2026-03-29T12:20:30Z</time></trkpt><trkpt lat="40.38160498610674" lon="15.207603994359228"><ele>758.0000000000001</ele><time>2026-03-29T12:20:32Z</time></trkpt><trkpt lat="40.38164632988758" lon="15.207523562969508"><ele>758.0</ele><time>2026-03-29T12:20:33Z</time></trkpt><trkpt lat="40.38170211394584" lon="15.20744232526187"><ele>758.0</ele><time>2026-03-29T12:20:34Z</time></trkpt><trkpt lat="40.38174078189837" lon="15.207368218425115"><ele>758.0</ele><time>2026-03-29T12:20:35Z</time></trkpt><trkpt lat="40.38177642225455" lon="15.207299170891899"><ele>758.0</ele><time>2026-03-29T12:20:36Z</time></trkpt><trkpt lat="40.38180810515093" lon="15.207221876851523"><ele>758.0000000000001</ele><time>2026-03-29T12:20:37Z</time></trkpt><trkpt lat="40.38183630691113" lon="15.207113101395247"><ele>758.0</ele><time>2026-03-29T12:20:39Z</time></trkpt><trkpt lat="40.3818465954617" lon="15.20699758371305"><ele>760.3333333333333</ele><time>2026-03-29T12:20:41Z</time></trkpt><trkpt lat="40.38190675957283" lon="15.206924792031801"><ele>762.6666666666666</ele><time>2026-03-29T12:20:43Z</time></trkpt><trkpt lat="40.38194038689896" lon="15.206820279134494"><ele>765.0</ele><time>2026-03-29T12:20:44Z</time></trkpt><trkpt lat="40.38199560423223" lon="15.206752953774842"><ele>767.3333333333333</ele><time>2026-03-29T12:20:46Z</time></trkpt><trkpt lat="40.382040238244876" lon="15.206676253375875"><ele>769.6666666666666</ele><time>2026-03-29T12:20:49Z</time></trkpt><trkpt lat="40.382069109604394" lon="15.206584970093619"><ele>772.0</ele><time>2026-03-29T12:20:51Z</time></trkpt><trkpt lat="40.382102786429556" lon="15.206505577907837"><ele>774.2</ele><time>2026-03-29T12:21:46Z</time></trkpt><trkpt lat="40.38210697351799" lon="15.206403769012585"><ele>776.4000000000001</ele><time>2026-03-29T12:21:48Z</time></trkpt><trkpt lat="40.3821209684417" lon="15.20629123552686"><ele>778.5999999999999</ele><time>2026-03-29T12:21:50Z</time></trkpt><trkpt lat="40.38213065437073" lon="15.206167761973092"><ele>780.8</ele><time>2026-03-29T12:21:52Z</time></trkpt><trkpt lat="40.38215055468193" lon="15.206045751473203"><ele>783.0</ele><time>2026-03-29T12:21:54Z</time></trkpt><trkpt lat="40.38221570187389" lon="15.20592871545518"><ele>780.0</ele><time>2026-03-29T12:21:56.001Z</time></trkpt><trkpt lat="40.38225955860952" lon="15.20586798474088"><ele>777.0</ele><time>2026-03-29T12:21:57.001Z</time></trkpt><trkpt lat="40.38230964386095" lon="15.205749919187976"><ele>774.0</ele><time>2026-03-29T12:21:59.001Z</time></trkpt><trkpt lat="40.382327465305316" lon="15.205654829070912"><ele>771.0</ele><time>2026-03-29T12:22:00.001Z</time></trkpt><trkpt lat="40.38234234794045" lon="15.205566567925768"><ele>768.0</ele><time>2026-03-29T12:22:01.001Z</time></trkpt><trkpt lat="40.382373824549234" lon="15.205475142858322"><ele>765.0</ele><time>2026-03-29T12:22:03.001Z</time></trkpt><trkpt lat="40.38239886320169" lon="15.20534125283241"><ele>765.0</ele><time>2026-03-29T12:22:05.001Z</time></trkpt><trkpt lat="40.382406947950415" lon="15.205247902765192"><ele>765.0</ele><time>2026-03-29T12:22:06.001Z</time></trkpt><trkpt lat="40.38243975060138" lon="15.205173421117589"><ele>765.0</ele><time>2026-03-29T12:22:07.001Z</time></trkpt><trkpt lat="40.382488555984565" lon="15.205102336040987"><ele>765.0</ele><time>2026-03-29T12:22:08.001Z</time></trkpt><trkpt lat="40.38257622861747" lon="15.204979403876603"><ele>765.0</ele><time>2026-03-29T12:22:10.001Z</time></trkpt><trkpt lat="40.382644454693946" lon="15.20492729939041"><ele>765.0</ele><time>2026-03-29T12:22:11.001Z</time></trkpt><trkpt lat="40.38271248903533" lon="15.204890721712662"><ele>764.1666666666666</ele><time>2026-03-29T12:22:12.001Z</time></trkpt><trkpt lat="40.38281572598641" lon="15.204816322103397"><ele>763.3333333333334</ele><time>2026-03-29T12:22:14.001Z</time></trkpt><trkpt lat="40.382903899545006" lon="15.204740179726553"><ele>762.5</ele><time>2026-03-29T12:22:16.001Z</time></trkpt><trkpt lat="40.38297785525584" lon="15.204669136430716"><ele>761.6666666666667</ele><time>2026-03-29T12:22:18Z</time></trkpt><trkpt lat="40.38301224826804" lon="15.204597763175904"><ele>760.8333333333334</ele><time>2026-03-29T12:22:19Z</time></trkpt><trkpt lat="40.38306727864666" lon="15.204548004062575"><ele>760.0</ele><time>2026-03-29T12:22:20Z</time></trkpt><trkpt lat="40.38314388848527" lon="15.20444523729827"><ele>760.0</ele><time>2026-03-29T12:22:22Z</time></trkpt><trkpt lat="40.38319034551352" lon="15.204370101692847"><ele>760.0</ele><time>2026-03-29T12:22:23Z</time></trkpt><trkpt lat="40.38324172336917" lon="15.20428590598923"><ele>760.0</ele><time>2026-03-29T12:22:25Z</time></trkpt><trkpt lat="40.38333991589628" lon="15.204177758793767"><ele>760.0</ele><time>2026-03-29T12:22:27Z</time></trkpt><trkpt lat="40.38339545005183" lon="15.204130330555449"><ele>760.0</ele><time>2026-03-29T12:22:28Z</time></trkpt><trkpt lat="40.3834675694786" lon="15.20411135716891"><ele>760.0</ele><time>2026-03-29T12:22:29Z</time></trkpt><trkpt lat="40.383556179277356" lon="15.204087049515662"><ele>763.0</ele><time>2026-03-29T12:22:31Z</time></trkpt><trkpt lat="40.38363454471199" lon="15.20398985024933"><ele>766.0</ele><time>2026-03-29T12:22:33Z</time></trkpt><trkpt lat="40.383681845464125" lon="15.203886316523041"><ele>769.0</ele><time>2026-03-29T12:22:35Z</time></trkpt><trkpt lat="40.38365485208209" lon="15.203788486883006"><ele>772.0</ele><time>2026-03-29T12:22:37Z</time></trkpt><trkpt lat="40.38362882597538" lon="15.203638849591126"><ele>775.0</ele><time>2026-03-29T12:22:39Z</time></trkpt><trkpt lat="40.3836818708105" lon="15.203516352699781"><ele>774.9999999999999</ele><time>2026-03-29T12:22:41Z</time></trkpt><trkpt lat="40.383701211106654" lon="15.20342986394613"><ele>775.0</ele><time>2026-03-29T12:22:42Z</time></trkpt><trkpt lat="40.38375637855858" lon="15.203347688705733"><ele>775.0</ele><time>2026-03-29T12:22:44Z</time></trkpt><trkpt lat="40.38381263327159" lon="15.203227674143232"><ele>775.0</ele><time>2026-03-29T12:22:46Z</time></trkpt><trkpt lat="40.38387319017036" lon="15.203171265527374"><ele>774.9999999999999</ele><time>2026-03-29T12:22:47Z</time></trkpt><trkpt lat="40.383916141166495" lon="15.203056829672745"><ele>775.0</ele><time>2026-03-29T12:22:49Z</time></trkpt><trkpt lat="40.383965511567744" lon="15.20295800788018"><ele>768.8</ele><time>2026-03-29T12:22:51Z</time></trkpt><trkpt lat="40.3839970499198" lon="15.20284974629212"><ele>762.6</ele><time>2026-03-29T12:22:53Z</time></trkpt><trkpt lat="40.38401226763766" lon="15.202713444623589"><ele>756.4000000000001</ele><time>2026-03-29T12:22:55Z</time></trkpt><trkpt lat="40.38402978453891" lon="15.202583758859335"><ele>750.2</ele><time>2026-03-29T12:22:57Z</time></trkpt><trkpt lat="40.38410349981327" lon="15.202499811230497"><ele>744.0</ele><time>2026-03-29T12:22:59Z</time></trkpt><trkpt lat="40.38414636511098" lon="15.202363199752423"><ele>747.1666666666666</ele><time>2026-03-29T12:23:01Z</time></trkpt><trkpt lat="40.38419020825376" lon="15.202271259845885"><ele>750.3333333333334</ele><time>2026-03-29T12:23:02Z</time></trkpt><trkpt lat="40.38422643081672" lon="15.202199418671379"><ele>753.5</ele><time>2026-03-29T12:23:03Z</time></trkpt><trkpt lat="40.38425700454356" lon="15.202111635979236"><ele>756.6666666666667</ele><time>2026-03-29T12:23:04Z</time></trkpt><trkpt lat="40.38430979410925" lon="15.202027388842986"><ele>759.8333333333334</ele><time>2026-03-29T12:23:05Z</time></trkpt><trkpt lat="40.384348182857025" lon="15.201959357533772"><ele>763.0</ele><time>2026-03-29T12:23:06Z</time></trkpt><trkpt lat="40.384405417206594" lon="15.201870790364186"><ele>763.0</ele><time>2026-03-29T12:23:08Z</time></trkpt><trkpt lat="40.38449012802989" lon="15.201818231146111"><ele>763.0</ele><time>2026-03-29T12:23:10Z</time></trkpt><trkpt lat="40.38457060797144" lon="15.201823317368278"><ele>763.0</ele><time>2026-03-29T12:23:12Z</time></trkpt><trkpt lat="40.3846572452816" lon="15.201791600829223"><ele>763.0</ele><time>2026-03-29T12:23:14Z</time></trkpt><trkpt lat="40.384769565043605" lon="15.201742849319254"><ele>763.0</ele><time>2026-03-29T12:23:16Z</time></trkpt><trkpt lat="40.38487229106798" lon="15.201718146674734"><ele>759.2</ele><time>2026-03-29T12:23:18Z</time></trkpt><trkpt lat="40.384964175383445" lon="15.201692006603649"><ele>755.4</ele><time>2026-03-29T12:23:20Z</time></trkpt><trkpt lat="40.38506284385707" lon="15.201681059118528"><ele>751.6</ele><time>2026-03-29T12:23:22Z</time></trkpt><trkpt lat="40.38516459613751" lon="15.201656497624844"><ele>747.8000000000001</ele><time>2026-03-29T12:23:24Z</time></trkpt><trkpt lat="40.385249945217986" lon="15.201632273655347"><ele>744.0</ele><time>2026-03-29T12:23:26Z</time></trkpt><trkpt lat="40.38532691432098" lon="15.201628693207763"><ele>744.0</ele><time>2026-03-29T12:23:28Z</time></trkpt><trkpt lat="40.385406890553334" lon="15.20162470614761"><ele>744.0</ele><time>2026-03-29T12:23:30Z</time></trkpt><trkpt lat="40.38548428154724" lon="15.20160692821782"><ele>744.0</ele><time>2026-03-29T12:23:32Z</time></trkpt><trkpt lat="40.385557170197316" lon="15.201597005550672"><ele>744.0</ele><time>2026-03-29T12:23:35Z</time></trkpt><trkpt lat="40.3856424777797" lon="15.201575630408891"><ele>744.0</ele><time>2026-03-29T12:24:13Z</time></trkpt><trkpt lat="40.38572504528023" lon="15.20155233040139"><ele>744.0</ele><time>2026-03-29T12:24:15Z</time></trkpt><trkpt lat="40.38578826821156" lon="15.201502283654879"><ele>743.5</ele><time>2026-03-29T12:24:17Z</time></trkpt><trkpt lat="40.385828504089346" lon="15.201434462254838"><ele>743.0</ele><time>2026-03-29T12:24:19Z</time></trkpt><trkpt lat="40.38587108706034" lon="15.201362040135244"><ele>742.5</ele><time>2026-03-29T12:24:21Z</time></trkpt><trkpt lat="40.38593946492905" lon="15.20126493007876"><ele>742.0</ele><time>2026-03-29T12:24:24Z</time></trkpt><trkpt lat="40.38601323325975" lon="15.201338040185993"><ele>741.5</ele><time>2026-03-29T12:24:27Z</time></trkpt><trkpt lat="40.38603465452031" lon="15.201482475083647"><ele>741.0</ele><time>2026-03-29T12:24:29Z</time></trkpt><trkpt lat="40.38597945867955" lon="15.201562280297324"><ele>741.0</ele><time>2026-03-29T12:24:31Z</time></trkpt><trkpt lat="40.38604494153506" lon="15.201634515823194"><ele>741.0</ele><time>2026-03-29T12:24:34Z</time></trkpt><trkpt lat="40.38612006371856" lon="15.20159069132052"><ele>741.0</ele><time>2026-03-29T12:24:37Z</time></trkpt><trkpt lat="40.386165756503" lon="15.201524470581841"><ele>741.0</ele><time>2026-03-29T12:24:39Z</time></trkpt><trkpt lat="40.38617699948036" lon="15.201435417021145"><ele>741.0</ele><time>2026-03-29T12:24:41Z</time></trkpt><trkpt lat="40.38621505420482" lon="15.20133654855541"><ele>741.0</ele><time>2026-03-29T12:24:43Z</time></trkpt><trkpt lat="40.38629461181419" lon="15.201258802831699"><ele>741.0</ele><time>2026-03-29T12:24:45Z</time></trkpt><trkpt lat="40.38632137002591" lon="15.201174239101245"><ele>741.0</ele><time>2026-03-29T12:24:47Z</time></trkpt><trkpt lat="40.386352203826675" lon="15.201080586495143"><ele>741.0</ele><time>2026-03-29T12:24:50Z</time></trkpt><trkpt lat="40.38636160651273" lon="15.200980384346488"><ele>741.0</ele><time>2026-03-29T12:24:53Z</time></trkpt><trkpt lat="40.386353373549426" lon="15.2008905766445"><ele>741.0</ele><time>2026-03-29T12:25:04Z</time></trkpt><trkpt lat="40.3863460104178" lon="15.200799379179921"><ele>741.0</ele><time>2026-03-29T12:25:06Z</time></trkpt><trkpt lat="40.386335840149556" lon="15.200679232375844"><ele>741.8</ele><time>2026-03-29T12:25:08Z</time></trkpt><trkpt lat="40.386316101397924" lon="15.20056871444262"><ele>742.5999999999999</ele><time>2026-03-29T12:25:10Z</time></trkpt><trkpt lat="40.38629396941676" lon="15.200485699919534"><ele>743.4</ele><time>2026-03-29T12:25:11Z</time></trkpt><trkpt lat="40.386228428951085" lon="15.200348665057627"><ele>744.2</ele><time>2026-03-29T12:25:13Z</time></trkpt><trkpt lat="40.386160983493944" lon="15.20027189152533"><ele>745.0</ele><time>2026-03-29T12:25:15Z</time></trkpt><trkpt lat="40.38610973571983" lon="15.200134669246086"><ele>745.0</ele><time>2026-03-29T12:25:17Z</time></trkpt><trkpt lat="40.38606716714641" lon="15.200036880206742"><ele>745.0</ele><time>2026-03-29T12:25:19Z</time></trkpt><trkpt lat="40.38607169114343" lon="15.199951510235248"><ele>745.0</ele><time>2026-03-29T12:25:21Z</time></trkpt><trkpt lat="40.38609669740613" lon="15.199823728353296"><ele>745.0</ele><time>2026-03-29T12:25:23Z</time></trkpt><trkpt lat="40.38615926881456" lon="15.19971962194388"><ele>745.0</ele><time>2026-03-29T12:25:25Z</time></trkpt><trkpt lat="40.38623431329785" lon="15.19961050672892"><ele>748.8</ele><time>2026-03-29T12:25:27Z</time></trkpt><trkpt lat="40.38628990386528" lon="15.199569905839743"><ele>752.6</ele><time>2026-03-29T12:25:28Z</time></trkpt><trkpt lat="40.38639001825826" lon="15.199522108253882"><ele>756.4000000000001</ele><time>2026-03-29T12:25:30Z</time></trkpt><trkpt lat="40.38647001098737" lon="15.199427538724589"><ele>760.2</ele><time>2026-03-29T12:25:33Z</time></trkpt><trkpt lat="40.3865539805749" lon="15.199390895883173"><ele>764.0</ele><time>2026-03-29T12:25:35Z</time></trkpt><trkpt lat="40.38663530602246" lon="15.199313930219816"><ele>759.6666666666666</ele><time>2026-03-29T12:25:37Z</time></trkpt><trkpt lat="40.38667899351174" lon="15.199212467014073"><ele>755.3333333333333</ele><time>2026-03-29T12:25:39Z</time></trkpt><trkpt lat="40.38672960034496" lon="15.199157866303626"><ele>751.0</ele><time>2026-03-29T12:25:41Z</time></trkpt><trkpt lat="40.386749485479115" lon="15.199059811154775"><ele>746.6666666666666</ele><time>2026-03-29T12:25:43Z</time></trkpt><trkpt lat="40.38676678977012" lon="15.198956363522273"><ele>742.3333333333334</ele><time>2026-03-29T12:25:51.999Z</time></trkpt><trkpt lat="40.38677037593945" lon="15.198841066692465"><ele>738.0</ele><time>2026-03-29T12:26:01.999Z</time></trkpt><trkpt lat="40.38677082845636" lon="15.198713282572761"><ele>738.0</ele><time>2026-03-29T12:26:03.999Z</time></trkpt><trkpt lat="40.386770140618765" lon="15.198606338442655"><ele>738.0</ele><time>2026-03-29T12:26:05.999Z</time></trkpt><trkpt lat="40.38679409285803" lon="15.198471963699054"><ele>738.0</ele><time>2026-03-29T12:26:08Z</time></trkpt><trkpt lat="40.386833117882695" lon="15.198379388400046"><ele>738.0</ele><time>2026-03-29T12:26:10Z</time></trkpt><trkpt lat="40.386852022138974" lon="15.198268031430743"><ele>738.0</ele><time>2026-03-29T12:26:12Z</time></trkpt><trkpt lat="40.386893278313146" lon="15.198187284855067"><ele>738.0</ele><time>2026-03-29T12:26:14Z</time></trkpt><trkpt lat="40.386927485018155" lon="15.198081246498303"><ele>740.0</ele><time>2026-03-29T12:26:16Z</time></trkpt><trkpt lat="40.38697727223493" lon="15.197999684317434"><ele>742.0</ele><time>2026-03-29T12:26:18Z</time></trkpt><trkpt lat="40.3870412442558" lon="15.197879559085672"><ele>744.0</ele><time>2026-03-29T12:26:20Z</time></trkpt><trkpt lat="40.387113591072335" lon="15.197772150059695"><ele>746.0</ele><time>2026-03-29T12:26:22Z</time></trkpt><trkpt lat="40.38716506759428" lon="15.197681772993567"><ele>748.0</ele><time>2026-03-29T12:26:24Z</time></trkpt><trkpt lat="40.387217274835095" lon="15.197558180965968"><ele>742.8</ele><time>2026-03-29T12:26:26Z</time></trkpt><trkpt lat="40.38723086460737" lon="15.197422776864245"><ele>737.5999999999999</ele><time>2026-03-29T12:26:28Z</time></trkpt><trkpt lat="40.38725192059223" lon="15.197294352672275"><ele>732.4000000000001</ele><time>2026-03-29T12:26:30Z</time></trkpt><trkpt lat="40.387300737086946" lon="15.197178485992067"><ele>727.2</ele><time>2026-03-29T12:26:32Z</time></trkpt><trkpt lat="40.38733026065355" lon="15.197018873506229"><ele>722.0</ele><time>2026-03-29T12:26:34Z</time></trkpt><trkpt lat="40.38729805712584" lon="15.196906092553808"><ele>722.0</ele><time>2026-03-29T12:26:35Z</time></trkpt><trkpt lat="40.38728382652345" lon="15.196795782549584"><ele>722.0</ele><time>2026-03-29T12:26:37Z</time></trkpt><trkpt lat="40.38731208704605" lon="15.196720317714124"><ele>722.0</ele><time>2026-03-29T12:26:38Z</time></trkpt><trkpt lat="40.387371827073736" lon="15.196602924726676"><ele>722.0</ele><time>2026-03-29T12:26:40Z</time></trkpt><trkpt lat="40.38746011096646" lon="15.196326291687962"><ele>724.6666666666666</ele><time>2026-03-29T12:26:44Z</time></trkpt><trkpt lat="40.38750606913743" lon="15.196196733639026"><ele>727.3333333333333</ele><time>2026-03-29T12:26:46Z</time></trkpt><trkpt lat="40.38755135328184" lon="15.196124357061239"><ele>730.0</ele><time>2026-03-29T12:26:48Z</time></trkpt><trkpt lat="40.38758607489072" lon="15.196040682051649"><ele>732.6666666666666</ele><time>2026-03-29T12:26:50Z</time></trkpt><trkpt lat="40.387591528577325" lon="15.195933079284481"><ele>735.3333333333334</ele><time>2026-03-29T12:26:52Z</time></trkpt><trkpt lat="40.38762226132713" lon="15.195843718201282"><ele>738.0</ele><time>2026-03-29T12:26:54Z</time></trkpt><trkpt lat="40.38766843584995" lon="15.19577657361516"><ele>738.0</ele><time>2026-03-29T12:26:55Z</time></trkpt><trkpt lat="40.387727012869206" lon="15.195676346097784"><ele>738.0</ele><time>2026-03-29T12:26:57Z</time></trkpt><trkpt lat="40.387776400767805" lon="15.195564388384415"><ele>738.0</ele><time>2026-03-29T12:27:00Z</time></trkpt><trkpt lat="40.387856510450305" lon="15.195504816629114"><ele>738.0</ele><time>2026-03-29T12:27:02Z</time></trkpt><trkpt lat="40.387907345076925" lon="15.195401298900649"><ele>738.0</ele><time>2026-03-29T12:27:04Z</time></trkpt><trkpt lat="40.387956315180084" lon="15.195325419638396"><ele>739.2</ele><time>2026-03-29T12:27:06Z</time></trkpt><trkpt lat="40.38801118531826" lon="15.19519894392591"><ele>740.4</ele><time>2026-03-29T12:27:08Z</time></trkpt><trkpt lat="40.38803686425433" lon="15.195119872846332"><ele>741.6</ele><time>2026-03-29T12:27:09Z</time></trkpt><trkpt lat="40.388084252401434" lon="15.195016262031329"><ele>742.8000000000001</ele><time>2026-03-29T12:27:11Z</time></trkpt><trkpt lat="40.3881552268225" lon="15.194885445393046"><ele>744.0</ele><time>2026-03-29T12:27:13Z</time></trkpt><trkpt lat="40.388230835684304" lon="15.194767168363754"><ele>744.0</ele><time>2026-03-29T12:27:15Z</time></trkpt><trkpt lat="40.38832140589819" lon="15.194652795573615"><ele>744.0</ele><time>2026-03-29T12:27:17Z</time></trkpt><trkpt lat="40.3884092874738" lon="15.194534303194583"><ele>744.0</ele><time>2026-03-29T12:27:19Z</time></trkpt><trkpt lat="40.388485873018546" lon="15.194421888454272"><ele>744.0</ele><time>2026-03-29T12:27:21Z</time></trkpt><trkpt lat="40.3885617931131" lon="15.194322632971422"><ele>744.0</ele><time>2026-03-29T12:27:23Z</time></trkpt><trkpt lat="40.388629584294655" lon="15.194236836477803"><ele>744.0</ele><time>2026-03-29T12:27:25Z</time></trkpt><trkpt lat="40.388686598972484" lon="15.194185598299184"><ele>744.0</ele><time>2026-03-29T12:27:26Z</time></trkpt><trkpt lat="40.38876014478047" lon="15.194115009368437"><ele>744.0</ele><time>2026-03-29T12:27:28Z</time></trkpt><trkpt lat="40.388847165847615" lon="15.194020570534358"><ele>744.0</ele><time>2026-03-29T12:27:30Z</time></trkpt><trkpt lat="40.38891459151403" lon="15.193934359349814"><ele>742.6</ele><time>2026-03-29T12:27:32Z</time></trkpt><trkpt lat="40.3889711250376" lon="15.193807426688299"><ele>741.2</ele><time>2026-03-29T12:27:34Z</time></trkpt><trkpt lat="40.389056468617405" lon="15.19369427802815"><ele>739.8000000000001</ele><time>2026-03-29T12:27:35.999Z</time></trkpt><trkpt lat="40.38913176706774" lon="15.193616536962065"><ele>738.4000000000001</ele><time>2026-03-29T12:27:37.999Z</time></trkpt><trkpt lat="40.38918916901121" lon="15.19358190149494"><ele>737.0</ele><time>2026-03-29T12:27:38.999Z</time></trkpt><trkpt lat="40.38928987169792" lon="15.193548187985481"><ele>737.0</ele><time>2026-03-29T12:27:40.999Z</time></trkpt><trkpt lat="40.389355851711215" lon="15.193525633223231"><ele>737.0</ele><time>2026-03-29T12:27:41.999Z</time></trkpt><trkpt lat="40.38945028984531" lon="15.193501719489289"><ele>737.0</ele><time>2026-03-29T12:27:43.999Z</time></trkpt><trkpt lat="40.38958623390389" lon="15.193460549399616"><ele>737.0</ele><time>2026-03-29T12:27:45.999Z</time></trkpt><trkpt lat="40.3896989794336" lon="15.193412381799963"><ele>737.0</ele><time>2026-03-29T12:27:47.999Z</time></trkpt><trkpt lat="40.389801860842844" lon="15.193360242049403"><ele>738.4000000000001</ele><time>2026-03-29T12:27:49.999Z</time></trkpt><trkpt lat="40.389906941464474" lon="15.193322272245608"><ele>739.8000000000001</ele><time>2026-03-29T12:27:51.999Z</time></trkpt><trkpt lat="40.389971985927275" lon="15.193296979868542"><ele>741.2</ele><time>2026-03-29T12:27:52.999Z</time></trkpt><trkpt lat="40.39006288426403" lon="15.193214657416195"><ele>742.6</ele><time>2026-03-29T12:27:54.999Z</time></trkpt><trkpt lat="40.390114890677104" lon="15.193142809039934"><ele>744.0</ele><time>2026-03-29T12:27:56.999Z</time></trkpt><trkpt lat="40.390199890060416" lon="15.193057200508424"><ele>744.0</ele><time>2026-03-29T12:27:58.999Z</time></trkpt><trkpt lat="40.39030110239819" lon="15.193015113124908"><ele>744.0</ele><time>2026-03-29T12:28:01.999Z</time></trkpt><trkpt lat="40.39036423655238" lon="15.192975873113255"><ele>744.0</ele><time>2026-03-29T12:28:03.999Z</time></trkpt><trkpt lat="40.390437573134214" lon="15.192956003627504"><ele>744.0</ele><time>2026-03-29T12:28:06.999Z</time></trkpt><trkpt lat="40.39051156412597" lon="15.192922572150193"><ele>744.0</ele><time>2026-03-29T12:28:08.999Z</time></trkpt><trkpt lat="40.390581417243276" lon="15.192902578623558"><ele>744.0</ele><time>2026-03-29T12:28:10.999Z</time></trkpt><trkpt lat="40.39065102104229" lon="15.192864239509264"><ele>742.1666666666666</ele><time>2026-03-29T12:28:13Z</time></trkpt><trkpt lat="40.390709296624564" lon="15.192795113407463"><ele>740.3333333333334</ele><time>2026-03-29T12:28:16Z</time></trkpt><trkpt lat="40.39078749285099" lon="15.192764452104182"><ele>738.5</ele><time>2026-03-29T12:28:18Z</time></trkpt><trkpt lat="40.390882484860704" lon="15.192741445342454"><ele>736.6666666666667</ele><time>2026-03-29T12:28:20Z</time></trkpt><trkpt lat="40.39095688474544" lon="15.19275113546998"><ele>734.8333333333334</ele><time>2026-03-29T12:28:23Z</time></trkpt><trkpt lat="40.391026933590105" lon="15.19274472605381"><ele>733.0</ele><time>2026-03-29T12:28:38Z</time></trkpt><trkpt lat="40.3911309110906" lon="15.192750307262806"><ele>733.0</ele><time>2026-03-29T12:28:41Z</time></trkpt><trkpt lat="40.3912098279442" lon="15.192761715734877"><ele>733.0</ele><time>2026-03-29T12:28:43Z</time></trkpt><trkpt lat="40.39129788133287" lon="15.1927588180487"><ele>733.0</ele><time>2026-03-29T12:28:45Z</time></trkpt><trkpt lat="40.39136285991561" lon="15.192759146533154"><ele>733.0</ele><time>2026-03-29T12:28:47Z</time></trkpt><trkpt lat="40.39146260281172" lon="15.192723544594324"><ele>733.0</ele><time>2026-03-29T12:28:49Z</time></trkpt><trkpt lat="40.39155742504465" lon="15.192681695267488"><ele>733.0</ele><time>2026-03-29T12:28:51Z</time></trkpt><trkpt lat="40.391662763300374" lon="15.192609622324966"><ele>731.5999999999999</ele><time>2026-03-29T12:28:53Z</time></trkpt><trkpt lat="40.391763621846536" lon="15.192486358611779"><ele>730.1999999999999</ele><time>2026-03-29T12:28:55Z</time></trkpt><trkpt lat="40.39184143579755" lon="15.19244953179208"><ele>728.8</ele><time>2026-03-29T12:28:57Z</time></trkpt><trkpt lat="40.39192563185657" lon="15.192359301096612"><ele>727.4</ele><time>2026-03-29T12:28:59Z</time></trkpt><trkpt lat="40.3920036866565" lon="15.192243443834709"><ele>726.0</ele><time>2026-03-29T12:29:01Z</time></trkpt><trkpt lat="40.392052531837564" lon="15.192127570871335"><ele>724.8</ele><time>2026-03-29T12:29:03Z</time></trkpt><trkpt lat="40.3921076662297" lon="15.19202144816695"><ele>723.5999999999999</ele><time>2026-03-29T12:29:05Z</time></trkpt><trkpt lat="40.39216093581994" lon="15.191925883292159"><ele>722.4</ele><time>2026-03-29T12:29:07Z</time></trkpt><trkpt lat="40.39220276591017" lon="15.191812945566266"><ele>721.2</ele><time>2026-03-29T12:29:09Z</time></trkpt><trkpt lat="40.39226933913874" lon="15.191735715944287"><ele>720.0</ele><time>2026-03-29T12:29:11Z</time></trkpt><trkpt lat="40.392339338419845" lon="15.191676489621978"><ele>720.0</ele><time>2026-03-29T12:29:13Z</time></trkpt><trkpt lat="40.39238722480143" lon="15.191595563143897"><ele>720.0</ele><time>2026-03-29T12:29:15Z</time></trkpt><trkpt lat="40.392457157679125" lon="15.191582505786903"><ele>720.0</ele><time>2026-03-29T12:29:17Z</time></trkpt><trkpt lat="40.39252982069788" lon="15.191555459036108"><ele>720.0</ele><time>2026-03-29T12:29:18Z</time></trkpt><trkpt lat="40.39262027973928" lon="15.191495380492293"><ele>720.0</ele><time>2026-03-29T12:29:20Z</time></trkpt><trkpt lat="40.39267794899352" lon="15.191453078130065"><ele>720.0</ele><time>2026-03-29T12:29:22Z</time></trkpt><trkpt lat="40.39275824264912" lon="15.191406187343826"><ele>718.3333333333334</ele><time>2026-03-29T12:29:24Z</time></trkpt><trkpt lat="40.39283803966983" lon="15.191354246113809"><ele>716.6666666666666</ele><time>2026-03-29T12:29:26Z</time></trkpt><trkpt lat="40.392904970981164" lon="15.1913015337652"><ele>715.0</ele><time>2026-03-29T12:29:28Z</time></trkpt><trkpt lat="40.39295822340208" lon="15.191247473613714"><ele>713.3333333333333</ele><time>2026-03-29T12:29:30Z</time></trkpt><trkpt lat="40.393032970903405" lon="15.191186126956678"><ele>711.6666666666666</ele><time>2026-03-29T12:29:31.999Z</time></trkpt><trkpt lat="40.39311325270445" lon="15.191113260252417"><ele>710.0</ele><time>2026-03-29T12:29:33.999Z</time></trkpt><trkpt lat="40.39317816218082" lon="15.19105823823291"><ele>710.0</ele><time>2026-03-29T12:29:35.999Z</time></trkpt><trkpt lat="40.39326077484061" lon="15.19097014984461"><ele>710.0</ele><time>2026-03-29T12:29:37.999Z</time></trkpt><trkpt lat="40.39333352385555" lon="15.19089763125477"><ele>710.0</ele><time>2026-03-29T12:29:39.999Z</time></trkpt><trkpt lat="40.39341561831663" lon="15.190901739824566"><ele>710.0</ele><time>2026-03-29T12:29:41.999Z</time></trkpt><trkpt lat="40.39347214490009" lon="15.190777738168288"><ele>710.0</ele><time>2026-03-29T12:29:43.999Z</time></trkpt><trkpt lat="40.39352810106229" lon="15.190679582412915"><ele>711.6</ele><time>2026-03-29T12:29:45.999Z</time></trkpt><trkpt lat="40.39358549333955" lon="15.190596030426372"><ele>713.2</ele><time>2026-03-29T12:29:47.999Z</time></trkpt><trkpt lat="40.393617960067566" lon="15.190522578169785"><ele>714.8</ele><time>2026-03-29T12:29:48.999Z</time></trkpt><trkpt lat="40.393704308004196" lon="15.190459562192599"><ele>716.4</ele><time>2026-03-29T12:29:50.999Z</time></trkpt><trkpt lat="40.393688512092" lon="15.190291530347002"><ele>718.0</ele><time>2026-03-29T12:29:52.999Z</time></trkpt><trkpt lat="40.39368448181512" lon="15.190188282144222"><ele>718.0</ele><time>2026-03-29T12:29:53.999Z</time></trkpt><trkpt lat="40.39375599545999" lon="15.190162836295167"><ele>718.0</ele><time>2026-03-29T12:29:54.999Z</time></trkpt><trkpt lat="40.393838086523914" lon="15.190116335657345"><ele>718.0</ele><time>2026-03-29T12:29:55.999Z</time></trkpt><trkpt lat="40.39391019169256" lon="15.190060196506298"><ele>718.0</ele><time>2026-03-29T12:29:56.999Z</time></trkpt><trkpt lat="40.394016490737705" lon="15.189965009606961"><ele>718.0</ele><time>2026-03-29T12:29:58.999Z</time></trkpt><trkpt lat="40.39407244032856" lon="15.189870795999305"><ele>714.8</ele><time>2026-03-29T12:30:00.999Z</time></trkpt><trkpt lat="40.39414417901246" lon="15.189782970883863"><ele>711.5999999999999</ele><time>2026-03-29T12:30:02.999Z</time></trkpt><trkpt lat="40.39422162428193" lon="15.189694886995133"><ele>708.4000000000001</ele><time>2026-03-29T12:30:04.999Z</time></trkpt><trkpt lat="40.39426553677474" lon="15.189630879849409"><ele>705.2</ele><time>2026-03-29T12:30:05.999Z</time></trkpt><trkpt lat="40.39434605232013" lon="15.189542731832228"><ele>702.0</ele><time>2026-03-29T12:30:07.999Z</time></trkpt><trkpt lat="40.394428098026495" lon="15.189437813303705"><ele>702.0</ele><time>2026-03-29T12:30:09.999Z</time></trkpt><trkpt lat="40.39449544973027" lon="15.189370908641283"><ele>702.0</ele><time>2026-03-29T12:30:10.999Z</time></trkpt><trkpt lat="40.39455288835495" lon="15.189325642571418"><ele>702.0</ele><time>2026-03-29T12:30:11.999Z</time></trkpt><trkpt lat="40.39459656133801" lon="15.189235046609763"><ele>702.0</ele><time>2026-03-29T12:30:13.999Z</time></trkpt><trkpt lat="40.39464520106911" lon="15.189114647410861"><ele>702.0</ele><time>2026-03-29T12:30:15.999Z</time></trkpt><trkpt lat="40.394712796273026" lon="15.189003463089854"><ele>702.0</ele><time>2026-03-29T12:30:17.999Z</time></trkpt><trkpt lat="40.394730869949576" lon="15.188888702227533"><ele>696.1666666666666</ele><time>2026-03-29T12:30:20Z</time></trkpt><trkpt lat="40.39474012787706" lon="15.188793445110408"><ele>690.3333333333334</ele><time>2026-03-29T12:30:22Z</time></trkpt><trkpt lat="40.39475587628774" lon="15.188711040363378"><ele>684.5</ele><time>2026-03-29T12:30:25Z</time></trkpt><trkpt lat="40.39478149049728" lon="15.188610612890788"><ele>678.6666666666667</ele><time>2026-03-29T12:30:27Z</time></trkpt><trkpt lat="40.39477572098902" lon="15.188505863297529"><ele>672.8333333333334</ele><time>2026-03-29T12:30:31Z</time></trkpt><trkpt lat="40.39477589958995" lon="15.188411737551597"><ele>667.0</ele><time>2026-03-29T12:30:34Z</time></trkpt><trkpt lat="40.394768768122574" lon="15.188305726964565"><ele>667.5714285714287</ele><time>2026-03-29T12:30:36Z</time></trkpt><trkpt lat="40.39477515294382" lon="15.188169782253597"><ele>668.1428571428571</ele><time>2026-03-29T12:30:38Z</time></trkpt><trkpt lat="40.39477334951657" lon="15.188079897472276"><ele>668.7142857142858</ele><time>2026-03-29T12:30:39Z</time></trkpt><trkpt lat="40.394780241560255" lon="15.187987961995837"><ele>669.2857142857143</ele><time>2026-03-29T12:30:40Z</time></trkpt><trkpt lat="40.394778272172296" lon="15.187904205107976"><ele>669.8571428571429</ele><time>2026-03-29T12:30:41Z</time></trkpt><trkpt lat="40.3947734125882" lon="15.187812665427021"><ele>670.4285714285714</ele><time>2026-03-29T12:30:42Z</time></trkpt><trkpt lat="40.394769919812404" lon="15.187722962241336"><ele>671.0</ele><time>2026-03-29T12:30:43Z</time></trkpt><trkpt lat="40.394763299527675" lon="15.18763846528926"><ele>671.0</ele><time>2026-03-29T12:30:44Z</time></trkpt><trkpt lat="40.39475088217873" lon="15.187554665907133"><ele>671.0</ele><time>2026-03-29T12:30:45Z</time></trkpt><trkpt lat="40.39476252821399" lon="15.18740467327094"><ele>671.0</ele><time>2026-03-29T12:30:47Z</time></trkpt><trkpt lat="40.39479871687731" lon="15.18727654225273"><ele>671.0</ele><time>2026-03-29T12:30:49Z</time></trkpt><trkpt lat="40.39484724772894" lon="15.187220068136071"><ele>671.0</ele><time>2026-03-29T12:30:50Z</time></trkpt><trkpt lat="40.39487154357958" lon="15.187058868436345"><ele>673.0</ele><time>2026-03-29T12:30:52Z</time></trkpt><trkpt lat="40.39489821871455" lon="15.18696795732949"><ele>675.0</ele><time>2026-03-29T12:30:53Z</time></trkpt><trkpt lat="40.39492207208567" lon="15.186881855190384"><ele>677.0</ele><time>2026-03-29T12:30:54Z</time></trkpt><trkpt lat="40.39497409323848" lon="15.186737792860068"><ele>679.0</ele><time>2026-03-29T12:30:56Z</time></trkpt><trkpt lat="40.39500525638102" lon="15.186577278104409"><ele>681.0</ele><time>2026-03-29T12:30:58Z</time></trkpt><trkpt lat="40.39499660705043" lon="15.18647100253254"><ele>684.4</ele><time>2026-03-29T12:31:00Z</time></trkpt><trkpt lat="40.39504690426174" lon="15.186369770233032"><ele>687.8</ele><time>2026-03-29T12:31:01Z</time></trkpt><trkpt lat="40.395081911511355" lon="15.186283378526205"><ele>691.1999999999999</ele><time>2026-03-29T12:31:02Z</time></trkpt><trkpt lat="40.39515011009596" lon="15.186147064623794"><ele>694.5999999999999</ele><time>2026-03-29T12:31:04Z</time></trkpt><trkpt lat="40.395181551603315" lon="15.186013157838842"><ele>698.0</ele><time>2026-03-29T12:31:05.999Z</time></trkpt><trkpt lat="40.3952010519012" lon="15.185889588276765"><ele>698.0</ele><time>2026-03-29T12:31:07.999Z</time></trkpt><trkpt lat="40.3952623733169" lon="15.185779007848293"><ele>698.0</ele><time>2026-03-29T12:31:09.999Z</time></trkpt><trkpt lat="40.39531490726601" lon="15.185687822478004"><ele>698.0</ele><time>2026-03-29T12:31:11.999Z</time></trkpt><trkpt lat="40.395385609369406" lon="15.185706326159536"><ele>698.0</ele><time>2026-03-29T12:31:13.999Z</time></trkpt><trkpt lat="40.39545031514842" lon="15.18580046342346"><ele>698.0</ele><time>2026-03-29T12:31:15.999Z</time></trkpt><trkpt lat="40.39549688797979" lon="15.185938357535914"><ele>697.3333333333333</ele><time>2026-03-29T12:31:17.999Z</time></trkpt><trkpt lat="40.39553770584346" lon="15.186074134745393"><ele>696.6666666666666</ele><time>2026-03-29T12:31:20.999Z</time></trkpt><trkpt lat="40.39557855265098" lon="15.186145404216667"><ele>696.0</ele><time>2026-03-29T12:31:22.999Z</time></trkpt><trkpt lat="40.39563852183786" lon="15.186190918551532"><ele>695.3333333333334</ele><time>2026-03-29T12:31:24.999Z</time></trkpt><trkpt lat="40.39570276110855" lon="15.186256982727835"><ele>694.6666666666667</ele><time>2026-03-29T12:31:26.999Z</time></trkpt><trkpt lat="40.39577127024029" lon="15.186302982082745"><ele>694.0</ele><time>2026-03-29T12:31:28.999Z</time></trkpt><trkpt lat="40.39580838412854" lon="15.186375932579772"><ele>694.0</ele><time>2026-03-29T12:31:30.999Z</time></trkpt><trkpt lat="40.39586612382978" lon="15.186413576724037"><ele>694.0</ele><time>2026-03-29T12:31:31.999Z</time></trkpt><trkpt lat="40.39593381049862" lon="15.186427567799473"><ele>694.0</ele><time>2026-03-29T12:31:34.999Z</time></trkpt><trkpt lat="40.396005768741624" lon="15.18648285023642"><ele>694.0</ele><time>2026-03-29T12:31:50.999Z</time></trkpt><trkpt lat="40.39606294764955" lon="15.18654765165727"><ele>694.0</ele><time>2026-03-29T12:31:52.999Z</time></trkpt><trkpt lat="40.39612173332699" lon="15.186625694195193"><ele>694.0</ele><time>2026-03-29T12:31:54.999Z</time></trkpt><trkpt lat="40.39618619040294" lon="15.186710146555049"><ele>693.8333333333334</ele><time>2026-03-29T12:31:56.999Z</time></trkpt><trkpt lat="40.39625508110488" lon="15.186804121493823"><ele>693.6666666666667</ele><time>2026-03-29T12:31:58.999Z</time></trkpt><trkpt lat="40.39633770233769" lon="15.186902025507258"><ele>693.5</ele><time>2026-03-29T12:32:01.999Z</time></trkpt><trkpt lat="40.39640404873318" lon="15.186959172139792"><ele>693.3333333333334</ele><time>2026-03-29T12:32:02.999Z</time></trkpt><trkpt lat="40.396475364005084" lon="15.187010019677865"><ele>693.1666666666666</ele><time>2026-03-29T12:32:03.999Z</time></trkpt><trkpt lat="40.396525270663155" lon="15.187061444578328"><ele>693.0</ele><time>2026-03-29T12:32:04.999Z</time></trkpt><trkpt lat="40.39658939840101" lon="15.187172727411376"><ele>693.0</ele><time>2026-03-29T12:32:06.999Z</time></trkpt><trkpt lat="40.39662146194059" lon="15.187259128678486"><ele>693.0</ele><time>2026-03-29T12:32:07.999Z</time></trkpt><trkpt lat="40.396738887981975" lon="15.187345540711233"><ele>693.0</ele><time>2026-03-29T12:32:09.999Z</time></trkpt><trkpt lat="40.39680242804692" lon="15.18738424772198"><ele>693.0</ele><time>2026-03-29T12:32:10.999Z</time></trkpt><trkpt lat="40.39687898755982" lon="15.187489138701611"><ele>693.0</ele><time>2026-03-29T12:32:12.999Z</time></trkpt><trkpt lat="40.39693948494578" lon="15.187609042807361"><ele>692.1666666666666</ele><time>2026-03-29T12:32:14.999Z</time></trkpt><trkpt lat="40.39696435988426" lon="15.187689418776628"><ele>691.3333333333334</ele><time>2026-03-29T12:32:15.999Z</time></trkpt><trkpt lat="40.39704690597194" lon="15.187722927104902"><ele>690.5</ele><time>2026-03-29T12:32:16.999Z</time></trkpt><trkpt lat="40.39712947986021" lon="15.187738206803491"><ele>689.6666666666667</ele><time>2026-03-29T12:32:17.999Z</time></trkpt><trkpt lat="40.39722941911253" lon="15.187749782751544"><ele>688.8333333333334</ele><time>2026-03-29T12:32:19.999Z</time></trkpt><trkpt lat="40.39729045133632" lon="15.187780670038324"><ele>688.0</ele><time>2026-03-29T12:32:20.999Z</time></trkpt><trkpt lat="40.39737595212931" lon="15.187858267712294"><ele>688.0</ele><time>2026-03-29T12:32:22.999Z</time></trkpt><trkpt lat="40.397472230461695" lon="15.187850673564343"><ele>688.0</ele><time>2026-03-29T12:32:25Z</time></trkpt><trkpt lat="40.39755865002933" lon="15.187851349994945"><ele>688.0</ele><time>2026-03-29T12:32:27Z</time></trkpt><trkpt lat="40.397674297767985" lon="15.187815357834785"><ele>688.0</ele><time>2026-03-29T12:32:29Z</time></trkpt><trkpt lat="40.39777587623648" lon="15.187814352553387"><ele>688.0</ele><time>2026-03-29T12:32:31Z</time></trkpt><trkpt lat="40.397860014347835" lon="15.187822960901926"><ele>688.0</ele><time>2026-03-29T12:32:33Z</time></trkpt><trkpt lat="40.39795756389086" lon="15.187817534096483"><ele>688.0</ele><time>2026-03-29T12:32:35Z</time></trkpt><trkpt lat="40.39805791532274" lon="15.187826757977547"><ele>688.0</ele><time>2026-03-29T12:32:37Z</time></trkpt><trkpt lat="40.39814768404057" lon="15.187878254839939"><ele>688.0</ele><time>2026-03-29T12:32:39Z</time></trkpt><trkpt lat="40.39825272158076" lon="15.18785193124299"><ele>688.0</ele><time>2026-03-29T12:32:41Z</time></trkpt><trkpt lat="40.39835865105353" lon="15.187821309525999"><ele>688.8333333333334</ele><time>2026-03-29T12:32:43Z</time></trkpt><trkpt lat="40.39844496573799" lon="15.187781580140747"><ele>689.6666666666667</ele><time>2026-03-29T12:32:45Z</time></trkpt><trkpt lat="40.398502925796414" lon="15.187710632392244"><ele>690.5</ele><time>2026-03-29T12:33:01Z</time></trkpt><trkpt lat="40.39854127707701" lon="15.187631431667782"><ele>691.3333333333334</ele><time>2026-03-29T12:33:03Z</time></trkpt><trkpt lat="40.39859838809614" lon="15.18756905765092"><ele>692.1666666666666</ele><time>2026-03-29T12:33:05Z</time></trkpt><trkpt lat="40.398672346815516" lon="15.187489916720965"><ele>693.0</ele><time>2026-03-29T12:33:08Z</time></trkpt><trkpt lat="40.39876466294497" lon="15.187426493209916"><ele>690.4</ele><time>2026-03-29T12:33:10Z</time></trkpt><trkpt lat="40.39886658018675" lon="15.187440040008704"><ele>687.8</ele><time>2026-03-29T12:33:12Z</time></trkpt><trkpt lat="40.3989888454353" lon="15.187447038930234"><ele>685.2</ele><time>2026-03-29T12:33:14Z</time></trkpt><trkpt lat="40.399096084384006" lon="15.187429724052564"><ele>682.6</ele><time>2026-03-29T12:33:16Z</time></trkpt><trkpt lat="40.39915927881924" lon="15.187413721135327"><ele>680.0</ele><time>2026-03-29T12:33:17Z</time></trkpt><trkpt lat="40.399277772433756" lon="15.187385179846455"><ele>680.0</ele><time>2026-03-29T12:33:19Z</time></trkpt><trkpt lat="40.39939864946416" lon="15.187423205213008"><ele>680.0</ele><time>2026-03-29T12:33:21Z</time></trkpt><trkpt lat="40.39946043640759" lon="15.18745628720329"><ele>680.0</ele><time>2026-03-29T12:33:22Z</time></trkpt><trkpt lat="40.39952208787652" lon="15.187473397553589"><ele>680.0</ele><time>2026-03-29T12:33:23Z</time></trkpt><trkpt lat="40.39959360601003" lon="15.187478614860186"><ele>680.0</ele><time>2026-03-29T12:33:24Z</time></trkpt><trkpt lat="40.3997021502757" lon="15.187522878395068"><ele>680.0</ele><time>2026-03-29T12:33:26Z</time></trkpt><trkpt lat="40.39981576119444" lon="15.18753405097365"><ele>678.2</ele><time>2026-03-29T12:33:28Z</time></trkpt><trkpt lat="40.39992275125183" lon="15.187553028635879"><ele>676.4</ele><time>2026-03-29T12:33:30Z</time></trkpt><trkpt lat="40.40003742802147" lon="15.187534539026904"><ele>674.5999999999999</ele><time>2026-03-29T12:33:32Z</time></trkpt><trkpt lat="40.40014226113524" lon="15.187539002053338"><ele>672.8</ele><time>2026-03-29T12:33:34Z</time></trkpt><trkpt lat="40.40020741241535" lon="15.187517057953482"><ele>671.0</ele><time>2026-03-29T12:33:36Z</time></trkpt><trkpt lat="40.400281496354125" lon="15.187503451820504"><ele>671.0</ele><time>2026-03-29T12:33:38Z</time></trkpt><trkpt lat="40.40035247498154" lon="15.187488761297633"><ele>671.0</ele><time>2026-03-29T12:33:40Z</time></trkpt><trkpt lat="40.400416385309015" lon="15.187481638737186"><ele>671.0</ele><time>2026-03-29T12:33:42Z</time></trkpt><trkpt lat="40.400521913903006" lon="15.187447382947346"><ele>671.0</ele><time>2026-03-29T12:33:44Z</time></trkpt><trkpt lat="40.400605435263294" lon="15.187428856697938"><ele>671.0</ele><time>2026-03-29T12:33:46Z</time></trkpt><trkpt lat="40.40069785161768" lon="15.187396599013066"><ele>671.0</ele><time>2026-03-29T12:33:47.999Z</time></trkpt><trkpt lat="40.400805851691985" lon="15.187366421855657"><ele>672.0</ele><time>2026-03-29T12:33:49.999Z</time></trkpt><trkpt lat="40.40090701439923" lon="15.187323973877376"><ele>673.0</ele><time>2026-03-29T12:33:51.999Z</time></trkpt><trkpt lat="40.400995343506814" lon="15.187305767775081"><ele>674.0</ele><time>2026-03-29T12:33:53.999Z</time></trkpt><trkpt lat="40.40109996744577" lon="15.187261849193211"><ele>675.0</ele><time>2026-03-29T12:33:55.999Z</time></trkpt><trkpt lat="40.40119471893955" lon="15.18720576241079"><ele>676.0</ele><time>2026-03-29T12:33:57.999Z</time></trkpt><trkpt lat="40.401270202465525" lon="15.18711252315129"><ele>672.8333333333334</ele><time>2026-03-29T12:33:59.999Z</time></trkpt><trkpt lat="40.40136807998787" lon="15.187068602700924"><ele>669.6666666666667</ele><time>2026-03-29T12:34:01.999Z</time></trkpt><trkpt lat="40.40147408619692" lon="15.187037907866257"><ele>666.5</ele><time>2026-03-29T12:34:03.999Z</time></trkpt><trkpt lat="40.40154902951501" lon="15.18703744913657"><ele>663.3333333333334</ele><time>2026-03-29T12:34:05.999Z</time></trkpt><trkpt lat="40.40163422395518" lon="15.1870212230665"><ele>660.1666666666666</ele><time>2026-03-29T12:34:08.999Z</time></trkpt><trkpt lat="40.401702971905365" lon="15.187032335710224"><ele>657.0</ele><time>2026-03-29T12:34:32Z</time></trkpt><trkpt lat="40.40177739097188" lon="15.187000583666444"><ele>657.0</ele><time>2026-03-29T12:34:35Z</time></trkpt><trkpt lat="40.40185644200347" lon="15.186925375922735"><ele>657.0</ele><time>2026-03-29T12:34:37Z</time></trkpt><trkpt lat="40.401908212919956" lon="15.186842213975595"><ele>657.0</ele><time>2026-03-29T12:34:39Z</time></trkpt><trkpt lat="40.4019896315388" lon="15.186787148783408"><ele>657.0</ele><time>2026-03-29T12:34:41Z</time></trkpt><trkpt lat="40.40208521483185" lon="15.186723197164602"><ele>657.0</ele><time>2026-03-29T12:34:43Z</time></trkpt><trkpt lat="40.40217277900724" lon="15.186661402390257"><ele>654.0</ele><time>2026-03-29T12:34:45Z</time></trkpt><trkpt lat="40.402257744807706" lon="15.186585065796331"><ele>651.0</ele><time>2026-03-29T12:34:47Z</time></trkpt><trkpt lat="40.402351839408404" lon="15.186518678691563"><ele>648.0</ele><time>2026-03-29T12:34:49Z</time></trkpt><trkpt lat="40.40240793839994" lon="15.18647794995619"><ele>645.0</ele><time>2026-03-29T12:34:50Z</time></trkpt><trkpt lat="40.40246669696165" lon="15.18643876210095"><ele>642.0</ele><time>2026-03-29T12:34:51Z</time></trkpt><trkpt lat="40.40256481866972" lon="15.18635333362966"><ele>642.0</ele><time>2026-03-29T12:34:53Z</time></trkpt><trkpt lat="40.40261630328896" lon="15.186272095829283"><ele>642.0</ele><time>2026-03-29T12:34:55Z</time></trkpt><trkpt lat="40.40270045249589" lon="15.186180062231497"><ele>642.0</ele><time>2026-03-29T12:34:57Z</time></trkpt><trkpt lat="40.40274415680514" lon="15.18607802471189"><ele>642.0</ele><time>2026-03-29T12:34:59Z</time></trkpt><trkpt lat="40.40275890975652" lon="15.185974119692144"><ele>642.0</ele><time>2026-03-29T12:35:01Z</time></trkpt><trkpt lat="40.40285217473769" lon="15.185861807328033"><ele>642.0</ele><time>2026-03-29T12:35:04Z</time></trkpt><trkpt lat="40.402932550577994" lon="15.185808122264019"><ele>642.0</ele><time>2026-03-29T12:35:06Z</time></trkpt><trkpt lat="40.40301144636511" lon="15.185709026279248"><ele>642.0</ele><time>2026-03-29T12:35:08Z</time></trkpt><trkpt lat="40.403068576064285" lon="15.185636307164554"><ele>642.0</ele><time>2026-03-29T12:35:10Z</time></trkpt><trkpt lat="40.403110230330284" lon="15.185563032130288"><ele>642.0</ele><time>2026-03-29T12:35:12Z</time></trkpt><trkpt lat="40.4031143989551" lon="15.18547132029402"><ele>642.0</ele><time>2026-03-29T12:35:14Z</time></trkpt><trkpt lat="40.40311145966354" lon="15.185329126340156"><ele>638.4</ele><time>2026-03-29T12:35:16Z</time></trkpt><trkpt lat="40.40311163154995" lon="15.185151751216234"><ele>634.8000000000001</ele><time>2026-03-29T12:35:18Z</time></trkpt><trkpt lat="40.40308182692577" lon="15.185076232278623"><ele>631.2</ele><time>2026-03-29T12:35:19Z</time></trkpt><trkpt lat="40.403103005110154" lon="15.184957495821626"><ele>627.6</ele><time>2026-03-29T12:35:20Z</time></trkpt><trkpt lat="40.40309364893958" lon="15.18485403194642"><ele>624.0</ele><time>2026-03-29T12:35:27Z</time></trkpt><trkpt lat="40.403086947825585" lon="15.184701700758424"><ele>624.0</ele><time>2026-03-29T12:35:29Z</time></trkpt><trkpt lat="40.403102198420804" lon="15.184615923575457"><ele>624.0</ele><time>2026-03-29T12:35:42Z</time></trkpt><trkpt lat="40.40313797937155" lon="15.184483000248708"><ele>624.0</ele><time>2026-03-29T12:35:44Z</time></trkpt><trkpt lat="40.40317936633787" lon="15.184372802589245"><ele>624.0</ele><time>2026-03-29T12:35:46Z</time></trkpt><trkpt lat="40.403213399272175" lon="15.184292575095018"><ele>624.0</ele><time>2026-03-29T12:35:47Z</time></trkpt><trkpt lat="40.403248841854854" lon="15.184221125345925"><ele>624.0</ele><time>2026-03-29T12:35:48Z</time></trkpt><trkpt lat="40.403311686870644" lon="15.184095328732404"><ele>628.5</ele><time>2026-03-29T12:35:50Z</time></trkpt><trkpt lat="40.40335673481913" lon="15.18399927288274"><ele>633.0</ele><time>2026-03-29T12:35:51.999Z</time></trkpt><trkpt lat="40.403402394132655" lon="15.183901913391422"><ele>637.5</ele><time>2026-03-29T12:35:53.999Z</time></trkpt><trkpt lat="40.40365513359728" lon="15.183970365589092"><ele>642.0</ele><time>2026-03-29T12:35:56.999Z</time></trkpt><trkpt lat="40.403738184526254" lon="15.183918427482515"><ele>642.0</ele><time>2026-03-29T12:35:58.999Z</time></trkpt><trkpt lat="40.403803081539095" lon="15.183861763673786"><ele>642.0</ele><time>2026-03-29T12:36:00.999Z</time></trkpt><trkpt lat="40.403857304580775" lon="15.183790699639157"><ele>642.0</ele><time>2026-03-29T12:36:02.999Z</time></trkpt><trkpt lat="40.403895435952634" lon="15.183694224792115"><ele>642.0</ele><time>2026-03-29T12:36:04.999Z</time></trkpt><trkpt lat="40.40390900562757" lon="15.183611608725407"><ele>642.0</ele><time>2026-03-29T12:36:05.999Z</time></trkpt><trkpt lat="40.40393521606034" lon="15.183490879934812"><ele>642.0</ele><time>2026-03-29T12:36:07.999Z</time></trkpt><trkpt lat="40.403953985027904" lon="15.18334543714286"><ele>639.1666666666666</ele><time>2026-03-29T12:36:10.999Z</time></trkpt><trkpt lat="40.40398250247725" lon="15.183246695566561"><ele>636.3333333333334</ele><time>2026-03-29T12:36:12.999Z</time></trkpt><trkpt lat="40.404008005565714" lon="15.183119942916358"><ele>633.5</ele><time>2026-03-29T12:36:14.999Z</time></trkpt><trkpt lat="40.40405290598317" lon="15.183025623542267"><ele>630.6666666666667</ele><time>2026-03-29T12:36:16.999Z</time></trkpt><trkpt lat="40.404122869562535" lon="15.182988671902963"><ele>627.8333333333334</ele><time>2026-03-29T12:36:18.999Z</time></trkpt><trkpt lat="40.40419294690804" lon="15.183023766850264"><ele>625.0</ele><time>2026-03-29T12:36:21.999Z</time></trkpt><trkpt lat="40.40423176949385" lon="15.183121081109256"><ele>623.6666666666667</ele><time>2026-03-29T12:36:26.999Z</time></trkpt><trkpt lat="40.40424103349759" lon="15.183215499061808"><ele>622.3333333333334</ele><time>2026-03-29T12:36:38.999Z</time></trkpt><trkpt lat="40.404229293730765" lon="15.183321100850568"><ele>621.0</ele><time>2026-03-29T12:36:40.999Z</time></trkpt><trkpt lat="40.40425777082464" lon="15.18343812560149"><ele>619.6666666666666</ele><time>2026-03-29T12:36:42.999Z</time></trkpt><trkpt lat="40.40431205679235" lon="15.183536725420987"><ele>618.3333333333333</ele><time>2026-03-29T12:36:44.999Z</time></trkpt><trkpt lat="40.40435259393981" lon="15.183604122560027"><ele>617.0</ele><time>2026-03-29T12:36:46.999Z</time></trkpt><trkpt lat="40.40440484568774" lon="15.183650592989725"><ele>617.0</ele><time>2026-03-29T12:37:08Z</time></trkpt><trkpt lat="40.40447146516804" lon="15.183710098415911"><ele>617.0</ele><time>2026-03-29T12:41:50Z</time></trkpt><trkpt lat="40.40454784526043" lon="15.183774024340725"><ele>617.0</ele><time>2026-03-29T12:41:52Z</time></trkpt><trkpt lat="40.404641402773684" lon="15.183820299242983"><ele>617.0</ele><time>2026-03-29T12:41:54Z</time></trkpt><trkpt lat="40.404728770076076" lon="15.183881932710078"><ele>617.0</ele><time>2026-03-29T12:41:56Z</time></trkpt><trkpt lat="40.40481441586553" lon="15.183973867292128"><ele>613.4</ele><time>2026-03-29T12:41:58Z</time></trkpt><trkpt lat="40.40485020665511" lon="15.184115155727634"><ele>609.8000000000001</ele><time>2026-03-29T12:42:00Z</time></trkpt><trkpt lat="40.40487858603554" lon="15.18421822817896"><ele>606.2</ele><time>2026-03-29T12:42:01Z</time></trkpt><trkpt lat="40.40490561664078" lon="15.18436071745823"><ele>602.6</ele><time>2026-03-29T12:42:03Z</time></trkpt><trkpt lat="40.40491330631978" lon="15.184463975951825"><ele>599.0</ele><time>2026-03-29T12:42:05Z</time></trkpt><trkpt lat="40.40491342450021" lon="15.184580815766273"><ele>599.0</ele><time>2026-03-29T12:42:07Z</time></trkpt><trkpt lat="40.40496261563741" lon="15.184712198587762"><ele>599.0</ele><time>2026-03-29T12:42:08Z</time></trkpt><trkpt lat="40.40500744646743" lon="15.184847717193598"><ele>599.0</ele><time>2026-03-29T12:42:09Z</time></trkpt><trkpt lat="40.40512584474161" lon="15.184908973125204"><ele>599.0</ele><time>2026-03-29T12:42:11Z</time></trkpt><trkpt lat="40.405206883645" lon="15.184946588810723"><ele>599.0</ele><time>2026-03-29T12:42:12Z</time></trkpt><trkpt lat="40.405297232311526" lon="15.184990297662031"><ele>597.3333333333333</ele><time>2026-03-29T12:42:13Z</time></trkpt><trkpt lat="40.40538209984041" lon="15.185028229254604"><ele>595.6666666666666</ele><time>2026-03-29T12:42:14Z</time></trkpt><trkpt lat="40.40547054449068" lon="15.185076628370396"><ele>594.0</ele><time>2026-03-29T12:42:15Z</time></trkpt><trkpt lat="40.405541814506336" lon="15.18511088789102"><ele>592.3333333333334</ele><time>2026-03-29T12:42:16Z</time></trkpt><trkpt lat="40.40561613055134" lon="15.185148860564013"><ele>590.6666666666667</ele><time>2026-03-29T12:42:17Z</time></trkpt><trkpt lat="40.40569002831879" lon="15.185177039171533"><ele>589.0</ele><time>2026-03-29T12:42:18Z</time></trkpt><trkpt lat="40.40577091851471" lon="15.18520079191282"><ele>588.0</ele><time>2026-03-29T12:42:19Z</time></trkpt><trkpt lat="40.40585136250062" lon="15.185219510640042"><ele>587.0</ele><time>2026-03-29T12:42:20Z</time></trkpt><trkpt lat="40.40592747692518" lon="15.185229114246408"><ele>586.0</ele><time>2026-03-29T12:42:21Z</time></trkpt><trkpt lat="40.406009105976466" lon="15.185246096848694"><ele>585.0</ele><time>2026-03-29T12:42:22Z</time></trkpt><trkpt lat="40.406087958205994" lon="15.185305876914661"><ele>584.0</ele><time>2026-03-29T12:42:23Z</time></trkpt><trkpt lat="40.4061686664116" lon="15.185356717938442"><ele>583.0</ele><time>2026-03-29T12:42:24Z</time></trkpt><trkpt lat="40.40625851063087" lon="15.185414125023435"><ele>580.8</ele><time>2026-03-29T12:42:25Z</time></trkpt><trkpt lat="40.40634116194506" lon="15.185466936103746"><ele>578.5999999999999</ele><time>2026-03-29T12:42:26Z</time></trkpt><trkpt lat="40.406435887318715" lon="15.185518129625816"><ele>576.4000000000001</ele><time>2026-03-29T12:42:27Z</time></trkpt><trkpt lat="40.40653326597164" lon="15.18555040828499"><ele>574.2</ele><time>2026-03-29T12:42:28Z</time></trkpt><trkpt lat="40.406625225407076" lon="15.185545691673612"><ele>572.0</ele><time>2026-03-29T12:42:29Z</time></trkpt><trkpt lat="40.40673163621889" lon="15.18558230922205"><ele>572.0</ele><time>2026-03-29T12:42:30Z</time></trkpt><trkpt lat="40.406815916636454" lon="15.185590189646774"><ele>572.0</ele><time>2026-03-29T12:42:31Z</time></trkpt><trkpt lat="40.406912721493825" lon="15.185560172377468"><ele>572.0</ele><time>2026-03-29T12:42:32Z</time></trkpt><trkpt lat="40.406981175622995" lon="15.185542848628614"><ele>572.0</ele><time>2026-03-29T12:42:33Z</time></trkpt><trkpt lat="40.40706749210236" lon="15.185527910895912"><ele>572.0</ele><time>2026-03-29T12:42:34Z</time></trkpt><trkpt lat="40.40713712176282" lon="15.185515054715804"><ele>572.0</ele><time>2026-03-29T12:42:35Z</time></trkpt><trkpt lat="40.407256484014965" lon="15.185527585219074"><ele>570.4</ele><time>2026-03-29T12:42:37Z</time></trkpt><trkpt lat="40.407377471311555" lon="15.18560039370679"><ele>568.8000000000001</ele><time>2026-03-29T12:42:39Z</time></trkpt><trkpt lat="40.40745056495096" lon="15.185638591323883"><ele>567.2</ele><time>2026-03-29T12:42:40Z</time></trkpt><trkpt lat="40.407538615019924" lon="15.185661274761305"><ele>565.6</ele><time>2026-03-29T12:42:41Z</time></trkpt><trkpt lat="40.40763525049196" lon="15.18563457313952"><ele>564.0</ele><time>2026-03-29T12:42:42Z</time></trkpt><trkpt lat="40.407734971703945" lon="15.185632798129694"><ele>564.0</ele><time>2026-03-29T12:42:43Z</time></trkpt><trkpt lat="40.4078287632797" lon="15.185607135771633"><ele>564.0</ele><time>2026-03-29T12:42:44Z</time></trkpt><trkpt lat="40.40791480829243" lon="15.185576580231315"><ele>564.0</ele><time>2026-03-29T12:42:45Z</time></trkpt><trkpt lat="40.40799581616437" lon="15.185542507319465"><ele>564.0</ele><time>2026-03-29T12:42:46Z</time></trkpt><trkpt lat="40.408069913929054" lon="15.185499352794265"><ele>564.0</ele><time>2026-03-29T12:42:47Z</time></trkpt><trkpt lat="40.408141500305874" lon="15.185442812749324"><ele>564.0</ele><time>2026-03-29T12:42:48Z</time></trkpt><trkpt lat="40.40821568375777" lon="15.185357151467537"><ele>562.0</ele><time>2026-03-29T12:42:49Z</time></trkpt><trkpt lat="40.40828801271088" lon="15.185259276826203"><ele>560.0</ele><time>2026-03-29T12:42:50Z</time></trkpt><trkpt lat="40.40836328387858" lon="15.185145780026904"><ele>558.0</ele><time>2026-03-29T12:42:51Z</time></trkpt><trkpt lat="40.40844013215243" lon="15.185040508331609"><ele>556.0</ele><time>2026-03-29T12:42:52Z</time></trkpt><trkpt lat="40.40851588944042" lon="15.18495296554948"><ele>554.0</ele><time>2026-03-29T12:42:53Z</time></trkpt><trkpt lat="40.408578964292744" lon="15.184889892935479"><ele>554.6</ele><time>2026-03-29T12:42:54Z</time></trkpt><trkpt lat="40.408670640013554" lon="15.184810286170219"><ele>555.2</ele><time>2026-03-29T12:42:55Z</time></trkpt><trkpt lat="40.40875315646399" lon="15.184753993015196"><ele>555.8000000000001</ele><time>2026-03-29T12:42:56Z</time></trkpt><trkpt lat="40.408849976217944" lon="15.184706216850596"><ele>556.4</ele><time>2026-03-29T12:42:57Z</time></trkpt><trkpt lat="40.40894447315902" lon="15.184659845177096"><ele>557.0</ele><time>2026-03-29T12:42:58Z</time></trkpt><trkpt lat="40.40904904624639" lon="15.184611121380264"><ele>557.0</ele><time>2026-03-29T12:42:59Z</time></trkpt><trkpt lat="40.40916008976867" lon="15.184574663909126"><ele>557.0</ele><time>2026-03-29T12:43:00Z</time></trkpt><trkpt lat="40.40927709758887" lon="15.184540162108782"><ele>557.0</ele><time>2026-03-29T12:43:01Z</time></trkpt><trkpt lat="40.40938937143759" lon="15.184517961674267"><ele>557.0</ele><time>2026-03-29T12:43:02Z</time></trkpt><trkpt lat="40.40951812928162" lon="15.18449283395308"><ele>557.0</ele><time>2026-03-29T12:43:03Z</time></trkpt><trkpt lat="40.40962644555324" lon="15.184489298807259"><ele>557.0</ele><time>2026-03-29T12:43:04Z</time></trkpt><trkpt lat="40.40971658009175" lon="15.184470430685762"><ele>557.0</ele><time>2026-03-29T12:43:05Z</time></trkpt><trkpt lat="40.409830055664564" lon="15.184446676512552"><ele>557.0</ele><time>2026-03-29T12:43:06Z</time></trkpt><trkpt lat="40.409937193223975" lon="15.184402463234411"><ele>557.0</ele><time>2026-03-29T12:43:07Z</time></trkpt><trkpt lat="40.41004172105644" lon="15.184382056454425"><ele>555.25</ele><time>2026-03-29T12:43:08Z</time></trkpt><trkpt lat="40.41015894547363" lon="15.18436211159449"><ele>553.5</ele><time>2026-03-29T12:43:09Z</time></trkpt><trkpt lat="40.410275251824274" lon="15.18435476136086"><ele>551.75</ele><time>2026-03-29T12:43:10Z</time></trkpt><trkpt lat="40.410391578434435" lon="15.18433211118292"><ele>550.0</ele><time>2026-03-29T12:43:11Z</time></trkpt><trkpt lat="40.41050230513855" lon="15.184310353189435"><ele>548.0</ele><time>2026-03-29T12:43:12Z</time></trkpt><trkpt lat="40.41060369846831" lon="15.184264179258628"><ele>546.0</ele><time>2026-03-29T12:43:13Z</time></trkpt><trkpt lat="40.410700467074214" lon="15.184241742795749"><ele>544.0</ele><time>2026-03-29T12:43:14Z</time></trkpt><trkpt lat="40.41080218223727" lon="15.184200470031536"><ele>542.0</ele><time>2026-03-29T12:43:15Z</time></trkpt><trkpt lat="40.41090476293588" lon="15.184149008050763"><ele>540.0</ele><time>2026-03-29T12:43:16Z</time></trkpt><trkpt lat="40.41102423268392" lon="15.184085811077374"><ele>540.0</ele><time>2026-03-29T12:43:17Z</time></trkpt><trkpt lat="40.41114674169498" lon="15.184030414183121"><ele>540.0</ele><time>2026-03-29T12:43:18Z</time></trkpt><trkpt lat="40.411277954771094" lon="15.183968499169964"><ele>540.0</ele><time>2026-03-29T12:43:19Z</time></trkpt><trkpt lat="40.411400340641485" lon="15.183905386464113"><ele>540.0</ele><time>2026-03-29T12:43:20Z</time></trkpt><trkpt lat="40.411522301182266" lon="15.183847411685065"><ele>539.5</ele><time>2026-03-29T12:43:21Z</time></trkpt><trkpt lat="40.4116433353567" lon="15.183789703872618"><ele>539.0</ele><time>2026-03-29T12:43:22Z</time></trkpt><trkpt lat="40.41176831586186" lon="15.183729796699009"><ele>538.5</ele><time>2026-03-29T12:43:23Z</time></trkpt><trkpt lat="40.41188226604558" lon="15.183684659100896"><ele>538.0</ele><time>2026-03-29T12:43:24Z</time></trkpt><trkpt lat="40.41197614181199" lon="15.183618296326058"><ele>538.0</ele><time>2026-03-29T12:43:25Z</time></trkpt><trkpt lat="40.412062139970544" lon="15.183605042416499"><ele>538.0</ele><time>2026-03-29T12:43:26Z</time></trkpt><trkpt lat="40.41214267117595" lon="15.183591773517046"><ele>538.0</ele><time>2026-03-29T12:43:27Z</time></trkpt><trkpt lat="40.41222312021657" lon="15.183586951298576"><ele>538.0</ele><time>2026-03-29T12:43:28Z</time></trkpt><trkpt lat="40.412306612299865" lon="15.183593515808095"><ele>538.0</ele><time>2026-03-29T12:43:29Z</time></trkpt><trkpt lat="40.412399012182235" lon="15.183595403408708"><ele>538.0</ele><time>2026-03-29T12:43:30Z</time></trkpt><trkpt lat="40.412487725085434" lon="15.183650625171454"><ele>535.4</ele><time>2026-03-29T12:43:31Z</time></trkpt><trkpt lat="40.41256826606654" lon="15.18369952372378"><ele>532.8</ele><time>2026-03-29T12:43:32Z</time></trkpt><trkpt lat="40.4126662317112" lon="15.183748347752847"><ele>530.2</ele><time>2026-03-29T12:43:33Z</time></trkpt><trkpt lat="40.41276533162569" lon="15.183812646298088"><ele>527.6</ele><time>2026-03-29T12:43:34Z</time></trkpt><trkpt lat="40.4128705472022" lon="15.18390905923627"><ele>525.0</ele><time>2026-03-29T12:43:35Z</time></trkpt><trkpt lat="40.412984169367185" lon="15.18397604754502"><ele>520.0</ele><time>2026-03-29T12:43:36Z</time></trkpt><trkpt lat="40.41311213287577" lon="15.18401429458377"><ele>515.0</ele><time>2026-03-29T12:43:37Z</time></trkpt><trkpt lat="40.41323661837327" lon="15.18408442050713"><ele>510.0</ele><time>2026-03-29T12:43:38Z</time></trkpt><trkpt lat="40.413349738869655" lon="15.184151569445698"><ele>505.0</ele><time>2026-03-29T12:43:39Z</time></trkpt><trkpt lat="40.413463302088346" lon="15.184216505380254"><ele>505.0</ele><time>2026-03-29T12:43:40Z</time></trkpt><trkpt lat="40.41357209123656" lon="15.184283911932845"><ele>505.0</ele><time>2026-03-29T12:43:41Z</time></trkpt><trkpt lat="40.41366618490372" lon="15.184334549327222"><ele>505.0</ele><time>2026-03-29T12:43:42Z</time></trkpt><trkpt lat="40.41374662231849" lon="15.184381016601622"><ele>505.0</ele><time>2026-03-29T12:43:43Z</time></trkpt><trkpt lat="40.41381711484918" lon="15.184415477439261"><ele>505.0</ele><time>2026-03-29T12:43:44Z</time></trkpt><trkpt lat="40.41388083387609" lon="15.184432220848013"><ele>503.1666666666667</ele><time>2026-03-29T12:43:45Z</time></trkpt><trkpt lat="40.4139621217722" lon="15.184430196683461"><ele>501.33333333333337</ele><time>2026-03-29T12:43:46Z</time></trkpt><trkpt lat="40.41404492666963" lon="15.18439002705562"><ele>499.5</ele><time>2026-03-29T12:43:47Z</time></trkpt><trkpt lat="40.414130309485074" lon="15.184375141229436"><ele>497.66666666666663</ele><time>2026-03-29T12:43:48Z</time></trkpt><trkpt lat="40.41422167164509" lon="15.184366830829388"><ele>495.8333333333333</ele><time>2026-03-29T12:43:49Z</time></trkpt><trkpt lat="40.41431714406679" lon="15.184366664315007"><ele>494.0</ele><time>2026-03-29T12:43:50Z</time></trkpt><trkpt lat="40.41440853477887" lon="15.184368034365306"><ele>493.99999999999994</ele><time>2026-03-29T12:43:51Z</time></trkpt><trkpt lat="40.41449842042756" lon="15.184381356326766"><ele>494.0</ele><time>2026-03-29T12:43:52Z</time></trkpt><trkpt lat="40.41459561702698" lon="15.18440597371218"><ele>494.0</ele><time>2026-03-29T12:43:53Z</time></trkpt><trkpt lat="40.414681593896326" lon="15.1844104293324"><ele>494.0</ele><time>2026-03-29T12:43:54Z</time></trkpt><trkpt lat="40.41476227393005" lon="15.18440233891663"><ele>493.99999999999994</ele><time>2026-03-29T12:43:55Z</time></trkpt><trkpt lat="40.41483101208107" lon="15.184461459433752"><ele>494.0</ele><time>2026-03-29T12:43:56Z</time></trkpt><trkpt lat="40.41490153301595" lon="15.184505515041009"><ele>491.79999999999995</ele><time>2026-03-29T12:43:57Z</time></trkpt><trkpt lat="40.414968057480664" lon="15.184550508287938"><ele>489.59999999999997</ele><time>2026-03-29T12:43:58Z</time></trkpt><trkpt lat="40.415103838664194" lon="15.184640850414953"><ele>487.4</ele><time>2026-03-29T12:44:00Z</time></trkpt><trkpt lat="40.415182142944595" lon="15.184681697720654"><ele>485.2</ele><time>2026-03-29T12:44:01Z</time></trkpt><trkpt lat="40.41526146851053" lon="15.184740890590366"><ele>483.0</ele><time>2026-03-29T12:44:02Z</time></trkpt><trkpt lat="40.415347155466684" lon="15.184791111914608"><ele>483.0</ele><time>2026-03-29T12:44:03Z</time></trkpt><trkpt lat="40.41544511294283" lon="15.184845411480078"><ele>482.99999999999994</ele><time>2026-03-29T12:44:04Z</time></trkpt><trkpt lat="40.415564243881185" lon="15.184882981564202"><ele>482.99999999999994</ele><time>2026-03-29T12:44:06Z</time></trkpt><trkpt lat="40.41563356611099" lon="15.184897257704838"><ele>483.0</ele><time>2026-03-29T12:44:07Z</time></trkpt><trkpt lat="40.41569851956269" lon="15.184905812104839"><ele>483.0</ele><time>2026-03-29T12:44:08Z</time></trkpt><trkpt lat="40.415803851798564" lon="15.184912302300322"><ele>480.0</ele><time>2026-03-29T12:44:10Z</time></trkpt><trkpt lat="40.41588242617376" lon="15.184924950945003"><ele>477.0</ele><time>2026-03-29T12:44:13Z</time></trkpt><trkpt lat="40.41595656382462" lon="15.184981349799322"><ele>474.0</ele><time>2026-03-29T12:44:40Z</time></trkpt><trkpt lat="40.416023957065015" lon="15.184994846726276"><ele>471.0</ele><time>2026-03-29T12:45:55Z</time></trkpt><trkpt lat="40.41610371336488" lon="15.185043269192196"><ele>468.0</ele><time>2026-03-29T12:45:57Z</time></trkpt><trkpt lat="40.41620951709436" lon="15.185064729581677"><ele>465.0</ele><time>2026-03-29T12:45:59Z</time></trkpt><trkpt lat="40.41632486626234" lon="15.185084385494491"><ele>464.4</ele><time>2026-03-29T12:46:01Z</time></trkpt><trkpt lat="40.41643297357562" lon="15.185095237948644"><ele>463.8</ele><time>2026-03-29T12:46:03Z</time></trkpt><trkpt lat="40.416527630291064" lon="15.185123764347908"><ele>463.20000000000005</ele><time>2026-03-29T12:46:05Z</time></trkpt><trkpt lat="40.41663316612346" lon="15.18518451790121"><ele>462.6</ele><time>2026-03-29T12:46:07Z</time></trkpt><trkpt lat="40.41669776350134" lon="15.185214942486724"><ele>462.0</ele><time>2026-03-29T12:46:08Z</time></trkpt><trkpt lat="40.416790739103064" lon="15.18526221867967"><ele>462.0</ele><time>2026-03-29T12:46:10Z</time></trkpt><trkpt lat="40.416882639475524" lon="15.18532048522714"><ele>462.0</ele><time>2026-03-29T12:46:12Z</time></trkpt><trkpt lat="40.4169589749758" lon="15.185351933774413"><ele>462.0</ele><time>2026-03-29T12:46:14Z</time></trkpt><trkpt lat="40.417046490682516" lon="15.185400478080867"><ele>462.0</ele><time>2026-03-29T12:46:16Z</time></trkpt><trkpt lat="40.417105947209535" lon="15.185464906747248"><ele>462.0</ele><time>2026-03-29T12:46:18Z</time></trkpt><trkpt lat="40.41717120807924" lon="15.185482452934199"><ele>462.0</ele><time>2026-03-29T12:46:19Z</time></trkpt><trkpt lat="40.41726478443242" lon="15.18554154526748"><ele>461.5</ele><time>2026-03-29T12:46:21Z</time></trkpt><trkpt lat="40.41734472861018" lon="15.185587731426478"><ele>461.0</ele><time>2026-03-29T12:46:23Z</time></trkpt><trkpt lat="40.417399123763495" lon="15.185629378800533"><ele>460.5</ele><time>2026-03-29T12:46:25Z</time></trkpt><trkpt lat="40.417491543991225" lon="15.18564045379034"><ele>460.0</ele><time>2026-03-29T12:46:26Z</time></trkpt><trkpt lat="40.41756678025816" lon="15.185688119984576"><ele>459.5</ele><time>2026-03-29T12:46:27Z</time></trkpt><trkpt lat="40.417636607259844" lon="15.185773805239677"><ele>459.0</ele><time>2026-03-29T12:46:29Z</time></trkpt><trkpt lat="40.41770128555908" lon="15.185866924104207"><ele>457.0</ele><time>2026-03-29T12:46:31Z</time></trkpt><trkpt lat="40.41772463363115" lon="15.185944635865136"><ele>455.0</ele><time>2026-03-29T12:46:32Z</time></trkpt><trkpt lat="40.417746239879506" lon="15.186031965113104"><ele>453.0</ele><time>2026-03-29T12:46:33Z</time></trkpt><trkpt lat="40.4177560224065" lon="15.186125582079688"><ele>451.0</ele><time>2026-03-29T12:46:34Z</time></trkpt><trkpt lat="40.41775810966512" lon="15.186214458719421"><ele>449.0</ele><time>2026-03-29T12:46:35Z</time></trkpt><trkpt lat="40.41775936929496" lon="15.186313151088141"><ele>447.0</ele><time>2026-03-29T12:46:36Z</time></trkpt><trkpt lat="40.41776687422731" lon="15.186411858089697"><ele>445.0</ele><time>2026-03-29T12:46:37Z</time></trkpt><trkpt lat="40.41777048910332" lon="15.186512417910956"><ele>442.6666666666667</ele><time>2026-03-29T12:46:38Z</time></trkpt><trkpt lat="40.41777876555117" lon="15.186603305701434"><ele>440.33333333333337</ele><time>2026-03-29T12:46:39Z</time></trkpt><trkpt lat="40.4177918800358" lon="15.186717722766817"><ele>438.0</ele><time>2026-03-29T12:46:41Z</time></trkpt><trkpt lat="40.41782515704428" lon="15.186841798504712"><ele>435.66666666666663</ele><time>2026-03-29T12:46:43Z</time></trkpt><trkpt lat="40.41789553653076" lon="15.186891680859151"><ele>433.3333333333333</ele><time>2026-03-29T12:46:44Z</time></trkpt><trkpt lat="40.41795556312896" lon="15.186966223396592"><ele>431.0</ele><time>2026-03-29T12:46:45Z</time></trkpt><trkpt lat="40.41802289844366" lon="15.187032396016537"><ele>430.4</ele><time>2026-03-29T12:46:46Z</time></trkpt><trkpt lat="40.418080806187184" lon="15.187087823365891"><ele>429.8</ele><time>2026-03-29T12:46:47Z</time></trkpt><trkpt lat="40.41812755364747" lon="15.187145330127365"><ele>429.19999999999993</ele><time>2026-03-29T12:46:48Z</time></trkpt><trkpt lat="40.418230303776554" lon="15.187271917004356"><ele>428.59999999999997</ele><time>2026-03-29T12:46:50Z</time></trkpt><trkpt lat="40.41830711877142" lon="15.187340467298874"><ele>428.0</ele><time>2026-03-29T12:46:51Z</time></trkpt><trkpt lat="40.41839213763568" lon="15.18740755922115"><ele>427.0</ele><time>2026-03-29T12:46:52Z</time></trkpt><trkpt lat="40.418468758541" lon="15.187479548151803"><ele>425.99999999999994</ele><time>2026-03-29T12:46:53Z</time></trkpt><trkpt lat="40.41855604850864" lon="15.18755725298604"><ele>425.0</ele><time>2026-03-29T12:46:54Z</time></trkpt><trkpt lat="40.41863847364935" lon="15.18763901146581"><ele>424.0</ele><time>2026-03-29T12:46:55Z</time></trkpt><trkpt lat="40.418720279193515" lon="15.187717446751384"><ele>423.0</ele><time>2026-03-29T12:46:56Z</time></trkpt><trkpt lat="40.41880310685028" lon="15.187793759188287"><ele>421.79999999999995</ele><time>2026-03-29T12:46:57Z</time></trkpt><trkpt lat="40.41888444864109" lon="15.187874464965715"><ele>420.6</ele><time>2026-03-29T12:46:58Z</time></trkpt><trkpt lat="40.41896479826989" lon="15.187955649215084"><ele>419.4</ele><time>2026-03-29T12:46:59Z</time></trkpt><trkpt lat="40.41903985312494" lon="15.188028490591298"><ele>418.20000000000005</ele><time>2026-03-29T12:47:00Z</time></trkpt><trkpt lat="40.41911980139166" lon="15.188096136689143"><ele>417.0</ele><time>2026-03-29T12:47:01Z</time></trkpt><trkpt lat="40.4191997923105" lon="15.18816759646718"><ele>417.20000000000005</ele><time>2026-03-29T12:47:02Z</time></trkpt><trkpt lat="40.41927311479471" lon="15.188244959195131"><ele>417.4</ele><time>2026-03-29T12:47:03Z</time></trkpt><trkpt lat="40.41933647592073" lon="15.188338069151358"><ele>417.6</ele><time>2026-03-29T12:47:04Z</time></trkpt><trkpt lat="40.419394707905575" lon="15.188458313712719"><ele>417.79999999999995</ele><time>2026-03-29T12:47:05Z</time></trkpt><trkpt lat="40.41945177284073" lon="15.188576599485401"><ele>418.0</ele><time>2026-03-29T12:47:06Z</time></trkpt><trkpt lat="40.419525277873134" lon="15.18869566771381"><ele>418.0</ele><time>2026-03-29T12:47:07Z</time></trkpt><trkpt lat="40.4196105587902" lon="15.18879589728733"><ele>418.0</ele><time>2026-03-29T12:47:08Z</time></trkpt><trkpt lat="40.41969238794275" lon="15.188890626197297"><ele>418.0</ele><time>2026-03-29T12:47:09Z</time></trkpt><trkpt lat="40.41977270292508" lon="15.188987820475988"><ele>418.0</ele><time>2026-03-29T12:47:10Z</time></trkpt><trkpt lat="40.419847975827004" lon="15.189089817371388"><ele>418.0</ele><time>2026-03-29T12:47:11Z</time></trkpt><trkpt lat="40.41991813506098" lon="15.189184582040411"><ele>416.00000000000006</ele><time>2026-03-29T12:47:12Z</time></trkpt><trkpt lat="40.419982660262114" lon="15.189271110257142"><ele>414.0</ele><time>2026-03-29T12:47:13Z</time></trkpt><trkpt lat="40.420033430343885" lon="15.189323220724306"><ele>412.0</ele><time>2026-03-29T12:47:14Z</time></trkpt><trkpt lat="40.42008046364635" lon="15.189386213991751"><ele>410.0</ele><time>2026-03-29T12:47:15Z</time></trkpt><trkpt lat="40.42014547478042" lon="15.189464286925505"><ele>408.00000000000006</ele><time>2026-03-29T12:47:18Z</time></trkpt><trkpt lat="40.420248100945834" lon="15.189514148557612"><ele>406.0</ele><time>2026-03-29T12:47:20Z</time></trkpt><trkpt lat="40.42031695479138" lon="15.189536906796855"><ele>406.0</ele><time>2026-03-29T12:47:21Z</time></trkpt><trkpt lat="40.42039132023692" lon="15.18955619173612"><ele>406.0</ele><time>2026-03-29T12:47:22Z</time></trkpt><trkpt lat="40.42046522536946" lon="15.189580781381043"><ele>406.0</ele><time>2026-03-29T12:47:23Z</time></trkpt><trkpt lat="40.42062432437804" lon="15.189648961450416"><ele>406.0</ele><time>2026-03-29T12:47:25Z</time></trkpt><trkpt lat="40.42072270066039" lon="15.189675046728613"><ele>406.0</ele><time>2026-03-29T12:47:26Z</time></trkpt><trkpt lat="40.42081787614721" lon="15.189704577587216"><ele>406.0</ele><time>2026-03-29T12:47:27Z</time></trkpt><trkpt lat="40.4209106140581" lon="15.189748106762515"><ele>406.0</ele><time>2026-03-29T12:47:28Z</time></trkpt><trkpt lat="40.42099355809913" lon="15.189808381896405"><ele>406.0</ele><time>2026-03-29T12:47:29Z</time></trkpt><trkpt lat="40.421067561768524" lon="15.189872667010063"><ele>406.0</ele><time>2026-03-29T12:47:30Z</time></trkpt><trkpt lat="40.42114281458374" lon="15.18994456986379"><ele>406.0</ele><time>2026-03-29T12:47:31Z</time></trkpt><trkpt lat="40.42121910861513" lon="15.190015278580727"><ele>405.0</ele><time>2026-03-29T12:47:32Z</time></trkpt><trkpt lat="40.42128489354948" lon="15.190082738900156"><ele>404.0</ele><time>2026-03-29T12:47:33Z</time></trkpt><trkpt lat="40.421360100849476" lon="15.190220674042143"><ele>403.0</ele><time>2026-03-29T12:47:35Z</time></trkpt><trkpt lat="40.42138785570387" lon="15.190364155455377"><ele>402.0</ele><time>2026-03-29T12:47:37Z</time></trkpt><trkpt lat="40.421456076660554" lon="15.190475091610931"><ele>401.0</ele><time>2026-03-29T12:47:39Z</time></trkpt><trkpt lat="40.42152414254219" lon="15.190434437486255"><ele>401.0</ele><time>2026-03-29T12:47:40Z</time></trkpt><trkpt lat="40.42162282626398" lon="15.190328149817413"><ele>401.0</ele><time>2026-03-29T12:47:42Z</time></trkpt><trkpt lat="40.421701122405764" lon="15.19030373482574"><ele>401.0</ele><time>2026-03-29T12:47:43Z</time></trkpt><trkpt lat="40.42178976285459" lon="15.190301060321872"><ele>401.0</ele><time>2026-03-29T12:47:44Z</time></trkpt><trkpt lat="40.421892302702474" lon="15.190303883311444"><ele>401.0</ele><time>2026-03-29T12:47:45Z</time></trkpt><trkpt lat="40.42199081472541" lon="15.190303313617763"><ele>401.0</ele><time>2026-03-29T12:47:46Z</time></trkpt><trkpt lat="40.42207097103287" lon="15.190320223872977"><ele>401.0</ele><time>2026-03-29T12:47:47Z</time></trkpt><trkpt lat="40.42217199000952" lon="15.190306083864998"><ele>401.0</ele><time>2026-03-29T12:47:48Z</time></trkpt><trkpt lat="40.42226856307889" lon="15.190304483761272"><ele>401.0</ele><time>2026-03-29T12:47:49Z</time></trkpt><trkpt lat="40.42237611174786" lon="15.190300598986429"><ele>401.0</ele><time>2026-03-29T12:47:50Z</time></trkpt><trkpt lat="40.422492517773925" lon="15.190286011131304"><ele>401.0</ele><time>2026-03-29T12:47:51Z</time></trkpt><trkpt lat="40.42260317380849" lon="15.19025616639105"><ele>401.0</ele><time>2026-03-29T12:47:52Z</time></trkpt><trkpt lat="40.42272136644019" lon="15.190212077198268"><ele>401.0</ele><time>2026-03-29T12:47:53Z</time></trkpt><trkpt lat="40.422834173528535" lon="15.190158760311403"><ele>401.0</ele><time>2026-03-29T12:47:54Z</time></trkpt><trkpt lat="40.42293760199715" lon="15.190090627504686"><ele>402.25</ele><time>2026-03-29T12:47:55Z</time></trkpt><trkpt lat="40.42302833635446" lon="15.19000548191615"><ele>403.5</ele><time>2026-03-29T12:47:56Z</time></trkpt><trkpt lat="40.423098192622284" lon="15.18991742169327"><ele>404.75</ele><time>2026-03-29T12:47:57Z</time></trkpt><trkpt lat="40.423180529789086" lon="15.189844051522917"><ele>406.0</ele><time>2026-03-29T12:47:58Z</time></trkpt><trkpt lat="40.42330564833589" lon="15.18969103928759"><ele>406.0</ele><time>2026-03-29T12:48:00Z</time></trkpt><trkpt lat="40.4233708143838" lon="15.189611345249219"><ele>406.0</ele><time>2026-03-29T12:48:01Z</time></trkpt><trkpt lat="40.42345109418263" lon="15.189511080553526"><ele>406.0</ele><time>2026-03-29T12:48:02Z</time></trkpt><trkpt lat="40.423529603183894" lon="15.18939771348701"><ele>406.0</ele><time>2026-03-29T12:48:03Z</time></trkpt><trkpt lat="40.423618681776205" lon="15.189278790892583"><ele>406.0</ele><time>2026-03-29T12:48:04Z</time></trkpt><trkpt lat="40.42371495810039" lon="15.189158020758326"><ele>406.0</ele><time>2026-03-29T12:48:05Z</time></trkpt><trkpt lat="40.423810530969774" lon="15.189037205051156"><ele>406.0</ele><time>2026-03-29T12:48:06Z</time></trkpt><trkpt lat="40.42390362365408" lon="15.188919990747163"><ele>406.0</ele><time>2026-03-29T12:48:07Z</time></trkpt><trkpt lat="40.42399167090479" lon="15.188808006344253"><ele>406.0</ele><time>2026-03-29T12:48:08Z</time></trkpt><trkpt lat="40.424084715508386" lon="15.188691160350354"><ele>404.25</ele><time>2026-03-29T12:48:09Z</time></trkpt><trkpt lat="40.42417445523759" lon="15.18857825185339"><ele>402.5</ele><time>2026-03-29T12:48:10Z</time></trkpt><trkpt lat="40.42426317787679" lon="15.188470328879681"><ele>400.75</ele><time>2026-03-29T12:48:11Z</time></trkpt><trkpt lat="40.42436037899313" lon="15.188351828218575"><ele>399.0</ele><time>2026-03-29T12:48:12Z</time></trkpt><trkpt lat="40.42445522768818" lon="15.188232467593894"><ele>398.25</ele><time>2026-03-29T12:48:13Z</time></trkpt><trkpt lat="40.424555251638935" lon="15.18810988651609"><ele>397.5</ele><time>2026-03-29T12:48:14Z</time></trkpt><trkpt lat="40.42465549377561" lon="15.18798436011902"><ele>396.75</ele><time>2026-03-29T12:48:15Z</time></trkpt><trkpt lat="40.42476259706034" lon="15.187850523748912"><ele>396.0</ele><time>2026-03-29T12:48:16Z</time></trkpt><trkpt lat="40.42486665654007" lon="15.187722252776766"><ele>396.0</ele><time>2026-03-29T12:48:17Z</time></trkpt><trkpt lat="40.42497225550133" lon="15.187588361966993"><ele>396.0</ele><time>2026-03-29T12:48:18Z</time></trkpt><trkpt lat="40.425083341396245" lon="15.187457131213677"><ele>396.0</ele><time>2026-03-29T12:48:19Z</time></trkpt><trkpt lat="40.42519867752031" lon="15.187335131788338"><ele>396.0</ele><time>2026-03-29T12:48:20Z</time></trkpt><trkpt lat="40.42531734115655" lon="15.187209163283006"><ele>396.75</ele><time>2026-03-29T12:48:21Z</time></trkpt><trkpt lat="40.42542568488786" lon="15.187093036706019"><ele>397.5</ele><time>2026-03-29T12:48:22Z</time></trkpt><trkpt lat="40.425541750522" lon="15.186990937478157"><ele>398.25</ele><time>2026-03-29T12:48:23Z</time></trkpt><trkpt lat="40.425653783102256" lon="15.186887713263566"><ele>399.0</ele><time>2026-03-29T12:48:24Z</time></trkpt><trkpt lat="40.425767118222424" lon="15.186791369972536"><ele>399.0</ele><time>2026-03-29T12:48:25Z</time></trkpt><trkpt lat="40.42589446174696" lon="15.186676114448938"><ele>399.0</ele><time>2026-03-29T12:48:26Z</time></trkpt><trkpt lat="40.426016514873936" lon="15.186565766907808"><ele>399.0</ele><time>2026-03-29T12:48:27Z</time></trkpt><trkpt lat="40.426142846037195" lon="15.186462084250971"><ele>398.0</ele><time>2026-03-29T12:48:28Z</time></trkpt><trkpt lat="40.42626332283824" lon="15.186364145081708"><ele>397.0</ele><time>2026-03-29T12:48:29Z</time></trkpt><trkpt lat="40.42637465088507" lon="15.186268031615421"><ele>396.0</ele><time>2026-03-29T12:48:30Z</time></trkpt><trkpt lat="40.426484697554066" lon="15.186174966457028"><ele>395.0</ele><time>2026-03-29T12:48:31Z</time></trkpt><trkpt lat="40.42659925261776" lon="15.186077938919713"><ele>395.0</ele><time>2026-03-29T12:48:32Z</time></trkpt><trkpt lat="40.426701620329865" lon="15.185974072651701"><ele>395.0</ele><time>2026-03-29T12:48:33Z</time></trkpt><trkpt lat="40.42677956347043" lon="15.185834832527734"><ele>395.0</ele><time>2026-03-29T12:48:34Z</time></trkpt><trkpt lat="40.42685490052723" lon="15.185674207990624"><ele>395.0</ele><time>2026-03-29T12:48:35Z</time></trkpt><trkpt lat="40.42691885125686" lon="15.185508657490315"><ele>398.25</ele><time>2026-03-29T12:48:36Z</time></trkpt><trkpt lat="40.42698021964978" lon="15.185346806656076"><ele>401.5</ele><time>2026-03-29T12:48:37Z</time></trkpt><trkpt lat="40.42703559178128" lon="15.185187868968388"><ele>404.75</ele><time>2026-03-29T12:48:38Z</time></trkpt><trkpt lat="40.42709998168622" lon="15.185025685777662"><ele>408.0</ele><time>2026-03-29T12:48:39Z</time></trkpt><trkpt lat="40.42713703016718" lon="15.184839328344461"><ele>408.0</ele><time>2026-03-29T12:48:40Z</time></trkpt><trkpt lat="40.42714364367048" lon="15.184632141902402"><ele>408.0</ele><time>2026-03-29T12:48:41Z</time></trkpt><trkpt lat="40.427160270257865" lon="15.184431883204825"><ele>408.0</ele><time>2026-03-29T12:48:42Z</time></trkpt><trkpt lat="40.42719071146539" lon="15.184230081718916"><ele>401.0</ele><time>2026-03-29T12:48:43Z</time></trkpt><trkpt lat="40.42721475275156" lon="15.18403998716479"><ele>394.0</ele><time>2026-03-29T12:48:44Z</time></trkpt><trkpt lat="40.42723936783696" lon="15.18385956114248"><ele>387.0</ele><time>2026-03-29T12:48:45Z</time></trkpt><trkpt lat="40.427246258329966" lon="15.18371069080676"><ele>380.0</ele><time>2026-03-29T12:48:46Z</time></trkpt><trkpt lat="40.42728382039222" lon="15.183577250353506"><ele>380.0</ele><time>2026-03-29T12:48:47Z</time></trkpt><trkpt lat="40.427342420573936" lon="15.183456396171572"><ele>380.0</ele><time>2026-03-29T12:48:48Z</time></trkpt><trkpt lat="40.427420438825585" lon="15.183359637869462"><ele>380.0</ele><time>2026-03-29T12:48:49Z</time></trkpt><trkpt lat="40.42750779048005" lon="15.183298942834455"><ele>380.0</ele><time>2026-03-29T12:48:50Z</time></trkpt><trkpt lat="40.42761537776045" lon="15.18328311874617"><ele>380.0</ele><time>2026-03-29T12:48:51Z</time></trkpt><trkpt lat="40.42772333951056" lon="15.183294664066239"><ele>380.0</ele><time>2026-03-29T12:48:52Z</time></trkpt><trkpt lat="40.42784834946212" lon="15.18335115110616"><ele>380.0</ele><time>2026-03-29T12:48:53Z</time></trkpt><trkpt lat="40.427992913262806" lon="15.18337905909636"><ele>380.0</ele><time>2026-03-29T12:48:54Z</time></trkpt><trkpt lat="40.42814666760968" lon="15.183436637202384"><ele>380.0</ele><time>2026-03-29T12:48:55Z</time></trkpt><trkpt lat="40.4282995027528" lon="15.183471255797421"><ele>380.25</ele><time>2026-03-29T12:48:56Z</time></trkpt><trkpt lat="40.428437367177565" lon="15.183509919966909"><ele>380.5</ele><time>2026-03-29T12:48:57Z</time></trkpt><trkpt lat="40.42858540932047" lon="15.183545315538419"><ele>380.75</ele><time>2026-03-29T12:48:58Z</time></trkpt><trkpt lat="40.42872321810763" lon="15.18358743522054"><ele>381.0</ele><time>2026-03-29T12:48:59Z</time></trkpt><trkpt lat="40.42886290958126" lon="15.183610231179829"><ele>381.0</ele><time>2026-03-29T12:49:00Z</time></trkpt><trkpt lat="40.428984999962395" lon="15.183620834917853"><ele>381.0</ele><time>2026-03-29T12:49:01Z</time></trkpt><trkpt lat="40.42909026225989" lon="15.183631383035245"><ele>381.0</ele><time>2026-03-29T12:49:02Z</time></trkpt><trkpt lat="40.429185296733905" lon="15.18363949219694"><ele>381.0</ele><time>2026-03-29T12:49:03Z</time></trkpt><trkpt lat="40.42927193545007" lon="15.18366594988925"><ele>381.0</ele><time>2026-03-29T12:49:04Z</time></trkpt><trkpt lat="40.4293364206227" lon="15.18371482428338"><ele>381.0</ele><time>2026-03-29T12:49:05Z</time></trkpt><trkpt lat="40.42940661097992" lon="15.183794289612036"><ele>381.0</ele><time>2026-03-29T12:49:07Z</time></trkpt><trkpt lat="40.42947737230666" lon="15.183830259160557"><ele>381.0</ele><time>2026-03-29T12:49:08Z</time></trkpt><trkpt lat="40.42957449051043" lon="15.183849453884125"><ele>381.0</ele><time>2026-03-29T12:49:09Z</time></trkpt><trkpt lat="40.429704489532014" lon="15.183869557546101"><ele>381.0</ele><time>2026-03-29T12:49:10Z</time></trkpt><trkpt lat="40.42982497747933" lon="15.183894411902505"><ele>383.5</ele><time>2026-03-29T12:49:11Z</time></trkpt><trkpt lat="40.429961338705255" lon="15.183934198498019"><ele>386.0</ele><time>2026-03-29T12:49:12Z</time></trkpt><trkpt lat="40.43010375136113" lon="15.18398632070943"><ele>388.5</ele><time>2026-03-29T12:49:12.999Z</time></trkpt><trkpt lat="40.430241858595444" lon="15.184035977910993"><ele>391.0</ele><time>2026-03-29T12:49:13.999Z</time></trkpt><trkpt lat="40.43038445818241" lon="15.184089035493754"><ele>380.75</ele><time>2026-03-29T12:49:14.999Z</time></trkpt><trkpt lat="40.43052556031611" lon="15.184144403942444"><ele>370.5</ele><time>2026-03-29T12:49:15.999Z</time></trkpt><trkpt lat="40.4306617206779" lon="15.184197877135558"><ele>360.25</ele><time>2026-03-29T12:49:16.999Z</time></trkpt><trkpt lat="40.43079826504249" lon="15.184261275546183"><ele>350.0</ele><time>2026-03-29T12:49:17.999Z</time></trkpt><trkpt lat="40.430923058804595" lon="15.184330876712048"><ele>350.0</ele><time>2026-03-29T12:49:18.999Z</time></trkpt><trkpt lat="40.43105635825038" lon="15.184380267268601"><ele>350.0</ele><time>2026-03-29T12:49:19.999Z</time></trkpt><trkpt lat="40.431193555664166" lon="15.184386446764606"><ele>350.0</ele><time>2026-03-29T12:49:20.999Z</time></trkpt><trkpt lat="40.431341953955396" lon="15.184372790549347"><ele>350.0</ele><time>2026-03-29T12:49:21.999Z</time></trkpt><trkpt lat="40.43149199708815" lon="15.184355220565624"><ele>351.0</ele><time>2026-03-29T12:49:22.999Z</time></trkpt><trkpt lat="40.431630651411936" lon="15.18433701325442"><ele>352.0</ele><time>2026-03-29T12:49:23.999Z</time></trkpt><trkpt lat="40.43176103053668" lon="15.184294880992539"><ele>353.0</ele><time>2026-03-29T12:49:24.999Z</time></trkpt><trkpt lat="40.431895851327674" lon="15.184229010195432"><ele>354.0</ele><time>2026-03-29T12:49:25.999Z</time></trkpt><trkpt lat="40.4320360902651" lon="15.184156623086116"><ele>351.6666666666667</ele><time>2026-03-29T12:49:26.999Z</time></trkpt><trkpt lat="40.432183534024546" lon="15.184103883555304"><ele>349.33333333333337</ele><time>2026-03-29T12:49:27.999Z</time></trkpt><trkpt lat="40.43233536798791" lon="15.18408999823052"><ele>347.0</ele><time>2026-03-29T12:49:28.999Z</time></trkpt><trkpt lat="40.432487276620954" lon="15.184101306745735"><ele>347.0</ele><time>2026-03-29T12:49:29.999Z</time></trkpt><trkpt lat="40.43263712924322" lon="15.184119318251282"><ele>347.0</ele><time>2026-03-29T12:49:30.999Z</time></trkpt><trkpt lat="40.432785621596345" lon="15.18414672492494"><ele>347.0</ele><time>2026-03-29T12:49:31.999Z</time></trkpt><trkpt lat="40.432922753211614" lon="15.184192126348213"><ele>347.0</ele><time>2026-03-29T12:49:32.999Z</time></trkpt><trkpt lat="40.433049310592985" lon="15.18423020585165"><ele>344.25</ele><time>2026-03-29T12:49:34Z</time></trkpt><trkpt lat="40.43316999182319" lon="15.18423195639604"><ele>341.5</ele><time>2026-03-29T12:49:35Z</time></trkpt><trkpt lat="40.43328993296161" lon="15.184180703788753"><ele>338.75</ele><time>2026-03-29T12:49:36Z</time></trkpt><trkpt lat="40.4334030348042" lon="15.18409648925266"><ele>336.0</ele><time>2026-03-29T12:49:37Z</time></trkpt><trkpt lat="40.43349867283406" lon="15.183989035501842"><ele>341.5</ele><time>2026-03-29T12:49:38Z</time></trkpt><trkpt lat="40.43357716850846" lon="15.18385962854479"><ele>347.0</ele><time>2026-03-29T12:49:39Z</time></trkpt><trkpt lat="40.4336300126611" lon="15.18368013016878"><ele>352.5</ele><time>2026-03-29T12:49:40Z</time></trkpt><trkpt lat="40.433686378937146" lon="15.183501182502749"><ele>358.0</ele><time>2026-03-29T12:49:41Z</time></trkpt><trkpt lat="40.433731901917554" lon="15.183318086511825"><ele>362.3333333333333</ele><time>2026-03-29T12:49:42Z</time></trkpt><trkpt lat="40.43376831059471" lon="15.183125159387671"><ele>366.6666666666667</ele><time>2026-03-29T12:49:43Z</time></trkpt><trkpt lat="40.43380773517807" lon="15.182928319440858"><ele>371.0</ele><time>2026-03-29T12:49:44Z</time></trkpt><trkpt lat="40.43387048138804" lon="15.182737703175825"><ele>359.0</ele><time>2026-03-29T12:49:45Z</time></trkpt><trkpt lat="40.43397376746486" lon="15.182570914165845"><ele>347.0</ele><time>2026-03-29T12:49:46Z</time></trkpt><trkpt lat="40.43407361419768" lon="15.18238789887686"><ele>335.0</ele><time>2026-03-29T12:49:47Z</time></trkpt><trkpt lat="40.43413905824767" lon="15.182188055788666"><ele>335.0</ele><time>2026-03-29T12:49:48Z</time></trkpt><trkpt lat="40.43420884411702" lon="15.181981218454197"><ele>335.0</ele><time>2026-03-29T12:49:49Z</time></trkpt><trkpt lat="40.43426890033471" lon="15.181772738849922"><ele>335.0</ele><time>2026-03-29T12:49:50Z</time></trkpt><trkpt lat="40.43433751349411" lon="15.181562160956997"><ele>336.0</ele><time>2026-03-29T12:49:51Z</time></trkpt><trkpt lat="40.434380160253774" lon="15.181339768358841"><ele>337.0</ele><time>2026-03-29T12:49:52Z</time></trkpt><trkpt lat="40.43443197967507" lon="15.181117226807777"><ele>338.0</ele><time>2026-03-29T12:49:53Z</time></trkpt><trkpt lat="40.434467484395945" lon="15.180895018272926"><ele>339.0</ele><time>2026-03-29T12:49:54Z</time></trkpt><trkpt lat="40.4344974689484" lon="15.180659886776297"><ele>340.0</ele><time>2026-03-29T12:49:55Z</time></trkpt><trkpt lat="40.43452814151054" lon="15.180424884468643"><ele>341.0</ele><time>2026-03-29T12:49:56Z</time></trkpt><trkpt lat="40.43456630117584" lon="15.180185470140003"><ele>341.0</ele><time>2026-03-29T12:49:57Z</time></trkpt><trkpt lat="40.43459076585839" lon="15.179969223295938"><ele>341.0</ele><time>2026-03-29T12:49:58Z</time></trkpt><trkpt lat="40.43461484215943" lon="15.179740478800545"><ele>341.0</ele><time>2026-03-29T12:49:59Z</time></trkpt><trkpt lat="40.43461194227337" lon="15.179516716191147"><ele>341.6666666666667</ele><time>2026-03-29T12:50:00Z</time></trkpt><trkpt lat="40.43460692319078" lon="15.17928317634918"><ele>342.3333333333333</ele><time>2026-03-29T12:50:01Z</time></trkpt><trkpt lat="40.434560259686506" lon="15.17904118319659"><ele>343.0</ele><time>2026-03-29T12:50:02Z</time></trkpt><trkpt lat="40.434526223454995" lon="15.178804569751227"><ele>343.0</ele><time>2026-03-29T12:50:03Z</time></trkpt><trkpt lat="40.43448795441385" lon="15.178583302926064"><ele>343.0</ele><time>2026-03-29T12:50:04Z</time></trkpt><trkpt lat="40.43448177868274" lon="15.178347399549255"><ele>343.0</ele><time>2026-03-29T12:50:05Z</time></trkpt><trkpt lat="40.4344702087139" lon="15.178109721828656"><ele>341.3333333333333</ele><time>2026-03-29T12:50:06Z</time></trkpt><trkpt lat="40.43446376426276" lon="15.177870244630565"><ele>339.6666666666667</ele><time>2026-03-29T12:50:07Z</time></trkpt><trkpt lat="40.434463267705354" lon="15.17763780373341"><ele>338.0</ele><time>2026-03-29T12:50:08Z</time></trkpt><trkpt lat="40.43446363880459" lon="15.177416668574155"><ele>340.0</ele><time>2026-03-29T12:50:09Z</time></trkpt><trkpt lat="40.434475431205776" lon="15.177203667549545"><ele>342.0</ele><time>2026-03-29T12:50:10Z</time></trkpt><trkpt lat="40.434518644903775" lon="15.176975030586982"><ele>344.0</ele><time>2026-03-29T12:50:11Z</time></trkpt><trkpt lat="40.434581314579894" lon="15.17674549943136"><ele>332.6666666666667</ele><time>2026-03-29T12:50:12Z</time></trkpt><trkpt lat="40.43465291822121" lon="15.176510127506944"><ele>321.3333333333333</ele><time>2026-03-29T12:50:13Z</time></trkpt><trkpt lat="40.43471306101286" lon="15.176283832205975"><ele>310.0</ele><time>2026-03-29T12:50:14Z</time></trkpt><trkpt lat="40.43478335734869" lon="15.176069992024887"><ele>310.0</ele><time>2026-03-29T12:50:15Z</time></trkpt><trkpt lat="40.434854506402154" lon="15.175858370585258"><ele>310.0</ele><time>2026-03-29T12:50:16Z</time></trkpt><trkpt lat="40.4349185868855" lon="15.175661934451494"><ele>310.0</ele><time>2026-03-29T12:50:17Z</time></trkpt><trkpt lat="40.434982881955484" lon="15.17546161119103"><ele>314.0</ele><time>2026-03-29T12:50:18Z</time></trkpt><trkpt lat="40.43504613981812" lon="15.175271879489308"><ele>318.0</ele><time>2026-03-29T12:50:19Z</time></trkpt><trkpt lat="40.435131415337224" lon="15.175098041952769"><ele>322.0</ele><time>2026-03-29T12:50:20Z</time></trkpt><trkpt lat="40.435209396519156" lon="15.174918804608529"><ele>316.66666666666663</ele><time>2026-03-29T12:50:21Z</time></trkpt><trkpt lat="40.43529378636912" lon="15.17474926542919"><ele>311.3333333333333</ele><time>2026-03-29T12:50:22Z</time></trkpt><trkpt lat="40.435385224568094" lon="15.174579078487762"><ele>306.0</ele><time>2026-03-29T12:50:23Z</time></trkpt><trkpt lat="40.43548037111026" lon="15.174399010658263"><ele>306.0</ele><time>2026-03-29T12:50:24Z</time></trkpt><trkpt lat="40.43557897186141" lon="15.17421539947013"><ele>306.0</ele><time>2026-03-29T12:50:25Z</time></trkpt><trkpt lat="40.435676078798814" lon="15.17403633514495"><ele>306.0</ele><time>2026-03-29T12:50:26Z</time></trkpt><trkpt lat="40.43577422573817" lon="15.173855374476307"><ele>309.25</ele><time>2026-03-29T12:50:27Z</time></trkpt><trkpt lat="40.4358606466737" lon="15.173716897276835"><ele>312.5</ele><time>2026-03-29T12:50:28Z</time></trkpt><trkpt lat="40.43597375753381" lon="15.173591045465693"><ele>315.75</ele><time>2026-03-29T12:50:29Z</time></trkpt><trkpt lat="40.43608969922109" lon="15.17348947485565"><ele>319.0</ele><time>2026-03-29T12:50:30Z</time></trkpt><trkpt lat="40.4361829626405" lon="15.173368701502692"><ele>319.0</ele><time>2026-03-29T12:50:31Z</time></trkpt><trkpt lat="40.436251932371334" lon="15.173218405627859"><ele>319.0</ele><time>2026-03-29T12:50:32Z</time></trkpt><trkpt lat="40.436294220222344" lon="15.173054142575435"><ele>319.0</ele><time>2026-03-29T12:50:33Z</time></trkpt><trkpt lat="40.43630401884373" lon="15.172868993403311"><ele>319.0</ele><time>2026-03-29T12:50:34Z</time></trkpt><trkpt lat="40.436300789740514" lon="15.172678149563056"><ele>311.3333333333333</ele><time>2026-03-29T12:50:35Z</time></trkpt><trkpt lat="40.43630476555765" lon="15.172473457055544"><ele>303.6666666666667</ele><time>2026-03-29T12:50:36Z</time></trkpt><trkpt lat="40.43636280211217" lon="15.172288204887648"><ele>296.0</ele><time>2026-03-29T12:50:37Z</time></trkpt><trkpt lat="40.43641410643479" lon="15.172092811007559"><ele>296.0</ele><time>2026-03-29T12:50:38Z</time></trkpt><trkpt lat="40.43645110078058" lon="15.171889950700649"><ele>296.0</ele><time>2026-03-29T12:50:39Z</time></trkpt><trkpt lat="40.4364855881455" lon="15.17168031763144"><ele>296.0</ele><time>2026-03-29T12:50:40Z</time></trkpt><trkpt lat="40.43649715389609" lon="15.17146182693345"><ele>296.33333333333337</ele><time>2026-03-29T12:50:41Z</time></trkpt><trkpt lat="40.43649856176218" lon="15.171225246719965"><ele>296.6666666666667</ele><time>2026-03-29T12:50:42Z</time></trkpt><trkpt lat="40.43652439258682" lon="15.170993495910091"><ele>297.0</ele><time>2026-03-29T12:50:43Z</time></trkpt><trkpt lat="40.43653740747779" lon="15.17076120530966"><ele>297.0</ele><time>2026-03-29T12:50:44Z</time></trkpt><trkpt lat="40.43654847651281" lon="15.17053672721914"><ele>297.0</ele><time>2026-03-29T12:50:45Z</time></trkpt><trkpt lat="40.43655885353313" lon="15.170310134029084"><ele>297.0</ele><time>2026-03-29T12:50:46Z</time></trkpt><trkpt lat="40.43657042828635" lon="15.170096760710983"><ele>297.0</ele><time>2026-03-29T12:50:47Z</time></trkpt><trkpt lat="40.43658096229467" lon="15.169877787318072"><ele>297.0</ele><time>2026-03-29T12:50:48Z</time></trkpt><trkpt lat="40.43659100794612" lon="15.169658563594156"><ele>297.0</ele><time>2026-03-29T12:50:49Z</time></trkpt><trkpt lat="40.43659533703474" lon="15.16943543376961"><ele>299.6666666666667</ele><time>2026-03-29T12:50:50Z</time></trkpt><trkpt lat="40.43665019816177" lon="15.169229403347927"><ele>302.33333333333337</ele><time>2026-03-29T12:50:51Z</time></trkpt><trkpt lat="40.436710677171256" lon="15.169019774784298"><ele>305.0</ele><time>2026-03-29T12:50:52Z</time></trkpt><trkpt lat="40.43677884688725" lon="15.168795846984239"><ele>306.6666666666667</ele><time>2026-03-29T12:50:53Z</time></trkpt><trkpt lat="40.436827406999576" lon="15.168582252536968"><ele>308.3333333333333</ele><time>2026-03-29T12:50:54Z</time></trkpt><trkpt lat="40.43689065278168" lon="15.168366693590512"><ele>310.0</ele><time>2026-03-29T12:50:55Z</time></trkpt><trkpt lat="40.43696213095573" lon="15.168177278739421"><ele>313.0</ele><time>2026-03-29T12:50:56Z</time></trkpt><trkpt lat="40.437016545781496" lon="15.167984341072588"><ele>316.0</ele><time>2026-03-29T12:50:57Z</time></trkpt><trkpt lat="40.43706927988037" lon="15.167797111074485"><ele>319.0</ele><time>2026-03-29T12:50:58Z</time></trkpt><trkpt lat="40.43712912664852" lon="15.16762505755256"><ele>310.75</ele><time>2026-03-29T12:50:59Z</time></trkpt><trkpt lat="40.43722037959047" lon="15.167449329361125"><ele>302.5</ele><time>2026-03-29T12:51:00Z</time></trkpt><trkpt lat="40.43732206251093" lon="15.167300507117787"><ele>294.25</ele><time>2026-03-29T12:51:01Z</time></trkpt><trkpt lat="40.437351829957564" lon="15.167167334772943"><ele>286.0</ele><time>2026-03-29T12:51:02Z</time></trkpt><trkpt lat="40.437375996094204" lon="15.167006604140536"><ele>286.0</ele><time>2026-03-29T12:51:03Z</time></trkpt><trkpt lat="40.43737895587885" lon="15.166810811844071"><ele>286.0</ele><time>2026-03-29T12:51:04Z</time></trkpt><trkpt lat="40.43736817306107" lon="15.166607739129558"><ele>286.0</ele><time>2026-03-29T12:51:05Z</time></trkpt><trkpt lat="40.437337382964564" lon="15.166399762002563"><ele>286.66666666666663</ele><time>2026-03-29T12:51:06Z</time></trkpt><trkpt lat="40.43729970565106" lon="15.166191138121604"><ele>287.3333333333333</ele><time>2026-03-29T12:51:07Z</time></trkpt><trkpt lat="40.43727425207372" lon="15.165990843585526"><ele>288.0</ele><time>2026-03-29T12:51:08Z</time></trkpt><trkpt lat="40.43725444969952" lon="15.165796131558015"><ele>288.0</ele><time>2026-03-29T12:51:09Z</time></trkpt><trkpt lat="40.43724105754651" lon="15.165612819238364"><ele>288.0</ele><time>2026-03-29T12:51:10Z</time></trkpt><trkpt lat="40.43721947875062" lon="15.165418989488478"><ele>288.0</ele><time>2026-03-29T12:51:11Z</time></trkpt><trkpt lat="40.4372218337729" lon="15.165259525336237"><ele>288.0</ele><time>2026-03-29T12:51:12Z</time></trkpt><trkpt lat="40.437263845345846" lon="15.165121147878432"><ele>288.0</ele><time>2026-03-29T12:51:13Z</time></trkpt><trkpt lat="40.437336963472504" lon="15.164996291137923"><ele>288.0</ele><time>2026-03-29T12:51:14Z</time></trkpt><trkpt lat="40.437412138700275" lon="15.164846173516464"><ele>288.0</ele><time>2026-03-29T12:51:15Z</time></trkpt><trkpt lat="40.437515027927496" lon="15.164700348750086"><ele>288.0</ele><time>2026-03-29T12:51:16Z</time></trkpt><trkpt lat="40.43761084074825" lon="15.164543848119989"><ele>289.5</ele><time>2026-03-29T12:51:17Z</time></trkpt><trkpt lat="40.437693555190535" lon="15.164386792067273"><ele>291.0</ele><time>2026-03-29T12:51:18Z</time></trkpt><trkpt lat="40.437762392664276" lon="15.164235150843771"><ele>292.5</ele><time>2026-03-29T12:51:19Z</time></trkpt><trkpt lat="40.437835834776564" lon="15.164080323636812"><ele>294.0</ele><time>2026-03-29T12:51:20Z</time></trkpt><trkpt lat="40.43791974941603" lon="15.16395020467455"><ele>294.25</ele><time>2026-03-29T12:51:21Z</time></trkpt><trkpt lat="40.43802358880062" lon="15.163845320467813"><ele>294.5</ele><time>2026-03-29T12:51:22Z</time></trkpt><trkpt lat="40.438153155492095" lon="15.163761054277492"><ele>294.75</ele><time>2026-03-29T12:51:23Z</time></trkpt><trkpt lat="40.43829453393588" lon="15.163703052015414"><ele>295.0</ele><time>2026-03-29T12:51:24Z</time></trkpt><trkpt lat="40.43844488008876" lon="15.163653435090863"><ele>295.0</ele><time>2026-03-29T12:51:25Z</time></trkpt><trkpt lat="40.43858790812442" lon="15.163618941107147"><ele>295.0</ele><time>2026-03-29T12:51:26Z</time></trkpt><trkpt lat="40.43874024186762" lon="15.163613147010594"><ele>295.0</ele><time>2026-03-29T12:51:27Z</time></trkpt><trkpt lat="40.43889295676014" lon="15.163630415849829"><ele>292.5</ele><time>2026-03-29T12:51:28Z</time></trkpt><trkpt lat="40.43903038120535" lon="15.16364525060736"><ele>290.0</ele><time>2026-03-29T12:51:29Z</time></trkpt><trkpt lat="40.43915768349962" lon="15.163647735941556"><ele>287.5</ele><time>2026-03-29T12:51:30Z</time></trkpt><trkpt lat="40.43928191061987" lon="15.163621999539895"><ele>285.0</ele><time>2026-03-29T12:51:31Z</time></trkpt><trkpt lat="40.439401203953466" lon="15.16355781142243"><ele>285.0</ele><time>2026-03-29T12:51:32Z</time></trkpt><trkpt lat="40.4395133508912" lon="15.163461874749425"><ele>285.0</ele><time>2026-03-29T12:51:33Z</time></trkpt><trkpt lat="40.43963149933846" lon="15.163307172271988"><ele>285.0</ele><time>2026-03-29T12:51:34Z</time></trkpt><trkpt lat="40.439747502932974" lon="15.163175202728208"><ele>283.0</ele><time>2026-03-29T12:51:35Z</time></trkpt><trkpt lat="40.43986116361153" lon="15.163030901936546"><ele>281.0</ele><time>2026-03-29T12:51:36Z</time></trkpt><trkpt lat="40.43995909012224" lon="15.162899608151308"><ele>279.0</ele><time>2026-03-29T12:51:37Z</time></trkpt><trkpt lat="40.44007686694694" lon="15.162741700303071"><ele>279.0</ele><time>2026-03-29T12:51:38Z</time></trkpt><trkpt lat="40.44019671673684" lon="15.162578569079935"><ele>279.0</ele><time>2026-03-29T12:51:39Z</time></trkpt><trkpt lat="40.440315995918645" lon="15.162412732658785"><ele>279.0</ele><time>2026-03-29T12:51:40Z</time></trkpt><trkpt lat="40.440428575928436" lon="15.16225626944653"><ele>277.0</ele><time>2026-03-29T12:51:41Z</time></trkpt><trkpt lat="40.44053315352523" lon="15.162110927925271"><ele>275.0</ele><time>2026-03-29T12:51:42Z</time></trkpt><trkpt lat="40.44062757990859" lon="15.161979694518145"><ele>273.0</ele><time>2026-03-29T12:51:43Z</time></trkpt><trkpt lat="40.44072355527235" lon="15.161841894110784"><ele>271.0</ele><time>2026-03-29T12:51:44Z</time></trkpt><trkpt lat="40.44081797126968" lon="15.161691780307487"><ele>271.0</ele><time>2026-03-29T12:51:45Z</time></trkpt><trkpt lat="40.440902426340784" lon="15.161547107471694"><ele>271.0</ele><time>2026-03-29T12:51:46Z</time></trkpt><trkpt lat="40.44097850002976" lon="15.161407737097468"><ele>271.0</ele><time>2026-03-29T12:51:47Z</time></trkpt><trkpt lat="40.44108838148709" lon="15.16131813234217"><ele>271.0</ele><time>2026-03-29T12:51:48Z</time></trkpt><trkpt lat="40.44123016062946" lon="15.161296556836156"><ele>272.5</ele><time>2026-03-29T12:51:49Z</time></trkpt><trkpt lat="40.441367944791885" lon="15.161236731073522"><ele>274.0</ele><time>2026-03-29T12:51:50Z</time></trkpt><trkpt lat="40.44149031515434" lon="15.161170344608669"><ele>275.5</ele><time>2026-03-29T12:51:51Z</time></trkpt><trkpt lat="40.44160349349892" lon="15.161124909622103"><ele>277.0</ele><time>2026-03-29T12:51:52Z</time></trkpt><trkpt lat="40.44171245390666" lon="15.161090282331557"><ele>277.0</ele><time>2026-03-29T12:51:53Z</time></trkpt><trkpt lat="40.44181781556898" lon="15.161082585988586"><ele>277.0</ele><time>2026-03-29T12:51:54Z</time></trkpt><trkpt lat="40.44192531545777" lon="15.161092782630304"><ele>277.0</ele><time>2026-03-29T12:51:55Z</time></trkpt><trkpt lat="40.44206663545363" lon="15.161152128412368"><ele>277.0</ele><time>2026-03-29T12:51:56Z</time></trkpt><trkpt lat="40.44219034047766" lon="15.161222658826027"><ele>276.6</ele><time>2026-03-29T12:51:57Z</time></trkpt><trkpt lat="40.44228910729663" lon="15.161246072477862"><ele>276.2</ele><time>2026-03-29T12:51:58Z</time></trkpt><trkpt lat="40.44239910485581" lon="15.161304111933317"><ele>275.8</ele><time>2026-03-29T12:51:59Z</time></trkpt><trkpt lat="40.44250527676186" lon="15.161353473339252"><ele>275.4</ele><time>2026-03-29T12:52:00Z</time></trkpt><trkpt lat="40.442610253528166" lon="15.161407800972144"><ele>275.0</ele><time>2026-03-29T12:52:01Z</time></trkpt><trkpt lat="40.442718125285666" lon="15.16147706296425"><ele>274.75</ele><time>2026-03-29T12:52:02Z</time></trkpt><trkpt lat="40.442811877523674" lon="15.161568334489859"><ele>274.5</ele><time>2026-03-29T12:52:03Z</time></trkpt><trkpt lat="40.44289146580281" lon="15.161678820861649"><ele>274.25</ele><time>2026-03-29T12:52:04Z</time></trkpt><trkpt lat="40.44296896601973" lon="15.161803800889052"><ele>274.0</ele><time>2026-03-29T12:52:05Z</time></trkpt><trkpt lat="40.443037055344284" lon="15.161939556637364"><ele>274.0</ele><time>2026-03-29T12:52:06Z</time></trkpt><trkpt lat="40.44311073830266" lon="15.162085921467314"><ele>274.0</ele><time>2026-03-29T12:52:07Z</time></trkpt><trkpt lat="40.44318431558024" lon="15.16220722885996"><ele>274.0</ele><time>2026-03-29T12:52:08Z</time></trkpt><trkpt lat="40.443265447260984" lon="15.16230388925243"><ele>274.0</ele><time>2026-03-29T12:52:09Z</time></trkpt><trkpt lat="40.4433600691541" lon="15.16235911291593"><ele>273.16666666666663</ele><time>2026-03-29T12:52:10Z</time></trkpt><trkpt lat="40.44345053313315" lon="15.162406551218913"><ele>272.3333333333333</ele><time>2026-03-29T12:52:11Z</time></trkpt><trkpt lat="40.44352144808581" lon="15.162469311559583"><ele>271.5</ele><time>2026-03-29T12:52:12Z</time></trkpt><trkpt lat="40.443591219660725" lon="15.162493861001039"><ele>270.6666666666667</ele><time>2026-03-29T12:52:13Z</time></trkpt><trkpt lat="40.44369757573605" lon="15.162527108341957"><ele>269.83333333333337</ele><time>2026-03-29T12:52:15Z</time></trkpt><trkpt lat="40.44377779435519" lon="15.162496508711559"><ele>269.0</ele><time>2026-03-29T12:52:17Z</time></trkpt><trkpt lat="40.44387048973797" lon="15.162452432686756"><ele>268.4</ele><time>2026-03-29T12:52:20Z</time></trkpt><trkpt lat="40.44380159257041" lon="15.162287886962552"><ele>267.79999999999995</ele><time>2026-03-29T12:52:21Z</time></trkpt><trkpt lat="40.443795950694" lon="15.162203698142733"><ele>267.20000000000005</ele><time>2026-03-29T12:52:22Z</time></trkpt><trkpt lat="40.44375160647409" lon="15.162060164675863"><ele>266.6</ele><time>2026-03-29T12:52:24Z</time></trkpt><trkpt lat="40.44372598070947" lon="15.161975964515513"><ele>266.0</ele><time>2026-03-29T12:52:25Z</time></trkpt><trkpt lat="40.4437021869773" lon="15.161882792323643"><ele>267.33333333333337</ele><time>2026-03-29T12:52:26Z</time></trkpt><trkpt lat="40.44368383771003" lon="15.16177815388182"><ele>268.6666666666667</ele><time>2026-03-29T12:52:27Z</time></trkpt><trkpt lat="40.44367043784738" lon="15.161637438764773"><ele>270.0</ele><time>2026-03-29T12:52:28Z</time></trkpt><trkpt lat="40.443667882828166" lon="15.161519541061494"><ele>271.3333333333333</ele><time>2026-03-29T12:52:29Z</time></trkpt><trkpt lat="40.44367287254695" lon="15.16142078770443"><ele>272.66666666666663</ele><time>2026-03-29T12:52:30Z</time></trkpt><trkpt lat="40.44367721751935" lon="15.16131878178951"><ele>274.0</ele><time>2026-03-29T12:52:31Z</time></trkpt><trkpt lat="40.44368227227739" lon="15.161199290629016"><ele>274.0</ele><time>2026-03-29T12:52:32Z</time></trkpt><trkpt lat="40.44368870401585" lon="15.161062922648224"><ele>274.0</ele><time>2026-03-29T12:52:33Z</time></trkpt><trkpt lat="40.44369584863287" lon="15.160924495486638"><ele>274.0</ele><time>2026-03-29T12:52:34Z</time></trkpt><trkpt lat="40.443696879351364" lon="15.160782184355378"><ele>274.0</ele><time>2026-03-29T12:52:35Z</time></trkpt><trkpt lat="40.44370303293215" lon="15.160647143600357"><ele>274.0</ele><time>2026-03-29T12:52:36Z</time></trkpt><trkpt lat="40.44371146434541" lon="15.160511393311353"><ele>273.2</ele><time>2026-03-29T12:52:37Z</time></trkpt><trkpt lat="40.443718828880925" lon="15.160394182623607"><ele>272.4</ele><time>2026-03-29T12:52:38Z</time></trkpt><trkpt lat="40.44372625666507" lon="15.160271720738754"><ele>271.6</ele><time>2026-03-29T12:52:39Z</time></trkpt><trkpt lat="40.44372869823563" lon="15.16014096748509"><ele>270.8</ele><time>2026-03-29T12:52:40Z</time></trkpt><trkpt lat="40.443738915809504" lon="15.160013677392113"><ele>270.0</ele><time>2026-03-29T12:52:41Z</time></trkpt><trkpt lat="40.44377253698259" lon="15.159891484266527"><ele>267.6</ele><time>2026-03-29T12:52:42Z</time></trkpt><trkpt lat="40.44381504019768" lon="15.159780017114569"><ele>265.2</ele><time>2026-03-29T12:52:43Z</time></trkpt><trkpt lat="40.44388040733958" lon="15.159679187145843"><ele>262.8</ele><time>2026-03-29T12:52:44Z</time></trkpt><trkpt lat="40.44395773729861" lon="15.159564223741103"><ele>260.4</ele><time>2026-03-29T12:52:45Z</time></trkpt><trkpt lat="40.44404793903529" lon="15.159447487444659"><ele>258.0</ele><time>2026-03-29T12:52:46Z</time></trkpt><trkpt lat="40.44413930347037" lon="15.159343053297547"><ele>258.0</ele><time>2026-03-29T12:52:47Z</time></trkpt><trkpt lat="40.44422640961112" lon="15.15921448233636"><ele>258.0</ele><time>2026-03-29T12:52:48Z</time></trkpt><trkpt lat="40.44433061250842" lon="15.159108109819167"><ele>258.0</ele><time>2026-03-29T12:52:49Z</time></trkpt><trkpt lat="40.44442294805396" lon="15.158992803840691"><ele>258.0</ele><time>2026-03-29T12:52:50Z</time></trkpt><trkpt lat="40.44451533931569" lon="15.158873088017987"><ele>256.75</ele><time>2026-03-29T12:52:51Z</time></trkpt><trkpt lat="40.4446067335726" lon="15.158738659006278"><ele>255.5</ele><time>2026-03-29T12:52:52Z</time></trkpt><trkpt lat="40.444703208390244" lon="15.15861226750373"><ele>254.25</ele><time>2026-03-29T12:52:53Z</time></trkpt><trkpt lat="40.44479639941067" lon="15.158487420435797"><ele>253.0</ele><time>2026-03-29T12:52:54Z</time></trkpt><trkpt lat="40.44488602587999" lon="15.158363527056444"><ele>251.25</ele><time>2026-03-29T12:52:55Z</time></trkpt><trkpt lat="40.444963257524996" lon="15.158248839549797"><ele>249.5</ele><time>2026-03-29T12:52:56Z</time></trkpt><trkpt lat="40.44501963156134" lon="15.158125722771336"><ele>247.75</ele><time>2026-03-29T12:52:57Z</time></trkpt><trkpt lat="40.445049117822634" lon="15.157983655982632"><ele>246.0</ele><time>2026-03-29T12:52:58Z</time></trkpt><trkpt lat="40.44506493780294" lon="15.157830425539114"><ele>244.25</ele><time>2026-03-29T12:52:59Z</time></trkpt><trkpt lat="40.44511799445421" lon="15.157683820324653"><ele>242.5</ele><time>2026-03-29T12:53:00Z</time></trkpt><trkpt lat="40.445181047224885" lon="15.157541199529014"><ele>240.75</ele><time>2026-03-29T12:53:01Z</time></trkpt><trkpt lat="40.44523218897155" lon="15.157404336693759"><ele>239.0</ele><time>2026-03-29T12:53:02Z</time></trkpt><trkpt lat="40.445254897180696" lon="15.15725473218694"><ele>237.0</ele><time>2026-03-29T12:53:03Z</time></trkpt><trkpt lat="40.445278865518205" lon="15.157093552462506"><ele>235.0</ele><time>2026-03-29T12:53:04Z</time></trkpt><trkpt lat="40.44531192147485" lon="15.156931310166808"><ele>233.0</ele><time>2026-03-29T12:53:05Z</time></trkpt><trkpt lat="40.44533588684621" lon="15.156760909849428"><ele>231.0</ele><time>2026-03-29T12:53:06Z</time></trkpt><trkpt lat="40.44535378145736" lon="15.156582183206417"><ele>229.33333333333331</ele><time>2026-03-29T12:53:07Z</time></trkpt><trkpt lat="40.445413516805885" lon="15.156407324969202"><ele>227.66666666666666</ele><time>2026-03-29T12:53:08Z</time></trkpt><trkpt lat="40.445449790903325" lon="15.156212301329028"><ele>226.0</ele><time>2026-03-29T12:53:09Z</time></trkpt><trkpt lat="40.44550125825749" lon="15.156024604970112"><ele>224.0</ele><time>2026-03-29T12:53:10Z</time></trkpt><trkpt lat="40.44554635415949" lon="15.155849347274788"><ele>222.0</ele><time>2026-03-29T12:53:11Z</time></trkpt><trkpt lat="40.44558337970617" lon="15.15567948294493"><ele>220.0</ele><time>2026-03-29T12:53:12Z</time></trkpt><trkpt lat="40.44561147932048" lon="15.155524886579068"><ele>218.0</ele><time>2026-03-29T12:53:13Z</time></trkpt><trkpt lat="40.445655457689654" lon="15.155387828068013"><ele>217.4</ele><time>2026-03-29T12:53:14Z</time></trkpt><trkpt lat="40.445682023664084" lon="15.15527918235806"><ele>216.8</ele><time>2026-03-29T12:53:15Z</time></trkpt><trkpt lat="40.445706545345764" lon="15.155182906692401"><ele>216.2</ele><time>2026-03-29T12:53:16Z</time></trkpt><trkpt lat="40.44577655951292" lon="15.155117060476698"><ele>215.6</ele><time>2026-03-29T12:53:17Z</time></trkpt><trkpt lat="40.445926417383085" lon="15.155117813956362"><ele>215.0</ele><time>2026-03-29T12:53:19Z</time></trkpt><trkpt lat="40.44603969873771" lon="15.15510650926337"><ele>215.0</ele><time>2026-03-29T12:53:20Z</time></trkpt><trkpt lat="40.44614888173589" lon="15.155110201954011"><ele>215.0</ele><time>2026-03-29T12:53:21Z</time></trkpt><trkpt lat="40.44625247770161" lon="15.155116620321877"><ele>215.0</ele><time>2026-03-29T12:53:22Z</time></trkpt><trkpt lat="40.44635688279553" lon="15.155136074922313"><ele>215.0</ele><time>2026-03-29T12:53:23Z</time></trkpt><trkpt lat="40.446454656235815" lon="15.155146892330162"><ele>215.0</ele><time>2026-03-29T12:53:24Z</time></trkpt><trkpt lat="40.446531327026115" lon="15.15514775399078"><ele>214.0</ele><time>2026-03-29T12:53:25.001Z</time></trkpt><trkpt lat="40.44660378428004" lon="15.155133965301358"><ele>213.0</ele><time>2026-03-29T12:53:26.001Z</time></trkpt><trkpt lat="40.44667575265711" lon="15.15509412658206"><ele>212.0</ele><time>2026-03-29T12:53:27.001Z</time></trkpt><trkpt lat="40.446749094705154" lon="15.155021273815478"><ele>211.0</ele><time>2026-03-29T12:53:28.001Z</time></trkpt><trkpt lat="40.44682638147865" lon="15.154929674942975"><ele>210.0</ele><time>2026-03-29T12:53:29.001Z</time></trkpt><trkpt lat="40.44690240000861" lon="15.15481582029054"><ele>209.0</ele><time>2026-03-29T12:53:30.001Z</time></trkpt><trkpt lat="40.446973375575254" lon="15.154698946315536"><ele>208.0</ele><time>2026-03-29T12:53:31.001Z</time></trkpt><trkpt lat="40.44703964213084" lon="15.15458290225641"><ele>207.0</ele><time>2026-03-29T12:53:32.001Z</time></trkpt><trkpt lat="40.44709929495986" lon="15.154473018367664"><ele>206.0</ele><time>2026-03-29T12:53:33.001Z</time></trkpt><trkpt lat="40.447158489816395" lon="15.15436789607209"><ele>205.0</ele><time>2026-03-29T12:53:34.001Z</time></trkpt><trkpt lat="40.44721078477784" lon="15.154274740290486"><ele>204.8</ele><time>2026-03-29T12:53:35.001Z</time></trkpt><trkpt lat="40.44726245384732" lon="15.154180312122005"><ele>204.6</ele><time>2026-03-29T12:53:36.001Z</time></trkpt><trkpt lat="40.44729841242338" lon="15.1540833420793"><ele>204.39999999999998</ele><time>2026-03-29T12:53:37.001Z</time></trkpt><trkpt lat="40.447335778265824" lon="15.15391909952252"><ele>204.2</ele><time>2026-03-29T12:53:39.001Z</time></trkpt><trkpt lat="40.44737948205936" lon="15.15383046668026"><ele>204.0</ele><time>2026-03-29T12:53:40Z</time></trkpt><trkpt lat="40.44745451287036" lon="15.153745839245552"><ele>202.39999999999998</ele><time>2026-03-29T12:53:41Z</time></trkpt><trkpt lat="40.44752224130679" lon="15.153637064204938"><ele>200.8</ele><time>2026-03-29T12:53:42Z</time></trkpt><trkpt lat="40.44759100407615" lon="15.153514269596386"><ele>199.2</ele><time>2026-03-29T12:53:43Z</time></trkpt><trkpt lat="40.44766970526754" lon="15.153421229155628"><ele>197.60000000000002</ele><time>2026-03-29T12:53:44Z</time></trkpt><trkpt lat="40.44773863168126" lon="15.153311001271204"><ele>196.0</ele><time>2026-03-29T12:53:45Z</time></trkpt><trkpt lat="40.447806599357264" lon="15.153196592046129"><ele>193.5</ele><time>2026-03-29T12:53:46Z</time></trkpt><trkpt lat="40.44786955370718" lon="15.153072500695293"><ele>191.0</ele><time>2026-03-29T12:53:47Z</time></trkpt><trkpt lat="40.4479276780558" lon="15.152934009391835"><ele>188.5</ele><time>2026-03-29T12:53:48Z</time></trkpt><trkpt lat="40.44799076043788" lon="15.152806035501454"><ele>186.0</ele><time>2026-03-29T12:53:49Z</time></trkpt><trkpt lat="40.448043877303206" lon="15.15267645330401"><ele>184.60000000000002</ele><time>2026-03-29T12:53:50Z</time></trkpt><trkpt lat="40.44809704171635" lon="15.152564026966534"><ele>183.2</ele><time>2026-03-29T12:53:51Z</time></trkpt><trkpt lat="40.44815597557736" lon="15.15244351471633"><ele>181.8</ele><time>2026-03-29T12:53:52Z</time></trkpt><trkpt lat="40.44823955148934" lon="15.15234498476881"><ele>180.39999999999998</ele><time>2026-03-29T12:53:53Z</time></trkpt><trkpt lat="40.448320375898454" lon="15.152237078143909"><ele>179.0</ele><time>2026-03-29T12:53:54Z</time></trkpt><trkpt lat="40.44840289028602" lon="15.152131890611775"><ele>177.6</ele><time>2026-03-29T12:53:55Z</time></trkpt><trkpt lat="40.44848304114244" lon="15.152035538518964"><ele>176.2</ele><time>2026-03-29T12:53:56Z</time></trkpt><trkpt lat="40.44854320619627" lon="15.151924186566506"><ele>174.79999999999998</ele><time>2026-03-29T12:53:57Z</time></trkpt><trkpt lat="40.448600858827646" lon="15.151818846248574"><ele>173.39999999999998</ele><time>2026-03-29T12:53:58Z</time></trkpt><trkpt lat="40.44866687019315" lon="15.151714139821527"><ele>172.0</ele><time>2026-03-29T12:53:59Z</time></trkpt><trkpt lat="40.448764008202645" lon="15.151645631718154"><ele>170.6</ele><time>2026-03-29T12:54:00Z</time></trkpt><trkpt lat="40.44885087563681" lon="15.151587626954194"><ele>169.2</ele><time>2026-03-29T12:54:01Z</time></trkpt><trkpt lat="40.44893562240996" lon="15.151519840771183"><ele>167.8</ele><time>2026-03-29T12:54:02Z</time></trkpt><trkpt lat="40.44901313021664" lon="15.15146010454848"><ele>166.4</ele><time>2026-03-29T12:54:03Z</time></trkpt><trkpt lat="40.44909986688795" lon="15.151451685539836"><ele>165.0</ele><time>2026-03-29T12:54:04Z</time></trkpt><trkpt lat="40.44921296196515" lon="15.151449935769415"><ele>163.0</ele><time>2026-03-29T12:54:05Z</time></trkpt><trkpt lat="40.449308893567185" lon="15.151453207202373"><ele>161.0</ele><time>2026-03-29T12:54:06Z</time></trkpt><trkpt lat="40.449420736207784" lon="15.151444894531377"><ele>159.0</ele><time>2026-03-29T12:54:07Z</time></trkpt><trkpt lat="40.44954211531058" lon="15.151451753477598"><ele>157.0</ele><time>2026-03-29T12:54:08Z</time></trkpt><trkpt lat="40.449661634467176" lon="15.151437701412174"><ele>155.0</ele><time>2026-03-29T12:54:09Z</time></trkpt><trkpt lat="40.44976197450753" lon="15.151419621206061"><ele>154.66666666666666</ele><time>2026-03-29T12:54:10Z</time></trkpt><trkpt lat="40.449858250436876" lon="15.151400936966757"><ele>154.33333333333331</ele><time>2026-03-29T12:54:11Z</time></trkpt><trkpt lat="40.44994492592924" lon="15.151389066417492"><ele>154.0</ele><time>2026-03-29T12:54:12Z</time></trkpt><trkpt lat="40.45001769764395" lon="15.15138040595392"><ele>153.66666666666666</ele><time>2026-03-29T12:54:13Z</time></trkpt><trkpt lat="40.45008060272106" lon="15.151376494630524"><ele>153.33333333333334</ele><time>2026-03-29T12:54:14Z</time></trkpt><trkpt lat="40.450140603945265" lon="15.15133943792665"><ele>153.0</ele><time>2026-03-29T12:54:17Z</time></trkpt><trkpt lat="40.45012050190202" lon="15.151190638802417"><ele>153.0</ele><time>2026-03-29T12:54:20Z</time></trkpt><trkpt lat="40.45005639252669" lon="15.151082860759308"><ele>153.0</ele><time>2026-03-29T12:54:21Z</time></trkpt><trkpt lat="40.44999811899987" lon="15.150997335072693"><ele>153.0</ele><time>2026-03-29T12:54:22Z</time></trkpt><trkpt lat="40.44994401818394" lon="15.15089983338719"><ele>153.0</ele><time>2026-03-29T12:54:23Z</time></trkpt><trkpt lat="40.44988192784228" lon="15.150793648382788"><ele>153.0</ele><time>2026-03-29T12:54:24Z</time></trkpt><trkpt lat="40.4498293310062" lon="15.150693447233417"><ele>151.83333333333334</ele><time>2026-03-29T12:54:25Z</time></trkpt><trkpt lat="40.44979418632319" lon="15.150596373070895"><ele>150.66666666666666</ele><time>2026-03-29T12:54:26Z</time></trkpt><trkpt lat="40.449810905336136" lon="15.150513670766749"><ele>149.5</ele><time>2026-03-29T12:54:27Z</time></trkpt><trkpt lat="40.4498432262071" lon="15.150391459309747"><ele>148.33333333333331</ele><time>2026-03-29T12:54:28Z</time></trkpt><trkpt lat="40.449912543749754" lon="15.150297556614202"><ele>147.16666666666666</ele><time>2026-03-29T12:54:29Z</time></trkpt><trkpt lat="40.44999754092483" lon="15.150223338366395"><ele>146.0</ele><time>2026-03-29T12:54:30Z</time></trkpt><trkpt lat="40.45008670197368" lon="15.150167597411599"><ele>146.0</ele><time>2026-03-29T12:54:31Z</time></trkpt><trkpt lat="40.4501761129254" lon="15.150157699821442"><ele>146.0</ele><time>2026-03-29T12:54:32Z</time></trkpt><trkpt lat="40.450277714494476" lon="15.150184349096936"><ele>146.0</ele><time>2026-03-29T12:54:33Z</time></trkpt><trkpt lat="40.45039029855538" lon="15.150235658976351"><ele>146.0</ele><time>2026-03-29T12:54:34Z</time></trkpt><trkpt lat="40.450513825733395" lon="15.150290678326405"><ele>146.0</ele><time>2026-03-29T12:54:35Z</time></trkpt><trkpt lat="40.45064479513723" lon="15.15035510099255"><ele>144.75</ele><time>2026-03-29T12:54:36Z</time></trkpt><trkpt lat="40.45077277342991" lon="15.150424435223899"><ele>143.5</ele><time>2026-03-29T12:54:37Z</time></trkpt><trkpt lat="40.45089780228124" lon="15.150489479005557"><ele>142.25</ele><time>2026-03-29T12:54:38Z</time></trkpt><trkpt lat="40.45101656736009" lon="15.15054969116058"><ele>141.0</ele><time>2026-03-29T12:54:39Z</time></trkpt><trkpt lat="40.451130237646176" lon="15.150566126971697"><ele>141.0</ele><time>2026-03-29T12:54:40Z</time></trkpt><trkpt lat="40.45125126548856" lon="15.150607843004659"><ele>141.0</ele><time>2026-03-29T12:54:41Z</time></trkpt><trkpt lat="40.45135763395534" lon="15.15058636225163"><ele>141.0</ele><time>2026-03-29T12:54:42Z</time></trkpt><trkpt lat="40.45144577639454" lon="15.150521297081776"><ele>141.0</ele><time>2026-03-29T12:54:43Z</time></trkpt><trkpt lat="40.45151675482403" lon="15.150436347372834"><ele>141.0</ele><time>2026-03-29T12:54:44Z</time></trkpt><trkpt lat="40.4515473803716" lon="15.15027294905344"><ele>141.75</ele><time>2026-03-29T12:54:45Z</time></trkpt><trkpt lat="40.451573036621085" lon="15.150107168496318"><ele>142.5</ele><time>2026-03-29T12:54:46Z</time></trkpt><trkpt lat="40.45159297288992" lon="15.14993168645606"><ele>143.25</ele><time>2026-03-29T12:54:47Z</time></trkpt><trkpt lat="40.45158963141418" lon="15.149762388183811"><ele>144.0</ele><time>2026-03-29T12:54:48Z</time></trkpt><trkpt lat="40.45157146345387" lon="15.149590507148785"><ele>144.0</ele><time>2026-03-29T12:54:49Z</time></trkpt><trkpt lat="40.451556778637524" lon="15.149403249961578"><ele>144.0</ele><time>2026-03-29T12:54:50Z</time></trkpt><trkpt lat="40.45154436500087" lon="15.14920937240288"><ele>144.0</ele><time>2026-03-29T12:54:51Z</time></trkpt><trkpt lat="40.45154978977431" lon="15.14901365525463"><ele>144.0</ele><time>2026-03-29T12:54:52Z</time></trkpt><trkpt lat="40.45154261536435" lon="15.148821805591131"><ele>142.66666666666666</ele><time>2026-03-29T12:54:53Z</time></trkpt><trkpt lat="40.451534682549415" lon="15.148628533618307"><ele>141.33333333333331</ele><time>2026-03-29T12:54:54Z</time></trkpt><trkpt lat="40.451522638381405" lon="15.148424273223236"><ele>140.0</ele><time>2026-03-29T12:54:55Z</time></trkpt><trkpt lat="40.45150120231796" lon="15.148226225052705"><ele>139.66666666666666</ele><time>2026-03-29T12:54:56Z</time></trkpt><trkpt lat="40.451485714398295" lon="15.148024486812277"><ele>139.33333333333334</ele><time>2026-03-29T12:54:57Z</time></trkpt><trkpt lat="40.451443972782464" lon="15.14780974674689"><ele>139.0</ele><time>2026-03-29T12:54:58Z</time></trkpt><trkpt lat="40.451386476565986" lon="15.147607102972659"><ele>139.0</ele><time>2026-03-29T12:54:59Z</time></trkpt><trkpt lat="40.45133843091535" lon="15.14740352507404"><ele>139.0</ele><time>2026-03-29T12:55:00Z</time></trkpt><trkpt lat="40.45128352856964" lon="15.147217713018836"><ele>139.0</ele><time>2026-03-29T12:55:01Z</time></trkpt><trkpt lat="40.45122588851204" lon="15.1470296863907"><ele>136.0</ele><time>2026-03-29T12:55:02Z</time></trkpt><trkpt lat="40.45116049355356" lon="15.146844467091741"><ele>133.0</ele><time>2026-03-29T12:55:03Z</time></trkpt><trkpt lat="40.451102576829584" lon="15.146662394626556"><ele>130.0</ele><time>2026-03-29T12:55:04Z</time></trkpt><trkpt lat="40.451044479627356" lon="15.146480935310956"><ele>129.5</ele><time>2026-03-29T12:55:05Z</time></trkpt><trkpt lat="40.450991480604216" lon="15.146316157227435"><ele>129.0</ele><time>2026-03-29T12:55:06Z</time></trkpt><trkpt lat="40.45094038310625" lon="15.146158158952668"><ele>128.5</ele><time>2026-03-29T12:55:07Z</time></trkpt><trkpt lat="40.450934405799366" lon="15.145982319534417"><ele>128.0</ele><time>2026-03-29T12:55:08Z</time></trkpt><trkpt lat="40.45093692638104" lon="15.145794806860492"><ele>127.0</ele><time>2026-03-29T12:55:09Z</time></trkpt><trkpt lat="40.45094229940686" lon="15.145592519163673"><ele>126.0</ele><time>2026-03-29T12:55:10Z</time></trkpt><trkpt lat="40.450982292282426" lon="15.145387717968026"><ele>125.0</ele><time>2026-03-29T12:55:11Z</time></trkpt><trkpt lat="40.451033004379504" lon="15.14517996775918"><ele>125.0</ele><time>2026-03-29T12:55:12Z</time></trkpt><trkpt lat="40.45105825309328" lon="15.144963574244628"><ele>125.0</ele><time>2026-03-29T12:55:13Z</time></trkpt><trkpt lat="40.45106385437757" lon="15.1447660705322"><ele>125.0</ele><time>2026-03-29T12:55:14Z</time></trkpt><trkpt lat="40.45107659903852" lon="15.14454295460683"><ele>123.33333333333333</ele><time>2026-03-29T12:55:15Z</time></trkpt><trkpt lat="40.45108492822696" lon="15.144339647042823"><ele>121.66666666666666</ele><time>2026-03-29T12:55:16Z</time></trkpt><trkpt lat="40.451107334426744" lon="15.144129192304014"><ele>120.0</ele><time>2026-03-29T12:55:17Z</time></trkpt><trkpt lat="40.451138081557616" lon="15.14392056732422"><ele>120.0</ele><time>2026-03-29T12:55:18Z</time></trkpt><trkpt lat="40.45116461686779" lon="15.143731026389517"><ele>120.0</ele><time>2026-03-29T12:55:19Z</time></trkpt><trkpt lat="40.45119059644938" lon="15.143534937498693"><ele>120.0</ele><time>2026-03-29T12:55:20Z</time></trkpt><trkpt lat="40.45122405946474" lon="15.143340358599465"><ele>120.25</ele><time>2026-03-29T12:55:21Z</time></trkpt><trkpt lat="40.45128535838456" lon="15.143155950333067"><ele>120.5</ele><time>2026-03-29T12:55:22Z</time></trkpt><trkpt lat="40.45133047984206" lon="15.14298500990657"><ele>120.75</ele><time>2026-03-29T12:55:23Z</time></trkpt><trkpt lat="40.45140301417267" lon="15.142801997086046"><ele>121.0</ele><time>2026-03-29T12:55:24Z</time></trkpt><trkpt lat="40.451488302607366" lon="15.142632276918658"><ele>120.25</ele><time>2026-03-29T12:55:25Z</time></trkpt><trkpt lat="40.45155897484943" lon="15.14247192998317"><ele>119.5</ele><time>2026-03-29T12:55:26Z</time></trkpt><trkpt lat="40.451652304083325" lon="15.14232381081572"><ele>118.75</ele><time>2026-03-29T12:55:27Z</time></trkpt><trkpt lat="40.451748342473955" lon="15.142195887504636"><ele>118.0</ele><time>2026-03-29T12:55:28Z</time></trkpt><trkpt lat="40.451857613649736" lon="15.142106453607948"><ele>117.25</ele><time>2026-03-29T12:55:29Z</time></trkpt><trkpt lat="40.45197739584868" lon="15.142056048142239"><ele>116.5</ele><time>2026-03-29T12:55:30Z</time></trkpt><trkpt lat="40.45209783820845" lon="15.142008300572865"><ele>115.75</ele><time>2026-03-29T12:55:31.001Z</time></trkpt><trkpt lat="40.45222964768494" lon="15.141950281702847"><ele>115.0</ele><time>2026-03-29T12:55:32.001Z</time></trkpt><trkpt lat="40.452363065605965" lon="15.14192031456703"><ele>115.0</ele><time>2026-03-29T12:55:33.001Z</time></trkpt><trkpt lat="40.452476825806876" lon="15.141848990355498"><ele>115.0</ele><time>2026-03-29T12:55:34.001Z</time></trkpt><trkpt lat="40.4525745962157" lon="15.141757506806675"><ele>115.0</ele><time>2026-03-29T12:55:35.001Z</time></trkpt><trkpt lat="40.45265709858853" lon="15.141608018385302"><ele>115.0</ele><time>2026-03-29T12:55:36.001Z</time></trkpt><trkpt lat="40.452717557875104" lon="15.141444764972098"><ele>113.25</ele><time>2026-03-29T12:55:37.001Z</time></trkpt><trkpt lat="40.45277694616562" lon="15.14127032184001"><ele>111.5</ele><time>2026-03-29T12:55:38.001Z</time></trkpt><trkpt lat="40.452843285352785" lon="15.141095848998903"><ele>109.75</ele><time>2026-03-29T12:55:39.001Z</time></trkpt><trkpt lat="40.452906026156434" lon="15.140918515396232"><ele>108.0</ele><time>2026-03-29T12:55:40.001Z</time></trkpt><trkpt lat="40.452953241326476" lon="15.14072717972788"><ele>107.75</ele><time>2026-03-29T12:55:41.001Z</time></trkpt><trkpt lat="40.45297591298117" lon="15.140540520188411"><ele>107.5</ele><time>2026-03-29T12:55:42.001Z</time></trkpt><trkpt lat="40.452967522703545" lon="15.140350053402964"><ele>107.25</ele><time>2026-03-29T12:55:43.001Z</time></trkpt><trkpt lat="40.45293905056388" lon="15.140164359293955"><ele>107.0</ele><time>2026-03-29T12:55:44.001Z</time></trkpt><trkpt lat="40.45289072151611" lon="15.139984887935405"><ele>106.0</ele><time>2026-03-29T12:55:45.001Z</time></trkpt><trkpt lat="40.45284758888645" lon="15.139819929269372"><ele>105.0</ele><time>2026-03-29T12:55:46.001Z</time></trkpt><trkpt lat="40.45283914393263" lon="15.13965663098928"><ele>104.0</ele><time>2026-03-29T12:55:47.001Z</time></trkpt><trkpt lat="40.45285542911244" lon="15.139478467445699"><ele>103.0</ele><time>2026-03-29T12:55:48.001Z</time></trkpt><trkpt lat="40.452913245373104" lon="15.139284287291838"><ele>106.66666666666667</ele><time>2026-03-29T12:55:49.001Z</time></trkpt><trkpt lat="40.45296385640997" lon="15.139079841752192"><ele>110.33333333333334</ele><time>2026-03-29T12:55:50.001Z</time></trkpt><trkpt lat="40.45300865065827" lon="15.138868390918867"><ele>114.0</ele><time>2026-03-29T12:55:51Z</time></trkpt><trkpt lat="40.45305392008303" lon="15.138679239448697"><ele>114.0</ele><time>2026-03-29T12:55:52Z</time></trkpt><trkpt lat="40.45310093556655" lon="15.13849084537146"><ele>114.0</ele><time>2026-03-29T12:55:53Z</time></trkpt><trkpt lat="40.453089898643654" lon="15.138274098779194"><ele>114.0</ele><time>2026-03-29T12:55:54Z</time></trkpt><trkpt lat="40.45308340708972" lon="15.138054162271429"><ele>114.66666666666666</ele><time>2026-03-29T12:55:55Z</time></trkpt><trkpt lat="40.45306689087366" lon="15.137814492699924"><ele>115.33333333333333</ele><time>2026-03-29T12:55:56Z</time></trkpt><trkpt lat="40.45304908903445" lon="15.137590595410474"><ele>116.0</ele><time>2026-03-29T12:55:57Z</time></trkpt><trkpt lat="40.45304726319064" lon="15.137371298082599"><ele>116.0</ele><time>2026-03-29T12:55:58Z</time></trkpt><trkpt lat="40.45303142880768" lon="15.137151118212383"><ele>116.0</ele><time>2026-03-29T12:55:59Z</time></trkpt><trkpt lat="40.45298460840391" lon="15.136949776213909"><ele>116.0</ele><time>2026-03-29T12:56:00Z</time></trkpt><trkpt lat="40.452942192944526" lon="15.136754602840371"><ele>110.66666666666666</ele><time>2026-03-29T12:56:01Z</time></trkpt><trkpt lat="40.45290746369491" lon="15.136568769179664"><ele>105.33333333333334</ele><time>2026-03-29T12:56:02Z</time></trkpt><trkpt lat="40.45288917237923" lon="15.1363703074376"><ele>100.0</ele><time>2026-03-29T12:56:03Z</time></trkpt><trkpt lat="40.45288628601904" lon="15.136154615117523"><ele>100.0</ele><time>2026-03-29T12:56:04Z</time></trkpt><trkpt lat="40.45290591012746" lon="15.135934705715462"><ele>100.0</ele><time>2026-03-29T12:56:05Z</time></trkpt><trkpt lat="40.452935794280954" lon="15.135709180803005"><ele>100.0</ele><time>2026-03-29T12:56:06Z</time></trkpt><trkpt lat="40.4529656023109" lon="15.135500093872624"><ele>100.0</ele><time>2026-03-29T12:56:07Z</time></trkpt><trkpt lat="40.45298742209889" lon="15.135291738067162"><ele>100.0</ele><time>2026-03-29T12:56:08Z</time></trkpt><trkpt lat="40.453016756452584" lon="15.135080318235254"><ele>100.0</ele><time>2026-03-29T12:56:09Z</time></trkpt><trkpt lat="40.45304071605737" lon="15.13487475721431"><ele>100.0</ele><time>2026-03-29T12:56:10Z</time></trkpt><trkpt lat="40.45308693139195" lon="15.134678452908476"><ele>100.0</ele><time>2026-03-29T12:56:11Z</time></trkpt><trkpt lat="40.45313253466379" lon="15.134486185003523"><ele>100.0</ele><time>2026-03-29T12:56:12Z</time></trkpt><trkpt lat="40.453203810420696" lon="15.134310348779895"><ele>100.0</ele><time>2026-03-29T12:56:13Z</time></trkpt><trkpt lat="40.45328434204022" lon="15.134136026921306"><ele>100.0</ele><time>2026-03-29T12:56:14Z</time></trkpt><trkpt lat="40.45337268283113" lon="15.133948671689621"><ele>100.0</ele><time>2026-03-29T12:56:15Z</time></trkpt><trkpt lat="40.45346104437101" lon="15.133765558439245"><ele>97.33333333333334</ele><time>2026-03-29T12:56:16Z</time></trkpt><trkpt lat="40.453546503077376" lon="15.13360107635161"><ele>94.66666666666667</ele><time>2026-03-29T12:56:17Z</time></trkpt><trkpt lat="40.45364356194367" lon="15.133438596022193"><ele>92.0</ele><time>2026-03-29T12:56:18Z</time></trkpt><trkpt lat="40.45375126369566" lon="15.133285217164781"><ele>91.66666666666667</ele><time>2026-03-29T12:56:19Z</time></trkpt><trkpt lat="40.45385851556732" lon="15.133139778368989"><ele>91.33333333333333</ele><time>2026-03-29T12:56:20Z</time></trkpt><trkpt lat="40.45397502828299" lon="15.13300614244618"><ele>91.0</ele><time>2026-03-29T12:56:21Z</time></trkpt><trkpt lat="40.45410222419797" lon="15.132881865642673"><ele>91.0</ele><time>2026-03-29T12:56:22Z</time></trkpt><trkpt lat="40.45423280288151" lon="15.132773434105756"><ele>91.0</ele><time>2026-03-29T12:56:23Z</time></trkpt><trkpt lat="40.45436540760863" lon="15.132663737148256"><ele>91.0</ele><time>2026-03-29T12:56:24Z</time></trkpt><trkpt lat="40.45447493030772" lon="15.132557324113545"><ele>91.0</ele><time>2026-03-29T12:56:25Z</time></trkpt><trkpt lat="40.454556589041445" lon="15.132386813217357"><ele>93.75</ele><time>2026-03-29T12:56:26Z</time></trkpt><trkpt lat="40.45462878264107" lon="15.132226190348845"><ele>96.5</ele><time>2026-03-29T12:56:27Z</time></trkpt><trkpt lat="40.45467940997816" lon="15.132058857890504"><ele>99.25</ele><time>2026-03-29T12:56:28Z</time></trkpt><trkpt lat="40.454700641717544" lon="15.131883038818987"><ele>102.0</ele><time>2026-03-29T12:56:29Z</time></trkpt><trkpt lat="40.45469768362636" lon="15.13169289864623"><ele>101.66666666666666</ele><time>2026-03-29T12:56:30Z</time></trkpt><trkpt lat="40.45467569330133" lon="15.13148561283252"><ele>101.33333333333333</ele><time>2026-03-29T12:56:31Z</time></trkpt><trkpt lat="40.45464496090698" lon="15.131280742876703"><ele>101.0</ele><time>2026-03-29T12:56:32Z</time></trkpt><trkpt lat="40.45462824514644" lon="15.131084708565448"><ele>101.0</ele><time>2026-03-29T12:56:33Z</time></trkpt><trkpt lat="40.45465078981724" lon="15.13089717595566"><ele>101.0</ele><time>2026-03-29T12:56:34Z</time></trkpt><trkpt lat="40.45469210768977" lon="15.1307020906878"><ele>101.0</ele><time>2026-03-29T12:56:35Z</time></trkpt><trkpt lat="40.45475118745959" lon="15.130508547349967"><ele>98.66666666666666</ele><time>2026-03-29T12:56:36Z</time></trkpt><trkpt lat="40.454814877203255" lon="15.13030743333495"><ele>96.33333333333333</ele><time>2026-03-29T12:56:37Z</time></trkpt><trkpt lat="40.45488974761095" lon="15.130102341811014"><ele>94.0</ele><time>2026-03-29T12:56:38Z</time></trkpt><trkpt lat="40.454969321457575" lon="15.12989802558082"><ele>91.33333333333333</ele><time>2026-03-29T12:56:39Z</time></trkpt><trkpt lat="40.45505235765176" lon="15.129705950871609"><ele>88.66666666666667</ele><time>2026-03-29T12:56:40Z</time></trkpt><trkpt lat="40.45513748894781" lon="15.12952935080586"><ele>86.0</ele><time>2026-03-29T12:56:41Z</time></trkpt><trkpt lat="40.45521315789721" lon="15.12934858304822"><ele>86.0</ele><time>2026-03-29T12:56:42Z</time></trkpt><trkpt lat="40.45525941371203" lon="15.129137724575257"><ele>86.0</ele><time>2026-03-29T12:56:43Z</time></trkpt><trkpt lat="40.455290303078904" lon="15.12892883051138"><ele>86.0</ele><time>2026-03-29T12:56:44Z</time></trkpt><trkpt lat="40.45529791911428" lon="15.128713949993145"><ele>85.25</ele><time>2026-03-29T12:56:45Z</time></trkpt><trkpt lat="40.45533576695976" lon="15.128534278869488"><ele>84.5</ele><time>2026-03-29T12:56:46Z</time></trkpt><trkpt lat="40.455367093931336" lon="15.128364858018218"><ele>83.75</ele><time>2026-03-29T12:56:47Z</time></trkpt><trkpt lat="40.455426749841166" lon="15.128198861215003"><ele>83.0</ele><time>2026-03-29T12:56:48Z</time></trkpt><trkpt lat="40.4554958498288" lon="15.128011726843525"><ele>84.66666666666667</ele><time>2026-03-29T12:56:49Z</time></trkpt><trkpt lat="40.4555574062505" lon="15.127799059674466"><ele>86.33333333333333</ele><time>2026-03-29T12:56:50Z</time></trkpt><trkpt lat="40.45562272033911" lon="15.127588108356356"><ele>88.0</ele><time>2026-03-29T12:56:51Z</time></trkpt><trkpt lat="40.45568061299509" lon="15.127375998853283"><ele>88.0</ele><time>2026-03-29T12:56:52Z</time></trkpt><trkpt lat="40.45573201938045" lon="15.127166939382352"><ele>88.0</ele><time>2026-03-29T12:56:53Z</time></trkpt><trkpt lat="40.45577377343188" lon="15.126956741761841"><ele>88.0</ele><time>2026-03-29T12:56:54Z</time></trkpt><trkpt lat="40.455800715082304" lon="15.126743886759446"><ele>86.66666666666666</ele><time>2026-03-29T12:56:55Z</time></trkpt><trkpt lat="40.45582982354372" lon="15.126530623728872"><ele>85.33333333333333</ele><time>2026-03-29T12:56:56Z</time></trkpt><trkpt lat="40.455849916264235" lon="15.126340094316932"><ele>84.0</ele><time>2026-03-29T12:56:57Z</time></trkpt><trkpt lat="40.45587906776555" lon="15.126154619716134"><ele>84.0</ele><time>2026-03-29T12:56:58Z</time></trkpt><trkpt lat="40.45589805095608" lon="15.125978915333635"><ele>84.0</ele><time>2026-03-29T12:56:59Z</time></trkpt><trkpt lat="40.45589998312275" lon="15.125808312577531"><ele>84.0</ele><time>2026-03-29T12:57:00Z</time></trkpt><trkpt lat="40.455898322277854" lon="15.125641661538664"><ele>84.0</ele><time>2026-03-29T12:57:01Z</time></trkpt><trkpt lat="40.45589577073625" lon="15.125484916284696"><ele>83.0</ele><time>2026-03-29T12:57:02Z</time></trkpt><trkpt lat="40.45589669185263" lon="15.125343065489483"><ele>82.0</ele><time>2026-03-29T12:57:03Z</time></trkpt><trkpt lat="40.45590012692354" lon="15.125216320461462"><ele>81.0</ele><time>2026-03-29T12:57:04Z</time></trkpt><trkpt lat="40.45589015001176" lon="15.125104953888556"><ele>80.0</ele><time>2026-03-29T12:57:05Z</time></trkpt><trkpt lat="40.45584682587312" lon="15.125014867198441"><ele>79.0</ele><time>2026-03-29T12:57:06Z</time></trkpt><trkpt lat="40.45577102048039" lon="15.124956205431468"><ele>79.0</ele><time>2026-03-29T12:57:07Z</time></trkpt><trkpt lat="40.45567071080465" lon="15.12493017652131"><ele>79.0</ele><time>2026-03-29T12:57:08Z</time></trkpt><trkpt lat="40.45555827010753" lon="15.12494523586537"><ele>79.0</ele><time>2026-03-29T12:57:09Z</time></trkpt><trkpt lat="40.45544907759185" lon="15.124957763841087"><ele>79.0</ele><time>2026-03-29T12:57:10Z</time></trkpt><trkpt lat="40.45534728405576" lon="15.124946051005086"><ele>79.0</ele><time>2026-03-29T12:57:11Z</time></trkpt><trkpt lat="40.455276353008394" lon="15.124905452706276"><ele>79.0</ele><time>2026-03-29T12:57:12Z</time></trkpt><trkpt lat="40.455241100531346" lon="15.124824805298433"><ele>79.0</ele><time>2026-03-29T12:57:13Z</time></trkpt><trkpt lat="40.4552452239853" lon="15.124700375375909"><ele>79.0</ele><time>2026-03-29T12:57:14Z</time></trkpt><trkpt lat="40.455202831298266" lon="15.124573994186619"><ele>79.0</ele><time>2026-03-29T12:57:15Z</time></trkpt><trkpt lat="40.45517854163567" lon="15.124418343963923"><ele>79.0</ele><time>2026-03-29T12:57:16Z</time></trkpt><trkpt lat="40.4551485786284" lon="15.12425569190999"><ele>79.0</ele><time>2026-03-29T12:57:17Z</time></trkpt><trkpt lat="40.4551105590333" lon="15.124095664897268"><ele>79.0</ele><time>2026-03-29T12:57:18Z</time></trkpt><trkpt lat="40.455085145843206" lon="15.123932248283381"><ele>79.0</ele><time>2026-03-29T12:57:19Z</time></trkpt><trkpt lat="40.455047720540044" lon="15.123753884569288"><ele>79.0</ele><time>2026-03-29T12:57:20Z</time></trkpt><trkpt lat="40.45501066664885" lon="15.123573746071935"><ele>78.0</ele><time>2026-03-29T12:57:21Z</time></trkpt><trkpt lat="40.4549848961684" lon="15.123407347028229"><ele>77.0</ele><time>2026-03-29T12:57:22Z</time></trkpt><trkpt lat="40.45495840481628" lon="15.12324552980085"><ele>76.0</ele><time>2026-03-29T12:57:23Z</time></trkpt><trkpt lat="40.454921981133545" lon="15.12308922515852"><ele>75.0</ele><time>2026-03-29T12:57:24Z</time></trkpt><trkpt lat="40.45489851752541" lon="15.122907518475031"><ele>74.5</ele><time>2026-03-29T12:57:25Z</time></trkpt><trkpt lat="40.45496136456469" lon="15.122738949662073"><ele>74.0</ele><time>2026-03-29T12:57:26Z</time></trkpt><trkpt lat="40.45498918351813" lon="15.122541883495158"><ele>73.5</ele><time>2026-03-29T12:57:27Z</time></trkpt><trkpt lat="40.45501746122026" lon="15.1223511541727"><ele>73.0</ele><time>2026-03-29T12:57:28Z</time></trkpt><trkpt lat="40.4550305081884" lon="15.12215964764394"><ele>73.0</ele><time>2026-03-29T12:57:29Z</time></trkpt><trkpt lat="40.455027145887286" lon="15.121976084140861"><ele>73.0</ele><time>2026-03-29T12:57:30Z</time></trkpt><trkpt lat="40.455063343056516" lon="15.121786245542287"><ele>73.0</ele><time>2026-03-29T12:57:31Z</time></trkpt><trkpt lat="40.45514549744028" lon="15.121605620480196"><ele>73.0</ele><time>2026-03-29T12:57:32Z</time></trkpt><trkpt lat="40.45519760551808" lon="15.121423714114846"><ele>73.0</ele><time>2026-03-29T12:57:33Z</time></trkpt><trkpt lat="40.455258794091115" lon="15.121257662685432"><ele>73.0</ele><time>2026-03-29T12:57:34Z</time></trkpt><trkpt lat="40.455298951524824" lon="15.121070439651904"><ele>73.0</ele><time>2026-03-29T12:57:35Z</time></trkpt><trkpt lat="40.45532542085084" lon="15.120869471061901"><ele>73.0</ele><time>2026-03-29T12:57:36Z</time></trkpt><trkpt lat="40.455366473283625" lon="15.120677882931894"><ele>73.66666666666666</ele><time>2026-03-29T12:57:37.001Z</time></trkpt><trkpt lat="40.45539276558326" lon="15.12046412060303"><ele>74.33333333333333</ele><time>2026-03-29T12:57:38.001Z</time></trkpt><trkpt lat="40.4554200391938" lon="15.120242621878168"><ele>75.0</ele><time>2026-03-29T12:57:39.001Z</time></trkpt><trkpt lat="40.4554469124434" lon="15.120025372899535"><ele>72.33333333333333</ele><time>2026-03-29T12:57:40.001Z</time></trkpt><trkpt lat="40.45546576607041" lon="15.11981833797382"><ele>69.66666666666666</ele><time>2026-03-29T12:57:41.001Z</time></trkpt><trkpt lat="40.45548580152395" lon="15.11961869252814"><ele>67.0</ele><time>2026-03-29T12:57:42.001Z</time></trkpt><trkpt lat="40.45551555078007" lon="15.11940494378902"><ele>67.0</ele><time>2026-03-29T12:57:43.001Z</time></trkpt><trkpt lat="40.4555434755669" lon="15.119200453303165"><ele>67.0</ele><time>2026-03-29T12:57:44.001Z</time></trkpt><trkpt lat="40.45557646244983" lon="15.118967413886894"><ele>67.0</ele><time>2026-03-29T12:57:45.001Z</time></trkpt><trkpt lat="40.45560603924705" lon="15.118742533282523"><ele>66.0</ele><time>2026-03-29T12:57:46.001Z</time></trkpt><trkpt lat="40.455631103078005" lon="15.118501174157142"><ele>65.0</ele><time>2026-03-29T12:57:47.001Z</time></trkpt><trkpt lat="40.455653499781455" lon="15.118264912801605"><ele>64.0</ele><time>2026-03-29T12:57:48.001Z</time></trkpt><trkpt lat="40.455684066193825" lon="15.118019350992805"><ele>63.33333333333333</ele><time>2026-03-29T12:57:49.001Z</time></trkpt><trkpt lat="40.45571118717169" lon="15.117774230822649"><ele>62.66666666666667</ele><time>2026-03-29T12:57:50.001Z</time></trkpt><trkpt lat="40.455743484536676" lon="15.117523825965852"><ele>62.0</ele><time>2026-03-29T12:57:51.001Z</time></trkpt><trkpt lat="40.45577289148831" lon="15.117278108707438"><ele>62.0</ele><time>2026-03-29T12:57:52.001Z</time></trkpt><trkpt lat="40.45580300486673" lon="15.117026509887717"><ele>62.0</ele><time>2026-03-29T12:57:53Z</time></trkpt><trkpt lat="40.45584129405454" lon="15.11678294262473"><ele>62.0</ele><time>2026-03-29T12:57:54Z</time></trkpt><trkpt lat="40.45586759077275" lon="15.116530453018322"><ele>62.0</ele><time>2026-03-29T12:57:55Z</time></trkpt><trkpt lat="40.455904155348435" lon="15.11627858496166"><ele>62.0</ele><time>2026-03-29T12:57:56Z</time></trkpt><trkpt lat="40.4559513595578" lon="15.116019003440684"><ele>62.0</ele><time>2026-03-29T12:57:57Z</time></trkpt><trkpt lat="40.455972527965855" lon="15.115775228994352"><ele>62.333333333333336</ele><time>2026-03-29T12:57:58Z</time></trkpt><trkpt lat="40.45600298918997" lon="15.115520530279253"><ele>62.66666666666667</ele><time>2026-03-29T12:57:59Z</time></trkpt><trkpt lat="40.456033565209935" lon="15.115266400431796"><ele>63.0</ele><time>2026-03-29T12:58:00Z</time></trkpt><trkpt lat="40.456068335464266" lon="15.115010471805764"><ele>63.66666666666667</ele><time>2026-03-29T12:58:01Z</time></trkpt><trkpt lat="40.45609928174845" lon="15.114760257642695"><ele>64.33333333333334</ele><time>2026-03-29T12:58:02Z</time></trkpt><trkpt lat="40.456137404025114" lon="15.11450478513663"><ele>65.0</ele><time>2026-03-29T12:58:03Z</time></trkpt><trkpt lat="40.45617249614887" lon="15.114243847452737"><ele>65.33333333333334</ele><time>2026-03-29T12:58:04Z</time></trkpt><trkpt lat="40.45619148243863" lon="15.113989818937188"><ele>65.66666666666667</ele><time>2026-03-29T12:58:05Z</time></trkpt><trkpt lat="40.4562188642259" lon="15.113728114947785"><ele>66.0</ele><time>2026-03-29T12:58:06Z</time></trkpt><trkpt lat="40.45624565261418" lon="15.113475275494867"><ele>67.0</ele><time>2026-03-29T12:58:07Z</time></trkpt><trkpt lat="40.456275333925106" lon="15.113223740795135"><ele>68.0</ele><time>2026-03-29T12:58:08Z</time></trkpt><trkpt lat="40.45631219196479" lon="15.112963501104268"><ele>69.0</ele><time>2026-03-29T12:58:09Z</time></trkpt><trkpt lat="40.4563441630514" lon="15.112704914476081"><ele>67.33333333333333</ele><time>2026-03-29T12:58:10Z</time></trkpt><trkpt lat="40.45637639705246" lon="15.112450356306947"><ele>65.66666666666666</ele><time>2026-03-29T12:58:11Z</time></trkpt><trkpt lat="40.456427548600686" lon="15.112197724308817"><ele>64.0</ele><time>2026-03-29T12:58:12Z</time></trkpt><trkpt lat="40.45644357619616" lon="15.11195212038187"><ele>64.0</ele><time>2026-03-29T12:58:13Z</time></trkpt><trkpt lat="40.456478828396904" lon="15.11170378988253"><ele>64.0</ele><time>2026-03-29T12:58:14Z</time></trkpt><trkpt lat="40.45651615028054" lon="15.111459183167222"><ele>64.0</ele><time>2026-03-29T12:58:15Z</time></trkpt><trkpt lat="40.45654827466697" lon="15.111217891976525"><ele>65.0</ele><time>2026-03-29T12:58:16Z</time></trkpt><trkpt lat="40.45658618664262" lon="15.110977088262736"><ele>66.0</ele><time>2026-03-29T12:58:17Z</time></trkpt><trkpt lat="40.45662005053523" lon="15.11072851888794"><ele>67.0</ele><time>2026-03-29T12:58:18Z</time></trkpt><trkpt lat="40.456651321870325" lon="15.110483592129968"><ele>67.33333333333333</ele><time>2026-03-29T12:58:19Z</time></trkpt><trkpt lat="40.456678897703874" lon="15.1102573143711"><ele>67.66666666666667</ele><time>2026-03-29T12:58:20Z</time></trkpt><trkpt lat="40.45670480904615" lon="15.11002764522724"><ele>68.0</ele><time>2026-03-29T12:58:21Z</time></trkpt><trkpt lat="40.45674084252207" lon="15.10980591762854"><ele>68.0</ele><time>2026-03-29T12:58:22Z</time></trkpt><trkpt lat="40.45677734627487" lon="15.109563238523886"><ele>68.0</ele><time>2026-03-29T12:58:23Z</time></trkpt><trkpt lat="40.456811605986154" lon="15.109319418123933"><ele>68.0</ele><time>2026-03-29T12:58:24Z</time></trkpt><trkpt lat="40.456878753443355" lon="15.10908054572252"><ele>68.66666666666667</ele><time>2026-03-29T12:58:25Z</time></trkpt><trkpt lat="40.45688977596716" lon="15.108830780736676"><ele>69.33333333333333</ele><time>2026-03-29T12:58:26Z</time></trkpt><trkpt lat="40.456920179830185" lon="15.108572045150506"><ele>70.0</ele><time>2026-03-29T12:58:27Z</time></trkpt><trkpt lat="40.4569559215342" lon="15.108320288227096"><ele>69.66666666666666</ele><time>2026-03-29T12:58:28Z</time></trkpt><trkpt lat="40.456987415573096" lon="15.10806706144173"><ele>69.33333333333333</ele><time>2026-03-29T12:58:29Z</time></trkpt><trkpt lat="40.45701989511458" lon="15.107808785817042"><ele>69.0</ele><time>2026-03-29T12:58:30Z</time></trkpt><trkpt lat="40.457054641816875" lon="15.107551874881807"><ele>68.66666666666667</ele><time>2026-03-29T12:58:31Z</time></trkpt><trkpt lat="40.45709236893378" lon="15.107296214456662"><ele>68.33333333333334</ele><time>2026-03-29T12:58:32Z</time></trkpt><trkpt lat="40.45712706364643" lon="15.107038411751464"><ele>68.0</ele><time>2026-03-29T12:58:33Z</time></trkpt><trkpt lat="40.45716351872105" lon="15.1067852322158"><ele>66.0</ele><time>2026-03-29T12:58:34Z</time></trkpt><trkpt lat="40.4571985512783" lon="15.106539127564526"><ele>64.0</ele><time>2026-03-29T12:58:35Z</time></trkpt><trkpt lat="40.45724201648076" lon="15.106299155058911"><ele>62.0</ele><time>2026-03-29T12:58:36Z</time></trkpt><trkpt lat="40.45728880043257" lon="15.106055240098623"><ele>62.0</ele><time>2026-03-29T12:58:37Z</time></trkpt><trkpt lat="40.457346466197706" lon="15.105818262841153"><ele>62.0</ele><time>2026-03-29T12:58:38Z</time></trkpt><trkpt lat="40.457399129851375" lon="15.105593330788361"><ele>62.0</ele><time>2026-03-29T12:58:39Z</time></trkpt><trkpt lat="40.457468685832204" lon="15.105370975646935"><ele>63.333333333333336</ele><time>2026-03-29T12:58:40Z</time></trkpt><trkpt lat="40.457536283281755" lon="15.10514957794298"><ele>64.66666666666667</ele><time>2026-03-29T12:58:41Z</time></trkpt><trkpt lat="40.45759329727337" lon="15.10492281896915"><ele>66.0</ele><time>2026-03-29T12:58:42Z</time></trkpt><trkpt lat="40.457646135212514" lon="15.104684666357253"><ele>66.66666666666667</ele><time>2026-03-29T12:58:43Z</time></trkpt><trkpt lat="40.45769484272238" lon="15.104447635178296"><ele>67.33333333333334</ele><time>2026-03-29T12:58:44Z</time></trkpt><trkpt lat="40.45774217550793" lon="15.1042089074813"><ele>68.0</ele><time>2026-03-29T12:58:45Z</time></trkpt><trkpt lat="40.45779235582336" lon="15.10396205831597"><ele>68.0</ele><time>2026-03-29T12:58:46Z</time></trkpt><trkpt lat="40.45783684367533" lon="15.10371481297246"><ele>68.0</ele><time>2026-03-29T12:58:47Z</time></trkpt><trkpt lat="40.45789232047449" lon="15.103459469113693"><ele>68.0</ele><time>2026-03-29T12:58:48Z</time></trkpt><trkpt lat="40.4579561663931" lon="15.103214594039768"><ele>66.33333333333334</ele><time>2026-03-29T12:58:49Z</time></trkpt><trkpt lat="40.45803699442826" lon="15.102981430428525"><ele>64.66666666666667</ele><time>2026-03-29T12:58:50Z</time></trkpt><trkpt lat="40.45812679744386" lon="15.102757748616034"><ele>63.0</ele><time>2026-03-29T12:58:51Z</time></trkpt><trkpt lat="40.45821835789596" lon="15.102545541565226"><ele>64.0</ele><time>2026-03-29T12:58:52Z</time></trkpt><trkpt lat="40.458308364177" lon="15.102323505522957"><ele>65.0</ele><time>2026-03-29T12:58:53Z</time></trkpt><trkpt lat="40.45839420713282" lon="15.102097320179311"><ele>66.0</ele><time>2026-03-29T12:58:54Z</time></trkpt><trkpt lat="40.45848647230692" lon="15.101873320303513"><ele>66.0</ele><time>2026-03-29T12:58:55Z</time></trkpt><trkpt lat="40.45857769712048" lon="15.101656654434075"><ele>66.0</ele><time>2026-03-29T12:58:56Z</time></trkpt><trkpt lat="40.458669192572096" lon="15.101433469385272"><ele>66.0</ele><time>2026-03-29T12:58:57Z</time></trkpt><trkpt lat="40.45876156004238" lon="15.101208211965254"><ele>65.33333333333333</ele><time>2026-03-29T12:58:58Z</time></trkpt><trkpt lat="40.45885655090872" lon="15.100983850275707"><ele>64.66666666666666</ele><time>2026-03-29T12:58:59Z</time></trkpt><trkpt lat="40.45895095353743" lon="15.10077052559611"><ele>64.0</ele><time>2026-03-29T12:59:00Z</time></trkpt><trkpt lat="40.45905081974038" lon="15.100561656435657"><ele>64.0</ele><time>2026-03-29T12:59:01Z</time></trkpt><trkpt lat="40.45915618702382" lon="15.10035634856222"><ele>64.0</ele><time>2026-03-29T12:59:02Z</time></trkpt><trkpt lat="40.45925649697823" lon="15.100175198085099"><ele>64.0</ele><time>2026-03-29T12:59:03Z</time></trkpt><trkpt lat="40.45934436384998" lon="15.100000009379718"><ele>63.0</ele><time>2026-03-29T12:59:04Z</time></trkpt><trkpt lat="40.459431587806726" lon="15.0998337523695"><ele>62.0</ele><time>2026-03-29T12:59:05Z</time></trkpt><trkpt lat="40.45950125248109" lon="15.099653570092993"><ele>61.0</ele><time>2026-03-29T12:59:06Z</time></trkpt><trkpt lat="40.45956064614284" lon="15.099433948027398"><ele>60.666666666666664</ele><time>2026-03-29T12:59:07Z</time></trkpt><trkpt lat="40.45962730071872" lon="15.099210840451061"><ele>60.33333333333333</ele><time>2026-03-29T12:59:08Z</time></trkpt><trkpt lat="40.45970515013068" lon="15.098977688008356"><ele>60.0</ele><time>2026-03-29T12:59:09Z</time></trkpt><trkpt lat="40.45977829169175" lon="15.098729116938651"><ele>59.0</ele><time>2026-03-29T12:59:10Z</time></trkpt><trkpt lat="40.45984701847503" lon="15.098499817438839"><ele>58.0</ele><time>2026-03-29T12:59:11Z</time></trkpt><trkpt lat="40.459920822111634" lon="15.098269692524193"><ele>57.0</ele><time>2026-03-29T12:59:12Z</time></trkpt><trkpt lat="40.45999549903507" lon="15.098048723682233"><ele>57.0</ele><time>2026-03-29T12:59:13Z</time></trkpt><trkpt lat="40.46007079605106" lon="15.09781803667158"><ele>57.0</ele><time>2026-03-29T12:59:14Z</time></trkpt><trkpt lat="40.46014686275566" lon="15.097592742410182"><ele>57.0</ele><time>2026-03-29T12:59:15Z</time></trkpt><trkpt lat="40.46022203818269" lon="15.097364705617263"><ele>57.0</ele><time>2026-03-29T12:59:16Z</time></trkpt><trkpt lat="40.46029603520198" lon="15.097130891754286"><ele>57.0</ele><time>2026-03-29T12:59:17Z</time></trkpt><trkpt lat="40.460371494829225" lon="15.09690146430532"><ele>57.0</ele><time>2026-03-29T12:59:18Z</time></trkpt><trkpt lat="40.460445040347" lon="15.096677157148305"><ele>55.0</ele><time>2026-03-29T12:59:19Z</time></trkpt><trkpt lat="40.46050330389382" lon="15.096471438280869"><ele>53.0</ele><time>2026-03-29T12:59:20Z</time></trkpt><trkpt lat="40.460580159843886" lon="15.096232787391514"><ele>51.0</ele><time>2026-03-29T12:59:21Z</time></trkpt><trkpt lat="40.460650884325716" lon="15.096000905356645"><ele>51.0</ele><time>2026-03-29T12:59:22Z</time></trkpt><trkpt lat="40.46073238603524" lon="15.09575964788567"><ele>51.0</ele><time>2026-03-29T12:59:23Z</time></trkpt><trkpt lat="40.460811673937556" lon="15.095521849408174"><ele>51.0</ele><time>2026-03-29T12:59:24Z</time></trkpt><trkpt lat="40.460884979973315" lon="15.095284375273573"><ele>51.0</ele><time>2026-03-29T12:59:25Z</time></trkpt><trkpt lat="40.4609627402239" lon="15.095042802554095"><ele>51.0</ele><time>2026-03-29T12:59:26Z</time></trkpt><trkpt lat="40.46104062646244" lon="15.09480797423295"><ele>51.0</ele><time>2026-03-29T12:59:27Z</time></trkpt><trkpt lat="40.46111816006092" lon="15.09457600552865"><ele>51.66666666666667</ele><time>2026-03-29T12:59:28Z</time></trkpt><trkpt lat="40.46119471823539" lon="15.094341137905541"><ele>52.333333333333336</ele><time>2026-03-29T12:59:29Z</time></trkpt><trkpt lat="40.46126737754888" lon="15.09411176199062"><ele>53.0</ele><time>2026-03-29T12:59:30Z</time></trkpt><trkpt lat="40.461341904791" lon="15.093879940164513"><ele>53.0</ele><time>2026-03-29T12:59:31Z</time></trkpt><trkpt lat="40.4614134149389" lon="15.093646071671238"><ele>53.0</ele><time>2026-03-29T12:59:32Z</time></trkpt><trkpt lat="40.46148111028122" lon="15.093416394482148"><ele>53.0</ele><time>2026-03-29T12:59:33Z</time></trkpt><trkpt lat="40.461553114239926" lon="15.093193755994307"><ele>52.333333333333336</ele><time>2026-03-29T12:59:34Z</time></trkpt><trkpt lat="40.46165133818593" lon="15.092965819388036"><ele>51.66666666666667</ele><time>2026-03-29T12:59:35Z</time></trkpt><trkpt lat="40.46170911245859" lon="15.092724643313163"><ele>51.0</ele><time>2026-03-29T12:59:36Z</time></trkpt><trkpt lat="40.46177825609689" lon="15.092491150457347"><ele>50.66666666666667</ele><time>2026-03-29T12:59:37Z</time></trkpt><trkpt lat="40.46185406662477" lon="15.09226127689604"><ele>50.333333333333336</ele><time>2026-03-29T12:59:38Z</time></trkpt><trkpt lat="40.46192440875744" lon="15.092046927507754"><ele>50.0</ele><time>2026-03-29T12:59:39Z</time></trkpt><trkpt lat="40.461985793890506" lon="15.091846396503454"><ele>50.0</ele><time>2026-03-29T12:59:40Z</time></trkpt><trkpt lat="40.4620502309611" lon="15.09163912718603"><ele>50.0</ele><time>2026-03-29T12:59:41Z</time></trkpt><trkpt lat="40.46211646483939" lon="15.09143558081707"><ele>50.0</ele><time>2026-03-29T12:59:42Z</time></trkpt><trkpt lat="40.46217273401258" lon="15.09123134485562"><ele>50.66666666666667</ele><time>2026-03-29T12:59:43.001Z</time></trkpt><trkpt lat="40.46221318339472" lon="15.091021764269394"><ele>51.33333333333333</ele><time>2026-03-29T12:59:44.001Z</time></trkpt><trkpt lat="40.46223123905415" lon="15.090810448816983"><ele>52.0</ele><time>2026-03-29T12:59:45.001Z</time></trkpt><trkpt lat="40.462226889097266" lon="15.090596116147394"><ele>53.666666666666664</ele><time>2026-03-29T12:59:46.001Z</time></trkpt><trkpt lat="40.46220573632821" lon="15.090368740766886"><ele>55.33333333333333</ele><time>2026-03-29T12:59:47.001Z</time></trkpt><trkpt lat="40.462183479761215" lon="15.090139260321946"><ele>57.0</ele><time>2026-03-29T12:59:48.001Z</time></trkpt><trkpt lat="40.462165628586426" lon="15.089912616199266"><ele>57.66666666666667</ele><time>2026-03-29T12:59:49.001Z</time></trkpt><trkpt lat="40.46215422022839" lon="15.08969501710068"><ele>58.333333333333336</ele><time>2026-03-29T12:59:50.001Z</time></trkpt><trkpt lat="40.46217905915208" lon="15.089482602872295"><ele>59.0</ele><time>2026-03-29T12:59:51.001Z</time></trkpt><trkpt lat="40.46219227550156" lon="15.089255393927399"><ele>58.0</ele><time>2026-03-29T12:59:52.001Z</time></trkpt><trkpt lat="40.46219146949407" lon="15.08903154073045"><ele>57.0</ele><time>2026-03-29T12:59:53.001Z</time></trkpt><trkpt lat="40.462210911710336" lon="15.088781999284208"><ele>56.0</ele><time>2026-03-29T12:59:54.001Z</time></trkpt><trkpt lat="40.46222273069785" lon="15.0885346369405"><ele>56.0</ele><time>2026-03-29T12:59:55Z</time></trkpt><trkpt lat="40.462236244444476" lon="15.088295683538337"><ele>56.0</ele><time>2026-03-29T12:59:56Z</time></trkpt><trkpt lat="40.462265973974375" lon="15.088060152831305"><ele>56.0</ele><time>2026-03-29T12:59:57Z</time></trkpt><trkpt lat="40.46228123706391" lon="15.0878139312599"><ele>55.333333333333336</ele><time>2026-03-29T12:59:58Z</time></trkpt><trkpt lat="40.46229678298962" lon="15.087562525984326"><ele>54.66666666666667</ele><time>2026-03-29T12:59:59Z</time></trkpt><trkpt lat="40.46231150862638" lon="15.087331418662677"><ele>54.0</ele><time>2026-03-29T13:00:00Z</time></trkpt><trkpt lat="40.462326896147374" lon="15.087095603613257"><ele>53.66666666666667</ele><time>2026-03-29T13:00:01Z</time></trkpt><trkpt lat="40.462341638469496" lon="15.086869676343154"><ele>53.333333333333336</ele><time>2026-03-29T13:00:02Z</time></trkpt><trkpt lat="40.46234084454616" lon="15.086638030894951"><ele>53.0</ele><time>2026-03-29T13:00:03Z</time></trkpt><trkpt lat="40.46235820077878" lon="15.086398106476217"><ele>53.0</ele><time>2026-03-29T13:00:04Z</time></trkpt><trkpt lat="40.46237363378026" lon="15.086160512889673"><ele>53.0</ele><time>2026-03-29T13:00:05Z</time></trkpt><trkpt lat="40.46238601542882" lon="15.085939987634777"><ele>53.0</ele><time>2026-03-29T13:00:06Z</time></trkpt><trkpt lat="40.46241650817749" lon="15.08572936799284"><ele>52.66666666666667</ele><time>2026-03-29T13:00:07Z</time></trkpt><trkpt lat="40.46243223742597" lon="15.085502037769361"><ele>52.33333333333333</ele><time>2026-03-29T13:00:08Z</time></trkpt><trkpt lat="40.46244086598263" lon="15.085239777004386"><ele>52.0</ele><time>2026-03-29T13:00:09Z</time></trkpt><trkpt lat="40.462447992845476" lon="15.085036823092402"><ele>53.0</ele><time>2026-03-29T13:00:10Z</time></trkpt><trkpt lat="40.46245501580493" lon="15.084800521464857"><ele>54.0</ele><time>2026-03-29T13:00:11Z</time></trkpt><trkpt lat="40.46245573053752" lon="15.08457223911254"><ele>55.0</ele><time>2026-03-29T13:00:12Z</time></trkpt><trkpt lat="40.46244039091863" lon="15.0843617363638"><ele>55.0</ele><time>2026-03-29T13:00:13Z</time></trkpt><trkpt lat="40.462415304644516" lon="15.084170409035172"><ele>55.0</ele><time>2026-03-29T13:00:14Z</time></trkpt><trkpt lat="40.46237915130298" lon="15.083987273602645"><ele>55.0</ele><time>2026-03-29T13:00:15Z</time></trkpt><trkpt lat="40.46234724741097" lon="15.08383049737915"><ele>55.0</ele><time>2026-03-29T13:00:16Z</time></trkpt><trkpt lat="40.462321845627" lon="15.083688983687237"><ele>54.99999999999999</ele><time>2026-03-29T13:00:17Z</time></trkpt><trkpt lat="40.462296952819" lon="15.083572420520134"><ele>55.0</ele><time>2026-03-29T13:00:18Z</time></trkpt><trkpt lat="40.46229846040037" lon="15.083486205824377"><ele>55.0</ele><time>2026-03-29T13:00:19Z</time></trkpt><trkpt lat="40.46228523757977" lon="15.083358699988423"><ele>55.0</ele><time>2026-03-29T13:00:21Z</time></trkpt><trkpt lat="40.462327811675216" lon="15.083278252130643"><ele>54.99999999999999</ele><time>2026-03-29T13:00:23Z</time></trkpt><trkpt lat="40.462388642854776" lon="15.08332245925093"><ele>55.0</ele><time>2026-03-29T13:00:24Z</time></trkpt><trkpt lat="40.462506785124056" lon="15.083286652252367"><ele>54.666666666666664</ele><time>2026-03-29T13:00:26Z</time></trkpt><trkpt lat="40.46258124694457" lon="15.083263630048513"><ele>54.33333333333333</ele><time>2026-03-29T13:00:27Z</time></trkpt><trkpt lat="40.462660678753835" lon="15.0832390712829"><ele>54.0</ele><time>2026-03-29T13:00:28Z</time></trkpt><trkpt lat="40.46275504471712" lon="15.083209541413881"><ele>53.66666666666667</ele><time>2026-03-29T13:00:29Z</time></trkpt><trkpt lat="40.46283768560127" lon="15.083161165212568"><ele>53.333333333333336</ele><time>2026-03-29T13:00:30Z</time></trkpt><trkpt lat="40.46290651095164" lon="15.083153067097054"><ele>53.0</ele><time>2026-03-29T13:00:31Z</time></trkpt><trkpt lat="40.462996996900095" lon="15.083133306577004"><ele>53.00000000000001</ele><time>2026-03-29T13:00:32Z</time></trkpt><trkpt lat="40.46308920553343" lon="15.083102215128536"><ele>53.0</ele><time>2026-03-29T13:00:33Z</time></trkpt><trkpt lat="40.46318347840053" lon="15.083070493884856"><ele>53.0</ele><time>2026-03-29T13:00:34Z</time></trkpt><trkpt lat="40.46327561256454" lon="15.083037325563154"><ele>53.0</ele><time>2026-03-29T13:00:35Z</time></trkpt><trkpt lat="40.46335124972748" lon="15.08300627352619"><ele>53.00000000000001</ele><time>2026-03-29T13:00:36Z</time></trkpt><trkpt lat="40.463420278884854" lon="15.082956399594117"><ele>53.0</ele><time>2026-03-29T13:00:37Z</time></trkpt><trkpt lat="40.463519663444174" lon="15.08293091676332"><ele>53.0</ele><time>2026-03-29T13:00:38Z</time></trkpt><trkpt lat="40.46359774736586" lon="15.08288380239913"><ele>53.0</ele><time>2026-03-29T13:00:39Z</time></trkpt><trkpt lat="40.46367787667247" lon="15.082846987716652"><ele>53.0</ele><time>2026-03-29T13:00:40Z</time></trkpt><trkpt lat="40.46377048350513" lon="15.082797048586793"><ele>53.0</ele><time>2026-03-29T13:00:41Z</time></trkpt><trkpt lat="40.46385937477987" lon="15.082748679987942"><ele>53.0</ele><time>2026-03-29T13:00:42Z</time></trkpt><trkpt lat="40.46394583111668" lon="15.082688371933472"><ele>52.2</ele><time>2026-03-29T13:00:43Z</time></trkpt><trkpt lat="40.464026382480455" lon="15.082627885782932"><ele>51.4</ele><time>2026-03-29T13:00:44Z</time></trkpt><trkpt lat="40.46411240942845" lon="15.082552536783485"><ele>50.6</ele><time>2026-03-29T13:00:45Z</time></trkpt><trkpt lat="40.46420177991497" lon="15.082466256731516"><ele>49.800000000000004</ele><time>2026-03-29T13:00:46Z</time></trkpt><trkpt lat="40.464271410786075" lon="15.082371443852534"><ele>49.0</ele><time>2026-03-29T13:00:47Z</time></trkpt><trkpt lat="40.46434095894433" lon="15.082277635773282"><ele>48.800000000000004</ele><time>2026-03-29T13:00:48Z</time></trkpt><trkpt lat="40.46441869193986" lon="15.082178376290514"><ele>48.6</ele><time>2026-03-29T13:00:49Z</time></trkpt><trkpt lat="40.46448304430761" lon="15.082105931363039"><ele>48.4</ele><time>2026-03-29T13:00:50Z</time></trkpt><trkpt lat="40.464565375425316" lon="15.081999550410105"><ele>48.2</ele><time>2026-03-29T13:00:51Z</time></trkpt><trkpt lat="40.464648817648225" lon="15.081900633133474"><ele>48.0</ele><time>2026-03-29T13:00:52Z</time></trkpt><trkpt lat="40.464724714184946" lon="15.081813118212448"><ele>47.4</ele><time>2026-03-29T13:00:53Z</time></trkpt><trkpt lat="40.464794539780975" lon="15.081730833821963"><ele>46.8</ele><time>2026-03-29T13:00:54Z</time></trkpt><trkpt lat="40.46486835611017" lon="15.081649044689275"><ele>46.2</ele><time>2026-03-29T13:00:55Z</time></trkpt><trkpt lat="40.464944567894655" lon="15.081556528579908"><ele>45.6</ele><time>2026-03-29T13:00:56Z</time></trkpt><trkpt lat="40.465007294340495" lon="15.081468613614346"><ele>45.0</ele><time>2026-03-29T13:00:57Z</time></trkpt><trkpt lat="40.46508122706912" lon="15.081402371448457"><ele>44.8</ele><time>2026-03-29T13:00:58Z</time></trkpt><trkpt lat="40.46514746529259" lon="15.0813201588716"><ele>44.6</ele><time>2026-03-29T13:00:59Z</time></trkpt><trkpt lat="40.46522488874381" lon="15.081225241859947"><ele>44.400000000000006</ele><time>2026-03-29T13:01:00Z</time></trkpt><trkpt lat="40.46529958447491" lon="15.081110907159202"><ele>44.2</ele><time>2026-03-29T13:01:01Z</time></trkpt><trkpt lat="40.465381977760465" lon="15.081016389071246"><ele>44.0</ele><time>2026-03-29T13:01:02Z</time></trkpt><trkpt lat="40.465460562496965" lon="15.080917192435901"><ele>43.800000000000004</ele><time>2026-03-29T13:01:03Z</time></trkpt><trkpt lat="40.46554071751401" lon="15.08082261387154"><ele>43.6</ele><time>2026-03-29T13:01:04Z</time></trkpt><trkpt lat="40.46561922058284" lon="15.080732664090318"><ele>43.4</ele><time>2026-03-29T13:01:05Z</time></trkpt><trkpt lat="40.465688709806734" lon="15.0806473360388"><ele>43.2</ele><time>2026-03-29T13:01:06Z</time></trkpt><trkpt lat="40.46575610217137" lon="15.080570627604045"><ele>43.0</ele><time>2026-03-29T13:01:07Z</time></trkpt><trkpt lat="40.46581566073426" lon="15.08049655225713"><ele>43.0</ele><time>2026-03-29T13:01:08Z</time></trkpt><trkpt lat="40.4658743541928" lon="15.080432761382378"><ele>43.0</ele><time>2026-03-29T13:01:09Z</time></trkpt><trkpt lat="40.46597114525985" lon="15.080315046447703"><ele>43.0</ele><time>2026-03-29T13:01:11Z</time></trkpt><trkpt lat="40.46607089758651" lon="15.080215099501041"><ele>43.0</ele><time>2026-03-29T13:01:13Z</time></trkpt><trkpt lat="40.46610964855767" lon="15.080138827027664"><ele>43.0</ele><time>2026-03-29T13:01:14Z</time></trkpt><trkpt lat="40.46617264869406" lon="15.080066499080411"><ele>43.0</ele><time>2026-03-29T13:01:15Z</time></trkpt><trkpt lat="40.466222900527676" lon="15.080003338822499"><ele>43.0</ele><time>2026-03-29T13:01:16Z</time></trkpt><trkpt lat="40.46628180743629" lon="15.079942912486397"><ele>43.0</ele><time>2026-03-29T13:01:17Z</time></trkpt><trkpt lat="40.46634423232085" lon="15.079867890681474"><ele>43.0</ele><time>2026-03-29T13:01:18Z</time></trkpt><trkpt lat="40.466430280828675" lon="15.079762761746151"><ele>43.0</ele><time>2026-03-29T13:01:20Z</time></trkpt><trkpt lat="40.466488750704" lon="15.079695469000887"><ele>43.0</ele><time>2026-03-29T13:01:21Z</time></trkpt><trkpt lat="40.46653981781037" lon="15.07963237769957"><ele>43.0</ele><time>2026-03-29T13:01:22Z</time></trkpt><trkpt lat="40.466593970638236" lon="15.079557823768813"><ele>43.0</ele><time>2026-03-29T13:01:23Z</time></trkpt><trkpt lat="40.46664632654359" lon="15.079506243653938"><ele>43.0</ele><time>2026-03-29T13:01:24Z</time></trkpt><trkpt lat="40.466729629893464" lon="15.079393862604881"><ele>43.0</ele><time>2026-03-29T13:01:26Z</time></trkpt><trkpt lat="40.466785871122056" lon="15.079332344725993"><ele>43.0</ele><time>2026-03-29T13:01:27Z</time></trkpt><trkpt lat="40.46683899685811" lon="15.079267820934982"><ele>43.0</ele><time>2026-03-29T13:01:28Z</time></trkpt><trkpt lat="40.46690242543025" lon="15.07919716277133"><ele>43.0</ele><time>2026-03-29T13:01:29Z</time></trkpt><trkpt lat="40.46697289066585" lon="15.079111711729126"><ele>43.0</ele><time>2026-03-29T13:01:30Z</time></trkpt><trkpt lat="40.467041333127874" lon="15.079034527602866"><ele>43.0</ele><time>2026-03-29T13:01:31Z</time></trkpt><trkpt lat="40.4670952514255" lon="15.078965043468155"><ele>43.0</ele><time>2026-03-29T13:01:32Z</time></trkpt><trkpt lat="40.46715733696256" lon="15.078916730400888"><ele>43.0</ele><time>2026-03-29T13:01:33Z</time></trkpt><trkpt lat="40.467205194535666" lon="15.078834134534624"><ele>43.0</ele><time>2026-03-29T13:01:34Z</time></trkpt><trkpt lat="40.467270019911844" lon="15.078774540312352"><ele>43.0</ele><time>2026-03-29T13:01:35Z</time></trkpt><trkpt lat="40.467339784092886" lon="15.078707730810494"><ele>43.0</ele><time>2026-03-29T13:01:36Z</time></trkpt><trkpt lat="40.467410385875766" lon="15.07861083145897"><ele>43.0</ele><time>2026-03-29T13:01:37Z</time></trkpt><trkpt lat="40.4674831166645" lon="15.078527489301155"><ele>43.0</ele><time>2026-03-29T13:01:38Z</time></trkpt><trkpt lat="40.467552419621704" lon="15.078444039622134"><ele>43.0</ele><time>2026-03-29T13:01:39Z</time></trkpt><trkpt lat="40.46760593310469" lon="15.078349828095176"><ele>43.0</ele><time>2026-03-29T13:01:40Z</time></trkpt><trkpt lat="40.467664217921346" lon="15.078285350710363"><ele>43.0</ele><time>2026-03-29T13:01:41Z</time></trkpt><trkpt lat="40.4677228078753" lon="15.078214379982184"><ele>43.0</ele><time>2026-03-29T13:01:42Z</time></trkpt><trkpt lat="40.467772788185634" lon="15.078150085017596"><ele>43.0</ele><time>2026-03-29T13:01:43Z</time></trkpt><trkpt lat="40.467835755802874" lon="15.078074357424093"><ele>43.0</ele><time>2026-03-29T13:01:44Z</time></trkpt><trkpt lat="40.46790357154472" lon="15.078000114980517"><ele>43.0</ele><time>2026-03-29T13:01:45Z</time></trkpt><trkpt lat="40.46796996954797" lon="15.077916777033542"><ele>42.66666666666667</ele><time>2026-03-29T13:01:46Z</time></trkpt><trkpt lat="40.46802855018484" lon="15.077842581076187"><ele>42.333333333333336</ele><time>2026-03-29T13:01:47Z</time></trkpt><trkpt lat="40.468083683984645" lon="15.0777776747191"><ele>42.0</ele><time>2026-03-29T13:01:48Z</time></trkpt><trkpt lat="40.46813065515719" lon="15.07771838614403"><ele>41.666666666666664</ele><time>2026-03-29T13:01:49Z</time></trkpt><trkpt lat="40.468184578848664" lon="15.077653972932604"><ele>41.33333333333333</ele><time>2026-03-29T13:01:50Z</time></trkpt><trkpt lat="40.468272085623575" lon="15.07755168619123"><ele>41.0</ele><time>2026-03-29T13:01:52Z</time></trkpt><trkpt lat="40.46832511359181" lon="15.07748560482983"><ele>41.0</ele><time>2026-03-29T13:01:53Z</time></trkpt><trkpt lat="40.4683829016634" lon="15.077414752879344"><ele>41.0</ele><time>2026-03-29T13:01:54Z</time></trkpt><trkpt lat="40.46844676054499" lon="15.077336950858447"><ele>41.0</ele><time>2026-03-29T13:01:55Z</time></trkpt><trkpt lat="40.46850340128402" lon="15.077270121147"><ele>41.0</ele><time>2026-03-29T13:01:56Z</time></trkpt><trkpt lat="40.46856559223641" lon="15.077198360317682"><ele>41.0</ele><time>2026-03-29T13:01:57Z</time></trkpt><trkpt lat="40.46862853079223" lon="15.077126336578898"><ele>41.0</ele><time>2026-03-29T13:01:58Z</time></trkpt><trkpt lat="40.46868178521363" lon="15.07705731201178"><ele>41.0</ele><time>2026-03-29T13:01:59Z</time></trkpt><trkpt lat="40.468729930793295" lon="15.077001519969203"><ele>41.0</ele><time>2026-03-29T13:02:00Z</time></trkpt><trkpt lat="40.46882536769433" lon="15.076900154563626"><ele>41.0</ele><time>2026-03-29T13:02:02Z</time></trkpt><trkpt lat="40.468886850984504" lon="15.076842129076912"><ele>41.0</ele><time>2026-03-29T13:02:03Z</time></trkpt><trkpt lat="40.46895240225472" lon="15.076776581518677"><ele>41.0</ele><time>2026-03-29T13:02:04Z</time></trkpt><trkpt lat="40.469011175600535" lon="15.076705431502536"><ele>41.0</ele><time>2026-03-29T13:02:05Z</time></trkpt><trkpt lat="40.46907255749822" lon="15.076622032129425"><ele>41.8</ele><time>2026-03-29T13:02:06Z</time></trkpt><trkpt lat="40.469133315455196" lon="15.076542770863158"><ele>42.599999999999994</ele><time>2026-03-29T13:02:07Z</time></trkpt><trkpt lat="40.46920245179208" lon="15.076463464192551"><ele>43.4</ele><time>2026-03-29T13:02:08Z</time></trkpt><trkpt lat="40.469276167034025" lon="15.076378142944792"><ele>44.2</ele><time>2026-03-29T13:02:09Z</time></trkpt><trkpt lat="40.46935072628794" lon="15.076290723636184"><ele>45.0</ele><time>2026-03-29T13:02:10Z</time></trkpt><trkpt lat="40.46942525598064" lon="15.076199210628827"><ele>45.0</ele><time>2026-03-29T13:02:11Z</time></trkpt><trkpt lat="40.4695035336109" lon="15.07610034237325"><ele>45.0</ele><time>2026-03-29T13:02:12Z</time></trkpt><trkpt lat="40.469584550402196" lon="15.07599828822626"><ele>45.0</ele><time>2026-03-29T13:02:13Z</time></trkpt><trkpt lat="40.46966067476887" lon="15.075917707794053"><ele>45.0</ele><time>2026-03-29T13:02:14Z</time></trkpt><trkpt lat="40.469742569036484" lon="15.075836063430096"><ele>45.0</ele><time>2026-03-29T13:02:15Z</time></trkpt><trkpt lat="40.46982998806782" lon="15.075734551372133"><ele>44.5</ele><time>2026-03-29T13:02:16Z</time></trkpt><trkpt lat="40.469912842386954" lon="15.075629846106853"><ele>44.0</ele><time>2026-03-29T13:02:17Z</time></trkpt><trkpt lat="40.46999931288646" lon="15.07551844240444"><ele>43.5</ele><time>2026-03-29T13:02:18Z</time></trkpt><trkpt lat="40.47008245342701" lon="15.075410941854864"><ele>43.0</ele><time>2026-03-29T13:02:19Z</time></trkpt><trkpt lat="40.47016112444731" lon="15.075308504029621"><ele>43.0</ele><time>2026-03-29T13:02:20Z</time></trkpt><trkpt lat="40.470239094195506" lon="15.075211311350479"><ele>43.0</ele><time>2026-03-29T13:02:21Z</time></trkpt><trkpt lat="40.47031302188591" lon="15.075115140973221"><ele>43.0</ele><time>2026-03-29T13:02:22Z</time></trkpt><trkpt lat="40.470383917674695" lon="15.075024214165772"><ele>43.0</ele><time>2026-03-29T13:02:23Z</time></trkpt><trkpt lat="40.470457076859454" lon="15.0749378529495"><ele>43.0</ele><time>2026-03-29T13:02:24Z</time></trkpt><trkpt lat="40.47052519098963" lon="15.074859134663244"><ele>42.4</ele><time>2026-03-29T13:02:25Z</time></trkpt><trkpt lat="40.47059737237659" lon="15.074768933730605"><ele>41.8</ele><time>2026-03-29T13:02:26Z</time></trkpt><trkpt lat="40.47066928308627" lon="15.074675329376838"><ele>41.2</ele><time>2026-03-29T13:02:27Z</time></trkpt><trkpt lat="40.47074256045522" lon="15.0745889423147"><ele>40.6</ele><time>2026-03-29T13:02:28Z</time></trkpt><trkpt lat="40.470807331871995" lon="15.074511290056092"><ele>40.0</ele><time>2026-03-29T13:02:29Z</time></trkpt><trkpt lat="40.47087328660262" lon="15.074427476756002"><ele>40.0</ele><time>2026-03-29T13:02:30Z</time></trkpt><trkpt lat="40.47093801863421" lon="15.074344616155646"><ele>40.0</ele><time>2026-03-29T13:02:31Z</time></trkpt><trkpt lat="40.470982531965646" lon="15.074236211295698"><ele>40.0</ele><time>2026-03-29T13:02:32Z</time></trkpt><trkpt lat="40.47101372023772" lon="15.074136877010009"><ele>40.0</ele><time>2026-03-29T13:02:33Z</time></trkpt><trkpt lat="40.47104813628982" lon="15.07405162633814"><ele>40.0</ele><time>2026-03-29T13:02:34Z</time></trkpt><trkpt lat="40.47114183123816" lon="15.07397744202714"><ele>40.0</ele><time>2026-03-29T13:02:36Z</time></trkpt><trkpt lat="40.4712131390278" lon="15.073955688968281"><ele>40.4</ele><time>2026-03-29T13:02:37Z</time></trkpt><trkpt lat="40.47129877736857" lon="15.073937187527822"><ele>40.8</ele><time>2026-03-29T13:02:38Z</time></trkpt><trkpt lat="40.47138078775476" lon="15.073921122683767"><ele>41.2</ele><time>2026-03-29T13:02:39Z</time></trkpt><trkpt lat="40.4714485676896" lon="15.073928555066557"><ele>41.6</ele><time>2026-03-29T13:02:40Z</time></trkpt><trkpt lat="40.471565471302355" lon="15.073941246386445"><ele>42.0</ele><time>2026-03-29T13:02:42Z</time></trkpt><trkpt lat="40.471705302429925" lon="15.07398054712187"><ele>42.0</ele><time>2026-03-29T13:02:44Z</time></trkpt><trkpt lat="40.471791377754556" lon="15.074004684580201"><ele>42.0</ele><time>2026-03-29T13:02:45Z</time></trkpt><trkpt lat="40.471896067326064" lon="15.074031712222943"><ele>42.0</ele><time>2026-03-29T13:02:46Z</time></trkpt><trkpt lat="40.47199953562216" lon="15.07405504121319"><ele>42.0</ele><time>2026-03-29T13:02:47Z</time></trkpt><trkpt lat="40.472100022973166" lon="15.074087786777753"><ele>42.0</ele><time>2026-03-29T13:02:48Z</time></trkpt><trkpt lat="40.47219929858339" lon="15.074103870529791"><ele>42.400000000000006</ele><time>2026-03-29T13:02:49Z</time></trkpt><trkpt lat="40.472301501882484" lon="15.074128220028197"><ele>42.800000000000004</ele><time>2026-03-29T13:02:50Z</time></trkpt><trkpt lat="40.47239855292584" lon="15.074146089168611"><ele>43.2</ele><time>2026-03-29T13:02:51Z</time></trkpt><trkpt lat="40.472502099561254" lon="15.07417082166646"><ele>43.6</ele><time>2026-03-29T13:02:52Z</time></trkpt><trkpt lat="40.47260410193436" lon="15.074206203245875"><ele>44.0</ele><time>2026-03-29T13:02:53Z</time></trkpt><trkpt lat="40.472707731851656" lon="15.074236845492173"><ele>44.0</ele><time>2026-03-29T13:02:54Z</time></trkpt><trkpt lat="40.47281520289941" lon="15.074262311769626"><ele>44.0</ele><time>2026-03-29T13:02:55Z</time></trkpt><trkpt lat="40.47292502267287" lon="15.074291576168259"><ele>44.0</ele><time>2026-03-29T13:02:56Z</time></trkpt><trkpt lat="40.47302299104338" lon="15.074308229676959"><ele>44.0</ele><time>2026-03-29T13:02:57Z</time></trkpt><trkpt lat="40.473117260898945" lon="15.074329001822115"><ele>44.0</ele><time>2026-03-29T13:02:58Z</time></trkpt><trkpt lat="40.473194905007816" lon="15.074348409288866"><ele>44.800000000000004</ele><time>2026-03-29T13:02:59Z</time></trkpt><trkpt lat="40.473316589386634" lon="15.074389405268512"><ele>45.6</ele><time>2026-03-29T13:03:01Z</time></trkpt><trkpt lat="40.473397783947945" lon="15.074412392996367"><ele>46.4</ele><time>2026-03-29T13:03:02Z</time></trkpt><trkpt lat="40.47347881232405" lon="15.074472894533914"><ele>47.2</ele><time>2026-03-29T13:03:04Z</time></trkpt><trkpt lat="40.47354260708879" lon="15.07448363231442"><ele>48.0</ele><time>2026-03-29T13:03:06Z</time></trkpt><trkpt lat="40.473615107166516" lon="15.074320181817269"><ele>48.0</ele><time>2026-03-29T13:03:10Z</time></trkpt><trkpt lat="40.473653952552056" lon="15.074237169847311"><ele>48.0</ele><time>2026-03-29T13:03:11Z</time></trkpt><trkpt lat="40.47368369352584" lon="15.074150314287674"><ele>48.0</ele><time>2026-03-29T13:03:12Z</time></trkpt><trkpt lat="40.47371042928042" lon="15.074049170240443"><ele>48.0</ele><time>2026-03-29T13:03:13Z</time></trkpt><trkpt lat="40.4737421891121" lon="15.073938441401781"><ele>48.0</ele><time>2026-03-29T13:03:14Z</time></trkpt><trkpt lat="40.473778064054976" lon="15.073833174720585"><ele>48.0</ele><time>2026-03-29T13:03:15Z</time></trkpt><trkpt lat="40.4738205607167" lon="15.073718512947705"><ele>48.75</ele><time>2026-03-29T13:03:16Z</time></trkpt><trkpt lat="40.47386354491684" lon="15.0735922187816"><ele>49.5</ele><time>2026-03-29T13:03:17Z</time></trkpt><trkpt lat="40.47391270048065" lon="15.073449108628589"><ele>50.25</ele><time>2026-03-29T13:03:18Z</time></trkpt><trkpt lat="40.473969833400716" lon="15.073318349896283"><ele>51.0</ele><time>2026-03-29T13:03:19Z</time></trkpt><trkpt lat="40.474004914161945" lon="15.07317105638954"><ele>51.0</ele><time>2026-03-29T13:03:20Z</time></trkpt><trkpt lat="40.474070481564524" lon="15.073037786504399"><ele>51.0</ele><time>2026-03-29T13:03:21Z</time></trkpt><trkpt lat="40.474122544510884" lon="15.072893494362143"><ele>51.0</ele><time>2026-03-29T13:03:22Z</time></trkpt><trkpt lat="40.47416048961523" lon="15.07273566216021"><ele>51.0</ele><time>2026-03-29T13:03:23Z</time></trkpt><trkpt lat="40.474222343128794" lon="15.072585780345609"><ele>51.0</ele><time>2026-03-29T13:03:24Z</time></trkpt><trkpt lat="40.47427213593277" lon="15.0724353434338"><ele>51.0</ele><time>2026-03-29T13:03:25Z</time></trkpt><trkpt lat="40.47432084430321" lon="15.072285015024285"><ele>51.0</ele><time>2026-03-29T13:03:25.999Z</time></trkpt><trkpt lat="40.474372755642456" lon="15.072131053153171"><ele>51.0</ele><time>2026-03-29T13:03:26.999Z</time></trkpt><trkpt lat="40.47442600344686" lon="15.071981843074996"><ele>51.0</ele><time>2026-03-29T13:03:27.999Z</time></trkpt><trkpt lat="40.47448035183877" lon="15.071839075850626"><ele>51.0</ele><time>2026-03-29T13:03:28.999Z</time></trkpt><trkpt lat="40.47452559042484" lon="15.07169689892978"><ele>51.0</ele><time>2026-03-29T13:03:29.999Z</time></trkpt><trkpt lat="40.47457570090923" lon="15.071547226392466"><ele>51.0</ele><time>2026-03-29T13:03:30.999Z</time></trkpt><trkpt lat="40.47462359248008" lon="15.071405881891353"><ele>52.5</ele><time>2026-03-29T13:03:31.999Z</time></trkpt><trkpt lat="40.474674426968356" lon="15.071259366607938"><ele>54.0</ele><time>2026-03-29T13:03:32.999Z</time></trkpt><trkpt lat="40.47473236741884" lon="15.071126592186529"><ele>55.5</ele><time>2026-03-29T13:03:33.999Z</time></trkpt><trkpt lat="40.474779472026114" lon="15.070987996802861"><ele>57.0</ele><time>2026-03-29T13:03:34.999Z</time></trkpt><trkpt lat="40.4748199324345" lon="15.070867582516001"><ele>57.0</ele><time>2026-03-29T13:03:35.999Z</time></trkpt><trkpt lat="40.47486146055704" lon="15.070740126066095"><ele>57.0</ele><time>2026-03-29T13:03:36.999Z</time></trkpt><trkpt lat="40.47490320688402" lon="15.070611160434684"><ele>57.0</ele><time>2026-03-29T13:03:37.999Z</time></trkpt><trkpt lat="40.474946680942566" lon="15.070483813032151"><ele>57.0</ele><time>2026-03-29T13:03:38.999Z</time></trkpt><trkpt lat="40.4749935000674" lon="15.070348282994713"><ele>57.0</ele><time>2026-03-29T13:03:39.999Z</time></trkpt><trkpt lat="40.47503444063143" lon="15.070216398977255"><ele>57.0</ele><time>2026-03-29T13:03:40.999Z</time></trkpt><trkpt lat="40.47508025074256" lon="15.0700750734998"><ele>57.0</ele><time>2026-03-29T13:03:41.999Z</time></trkpt><trkpt lat="40.47514155934147" lon="15.069936471163674"><ele>57.0</ele><time>2026-03-29T13:03:42.999Z</time></trkpt><trkpt lat="40.475177470354154" lon="15.069789097468009"><ele>57.0</ele><time>2026-03-29T13:03:43.999Z</time></trkpt><trkpt lat="40.475236261729336" lon="15.069641922108135"><ele>57.0</ele><time>2026-03-29T13:03:44.999Z</time></trkpt><trkpt lat="40.475337928908225" lon="15.069347271506745"><ele>57.0</ele><time>2026-03-29T13:03:46.999Z</time></trkpt><trkpt lat="40.47539135689245" lon="15.069225855054464"><ele>57.0</ele><time>2026-03-29T13:03:47.999Z</time></trkpt><trkpt lat="40.47544089557883" lon="15.06911494386503"><ele>58.2</ele><time>2026-03-29T13:03:48.999Z</time></trkpt><trkpt lat="40.4754784697492" lon="15.068996252826086"><ele>59.400000000000006</ele><time>2026-03-29T13:03:49.999Z</time></trkpt><trkpt lat="40.47551492571097" lon="15.068870292086906"><ele>60.599999999999994</ele><time>2026-03-29T13:03:50.999Z</time></trkpt><trkpt lat="40.475539269831394" lon="15.068754947831456"><ele>61.8</ele><time>2026-03-29T13:03:51.999Z</time></trkpt><trkpt lat="40.47556546452254" lon="15.06861274398453"><ele>63.0</ele><time>2026-03-29T13:03:52.999Z</time></trkpt><trkpt lat="40.47557654419009" lon="15.068463640783131"><ele>63.0</ele><time>2026-03-29T13:03:53.999Z</time></trkpt><trkpt lat="40.47561270285524" lon="15.06831636759271"><ele>63.0</ele><time>2026-03-29T13:03:54.999Z</time></trkpt><trkpt lat="40.47562183754735" lon="15.068180737809435"><ele>63.0</ele><time>2026-03-29T13:03:55.999Z</time></trkpt><trkpt lat="40.47566153349104" lon="15.068062288907331"><ele>63.0</ele><time>2026-03-29T13:03:56.999Z</time></trkpt><trkpt lat="40.475736871889936" lon="15.067970869139796"><ele>63.0</ele><time>2026-03-29T13:03:57.999Z</time></trkpt><trkpt lat="40.47581134218463" lon="15.067880748329962"><ele>62.8</ele><time>2026-03-29T13:03:58.999Z</time></trkpt><trkpt lat="40.47589772909198" lon="15.067790881416263"><ele>62.599999999999994</ele><time>2026-03-29T13:03:59.999Z</time></trkpt><trkpt lat="40.47598504231315" lon="15.06768479214705"><ele>62.400000000000006</ele><time>2026-03-29T13:04:00.999Z</time></trkpt><trkpt lat="40.47606938432072" lon="15.067591090111407"><ele>62.2</ele><time>2026-03-29T13:04:01.999Z</time></trkpt><trkpt lat="40.47615634087579" lon="15.067503422611363"><ele>62.0</ele><time>2026-03-29T13:04:02.999Z</time></trkpt><trkpt lat="40.47624507738292" lon="15.067404091321619"><ele>62.5</ele><time>2026-03-29T13:04:03.999Z</time></trkpt><trkpt lat="40.476333528506814" lon="15.067291464563743"><ele>63.0</ele><time>2026-03-29T13:04:04.999Z</time></trkpt><trkpt lat="40.476420084355155" lon="15.067183888609048"><ele>63.5</ele><time>2026-03-29T13:04:05.999Z</time></trkpt><trkpt lat="40.47650303607706" lon="15.06707244049789"><ele>64.0</ele><time>2026-03-29T13:04:06.999Z</time></trkpt><trkpt lat="40.47658541456015" lon="15.066956079246347"><ele>64.0</ele><time>2026-03-29T13:04:07.999Z</time></trkpt><trkpt lat="40.476671134733955" lon="15.066832406321998"><ele>64.0</ele><time>2026-03-29T13:04:08.999Z</time></trkpt><trkpt lat="40.476764135366246" lon="15.066715112688323"><ele>64.0</ele><time>2026-03-29T13:04:09.999Z</time></trkpt><trkpt lat="40.47684703690334" lon="15.066602838096776"><ele>64.0</ele><time>2026-03-29T13:04:10.999Z</time></trkpt><trkpt lat="40.47692616380251" lon="15.066498291410182"><ele>64.2</ele><time>2026-03-29T13:04:11.999Z</time></trkpt><trkpt lat="40.47699896509705" lon="15.066385541110774"><ele>64.4</ele><time>2026-03-29T13:04:12.999Z</time></trkpt><trkpt lat="40.47707010912396" lon="15.066261620243365"><ele>64.6</ele><time>2026-03-29T13:04:13.999Z</time></trkpt><trkpt lat="40.477126641972795" lon="15.06614032656625"><ele>64.8</ele><time>2026-03-29T13:04:14.999Z</time></trkpt><trkpt lat="40.477172026561" lon="15.066029429342853"><ele>65.0</ele><time>2026-03-29T13:04:15.999Z</time></trkpt><trkpt lat="40.47721207458016" lon="15.065913899475735"><ele>65.0</ele><time>2026-03-29T13:04:16.999Z</time></trkpt><trkpt lat="40.47723594503582" lon="15.0658173339346"><ele>65.0</ele><time>2026-03-29T13:04:17.999Z</time></trkpt><trkpt lat="40.47726119945868" lon="15.065693832266529"><ele>65.0</ele><time>2026-03-29T13:04:19.999Z</time></trkpt><trkpt lat="40.4772781899013" lon="15.065611528797069"><ele>65.0</ele><time>2026-03-29T13:05:05.999Z</time></trkpt><trkpt lat="40.477272337499464" lon="15.065488921415623"><ele>65.0</ele><time>2026-03-29T13:05:08.999Z</time></trkpt><trkpt lat="40.477221247193306" lon="15.065344041276548"><ele>64.8</ele><time>2026-03-29T13:05:10.999Z</time></trkpt><trkpt lat="40.477202025071875" lon="15.065234786923684"><ele>64.6</ele><time>2026-03-29T13:05:11.999Z</time></trkpt><trkpt lat="40.47716249383685" lon="15.0651296371179"><ele>64.4</ele><time>2026-03-29T13:05:12.999Z</time></trkpt><trkpt lat="40.47711779735127" lon="15.065013935785515"><ele>64.2</ele><time>2026-03-29T13:05:13.999Z</time></trkpt><trkpt lat="40.4770697885161" lon="15.064890596623863"><ele>64.0</ele><time>2026-03-29T13:05:14.999Z</time></trkpt><trkpt lat="40.477021746406535" lon="15.064767171795337"><ele>64.0</ele><time>2026-03-29T13:05:15.999Z</time></trkpt><trkpt lat="40.47697058964763" lon="15.064637192087456"><ele>64.0</ele><time>2026-03-29T13:05:16.999Z</time></trkpt><trkpt lat="40.47691515336797" lon="15.064505734050453"><ele>64.0</ele><time>2026-03-29T13:05:17.999Z</time></trkpt><trkpt lat="40.47687273693905" lon="15.064367577781296"><ele>64.0</ele><time>2026-03-29T13:05:18.999Z</time></trkpt><trkpt lat="40.47683525350713" lon="15.064225099702202"><ele>64.25</ele><time>2026-03-29T13:05:19.999Z</time></trkpt><trkpt lat="40.47681197430062" lon="15.06406924567325"><ele>64.5</ele><time>2026-03-29T13:05:20.999Z</time></trkpt><trkpt lat="40.47681245942501" lon="15.063913412223949"><ele>64.75</ele><time>2026-03-29T13:05:21.999Z</time></trkpt><trkpt lat="40.47679470141521" lon="15.063753513291164"><ele>65.0</ele><time>2026-03-29T13:05:22.999Z</time></trkpt><trkpt lat="40.47681663054666" lon="15.063610989158096"><ele>65.0</ele><time>2026-03-29T13:05:23.999Z</time></trkpt><trkpt lat="40.476832812249256" lon="15.063479835080745"><ele>65.0</ele><time>2026-03-29T13:05:24.999Z</time></trkpt><trkpt lat="40.476834817756284" lon="15.06332908867258"><ele>65.0</ele><time>2026-03-29T13:05:25.999Z</time></trkpt><trkpt lat="40.476869864417964" lon="15.063170417884006"><ele>65.0</ele><time>2026-03-29T13:05:26.999Z</time></trkpt><trkpt lat="40.47689171061394" lon="15.063002140559128"><ele>64.75</ele><time>2026-03-29T13:05:27.999Z</time></trkpt><trkpt lat="40.47689955609699" lon="15.062828519720977"><ele>64.5</ele><time>2026-03-29T13:05:28.999Z</time></trkpt><trkpt lat="40.476922068488385" lon="15.06265773778545"><ele>64.25</ele><time>2026-03-29T13:05:29.999Z</time></trkpt><trkpt lat="40.47696205299844" lon="15.062478178724682"><ele>64.0</ele><time>2026-03-29T13:05:30.999Z</time></trkpt><trkpt lat="40.47698678126014" lon="15.062286954656349"><ele>63.5</ele><time>2026-03-29T13:05:31.999Z</time></trkpt><trkpt lat="40.477011970744584" lon="15.062097647780957"><ele>63.0</ele><time>2026-03-29T13:05:32.999Z</time></trkpt><trkpt lat="40.47703776685169" lon="15.061904699237264"><ele>62.5</ele><time>2026-03-29T13:05:33.999Z</time></trkpt><trkpt lat="40.47706310232611" lon="15.061709130219427"><ele>62.0</ele><time>2026-03-29T13:05:34.999Z</time></trkpt><trkpt lat="40.47708814192164" lon="15.061504118540812"><ele>64.0</ele><time>2026-03-29T13:05:35.999Z</time></trkpt><trkpt lat="40.477113175787665" lon="15.061302250730131"><ele>66.0</ele><time>2026-03-29T13:05:36.999Z</time></trkpt><trkpt lat="40.47712163612044" lon="15.061103937950012"><ele>68.0</ele><time>2026-03-29T13:05:37.999Z</time></trkpt><trkpt lat="40.477148865227484" lon="15.06090879093019"><ele>67.0</ele><time>2026-03-29T13:05:38.999Z</time></trkpt><trkpt lat="40.47719025450448" lon="15.06071154526565"><ele>66.0</ele><time>2026-03-29T13:05:39.999Z</time></trkpt><trkpt lat="40.47721693222437" lon="15.0605146595529"><ele>65.0</ele><time>2026-03-29T13:05:40.999Z</time></trkpt><trkpt lat="40.47724147978507" lon="15.060324778641377"><ele>65.0</ele><time>2026-03-29T13:05:41.999Z</time></trkpt><trkpt lat="40.47726626194143" lon="15.06011599842485"><ele>65.0</ele><time>2026-03-29T13:05:42.999Z</time></trkpt><trkpt lat="40.477292022793804" lon="15.059926258114446"><ele>65.0</ele><time>2026-03-29T13:05:43.999Z</time></trkpt><trkpt lat="40.47732511498358" lon="15.059743726239667"><ele>64.0</ele><time>2026-03-29T13:05:44.999Z</time></trkpt><trkpt lat="40.47735734462115" lon="15.059542978970015"><ele>63.0</ele><time>2026-03-29T13:05:45.999Z</time></trkpt><trkpt lat="40.47741010343158" lon="15.05934697384558"><ele>62.0</ele><time>2026-03-29T13:05:46.999Z</time></trkpt><trkpt lat="40.47747129471453" lon="15.059153258181729"><ele>61.0</ele><time>2026-03-29T13:05:47.999Z</time></trkpt><trkpt lat="40.47754101947929" lon="15.058961600640178"><ele>60.0</ele><time>2026-03-29T13:05:48.999Z</time></trkpt><trkpt lat="40.47761129770059" lon="15.058752141486298"><ele>59.0</ele><time>2026-03-29T13:05:49.999Z</time></trkpt><trkpt lat="40.47768540298737" lon="15.058557444536744"><ele>59.0</ele><time>2026-03-29T13:05:50.999Z</time></trkpt><trkpt lat="40.477745218318304" lon="15.058342999267692"><ele>59.0</ele><time>2026-03-29T13:05:51.999Z</time></trkpt><trkpt lat="40.47781816142805" lon="15.05813146560203"><ele>59.0</ele><time>2026-03-29T13:05:52.999Z</time></trkpt><trkpt lat="40.47788278350146" lon="15.057931583523585"><ele>59.0</ele><time>2026-03-29T13:05:53.999Z</time></trkpt><trkpt lat="40.47795111547592" lon="15.057732173491056"><ele>59.0</ele><time>2026-03-29T13:05:54.999Z</time></trkpt><trkpt lat="40.478024902870466" lon="15.057516270154872"><ele>59.0</ele><time>2026-03-29T13:05:55.999Z</time></trkpt><trkpt lat="40.478103314898235" lon="15.05732472643784"><ele>59.0</ele><time>2026-03-29T13:05:56.999Z</time></trkpt><trkpt lat="40.47818061427446" lon="15.057095657100378"><ele>59.0</ele><time>2026-03-29T13:05:57.999Z</time></trkpt><trkpt lat="40.47824209531621" lon="15.056876098534422"><ele>59.0</ele><time>2026-03-29T13:05:58.999Z</time></trkpt><trkpt lat="40.47831376946865" lon="15.05666437565618"><ele>59.0</ele><time>2026-03-29T13:05:59.999Z</time></trkpt><trkpt lat="40.47838116895656" lon="15.056452237617643"><ele>59.0</ele><time>2026-03-29T13:06:00.999Z</time></trkpt><trkpt lat="40.47844585216761" lon="15.056260219773307"><ele>59.0</ele><time>2026-03-29T13:06:01.999Z</time></trkpt><trkpt lat="40.4785300725117" lon="15.056061823229488"><ele>59.0</ele><time>2026-03-29T13:06:02.999Z</time></trkpt><trkpt lat="40.47859946621806" lon="15.055855608222997"><ele>59.0</ele><time>2026-03-29T13:06:03.999Z</time></trkpt><trkpt lat="40.478653914243985" lon="15.055642129647671"><ele>59.0</ele><time>2026-03-29T13:06:04.999Z</time></trkpt><trkpt lat="40.478722904498674" lon="15.055444178104139"><ele>59.66666666666667</ele><time>2026-03-29T13:06:05.999Z</time></trkpt><trkpt lat="40.47878448763481" lon="15.055251696770213"><ele>60.33333333333333</ele><time>2026-03-29T13:06:06.999Z</time></trkpt><trkpt lat="40.47884450427512" lon="15.055053068022884"><ele>61.0</ele><time>2026-03-29T13:06:07.999Z</time></trkpt><trkpt lat="40.47889817389833" lon="15.054845742244973"><ele>61.0</ele><time>2026-03-29T13:06:08.999Z</time></trkpt><trkpt lat="40.47894054315207" lon="15.054636117638184"><ele>61.0</ele><time>2026-03-29T13:06:09.999Z</time></trkpt><trkpt lat="40.47900055115727" lon="15.05441717168479"><ele>61.0</ele><time>2026-03-29T13:06:10.999Z</time></trkpt><trkpt lat="40.479018713475305" lon="15.054185863538606"><ele>60.33333333333333</ele><time>2026-03-29T13:06:11.999Z</time></trkpt><trkpt lat="40.479064622419216" lon="15.053956939673927"><ele>59.66666666666667</ele><time>2026-03-29T13:06:12.999Z</time></trkpt><trkpt lat="40.47909278728999" lon="15.053723362649823"><ele>59.0</ele><time>2026-03-29T13:06:13.999Z</time></trkpt><trkpt lat="40.479118061440154" lon="15.053486151507293"><ele>58.66666666666667</ele><time>2026-03-29T13:06:14.999Z</time></trkpt><trkpt lat="40.47914088877535" lon="15.05326224325078"><ele>58.33333333333333</ele><time>2026-03-29T13:06:15.999Z</time></trkpt><trkpt lat="40.47916245323076" lon="15.053057432488254"><ele>58.0</ele><time>2026-03-29T13:06:16.999Z</time></trkpt><trkpt lat="40.479186457664085" lon="15.0528324741058"><ele>58.0</ele><time>2026-03-29T13:06:17.999Z</time></trkpt><trkpt lat="40.47920142127392" lon="15.052589419117158"><ele>58.0</ele><time>2026-03-29T13:06:19Z</time></trkpt><trkpt lat="40.47922486424831" lon="15.052351811594225"><ele>58.0</ele><time>2026-03-29T13:06:20Z</time></trkpt><trkpt lat="40.479249020592725" lon="15.052121223951273"><ele>58.33333333333333</ele><time>2026-03-29T13:06:21Z</time></trkpt><trkpt lat="40.47926907200961" lon="15.051912243441041"><ele>58.66666666666667</ele><time>2026-03-29T13:06:22Z</time></trkpt><trkpt lat="40.47930420642722" lon="15.051684783274467"><ele>59.0</ele><time>2026-03-29T13:06:23Z</time></trkpt><trkpt lat="40.47933619308061" lon="15.051486911405554"><ele>59.333333333333336</ele><time>2026-03-29T13:06:24Z</time></trkpt><trkpt lat="40.479352754633496" lon="15.051315433547481"><ele>59.66666666666667</ele><time>2026-03-29T13:06:25Z</time></trkpt><trkpt lat="40.47936379599342" lon="15.051103812011993"><ele>60.0</ele><time>2026-03-29T13:06:26Z</time></trkpt><trkpt lat="40.479387148833936" lon="15.050899829597084"><ele>60.0</ele><time>2026-03-29T13:06:27Z</time></trkpt><trkpt lat="40.4794070019776" lon="15.05071372741755"><ele>60.0</ele><time>2026-03-29T13:06:28Z</time></trkpt><trkpt lat="40.479417541648566" lon="15.050542013726556"><ele>60.0</ele><time>2026-03-29T13:06:29Z</time></trkpt><trkpt lat="40.479445522716084" lon="15.050363658975927"><ele>60.0</ele><time>2026-03-29T13:06:30Z</time></trkpt><trkpt lat="40.47946049650768" lon="15.050215546420214"><ele>60.0</ele><time>2026-03-29T13:06:31Z</time></trkpt><trkpt lat="40.47948990548692" lon="15.050092507446664"><ele>60.0</ele><time>2026-03-29T13:06:32Z</time></trkpt><trkpt lat="40.47957385598354" lon="15.049981621416896"><ele>60.0</ele><time>2026-03-29T13:06:33Z</time></trkpt><trkpt lat="40.47966098052329" lon="15.049857435890594"><ele>60.0</ele><time>2026-03-29T13:06:34Z</time></trkpt><trkpt lat="40.47976593689069" lon="15.049739409041148"><ele>57.5</ele><time>2026-03-29T13:06:35Z</time></trkpt><trkpt lat="40.479875748455534" lon="15.04961974647808"><ele>55.0</ele><time>2026-03-29T13:06:36Z</time></trkpt><trkpt lat="40.479979049823875" lon="15.04950330913133"><ele>52.5</ele><time>2026-03-29T13:06:37Z</time></trkpt><trkpt lat="40.48008295777435" lon="15.049404971635768"><ele>50.0</ele><time>2026-03-29T13:06:38Z</time></trkpt><trkpt lat="40.48020378192206" lon="15.04932892119636"><ele>50.0</ele><time>2026-03-29T13:06:39Z</time></trkpt><trkpt lat="40.480342145419556" lon="15.049264185420489"><ele>50.0</ele><time>2026-03-29T13:06:40Z</time></trkpt><trkpt lat="40.48047760609878" lon="15.04920650283348"><ele>50.0</ele><time>2026-03-29T13:06:41Z</time></trkpt><trkpt lat="40.48060418964879" lon="15.049148896203548"><ele>50.0</ele><time>2026-03-29T13:06:42Z</time></trkpt><trkpt lat="40.480732188333896" lon="15.049085911704204"><ele>47.0</ele><time>2026-03-29T13:06:43Z</time></trkpt><trkpt lat="40.48085799923919" lon="15.049024543945144"><ele>44.0</ele><time>2026-03-29T13:06:44Z</time></trkpt><trkpt lat="40.480981187231244" lon="15.048959289577514"><ele>41.0</ele><time>2026-03-29T13:06:45Z</time></trkpt><trkpt lat="40.481093954015684" lon="15.04888837129875"><ele>38.0</ele><time>2026-03-29T13:06:46Z</time></trkpt><trkpt lat="40.481194452372115" lon="15.048794598459367"><ele>37.8</ele><time>2026-03-29T13:06:47Z</time></trkpt><trkpt lat="40.48127287866343" lon="15.048683019417679"><ele>37.599999999999994</ele><time>2026-03-29T13:06:48Z</time></trkpt><trkpt lat="40.48132629587354" lon="15.04855318477744"><ele>37.400000000000006</ele><time>2026-03-29T13:06:49Z</time></trkpt><trkpt lat="40.48134918948935" lon="15.048444570851544"><ele>37.2</ele><time>2026-03-29T13:06:50Z</time></trkpt><trkpt lat="40.48135444377377" lon="15.048352721097707"><ele>37.0</ele><time>2026-03-29T13:06:52Z</time></trkpt><trkpt lat="40.481232043187745" lon="15.048231189146701"><ele>36.0</ele><time>2026-03-29T13:06:56Z</time></trkpt><trkpt lat="40.481155338504706" lon="15.048199391289115"><ele>35.0</ele><time>2026-03-29T13:06:57Z</time></trkpt><trkpt lat="40.481077592413804" lon="15.048179741040634"><ele>34.0</ele><time>2026-03-29T13:06:58Z</time></trkpt><trkpt lat="40.480978636822854" lon="15.048153264083053"><ele>33.0</ele><time>2026-03-29T13:06:59Z</time></trkpt><trkpt lat="40.480882434248564" lon="15.048111563399058"><ele>32.0</ele><time>2026-03-29T13:07:00Z</time></trkpt><trkpt lat="40.48078332013196" lon="15.048070871789703"><ele>32.0</ele><time>2026-03-29T13:07:01Z</time></trkpt><trkpt lat="40.48065899778248" lon="15.048021318634394"><ele>32.0</ele><time>2026-03-29T13:07:02Z</time></trkpt><trkpt lat="40.48053498208257" lon="15.047968719304224"><ele>32.0</ele><time>2026-03-29T13:07:03Z</time></trkpt><trkpt lat="40.480411138316974" lon="15.047916218111242"><ele>32.0</ele><time>2026-03-29T13:07:04Z</time></trkpt><trkpt lat="40.480280733184834" lon="15.047859558949579"><ele>33.0</ele><time>2026-03-29T13:07:05Z</time></trkpt><trkpt lat="40.48015386637978" lon="15.04778302916441"><ele>34.0</ele><time>2026-03-29T13:07:06Z</time></trkpt><trkpt lat="40.48002137451976" lon="15.047689569365698"><ele>35.0</ele><time>2026-03-29T13:07:07Z</time></trkpt><trkpt lat="40.47990580694367" lon="15.04758280061175"><ele>36.0</ele><time>2026-03-29T13:07:08Z</time></trkpt><trkpt lat="40.479807366094356" lon="15.047481533824959"><ele>35.333333333333336</ele><time>2026-03-29T13:07:09Z</time></trkpt><trkpt lat="40.47968611074807" lon="15.047357042603766"><ele>34.66666666666667</ele><time>2026-03-29T13:07:10Z</time></trkpt><trkpt lat="40.479571360147034" lon="15.047196872994324"><ele>34.0</ele><time>2026-03-29T13:07:11Z</time></trkpt><trkpt lat="40.479469414063104" lon="15.047040329992553"><ele>35.0</ele><time>2026-03-29T13:07:12Z</time></trkpt><trkpt lat="40.4793770593271" lon="15.046876723573519"><ele>36.0</ele><time>2026-03-29T13:07:13Z</time></trkpt><trkpt lat="40.47929507767393" lon="15.04669261733959"><ele>37.0</ele><time>2026-03-29T13:07:14Z</time></trkpt><trkpt lat="40.47922323802242" lon="15.046501768998139"><ele>37.0</ele><time>2026-03-29T13:07:15Z</time></trkpt><trkpt lat="40.47916877250371" lon="15.04630938136595"><ele>37.0</ele><time>2026-03-29T13:07:16Z</time></trkpt><trkpt lat="40.47911737124775" lon="15.04608889099968"><ele>37.0</ele><time>2026-03-29T13:07:17Z</time></trkpt><trkpt lat="40.47907565249003" lon="15.0458726545874"><ele>36.333333333333336</ele><time>2026-03-29T13:07:18Z</time></trkpt><trkpt lat="40.479026229914375" lon="15.045661383022637"><ele>35.666666666666664</ele><time>2026-03-29T13:07:19Z</time></trkpt><trkpt lat="40.47897050227525" lon="15.045441191673284"><ele>35.0</ele><time>2026-03-29T13:07:20Z</time></trkpt><trkpt lat="40.47891657475707" lon="15.045223580210216"><ele>35.0</ele><time>2026-03-29T13:07:21Z</time></trkpt><trkpt lat="40.47886389776536" lon="15.045002516208294"><ele>35.0</ele><time>2026-03-29T13:07:22Z</time></trkpt><trkpt lat="40.47881202765211" lon="15.04478936042308"><ele>35.0</ele><time>2026-03-29T13:07:23Z</time></trkpt><trkpt lat="40.47875937589053" lon="15.044560136782838"><ele>36.666666666666664</ele><time>2026-03-29T13:07:24Z</time></trkpt><trkpt lat="40.47870694418876" lon="15.044338025878924"><ele>38.333333333333336</ele><time>2026-03-29T13:07:25Z</time></trkpt><trkpt lat="40.47864928628065" lon="15.044110265251817"><ele>40.0</ele><time>2026-03-29T13:07:26Z</time></trkpt><trkpt lat="40.478590215836675" lon="15.043878848083677"><ele>40.0</ele><time>2026-03-29T13:07:27Z</time></trkpt><trkpt lat="40.47853686300002" lon="15.043649555295316"><ele>40.0</ele><time>2026-03-29T13:07:28Z</time></trkpt><trkpt lat="40.478480035694865" lon="15.043412417781813"><ele>40.0</ele><time>2026-03-29T13:07:29Z</time></trkpt><trkpt lat="40.47842054330712" lon="15.043179113938642"><ele>38.66666666666667</ele><time>2026-03-29T13:07:30Z</time></trkpt><trkpt lat="40.4783583474614" lon="15.042936794885645"><ele>37.333333333333336</ele><time>2026-03-29T13:07:31Z</time></trkpt><trkpt lat="40.47829797052525" lon="15.042695030237352"><ele>36.0</ele><time>2026-03-29T13:07:32Z</time></trkpt><trkpt lat="40.478240922444094" lon="15.042454596143473"><ele>35.0</ele><time>2026-03-29T13:07:33Z</time></trkpt><trkpt lat="40.47818724445396" lon="15.042216428926238"><ele>34.0</ele><time>2026-03-29T13:07:34Z</time></trkpt><trkpt lat="40.47813061488441" lon="15.041976260538824"><ele>33.0</ele><time>2026-03-29T13:07:35Z</time></trkpt><trkpt lat="40.47807025285454" lon="15.041732190063524"><ele>32.666666666666664</ele><time>2026-03-29T13:07:36Z</time></trkpt><trkpt lat="40.47801560788403" lon="15.041497318121007"><ele>32.33333333333333</ele><time>2026-03-29T13:07:37Z</time></trkpt><trkpt lat="40.47796188733891" lon="15.041269959751311"><ele>32.0</ele><time>2026-03-29T13:07:38Z</time></trkpt><trkpt lat="40.47790611587972" lon="15.041035421985695"><ele>34.666666666666664</ele><time>2026-03-29T13:07:38.999Z</time></trkpt><trkpt lat="40.47784779261997" lon="15.040801780882886"><ele>37.333333333333336</ele><time>2026-03-29T13:07:39.999Z</time></trkpt><trkpt lat="40.47778858041752" lon="15.04056195122918"><ele>40.0</ele><time>2026-03-29T13:07:40.999Z</time></trkpt><trkpt lat="40.47774592948733" lon="15.040325959468959"><ele>40.0</ele><time>2026-03-29T13:07:41.999Z</time></trkpt><trkpt lat="40.4776775460209" lon="15.04010028958355"><ele>40.0</ele><time>2026-03-29T13:07:42.999Z</time></trkpt><trkpt lat="40.47762322158007" lon="15.039868432105477"><ele>40.0</ele><time>2026-03-29T13:07:43.999Z</time></trkpt><trkpt lat="40.47756135118805" lon="15.0396375466582"><ele>38.66666666666667</ele><time>2026-03-29T13:07:44.999Z</time></trkpt><trkpt lat="40.47751323424365" lon="15.039406753421714"><ele>37.333333333333336</ele><time>2026-03-29T13:07:45.999Z</time></trkpt><trkpt lat="40.47744577943837" lon="15.039180235136246"><ele>36.0</ele><time>2026-03-29T13:07:46.999Z</time></trkpt><trkpt lat="40.47736160943553" lon="15.038947654329993"><ele>35.333333333333336</ele><time>2026-03-29T13:07:47.999Z</time></trkpt><trkpt lat="40.47727838689863" lon="15.038718059439354"><ele>34.66666666666667</ele><time>2026-03-29T13:07:48.999Z</time></trkpt><trkpt lat="40.47718244111272" lon="15.038504361773493"><ele>34.0</ele><time>2026-03-29T13:07:49.999Z</time></trkpt><trkpt lat="40.47710965813093" lon="15.038289488074136"><ele>36.66666666666667</ele><time>2026-03-29T13:07:50.999Z</time></trkpt><trkpt lat="40.47703499847664" lon="15.038068074013385"><ele>39.333333333333336</ele><time>2026-03-29T13:07:51.999Z</time></trkpt><trkpt lat="40.476976477913325" lon="15.037848480051192"><ele>42.0</ele><time>2026-03-29T13:07:52.999Z</time></trkpt><trkpt lat="40.47689077083912" lon="15.037661997818958"><ele>42.0</ele><time>2026-03-29T13:07:53.999Z</time></trkpt><trkpt lat="40.476818958071064" lon="15.037486226572701"><ele>42.0</ele><time>2026-03-29T13:07:54.999Z</time></trkpt><trkpt lat="40.476739715257956" lon="15.037334839151987"><ele>42.0</ele><time>2026-03-29T13:07:55.999Z</time></trkpt><trkpt lat="40.476652150072404" lon="15.037196266022496"><ele>42.0</ele><time>2026-03-29T13:07:56.999Z</time></trkpt><trkpt lat="40.47655674769402" lon="15.037073271040455"><ele>40.4</ele><time>2026-03-29T13:07:57.999Z</time></trkpt><trkpt lat="40.47646328988857" lon="15.036970799559146"><ele>38.800000000000004</ele><time>2026-03-29T13:07:58.999Z</time></trkpt><trkpt lat="40.47637316724036" lon="15.036882011561607"><ele>37.2</ele><time>2026-03-29T13:07:59.999Z</time></trkpt><trkpt lat="40.47630502800239" lon="15.03680841625616"><ele>35.6</ele><time>2026-03-29T13:08:00.999Z</time></trkpt><trkpt lat="40.47627467275421" lon="15.036735424402195"><ele>34.0</ele><time>2026-03-29T13:08:01.999Z</time></trkpt><trkpt lat="40.476337209376474" lon="15.036557642730259"><ele>33.4</ele><time>2026-03-29T13:08:03.999Z</time></trkpt><trkpt lat="40.476357487859666" lon="15.036458565689475"><ele>32.8</ele><time>2026-03-29T13:08:04.999Z</time></trkpt><trkpt lat="40.47638084309615" lon="15.036334599614543"><ele>32.2</ele><time>2026-03-29T13:08:05.999Z</time></trkpt><trkpt lat="40.476387757449196" lon="15.036195481634547"><ele>31.6</ele><time>2026-03-29T13:08:07Z</time></trkpt><trkpt lat="40.47637816694287" lon="15.036037178375087"><ele>31.0</ele><time>2026-03-29T13:08:08Z</time></trkpt><trkpt lat="40.47634939675411" lon="15.03586071189444"><ele>31.0</ele><time>2026-03-29T13:08:09Z</time></trkpt><trkpt lat="40.476297262267884" lon="15.035672982772954"><ele>31.0</ele><time>2026-03-29T13:08:10Z</time></trkpt><trkpt lat="40.47624333631788" lon="15.035494597137866"><ele>31.0</ele><time>2026-03-29T13:08:11Z</time></trkpt><trkpt lat="40.4761869893137" lon="15.03530969839135"><ele>31.0</ele><time>2026-03-29T13:08:12Z</time></trkpt><trkpt lat="40.47613140047258" lon="15.035106773215873"><ele>31.0</ele><time>2026-03-29T13:08:13Z</time></trkpt><trkpt lat="40.476076236102344" lon="15.034902987490645"><ele>31.0</ele><time>2026-03-29T13:08:14Z</time></trkpt><trkpt lat="40.47601783016273" lon="15.034698876584697"><ele>30.666666666666668</ele><time>2026-03-29T13:08:15Z</time></trkpt><trkpt lat="40.475961055547174" lon="15.034497336308378"><ele>30.333333333333336</ele><time>2026-03-29T13:08:16Z</time></trkpt><trkpt lat="40.47590516772768" lon="15.034307855786539"><ele>30.0</ele><time>2026-03-29T13:08:17Z</time></trkpt><trkpt lat="40.47585820737764" lon="15.034091920240828"><ele>29.0</ele><time>2026-03-29T13:08:18Z</time></trkpt><trkpt lat="40.47578960177748" lon="15.03389753394041"><ele>28.0</ele><time>2026-03-29T13:08:19Z</time></trkpt><trkpt lat="40.475744437864144" lon="15.033660801322217"><ele>27.0</ele><time>2026-03-29T13:08:20Z</time></trkpt><trkpt lat="40.475680200364" lon="15.033454417391704"><ele>26.333333333333336</ele><time>2026-03-29T13:08:21Z</time></trkpt><trkpt lat="40.47561331139835" lon="15.033225157984093"><ele>25.666666666666668</ele><time>2026-03-29T13:08:22Z</time></trkpt><trkpt lat="40.475545436833194" lon="15.032993288505017"><ele>25.0</ele><time>2026-03-29T13:08:23Z</time></trkpt><trkpt lat="40.47548884886072" lon="15.032766628553183"><ele>25.666666666666668</ele><time>2026-03-29T13:08:24Z</time></trkpt><trkpt lat="40.47543228823421" lon="15.032541412116665"><ele>26.333333333333336</ele><time>2026-03-29T13:08:25Z</time></trkpt><trkpt lat="40.47536834797736" lon="15.03231297219009"><ele>27.0</ele><time>2026-03-29T13:08:26Z</time></trkpt><trkpt lat="40.47530500070169" lon="15.032080187179599"><ele>27.333333333333336</ele><time>2026-03-29T13:08:27Z</time></trkpt><trkpt lat="40.47524522156984" lon="15.031854025662433"><ele>27.666666666666668</ele><time>2026-03-29T13:08:28Z</time></trkpt><trkpt lat="40.475177601223656" lon="15.031607110881463"><ele>28.0</ele><time>2026-03-29T13:08:29Z</time></trkpt><trkpt lat="40.47511704353773" lon="15.031376809265959"><ele>28.0</ele><time>2026-03-29T13:08:30Z</time></trkpt><trkpt lat="40.47504738345815" lon="15.031136164512278"><ele>28.0</ele><time>2026-03-29T13:08:31Z</time></trkpt><trkpt lat="40.474981857100275" lon="15.030896611241817"><ele>28.0</ele><time>2026-03-29T13:08:32Z</time></trkpt><trkpt lat="40.474914948234854" lon="15.030656308505387"><ele>28.0</ele><time>2026-03-29T13:08:33Z</time></trkpt><trkpt lat="40.47485452441418" lon="15.030417744270496"><ele>28.0</ele><time>2026-03-29T13:08:34Z</time></trkpt><trkpt lat="40.47478922842071" lon="15.03017295068382"><ele>28.0</ele><time>2026-03-29T13:08:35Z</time></trkpt><trkpt lat="40.474723868485434" lon="15.029932019033332"><ele>28.0</ele><time>2026-03-29T13:08:36Z</time></trkpt><trkpt lat="40.474654585302495" lon="15.029693498869328"><ele>28.0</ele><time>2026-03-29T13:08:37Z</time></trkpt><trkpt lat="40.47458308545736" lon="15.029457279920926"><ele>28.0</ele><time>2026-03-29T13:08:38Z</time></trkpt><trkpt lat="40.47451214208247" lon="15.02922099584726"><ele>27.333333333333336</ele><time>2026-03-29T13:08:39Z</time></trkpt><trkpt lat="40.474451312474585" lon="15.028979945553074"><ele>26.666666666666664</ele><time>2026-03-29T13:08:40Z</time></trkpt><trkpt lat="40.47439068950764" lon="15.028739553841788"><ele>26.0</ele><time>2026-03-29T13:08:41Z</time></trkpt><trkpt lat="40.47432506922316" lon="15.028502030318217"><ele>26.0</ele><time>2026-03-29T13:08:42Z</time></trkpt><trkpt lat="40.4742565371476" lon="15.028265221979478"><ele>26.0</ele><time>2026-03-29T13:08:43Z</time></trkpt><trkpt lat="40.474191940500894" lon="15.028037286789692"><ele>26.0</ele><time>2026-03-29T13:08:44Z</time></trkpt><trkpt lat="40.47412492035258" lon="15.027798297050804"><ele>26.0</ele><time>2026-03-29T13:08:45Z</time></trkpt><trkpt lat="40.47406087878123" lon="15.027560554385596"><ele>26.0</ele><time>2026-03-29T13:08:46Z</time></trkpt><trkpt lat="40.473990648862674" lon="15.027319150893316"><ele>26.0</ele><time>2026-03-29T13:08:47Z</time></trkpt><trkpt lat="40.47392963338927" lon="15.027079102871665"><ele>26.0</ele><time>2026-03-29T13:08:48Z</time></trkpt><trkpt lat="40.47386846794642" lon="15.026839497748517"><ele>26.0</ele><time>2026-03-29T13:08:49Z</time></trkpt><trkpt lat="40.47379972581563" lon="15.026589983204003"><ele>26.0</ele><time>2026-03-29T13:08:50Z</time></trkpt><trkpt lat="40.47373837921776" lon="15.026346039164173"><ele>26.0</ele><time>2026-03-29T13:08:51Z</time></trkpt><trkpt lat="40.47367682333546" lon="15.026101667775416"><ele>26.0</ele><time>2026-03-29T13:08:52Z</time></trkpt><trkpt lat="40.47360987115413" lon="15.025852438020467"><ele>26.0</ele><time>2026-03-29T13:08:53Z</time></trkpt><trkpt lat="40.473543369017484" lon="15.025605445547587"><ele>25.666666666666664</ele><time>2026-03-29T13:08:54Z</time></trkpt><trkpt lat="40.47347809177896" lon="15.025359750499046"><ele>25.333333333333336</ele><time>2026-03-29T13:08:55Z</time></trkpt><trkpt lat="40.47341309934972" lon="15.025117293379852"><ele>25.0</ele><time>2026-03-29T13:08:56Z</time></trkpt><trkpt lat="40.473345318816364" lon="15.024872530093004"><ele>25.0</ele><time>2026-03-29T13:08:57Z</time></trkpt><trkpt lat="40.473278978264176" lon="15.024625985866596"><ele>25.0</ele><time>2026-03-29T13:08:58Z</time></trkpt><trkpt lat="40.47321158958637" lon="15.024383371965772"><ele>25.0</ele><time>2026-03-29T13:08:59Z</time></trkpt><trkpt lat="40.47313980763034" lon="15.024138407460564"><ele>25.333333333333336</ele><time>2026-03-29T13:09:00Z</time></trkpt><trkpt lat="40.47306992782853" lon="15.023894503137349"><ele>25.666666666666664</ele><time>2026-03-29T13:09:01Z</time></trkpt><trkpt lat="40.47298505978077" lon="15.023657951259644"><ele>26.0</ele><time>2026-03-29T13:09:02Z</time></trkpt><trkpt lat="40.472890255630375" lon="15.023426280711648"><ele>26.0</ele><time>2026-03-29T13:09:03Z</time></trkpt><trkpt lat="40.47279630612938" lon="15.023191381012767"><ele>26.0</ele><time>2026-03-29T13:09:04Z</time></trkpt><trkpt lat="40.47270457651628" lon="15.022950292320699"><ele>26.0</ele><time>2026-03-29T13:09:05Z</time></trkpt><trkpt lat="40.47261378734734" lon="15.022712439927911"><ele>25.666666666666664</ele><time>2026-03-29T13:09:06Z</time></trkpt><trkpt lat="40.47252201804461" lon="15.02247541619139"><ele>25.333333333333336</ele><time>2026-03-29T13:09:07Z</time></trkpt><trkpt lat="40.4724222420151" lon="15.0222370743336"><ele>25.0</ele><time>2026-03-29T13:09:08Z</time></trkpt><trkpt lat="40.47232420592061" lon="15.02199906921367"><ele>25.0</ele><time>2026-03-29T13:09:09Z</time></trkpt><trkpt lat="40.47223199235488" lon="15.021772971462118"><ele>25.0</ele><time>2026-03-29T13:09:10Z</time></trkpt><trkpt lat="40.472144073336835" lon="15.021540865936913"><ele>25.0</ele><time>2026-03-29T13:09:11Z</time></trkpt><trkpt lat="40.472055521121206" lon="15.021306166014849"><ele>25.0</ele><time>2026-03-29T13:09:12Z</time></trkpt><trkpt lat="40.471967359975835" lon="15.021071072127759"><ele>25.0</ele><time>2026-03-29T13:09:13Z</time></trkpt><trkpt lat="40.471875617644756" lon="15.020835260525258"><ele>25.0</ele><time>2026-03-29T13:09:14Z</time></trkpt><trkpt lat="40.471781760497635" lon="15.020596554300095"><ele>25.0</ele><time>2026-03-29T13:09:15Z</time></trkpt><trkpt lat="40.47168685479841" lon="15.020352360734144"><ele>25.0</ele><time>2026-03-29T13:09:16Z</time></trkpt><trkpt lat="40.47159142623348" lon="15.020107955605338"><ele>25.0</ele><time>2026-03-29T13:09:17Z</time></trkpt><trkpt lat="40.471496363409265" lon="15.019868534488442"><ele>25.0</ele><time>2026-03-29T13:09:18Z</time></trkpt><trkpt lat="40.47142350300474" lon="15.019658171231635"><ele>25.0</ele><time>2026-03-29T13:09:19Z</time></trkpt><trkpt lat="40.471328312589236" lon="15.019444415855451"><ele>25.0</ele><time>2026-03-29T13:09:20Z</time></trkpt><trkpt lat="40.471251661575" lon="15.019245510834198"><ele>25.0</ele><time>2026-03-29T13:09:21Z</time></trkpt><trkpt lat="40.47117916080556" lon="15.019063902058157"><ele>25.0</ele><time>2026-03-29T13:09:22Z</time></trkpt><trkpt lat="40.47110151095806" lon="15.01890108337699"><ele>25.0</ele><time>2026-03-29T13:09:23Z</time></trkpt><trkpt lat="40.471020006648395" lon="15.018672811136696"><ele>25.0</ele><time>2026-03-29T13:09:24Z</time></trkpt><trkpt lat="40.47092952935337" lon="15.018439428874554"><ele>25.0</ele><time>2026-03-29T13:09:25Z</time></trkpt><trkpt lat="40.47084508683706" lon="15.018222730987906"><ele>25.0</ele><time>2026-03-29T13:09:26Z</time></trkpt><trkpt lat="40.47076031241891" lon="15.01800683400993"><ele>25.0</ele><time>2026-03-29T13:09:27Z</time></trkpt><trkpt lat="40.470681599479825" lon="15.017804145719417"><ele>25.0</ele><time>2026-03-29T13:09:28Z</time></trkpt><trkpt lat="40.47060648373541" lon="15.017610639908792"><ele>25.0</ele><time>2026-03-29T13:09:29Z</time></trkpt><trkpt lat="40.470536089097145" lon="15.017432676657032"><ele>25.0</ele><time>2026-03-29T13:09:30Z</time></trkpt><trkpt lat="40.47045887349588" lon="15.017239120809842"><ele>25.0</ele><time>2026-03-29T13:09:31Z</time></trkpt><trkpt lat="40.47038531901906" lon="15.017035519367685"><ele>25.0</ele><time>2026-03-29T13:09:32Z</time></trkpt><trkpt lat="40.470316476864454" lon="15.016837889667924"><ele>25.0</ele><time>2026-03-29T13:09:33Z</time></trkpt><trkpt lat="40.47026272432811" lon="15.01665195540607"><ele>25.0</ele><time>2026-03-29T13:09:34Z</time></trkpt><trkpt lat="40.470233600031214" lon="15.01647363655222"><ele>25.0</ele><time>2026-03-29T13:09:35Z</time></trkpt><trkpt lat="40.47024685347467" lon="15.01628320001784"><ele>25.0</ele><time>2026-03-29T13:09:36Z</time></trkpt><trkpt lat="40.470264999091725" lon="15.016078348977393"><ele>25.0</ele><time>2026-03-29T13:09:37Z</time></trkpt><trkpt lat="40.47028273467355" lon="15.015869651515379"><ele>25.0</ele><time>2026-03-29T13:09:38Z</time></trkpt><trkpt lat="40.47028948273535" lon="15.015629417336891"><ele>25.0</ele><time>2026-03-29T13:09:39Z</time></trkpt><trkpt lat="40.47030294297119" lon="15.015402887839219"><ele>24.666666666666668</ele><time>2026-03-29T13:09:40Z</time></trkpt><trkpt lat="40.47031792879518" lon="15.015159741373115"><ele>24.333333333333336</ele><time>2026-03-29T13:09:41Z</time></trkpt><trkpt lat="40.47032738945738" lon="15.014931874369276"><ele>24.0</ele><time>2026-03-29T13:09:42Z</time></trkpt><trkpt lat="40.47033165665731" lon="15.014709979953533"><ele>24.5</ele><time>2026-03-29T13:09:43Z</time></trkpt><trkpt lat="40.47031261216025" lon="15.014526892506986"><ele>25.0</ele><time>2026-03-29T13:09:44Z</time></trkpt><trkpt lat="40.47029013752862" lon="15.014363143525085"><ele>25.5</ele><time>2026-03-29T13:09:45Z</time></trkpt><trkpt lat="40.47027158641936" lon="15.014232127026403"><ele>26.0</ele><time>2026-03-29T13:09:46Z</time></trkpt><trkpt lat="40.470270782987164" lon="15.014124032156682"><ele>25.999999999999996</ele><time>2026-03-29T13:09:47Z</time></trkpt><trkpt lat="40.47027406330531" lon="15.013999185550498"><ele>26.0</ele><time>2026-03-29T13:09:48Z</time></trkpt><trkpt lat="40.47029696256369" lon="15.013891906755385"><ele>26.0</ele><time>2026-03-29T13:09:49Z</time></trkpt><trkpt lat="40.47030564254863" lon="15.013775054351632"><ele>26.0</ele><time>2026-03-29T13:09:50Z</time></trkpt><trkpt lat="40.470293613030194" lon="15.013669868088467"><ele>25.999999999999996</ele><time>2026-03-29T13:09:51Z</time></trkpt><trkpt lat="40.47023078118203" lon="15.013596879647427"><ele>26.0</ele><time>2026-03-29T13:09:52Z</time></trkpt><trkpt lat="40.47015345509003" lon="15.013537177314246"><ele>26.0</ele><time>2026-03-29T13:09:53Z</time></trkpt><trkpt lat="40.470061475217726" lon="15.013512738002975"><ele>26.0</ele><time>2026-03-29T13:09:54Z</time></trkpt><trkpt lat="40.46995610914521" lon="15.013515838060702"><ele>26.0</ele><time>2026-03-29T13:09:55Z</time></trkpt><trkpt lat="40.469837133388815" lon="15.013540208432554"><ele>26.0</ele><time>2026-03-29T13:09:56Z</time></trkpt><trkpt lat="40.46971496273121" lon="15.013572435041876"><ele>26.0</ele><time>2026-03-29T13:09:57Z</time></trkpt><trkpt lat="40.46958918866023" lon="15.013524089096965"><ele>25.5</ele><time>2026-03-29T13:09:58Z</time></trkpt><trkpt lat="40.469451447261115" lon="15.013510700912317"><ele>25.0</ele><time>2026-03-29T13:09:59Z</time></trkpt><trkpt lat="40.4693018708945" lon="15.013492834465847"><ele>24.5</ele><time>2026-03-29T13:10:00Z</time></trkpt><trkpt lat="40.469148716656115" lon="15.013471140021549"><ele>24.0</ele><time>2026-03-29T13:10:01Z</time></trkpt><trkpt lat="40.46899749693072" lon="15.013459190148309"><ele>24.0</ele><time>2026-03-29T13:10:02Z</time></trkpt><trkpt lat="40.468839779817834" lon="15.013443617924578"><ele>24.0</ele><time>2026-03-29T13:10:03Z</time></trkpt><trkpt lat="40.46866292841657" lon="15.013426014570117"><ele>24.0</ele><time>2026-03-29T13:10:04Z</time></trkpt><trkpt lat="40.46849894588618" lon="15.013401025884583"><ele>24.0</ele><time>2026-03-29T13:10:05Z</time></trkpt><trkpt lat="40.46835663715618" lon="15.01337209276866"><ele>24.0</ele><time>2026-03-29T13:10:06Z</time></trkpt><trkpt lat="40.46817921971033" lon="15.013350144699704"><ele>24.0</ele><time>2026-03-29T13:10:07Z</time></trkpt><trkpt lat="40.468004201207975" lon="15.013350644064904"><ele>23.666666666666668</ele><time>2026-03-29T13:10:08Z</time></trkpt><trkpt lat="40.46784476940101" lon="15.013328836256067"><ele>23.333333333333336</ele><time>2026-03-29T13:10:09Z</time></trkpt><trkpt lat="40.46769614407339" lon="15.013315027513983"><ele>23.0</ele><time>2026-03-29T13:10:10Z</time></trkpt><trkpt lat="40.46755207186746" lon="15.013298155480934"><ele>23.0</ele><time>2026-03-29T13:10:11Z</time></trkpt><trkpt lat="40.4674040841923" lon="15.013282298656959"><ele>23.0</ele><time>2026-03-29T13:10:12Z</time></trkpt><trkpt lat="40.4672471495936" lon="15.01330813334446"><ele>23.0</ele><time>2026-03-29T13:10:13Z</time></trkpt><trkpt lat="40.46708368178548" lon="15.013361045479574"><ele>23.666666666666668</ele><time>2026-03-29T13:10:14Z</time></trkpt><trkpt lat="40.46692499565426" lon="15.01345156863326"><ele>24.333333333333336</ele><time>2026-03-29T13:10:15Z</time></trkpt><trkpt lat="40.46677256773815" lon="15.01357635135568"><ele>25.0</ele><time>2026-03-29T13:10:16Z</time></trkpt><trkpt lat="40.46662575308236" lon="15.013704780911532"><ele>25.0</ele><time>2026-03-29T13:10:17Z</time></trkpt><trkpt lat="40.46648411018514" lon="15.013831209495734"><ele>25.0</ele><time>2026-03-29T13:10:18Z</time></trkpt><trkpt lat="40.466358234057346" lon="15.013937619560789"><ele>25.0</ele><time>2026-03-29T13:10:19Z</time></trkpt><trkpt lat="40.46624509786707" lon="15.014003348218498"><ele>25.0</ele><time>2026-03-29T13:10:20Z</time></trkpt><trkpt lat="40.46610318588662" lon="15.014059075620159"><ele>25.0</ele><time>2026-03-29T13:10:21Z</time></trkpt><trkpt lat="40.465971993025796" lon="15.014093684845445"><ele>25.0</ele><time>2026-03-29T13:10:22Z</time></trkpt><trkpt lat="40.465839534702944" lon="15.014072860625177"><ele>25.0</ele><time>2026-03-29T13:10:23Z</time></trkpt><trkpt lat="40.46569759979668" lon="15.013993092088429"><ele>25.0</ele><time>2026-03-29T13:10:24Z</time></trkpt><trkpt lat="40.465572616693954" lon="15.013921557390233"><ele>25.0</ele><time>2026-03-29T13:10:25Z</time></trkpt><trkpt lat="40.46546510170056" lon="15.013798058373645"><ele>25.0</ele><time>2026-03-29T13:10:26Z</time></trkpt><trkpt lat="40.46537723338799" lon="15.013644300920845"><ele>25.0</ele><time>2026-03-29T13:10:27Z</time></trkpt><trkpt lat="40.465307177693376" lon="15.013464979064558"><ele>25.0</ele><time>2026-03-29T13:10:28Z</time></trkpt><trkpt lat="40.4652526199789" lon="15.01327125936634"><ele>25.0</ele><time>2026-03-29T13:10:29Z</time></trkpt><trkpt lat="40.46518775083014" lon="15.013072617288014"><ele>25.0</ele><time>2026-03-29T13:10:30Z</time></trkpt><trkpt lat="40.46514260882606" lon="15.01285919023662"><ele>25.0</ele><time>2026-03-29T13:10:31Z</time></trkpt><trkpt lat="40.46508543900444" lon="15.012656191946387"><ele>24.333333333333336</ele><time>2026-03-29T13:10:32Z</time></trkpt><trkpt lat="40.465021549284444" lon="15.012466948413774"><ele>23.666666666666668</ele><time>2026-03-29T13:10:33Z</time></trkpt><trkpt lat="40.46494525157717" lon="15.012279914398977"><ele>23.0</ele><time>2026-03-29T13:10:34Z</time></trkpt><trkpt lat="40.46484143559832" lon="15.012134511483813"><ele>23.0</ele><time>2026-03-29T13:10:35Z</time></trkpt><trkpt lat="40.46472820755254" lon="15.012015007727385"><ele>23.0</ele><time>2026-03-29T13:10:36Z</time></trkpt><trkpt lat="40.46458472254272" lon="15.011908957932498"><ele>23.0</ele><time>2026-03-29T13:10:37Z</time></trkpt><trkpt lat="40.46442676945862" lon="15.011832021621455"><ele>23.0</ele><time>2026-03-29T13:10:38Z</time></trkpt><trkpt lat="40.46426886990269" lon="15.011790705090329"><ele>23.0</ele><time>2026-03-29T13:10:39Z</time></trkpt><trkpt lat="40.46411685246364" lon="15.011789557416144"><ele>23.0</ele><time>2026-03-29T13:10:40Z</time></trkpt><trkpt lat="40.46396283084044" lon="15.011829248978446"><ele>23.0</ele><time>2026-03-29T13:10:41Z</time></trkpt><trkpt lat="40.463807430519864" lon="15.011909419464807"><ele>23.0</ele><time>2026-03-29T13:10:42Z</time></trkpt><trkpt lat="40.46365205855758" lon="15.01201525422112"><ele>23.0</ele><time>2026-03-29T13:10:43Z</time></trkpt><trkpt lat="40.46350507072391" lon="15.012142334161934"><ele>22.666666666666668</ele><time>2026-03-29T13:10:44Z</time></trkpt><trkpt lat="40.463352601091415" lon="15.012274973648827"><ele>22.333333333333332</ele><time>2026-03-29T13:10:45Z</time></trkpt><trkpt lat="40.46321542046914" lon="15.012387959058165"><ele>22.0</ele><time>2026-03-29T13:10:46Z</time></trkpt><trkpt lat="40.46307611519227" lon="15.012492256895438"><ele>22.0</ele><time>2026-03-29T13:10:47Z</time></trkpt><trkpt lat="40.462946281784276" lon="15.01258211436214"><ele>22.0</ele><time>2026-03-29T13:10:48Z</time></trkpt><trkpt lat="40.46280894589855" lon="15.012654179961126"><ele>22.0</ele><time>2026-03-29T13:10:49Z</time></trkpt><trkpt lat="40.462670910862386" lon="15.012696905237528"><ele>22.0</ele><time>2026-03-29T13:10:50Z</time></trkpt><trkpt lat="40.46252233891232" lon="15.012683942911421"><ele>22.0</ele><time>2026-03-29T13:10:51Z</time></trkpt><trkpt lat="40.4623729677105" lon="15.01266956702233"><ele>22.0</ele><time>2026-03-29T13:10:52Z</time></trkpt><trkpt lat="40.46222127497866" lon="15.012671588218437"><ele>22.0</ele><time>2026-03-29T13:10:53Z</time></trkpt><trkpt lat="40.462066812902094" lon="15.012653821901088"><ele>22.333333333333332</ele><time>2026-03-29T13:10:54Z</time></trkpt><trkpt lat="40.46189558895933" lon="15.012615369944212"><ele>22.666666666666668</ele><time>2026-03-29T13:10:55Z</time></trkpt><trkpt lat="40.461725863368265" lon="15.012594870705612"><ele>23.0</ele><time>2026-03-29T13:10:56Z</time></trkpt><trkpt lat="40.461547049956295" lon="15.012590994059934"><ele>23.0</ele><time>2026-03-29T13:10:57Z</time></trkpt><trkpt lat="40.46136229549614" lon="15.012568781087326"><ele>23.0</ele><time>2026-03-29T13:10:58Z</time></trkpt><trkpt lat="40.461198728040394" lon="15.012538560464387"><ele>23.0</ele><time>2026-03-29T13:10:59Z</time></trkpt><trkpt lat="40.46100097566348" lon="15.012520687706852"><ele>22.666666666666668</ele><time>2026-03-29T13:11:00Z</time></trkpt><trkpt lat="40.460808830107936" lon="15.012501309589924"><ele>22.333333333333332</ele><time>2026-03-29T13:11:01Z</time></trkpt><trkpt lat="40.460618464701874" lon="15.012480427452964"><ele>22.0</ele><time>2026-03-29T13:11:02Z</time></trkpt><trkpt lat="40.4604264227692" lon="15.01245828572916"><ele>21.333333333333332</ele><time>2026-03-29T13:11:03Z</time></trkpt><trkpt lat="40.46022772215244" lon="15.012431792049734"><ele>20.666666666666668</ele><time>2026-03-29T13:11:04Z</time></trkpt><trkpt lat="40.460035456756756" lon="15.012411116931244"><ele>20.0</ele><time>2026-03-29T13:11:05Z</time></trkpt><trkpt lat="40.45984444456425" lon="15.012369238147855"><ele>20.0</ele><time>2026-03-29T13:11:06Z</time></trkpt><trkpt lat="40.459640996132066" lon="15.012365498790484"><ele>20.0</ele><time>2026-03-29T13:11:07Z</time></trkpt><trkpt lat="40.45943958385963" lon="15.012342460917292"><ele>20.0</ele><time>2026-03-29T13:11:08Z</time></trkpt><trkpt lat="40.4592499211303" lon="15.012320687186095"><ele>20.333333333333336</ele><time>2026-03-29T13:11:09Z</time></trkpt><trkpt lat="40.45906823130065" lon="15.012279005981023"><ele>20.666666666666668</ele><time>2026-03-29T13:11:10Z</time></trkpt><trkpt lat="40.45888596251148" lon="15.01225550889802"><ele>21.0</ele><time>2026-03-29T13:11:11Z</time></trkpt><trkpt lat="40.45870216271998" lon="15.012231814435742"><ele>21.666666666666668</ele><time>2026-03-29T13:11:12Z</time></trkpt><trkpt lat="40.45851079005205" lon="15.012210451897257"><ele>22.333333333333336</ele><time>2026-03-29T13:11:13Z</time></trkpt><trkpt lat="40.45832061747621" lon="15.012210970713618"><ele>23.0</ele><time>2026-03-29T13:11:14Z</time></trkpt><trkpt lat="40.458132243947766" lon="15.012194552819238"><ele>23.0</ele><time>2026-03-29T13:11:15Z</time></trkpt><trkpt lat="40.45795465734865" lon="15.01217121249654"><ele>23.0</ele><time>2026-03-29T13:11:16Z</time></trkpt><trkpt lat="40.45775856854151" lon="15.012149971899285"><ele>23.0</ele><time>2026-03-29T13:11:17Z</time></trkpt><trkpt lat="40.45758102797578" lon="15.012111685234121"><ele>24.0</ele><time>2026-03-29T13:11:18Z</time></trkpt><trkpt lat="40.45741695611892" lon="15.012108710345531"><ele>25.0</ele><time>2026-03-29T13:11:19Z</time></trkpt><trkpt lat="40.457255030422765" lon="15.012084539530541"><ele>26.0</ele><time>2026-03-29T13:11:20Z</time></trkpt><trkpt lat="40.457108711497774" lon="15.012062694319107"><ele>26.25</ele><time>2026-03-29T13:11:21Z</time></trkpt><trkpt lat="40.45697234897162" lon="15.012038780509977"><ele>26.5</ele><time>2026-03-29T13:11:22Z</time></trkpt><trkpt lat="40.456833309377146" lon="15.012021954188162"><ele>26.75</ele><time>2026-03-29T13:11:23Z</time></trkpt><trkpt lat="40.45671306973114" lon="15.012007144044743"><ele>27.0</ele><time>2026-03-29T13:11:24Z</time></trkpt><trkpt lat="40.456611020301786" lon="15.012015917950725"><ele>27.0</ele><time>2026-03-29T13:11:25Z</time></trkpt><trkpt lat="40.45649123273063" lon="15.012001162102177"><ele>27.000000000000004</ele><time>2026-03-29T13:11:26Z</time></trkpt><trkpt lat="40.456391626223905" lon="15.01196752713692"><ele>27.000000000000004</ele><time>2026-03-29T13:11:27Z</time></trkpt><trkpt lat="40.45631360935792" lon="15.011958836386581"><ele>27.0</ele><time>2026-03-29T13:11:28Z</time></trkpt><trkpt lat="40.45622122894927" lon="15.011969827741622"><ele>27.0</ele><time>2026-03-29T13:11:30Z</time></trkpt><trkpt lat="40.45615437230021" lon="15.011926467830781"><ele>27.166666666666668</ele><time>2026-03-29T13:11:32Z</time></trkpt><trkpt lat="40.4560736499084" lon="15.01187536737017"><ele>27.333333333333336</ele><time>2026-03-29T13:11:34Z</time></trkpt><trkpt lat="40.45601063009428" lon="15.011886767533756"><ele>27.5</ele><time>2026-03-29T13:11:35Z</time></trkpt><trkpt lat="40.45592110562126" lon="15.011925142269046"><ele>27.666666666666668</ele><time>2026-03-29T13:11:36Z</time></trkpt><trkpt lat="40.45584940482282" lon="15.011906814596404"><ele>27.833333333333336</ele><time>2026-03-29T13:11:37Z</time></trkpt><trkpt lat="40.45575377706228" lon="15.011894680113883"><ele>28.0</ele><time>2026-03-29T13:11:38Z</time></trkpt><trkpt lat="40.45564890674589" lon="15.011881372712232"><ele>28.0</ele><time>2026-03-29T13:11:39Z</time></trkpt><trkpt lat="40.45553389706402" lon="15.011867800471197"><ele>28.0</ele><time>2026-03-29T13:11:40Z</time></trkpt><trkpt lat="40.45542311184406" lon="15.011854615662484"><ele>28.0</ele><time>2026-03-29T13:11:41Z</time></trkpt><trkpt lat="40.4553004946264" lon="15.011840152470864"><ele>28.0</ele><time>2026-03-29T13:11:42Z</time></trkpt><trkpt lat="40.45516933752953" lon="15.01182486736261"><ele>27.75</ele><time>2026-03-29T13:11:43Z</time></trkpt><trkpt lat="40.45502703482211" lon="15.011808008029593"><ele>27.5</ele><time>2026-03-29T13:11:44Z</time></trkpt><trkpt lat="40.45488437505204" lon="15.011790420240423"><ele>27.25</ele><time>2026-03-29T13:11:45Z</time></trkpt><trkpt lat="40.45472415802314" lon="15.011770811429052"><ele>27.0</ele><time>2026-03-29T13:11:46Z</time></trkpt><trkpt lat="40.454564616542555" lon="15.01176803319607"><ele>26.25</ele><time>2026-03-29T13:11:47Z</time></trkpt><trkpt lat="40.454417271223285" lon="15.011739383455014"><ele>25.5</ele><time>2026-03-29T13:11:48Z</time></trkpt><trkpt lat="40.45426862149363" lon="15.01172898006138"><ele>24.75</ele><time>2026-03-29T13:11:49Z</time></trkpt><trkpt lat="40.45412025691149" lon="15.011710332795905"><ele>24.0</ele><time>2026-03-29T13:11:50Z</time></trkpt><trkpt lat="40.45396696005124" lon="15.0116878357624"><ele>24.0</ele><time>2026-03-29T13:11:51Z</time></trkpt><trkpt lat="40.45380372082822" lon="15.011670871144227"><ele>24.0</ele><time>2026-03-29T13:11:52Z</time></trkpt><trkpt lat="40.45364401168373" lon="15.011649867918242"><ele>24.0</ele><time>2026-03-29T13:11:53Z</time></trkpt><trkpt lat="40.45348104690004" lon="15.01163541117611"><ele>23.666666666666668</ele><time>2026-03-29T13:11:54Z</time></trkpt><trkpt lat="40.453318466610455" lon="15.01161903156514"><ele>23.333333333333336</ele><time>2026-03-29T13:11:55Z</time></trkpt><trkpt lat="40.45315580100085" lon="15.011601623282457"><ele>23.0</ele><time>2026-03-29T13:11:56Z</time></trkpt><trkpt lat="40.45299641602579" lon="15.011584862066522"><ele>22.666666666666668</ele><time>2026-03-29T13:11:57Z</time></trkpt><trkpt lat="40.45283303442863" lon="15.011577206845446"><ele>22.333333333333332</ele><time>2026-03-29T13:11:58Z</time></trkpt><trkpt lat="40.45267111472275" lon="15.01156173089142"><ele>22.0</ele><time>2026-03-29T13:11:59Z</time></trkpt><trkpt lat="40.452506284748246" lon="15.011541107013853"><ele>22.0</ele><time>2026-03-29T13:12:00Z</time></trkpt><trkpt lat="40.45234760646591" lon="15.011517960651343"><ele>22.0</ele><time>2026-03-29T13:12:01Z</time></trkpt><trkpt lat="40.45218601383757" lon="15.011497101915213"><ele>22.0</ele><time>2026-03-29T13:12:02Z</time></trkpt><trkpt lat="40.45202444369487" lon="15.011469273849904"><ele>22.0</ele><time>2026-03-29T13:12:03Z</time></trkpt><trkpt lat="40.45186127753489" lon="15.01143443910543"><ele>22.0</ele><time>2026-03-29T13:12:04Z</time></trkpt><trkpt lat="40.451690929306594" lon="15.011398496232763"><ele>22.0</ele><time>2026-03-29T13:12:05Z</time></trkpt><trkpt lat="40.45152215473987" lon="15.011357507819085"><ele>22.0</ele><time>2026-03-29T13:12:06Z</time></trkpt><trkpt lat="40.45135701821885" lon="15.011318517130533"><ele>22.0</ele><time>2026-03-29T13:12:07Z</time></trkpt><trkpt lat="40.45118836044519" lon="15.011275759464425"><ele>22.0</ele><time>2026-03-29T13:12:08Z</time></trkpt><trkpt lat="40.451020927555014" lon="15.011236680365379"><ele>21.666666666666664</ele><time>2026-03-29T13:12:09Z</time></trkpt><trkpt lat="40.45085790325066" lon="15.01118587781049"><ele>21.333333333333332</ele><time>2026-03-29T13:12:10Z</time></trkpt><trkpt lat="40.45069820308739" lon="15.011149978023242"><ele>21.0</ele><time>2026-03-29T13:12:11Z</time></trkpt><trkpt lat="40.450542545966584" lon="15.011107305720094"><ele>21.0</ele><time>2026-03-29T13:12:12Z</time></trkpt><trkpt lat="40.45038464078561" lon="15.011061693796263"><ele>21.0</ele><time>2026-03-29T13:12:13Z</time></trkpt><trkpt lat="40.45021431138629" lon="15.011021355475647"><ele>21.0</ele><time>2026-03-29T13:12:14Z</time></trkpt><trkpt lat="40.45007524584509" lon="15.010997720811458"><ele>21.0</ele><time>2026-03-29T13:12:15Z</time></trkpt><trkpt lat="40.44990472800719" lon="15.010957248074956"><ele>21.0</ele><time>2026-03-29T13:12:16Z</time></trkpt><trkpt lat="40.44976317915569" lon="15.010915425762217"><ele>21.0</ele><time>2026-03-29T13:12:17Z</time></trkpt><trkpt lat="40.449632381212304" lon="15.01088030514098"><ele>21.0</ele><time>2026-03-29T13:12:18Z</time></trkpt><trkpt lat="40.449522566418366" lon="15.01086247263445"><ele>21.0</ele><time>2026-03-29T13:12:19Z</time></trkpt><trkpt lat="40.44939621485618" lon="15.010820932629816"><ele>21.0</ele><time>2026-03-29T13:12:20Z</time></trkpt><trkpt lat="40.44928112556516" lon="15.010796376961128"><ele>21.0</ele><time>2026-03-29T13:12:21Z</time></trkpt><trkpt lat="40.44915893328702" lon="15.010769493061474"><ele>20.8</ele><time>2026-03-29T13:12:22Z</time></trkpt><trkpt lat="40.44903378559559" lon="15.010743939961436"><ele>20.6</ele><time>2026-03-29T13:12:23Z</time></trkpt><trkpt lat="40.448923533797895" lon="15.010689746771922"><ele>20.4</ele><time>2026-03-29T13:12:24Z</time></trkpt><trkpt lat="40.44882421640879" lon="15.010663525571402"><ele>20.2</ele><time>2026-03-29T13:12:25Z</time></trkpt><trkpt lat="40.4487311004826" lon="15.010657355959074"><ele>20.0</ele><time>2026-03-29T13:12:26Z</time></trkpt><trkpt lat="40.448667985568065" lon="15.010642386146941"><ele>20.0</ele><time>2026-03-29T13:12:27Z</time></trkpt><trkpt lat="40.44858054593784" lon="15.010620900432368"><ele>20.0</ele><time>2026-03-29T13:12:28Z</time></trkpt><trkpt lat="40.44848397398764" lon="15.010597808668676"><ele>20.0</ele><time>2026-03-29T13:12:29Z</time></trkpt><trkpt lat="40.44839190675473" lon="15.010556596697844"><ele>20.0</ele><time>2026-03-29T13:12:30Z</time></trkpt><trkpt lat="40.44827742993557" lon="15.010527237658554"><ele>20.0</ele><time>2026-03-29T13:12:31Z</time></trkpt><trkpt lat="40.44815747634512" lon="15.010496847252465"><ele>20.0</ele><time>2026-03-29T13:12:32Z</time></trkpt><trkpt lat="40.448026775631305" lon="15.010463919980529"><ele>20.0</ele><time>2026-03-29T13:12:33Z</time></trkpt><trkpt lat="40.447895139341604" lon="15.010430761213454"><ele>20.0</ele><time>2026-03-29T13:12:34Z</time></trkpt><trkpt lat="40.44775212665366" lon="15.010393947966408"><ele>20.0</ele><time>2026-03-29T13:12:35Z</time></trkpt><trkpt lat="40.44760585389459" lon="15.010355809483787"><ele>19.666666666666668</ele><time>2026-03-29T13:12:36Z</time></trkpt><trkpt lat="40.447451745448696" lon="15.010315627957523"><ele>19.333333333333332</ele><time>2026-03-29T13:12:37Z</time></trkpt><trkpt lat="40.44729380044885" lon="15.010276258029052"><ele>19.0</ele><time>2026-03-29T13:12:38Z</time></trkpt><trkpt lat="40.44712899174459" lon="15.010253005877882"><ele>19.333333333333332</ele><time>2026-03-29T13:12:39Z</time></trkpt><trkpt lat="40.446962305283876" lon="15.010203660416833"><ele>19.666666666666668</ele><time>2026-03-29T13:12:40Z</time></trkpt><trkpt lat="40.4467915273346" lon="15.010156513494687"><ele>20.0</ele><time>2026-03-29T13:12:41Z</time></trkpt><trkpt lat="40.446625326280234" lon="15.01011958900948"><ele>20.0</ele><time>2026-03-29T13:12:42Z</time></trkpt><trkpt lat="40.44645575492585" lon="15.0100756112327"><ele>20.0</ele><time>2026-03-29T13:12:43Z</time></trkpt><trkpt lat="40.44627585393381" lon="15.010029666617156"><ele>20.0</ele><time>2026-03-29T13:12:44Z</time></trkpt><trkpt lat="40.4460997928628" lon="15.009987657763196"><ele>20.333333333333336</ele><time>2026-03-29T13:12:45Z</time></trkpt><trkpt lat="40.44592320056691" lon="15.009944488092087"><ele>20.666666666666668</ele><time>2026-03-29T13:12:46Z</time></trkpt><trkpt lat="40.44574469695172" lon="15.009897120064643"><ele>21.0</ele><time>2026-03-29T13:12:47Z</time></trkpt><trkpt lat="40.445566377268264" lon="15.009852023667692"><ele>21.666666666666668</ele><time>2026-03-29T13:12:48Z</time></trkpt><trkpt lat="40.44539186148847" lon="15.009800779508705"><ele>22.333333333333336</ele><time>2026-03-29T13:12:49Z</time></trkpt><trkpt lat="40.445209713512476" lon="15.009756239976223"><ele>23.0</ele><time>2026-03-29T13:12:50Z</time></trkpt><trkpt lat="40.445025743156016" lon="15.00971248480711"><ele>23.0</ele><time>2026-03-29T13:12:51Z</time></trkpt><trkpt lat="40.44484296230916" lon="15.009662974900946"><ele>23.0</ele><time>2026-03-29T13:12:52Z</time></trkpt><trkpt lat="40.44465380185631" lon="15.009612677132194"><ele>23.0</ele><time>2026-03-29T13:12:53Z</time></trkpt><trkpt lat="40.44446147631581" lon="15.009564840207048"><ele>22.333333333333336</ele><time>2026-03-29T13:12:54Z</time></trkpt><trkpt lat="40.44426737930214" lon="15.009513957806773"><ele>21.666666666666668</ele><time>2026-03-29T13:12:55Z</time></trkpt><trkpt lat="40.44408025473588" lon="15.009461560777305"><ele>21.0</ele><time>2026-03-29T13:12:56Z</time></trkpt><trkpt lat="40.4438908627353" lon="15.00941457601231"><ele>20.666666666666668</ele><time>2026-03-29T13:12:57Z</time></trkpt><trkpt lat="40.443695264209296" lon="15.00934946424256"><ele>20.333333333333336</ele><time>2026-03-29T13:12:58Z</time></trkpt><trkpt lat="40.44352291670292" lon="15.009316534724723"><ele>20.0</ele><time>2026-03-29T13:12:59Z</time></trkpt><trkpt lat="40.44335231611677" lon="15.009277275504912"><ele>20.0</ele><time>2026-03-29T13:13:00Z</time></trkpt><trkpt lat="40.443177055641655" lon="15.009230815528676"><ele>20.0</ele><time>2026-03-29T13:13:01Z</time></trkpt><trkpt lat="40.44300237316467" lon="15.00918648564069"><ele>20.0</ele><time>2026-03-29T13:13:02Z</time></trkpt><trkpt lat="40.44282543149216" lon="15.009138682917012"><ele>19.666666666666668</ele><time>2026-03-29T13:13:03Z</time></trkpt><trkpt lat="40.442663000519126" lon="15.009090969866994"><ele>19.333333333333332</ele><time>2026-03-29T13:13:04Z</time></trkpt><trkpt lat="40.442475457790984" lon="15.00905900876702"><ele>19.0</ele><time>2026-03-29T13:13:05Z</time></trkpt><trkpt lat="40.44229057425969" lon="15.009012813597232"><ele>18.666666666666664</ele><time>2026-03-29T13:13:06Z</time></trkpt><trkpt lat="40.44210676184244" lon="15.008962130024488"><ele>18.333333333333332</ele><time>2026-03-29T13:13:07Z</time></trkpt><trkpt lat="40.441924010660244" lon="15.00891551982784"><ele>18.0</ele><time>2026-03-29T13:13:08Z</time></trkpt><trkpt lat="40.44173504252074" lon="15.0088686417456"><ele>18.0</ele><time>2026-03-29T13:13:09Z</time></trkpt><trkpt lat="40.441548027241296" lon="15.008826264397106"><ele>18.0</ele><time>2026-03-29T13:13:10Z</time></trkpt><trkpt lat="40.441366260132604" lon="15.00875793668807"><ele>18.0</ele><time>2026-03-29T13:13:11Z</time></trkpt><trkpt lat="40.4411864287957" lon="15.008711662261575"><ele>18.666666666666668</ele><time>2026-03-29T13:13:12Z</time></trkpt><trkpt lat="40.440992813357106" lon="15.008662341819548"><ele>19.333333333333336</ele><time>2026-03-29T13:13:13Z</time></trkpt><trkpt lat="40.44081242671904" lon="15.008616438277949"><ele>20.0</ele><time>2026-03-29T13:13:14Z</time></trkpt><trkpt lat="40.44064978655263" lon="15.008575050670332"><ele>20.0</ele><time>2026-03-29T13:13:15Z</time></trkpt><trkpt lat="40.44048992529702" lon="15.008534512534673"><ele>20.0</ele><time>2026-03-29T13:13:16Z</time></trkpt><trkpt lat="40.440305399929244" lon="15.008507607755087"><ele>20.0</ele><time>2026-03-29T13:13:17Z</time></trkpt><trkpt lat="40.44012651081783" lon="15.008464338530803"><ele>19.333333333333336</ele><time>2026-03-29T13:13:18Z</time></trkpt><trkpt lat="40.43995090987077" lon="15.008397993654944"><ele>18.666666666666668</ele><time>2026-03-29T13:13:19Z</time></trkpt><trkpt lat="40.43976794981549" lon="15.008371232099783"><ele>18.0</ele><time>2026-03-29T13:13:20Z</time></trkpt><trkpt lat="40.43959025303047" lon="15.00831837683113"><ele>17.0</ele><time>2026-03-29T13:13:21Z</time></trkpt><trkpt lat="40.43942012458601" lon="15.008279978300218"><ele>16.0</ele><time>2026-03-29T13:13:22Z</time></trkpt><trkpt lat="40.439233573534494" lon="15.00821757297973"><ele>15.0</ele><time>2026-03-29T13:13:23Z</time></trkpt><trkpt lat="40.43905165800705" lon="15.008171588922437"><ele>15.0</ele><time>2026-03-29T13:13:24Z</time></trkpt><trkpt lat="40.43885519957118" lon="15.008153467696973"><ele>15.0</ele><time>2026-03-29T13:13:25Z</time></trkpt><trkpt lat="40.43866239314486" lon="15.00811007229245"><ele>15.0</ele><time>2026-03-29T13:13:26Z</time></trkpt><trkpt lat="40.43847364071066" lon="15.00805708125376"><ele>15.0</ele><time>2026-03-29T13:13:27Z</time></trkpt><trkpt lat="40.4382766306405" lon="15.008002855407515"><ele>15.0</ele><time>2026-03-29T13:13:28Z</time></trkpt><trkpt lat="40.43808885699177" lon="15.007950714579906"><ele>15.0</ele><time>2026-03-29T13:13:29Z</time></trkpt><trkpt lat="40.43790268033729" lon="15.007901130296995"><ele>15.0</ele><time>2026-03-29T13:13:30Z</time></trkpt><trkpt lat="40.437731579588316" lon="15.007908450759869"><ele>15.0</ele><time>2026-03-29T13:13:31Z</time></trkpt><trkpt lat="40.43757985688801" lon="15.007882306563587"><ele>15.0</ele><time>2026-03-29T13:13:32Z</time></trkpt><trkpt lat="40.43740216704679" lon="15.007752161596015"><ele>15.0</ele><time>2026-03-29T13:13:33Z</time></trkpt><trkpt lat="40.43723509004482" lon="15.007710804584981"><ele>15.0</ele><time>2026-03-29T13:13:34Z</time></trkpt><trkpt lat="40.43707578511628" lon="15.007671186933846"><ele>15.0</ele><time>2026-03-29T13:13:35Z</time></trkpt><trkpt lat="40.4369315669621" lon="15.007635321218688"><ele>15.333333333333334</ele><time>2026-03-29T13:13:36Z</time></trkpt><trkpt lat="40.436805649848225" lon="15.007604006801152"><ele>15.666666666666668</ele><time>2026-03-29T13:13:37Z</time></trkpt><trkpt lat="40.43670734785853" lon="15.007579543588452"><ele>16.0</ele><time>2026-03-29T13:13:38Z</time></trkpt><trkpt lat="40.43664137079399" lon="15.007574344918106"><ele>16.333333333333336</ele><time>2026-03-29T13:13:39Z</time></trkpt><trkpt lat="40.43658268562486" lon="15.00753754294722"><ele>16.666666666666668</ele><time>2026-03-29T13:13:42Z</time></trkpt><trkpt lat="40.4365014049917" lon="15.007530229783367"><ele>17.0</ele><time>2026-03-29T13:13:44Z</time></trkpt><trkpt lat="40.436434419200445" lon="15.007519062551374"><ele>17.0</ele><time>2026-03-29T13:13:45Z</time></trkpt><trkpt lat="40.43635389022939" lon="15.00750190371988"><ele>17.0</ele><time>2026-03-29T13:13:46Z</time></trkpt><trkpt lat="40.4362560464014" lon="15.007484171491372"><ele>17.0</ele><time>2026-03-29T13:13:47Z</time></trkpt><trkpt lat="40.43618119682993" lon="15.007446405771182"><ele>17.0</ele><time>2026-03-29T13:13:48Z</time></trkpt><trkpt lat="40.436069136282356" lon="15.007441952404603"><ele>17.0</ele><time>2026-03-29T13:13:49Z</time></trkpt><trkpt lat="40.43595240063193" lon="15.007406054568792"><ele>16.75</ele><time>2026-03-29T13:13:50Z</time></trkpt><trkpt lat="40.43584012754676" lon="15.007382106513006"><ele>16.5</ele><time>2026-03-29T13:13:51Z</time></trkpt><trkpt lat="40.43571586470231" lon="15.007347535000147"><ele>16.25</ele><time>2026-03-29T13:13:52Z</time></trkpt><trkpt lat="40.43558442872549" lon="15.007315847135814"><ele>16.0</ele><time>2026-03-29T13:13:53Z</time></trkpt><trkpt lat="40.435447903794135" lon="15.00725675761105"><ele>16.0</ele><time>2026-03-29T13:13:54Z</time></trkpt><trkpt lat="40.43530740927459" lon="15.007221747148641"><ele>16.0</ele><time>2026-03-29T13:13:55Z</time></trkpt><trkpt lat="40.435153888494334" lon="15.007196632543753"><ele>16.0</ele><time>2026-03-29T13:13:56Z</time></trkpt><trkpt lat="40.43500053566229" lon="15.007154070160427"><ele>16.0</ele><time>2026-03-29T13:13:57Z</time></trkpt><trkpt lat="40.43484185643893" lon="15.007111655752114"><ele>16.0</ele><time>2026-03-29T13:13:58Z</time></trkpt><trkpt lat="40.43468287996871" lon="15.007074675167724"><ele>16.0</ele><time>2026-03-29T13:13:59Z</time></trkpt><trkpt lat="40.4345100421123" lon="15.007043381521349"><ele>16.0</ele><time>2026-03-29T13:14:00Z</time></trkpt><trkpt lat="40.43435421797291" lon="15.006986477434715"><ele>16.0</ele><time>2026-03-29T13:14:01Z</time></trkpt><trkpt lat="40.43418475130947" lon="15.006963738110683"><ele>16.0</ele><time>2026-03-29T13:14:02Z</time></trkpt><trkpt lat="40.43401294026197" lon="15.006912445094429"><ele>16.0</ele><time>2026-03-29T13:14:03Z</time></trkpt><trkpt lat="40.43384425348754" lon="15.006869019329814"><ele>16.0</ele><time>2026-03-29T13:14:04Z</time></trkpt><trkpt lat="40.43367786487609" lon="15.006823447133206"><ele>16.0</ele><time>2026-03-29T13:14:05Z</time></trkpt><trkpt lat="40.43350614308919" lon="15.006778667299926"><ele>16.333333333333332</ele><time>2026-03-29T13:14:06Z</time></trkpt><trkpt lat="40.433327500182386" lon="15.006734819951502"><ele>16.666666666666668</ele><time>2026-03-29T13:14:07Z</time></trkpt><trkpt lat="40.43314751118026" lon="15.006692695885429"><ele>17.0</ele><time>2026-03-29T13:14:08Z</time></trkpt><trkpt lat="40.43295840622259" lon="15.006646400504936"><ele>16.333333333333336</ele><time>2026-03-29T13:14:09Z</time></trkpt><trkpt lat="40.43277477601869" lon="15.006595138711587"><ele>15.666666666666668</ele><time>2026-03-29T13:14:10Z</time></trkpt><trkpt lat="40.43259002478146" lon="15.006552600036166"><ele>15.0</ele><time>2026-03-29T13:14:11Z</time></trkpt><trkpt lat="40.43240078127167" lon="15.00650056380245"><ele>15.0</ele><time>2026-03-29T13:14:12Z</time></trkpt><trkpt lat="40.432222140369" lon="15.006443021593554"><ele>15.0</ele><time>2026-03-29T13:14:13Z</time></trkpt><trkpt lat="40.43204193668609" lon="15.006407090764624"><ele>15.0</ele><time>2026-03-29T13:14:14Z</time></trkpt><trkpt lat="40.4318628308801" lon="15.006362370399831"><ele>15.333333333333332</ele><time>2026-03-29T13:14:15Z</time></trkpt><trkpt lat="40.43166769808343" lon="15.006293925391407"><ele>15.666666666666666</ele><time>2026-03-29T13:14:16Z</time></trkpt><trkpt lat="40.4314843765296" lon="15.006258683079922"><ele>16.0</ele><time>2026-03-29T13:14:17Z</time></trkpt><trkpt lat="40.4312981190401" lon="15.006206371889816"><ele>15.333333333333332</ele><time>2026-03-29T13:14:18Z</time></trkpt><trkpt lat="40.43111329703903" lon="15.006169446710276"><ele>14.666666666666668</ele><time>2026-03-29T13:14:19Z</time></trkpt><trkpt lat="40.43092353673253" lon="15.00612738194088"><ele>14.0</ele><time>2026-03-29T13:14:20Z</time></trkpt><trkpt lat="40.43073882744394" lon="15.006082158112891"><ele>14.0</ele><time>2026-03-29T13:14:21Z</time></trkpt><trkpt lat="40.43054739293725" lon="15.00602462582776"><ele>14.0</ele><time>2026-03-29T13:14:22Z</time></trkpt><trkpt lat="40.43037610213753" lon="15.005938308628409"><ele>14.0</ele><time>2026-03-29T13:14:23Z</time></trkpt><trkpt lat="40.43019511205081" lon="15.005923520343803"><ele>14.0</ele><time>2026-03-29T13:14:24Z</time></trkpt><trkpt lat="40.43001292699905" lon="15.005891169115964"><ele>14.0</ele><time>2026-03-29T13:14:25Z</time></trkpt><trkpt lat="40.42983437678725" lon="15.00583716362792"><ele>14.0</ele><time>2026-03-29T13:14:26Z</time></trkpt><trkpt lat="40.429650608230325" lon="15.005784386378819"><ele>13.333333333333334</ele><time>2026-03-29T13:14:27Z</time></trkpt><trkpt lat="40.4294701468158" lon="15.005740505405823"><ele>12.666666666666668</ele><time>2026-03-29T13:14:28Z</time></trkpt><trkpt lat="40.42928515214335" lon="15.005693999973786"><ele>12.0</ele><time>2026-03-29T13:14:29Z</time></trkpt><trkpt lat="40.429102241434684" lon="15.005643266386674"><ele>12.0</ele><time>2026-03-29T13:14:30Z</time></trkpt><trkpt lat="40.428912422840355" lon="15.00559783660252"><ele>12.0</ele><time>2026-03-29T13:14:31Z</time></trkpt><trkpt lat="40.42872757059589" lon="15.005543986538909"><ele>12.0</ele><time>2026-03-29T13:14:32Z</time></trkpt><trkpt lat="40.42853555071209" lon="15.005493429304352"><ele>13.0</ele><time>2026-03-29T13:14:33Z</time></trkpt><trkpt lat="40.42835134204216" lon="15.005451118277685"><ele>14.0</ele><time>2026-03-29T13:14:34Z</time></trkpt><trkpt lat="40.42817501571308" lon="15.005414005445518"><ele>15.0</ele><time>2026-03-29T13:14:35Z</time></trkpt><trkpt lat="40.428017051178415" lon="15.005366204480232"><ele>15.0</ele><time>2026-03-29T13:14:36Z</time></trkpt><trkpt lat="40.42785887405354" lon="15.005315321812605"><ele>15.0</ele><time>2026-03-29T13:14:37Z</time></trkpt><trkpt lat="40.42770001609943" lon="15.005279959347115"><ele>15.0</ele><time>2026-03-29T13:14:38Z</time></trkpt><trkpt lat="40.427558765301775" lon="15.005240401741425"><ele>15.0</ele><time>2026-03-29T13:14:39Z</time></trkpt><trkpt lat="40.42740017649271" lon="15.005214091230995"><ele>15.0</ele><time>2026-03-29T13:14:40Z</time></trkpt><trkpt lat="40.42726253631801" lon="15.005193133328376"><ele>15.0</ele><time>2026-03-29T13:14:41Z</time></trkpt><trkpt lat="40.42712299328373" lon="15.005170509909297"><ele>15.0</ele><time>2026-03-29T13:14:42Z</time></trkpt><trkpt lat="40.427001558616524" lon="15.005153354866682"><ele>15.5</ele><time>2026-03-29T13:14:43Z</time></trkpt><trkpt lat="40.426892709425694" lon="15.00514240034059"><ele>16.0</ele><time>2026-03-29T13:14:44Z</time></trkpt><trkpt lat="40.42668958393771" lon="15.005144961401129"><ele>16.5</ele><time>2026-03-29T13:14:46Z</time></trkpt><trkpt lat="40.42659620594741" lon="15.005181107620608"><ele>17.0</ele><time>2026-03-29T13:14:47Z</time></trkpt><trkpt lat="40.42650198807048" lon="15.005204271024452"><ele>17.0</ele><time>2026-03-29T13:14:48Z</time></trkpt><trkpt lat="40.42641095705292" lon="15.005253954771547"><ele>17.0</ele><time>2026-03-29T13:14:49Z</time></trkpt><trkpt lat="40.426313895602675" lon="15.005308691238609"><ele>17.0</ele><time>2026-03-29T13:14:50Z</time></trkpt><trkpt lat="40.42621293768336" lon="15.005365331593037"><ele>17.0</ele><time>2026-03-29T13:14:51Z</time></trkpt><trkpt lat="40.42610770727316" lon="15.005422982804168"><ele>17.0</ele><time>2026-03-29T13:14:52Z</time></trkpt><trkpt lat="40.42601209730043" lon="15.005493492604613"><ele>17.0</ele><time>2026-03-29T13:14:53Z</time></trkpt><trkpt lat="40.42592334523237" lon="15.005541520828192"><ele>17.0</ele><time>2026-03-29T13:14:54Z</time></trkpt><trkpt lat="40.42583207730655" lon="15.005594182158932"><ele>17.0</ele><time>2026-03-29T13:14:55Z</time></trkpt><trkpt lat="40.42573143084785" lon="15.005646538339755"><ele>17.0</ele><time>2026-03-29T13:14:56Z</time></trkpt><trkpt lat="40.4256415881893" lon="15.005700384527909"><ele>17.0</ele><time>2026-03-29T13:14:57Z</time></trkpt><trkpt lat="40.42555313672304" lon="15.005747097516647"><ele>17.0</ele><time>2026-03-29T13:14:58Z</time></trkpt><trkpt lat="40.425468243642804" lon="15.005790218065208"><ele>17.0</ele><time>2026-03-29T13:14:59Z</time></trkpt><trkpt lat="40.42538765678292" lon="15.00583252430798"><ele>17.0</ele><time>2026-03-29T13:15:00Z</time></trkpt><trkpt lat="40.425300346615266" lon="15.005885717205922"><ele>17.0</ele><time>2026-03-29T13:15:02Z</time></trkpt><trkpt lat="40.4252360294417" lon="15.005917514674017"><ele>17.0</ele><time>2026-03-29T13:15:04Z</time></trkpt><trkpt lat="40.42512043961746" lon="15.005967873121785"><ele>17.0</ele><time>2026-03-29T13:15:06Z</time></trkpt><trkpt lat="40.425066019152375" lon="15.00601138266056"><ele>17.0</ele><time>2026-03-29T13:15:07Z</time></trkpt><trkpt lat="40.42500226002302" lon="15.006029591391385"><ele>17.0</ele><time>2026-03-29T13:15:10Z</time></trkpt><trkpt lat="40.42494078195342" lon="15.006060266450442"><ele>17.0</ele><time>2026-03-29T13:15:14Z</time></trkpt><trkpt lat="40.4250131425932" lon="15.006023908081563"><ele>17.0</ele><time>2026-03-29T13:15:59Z</time></trkpt></trkseg></trk></gpx>